<?xml version='1.0' encoding='UTF-8'?><gpx version="1.1" creator="JPX - https://github.com/jenetics/jpx" xmlns="http://www.topografix.com/GPX/1/1"><trk><trkseg><trkpt lat="43.1617166" lon="12.2827577"><ele>251.0</ele><time>2026-03-29T07:15:31.372Z</time></trkpt><trkpt lat="43.1617955" lon="12.2826595"><ele>251.00000000000003</ele><time>2026-03-29T07:15:33.371Z</time></trkpt><trkpt lat="43.1618686" lon="12.2825361"><ele>251.00000000000003</ele><time>2026-03-29T07:15:35.372Z</time></trkpt><trkpt lat="43.1619204" lon="12.282441"><ele>251.0</ele><time>2026-03-29T07:15:36.372Z</time></trkpt><trkpt lat="43.1619786" lon="12.2823364"><ele>251.0</ele><time>2026-03-29T07:15:37.374Z</time></trkpt><trkpt lat="43.1620304" lon="12.2822298"><ele>250.8</ele><time>2026-03-29T07:15:38.373Z</time></trkpt><trkpt lat="43.1620829" lon="12.2821207"><ele>250.60000000000002</ele><time>2026-03-29T07:15:39.372Z</time></trkpt><trkpt lat="43.1621456" lon="12.2820017"><ele>250.4</ele><time>2026-03-29T07:15:40.373Z</time></trkpt><trkpt lat="43.1621992" lon="12.281904"><ele>250.2</ele><time>2026-03-29T07:15:41.373Z</time></trkpt><trkpt lat="43.1622522" lon="12.2817974"><ele>250.0</ele><time>2026-03-29T07:15:42.374Z</time></trkpt><trkpt lat="43.1623065" lon="12.2816939"><ele>249.99999999999997</ele><time>2026-03-29T07:15:43.373Z</time></trkpt><trkpt lat="43.1623578" lon="12.2815953"><ele>250.0</ele><time>2026-03-29T07:15:44.371Z</time></trkpt><trkpt lat="43.1624111" lon="12.2814946"><ele>250.0</ele><time>2026-03-29T07:15:45.371Z</time></trkpt><trkpt lat="43.1624684" lon="12.2814"><ele>250.0</ele><time>2026-03-29T07:15:46.373Z</time></trkpt><trkpt lat="43.16252" lon="12.2813054"><ele>249.99999999999997</ele><time>2026-03-29T07:15:47.374Z</time></trkpt><trkpt lat="43.1625734" lon="12.2812"><ele>250.0</ele><time>2026-03-29T07:15:48.372Z</time></trkpt><trkpt lat="43.1626253" lon="12.2811002"><ele>250.0</ele><time>2026-03-29T07:15:49.371Z</time></trkpt><trkpt lat="43.1626794" lon="12.2810017"><ele>250.0</ele><time>2026-03-29T07:15:50.371Z</time></trkpt><trkpt lat="43.1627322" lon="12.2809004"><ele>250.0</ele><time>2026-03-29T07:15:51.373Z</time></trkpt><trkpt lat="43.1627863" lon="12.2807976"><ele>250.0</ele><time>2026-03-29T07:15:52.372Z</time></trkpt><trkpt lat="43.1628387" lon="12.2806891"><ele>250.0</ele><time>2026-03-29T07:15:53.374Z</time></trkpt><trkpt lat="43.1628913" lon="12.2805925"><ele>250.2</ele><time>2026-03-29T07:15:54.373Z</time></trkpt><trkpt lat="43.1629513" lon="12.2804765"><ele>250.4</ele><time>2026-03-29T07:15:55.372Z</time></trkpt><trkpt lat="43.1630171" lon="12.280359"><ele>250.60000000000002</ele><time>2026-03-29T07:15:56.372Z</time></trkpt><trkpt lat="43.1630884" lon="12.2802301"><ele>250.8</ele><time>2026-03-29T07:15:57.373Z</time></trkpt><trkpt lat="43.1631565" lon="12.2801046"><ele>251.0</ele><time>2026-03-29T07:15:58.371Z</time></trkpt><trkpt lat="43.1632325" lon="12.2799693"><ele>251.25</ele><time>2026-03-29T07:15:59.373Z</time></trkpt><trkpt lat="43.1633071" lon="12.279839"><ele>251.5</ele><time>2026-03-29T07:16:00.372Z</time></trkpt><trkpt lat="43.1633873" lon="12.2797148"><ele>251.75</ele><time>2026-03-29T07:16:01.372Z</time></trkpt><trkpt lat="43.1634762" lon="12.2795992"><ele>252.0</ele><time>2026-03-29T07:16:02.372Z</time></trkpt><trkpt lat="43.1635699" lon="12.2794926"><ele>252.0</ele><time>2026-03-29T07:16:03.373Z</time></trkpt><trkpt lat="43.1636783" lon="12.279417"><ele>252.0</ele><time>2026-03-29T07:16:04.373Z</time></trkpt><trkpt lat="43.1637839" lon="12.2793442"><ele>252.0</ele><time>2026-03-29T07:16:05.374Z</time></trkpt><trkpt lat="43.1638779" lon="12.2793044"><ele>252.0</ele><time>2026-03-29T07:16:06.372Z</time></trkpt><trkpt lat="43.1639691" lon="12.279266"><ele>252.0</ele><time>2026-03-29T07:16:07.372Z</time></trkpt><trkpt lat="43.1640602" lon="12.279249"><ele>252.39999999999998</ele><time>2026-03-29T07:16:08.372Z</time></trkpt><trkpt lat="43.164155" lon="12.2792106"><ele>252.79999999999998</ele><time>2026-03-29T07:16:09.373Z</time></trkpt><trkpt lat="43.1642631" lon="12.2791871"><ele>253.2</ele><time>2026-03-29T07:16:10.372Z</time></trkpt><trkpt lat="43.1643769" lon="12.2791612"><ele>253.6</ele><time>2026-03-29T07:16:11.373Z</time></trkpt><trkpt lat="43.1645001" lon="12.2791455"><ele>254.0</ele><time>2026-03-29T07:16:12.372Z</time></trkpt><trkpt lat="43.164617" lon="12.279125"><ele>254.0</ele><time>2026-03-29T07:16:13.371Z</time></trkpt><trkpt lat="43.1647358" lon="12.2791084"><ele>254.0</ele><time>2026-03-29T07:16:14.373Z</time></trkpt><trkpt lat="43.1648569" lon="12.2790985"><ele>254.0</ele><time>2026-03-29T07:16:15.373Z</time></trkpt><trkpt lat="43.1649671" lon="12.2790953"><ele>254.0</ele><time>2026-03-29T07:16:16.373Z</time></trkpt><trkpt lat="43.165074" lon="12.2790686"><ele>254.0</ele><time>2026-03-29T07:16:17.372Z</time></trkpt><trkpt lat="43.1651813" lon="12.2790279"><ele>254.0</ele><time>2026-03-29T07:16:18.374Z</time></trkpt><trkpt lat="43.1652963" lon="12.2789567"><ele>254.0</ele><time>2026-03-29T07:16:19.372Z</time></trkpt><trkpt lat="43.1654068" lon="12.2788843"><ele>254.0</ele><time>2026-03-29T07:16:20.371Z</time></trkpt><trkpt lat="43.1655142" lon="12.2788073"><ele>253.75</ele><time>2026-03-29T07:16:21.374Z</time></trkpt><trkpt lat="43.1656277" lon="12.2787451"><ele>253.5</ele><time>2026-03-29T07:16:22.373Z</time></trkpt><trkpt lat="43.1657409" lon="12.278688"><ele>253.25</ele><time>2026-03-29T07:16:23.374Z</time></trkpt><trkpt lat="43.1658613" lon="12.2786558"><ele>253.0</ele><time>2026-03-29T07:16:24.373Z</time></trkpt><trkpt lat="43.1659814" lon="12.2786244"><ele>254.25</ele><time>2026-03-29T07:16:25.373Z</time></trkpt><trkpt lat="43.1661074" lon="12.2786069"><ele>255.5</ele><time>2026-03-29T07:16:26.373Z</time></trkpt><trkpt lat="43.1662215" lon="12.2785864"><ele>256.75</ele><time>2026-03-29T07:16:27.373Z</time></trkpt><trkpt lat="43.1663677" lon="12.2785563"><ele>258.0</ele><time>2026-03-29T07:16:28.373Z</time></trkpt><trkpt lat="43.1664981" lon="12.2785308"><ele>259.2</ele><time>2026-03-29T07:16:29.372Z</time></trkpt><trkpt lat="43.1666132" lon="12.278517"><ele>260.4</ele><time>2026-03-29T07:16:30.371Z</time></trkpt><trkpt lat="43.1667275" lon="12.2784926"><ele>261.59999999999997</ele><time>2026-03-29T07:16:31.372Z</time></trkpt><trkpt lat="43.16683" lon="12.2784661"><ele>262.8</ele><time>2026-03-29T07:16:32.373Z</time></trkpt><trkpt lat="43.1669199" lon="12.27844"><ele>264.0</ele><time>2026-03-29T07:16:33.372Z</time></trkpt><trkpt lat="43.1670141" lon="12.2784117"><ele>264.0</ele><time>2026-03-29T07:16:34.373Z</time></trkpt><trkpt lat="43.1670968" lon="12.278411"><ele>264.0</ele><time>2026-03-29T07:16:35.373Z</time></trkpt><trkpt lat="43.1671855" lon="12.2784112"><ele>264.0</ele><time>2026-03-29T07:16:36.372Z</time></trkpt><trkpt lat="43.1672589" lon="12.2784783"><ele>264.0</ele><time>2026-03-29T07:16:37.373Z</time></trkpt><trkpt lat="43.1673436" lon="12.2785302"><ele>264.0</ele><time>2026-03-29T07:16:38.373Z</time></trkpt><trkpt lat="43.1674312" lon="12.2785832"><ele>264.0</ele><time>2026-03-29T07:16:39.373Z</time></trkpt><trkpt lat="43.1675095" lon="12.2786396"><ele>266.4</ele><time>2026-03-29T07:16:40.373Z</time></trkpt><trkpt lat="43.1676132" lon="12.2787044"><ele>268.79999999999995</ele><time>2026-03-29T07:16:41.372Z</time></trkpt><trkpt lat="43.1677183" lon="12.2787621"><ele>271.20000000000005</ele><time>2026-03-29T07:16:42.373Z</time></trkpt><trkpt lat="43.1678058" lon="12.2788205"><ele>273.6</ele><time>2026-03-29T07:16:43.373Z</time></trkpt><trkpt lat="43.1678917" lon="12.2788864"><ele>276.0</ele><time>2026-03-29T07:16:45.373Z</time></trkpt><trkpt lat="43.1678549" lon="12.2788119"><ele>276.0</ele><time>2026-03-29T07:16:50.373Z</time></trkpt><trkpt lat="43.1677776" lon="12.2786527"><ele>276.0</ele><time>2026-03-29T07:16:52.373Z</time></trkpt><trkpt lat="43.1677547" lon="12.2785373"><ele>276.0</ele><time>2026-03-29T07:16:53.373Z</time></trkpt><trkpt lat="43.1677295" lon="12.2784233"><ele>276.0</ele><time>2026-03-29T07:16:54.374Z</time></trkpt><trkpt lat="43.1676905" lon="12.2782983"><ele>276.0</ele><time>2026-03-29T07:16:55.371Z</time></trkpt><trkpt lat="43.1676538" lon="12.2781735"><ele>279.75</ele><time>2026-03-29T07:16:56.373Z</time></trkpt><trkpt lat="43.1676112" lon="12.2780326"><ele>283.5</ele><time>2026-03-29T07:16:57.374Z</time></trkpt><trkpt lat="43.1675593" lon="12.2778892"><ele>287.25</ele><time>2026-03-29T07:16:58.372Z</time></trkpt><trkpt lat="43.1675134" lon="12.2777371"><ele>291.0</ele><time>2026-03-29T07:16:59.373Z</time></trkpt><trkpt lat="43.1674573" lon="12.2775876"><ele>291.0</ele><time>2026-03-29T07:17:00.373Z</time></trkpt><trkpt lat="43.1673997" lon="12.2774419"><ele>291.0</ele><time>2026-03-29T07:17:01.373Z</time></trkpt><trkpt lat="43.1673503" lon="12.2773083"><ele>291.0</ele><time>2026-03-29T07:17:02.373Z</time></trkpt><trkpt lat="43.1673035" lon="12.2771865"><ele>291.0</ele><time>2026-03-29T07:17:03.373Z</time></trkpt><trkpt lat="43.1672527" lon="12.277065"><ele>291.0</ele><time>2026-03-29T07:17:04.374Z</time></trkpt><trkpt lat="43.1672078" lon="12.2769586"><ele>291.40000000000003</ele><time>2026-03-29T07:17:05.373Z</time></trkpt><trkpt lat="43.1671706" lon="12.2768454"><ele>291.8</ele><time>2026-03-29T07:17:06.373Z</time></trkpt><trkpt lat="43.1671346" lon="12.2767297"><ele>292.20000000000005</ele><time>2026-03-29T07:17:07.373Z</time></trkpt><trkpt lat="43.1671043" lon="12.2766018"><ele>292.6</ele><time>2026-03-29T07:17:08.373Z</time></trkpt><trkpt lat="43.1670766" lon="12.2764693"><ele>293.0</ele><time>2026-03-29T07:17:09.373Z</time></trkpt><trkpt lat="43.1670365" lon="12.2763266"><ele>293.0</ele><time>2026-03-29T07:17:10.373Z</time></trkpt><trkpt lat="43.1670048" lon="12.2761981"><ele>293.0</ele><time>2026-03-29T07:17:11.374Z</time></trkpt><trkpt lat="43.1669834" lon="12.276079"><ele>293.0</ele><time>2026-03-29T07:17:12.373Z</time></trkpt><trkpt lat="43.1670779" lon="12.2759789"><ele>293.0</ele><time>2026-03-29T07:17:14.374Z</time></trkpt><trkpt lat="43.1672042" lon="12.2760344"><ele>293.0</ele><time>2026-03-29T07:17:16.373Z</time></trkpt><trkpt lat="43.1672784" lon="12.2761218"><ele>293.0</ele><time>2026-03-29T07:17:17.373Z</time></trkpt><trkpt lat="43.1673571" lon="12.2762252"><ele>293.0</ele><time>2026-03-29T07:17:18.374Z</time></trkpt><trkpt lat="43.16742" lon="12.2763492"><ele>293.0</ele><time>2026-03-29T07:17:19.372Z</time></trkpt><trkpt lat="43.1674731" lon="12.2764648"><ele>293.0</ele><time>2026-03-29T07:17:20.373Z</time></trkpt><trkpt lat="43.1675296" lon="12.2765914"><ele>293.0</ele><time>2026-03-29T07:17:21.374Z</time></trkpt><trkpt lat="43.1675884" lon="12.2767248"><ele>295.75</ele><time>2026-03-29T07:17:22.373Z</time></trkpt><trkpt lat="43.1676569" lon="12.2768626"><ele>298.5</ele><time>2026-03-29T07:17:23.373Z</time></trkpt><trkpt lat="43.1677255" lon="12.2769913"><ele>301.25</ele><time>2026-03-29T07:17:24.372Z</time></trkpt><trkpt lat="43.1678062" lon="12.2770853"><ele>304.0</ele><time>2026-03-29T07:17:25.375Z</time></trkpt><trkpt lat="43.1679101" lon="12.2771776"><ele>304.0</ele><time>2026-03-29T07:17:26.373Z</time></trkpt><trkpt lat="43.1680104" lon="12.2772401"><ele>304.0</ele><time>2026-03-29T07:17:27.373Z</time></trkpt><trkpt lat="43.1681176" lon="12.2773085"><ele>304.0</ele><time>2026-03-29T07:17:28.377Z</time></trkpt><trkpt lat="43.1681995" lon="12.2773684"><ele>304.0</ele><time>2026-03-29T07:17:29.373Z</time></trkpt><trkpt lat="43.1682631" lon="12.2774178"><ele>304.0</ele><time>2026-03-29T07:17:30.373Z</time></trkpt><trkpt lat="43.1683717" lon="12.2773709"><ele>304.2</ele><time>2026-03-29T07:17:31.372Z</time></trkpt><trkpt lat="43.1684654" lon="12.2773713"><ele>304.4</ele><time>2026-03-29T07:17:32.372Z</time></trkpt><trkpt lat="43.1685751" lon="12.2773562"><ele>304.6</ele><time>2026-03-29T07:17:33.372Z</time></trkpt><trkpt lat="43.1686802" lon="12.277339"><ele>304.8</ele><time>2026-03-29T07:17:34.373Z</time></trkpt><trkpt lat="43.1687732" lon="12.2773097"><ele>305.0</ele><time>2026-03-29T07:17:35.372Z</time></trkpt><trkpt lat="43.1688498" lon="12.2772789"><ele>306.4</ele><time>2026-03-29T07:17:36.373Z</time></trkpt><trkpt lat="43.1689278" lon="12.2772352"><ele>307.8</ele><time>2026-03-29T07:17:37.375Z</time></trkpt><trkpt lat="43.1689986" lon="12.2772402"><ele>309.2</ele><time>2026-03-29T07:17:38.372Z</time></trkpt><trkpt lat="43.1691196" lon="12.2773132"><ele>310.6</ele><time>2026-03-29T07:17:40.373Z</time></trkpt><trkpt lat="43.1691861" lon="12.2773708"><ele>312.0</ele><time>2026-03-29T07:17:41.374Z</time></trkpt><trkpt lat="43.1692712" lon="12.2774089"><ele>312.0</ele><time>2026-03-29T07:17:42.372Z</time></trkpt><trkpt lat="43.1693367" lon="12.2774269"><ele>312.0</ele><time>2026-03-29T07:17:43.372Z</time></trkpt><trkpt lat="43.1694023" lon="12.2774124"><ele>312.0</ele><time>2026-03-29T07:17:44.372Z</time></trkpt><trkpt lat="43.1694848" lon="12.2773832"><ele>312.0</ele><time>2026-03-29T07:17:45.372Z</time></trkpt><trkpt lat="43.1695702" lon="12.2773539"><ele>312.0</ele><time>2026-03-29T07:17:46.374Z</time></trkpt><trkpt lat="43.1696663" lon="12.2773093"><ele>312.0</ele><time>2026-03-29T07:17:47.372Z</time></trkpt><trkpt lat="43.1697452" lon="12.2772731"><ele>316.6</ele><time>2026-03-29T07:17:48.374Z</time></trkpt><trkpt lat="43.169828" lon="12.2772493"><ele>321.2</ele><time>2026-03-29T07:17:49.374Z</time></trkpt><trkpt lat="43.169902" lon="12.2772307"><ele>325.8</ele><time>2026-03-29T07:17:50.373Z</time></trkpt><trkpt lat="43.1699686" lon="12.2772052"><ele>330.4</ele><time>2026-03-29T07:17:51.374Z</time></trkpt><trkpt lat="43.1700916" lon="12.2771441"><ele>335.0</ele><time>2026-03-29T07:17:53.373Z</time></trkpt><trkpt lat="43.1702114" lon="12.2770747"><ele>337.0</ele><time>2026-03-29T07:17:55.373Z</time></trkpt><trkpt lat="43.1702785" lon="12.2770154"><ele>339.0</ele><time>2026-03-29T07:17:56.374Z</time></trkpt><trkpt lat="43.1703872" lon="12.2769271"><ele>341.0</ele><time>2026-03-29T07:17:58.372Z</time></trkpt><trkpt lat="43.1704489" lon="12.2769024"><ele>343.0</ele><time>2026-03-29T07:17:59.372Z</time></trkpt><trkpt lat="43.1705079" lon="12.2768527"><ele>345.0</ele><time>2026-03-29T07:18:00.374Z</time></trkpt><trkpt lat="43.1705859" lon="12.2767215"><ele>345.0</ele><time>2026-03-29T07:18:02.374Z</time></trkpt><trkpt lat="43.1706311" lon="12.276571"><ele>345.0</ele><time>2026-03-29T07:18:04.374Z</time></trkpt><trkpt lat="43.1706487" lon="12.2764866"><ele>345.0</ele><time>2026-03-29T07:18:05.372Z</time></trkpt><trkpt lat="43.1706694" lon="12.2763123"><ele>345.0</ele><time>2026-03-29T07:18:07.373Z</time></trkpt><trkpt lat="43.1707361" lon="12.2762412"><ele>345.0</ele><time>2026-03-29T07:18:09.372Z</time></trkpt><trkpt lat="43.1707895" lon="12.2761554"><ele>349.2</ele><time>2026-03-29T07:18:11.373Z</time></trkpt><trkpt lat="43.1708206" lon="12.2759781"><ele>353.4</ele><time>2026-03-29T07:18:13.372Z</time></trkpt><trkpt lat="43.1708378" lon="12.2758681"><ele>357.6</ele><time>2026-03-29T07:18:14.372Z</time></trkpt><trkpt lat="43.1708511" lon="12.2757582"><ele>361.8</ele><time>2026-03-29T07:18:15.374Z</time></trkpt><trkpt lat="43.170869" lon="12.2756588"><ele>366.0</ele><time>2026-03-29T07:18:16.374Z</time></trkpt><trkpt lat="43.1709338" lon="12.2755477"><ele>367.8</ele><time>2026-03-29T07:18:18.372Z</time></trkpt><trkpt lat="43.1709991" lon="12.2755243"><ele>369.6</ele><time>2026-03-29T07:18:20.374Z</time></trkpt><trkpt lat="43.1711226" lon="12.2755539"><ele>371.4</ele><time>2026-03-29T07:18:22.374Z</time></trkpt><trkpt lat="43.1712062" lon="12.2755651"><ele>373.2</ele><time>2026-03-29T07:18:23.373Z</time></trkpt><trkpt lat="43.1712861" lon="12.2755567"><ele>375.0</ele><time>2026-03-29T07:18:24.374Z</time></trkpt><trkpt lat="43.1713757" lon="12.2754724"><ele>375.0</ele><time>2026-03-29T07:18:26.374Z</time></trkpt><trkpt lat="43.1713248" lon="12.2753226"><ele>375.0</ele><time>2026-03-29T07:18:28.373Z</time></trkpt><trkpt lat="43.1713113" lon="12.2751816"><ele>375.0</ele><time>2026-03-29T07:18:30.373Z</time></trkpt><trkpt lat="43.1714004" lon="12.2751294"><ele>375.0</ele><time>2026-03-29T07:18:32.372Z</time></trkpt><trkpt lat="43.1714769" lon="12.275151"><ele>375.0</ele><time>2026-03-29T07:18:33.372Z</time></trkpt><trkpt lat="43.1715577" lon="12.2751517"><ele>376.8571428571429</ele><time>2026-03-29T07:18:34.374Z</time></trkpt><trkpt lat="43.1716258" lon="12.2751394"><ele>378.71428571428567</ele><time>2026-03-29T07:18:35.372Z</time></trkpt><trkpt lat="43.1716803" lon="12.2750946"><ele>380.57142857142856</ele><time>2026-03-29T07:18:36.374Z</time></trkpt><trkpt lat="43.1717438" lon="12.2750599"><ele>382.42857142857144</ele><time>2026-03-29T07:18:37.372Z</time></trkpt><trkpt lat="43.1718137" lon="12.2750312"><ele>384.28571428571433</ele><time>2026-03-29T07:18:38.373Z</time></trkpt><trkpt lat="43.1718849" lon="12.2749889"><ele>386.1428571428571</ele><time>2026-03-29T07:18:39.373Z</time></trkpt><trkpt lat="43.1719481" lon="12.2749528"><ele>388.0</ele><time>2026-03-29T07:18:40.373Z</time></trkpt><trkpt lat="43.1720357" lon="12.2748797"><ele>388.00000000000006</ele><time>2026-03-29T07:18:42.373Z</time></trkpt><trkpt lat="43.1720937" lon="12.2748368"><ele>388.0</ele><time>2026-03-29T07:18:43.373Z</time></trkpt><trkpt lat="43.1721453" lon="12.2747738"><ele>388.0</ele><time>2026-03-29T07:18:44.373Z</time></trkpt><trkpt lat="43.1721983" lon="12.2747137"><ele>388.0</ele><time>2026-03-29T07:18:45.374Z</time></trkpt><trkpt lat="43.1722469" lon="12.2746478"><ele>388.00000000000006</ele><time>2026-03-29T07:18:46.374Z</time></trkpt><trkpt lat="43.1723145" lon="12.2745745"><ele>388.0</ele><time>2026-03-29T07:18:47.373Z</time></trkpt><trkpt lat="43.1724177" lon="12.2744478"><ele>392.75</ele><time>2026-03-29T07:18:48.372Z</time></trkpt><trkpt lat="43.1724938" lon="12.2743442"><ele>397.5</ele><time>2026-03-29T07:18:49.373Z</time></trkpt><trkpt lat="43.1725594" lon="12.2742114"><ele>402.25</ele><time>2026-03-29T07:18:50.373Z</time></trkpt><trkpt lat="43.172653" lon="12.2741002"><ele>407.0</ele><time>2026-03-29T07:18:51.374Z</time></trkpt><trkpt lat="43.1727593" lon="12.2739996"><ele>407.6</ele><time>2026-03-29T07:18:52.374Z</time></trkpt><trkpt lat="43.1728587" lon="12.2739199"><ele>408.20000000000005</ele><time>2026-03-29T07:18:53.374Z</time></trkpt><trkpt lat="43.1729457" lon="12.2738297"><ele>408.8</ele><time>2026-03-29T07:18:54.373Z</time></trkpt><trkpt lat="43.1730327" lon="12.2737633"><ele>409.4</ele><time>2026-03-29T07:18:55.374Z</time></trkpt><trkpt lat="43.1731179" lon="12.2736424"><ele>410.0</ele><time>2026-03-29T07:18:56.373Z</time></trkpt><trkpt lat="43.1732011" lon="12.2735686"><ele>411.3333333333333</ele><time>2026-03-29T07:18:57.373Z</time></trkpt><trkpt lat="43.1732867" lon="12.2734995"><ele>412.66666666666663</ele><time>2026-03-29T07:18:58.372Z</time></trkpt><trkpt lat="43.1733667" lon="12.273439"><ele>414.0</ele><time>2026-03-29T07:18:59.372Z</time></trkpt><trkpt lat="43.173432" lon="12.2733759"><ele>415.33333333333337</ele><time>2026-03-29T07:19:00.374Z</time></trkpt><trkpt lat="43.1734771" lon="12.2733079"><ele>416.6666666666667</ele><time>2026-03-29T07:19:01.373Z</time></trkpt><trkpt lat="43.1735357" lon="12.2732501"><ele>418.0</ele><time>2026-03-29T07:19:02.375Z</time></trkpt><trkpt lat="43.1736139" lon="12.2732033"><ele>418.0</ele><time>2026-03-29T07:19:03.374Z</time></trkpt><trkpt lat="43.1736806" lon="12.2731424"><ele>418.0</ele><time>2026-03-29T07:19:04.373Z</time></trkpt><trkpt lat="43.1737498" lon="12.2730845"><ele>418.0</ele><time>2026-03-29T07:19:05.373Z</time></trkpt><trkpt lat="43.1738252" lon="12.2730163"><ele>418.0</ele><time>2026-03-29T07:19:06.372Z</time></trkpt><trkpt lat="43.1739198" lon="12.2729533"><ele>418.0</ele><time>2026-03-29T07:19:07.373Z</time></trkpt><trkpt lat="43.174018" lon="12.2728827"><ele>419.59999999999997</ele><time>2026-03-29T07:19:08.373Z</time></trkpt><trkpt lat="43.1741051" lon="12.2728034"><ele>421.2</ele><time>2026-03-29T07:19:09.375Z</time></trkpt><trkpt lat="43.1741883" lon="12.2727179"><ele>422.8</ele><time>2026-03-29T07:19:10.374Z</time></trkpt><trkpt lat="43.1742657" lon="12.2725998"><ele>424.4</ele><time>2026-03-29T07:19:11.373Z</time></trkpt><trkpt lat="43.1743404" lon="12.2725103"><ele>426.0</ele><time>2026-03-29T07:19:12.372Z</time></trkpt><trkpt lat="43.1744202" lon="12.272441"><ele>426.0</ele><time>2026-03-29T07:19:13.373Z</time></trkpt><trkpt lat="43.1745214" lon="12.2723642"><ele>426.0</ele><time>2026-03-29T07:19:14.374Z</time></trkpt><trkpt lat="43.1746102" lon="12.2723086"><ele>426.0</ele><time>2026-03-29T07:19:15.374Z</time></trkpt><trkpt lat="43.1747025" lon="12.2722405"><ele>426.0</ele><time>2026-03-29T07:19:16.373Z</time></trkpt><trkpt lat="43.1748023" lon="12.2721607"><ele>426.0</ele><time>2026-03-29T07:19:17.374Z</time></trkpt><trkpt lat="43.1749173" lon="12.272087"><ele>425.0</ele><time>2026-03-29T07:19:18.372Z</time></trkpt><trkpt lat="43.1750119" lon="12.2720145"><ele>424.0</ele><time>2026-03-29T07:19:19.372Z</time></trkpt><trkpt lat="43.1750877" lon="12.2719658"><ele>423.0</ele><time>2026-03-29T07:19:20.375Z</time></trkpt><trkpt lat="43.1751652" lon="12.271906"><ele>422.0</ele><time>2026-03-29T07:19:21.373Z</time></trkpt><trkpt lat="43.1752479" lon="12.2718412"><ele>421.0</ele><time>2026-03-29T07:19:22.374Z</time></trkpt><trkpt lat="43.1753373" lon="12.2717673"><ele>421.0</ele><time>2026-03-29T07:19:23.374Z</time></trkpt><trkpt lat="43.1754183" lon="12.2716896"><ele>421.0</ele><time>2026-03-29T07:19:24.374Z</time></trkpt><trkpt lat="43.1754874" lon="12.2715494"><ele>421.0</ele><time>2026-03-29T07:19:26.374Z</time></trkpt><trkpt lat="43.1755313" lon="12.2714585"><ele>421.0</ele><time>2026-03-29T07:19:27.373Z</time></trkpt><trkpt lat="43.1755824" lon="12.2713527"><ele>421.0</ele><time>2026-03-29T07:19:28.373Z</time></trkpt><trkpt lat="43.175637" lon="12.2712655"><ele>420.6</ele><time>2026-03-29T07:19:29.375Z</time></trkpt><trkpt lat="43.1756994" lon="12.2712088"><ele>420.20000000000005</ele><time>2026-03-29T07:19:30.374Z</time></trkpt><trkpt lat="43.175782" lon="12.2712014"><ele>419.79999999999995</ele><time>2026-03-29T07:19:31.374Z</time></trkpt><trkpt lat="43.1758679" lon="12.2711277"><ele>419.4</ele><time>2026-03-29T07:19:32.374Z</time></trkpt><trkpt lat="43.1759826" lon="12.2710843"><ele>419.0</ele><time>2026-03-29T07:19:33.374Z</time></trkpt><trkpt lat="43.1760898" lon="12.2710325"><ele>419.0</ele><time>2026-03-29T07:19:34.374Z</time></trkpt><trkpt lat="43.1761956" lon="12.2710058"><ele>419.0</ele><time>2026-03-29T07:19:35.374Z</time></trkpt><trkpt lat="43.1763109" lon="12.270992"><ele>419.0</ele><time>2026-03-29T07:19:36.373Z</time></trkpt><trkpt lat="43.1764015" lon="12.2709583"><ele>419.0</ele><time>2026-03-29T07:19:37.374Z</time></trkpt><trkpt lat="43.1764927" lon="12.2708949"><ele>419.0</ele><time>2026-03-29T07:19:38.373Z</time></trkpt><trkpt lat="43.1765485" lon="12.2708099"><ele>419.6</ele><time>2026-03-29T07:19:39.375Z</time></trkpt><trkpt lat="43.1765974" lon="12.270698"><ele>420.2</ele><time>2026-03-29T07:19:40.374Z</time></trkpt><trkpt lat="43.1766613" lon="12.2705931"><ele>420.8</ele><time>2026-03-29T07:19:41.374Z</time></trkpt><trkpt lat="43.1767296" lon="12.2704909"><ele>421.40000000000003</ele><time>2026-03-29T07:19:42.373Z</time></trkpt><trkpt lat="43.1768164" lon="12.270412"><ele>422.0</ele><time>2026-03-29T07:19:43.375Z</time></trkpt><trkpt lat="43.1769098" lon="12.2703515"><ele>422.8333333333333</ele><time>2026-03-29T07:19:44.374Z</time></trkpt><trkpt lat="43.1770063" lon="12.2703259"><ele>423.66666666666663</ele><time>2026-03-29T07:19:45.374Z</time></trkpt><trkpt lat="43.1770954" lon="12.2703188"><ele>424.5</ele><time>2026-03-29T07:19:47.375Z</time></trkpt><trkpt lat="43.1771889" lon="12.2703188"><ele>425.33333333333337</ele><time>2026-03-29T07:20:01.375Z</time></trkpt><trkpt lat="43.1772777" lon="12.2703021"><ele>426.1666666666667</ele><time>2026-03-29T07:20:03.373Z</time></trkpt><trkpt lat="43.1773516" lon="12.2702825"><ele>427.0</ele><time>2026-03-29T07:20:04.373Z</time></trkpt><trkpt lat="43.1774199" lon="12.2702569"><ele>428.6666666666667</ele><time>2026-03-29T07:20:05.375Z</time></trkpt><trkpt lat="43.1774847" lon="12.2702017"><ele>430.33333333333337</ele><time>2026-03-29T07:20:07.373Z</time></trkpt><trkpt lat="43.1775144" lon="12.2700937"><ele>432.0</ele><time>2026-03-29T07:21:03.374Z</time></trkpt><trkpt lat="43.1775599" lon="12.270027"><ele>433.66666666666663</ele><time>2026-03-29T07:21:09.373Z</time></trkpt><trkpt lat="43.1775917" lon="12.2699196"><ele>435.3333333333333</ele><time>2026-03-29T07:21:13.373Z</time></trkpt><trkpt lat="43.1776292" lon="12.2698107"><ele>437.0</ele><time>2026-03-29T07:21:15.373Z</time></trkpt><trkpt lat="43.1776613" lon="12.2697014"><ele>439.20000000000005</ele><time>2026-03-29T07:21:17.372Z</time></trkpt><trkpt lat="43.1776629" lon="12.2695696"><ele>441.40000000000003</ele><time>2026-03-29T07:21:19.373Z</time></trkpt><trkpt lat="43.177699" lon="12.2694515"><ele>443.59999999999997</ele><time>2026-03-29T07:21:21.373Z</time></trkpt><trkpt lat="43.1777485" lon="12.2693481"><ele>445.79999999999995</ele><time>2026-03-29T07:21:23.372Z</time></trkpt><trkpt lat="43.1778057" lon="12.2692235"><ele>448.0</ele><time>2026-03-29T07:21:25.372Z</time></trkpt><trkpt lat="43.1778379" lon="12.2691335"><ele>448.00000000000006</ele><time>2026-03-29T07:21:26.374Z</time></trkpt><trkpt lat="43.1778711" lon="12.2690526"><ele>448.0</ele><time>2026-03-29T07:21:27.373Z</time></trkpt><trkpt lat="43.1779248" lon="12.268945"><ele>448.0</ele><time>2026-03-29T07:21:28.375Z</time></trkpt><trkpt lat="43.1779688" lon="12.2688518"><ele>448.0</ele><time>2026-03-29T07:21:29.373Z</time></trkpt><trkpt lat="43.1780109" lon="12.2687676"><ele>448.00000000000006</ele><time>2026-03-29T07:21:30.375Z</time></trkpt><trkpt lat="43.1780567" lon="12.2687063"><ele>448.0</ele><time>2026-03-29T07:21:31.374Z</time></trkpt><trkpt lat="43.1780895" lon="12.2686193"><ele>448.00000000000006</ele><time>2026-03-29T07:21:32.374Z</time></trkpt><trkpt lat="43.1781203" lon="12.2685412"><ele>448.0</ele><time>2026-03-29T07:21:33.372Z</time></trkpt><trkpt lat="43.1781398" lon="12.2684588"><ele>448.0</ele><time>2026-03-29T07:21:34.374Z</time></trkpt><trkpt lat="43.1781645" lon="12.2683146"><ele>448.0</ele><time>2026-03-29T07:21:36.372Z</time></trkpt><trkpt lat="43.1781675" lon="12.2682269"><ele>448.00000000000006</ele><time>2026-03-29T07:21:37.373Z</time></trkpt><trkpt lat="43.1781691" lon="12.2681406"><ele>448.0</ele><time>2026-03-29T07:21:38.374Z</time></trkpt><trkpt lat="43.1781875" lon="12.2679681"><ele>446.83333333333337</ele><time>2026-03-29T07:21:40.373Z</time></trkpt><trkpt lat="43.1782103" lon="12.2678568"><ele>445.6666666666667</ele><time>2026-03-29T07:21:41.373Z</time></trkpt><trkpt lat="43.1782336" lon="12.2677376"><ele>444.5</ele><time>2026-03-29T07:21:42.374Z</time></trkpt><trkpt lat="43.1782593" lon="12.2676334"><ele>443.33333333333337</ele><time>2026-03-29T07:21:43.374Z</time></trkpt><trkpt lat="43.1782958" lon="12.2675519"><ele>442.1666666666667</ele><time>2026-03-29T07:21:44.375Z</time></trkpt><trkpt lat="43.1783455" lon="12.2674639"><ele>441.0</ele><time>2026-03-29T07:21:45.373Z</time></trkpt><trkpt lat="43.1784011" lon="12.2673808"><ele>441.0</ele><time>2026-03-29T07:21:46.373Z</time></trkpt><trkpt lat="43.1784798" lon="12.2673028"><ele>441.0</ele><time>2026-03-29T07:21:47.374Z</time></trkpt><trkpt lat="43.1785521" lon="12.2672292"><ele>441.0</ele><time>2026-03-29T07:21:48.375Z</time></trkpt><trkpt lat="43.1786139" lon="12.2671685"><ele>441.0</ele><time>2026-03-29T07:21:49.372Z</time></trkpt><trkpt lat="43.1786801" lon="12.267115"><ele>441.0</ele><time>2026-03-29T07:21:50.372Z</time></trkpt><trkpt lat="43.1786922" lon="12.2670124"><ele>441.0</ele><time>2026-03-29T07:22:00.374Z</time></trkpt><trkpt lat="43.178679" lon="12.2668942"><ele>441.0</ele><time>2026-03-29T07:22:02.374Z</time></trkpt><trkpt lat="43.1786559" lon="12.266702"><ele>441.0</ele><time>2026-03-29T07:22:04.374Z</time></trkpt><trkpt lat="43.1786297" lon="12.2665899"><ele>441.0</ele><time>2026-03-29T07:22:05.373Z</time></trkpt><trkpt lat="43.1786086" lon="12.2664494"><ele>441.0</ele><time>2026-03-29T07:22:06.372Z</time></trkpt><trkpt lat="43.178599" lon="12.2663085"><ele>441.0</ele><time>2026-03-29T07:22:07.374Z</time></trkpt><trkpt lat="43.1786052" lon="12.2661885"><ele>440.6</ele><time>2026-03-29T07:22:08.374Z</time></trkpt><trkpt lat="43.1786238" lon="12.2660699"><ele>440.20000000000005</ele><time>2026-03-29T07:22:09.374Z</time></trkpt><trkpt lat="43.1786712" lon="12.2659655"><ele>439.79999999999995</ele><time>2026-03-29T07:22:10.374Z</time></trkpt><trkpt lat="43.1787218" lon="12.265879"><ele>439.4</ele><time>2026-03-29T07:22:11.374Z</time></trkpt><trkpt lat="43.178792" lon="12.2657753"><ele>439.0</ele><time>2026-03-29T07:22:12.374Z</time></trkpt><trkpt lat="43.1788659" lon="12.2656937"><ele>439.4</ele><time>2026-03-29T07:22:13.374Z</time></trkpt><trkpt lat="43.1789212" lon="12.2655945"><ele>439.79999999999995</ele><time>2026-03-29T07:22:14.375Z</time></trkpt><trkpt lat="43.1789807" lon="12.2654853"><ele>440.20000000000005</ele><time>2026-03-29T07:22:15.374Z</time></trkpt><trkpt lat="43.1790522" lon="12.2653879"><ele>440.6</ele><time>2026-03-29T07:22:16.374Z</time></trkpt><trkpt lat="43.1791265" lon="12.2652883"><ele>441.0</ele><time>2026-03-29T07:22:17.373Z</time></trkpt><trkpt lat="43.1792149" lon="12.2651881"><ele>441.0</ele><time>2026-03-29T07:22:18.373Z</time></trkpt><trkpt lat="43.1793107" lon="12.2650925"><ele>441.0</ele><time>2026-03-29T07:22:19.373Z</time></trkpt><trkpt lat="43.1794259" lon="12.2650399"><ele>441.0</ele><time>2026-03-29T07:22:20.374Z</time></trkpt><trkpt lat="43.1795308" lon="12.2649642"><ele>441.0</ele><time>2026-03-29T07:22:21.373Z</time></trkpt><trkpt lat="43.1796449" lon="12.2648967"><ele>441.0</ele><time>2026-03-29T07:22:22.375Z</time></trkpt><trkpt lat="43.1797591" lon="12.2648285"><ele>441.0</ele><time>2026-03-29T07:22:23.374Z</time></trkpt><trkpt lat="43.1798589" lon="12.2647641"><ele>441.0</ele><time>2026-03-29T07:22:24.375Z</time></trkpt><trkpt lat="43.1799621" lon="12.264721"><ele>441.0</ele><time>2026-03-29T07:22:25.374Z</time></trkpt><trkpt lat="43.1800595" lon="12.2646808"><ele>441.0</ele><time>2026-03-29T07:22:26.373Z</time></trkpt><trkpt lat="43.1801555" lon="12.2646279"><ele>440.6</ele><time>2026-03-29T07:22:27.375Z</time></trkpt><trkpt lat="43.1802505" lon="12.2645639"><ele>440.20000000000005</ele><time>2026-03-29T07:22:28.375Z</time></trkpt><trkpt lat="43.1803198" lon="12.2645032"><ele>439.79999999999995</ele><time>2026-03-29T07:22:29.374Z</time></trkpt><trkpt lat="43.1803948" lon="12.2643761"><ele>439.4</ele><time>2026-03-29T07:22:30.375Z</time></trkpt><trkpt lat="43.180452" lon="12.2642348"><ele>439.0</ele><time>2026-03-29T07:22:31.373Z</time></trkpt><trkpt lat="43.1804853" lon="12.2641045"><ele>439.00000000000006</ele><time>2026-03-29T07:22:32.374Z</time></trkpt><trkpt lat="43.1805065" lon="12.2639806"><ele>439.0</ele><time>2026-03-29T07:22:33.374Z</time></trkpt><trkpt lat="43.1805171" lon="12.2638695"><ele>439.0</ele><time>2026-03-29T07:22:34.374Z</time></trkpt><trkpt lat="43.1805291" lon="12.2637804"><ele>439.0</ele><time>2026-03-29T07:22:35.373Z</time></trkpt><trkpt lat="43.1805493" lon="12.2636832"><ele>439.00000000000006</ele><time>2026-03-29T07:22:38.373Z</time></trkpt><trkpt lat="43.1806549" lon="12.26362"><ele>439.0</ele><time>2026-03-29T07:22:41.374Z</time></trkpt><trkpt lat="43.1807245" lon="12.2635634"><ele>441.6</ele><time>2026-03-29T07:22:43.373Z</time></trkpt><trkpt lat="43.1808488" lon="12.2634959"><ele>444.2</ele><time>2026-03-29T07:22:45.374Z</time></trkpt><trkpt lat="43.1809253" lon="12.2634726"><ele>446.80000000000007</ele><time>2026-03-29T07:22:46.373Z</time></trkpt><trkpt lat="43.1810288" lon="12.2634382"><ele>449.40000000000003</ele><time>2026-03-29T07:22:47.374Z</time></trkpt><trkpt lat="43.1811431" lon="12.2634212"><ele>452.0</ele><time>2026-03-29T07:22:48.373Z</time></trkpt><trkpt lat="43.1812594" lon="12.2633995"><ele>452.0</ele><time>2026-03-29T07:22:49.374Z</time></trkpt><trkpt lat="43.1813629" lon="12.2633928"><ele>452.0</ele><time>2026-03-29T07:22:50.374Z</time></trkpt><trkpt lat="43.1814846" lon="12.2633445"><ele>452.0</ele><time>2026-03-29T07:22:51.374Z</time></trkpt><trkpt lat="43.1815993" lon="12.2633156"><ele>452.0</ele><time>2026-03-29T07:22:52.374Z</time></trkpt><trkpt lat="43.1817117" lon="12.263277"><ele>449.20000000000005</ele><time>2026-03-29T07:22:53.375Z</time></trkpt><trkpt lat="43.1818245" lon="12.263264"><ele>446.40000000000003</ele><time>2026-03-29T07:22:54.373Z</time></trkpt><trkpt lat="43.1819378" lon="12.2632528"><ele>443.59999999999997</ele><time>2026-03-29T07:22:55.372Z</time></trkpt><trkpt lat="43.1820451" lon="12.2632697"><ele>440.79999999999995</ele><time>2026-03-29T07:22:56.373Z</time></trkpt><trkpt lat="43.1821434" lon="12.2632827"><ele>438.0</ele><time>2026-03-29T07:22:57.374Z</time></trkpt><trkpt lat="43.1822192" lon="12.2632737"><ele>438.0</ele><time>2026-03-29T07:22:58.374Z</time></trkpt><trkpt lat="43.182322" lon="12.2632832"><ele>438.0</ele><time>2026-03-29T07:22:59.373Z</time></trkpt><trkpt lat="43.182398" lon="12.2632823"><ele>438.0</ele><time>2026-03-29T07:23:00.373Z</time></trkpt><trkpt lat="43.1824833" lon="12.2633205"><ele>438.0</ele><time>2026-03-29T07:23:01.374Z</time></trkpt><trkpt lat="43.1825701" lon="12.2633437"><ele>438.0</ele><time>2026-03-29T07:23:02.374Z</time></trkpt><trkpt lat="43.182656" lon="12.2633809"><ele>438.0</ele><time>2026-03-29T07:23:03.374Z</time></trkpt><trkpt lat="43.1827497" lon="12.2634224"><ele>434.4</ele><time>2026-03-29T07:23:04.373Z</time></trkpt><trkpt lat="43.1828566" lon="12.2634697"><ele>430.79999999999995</ele><time>2026-03-29T07:23:05.374Z</time></trkpt><trkpt lat="43.1829516" lon="12.2635146"><ele>427.2</ele><time>2026-03-29T07:23:06.373Z</time></trkpt><trkpt lat="43.1830495" lon="12.2635387"><ele>423.6</ele><time>2026-03-29T07:23:07.373Z</time></trkpt><trkpt lat="43.1831433" lon="12.263559"><ele>420.0</ele><time>2026-03-29T07:23:08.373Z</time></trkpt><trkpt lat="43.1832396" lon="12.2635873"><ele>417.8</ele><time>2026-03-29T07:23:09.374Z</time></trkpt><trkpt lat="43.183327" lon="12.263573"><ele>415.6</ele><time>2026-03-29T07:23:10.375Z</time></trkpt><trkpt lat="43.1833993" lon="12.2635261"><ele>413.4</ele><time>2026-03-29T07:23:11.375Z</time></trkpt><trkpt lat="43.1834481" lon="12.2634147"><ele>411.2</ele><time>2026-03-29T07:23:12.374Z</time></trkpt><trkpt lat="43.1834975" lon="12.2633153"><ele>409.0</ele><time>2026-03-29T07:23:13.374Z</time></trkpt><trkpt lat="43.1835667" lon="12.2632177"><ele>404.2</ele><time>2026-03-29T07:23:14.374Z</time></trkpt><trkpt lat="43.183688" lon="12.2630962"><ele>399.4</ele><time>2026-03-29T07:23:16.375Z</time></trkpt><trkpt lat="43.1837672" lon="12.2630667"><ele>394.6</ele><time>2026-03-29T07:23:17.373Z</time></trkpt><trkpt lat="43.1838353" lon="12.2630292"><ele>389.8</ele><time>2026-03-29T07:23:18.373Z</time></trkpt><trkpt lat="43.1839204" lon="12.2629828"><ele>385.0</ele><time>2026-03-29T07:23:19.374Z</time></trkpt><trkpt lat="43.1840026" lon="12.2629326"><ele>385.1666666666667</ele><time>2026-03-29T07:23:20.374Z</time></trkpt><trkpt lat="43.1840959" lon="12.2628967"><ele>385.33333333333337</ele><time>2026-03-29T07:23:21.374Z</time></trkpt><trkpt lat="43.184187" lon="12.262891"><ele>385.5</ele><time>2026-03-29T07:23:22.374Z</time></trkpt><trkpt lat="43.1842601" lon="12.262884"><ele>385.66666666666663</ele><time>2026-03-29T07:23:23.373Z</time></trkpt><trkpt lat="43.1843248" lon="12.2628891"><ele>385.8333333333333</ele><time>2026-03-29T07:23:24.375Z</time></trkpt><trkpt lat="43.1844047" lon="12.2628894"><ele>386.0</ele><time>2026-03-29T07:23:56.374Z</time></trkpt><trkpt lat="43.1844918" lon="12.2628698"><ele>386.0</ele><time>2026-03-29T07:23:58.374Z</time></trkpt><trkpt lat="43.1846132" lon="12.2628104"><ele>386.0</ele><time>2026-03-29T07:24:00.373Z</time></trkpt><trkpt lat="43.1846731" lon="12.262776"><ele>386.0</ele><time>2026-03-29T07:24:01.373Z</time></trkpt><trkpt lat="43.1847486" lon="12.2627054"><ele>386.0</ele><time>2026-03-29T07:24:03.373Z</time></trkpt><trkpt lat="43.1848117" lon="12.2626148"><ele>386.0</ele><time>2026-03-29T07:24:06.374Z</time></trkpt><trkpt lat="43.184803" lon="12.2625122"><ele>385.99999999999994</ele><time>2026-03-29T07:24:08.374Z</time></trkpt><trkpt lat="43.1847268" lon="12.262363"><ele>386.0</ele><time>2026-03-29T07:24:10.373Z</time></trkpt><trkpt lat="43.1846769" lon="12.2622832"><ele>386.0</ele><time>2026-03-29T07:24:11.373Z</time></trkpt><trkpt lat="43.1846337" lon="12.2622004"><ele>386.0</ele><time>2026-03-29T07:24:12.373Z</time></trkpt><trkpt lat="43.1845855" lon="12.2621151"><ele>385.99999999999994</ele><time>2026-03-29T07:24:13.374Z</time></trkpt><trkpt lat="43.1845289" lon="12.26203"><ele>386.0</ele><time>2026-03-29T07:24:14.373Z</time></trkpt><trkpt lat="43.1844639" lon="12.2619638"><ele>383.6</ele><time>2026-03-29T07:24:15.374Z</time></trkpt><trkpt lat="43.1844002" lon="12.2618939"><ele>381.20000000000005</ele><time>2026-03-29T07:24:16.374Z</time></trkpt><trkpt lat="43.1843346" lon="12.2618293"><ele>378.79999999999995</ele><time>2026-03-29T07:24:17.375Z</time></trkpt><trkpt lat="43.1842776" lon="12.2617667"><ele>376.4</ele><time>2026-03-29T07:24:18.375Z</time></trkpt><trkpt lat="43.1841642" lon="12.2616994"><ele>374.0</ele><time>2026-03-29T07:24:20.374Z</time></trkpt><trkpt lat="43.1840615" lon="12.2617143"><ele>372.4</ele><time>2026-03-29T07:24:22.376Z</time></trkpt><trkpt lat="43.1839855" lon="12.2616617"><ele>370.79999999999995</ele><time>2026-03-29T07:24:24.375Z</time></trkpt><trkpt lat="43.1839897" lon="12.2615122"><ele>369.20000000000005</ele><time>2026-03-29T07:24:26.373Z</time></trkpt><trkpt lat="43.1840184" lon="12.261371"><ele>367.6</ele><time>2026-03-29T07:24:28.374Z</time></trkpt><trkpt lat="43.183942" lon="12.2613367"><ele>366.0</ele><time>2026-03-29T07:24:30.374Z</time></trkpt><trkpt lat="43.1838336" lon="12.2614147"><ele>366.0</ele><time>2026-03-29T07:24:32.374Z</time></trkpt><trkpt lat="43.183763" lon="12.2614927"><ele>366.0</ele><time>2026-03-29T07:24:34.374Z</time></trkpt><trkpt lat="43.1836787" lon="12.2616394"><ele>366.0</ele><time>2026-03-29T07:24:36.374Z</time></trkpt><trkpt lat="43.1836443" lon="12.2617471"><ele>366.0</ele><time>2026-03-29T07:24:38.375Z</time></trkpt><trkpt lat="43.1835639" lon="12.2617821"><ele>366.0</ele><time>2026-03-29T07:24:40.374Z</time></trkpt><trkpt lat="43.1835201" lon="12.2616614"><ele>366.0</ele><time>2026-03-29T07:24:42.373Z</time></trkpt><trkpt lat="43.1834562" lon="12.261532"><ele>366.0</ele><time>2026-03-29T07:24:44.374Z</time></trkpt><trkpt lat="43.1833871" lon="12.2614292"><ele>366.0</ele><time>2026-03-29T07:24:46.374Z</time></trkpt><trkpt lat="43.1833405" lon="12.261339"><ele>366.0</ele><time>2026-03-29T07:24:48.374Z</time></trkpt><trkpt lat="43.1833292" lon="12.2611812"><ele>366.0</ele><time>2026-03-29T07:24:50.373Z</time></trkpt><trkpt lat="43.1833087" lon="12.261087"><ele>363.5</ele><time>2026-03-29T07:24:51.375Z</time></trkpt><trkpt lat="43.1833064" lon="12.2609744"><ele>361.0</ele><time>2026-03-29T07:24:52.373Z</time></trkpt><trkpt lat="43.183317" lon="12.2608484"><ele>358.5</ele><time>2026-03-29T07:24:53.374Z</time></trkpt><trkpt lat="43.1833172" lon="12.2607393"><ele>356.0</ele><time>2026-03-29T07:24:54.373Z</time></trkpt><trkpt lat="43.1833292" lon="12.2606183"><ele>353.5</ele><time>2026-03-29T07:24:55.374Z</time></trkpt><trkpt lat="43.1833346" lon="12.2605023"><ele>351.0</ele><time>2026-03-29T07:24:56.375Z</time></trkpt><trkpt lat="43.1833547" lon="12.2603864"><ele>349.1666666666667</ele><time>2026-03-29T07:24:57.373Z</time></trkpt><trkpt lat="43.1833617" lon="12.2602738"><ele>347.3333333333333</ele><time>2026-03-29T07:24:58.374Z</time></trkpt><trkpt lat="43.183376" lon="12.2601677"><ele>345.5</ele><time>2026-03-29T07:24:59.375Z</time></trkpt><trkpt lat="43.1833862" lon="12.2600554"><ele>343.66666666666663</ele><time>2026-03-29T07:25:00.374Z</time></trkpt><trkpt lat="43.1833964" lon="12.2599633"><ele>341.8333333333333</ele><time>2026-03-29T07:25:01.373Z</time></trkpt><trkpt lat="43.183408" lon="12.2598634"><ele>340.0</ele><time>2026-03-29T07:25:02.375Z</time></trkpt><trkpt lat="43.1834154" lon="12.2597356"><ele>337.8333333333333</ele><time>2026-03-29T07:25:03.374Z</time></trkpt><trkpt lat="43.1834184" lon="12.2596399"><ele>335.66666666666663</ele><time>2026-03-29T07:25:04.376Z</time></trkpt><trkpt lat="43.1834011" lon="12.2595312"><ele>333.5</ele><time>2026-03-29T07:25:05.375Z</time></trkpt><trkpt lat="43.1833949" lon="12.2594243"><ele>331.3333333333333</ele><time>2026-03-29T07:25:06.374Z</time></trkpt><trkpt lat="43.1833828" lon="12.2593161"><ele>329.1666666666667</ele><time>2026-03-29T07:25:07.374Z</time></trkpt><trkpt lat="43.1833828" lon="12.2592217"><ele>327.0</ele><time>2026-03-29T07:25:08.374Z</time></trkpt><trkpt lat="43.1833693" lon="12.2591159"><ele>327.0</ele><time>2026-03-29T07:25:09.375Z</time></trkpt><trkpt lat="43.1833402" lon="12.2590052"><ele>327.0</ele><time>2026-03-29T07:25:10.375Z</time></trkpt><trkpt lat="43.1833001" lon="12.2589041"><ele>327.0</ele><time>2026-03-29T07:25:11.375Z</time></trkpt><trkpt lat="43.1832572" lon="12.2588035"><ele>327.0</ele><time>2026-03-29T07:25:12.374Z</time></trkpt><trkpt lat="43.1832149" lon="12.2587034"><ele>327.0</ele><time>2026-03-29T07:25:13.375Z</time></trkpt><trkpt lat="43.1831708" lon="12.2585986"><ele>327.0</ele><time>2026-03-29T07:25:14.373Z</time></trkpt><trkpt lat="43.1831269" lon="12.2585024"><ele>327.1666666666667</ele><time>2026-03-29T07:25:15.374Z</time></trkpt><trkpt lat="43.1830812" lon="12.2583993"><ele>327.3333333333333</ele><time>2026-03-29T07:25:16.374Z</time></trkpt><trkpt lat="43.1830456" lon="12.2583098"><ele>327.5</ele><time>2026-03-29T07:25:17.374Z</time></trkpt><trkpt lat="43.1830167" lon="12.2582326"><ele>327.66666666666663</ele><time>2026-03-29T07:25:18.374Z</time></trkpt><trkpt lat="43.182996" lon="12.258133"><ele>327.8333333333333</ele><time>2026-03-29T07:25:20.374Z</time></trkpt><trkpt lat="43.1830111" lon="12.2580425"><ele>328.0</ele><time>2026-03-29T07:25:22.375Z</time></trkpt><trkpt lat="43.1830828" lon="12.2578882"><ele>327.79999999999995</ele><time>2026-03-29T07:25:24.374Z</time></trkpt><trkpt lat="43.1831312" lon="12.2578322"><ele>327.6</ele><time>2026-03-29T07:25:25.375Z</time></trkpt><trkpt lat="43.1832432" lon="12.2578063"><ele>327.4</ele><time>2026-03-29T07:25:27.374Z</time></trkpt><trkpt lat="43.1833517" lon="12.2578964"><ele>327.20000000000005</ele><time>2026-03-29T07:25:29.374Z</time></trkpt><trkpt lat="43.1834147" lon="12.2579477"><ele>327.0</ele><time>2026-03-29T07:25:30.375Z</time></trkpt><trkpt lat="43.1834814" lon="12.2580448"><ele>325.25</ele><time>2026-03-29T07:25:31.375Z</time></trkpt><trkpt lat="43.1835587" lon="12.2581495"><ele>323.5</ele><time>2026-03-29T07:25:32.374Z</time></trkpt><trkpt lat="43.183647" lon="12.258256"><ele>321.75</ele><time>2026-03-29T07:25:33.375Z</time></trkpt><trkpt lat="43.1837306" lon="12.2583677"><ele>320.0</ele><time>2026-03-29T07:25:34.374Z</time></trkpt><trkpt lat="43.1838163" lon="12.2584627"><ele>320.0</ele><time>2026-03-29T07:25:35.375Z</time></trkpt><trkpt lat="43.1838901" lon="12.2585476"><ele>320.0</ele><time>2026-03-29T07:25:36.374Z</time></trkpt><trkpt lat="43.183974" lon="12.2586087"><ele>320.0</ele><time>2026-03-29T07:25:37.374Z</time></trkpt><trkpt lat="43.1840668" lon="12.2586522"><ele>320.0</ele><time>2026-03-29T07:25:38.374Z</time></trkpt><trkpt lat="43.1841742" lon="12.2586473"><ele>320.0</ele><time>2026-03-29T07:25:39.374Z</time></trkpt><trkpt lat="43.1842788" lon="12.2586416"><ele>322.8</ele><time>2026-03-29T07:25:40.374Z</time></trkpt><trkpt lat="43.1843636" lon="12.2586507"><ele>325.6</ele><time>2026-03-29T07:25:41.374Z</time></trkpt><trkpt lat="43.1844571" lon="12.2587168"><ele>328.4</ele><time>2026-03-29T07:25:42.375Z</time></trkpt><trkpt lat="43.184524" lon="12.2587809"><ele>331.2</ele><time>2026-03-29T07:25:43.374Z</time></trkpt><trkpt lat="43.1846046" lon="12.2588416"><ele>334.0</ele><time>2026-03-29T07:25:44.374Z</time></trkpt><trkpt lat="43.1846777" lon="12.2589348"><ele>334.0</ele><time>2026-03-29T07:25:45.374Z</time></trkpt><trkpt lat="43.184747" lon="12.2589981"><ele>334.0</ele><time>2026-03-29T07:25:46.376Z</time></trkpt><trkpt lat="43.1847952" lon="12.2590837"><ele>334.0</ele><time>2026-03-29T07:25:47.374Z</time></trkpt><trkpt lat="43.1848543" lon="12.2591403"><ele>334.0</ele><time>2026-03-29T07:25:48.376Z</time></trkpt><trkpt lat="43.1849281" lon="12.259191"><ele>334.0</ele><time>2026-03-29T07:25:50.375Z</time></trkpt><trkpt lat="43.1850249" lon="12.2592043"><ele>334.0</ele><time>2026-03-29T07:25:52.374Z</time></trkpt><trkpt lat="43.1851478" lon="12.2592154"><ele>334.0</ele><time>2026-03-29T07:25:54.373Z</time></trkpt><trkpt lat="43.1852165" lon="12.2592913"><ele>334.0</ele><time>2026-03-29T07:25:55.373Z</time></trkpt><trkpt lat="43.185281" lon="12.2593467"><ele>334.0</ele><time>2026-03-29T07:25:56.374Z</time></trkpt><trkpt lat="43.185363" lon="12.2593685"><ele>334.0</ele><time>2026-03-29T07:25:57.374Z</time></trkpt><trkpt lat="43.1854583" lon="12.2593736"><ele>334.0</ele><time>2026-03-29T07:25:58.374Z</time></trkpt><trkpt lat="43.1855371" lon="12.2593757"><ele>334.0</ele><time>2026-03-29T07:25:59.374Z</time></trkpt><trkpt lat="43.1856196" lon="12.2593633"><ele>336.66666666666663</ele><time>2026-03-29T07:26:00.375Z</time></trkpt><trkpt lat="43.1857138" lon="12.2593652"><ele>339.3333333333333</ele><time>2026-03-29T07:26:01.375Z</time></trkpt><trkpt lat="43.1857755" lon="12.2593837"><ele>342.0</ele><time>2026-03-29T07:26:02.375Z</time></trkpt><trkpt lat="43.1858396" lon="12.2594261"><ele>344.6666666666667</ele><time>2026-03-29T07:26:03.374Z</time></trkpt><trkpt lat="43.1859219" lon="12.2594788"><ele>347.33333333333337</ele><time>2026-03-29T07:26:04.374Z</time></trkpt><trkpt lat="43.1859713" lon="12.2595722"><ele>350.0</ele><time>2026-03-29T07:26:05.374Z</time></trkpt><trkpt lat="43.1860403" lon="12.2596536"><ele>350.0</ele><time>2026-03-29T07:26:06.376Z</time></trkpt><trkpt lat="43.1861907" lon="12.2597408"><ele>350.0</ele><time>2026-03-29T07:26:08.375Z</time></trkpt><trkpt lat="43.186269" lon="12.2597897"><ele>350.0</ele><time>2026-03-29T07:26:09.375Z</time></trkpt><trkpt lat="43.1863535" lon="12.2598208"><ele>350.0</ele><time>2026-03-29T07:26:10.374Z</time></trkpt><trkpt lat="43.186443" lon="12.2598601"><ele>350.0</ele><time>2026-03-29T07:26:11.375Z</time></trkpt><trkpt lat="43.1865386" lon="12.2598912"><ele>347.33333333333337</ele><time>2026-03-29T07:26:12.374Z</time></trkpt><trkpt lat="43.1866324" lon="12.2598995"><ele>344.6666666666667</ele><time>2026-03-29T07:26:13.374Z</time></trkpt><trkpt lat="43.1867206" lon="12.2599049"><ele>342.0</ele><time>2026-03-29T07:26:14.376Z</time></trkpt><trkpt lat="43.1868108" lon="12.259887"><ele>339.3333333333333</ele><time>2026-03-29T07:26:15.374Z</time></trkpt><trkpt lat="43.1868999" lon="12.259848"><ele>336.66666666666663</ele><time>2026-03-29T07:26:16.374Z</time></trkpt><trkpt lat="43.186979" lon="12.2598587"><ele>334.0</ele><time>2026-03-29T07:26:17.375Z</time></trkpt><trkpt lat="43.1870721" lon="12.259883"><ele>334.0</ele><time>2026-03-29T07:26:18.376Z</time></trkpt><trkpt lat="43.1871683" lon="12.2599206"><ele>334.0</ele><time>2026-03-29T07:26:19.375Z</time></trkpt><trkpt lat="43.1872598" lon="12.2599548"><ele>334.0</ele><time>2026-03-29T07:26:20.376Z</time></trkpt><trkpt lat="43.1873733" lon="12.260009"><ele>334.0</ele><time>2026-03-29T07:26:22.374Z</time></trkpt><trkpt lat="43.1874813" lon="12.2600707"><ele>334.0</ele><time>2026-03-29T07:26:24.375Z</time></trkpt><trkpt lat="43.1876197" lon="12.2601561"><ele>335.5</ele><time>2026-03-29T07:26:26.375Z</time></trkpt><trkpt lat="43.1876994" lon="12.2601745"><ele>337.0</ele><time>2026-03-29T07:26:27.375Z</time></trkpt><trkpt lat="43.1877766" lon="12.2601917"><ele>338.5</ele><time>2026-03-29T07:26:28.374Z</time></trkpt><trkpt lat="43.1878728" lon="12.260227"><ele>340.0</ele><time>2026-03-29T07:26:29.375Z</time></trkpt><trkpt lat="43.1879428" lon="12.260216"><ele>341.5</ele><time>2026-03-29T07:26:30.374Z</time></trkpt><trkpt lat="43.1880143" lon="12.2601871"><ele>343.0</ele><time>2026-03-29T07:26:31.375Z</time></trkpt><trkpt lat="43.1880851" lon="12.2601584"><ele>343.0</ele><time>2026-03-29T07:26:32.374Z</time></trkpt><trkpt lat="43.1881585" lon="12.260143"><ele>343.0</ele><time>2026-03-29T07:26:33.375Z</time></trkpt><trkpt lat="43.1882358" lon="12.2601207"><ele>343.0</ele><time>2026-03-29T07:26:34.374Z</time></trkpt><trkpt lat="43.1882993" lon="12.260129"><ele>343.0</ele><time>2026-03-29T07:26:35.375Z</time></trkpt><trkpt lat="43.1883682" lon="12.2601304"><ele>343.0</ele><time>2026-03-29T07:26:36.374Z</time></trkpt><trkpt lat="43.1884373" lon="12.2601357"><ele>343.0</ele><time>2026-03-29T07:26:37.374Z</time></trkpt><trkpt lat="43.1884927" lon="12.2601844"><ele>343.0</ele><time>2026-03-29T07:26:38.373Z</time></trkpt><trkpt lat="43.1885808" lon="12.260258"><ele>344.79999999999995</ele><time>2026-03-29T07:26:39.375Z</time></trkpt><trkpt lat="43.1886682" lon="12.2602946"><ele>346.6</ele><time>2026-03-29T07:26:40.374Z</time></trkpt><trkpt lat="43.1887462" lon="12.2603244"><ele>348.4</ele><time>2026-03-29T07:26:41.375Z</time></trkpt><trkpt lat="43.1888329" lon="12.2603421"><ele>350.20000000000005</ele><time>2026-03-29T07:26:42.374Z</time></trkpt><trkpt lat="43.1889382" lon="12.2603517"><ele>352.0</ele><time>2026-03-29T07:26:43.375Z</time></trkpt><trkpt lat="43.1890348" lon="12.260381"><ele>352.8333333333333</ele><time>2026-03-29T07:26:44.375Z</time></trkpt><trkpt lat="43.1891034" lon="12.2604021"><ele>353.66666666666663</ele><time>2026-03-29T07:26:45.374Z</time></trkpt><trkpt lat="43.1891718" lon="12.2604208"><ele>354.5</ele><time>2026-03-29T07:26:46.375Z</time></trkpt><trkpt lat="43.1892487" lon="12.2604603"><ele>355.3333333333333</ele><time>2026-03-29T07:26:47.376Z</time></trkpt><trkpt lat="43.1893497" lon="12.2604718"><ele>356.1666666666667</ele><time>2026-03-29T07:26:49.375Z</time></trkpt><trkpt lat="43.1894513" lon="12.2603994"><ele>357.0</ele><time>2026-03-29T07:26:51.375Z</time></trkpt><trkpt lat="43.1894925" lon="12.2603265"><ele>357.0</ele><time>2026-03-29T07:26:52.375Z</time></trkpt><trkpt lat="43.1895661" lon="12.2603076"><ele>357.0</ele><time>2026-03-29T07:26:54.375Z</time></trkpt><trkpt lat="43.1896702" lon="12.2603223"><ele>357.0</ele><time>2026-03-29T07:26:56.374Z</time></trkpt><trkpt lat="43.18974" lon="12.2603179"><ele>357.0</ele><time>2026-03-29T07:26:57.375Z</time></trkpt><trkpt lat="43.189812" lon="12.2603208"><ele>357.0</ele><time>2026-03-29T07:26:58.375Z</time></trkpt><trkpt lat="43.189881" lon="12.2603428"><ele>357.0</ele><time>2026-03-29T07:26:59.376Z</time></trkpt><trkpt lat="43.1899388" lon="12.2603797"><ele>358.42857142857144</ele><time>2026-03-29T07:27:00.376Z</time></trkpt><trkpt lat="43.1899917" lon="12.2604365"><ele>359.8571428571429</ele><time>2026-03-29T07:27:01.374Z</time></trkpt><trkpt lat="43.1900535" lon="12.2604946"><ele>361.2857142857143</ele><time>2026-03-29T07:27:02.374Z</time></trkpt><trkpt lat="43.1901152" lon="12.2605459"><ele>362.7142857142857</ele><time>2026-03-29T07:27:03.376Z</time></trkpt><trkpt lat="43.1901816" lon="12.2605775"><ele>364.14285714285717</ele><time>2026-03-29T07:27:04.374Z</time></trkpt><trkpt lat="43.1902436" lon="12.2605992"><ele>365.57142857142856</ele><time>2026-03-29T07:27:05.374Z</time></trkpt><trkpt lat="43.1903109" lon="12.2605749"><ele>367.0</ele><time>2026-03-29T07:27:06.374Z</time></trkpt><trkpt lat="43.190375" lon="12.2605693"><ele>365.16666666666663</ele><time>2026-03-29T07:27:07.374Z</time></trkpt><trkpt lat="43.1904249" lon="12.2606223"><ele>363.3333333333333</ele><time>2026-03-29T07:27:08.373Z</time></trkpt><trkpt lat="43.190497" lon="12.2606374"><ele>361.5</ele><time>2026-03-29T07:27:09.375Z</time></trkpt><trkpt lat="43.1905771" lon="12.2606618"><ele>359.6666666666667</ele><time>2026-03-29T07:27:10.376Z</time></trkpt><trkpt lat="43.1907139" lon="12.2607078"><ele>357.83333333333337</ele><time>2026-03-29T07:27:12.375Z</time></trkpt><trkpt lat="43.1907816" lon="12.260715"><ele>356.0</ele><time>2026-03-29T07:27:13.375Z</time></trkpt><trkpt lat="43.190903" lon="12.2607493"><ele>356.0</ele><time>2026-03-29T07:27:15.374Z</time></trkpt><trkpt lat="43.1909785" lon="12.2607842"><ele>356.0</ele><time>2026-03-29T07:27:16.375Z</time></trkpt><trkpt lat="43.1910646" lon="12.260798"><ele>356.0</ele><time>2026-03-29T07:27:17.376Z</time></trkpt><trkpt lat="43.1911545" lon="12.2608157"><ele>356.0</ele><time>2026-03-29T07:27:18.376Z</time></trkpt><trkpt lat="43.191254" lon="12.2608382"><ele>356.0</ele><time>2026-03-29T07:27:19.374Z</time></trkpt><trkpt lat="43.1913518" lon="12.260872"><ele>356.0</ele><time>2026-03-29T07:27:20.374Z</time></trkpt><trkpt lat="43.1914538" lon="12.2609087"><ele>356.0</ele><time>2026-03-29T07:27:21.374Z</time></trkpt><trkpt lat="43.1915523" lon="12.2609221"><ele>356.0</ele><time>2026-03-29T07:27:22.373Z</time></trkpt><trkpt lat="43.1916349" lon="12.2609077"><ele>356.0</ele><time>2026-03-29T07:27:23.374Z</time></trkpt><trkpt lat="43.1917227" lon="12.2608884"><ele>356.0</ele><time>2026-03-29T07:27:24.375Z</time></trkpt><trkpt lat="43.1918083" lon="12.2608529"><ele>356.4</ele><time>2026-03-29T07:27:25.376Z</time></trkpt><trkpt lat="43.1919015" lon="12.2608162"><ele>356.8</ele><time>2026-03-29T07:27:28.375Z</time></trkpt><trkpt lat="43.1919648" lon="12.2608042"><ele>357.2</ele><time>2026-03-29T07:27:32.373Z</time></trkpt><trkpt lat="43.1920646" lon="12.2607439"><ele>357.59999999999997</ele><time>2026-03-29T07:27:35.374Z</time></trkpt><trkpt lat="43.1921814" lon="12.2607273"><ele>358.0</ele><time>2026-03-29T07:27:36.374Z</time></trkpt><trkpt lat="43.1923183" lon="12.260701"><ele>358.59999999999997</ele><time>2026-03-29T07:27:37.375Z</time></trkpt><trkpt lat="43.192418" lon="12.260664"><ele>359.2</ele><time>2026-03-29T07:27:38.374Z</time></trkpt><trkpt lat="43.1925125" lon="12.2606136"><ele>359.8</ele><time>2026-03-29T07:27:39.375Z</time></trkpt><trkpt lat="43.1926162" lon="12.2606049"><ele>360.4</ele><time>2026-03-29T07:27:40.375Z</time></trkpt><trkpt lat="43.1927158" lon="12.2606005"><ele>361.0</ele><time>2026-03-29T07:27:41.375Z</time></trkpt><trkpt lat="43.1928027" lon="12.2605927"><ele>364.20000000000005</ele><time>2026-03-29T07:27:42.375Z</time></trkpt><trkpt lat="43.1929159" lon="12.2605624"><ele>367.40000000000003</ele><time>2026-03-29T07:27:43.376Z</time></trkpt><trkpt lat="43.1930078" lon="12.2605641"><ele>370.6</ele><time>2026-03-29T07:27:44.375Z</time></trkpt><trkpt lat="43.1931162" lon="12.260578"><ele>373.8</ele><time>2026-03-29T07:27:45.374Z</time></trkpt><trkpt lat="43.1931887" lon="12.260603"><ele>377.0</ele><time>2026-03-29T07:27:46.373Z</time></trkpt><trkpt lat="43.1933095" lon="12.2605603"><ele>377.0</ele><time>2026-03-29T07:27:48.375Z</time></trkpt><trkpt lat="43.193376" lon="12.2605318"><ele>377.0</ele><time>2026-03-29T07:27:49.375Z</time></trkpt><trkpt lat="43.1934816" lon="12.2604235"><ele>377.0</ele><time>2026-03-29T07:27:51.373Z</time></trkpt><trkpt lat="43.1935456" lon="12.2603667"><ele>377.0</ele><time>2026-03-29T07:27:52.376Z</time></trkpt><trkpt lat="43.1936241" lon="12.2602474"><ele>377.0</ele><time>2026-03-29T07:27:54.375Z</time></trkpt><trkpt lat="43.1936885" lon="12.2602156"><ele>377.0</ele><time>2026-03-29T07:27:56.373Z</time></trkpt><trkpt lat="43.1937666" lon="12.2602667"><ele>377.0</ele><time>2026-03-29T07:27:58.375Z</time></trkpt><trkpt lat="43.1938785" lon="12.2603098"><ele>377.0</ele><time>2026-03-29T07:28:00.376Z</time></trkpt><trkpt lat="43.1939857" lon="12.2603033"><ele>377.0</ele><time>2026-03-29T07:28:02.376Z</time></trkpt><trkpt lat="43.1940809" lon="12.260277"><ele>377.0</ele><time>2026-03-29T07:28:03.374Z</time></trkpt><trkpt lat="43.194229" lon="12.2602238"><ele>376.6</ele><time>2026-03-29T07:28:04.376Z</time></trkpt><trkpt lat="43.1943318" lon="12.260186"><ele>376.20000000000005</ele><time>2026-03-29T07:28:05.376Z</time></trkpt><trkpt lat="43.1944082" lon="12.2601386"><ele>375.8</ele><time>2026-03-29T07:28:06.374Z</time></trkpt><trkpt lat="43.1945048" lon="12.2601045"><ele>375.4</ele><time>2026-03-29T07:28:07.375Z</time></trkpt><trkpt lat="43.1945894" lon="12.2600807"><ele>375.0</ele><time>2026-03-29T07:28:08.374Z</time></trkpt><trkpt lat="43.1946971" lon="12.2600867"><ele>375.0</ele><time>2026-03-29T07:28:09.376Z</time></trkpt><trkpt lat="43.1947814" lon="12.2600896"><ele>375.0</ele><time>2026-03-29T07:28:10.375Z</time></trkpt><trkpt lat="43.194852" lon="12.2600983"><ele>375.0</ele><time>2026-03-29T07:28:11.376Z</time></trkpt><trkpt lat="43.1949741" lon="12.2601098"><ele>375.0</ele><time>2026-03-29T07:28:13.374Z</time></trkpt><trkpt lat="43.1950383" lon="12.2600938"><ele>375.0</ele><time>2026-03-29T07:28:14.374Z</time></trkpt><trkpt lat="43.1951042" lon="12.2600979"><ele>375.0</ele><time>2026-03-29T07:28:15.375Z</time></trkpt><trkpt lat="43.1951774" lon="12.2601181"><ele>375.8333333333333</ele><time>2026-03-29T07:28:16.376Z</time></trkpt><trkpt lat="43.1952498" lon="12.260145"><ele>376.6666666666667</ele><time>2026-03-29T07:28:17.374Z</time></trkpt><trkpt lat="43.195297" lon="12.260212"><ele>377.5</ele><time>2026-03-29T07:28:18.375Z</time></trkpt><trkpt lat="43.1953552" lon="12.2602696"><ele>378.33333333333337</ele><time>2026-03-29T07:28:19.375Z</time></trkpt><trkpt lat="43.1954545" lon="12.2603238"><ele>379.1666666666667</ele><time>2026-03-29T07:28:22.375Z</time></trkpt><trkpt lat="43.1955233" lon="12.2603088"><ele>380.0</ele><time>2026-03-29T07:28:23.375Z</time></trkpt><trkpt lat="43.1956253" lon="12.2602748"><ele>380.33333333333337</ele><time>2026-03-29T07:28:24.376Z</time></trkpt><trkpt lat="43.1956948" lon="12.2602365"><ele>380.6666666666667</ele><time>2026-03-29T07:28:25.374Z</time></trkpt><trkpt lat="43.1957577" lon="12.2601546"><ele>381.0</ele><time>2026-03-29T07:28:26.376Z</time></trkpt><trkpt lat="43.1958393" lon="12.2600775"><ele>381.3333333333333</ele><time>2026-03-29T07:28:27.375Z</time></trkpt><trkpt lat="43.1959176" lon="12.260024"><ele>381.66666666666663</ele><time>2026-03-29T07:28:28.376Z</time></trkpt><trkpt lat="43.195972" lon="12.2599788"><ele>382.0</ele><time>2026-03-29T07:28:30.374Z</time></trkpt><trkpt lat="43.1960457" lon="12.2599425"><ele>382.0</ele><time>2026-03-29T07:28:32.376Z</time></trkpt><trkpt lat="43.1961224" lon="12.2599478"><ele>382.0</ele><time>2026-03-29T07:28:34.375Z</time></trkpt><trkpt lat="43.1962009" lon="12.2599523"><ele>382.0</ele><time>2026-03-29T07:28:35.376Z</time></trkpt><trkpt lat="43.1962678" lon="12.2599597"><ele>382.0</ele><time>2026-03-29T07:28:36.375Z</time></trkpt><trkpt lat="43.196346" lon="12.2599621"><ele>382.0</ele><time>2026-03-29T07:28:37.375Z</time></trkpt><trkpt lat="43.1964281" lon="12.2599743"><ele>382.0</ele><time>2026-03-29T07:28:38.38Z</time></trkpt><trkpt lat="43.1965125" lon="12.2599872"><ele>381.6</ele><time>2026-03-29T07:28:39.376Z</time></trkpt><trkpt lat="43.1965858" lon="12.2600034"><ele>381.20000000000005</ele><time>2026-03-29T07:28:40.376Z</time></trkpt><trkpt lat="43.196705" lon="12.2600102"><ele>380.8</ele><time>2026-03-29T07:28:42.375Z</time></trkpt><trkpt lat="43.19678" lon="12.2600128"><ele>380.4</ele><time>2026-03-29T07:28:44.376Z</time></trkpt><trkpt lat="43.1968752" lon="12.2599934"><ele>380.0</ele><time>2026-03-29T07:28:47.375Z</time></trkpt><trkpt lat="43.1969894" lon="12.259909"><ele>380.0</ele><time>2026-03-29T07:28:49.374Z</time></trkpt><trkpt lat="43.1970568" lon="12.2598827"><ele>380.0</ele><time>2026-03-29T07:28:50.375Z</time></trkpt><trkpt lat="43.1971802" lon="12.2598632"><ele>380.0</ele><time>2026-03-29T07:28:52.376Z</time></trkpt><trkpt lat="43.1972504" lon="12.2598843"><ele>380.0</ele><time>2026-03-29T07:28:53.375Z</time></trkpt><trkpt lat="43.1973278" lon="12.2599251"><ele>380.0</ele><time>2026-03-29T07:28:54.374Z</time></trkpt><trkpt lat="43.1974139" lon="12.2599399"><ele>380.0</ele><time>2026-03-29T07:28:56.374Z</time></trkpt><trkpt lat="43.1975144" lon="12.2599661"><ele>379.6666666666667</ele><time>2026-03-29T07:28:58.376Z</time></trkpt><trkpt lat="43.1976438" lon="12.2599536"><ele>379.33333333333337</ele><time>2026-03-29T07:29:00.376Z</time></trkpt><trkpt lat="43.1977084" lon="12.259936"><ele>379.0</ele><time>2026-03-29T07:29:01.374Z</time></trkpt><trkpt lat="43.1977804" lon="12.2599346"><ele>378.6666666666667</ele><time>2026-03-29T07:29:02.375Z</time></trkpt><trkpt lat="43.1978498" lon="12.2599281"><ele>378.3333333333333</ele><time>2026-03-29T07:29:03.375Z</time></trkpt><trkpt lat="43.1979184" lon="12.2599355"><ele>378.0</ele><time>2026-03-29T07:29:04.375Z</time></trkpt><trkpt lat="43.1980451" lon="12.2599392"><ele>378.0</ele><time>2026-03-29T07:29:06.376Z</time></trkpt><trkpt lat="43.1981145" lon="12.259958"><ele>378.0</ele><time>2026-03-29T07:29:07.375Z</time></trkpt><trkpt lat="43.1981833" lon="12.259959"><ele>378.0</ele><time>2026-03-29T07:29:08.376Z</time></trkpt><trkpt lat="43.1982524" lon="12.2599481"><ele>378.0</ele><time>2026-03-29T07:29:09.374Z</time></trkpt><trkpt lat="43.1983567" lon="12.2599117"><ele>378.0</ele><time>2026-03-29T07:29:11.375Z</time></trkpt><trkpt lat="43.1984535" lon="12.2598788"><ele>378.0</ele><time>2026-03-29T07:29:13.375Z</time></trkpt><trkpt lat="43.1985425" lon="12.25987"><ele>378.6666666666667</ele><time>2026-03-29T07:29:15.375Z</time></trkpt><trkpt lat="43.198616" lon="12.2598587"><ele>379.3333333333333</ele><time>2026-03-29T07:29:17.376Z</time></trkpt><trkpt lat="43.1986879" lon="12.2598566"><ele>380.0</ele><time>2026-03-29T07:29:18.376Z</time></trkpt><trkpt lat="43.1987631" lon="12.2598401"><ele>380.66666666666663</ele><time>2026-03-29T07:29:19.374Z</time></trkpt><trkpt lat="43.1988388" lon="12.2598128"><ele>381.3333333333333</ele><time>2026-03-29T07:29:20.375Z</time></trkpt><trkpt lat="43.1989009" lon="12.2597927"><ele>382.0</ele><time>2026-03-29T07:29:21.376Z</time></trkpt><trkpt lat="43.1989945" lon="12.2597334"><ele>385.6</ele><time>2026-03-29T07:29:23.375Z</time></trkpt><trkpt lat="43.1990794" lon="12.2596824"><ele>389.20000000000005</ele><time>2026-03-29T07:29:25.374Z</time></trkpt><trkpt lat="43.1991612" lon="12.2596106"><ele>392.8</ele><time>2026-03-29T07:29:27.375Z</time></trkpt><trkpt lat="43.1991985" lon="12.2595397"><ele>396.4</ele><time>2026-03-29T07:29:28.375Z</time></trkpt><trkpt lat="43.199224" lon="12.2594044"><ele>400.0</ele><time>2026-03-29T07:29:30.375Z</time></trkpt><trkpt lat="43.1992069" lon="12.2592564"><ele>400.00000000000006</ele><time>2026-03-29T07:29:32.376Z</time></trkpt><trkpt lat="43.1991737" lon="12.2591596"><ele>400.0</ele><time>2026-03-29T07:29:34.375Z</time></trkpt><trkpt lat="43.1991472" lon="12.2590582"><ele>400.0</ele><time>2026-03-29T07:29:37.375Z</time></trkpt><trkpt lat="43.1991147" lon="12.2589389"><ele>400.0</ele><time>2026-03-29T07:29:39.374Z</time></trkpt><trkpt lat="43.1990461" lon="12.2588146"><ele>400.00000000000006</ele><time>2026-03-29T07:29:41.376Z</time></trkpt><trkpt lat="43.1990073" lon="12.2587115"><ele>400.0</ele><time>2026-03-29T07:29:43.375Z</time></trkpt><trkpt lat="43.1990149" lon="12.2586035"><ele>403.33333333333337</ele><time>2026-03-29T07:29:50.374Z</time></trkpt><trkpt lat="43.1990547" lon="12.2585062"><ele>406.6666666666667</ele><time>2026-03-29T07:29:54.375Z</time></trkpt><trkpt lat="43.1991009" lon="12.2584323"><ele>410.0</ele><time>2026-03-29T07:29:56.375Z</time></trkpt><trkpt lat="43.1991933" lon="12.2584059"><ele>413.33333333333337</ele><time>2026-03-29T07:29:58.375Z</time></trkpt><trkpt lat="43.1992761" lon="12.2583463"><ele>416.6666666666667</ele><time>2026-03-29T07:30:00.375Z</time></trkpt><trkpt lat="43.1993483" lon="12.2582559"><ele>420.0</ele><time>2026-03-29T07:30:02.375Z</time></trkpt><trkpt lat="43.1993861" lon="12.2581269"><ele>422.85714285714283</ele><time>2026-03-29T07:30:05.375Z</time></trkpt><trkpt lat="43.1994082" lon="12.2579973"><ele>425.7142857142857</ele><time>2026-03-29T07:30:07.375Z</time></trkpt><trkpt lat="43.1994143" lon="12.2579051"><ele>428.57142857142856</ele><time>2026-03-29T07:30:08.375Z</time></trkpt><trkpt lat="43.1994227" lon="12.2578134"><ele>431.42857142857144</ele><time>2026-03-29T07:30:09.376Z</time></trkpt><trkpt lat="43.1994222" lon="12.2577146"><ele>434.2857142857143</ele><time>2026-03-29T07:30:10.375Z</time></trkpt><trkpt lat="43.1994174" lon="12.2576179"><ele>437.1428571428571</ele><time>2026-03-29T07:30:11.375Z</time></trkpt><trkpt lat="43.1994186" lon="12.2575176"><ele>440.0</ele><time>2026-03-29T07:30:12.375Z</time></trkpt><trkpt lat="43.1994137" lon="12.257416"><ele>439.99999999999994</ele><time>2026-03-29T07:30:13.375Z</time></trkpt><trkpt lat="43.1993965" lon="12.257327"><ele>440.0</ele><time>2026-03-29T07:30:14.375Z</time></trkpt><trkpt lat="43.1993216" lon="12.2571897"><ele>440.0</ele><time>2026-03-29T07:30:16.376Z</time></trkpt><trkpt lat="43.1992693" lon="12.2571386"><ele>440.0</ele><time>2026-03-29T07:30:17.375Z</time></trkpt><trkpt lat="43.1992095" lon="12.2570737"><ele>439.99999999999994</ele><time>2026-03-29T07:30:19.375Z</time></trkpt><trkpt lat="43.1993018" lon="12.2570123"><ele>440.0</ele><time>2026-03-29T07:30:22.374Z</time></trkpt><trkpt lat="43.1993666" lon="12.2569862"><ele>446.0</ele><time>2026-03-29T07:30:23.375Z</time></trkpt><trkpt lat="43.1995093" lon="12.2569974"><ele>452.0</ele><time>2026-03-29T07:30:25.375Z</time></trkpt><trkpt lat="43.1995758" lon="12.2570078"><ele>458.0</ele><time>2026-03-29T07:30:26.376Z</time></trkpt><trkpt lat="43.1996495" lon="12.2570336"><ele>464.0</ele><time>2026-03-29T07:30:27.376Z</time></trkpt><trkpt lat="43.1997275" lon="12.2570575"><ele>470.0</ele><time>2026-03-29T07:30:28.375Z</time></trkpt><trkpt lat="43.1998107" lon="12.2570407"><ele>469.6</ele><time>2026-03-29T07:30:29.375Z</time></trkpt><trkpt lat="43.1998898" lon="12.2570586"><ele>469.2</ele><time>2026-03-29T07:30:30.375Z</time></trkpt><trkpt lat="43.1999645" lon="12.2570793"><ele>468.79999999999995</ele><time>2026-03-29T07:30:31.374Z</time></trkpt><trkpt lat="43.2000553" lon="12.2571409"><ele>468.4</ele><time>2026-03-29T07:30:32.376Z</time></trkpt><trkpt lat="43.2001464" lon="12.2571887"><ele>468.0</ele><time>2026-03-29T07:30:33.375Z</time></trkpt><trkpt lat="43.200232" lon="12.2572452"><ele>465.8333333333333</ele><time>2026-03-29T07:30:34.376Z</time></trkpt><trkpt lat="43.2003201" lon="12.2572882"><ele>463.66666666666663</ele><time>2026-03-29T07:30:35.375Z</time></trkpt><trkpt lat="43.2004155" lon="12.2573257"><ele>461.5</ele><time>2026-03-29T07:30:36.376Z</time></trkpt><trkpt lat="43.2004952" lon="12.2573363"><ele>459.3333333333333</ele><time>2026-03-29T07:30:37.375Z</time></trkpt><trkpt lat="43.2005762" lon="12.2573197"><ele>457.16666666666663</ele><time>2026-03-29T07:30:38.374Z</time></trkpt><trkpt lat="43.2006485" lon="12.2572956"><ele>455.0</ele><time>2026-03-29T07:30:39.375Z</time></trkpt><trkpt lat="43.2007311" lon="12.2572709"><ele>454.99999999999994</ele><time>2026-03-29T07:30:40.374Z</time></trkpt><trkpt lat="43.20081" lon="12.2572232"><ele>455.0</ele><time>2026-03-29T07:30:41.376Z</time></trkpt><trkpt lat="43.2008938" lon="12.2571726"><ele>455.0</ele><time>2026-03-29T07:30:42.375Z</time></trkpt><trkpt lat="43.2009676" lon="12.2571062"><ele>455.0</ele><time>2026-03-29T07:30:43.375Z</time></trkpt><trkpt lat="43.2010528" lon="12.2570532"><ele>454.99999999999994</ele><time>2026-03-29T07:30:44.375Z</time></trkpt><trkpt lat="43.201122" lon="12.2570257"><ele>455.0</ele><time>2026-03-29T07:30:45.375Z</time></trkpt><trkpt lat="43.2012277" lon="12.2569569"><ele>455.0</ele><time>2026-03-29T07:30:47.376Z</time></trkpt><trkpt lat="43.201196" lon="12.2568055"><ele>455.0</ele><time>2026-03-29T07:30:58.374Z</time></trkpt><trkpt lat="43.2012378" lon="12.2567088"><ele>455.0</ele><time>2026-03-29T07:30:59.375Z</time></trkpt><trkpt lat="43.2012963" lon="12.2565482"><ele>455.0</ele><time>2026-03-29T07:31:01.376Z</time></trkpt><trkpt lat="43.2013338" lon="12.256473"><ele>455.0</ele><time>2026-03-29T07:31:02.376Z</time></trkpt><trkpt lat="43.2014602" lon="12.2564598"><ele>452.49999999999994</ele><time>2026-03-29T07:31:04.374Z</time></trkpt><trkpt lat="43.2015809" lon="12.2564603"><ele>450.0</ele><time>2026-03-29T07:31:06.376Z</time></trkpt><trkpt lat="43.2016663" lon="12.2564661"><ele>447.5</ele><time>2026-03-29T07:31:07.375Z</time></trkpt><trkpt lat="43.201763" lon="12.2564926"><ele>445.0</ele><time>2026-03-29T07:31:08.374Z</time></trkpt><trkpt lat="43.2018206" lon="12.2565412"><ele>442.49999999999994</ele><time>2026-03-29T07:31:09.376Z</time></trkpt><trkpt lat="43.201887" lon="12.2565942"><ele>440.0</ele><time>2026-03-29T07:31:10.375Z</time></trkpt><trkpt lat="43.2019498" lon="12.2566404"><ele>439.99999999999994</ele><time>2026-03-29T07:31:11.375Z</time></trkpt><trkpt lat="43.2020165" lon="12.2566582"><ele>440.0</ele><time>2026-03-29T07:31:12.375Z</time></trkpt><trkpt lat="43.2020943" lon="12.2566497"><ele>440.0</ele><time>2026-03-29T07:31:13.375Z</time></trkpt><trkpt lat="43.2021751" lon="12.2566349"><ele>440.0</ele><time>2026-03-29T07:31:14.375Z</time></trkpt><trkpt lat="43.2022629" lon="12.2566179"><ele>439.99999999999994</ele><time>2026-03-29T07:31:16.377Z</time></trkpt><trkpt lat="43.2023264" lon="12.2566672"><ele>440.0</ele><time>2026-03-29T07:31:18.376Z</time></trkpt><trkpt lat="43.2023153" lon="12.256784"><ele>440.0</ele><time>2026-03-29T07:31:20.376Z</time></trkpt><trkpt lat="43.202301" lon="12.2568685"><ele>440.0</ele><time>2026-03-29T07:31:22.376Z</time></trkpt><trkpt lat="43.2023039" lon="12.2569632"><ele>440.0</ele><time>2026-03-29T07:31:24.376Z</time></trkpt><trkpt lat="43.2023878" lon="12.2570192"><ele>440.0</ele><time>2026-03-29T07:31:27.374Z</time></trkpt><trkpt lat="43.2024846" lon="12.2569311"><ele>440.0</ele><time>2026-03-29T07:31:29.375Z</time></trkpt><trkpt lat="43.2025484" lon="12.2568059"><ele>441.4</ele><time>2026-03-29T07:31:31.376Z</time></trkpt><trkpt lat="43.2025944" lon="12.2566751"><ele>442.8</ele><time>2026-03-29T07:31:33.376Z</time></trkpt><trkpt lat="43.2026439" lon="12.2565354"><ele>444.20000000000005</ele><time>2026-03-29T07:31:35.376Z</time></trkpt><trkpt lat="43.2027347" lon="12.256462"><ele>445.6</ele><time>2026-03-29T07:31:37.376Z</time></trkpt><trkpt lat="43.202807" lon="12.256428"><ele>447.0</ele><time>2026-03-29T07:31:39.374Z</time></trkpt><trkpt lat="43.2028805" lon="12.2563866"><ele>447.0</ele><time>2026-03-29T07:31:41.374Z</time></trkpt><trkpt lat="43.2029538" lon="12.2563968"><ele>447.00000000000006</ele><time>2026-03-29T07:31:43.376Z</time></trkpt><trkpt lat="43.2029564" lon="12.2565224"><ele>447.00000000000006</ele><time>2026-03-29T07:31:45.374Z</time></trkpt><trkpt lat="43.2029373" lon="12.2566625"><ele>447.0</ele><time>2026-03-29T07:31:47.375Z</time></trkpt><trkpt lat="43.2028755" lon="12.2567807"><ele>447.0</ele><time>2026-03-29T07:31:49.377Z</time></trkpt><trkpt lat="43.2028618" lon="12.2569342"><ele>444.5</ele><time>2026-03-29T07:31:51.375Z</time></trkpt><trkpt lat="43.2028573" lon="12.2570204"><ele>442.0</ele><time>2026-03-29T07:31:52.377Z</time></trkpt><trkpt lat="43.2028688" lon="12.2571273"><ele>439.5</ele><time>2026-03-29T07:31:53.375Z</time></trkpt><trkpt lat="43.2028756" lon="12.2572333"><ele>437.0</ele><time>2026-03-29T07:31:54.376Z</time></trkpt><trkpt lat="43.2028838" lon="12.257341"><ele>434.5</ele><time>2026-03-29T07:31:55.375Z</time></trkpt><trkpt lat="43.2028972" lon="12.2574494"><ele>432.0</ele><time>2026-03-29T07:31:56.376Z</time></trkpt><trkpt lat="43.2029028" lon="12.257557"><ele>430.8333333333333</ele><time>2026-03-29T07:31:57.375Z</time></trkpt><trkpt lat="43.2029521" lon="12.2576144"><ele>429.66666666666663</ele><time>2026-03-29T07:31:58.375Z</time></trkpt><trkpt lat="43.202998" lon="12.2576859"><ele>428.5</ele><time>2026-03-29T07:31:59.376Z</time></trkpt><trkpt lat="43.203044" lon="12.2578383"><ele>427.3333333333333</ele><time>2026-03-29T07:32:01.376Z</time></trkpt><trkpt lat="43.2030988" lon="12.2579707"><ele>426.16666666666663</ele><time>2026-03-29T07:32:03.375Z</time></trkpt><trkpt lat="43.2031456" lon="12.2580501"><ele>425.0</ele><time>2026-03-29T07:32:04.376Z</time></trkpt><trkpt lat="43.2031869" lon="12.2581345"><ele>424.8333333333333</ele><time>2026-03-29T07:32:05.375Z</time></trkpt><trkpt lat="43.2031909" lon="12.2582334"><ele>424.66666666666663</ele><time>2026-03-29T07:32:06.376Z</time></trkpt><trkpt lat="43.2032101" lon="12.2583368"><ele>424.5</ele><time>2026-03-29T07:32:07.375Z</time></trkpt><trkpt lat="43.2032109" lon="12.2584442"><ele>424.33333333333337</ele><time>2026-03-29T07:32:08.376Z</time></trkpt><trkpt lat="43.2032162" lon="12.2585521"><ele>424.1666666666667</ele><time>2026-03-29T07:32:09.375Z</time></trkpt><trkpt lat="43.2032063" lon="12.2586533"><ele>424.0</ele><time>2026-03-29T07:32:10.375Z</time></trkpt><trkpt lat="43.2031571" lon="12.2587839"><ele>424.0</ele><time>2026-03-29T07:32:12.376Z</time></trkpt><trkpt lat="43.2030708" lon="12.2588578"><ele>424.0</ele><time>2026-03-29T07:32:14.375Z</time></trkpt><trkpt lat="43.20309" lon="12.2589769"><ele>424.0</ele><time>2026-03-29T07:32:17.375Z</time></trkpt><trkpt lat="43.2031845" lon="12.2590277"><ele>424.0</ele><time>2026-03-29T07:32:19.375Z</time></trkpt><trkpt lat="43.2032713" lon="12.2591123"><ele>424.0</ele><time>2026-03-29T07:32:21.375Z</time></trkpt><trkpt lat="43.2032275" lon="12.2591985"><ele>428.33333333333337</ele><time>2026-03-29T07:32:23.377Z</time></trkpt><trkpt lat="43.2031386" lon="12.2591785"><ele>432.6666666666667</ele><time>2026-03-29T07:32:25.375Z</time></trkpt><trkpt lat="43.2030528" lon="12.2592312"><ele>437.0</ele><time>2026-03-29T07:32:27.375Z</time></trkpt><trkpt lat="43.2030046" lon="12.2592955"><ele>441.33333333333337</ele><time>2026-03-29T07:32:28.375Z</time></trkpt><trkpt lat="43.2029414" lon="12.2593233"><ele>445.6666666666667</ele><time>2026-03-29T07:32:29.376Z</time></trkpt><trkpt lat="43.2028301" lon="12.2593899"><ele>450.0</ele><time>2026-03-29T07:32:31.375Z</time></trkpt><trkpt lat="43.2027039" lon="12.2594381"><ele>450.0</ele><time>2026-03-29T07:32:33.377Z</time></trkpt><trkpt lat="43.2026421" lon="12.2594867"><ele>450.0</ele><time>2026-03-29T07:32:34.375Z</time></trkpt><trkpt lat="43.2025748" lon="12.2595687"><ele>450.0</ele><time>2026-03-29T07:32:35.374Z</time></trkpt><trkpt lat="43.2025124" lon="12.2596565"><ele>450.0</ele><time>2026-03-29T07:32:36.377Z</time></trkpt><trkpt lat="43.2024712" lon="12.2597221"><ele>450.0</ele><time>2026-03-29T07:32:37.376Z</time></trkpt><trkpt lat="43.2024258" lon="12.2597822"><ele>450.0</ele><time>2026-03-29T07:32:38.376Z</time></trkpt><trkpt lat="43.2023571" lon="12.2598747"><ele>451.5</ele><time>2026-03-29T07:32:40.377Z</time></trkpt><trkpt lat="43.2022509" lon="12.2599435"><ele>453.0</ele><time>2026-03-29T07:32:42.376Z</time></trkpt><trkpt lat="43.2021849" lon="12.2599835"><ele>454.5</ele><time>2026-03-29T07:32:43.374Z</time></trkpt><trkpt lat="43.2021221" lon="12.2600308"><ele>456.0</ele><time>2026-03-29T07:32:44.376Z</time></trkpt><trkpt lat="43.2020602" lon="12.2601381"><ele>457.5</ele><time>2026-03-29T07:32:46.374Z</time></trkpt><trkpt lat="43.2021238" lon="12.2601934"><ele>459.0</ele><time>2026-03-29T07:32:48.375Z</time></trkpt><trkpt lat="43.2022217" lon="12.2602121"><ele>459.0</ele><time>2026-03-29T07:32:50.375Z</time></trkpt><trkpt lat="43.202329" lon="12.2602228"><ele>459.0</ele><time>2026-03-29T07:32:52.376Z</time></trkpt><trkpt lat="43.2024304" lon="12.2602577"><ele>459.0</ele><time>2026-03-29T07:32:54.375Z</time></trkpt><trkpt lat="43.2025112" lon="12.2603002"><ele>459.0</ele><time>2026-03-29T07:32:56.375Z</time></trkpt><trkpt lat="43.2025734" lon="12.2603412"><ele>459.0</ele><time>2026-03-29T07:32:58.377Z</time></trkpt><trkpt lat="43.2026552" lon="12.2604327"><ele>462.5</ele><time>2026-03-29T07:33:00.377Z</time></trkpt><trkpt lat="43.2027085" lon="12.2604857"><ele>466.0</ele><time>2026-03-29T07:33:01.375Z</time></trkpt><trkpt lat="43.2027547" lon="12.2605475"><ele>469.5</ele><time>2026-03-29T07:33:02.374Z</time></trkpt><trkpt lat="43.2028448" lon="12.2606718"><ele>473.0</ele><time>2026-03-29T07:33:04.376Z</time></trkpt><trkpt lat="43.2029038" lon="12.260735"><ele>476.5</ele><time>2026-03-29T07:33:05.375Z</time></trkpt><trkpt lat="43.2029595" lon="12.2607826"><ele>480.0</ele><time>2026-03-29T07:33:06.374Z</time></trkpt><trkpt lat="43.2030187" lon="12.2608222"><ele>481.5</ele><time>2026-03-29T07:33:07.376Z</time></trkpt><trkpt lat="43.2030796" lon="12.2608637"><ele>483.0</ele><time>2026-03-29T07:33:08.376Z</time></trkpt><trkpt lat="43.2032016" lon="12.2609622"><ele>484.5</ele><time>2026-03-29T07:33:10.376Z</time></trkpt><trkpt lat="43.2032694" lon="12.2609878"><ele>486.0</ele><time>2026-03-29T07:33:11.375Z</time></trkpt><trkpt lat="43.203334" lon="12.2610101"><ele>487.5</ele><time>2026-03-29T07:33:12.375Z</time></trkpt><trkpt lat="43.203409" lon="12.2610352"><ele>489.0</ele><time>2026-03-29T07:33:13.376Z</time></trkpt><trkpt lat="43.2034907" lon="12.2610692"><ele>490.6666666666667</ele><time>2026-03-29T07:33:14.376Z</time></trkpt><trkpt lat="43.2035741" lon="12.2610895"><ele>492.33333333333337</ele><time>2026-03-29T07:33:15.375Z</time></trkpt><trkpt lat="43.2036737" lon="12.2611236"><ele>494.0</ele><time>2026-03-29T07:33:17.376Z</time></trkpt><trkpt lat="43.2037519" lon="12.261221"><ele>495.6666666666667</ele><time>2026-03-29T07:33:19.375Z</time></trkpt><trkpt lat="43.2037962" lon="12.261307"><ele>497.33333333333337</ele><time>2026-03-29T07:33:20.376Z</time></trkpt><trkpt lat="43.2038302" lon="12.2613873"><ele>499.0</ele><time>2026-03-29T07:33:21.376Z</time></trkpt><trkpt lat="43.2038777" lon="12.2614633"><ele>499.00000000000006</ele><time>2026-03-29T07:33:22.376Z</time></trkpt><trkpt lat="43.2039184" lon="12.2615296"><ele>499.0</ele><time>2026-03-29T07:33:23.376Z</time></trkpt><trkpt lat="43.2039649" lon="12.2615938"><ele>499.00000000000006</ele><time>2026-03-29T07:33:24.377Z</time></trkpt><trkpt lat="43.2040202" lon="12.2616544"><ele>499.00000000000006</ele><time>2026-03-29T07:33:25.376Z</time></trkpt><trkpt lat="43.2040814" lon="12.2617177"><ele>499.0</ele><time>2026-03-29T07:33:26.377Z</time></trkpt><trkpt lat="43.2041499" lon="12.2617903"><ele>499.00000000000006</ele><time>2026-03-29T07:33:27.375Z</time></trkpt><trkpt lat="43.2042077" lon="12.2618506"><ele>499.00000000000006</ele><time>2026-03-29T07:33:28.374Z</time></trkpt><trkpt lat="43.2042749" lon="12.2618908"><ele>502.1666666666667</ele><time>2026-03-29T07:33:29.376Z</time></trkpt><trkpt lat="43.204348" lon="12.261913"><ele>505.33333333333337</ele><time>2026-03-29T07:33:30.375Z</time></trkpt><trkpt lat="43.2044322" lon="12.2619386"><ele>508.5</ele><time>2026-03-29T07:33:31.376Z</time></trkpt><trkpt lat="43.2045109" lon="12.2619573"><ele>511.66666666666663</ele><time>2026-03-29T07:33:32.376Z</time></trkpt><trkpt lat="43.204584" lon="12.2619866"><ele>514.8333333333333</ele><time>2026-03-29T07:33:33.377Z</time></trkpt><trkpt lat="43.2046474" lon="12.2620435"><ele>518.0</ele><time>2026-03-29T07:33:34.375Z</time></trkpt><trkpt lat="43.2047408" lon="12.2621666"><ele>518.0</ele><time>2026-03-29T07:33:36.375Z</time></trkpt><trkpt lat="43.2047782" lon="12.2622477"><ele>518.0</ele><time>2026-03-29T07:33:37.377Z</time></trkpt><trkpt lat="43.2048631" lon="12.2623677"><ele>518.0</ele><time>2026-03-29T07:33:39.375Z</time></trkpt><trkpt lat="43.2049457" lon="12.26245"><ele>518.0</ele><time>2026-03-29T07:33:41.375Z</time></trkpt><trkpt lat="43.2050546" lon="12.2625068"><ele>518.0</ele><time>2026-03-29T07:33:43.375Z</time></trkpt><trkpt lat="43.2051412" lon="12.2625486"><ele>519.8333333333333</ele><time>2026-03-29T07:33:44.376Z</time></trkpt><trkpt lat="43.2052107" lon="12.2625741"><ele>521.6666666666666</ele><time>2026-03-29T07:33:45.377Z</time></trkpt><trkpt lat="43.2052734" lon="12.262603"><ele>523.5</ele><time>2026-03-29T07:33:46.376Z</time></trkpt><trkpt lat="43.2053343" lon="12.2626417"><ele>525.3333333333334</ele><time>2026-03-29T07:33:47.377Z</time></trkpt><trkpt lat="43.2053875" lon="12.2626974"><ele>527.1666666666667</ele><time>2026-03-29T07:33:48.377Z</time></trkpt><trkpt lat="43.2054343" lon="12.2627553"><ele>529.0</ele><time>2026-03-29T07:33:49.377Z</time></trkpt><trkpt lat="43.2054805" lon="12.262906"><ele>529.0</ele><time>2026-03-29T07:33:51.376Z</time></trkpt><trkpt lat="43.2055595" lon="12.263016"><ele>529.0</ele><time>2026-03-29T07:33:53.375Z</time></trkpt><trkpt lat="43.2056152" lon="12.2630743"><ele>529.0</ele><time>2026-03-29T07:33:54.375Z</time></trkpt><trkpt lat="43.2056906" lon="12.2631645"><ele>529.0</ele><time>2026-03-29T07:33:56.377Z</time></trkpt><trkpt lat="43.2057507" lon="12.2632355"><ele>529.0</ele><time>2026-03-29T07:33:58.377Z</time></trkpt><trkpt lat="43.2058443" lon="12.2633442"><ele>531.4</ele><time>2026-03-29T07:34:00.377Z</time></trkpt><trkpt lat="43.2059673" lon="12.2634529"><ele>533.8</ele><time>2026-03-29T07:34:02.375Z</time></trkpt><trkpt lat="43.2060226" lon="12.2634975"><ele>536.2</ele><time>2026-03-29T07:34:03.374Z</time></trkpt><trkpt lat="43.2061052" lon="12.2635899"><ele>538.6</ele><time>2026-03-29T07:34:05.377Z</time></trkpt><trkpt lat="43.2061588" lon="12.2636385"><ele>541.0</ele><time>2026-03-29T07:34:07.376Z</time></trkpt><trkpt lat="43.2062343" lon="12.263725"><ele>541.0</ele><time>2026-03-29T07:34:09.377Z</time></trkpt><trkpt lat="43.2062907" lon="12.2638128"><ele>541.0</ele><time>2026-03-29T07:34:10.376Z</time></trkpt><trkpt lat="43.2063626" lon="12.2639085"><ele>541.0</ele><time>2026-03-29T07:34:11.376Z</time></trkpt><trkpt lat="43.2064299" lon="12.2640089"><ele>541.0</ele><time>2026-03-29T07:34:12.376Z</time></trkpt><trkpt lat="43.2064962" lon="12.2641128"><ele>541.0</ele><time>2026-03-29T07:34:13.376Z</time></trkpt><trkpt lat="43.2065501" lon="12.2642255"><ele>542.3333333333334</ele><time>2026-03-29T07:34:14.377Z</time></trkpt><trkpt lat="43.2065889" lon="12.2643471"><ele>543.6666666666667</ele><time>2026-03-29T07:34:15.376Z</time></trkpt><trkpt lat="43.206581" lon="12.2644649"><ele>545.0</ele><time>2026-03-29T07:34:16.376Z</time></trkpt><trkpt lat="43.2065639" lon="12.264569"><ele>546.3333333333334</ele><time>2026-03-29T07:34:17.375Z</time></trkpt><trkpt lat="43.2065212" lon="12.2646581"><ele>547.6666666666666</ele><time>2026-03-29T07:34:18.377Z</time></trkpt><trkpt lat="43.2064757" lon="12.2647343"><ele>549.0</ele><time>2026-03-29T07:34:19.375Z</time></trkpt><trkpt lat="43.2064364" lon="12.2648448"><ele>547.5</ele><time>2026-03-29T07:34:21.376Z</time></trkpt><trkpt lat="43.2064433" lon="12.264944"><ele>546.0</ele><time>2026-03-29T07:34:24.376Z</time></trkpt><trkpt lat="43.2065077" lon="12.2650087"><ele>544.5</ele><time>2026-03-29T07:34:37.377Z</time></trkpt><trkpt lat="43.2065868" lon="12.2650613"><ele>543.0</ele><time>2026-03-29T07:34:39.375Z</time></trkpt><trkpt lat="43.206667" lon="12.2650881"><ele>541.5</ele><time>2026-03-29T07:34:40.376Z</time></trkpt><trkpt lat="43.2067602" lon="12.2651026"><ele>540.0</ele><time>2026-03-29T07:34:41.375Z</time></trkpt><trkpt lat="43.2068661" lon="12.2650953"><ele>540.0</ele><time>2026-03-29T07:34:42.375Z</time></trkpt><trkpt lat="43.2069729" lon="12.2650747"><ele>540.0</ele><time>2026-03-29T07:34:43.376Z</time></trkpt><trkpt lat="43.207086" lon="12.2650123"><ele>540.0</ele><time>2026-03-29T07:34:44.376Z</time></trkpt><trkpt lat="43.2071762" lon="12.2649424"><ele>540.0</ele><time>2026-03-29T07:34:45.375Z</time></trkpt><trkpt lat="43.2072604" lon="12.2648631"><ele>540.0</ele><time>2026-03-29T07:34:46.375Z</time></trkpt><trkpt lat="43.2073242" lon="12.2647674"><ele>542.5</ele><time>2026-03-29T07:34:47.375Z</time></trkpt><trkpt lat="43.2073782" lon="12.2647053"><ele>545.0</ele><time>2026-03-29T07:34:48.376Z</time></trkpt><trkpt lat="43.2074364" lon="12.2646672"><ele>547.5</ele><time>2026-03-29T07:34:49.377Z</time></trkpt><trkpt lat="43.2075031" lon="12.264633"><ele>550.0</ele><time>2026-03-29T07:34:50.376Z</time></trkpt><trkpt lat="43.2075703" lon="12.2645971"><ele>552.5</ele><time>2026-03-29T07:34:51.374Z</time></trkpt><trkpt lat="43.2076617" lon="12.2645785"><ele>555.0</ele><time>2026-03-29T07:34:52.375Z</time></trkpt><trkpt lat="43.207754" lon="12.2645494"><ele>555.0</ele><time>2026-03-29T07:34:53.376Z</time></trkpt><trkpt lat="43.2078568" lon="12.2645008"><ele>555.0</ele><time>2026-03-29T07:34:54.377Z</time></trkpt><trkpt lat="43.2079567" lon="12.2644563"><ele>555.0</ele><time>2026-03-29T07:34:55.376Z</time></trkpt><trkpt lat="43.2080712" lon="12.2643947"><ele>555.0</ele><time>2026-03-29T07:34:56.377Z</time></trkpt><trkpt lat="43.2081789" lon="12.2643449"><ele>552.25</ele><time>2026-03-29T07:34:57.376Z</time></trkpt><trkpt lat="43.208302" lon="12.2643229"><ele>549.5</ele><time>2026-03-29T07:34:58.375Z</time></trkpt><trkpt lat="43.2084266" lon="12.2643136"><ele>546.75</ele><time>2026-03-29T07:34:59.377Z</time></trkpt><trkpt lat="43.2085462" lon="12.2643132"><ele>544.0</ele><time>2026-03-29T07:35:00.376Z</time></trkpt><trkpt lat="43.2086683" lon="12.2643136"><ele>544.0</ele><time>2026-03-29T07:35:01.375Z</time></trkpt><trkpt lat="43.2087928" lon="12.2643129"><ele>544.0</ele><time>2026-03-29T07:35:02.376Z</time></trkpt><trkpt lat="43.2089163" lon="12.2643168"><ele>544.0</ele><time>2026-03-29T07:35:03.376Z</time></trkpt><trkpt lat="43.2090421" lon="12.264324"><ele>544.0</ele><time>2026-03-29T07:35:04.376Z</time></trkpt><trkpt lat="43.2091635" lon="12.2643255"><ele>546.0</ele><time>2026-03-29T07:35:05.375Z</time></trkpt><trkpt lat="43.2092798" lon="12.264331"><ele>548.0</ele><time>2026-03-29T07:35:06.377Z</time></trkpt><trkpt lat="43.2093971" lon="12.2643369"><ele>550.0</ele><time>2026-03-29T07:35:07.376Z</time></trkpt><trkpt lat="43.2095173" lon="12.2643349"><ele>552.0</ele><time>2026-03-29T07:35:08.376Z</time></trkpt><trkpt lat="43.2096338" lon="12.2643356"><ele>552.0</ele><time>2026-03-29T07:35:09.376Z</time></trkpt><trkpt lat="43.2097433" lon="12.2643391"><ele>552.0</ele><time>2026-03-29T07:35:10.374Z</time></trkpt><trkpt lat="43.2098449" lon="12.2643475"><ele>552.0</ele><time>2026-03-29T07:35:11.376Z</time></trkpt><trkpt lat="43.2099053" lon="12.2643934"><ele>552.0</ele><time>2026-03-29T07:35:12.376Z</time></trkpt><trkpt lat="43.2099788" lon="12.2644491"><ele>552.0</ele><time>2026-03-29T07:35:13.376Z</time></trkpt><trkpt lat="43.2100388" lon="12.2645248"><ele>552.0</ele><time>2026-03-29T07:35:14.376Z</time></trkpt><trkpt lat="43.210086" lon="12.2646133"><ele>552.5</ele><time>2026-03-29T07:35:15.377Z</time></trkpt><trkpt lat="43.210148" lon="12.2647159"><ele>553.0</ele><time>2026-03-29T07:35:17.376Z</time></trkpt><trkpt lat="43.2102372" lon="12.2647534"><ele>553.5</ele><time>2026-03-29T07:35:19.376Z</time></trkpt><trkpt lat="43.2103043" lon="12.2647554"><ele>554.0</ele><time>2026-03-29T07:35:20.377Z</time></trkpt><trkpt lat="43.2103876" lon="12.2647444"><ele>554.5</ele><time>2026-03-29T07:35:21.376Z</time></trkpt><trkpt lat="43.2104785" lon="12.2647333"><ele>555.0</ele><time>2026-03-29T07:35:22.377Z</time></trkpt><trkpt lat="43.2105861" lon="12.264733"><ele>555.8333333333334</ele><time>2026-03-29T07:35:23.376Z</time></trkpt><trkpt lat="43.2106764" lon="12.2647469"><ele>556.6666666666666</ele><time>2026-03-29T07:35:24.376Z</time></trkpt><trkpt lat="43.2107626" lon="12.2647695"><ele>557.5</ele><time>2026-03-29T07:35:25.375Z</time></trkpt><trkpt lat="43.2108372" lon="12.2647916"><ele>558.3333333333333</ele><time>2026-03-29T07:35:26.376Z</time></trkpt><trkpt lat="43.2109299" lon="12.2647999"><ele>559.1666666666666</ele><time>2026-03-29T07:35:27.376Z</time></trkpt><trkpt lat="43.211001" lon="12.2648201"><ele>560.0</ele><time>2026-03-29T07:35:28.377Z</time></trkpt><trkpt lat="43.2110652" lon="12.2648213"><ele>560.0</ele><time>2026-03-29T07:35:29.377Z</time></trkpt><trkpt lat="43.2111367" lon="12.2648159"><ele>560.0</ele><time>2026-03-29T07:35:30.376Z</time></trkpt><trkpt lat="43.2112153" lon="12.2647992"><ele>560.0</ele><time>2026-03-29T07:35:31.375Z</time></trkpt><trkpt lat="43.2112991" lon="12.2646929"><ele>560.0</ele><time>2026-03-29T07:35:33.375Z</time></trkpt><trkpt lat="43.2113402" lon="12.2646153"><ele>560.0</ele><time>2026-03-29T07:35:34.377Z</time></trkpt><trkpt lat="43.2113775" lon="12.2645315"><ele>560.0</ele><time>2026-03-29T07:35:35.375Z</time></trkpt><trkpt lat="43.2114298" lon="12.2644704"><ele>559.4</ele><time>2026-03-29T07:35:36.377Z</time></trkpt><trkpt lat="43.2115252" lon="12.2644634"><ele>558.8</ele><time>2026-03-29T07:35:38.375Z</time></trkpt><trkpt lat="43.2115862" lon="12.2644904"><ele>558.2</ele><time>2026-03-29T07:35:39.374Z</time></trkpt><trkpt lat="43.2116947" lon="12.2645675"><ele>557.6</ele><time>2026-03-29T07:35:41.377Z</time></trkpt><trkpt lat="43.211766" lon="12.2645932"><ele>557.0</ele><time>2026-03-29T07:35:42.376Z</time></trkpt><trkpt lat="43.2118612" lon="12.2646028"><ele>557.0</ele><time>2026-03-29T07:35:43.376Z</time></trkpt><trkpt lat="43.2119529" lon="12.2646072"><ele>557.0</ele><time>2026-03-29T07:35:44.375Z</time></trkpt><trkpt lat="43.2120468" lon="12.2645933"><ele>557.0</ele><time>2026-03-29T07:35:45.375Z</time></trkpt><trkpt lat="43.2121422" lon="12.2645968"><ele>557.0</ele><time>2026-03-29T07:35:47.376Z</time></trkpt><trkpt lat="43.2122506" lon="12.2645944"><ele>557.0</ele><time>2026-03-29T07:35:49.376Z</time></trkpt><trkpt lat="43.2123142" lon="12.2646068"><ele>556.0</ele><time>2026-03-29T07:35:50.375Z</time></trkpt><trkpt lat="43.2123868" lon="12.2646043"><ele>555.0</ele><time>2026-03-29T07:35:51.377Z</time></trkpt><trkpt lat="43.2124569" lon="12.26457"><ele>554.0</ele><time>2026-03-29T07:35:52.375Z</time></trkpt><trkpt lat="43.2125131" lon="12.2644717"><ele>553.0</ele><time>2026-03-29T07:35:53.376Z</time></trkpt><trkpt lat="43.2125797" lon="12.2643871"><ele>552.0</ele><time>2026-03-29T07:35:54.376Z</time></trkpt><trkpt lat="43.2126737" lon="12.2643449"><ele>551.0</ele><time>2026-03-29T07:35:55.376Z</time></trkpt><trkpt lat="43.2127454" lon="12.2643115"><ele>551.0</ele><time>2026-03-29T07:35:56.375Z</time></trkpt><trkpt lat="43.2128115" lon="12.2642992"><ele>551.0</ele><time>2026-03-29T07:35:57.376Z</time></trkpt><trkpt lat="43.212899" lon="12.2642828"><ele>551.0</ele><time>2026-03-29T07:35:59.375Z</time></trkpt><trkpt lat="43.2129828" lon="12.2642648"><ele>551.0</ele><time>2026-03-29T07:36:01.377Z</time></trkpt><trkpt lat="43.2130894" lon="12.2642924"><ele>551.0</ele><time>2026-03-29T07:36:03.375Z</time></trkpt><trkpt lat="43.2131804" lon="12.2643267"><ele>551.0</ele><time>2026-03-29T07:36:04.376Z</time></trkpt><trkpt lat="43.2132498" lon="12.2643636"><ele>547.4</ele><time>2026-03-29T07:36:05.376Z</time></trkpt><trkpt lat="43.2133559" lon="12.2643406"><ele>543.8</ele><time>2026-03-29T07:36:07.377Z</time></trkpt><trkpt lat="43.2134407" lon="12.2642765"><ele>540.1999999999999</ele><time>2026-03-29T07:36:09.377Z</time></trkpt><trkpt lat="43.2135047" lon="12.2641855"><ele>536.6</ele><time>2026-03-29T07:36:11.376Z</time></trkpt><trkpt lat="43.21354" lon="12.2640772"><ele>533.0</ele><time>2026-03-29T07:36:13.377Z</time></trkpt><trkpt lat="43.2135182" lon="12.263893"><ele>532.3333333333333</ele><time>2026-03-29T07:36:15.375Z</time></trkpt><trkpt lat="43.2134955" lon="12.2637567"><ele>531.6666666666666</ele><time>2026-03-29T07:36:16.377Z</time></trkpt><trkpt lat="43.2134835" lon="12.2636471"><ele>531.0</ele><time>2026-03-29T07:36:17.375Z</time></trkpt><trkpt lat="43.2134938" lon="12.2635446"><ele>530.3333333333334</ele><time>2026-03-29T07:36:18.377Z</time></trkpt><trkpt lat="43.2135059" lon="12.2634459"><ele>529.6666666666667</ele><time>2026-03-29T07:36:19.376Z</time></trkpt><trkpt lat="43.213513" lon="12.2633554"><ele>529.0</ele><time>2026-03-29T07:36:20.377Z</time></trkpt><trkpt lat="43.2135298" lon="12.2632675"><ele>529.0</ele><time>2026-03-29T07:36:21.376Z</time></trkpt><trkpt lat="43.2135011" lon="12.2631228"><ele>529.0</ele><time>2026-03-29T07:36:23.375Z</time></trkpt><trkpt lat="43.2134592" lon="12.2630544"><ele>529.0</ele><time>2026-03-29T07:36:24.376Z</time></trkpt><trkpt lat="43.2134001" lon="12.2629877"><ele>529.0</ele><time>2026-03-29T07:36:25.376Z</time></trkpt><trkpt lat="43.213357" lon="12.2629122"><ele>529.0</ele><time>2026-03-29T07:36:26.377Z</time></trkpt><trkpt lat="43.2133209" lon="12.2628335"><ele>529.0</ele><time>2026-03-29T07:36:27.376Z</time></trkpt><trkpt lat="43.2132844" lon="12.2627529"><ele>528.4</ele><time>2026-03-29T07:36:29.375Z</time></trkpt><trkpt lat="43.2133312" lon="12.2626205"><ele>527.8</ele><time>2026-03-29T07:36:31.377Z</time></trkpt><trkpt lat="43.2133961" lon="12.2624832"><ele>527.2</ele><time>2026-03-29T07:36:33.378Z</time></trkpt><trkpt lat="43.213442" lon="12.2624224"><ele>526.6</ele><time>2026-03-29T07:36:34.376Z</time></trkpt><trkpt lat="43.2134836" lon="12.2623071"><ele>526.0</ele><time>2026-03-29T07:36:35.377Z</time></trkpt><trkpt lat="43.2135283" lon="12.2622179"><ele>527.2</ele><time>2026-03-29T07:36:36.376Z</time></trkpt><trkpt lat="43.2135763" lon="12.2621204"><ele>528.4000000000001</ele><time>2026-03-29T07:36:37.376Z</time></trkpt><trkpt lat="43.2136252" lon="12.2620073"><ele>529.6</ele><time>2026-03-29T07:36:38.377Z</time></trkpt><trkpt lat="43.2136665" lon="12.2619124"><ele>530.8000000000001</ele><time>2026-03-29T07:36:39.376Z</time></trkpt><trkpt lat="43.2137296" lon="12.2617492"><ele>532.0</ele><time>2026-03-29T07:36:41.375Z</time></trkpt><trkpt lat="43.2137742" lon="12.2616576"><ele>532.0</ele><time>2026-03-29T07:36:42.375Z</time></trkpt><trkpt lat="43.2138005" lon="12.2615509"><ele>532.0</ele><time>2026-03-29T07:36:43.376Z</time></trkpt><trkpt lat="43.2138266" lon="12.2614648"><ele>532.0</ele><time>2026-03-29T07:36:44.377Z</time></trkpt><trkpt lat="43.2137958" lon="12.2613237"><ele>532.0</ele><time>2026-03-29T07:36:46.376Z</time></trkpt><trkpt lat="43.2136877" lon="12.2612424"><ele>532.0</ele><time>2026-03-29T07:36:48.376Z</time></trkpt><trkpt lat="43.2136317" lon="12.2611791"><ele>531.0</ele><time>2026-03-29T07:36:49.377Z</time></trkpt><trkpt lat="43.2135782" lon="12.2611194"><ele>530.0</ele><time>2026-03-29T07:36:50.376Z</time></trkpt><trkpt lat="43.2135252" lon="12.261066"><ele>529.0</ele><time>2026-03-29T07:36:51.376Z</time></trkpt><trkpt lat="43.2134797" lon="12.2610056"><ele>528.0</ele><time>2026-03-29T07:36:52.376Z</time></trkpt><trkpt lat="43.2133731" lon="12.2609339"><ele>527.0</ele><time>2026-03-29T07:36:54.377Z</time></trkpt><trkpt lat="43.2133169" lon="12.2608601"><ele>526.0</ele><time>2026-03-29T07:36:56.376Z</time></trkpt><trkpt lat="43.2133793" lon="12.2607474"><ele>526.0</ele><time>2026-03-29T07:36:59.376Z</time></trkpt><trkpt lat="43.2134688" lon="12.2606559"><ele>526.0</ele><time>2026-03-29T07:37:01.378Z</time></trkpt><trkpt lat="43.213533" lon="12.2606199"><ele>526.0</ele><time>2026-03-29T07:37:02.376Z</time></trkpt><trkpt lat="43.2135844" lon="12.2605666"><ele>526.0</ele><time>2026-03-29T07:37:03.378Z</time></trkpt><trkpt lat="43.2136736" lon="12.2604856"><ele>526.0</ele><time>2026-03-29T07:37:05.376Z</time></trkpt><trkpt lat="43.2137345" lon="12.260445"><ele>526.0</ele><time>2026-03-29T07:37:06.376Z</time></trkpt><trkpt lat="43.2137932" lon="12.2603958"><ele>523.8333333333334</ele><time>2026-03-29T07:37:07.377Z</time></trkpt><trkpt lat="43.2139041" lon="12.2603259"><ele>521.6666666666667</ele><time>2026-03-29T07:37:09.375Z</time></trkpt><trkpt lat="43.2139471" lon="12.2602546"><ele>519.5</ele><time>2026-03-29T07:37:31.376Z</time></trkpt><trkpt lat="43.2139739" lon="12.2601519"><ele>517.3333333333334</ele><time>2026-03-29T07:37:34.378Z</time></trkpt><trkpt lat="43.2139816" lon="12.2600565"><ele>515.1666666666666</ele><time>2026-03-29T07:37:36.376Z</time></trkpt><trkpt lat="43.2140205" lon="12.2599371"><ele>513.0</ele><time>2026-03-29T07:37:38.376Z</time></trkpt><trkpt lat="43.2140596" lon="12.259839"><ele>514.5</ele><time>2026-03-29T07:37:40.377Z</time></trkpt><trkpt lat="43.2141301" lon="12.2597486"><ele>516.0</ele><time>2026-03-29T07:37:43.377Z</time></trkpt><trkpt lat="43.2142026" lon="12.2597071"><ele>517.5</ele><time>2026-03-29T07:37:45.377Z</time></trkpt><trkpt lat="43.2142644" lon="12.2596747"><ele>519.0</ele><time>2026-03-29T07:37:47.376Z</time></trkpt><trkpt lat="43.2143383" lon="12.2595986"><ele>520.5</ele><time>2026-03-29T07:37:50.375Z</time></trkpt><trkpt lat="43.2143906" lon="12.2595324"><ele>522.0</ele><time>2026-03-29T07:37:52.376Z</time></trkpt><trkpt lat="43.2144583" lon="12.2594951"><ele>522.0</ele><time>2026-03-29T07:37:55.376Z</time></trkpt><trkpt lat="43.2145252" lon="12.2594909"><ele>522.0</ele><time>2026-03-29T07:37:58.377Z</time></trkpt><trkpt lat="43.2146022" lon="12.2594794"><ele>522.0</ele><time>2026-03-29T07:38:01.376Z</time></trkpt><trkpt lat="43.2146784" lon="12.259425"><ele>522.0</ele><time>2026-03-29T07:38:03.376Z</time></trkpt><trkpt lat="43.2147127" lon="12.2593443"><ele>522.0</ele><time>2026-03-29T07:38:05.377Z</time></trkpt><trkpt lat="43.2147359" lon="12.2592577"><ele>522.0</ele><time>2026-03-29T07:38:07.377Z</time></trkpt><trkpt lat="43.2147979" lon="12.2592394"><ele>522.0</ele><time>2026-03-29T07:38:09.377Z</time></trkpt><trkpt lat="43.2148555" lon="12.259308"><ele>520.8333333333334</ele><time>2026-03-29T07:38:11.377Z</time></trkpt><trkpt lat="43.2149337" lon="12.2594475"><ele>519.6666666666666</ele><time>2026-03-29T07:38:13.377Z</time></trkpt><trkpt lat="43.2149803" lon="12.2595353"><ele>518.5</ele><time>2026-03-29T07:38:14.376Z</time></trkpt><trkpt lat="43.2150294" lon="12.2596272"><ele>517.3333333333333</ele><time>2026-03-29T07:38:15.377Z</time></trkpt><trkpt lat="43.2150648" lon="12.2597223"><ele>516.1666666666666</ele><time>2026-03-29T07:38:16.376Z</time></trkpt><trkpt lat="43.2150847" lon="12.2598191"><ele>515.0</ele><time>2026-03-29T07:38:17.375Z</time></trkpt><trkpt lat="43.2151037" lon="12.2599098"><ele>513.0</ele><time>2026-03-29T07:38:18.376Z</time></trkpt><trkpt lat="43.2151456" lon="12.2599986"><ele>511.0</ele><time>2026-03-29T07:38:19.375Z</time></trkpt><trkpt lat="43.2151969" lon="12.2600715"><ele>509.0</ele><time>2026-03-29T07:38:20.376Z</time></trkpt><trkpt lat="43.215247" lon="12.2601323"><ele>507.0</ele><time>2026-03-29T07:38:21.375Z</time></trkpt><trkpt lat="43.2153073" lon="12.2602173"><ele>505.0</ele><time>2026-03-29T07:38:22.377Z</time></trkpt><trkpt lat="43.2153509" lon="12.2602997"><ele>503.0</ele><time>2026-03-29T07:38:23.378Z</time></trkpt><trkpt lat="43.2153988" lon="12.2603564"><ele>501.0</ele><time>2026-03-29T07:38:24.377Z</time></trkpt><trkpt lat="43.2154977" lon="12.2604136"><ele>501.0</ele><time>2026-03-29T07:38:26.376Z</time></trkpt><trkpt lat="43.2155975" lon="12.2604164"><ele>501.0</ele><time>2026-03-29T07:38:28.377Z</time></trkpt><trkpt lat="43.2156569" lon="12.2603664"><ele>501.0</ele><time>2026-03-29T07:38:29.378Z</time></trkpt><trkpt lat="43.2157514" lon="12.2603155"><ele>501.0</ele><time>2026-03-29T07:38:31.377Z</time></trkpt><trkpt lat="43.2158251" lon="12.2603779"><ele>501.0</ele><time>2026-03-29T07:38:34.377Z</time></trkpt><trkpt lat="43.21591" lon="12.2604327"><ele>502.0</ele><time>2026-03-29T07:38:36.376Z</time></trkpt><trkpt lat="43.2159734" lon="12.2604803"><ele>503.0</ele><time>2026-03-29T07:38:38.377Z</time></trkpt><trkpt lat="43.2160461" lon="12.2605294"><ele>504.0</ele><time>2026-03-29T07:38:40.377Z</time></trkpt><trkpt lat="43.2160833" lon="12.2606102"><ele>505.0</ele><time>2026-03-29T07:38:42.376Z</time></trkpt><trkpt lat="43.2160752" lon="12.2607097"><ele>506.0</ele><time>2026-03-29T07:38:44.377Z</time></trkpt><trkpt lat="43.2160052" lon="12.2607685"><ele>507.0</ele><time>2026-03-29T07:38:46.378Z</time></trkpt><trkpt lat="43.2160835" lon="12.260803"><ele>504.1666666666667</ele><time>2026-03-29T07:38:51.376Z</time></trkpt><trkpt lat="43.2161504" lon="12.2607601"><ele>501.33333333333337</ele><time>2026-03-29T07:38:55.377Z</time></trkpt><trkpt lat="43.2162358" lon="12.2607071"><ele>498.5</ele><time>2026-03-29T07:38:59.376Z</time></trkpt><trkpt lat="43.21632" lon="12.2607168"><ele>495.6666666666667</ele><time>2026-03-29T07:39:02.378Z</time></trkpt><trkpt lat="43.2163475" lon="12.2608235"><ele>492.83333333333337</ele><time>2026-03-29T07:39:05.375Z</time></trkpt><trkpt lat="43.2163295" lon="12.2609407"><ele>490.0</ele><time>2026-03-29T07:39:08.377Z</time></trkpt><trkpt lat="43.2163042" lon="12.2610463"><ele>490.0</ele><time>2026-03-29T07:39:11.376Z</time></trkpt><trkpt lat="43.2163514" lon="12.2611443"><ele>490.0</ele><time>2026-03-29T07:39:15.376Z</time></trkpt><trkpt lat="43.2164377" lon="12.2611015"><ele>490.0</ele><time>2026-03-29T07:39:18.376Z</time></trkpt><trkpt lat="43.2165086" lon="12.2610547"><ele>490.0</ele><time>2026-03-29T07:39:20.377Z</time></trkpt><trkpt lat="43.2165833" lon="12.2609961"><ele>490.0</ele><time>2026-03-29T07:39:21.378Z</time></trkpt><trkpt lat="43.2166835" lon="12.2609388"><ele>491.1666666666667</ele><time>2026-03-29T07:39:23.377Z</time></trkpt><trkpt lat="43.2167662" lon="12.2608918"><ele>492.33333333333337</ele><time>2026-03-29T07:39:25.377Z</time></trkpt><trkpt lat="43.2168556" lon="12.2608083"><ele>493.5</ele><time>2026-03-29T07:39:27.377Z</time></trkpt><trkpt lat="43.2169265" lon="12.2607068"><ele>494.66666666666663</ele><time>2026-03-29T07:39:29.376Z</time></trkpt><trkpt lat="43.2169632" lon="12.2606354"><ele>495.8333333333333</ele><time>2026-03-29T07:39:30.378Z</time></trkpt><trkpt lat="43.217019" lon="12.2605631"><ele>497.0</ele><time>2026-03-29T07:39:32.376Z</time></trkpt><trkpt lat="43.217118" lon="12.260562"><ele>496.99999999999994</ele><time>2026-03-29T07:39:34.376Z</time></trkpt><trkpt lat="43.21721" lon="12.2606092"><ele>497.0</ele><time>2026-03-29T07:39:36.376Z</time></trkpt><trkpt lat="43.2172878" lon="12.2606366"><ele>497.0</ele><time>2026-03-29T07:39:38.377Z</time></trkpt><trkpt lat="43.2173537" lon="12.2606575"><ele>497.0</ele><time>2026-03-29T07:39:40.376Z</time></trkpt><trkpt lat="43.2174277" lon="12.2606733"><ele>496.99999999999994</ele><time>2026-03-29T07:39:41.376Z</time></trkpt><trkpt lat="43.2175473" lon="12.2606823"><ele>497.0</ele><time>2026-03-29T07:39:43.377Z</time></trkpt><trkpt lat="43.2176332" lon="12.2607289"><ele>499.6</ele><time>2026-03-29T07:39:45.378Z</time></trkpt><trkpt lat="43.217678" lon="12.2608438"><ele>502.20000000000005</ele><time>2026-03-29T07:39:47.378Z</time></trkpt><trkpt lat="43.2177186" lon="12.2609854"><ele>504.8</ele><time>2026-03-29T07:39:49.376Z</time></trkpt><trkpt lat="43.2177073" lon="12.2611103"><ele>507.4</ele><time>2026-03-29T07:39:50.377Z</time></trkpt><trkpt lat="43.2177147" lon="12.2612255"><ele>510.0</ele><time>2026-03-29T07:39:52.377Z</time></trkpt><trkpt lat="43.2177196" lon="12.2613479"><ele>508.6</ele><time>2026-03-29T07:39:54.377Z</time></trkpt><trkpt lat="43.2176706" lon="12.261496"><ele>507.2</ele><time>2026-03-29T07:39:56.377Z</time></trkpt><trkpt lat="43.2176282" lon="12.2616231"><ele>505.79999999999995</ele><time>2026-03-29T07:39:58.378Z</time></trkpt><trkpt lat="43.2176258" lon="12.2617701"><ele>504.4</ele><time>2026-03-29T07:40:00.376Z</time></trkpt><trkpt lat="43.2176643" lon="12.2618804"><ele>503.0</ele><time>2026-03-29T07:40:02.377Z</time></trkpt><trkpt lat="43.2177708" lon="12.2619753"><ele>503.0</ele><time>2026-03-29T07:40:04.376Z</time></trkpt><trkpt lat="43.2178574" lon="12.2620794"><ele>502.99999999999994</ele><time>2026-03-29T07:40:06.377Z</time></trkpt><trkpt lat="43.2179318" lon="12.262153"><ele>502.99999999999994</ele><time>2026-03-29T07:40:08.377Z</time></trkpt><trkpt lat="43.2180178" lon="12.2621699"><ele>503.0</ele><time>2026-03-29T07:40:10.377Z</time></trkpt><trkpt lat="43.2181221" lon="12.2622209"><ele>503.0</ele><time>2026-03-29T07:40:12.376Z</time></trkpt><trkpt lat="43.2181844" lon="12.2622565"><ele>504.49999999999994</ele><time>2026-03-29T07:40:13.376Z</time></trkpt><trkpt lat="43.2182421" lon="12.2622943"><ele>506.0</ele><time>2026-03-29T07:40:14.375Z</time></trkpt><trkpt lat="43.2183075" lon="12.2623419"><ele>507.5</ele><time>2026-03-29T07:40:15.377Z</time></trkpt><trkpt lat="43.2183684" lon="12.2623806"><ele>509.0</ele><time>2026-03-29T07:40:16.377Z</time></trkpt><trkpt lat="43.2184712" lon="12.2623448"><ele>510.49999999999994</ele><time>2026-03-29T07:40:18.377Z</time></trkpt><trkpt lat="43.2185389" lon="12.2622965"><ele>512.0</ele><time>2026-03-29T07:40:19.378Z</time></trkpt><trkpt lat="43.2185946" lon="12.2622528"><ele>515.6666666666666</ele><time>2026-03-29T07:40:20.378Z</time></trkpt><trkpt lat="43.2186699" lon="12.262194"><ele>519.3333333333333</ele><time>2026-03-29T07:40:21.377Z</time></trkpt><trkpt lat="43.2187396" lon="12.2621468"><ele>523.0</ele><time>2026-03-29T07:40:22.378Z</time></trkpt><trkpt lat="43.2188726" lon="12.2621443"><ele>526.6666666666666</ele><time>2026-03-29T07:40:24.375Z</time></trkpt><trkpt lat="43.2189454" lon="12.2621279"><ele>530.3333333333334</ele><time>2026-03-29T07:40:25.376Z</time></trkpt><trkpt lat="43.2190168" lon="12.2621189"><ele>534.0</ele><time>2026-03-29T07:40:26.377Z</time></trkpt><trkpt lat="43.2191071" lon="12.2620973"><ele>535.6666666666666</ele><time>2026-03-29T07:40:28.377Z</time></trkpt><trkpt lat="43.2191745" lon="12.2621067"><ele>537.3333333333334</ele><time>2026-03-29T07:40:30.378Z</time></trkpt><trkpt lat="43.2192443" lon="12.2620646"><ele>539.0</ele><time>2026-03-29T07:40:32.376Z</time></trkpt><trkpt lat="43.2193117" lon="12.2620416"><ele>540.6666666666667</ele><time>2026-03-29T07:40:34.377Z</time></trkpt><trkpt lat="43.2193783" lon="12.262009"><ele>542.3333333333334</ele><time>2026-03-29T07:40:35.375Z</time></trkpt><trkpt lat="43.2194614" lon="12.261982"><ele>544.0</ele><time>2026-03-29T07:40:37.376Z</time></trkpt><trkpt lat="43.2195585" lon="12.2619274"><ele>544.0</ele><time>2026-03-29T07:40:39.377Z</time></trkpt><trkpt lat="43.2196211" lon="12.261911"><ele>544.0</ele><time>2026-03-29T07:40:40.378Z</time></trkpt><trkpt lat="43.2197038" lon="12.2619161"><ele>544.0</ele><time>2026-03-29T07:40:41.375Z</time></trkpt><trkpt lat="43.2197859" lon="12.2619222"><ele>544.0</ele><time>2026-03-29T07:40:42.376Z</time></trkpt><trkpt lat="43.2198569" lon="12.2620319"><ele>544.0</ele><time>2026-03-29T07:40:44.377Z</time></trkpt><trkpt lat="43.2199496" lon="12.2621219"><ele>544.0</ele><time>2026-03-29T07:40:46.376Z</time></trkpt><trkpt lat="43.2200777" lon="12.2621989"><ele>543.1666666666667</ele><time>2026-03-29T07:40:48.377Z</time></trkpt><trkpt lat="43.2201428" lon="12.2622503"><ele>542.3333333333334</ele><time>2026-03-29T07:40:49.376Z</time></trkpt><trkpt lat="43.2202148" lon="12.2622987"><ele>541.5</ele><time>2026-03-29T07:40:50.376Z</time></trkpt><trkpt lat="43.2202846" lon="12.2623393"><ele>540.6666666666666</ele><time>2026-03-29T07:40:51.376Z</time></trkpt><trkpt lat="43.2203467" lon="12.2623599"><ele>539.8333333333333</ele><time>2026-03-29T07:40:52.376Z</time></trkpt><trkpt lat="43.2204669" lon="12.2623527"><ele>539.0</ele><time>2026-03-29T07:40:54.377Z</time></trkpt><trkpt lat="43.2205406" lon="12.2623465"><ele>537.5714285714286</ele><time>2026-03-29T07:40:55.377Z</time></trkpt><trkpt lat="43.2206045" lon="12.2623089"><ele>536.1428571428571</ele><time>2026-03-29T07:40:56.378Z</time></trkpt><trkpt lat="43.2206683" lon="12.2623056"><ele>534.7142857142858</ele><time>2026-03-29T07:40:57.377Z</time></trkpt><trkpt lat="43.2207501" lon="12.2623122"><ele>533.2857142857142</ele><time>2026-03-29T07:40:58.378Z</time></trkpt><trkpt lat="43.2208159" lon="12.2623128"><ele>531.8571428571429</ele><time>2026-03-29T07:40:59.377Z</time></trkpt><trkpt lat="43.2208845" lon="12.2623321"><ele>530.4285714285714</ele><time>2026-03-29T07:41:00.377Z</time></trkpt><trkpt lat="43.2209728" lon="12.2623631"><ele>529.0</ele><time>2026-03-29T07:41:01.378Z</time></trkpt><trkpt lat="43.2210556" lon="12.2623884"><ele>529.0</ele><time>2026-03-29T07:41:02.377Z</time></trkpt><trkpt lat="43.2211111" lon="12.2624362"><ele>529.0</ele><time>2026-03-29T07:41:03.376Z</time></trkpt><trkpt lat="43.2212044" lon="12.2624695"><ele>529.0</ele><time>2026-03-29T07:41:04.376Z</time></trkpt><trkpt lat="43.2212909" lon="12.2625012"><ele>529.0</ele><time>2026-03-29T07:41:05.377Z</time></trkpt><trkpt lat="43.2213681" lon="12.2625428"><ele>529.0</ele><time>2026-03-29T07:41:06.376Z</time></trkpt><trkpt lat="43.2214431" lon="12.2625894"><ele>529.0</ele><time>2026-03-29T07:41:07.377Z</time></trkpt><trkpt lat="43.221513" lon="12.2626554"><ele>529.8333333333334</ele><time>2026-03-29T07:41:08.377Z</time></trkpt><trkpt lat="43.2215578" lon="12.2627424"><ele>530.6666666666667</ele><time>2026-03-29T07:41:09.377Z</time></trkpt><trkpt lat="43.2216251" lon="12.2626492"><ele>531.5</ele><time>2026-03-29T07:41:27.377Z</time></trkpt><trkpt lat="43.2216637" lon="12.2625184"><ele>532.3333333333334</ele><time>2026-03-29T07:41:29.377Z</time></trkpt><trkpt lat="43.2216845" lon="12.2624173"><ele>533.1666666666666</ele><time>2026-03-29T07:41:31.376Z</time></trkpt><trkpt lat="43.2216497" lon="12.2623048"><ele>534.0</ele><time>2026-03-29T07:41:33.378Z</time></trkpt><trkpt lat="43.2215949" lon="12.2621894"><ele>537.6</ele><time>2026-03-29T07:41:35.377Z</time></trkpt><trkpt lat="43.2215112" lon="12.262074"><ele>541.2</ele><time>2026-03-29T07:41:37.375Z</time></trkpt><trkpt lat="43.2214664" lon="12.2619876"><ele>544.8000000000001</ele><time>2026-03-29T07:41:39.376Z</time></trkpt><trkpt lat="43.2214984" lon="12.2618541"><ele>548.4</ele><time>2026-03-29T07:41:42.375Z</time></trkpt><trkpt lat="43.22155" lon="12.2617625"><ele>552.0</ele><time>2026-03-29T07:41:44.378Z</time></trkpt><trkpt lat="43.2215569" lon="12.2616701"><ele>552.0</ele><time>2026-03-29T07:41:46.376Z</time></trkpt><trkpt lat="43.2215064" lon="12.2615919"><ele>552.0</ele><time>2026-03-29T07:41:49.377Z</time></trkpt><trkpt lat="43.2214491" lon="12.2615501"><ele>552.0</ele><time>2026-03-29T07:42:26.377Z</time></trkpt><trkpt lat="43.221408" lon="12.2614612"><ele>552.0</ele><time>2026-03-29T07:42:46.376Z</time></trkpt><trkpt lat="43.2213744" lon="12.2613726"><ele>552.0</ele><time>2026-03-29T07:42:49.376Z</time></trkpt><trkpt lat="43.2213541" lon="12.26129"><ele>552.0</ele><time>2026-03-29T07:42:53.377Z</time></trkpt><trkpt lat="43.2213102" lon="12.2612171"><ele>552.0</ele><time>2026-03-29T07:42:56.376Z</time></trkpt><trkpt lat="43.221252" lon="12.2611617"><ele>556.8333333333334</ele><time>2026-03-29T07:43:00.377Z</time></trkpt><trkpt lat="43.2212107" lon="12.2610738"><ele>561.6666666666666</ele><time>2026-03-29T07:43:04.361Z</time></trkpt><trkpt lat="43.2212485" lon="12.2609838"><ele>566.5</ele><time>2026-03-29T07:43:06.32Z</time></trkpt><trkpt lat="43.2212859" lon="12.2608952"><ele>571.3333333333333</ele><time>2026-03-29T07:43:08.185Z</time></trkpt><trkpt lat="43.2212826" lon="12.2607564"><ele>576.1666666666666</ele><time>2026-03-29T07:43:10.378Z</time></trkpt><trkpt lat="43.2212791" lon="12.2606372"><ele>581.0</ele><time>2026-03-29T07:43:12.332Z</time></trkpt><trkpt lat="43.2211921" lon="12.2605393"><ele>583.0</ele><time>2026-03-29T07:43:14.376Z</time></trkpt><trkpt lat="43.2211116" lon="12.2604683"><ele>585.0</ele><time>2026-03-29T07:43:16.376Z</time></trkpt><trkpt lat="43.2210578" lon="12.2603968"><ele>587.0</ele><time>2026-03-29T07:43:17.376Z</time></trkpt><trkpt lat="43.2210014" lon="12.2603364"><ele>589.0</ele><time>2026-03-29T07:43:18.377Z</time></trkpt><trkpt lat="43.2209477" lon="12.2602721"><ele>591.0</ele><time>2026-03-29T07:43:19.379Z</time></trkpt><trkpt lat="43.2208974" lon="12.2601966"><ele>593.0</ele><time>2026-03-29T07:43:20.378Z</time></trkpt><trkpt lat="43.22084" lon="12.2601342"><ele>593.0</ele><time>2026-03-29T07:43:21.379Z</time></trkpt><trkpt lat="43.2207713" lon="12.2600723"><ele>593.0</ele><time>2026-03-29T07:43:22.377Z</time></trkpt><trkpt lat="43.2207121" lon="12.2600172"><ele>593.0</ele><time>2026-03-29T07:43:23.378Z</time></trkpt><trkpt lat="43.2206473" lon="12.2599489"><ele>593.0</ele><time>2026-03-29T07:43:24.377Z</time></trkpt><trkpt lat="43.2205757" lon="12.259887"><ele>593.0</ele><time>2026-03-29T07:43:25.378Z</time></trkpt><trkpt lat="43.220471" lon="12.2598452"><ele>593.0</ele><time>2026-03-29T07:43:27.376Z</time></trkpt><trkpt lat="43.2204113" lon="12.2598079"><ele>593.0</ele><time>2026-03-29T07:43:28.377Z</time></trkpt><trkpt lat="43.2203502" lon="12.259776"><ele>593.0</ele><time>2026-03-29T07:43:29.378Z</time></trkpt><trkpt lat="43.220282" lon="12.2597379"><ele>593.0</ele><time>2026-03-29T07:43:30.377Z</time></trkpt><trkpt lat="43.2201636" lon="12.2597091"><ele>593.0</ele><time>2026-03-29T07:43:32.378Z</time></trkpt><trkpt lat="43.2200296" lon="12.2596801"><ele>593.0</ele><time>2026-03-29T07:43:34.377Z</time></trkpt><trkpt lat="43.2199414" lon="12.2596236"><ele>593.0</ele><time>2026-03-29T07:43:36.378Z</time></trkpt><trkpt lat="43.2199162" lon="12.2595077"><ele>593.0</ele><time>2026-03-29T07:43:38.377Z</time></trkpt><trkpt lat="43.2199243" lon="12.2594174"><ele>593.0</ele><time>2026-03-29T07:43:39.377Z</time></trkpt><trkpt lat="43.2199269" lon="12.2593105"><ele>593.0</ele><time>2026-03-29T07:43:40.378Z</time></trkpt><trkpt lat="43.2199282" lon="12.259202"><ele>593.0</ele><time>2026-03-29T07:43:41.377Z</time></trkpt><trkpt lat="43.2199168" lon="12.2590639"><ele>593.0</ele><time>2026-03-29T07:43:43.377Z</time></trkpt><trkpt lat="43.2198597" lon="12.2589779"><ele>595.1666666666666</ele><time>2026-03-29T07:43:45.378Z</time></trkpt><trkpt lat="43.2197978" lon="12.2589509"><ele>597.3333333333333</ele><time>2026-03-29T07:43:47.377Z</time></trkpt><trkpt lat="43.2197716" lon="12.2588243"><ele>599.5</ele><time>2026-03-29T07:43:50.377Z</time></trkpt><trkpt lat="43.2197899" lon="12.2587355"><ele>601.6666666666666</ele><time>2026-03-29T07:43:51.377Z</time></trkpt><trkpt lat="43.2198396" lon="12.2586439"><ele>603.8333333333334</ele><time>2026-03-29T07:43:53.377Z</time></trkpt><trkpt lat="43.2199105" lon="12.2585991"><ele>606.0</ele><time>2026-03-29T07:43:55.377Z</time></trkpt><trkpt lat="43.2199767" lon="12.2585081"><ele>607.0</ele><time>2026-03-29T07:43:57.378Z</time></trkpt><trkpt lat="43.2200037" lon="12.2583887"><ele>608.0</ele><time>2026-03-29T07:43:59.377Z</time></trkpt><trkpt lat="43.2200395" lon="12.2582764"><ele>609.0</ele><time>2026-03-29T07:44:02.377Z</time></trkpt><trkpt lat="43.2200596" lon="12.2581935"><ele>610.0</ele><time>2026-03-29T07:44:05.377Z</time></trkpt><trkpt lat="43.220013" lon="12.2581108"><ele>611.0</ele><time>2026-03-29T07:44:13.377Z</time></trkpt><trkpt lat="43.2199486" lon="12.2581134"><ele>612.0</ele><time>2026-03-29T07:44:14.377Z</time></trkpt><trkpt lat="43.2198706" lon="12.258097"><ele>616.4</ele><time>2026-03-29T07:44:16.377Z</time></trkpt><trkpt lat="43.2198985" lon="12.2580014"><ele>620.8000000000001</ele><time>2026-03-29T07:44:18.377Z</time></trkpt><trkpt lat="43.2199348" lon="12.2579187"><ele>625.2</ele><time>2026-03-29T07:44:20.377Z</time></trkpt><trkpt lat="43.2199728" lon="12.2578237"><ele>629.6</ele><time>2026-03-29T07:44:22.377Z</time></trkpt><trkpt lat="43.2200179" lon="12.2576978"><ele>634.0</ele><time>2026-03-29T07:44:24.378Z</time></trkpt><trkpt lat="43.2200744" lon="12.2575291"><ele>634.0</ele><time>2026-03-29T07:44:26.379Z</time></trkpt><trkpt lat="43.2200899" lon="12.257441"><ele>634.0</ele><time>2026-03-29T07:44:27.377Z</time></trkpt><trkpt lat="43.2201302" lon="12.2572848"><ele>634.0</ele><time>2026-03-29T07:44:29.378Z</time></trkpt><trkpt lat="43.2201625" lon="12.2571921"><ele>634.0</ele><time>2026-03-29T07:44:30.378Z</time></trkpt><trkpt lat="43.2202149" lon="12.2570771"><ele>634.0</ele><time>2026-03-29T07:44:32.376Z</time></trkpt><trkpt lat="43.220251" lon="12.2570053"><ele>634.0</ele><time>2026-03-29T07:44:33.377Z</time></trkpt><trkpt lat="43.2203079" lon="12.2568825"><ele>636.6666666666667</ele><time>2026-03-29T07:44:35.378Z</time></trkpt><trkpt lat="43.2203212" lon="12.2567844"><ele>639.3333333333334</ele><time>2026-03-29T07:44:37.377Z</time></trkpt><trkpt lat="43.2203236" lon="12.2566827"><ele>642.0</ele><time>2026-03-29T07:44:39.378Z</time></trkpt><trkpt lat="43.2203056" lon="12.2565821"><ele>644.6666666666666</ele><time>2026-03-29T07:44:41.378Z</time></trkpt><trkpt lat="43.2202124" lon="12.2565474"><ele>647.3333333333333</ele><time>2026-03-29T07:44:44.377Z</time></trkpt><trkpt lat="43.2201193" lon="12.2565789"><ele>650.0</ele><time>2026-03-29T07:44:45.378Z</time></trkpt><trkpt lat="43.2200561" lon="12.256609"><ele>650.0</ele><time>2026-03-29T07:44:46.377Z</time></trkpt><trkpt lat="43.219984" lon="12.2566238"><ele>650.0</ele><time>2026-03-29T07:44:47.379Z</time></trkpt><trkpt lat="43.2198862" lon="12.2566355"><ele>650.0</ele><time>2026-03-29T07:44:48.378Z</time></trkpt><trkpt lat="43.2198028" lon="12.256651"><ele>650.0</ele><time>2026-03-29T07:44:49.377Z</time></trkpt><trkpt lat="43.2196934" lon="12.2566464"><ele>650.0</ele><time>2026-03-29T07:44:51.378Z</time></trkpt><trkpt lat="43.2195959" lon="12.2565695"><ele>648.8</ele><time>2026-03-29T07:44:53.377Z</time></trkpt><trkpt lat="43.2195471" lon="12.2565031"><ele>647.6</ele><time>2026-03-29T07:44:54.378Z</time></trkpt><trkpt lat="43.2194784" lon="12.2563753"><ele>646.4000000000001</ele><time>2026-03-29T07:44:56.377Z</time></trkpt><trkpt lat="43.2194848" lon="12.2562322"><ele>645.2</ele><time>2026-03-29T07:44:59.376Z</time></trkpt><trkpt lat="43.2195657" lon="12.2561523"><ele>644.0</ele><time>2026-03-29T07:45:02.377Z</time></trkpt><trkpt lat="43.219629" lon="12.2561402"><ele>644.0</ele><time>2026-03-29T07:45:03.377Z</time></trkpt><trkpt lat="43.2197155" lon="12.2561387"><ele>644.0</ele><time>2026-03-29T07:45:05.378Z</time></trkpt><trkpt lat="43.2198203" lon="12.2561703"><ele>644.0</ele><time>2026-03-29T07:45:07.376Z</time></trkpt><trkpt lat="43.2198969" lon="12.2561671"><ele>644.0</ele><time>2026-03-29T07:45:08.378Z</time></trkpt><trkpt lat="43.2199857" lon="12.256154"><ele>644.0</ele><time>2026-03-29T07:45:09.378Z</time></trkpt><trkpt lat="43.2200786" lon="12.2561306"><ele>647.0</ele><time>2026-03-29T07:45:10.378Z</time></trkpt><trkpt lat="43.2201552" lon="12.256107"><ele>650.0</ele><time>2026-03-29T07:45:11.378Z</time></trkpt><trkpt lat="43.2202165" lon="12.2560796"><ele>653.0</ele><time>2026-03-29T07:45:12.378Z</time></trkpt><trkpt lat="43.2202788" lon="12.2560426"><ele>656.0</ele><time>2026-03-29T07:45:13.378Z</time></trkpt><trkpt lat="43.2203344" lon="12.2560019"><ele>659.0</ele><time>2026-03-29T07:45:14.378Z</time></trkpt><trkpt lat="43.2204022" lon="12.2559603"><ele>662.0</ele><time>2026-03-29T07:45:15.378Z</time></trkpt><trkpt lat="43.2204683" lon="12.2558687"><ele>665.0</ele><time>2026-03-29T07:45:17.378Z</time></trkpt><trkpt lat="43.2205511" lon="12.2557941"><ele>665.0</ele><time>2026-03-29T07:45:19.377Z</time></trkpt><trkpt lat="43.2206113" lon="12.2556941"><ele>665.0</ele><time>2026-03-29T07:45:21.376Z</time></trkpt><trkpt lat="43.2206697" lon="12.255653"><ele>665.0</ele><time>2026-03-29T07:45:22.376Z</time></trkpt><trkpt lat="43.2207796" lon="12.2555318"><ele>665.0</ele><time>2026-03-29T07:45:24.378Z</time></trkpt><trkpt lat="43.2208239" lon="12.2554633"><ele>665.0</ele><time>2026-03-29T07:45:25.377Z</time></trkpt><trkpt lat="43.2208774" lon="12.2554051"><ele>665.0</ele><time>2026-03-29T07:45:26.378Z</time></trkpt><trkpt lat="43.2209263" lon="12.2553505"><ele>663.75</ele><time>2026-03-29T07:45:27.377Z</time></trkpt><trkpt lat="43.2209984" lon="12.2552231"><ele>662.5</ele><time>2026-03-29T07:45:29.378Z</time></trkpt><trkpt lat="43.2210464" lon="12.2550575"><ele>661.25</ele><time>2026-03-29T07:45:31.377Z</time></trkpt><trkpt lat="43.221071" lon="12.2549203"><ele>660.0</ele><time>2026-03-29T07:45:33.377Z</time></trkpt><trkpt lat="43.2211313" lon="12.2547949"><ele>660.0</ele><time>2026-03-29T07:45:35.377Z</time></trkpt><trkpt lat="43.2211968" lon="12.2546619"><ele>660.0</ele><time>2026-03-29T07:45:37.377Z</time></trkpt><trkpt lat="43.2212571" lon="12.2546103"><ele>660.0</ele><time>2026-03-29T07:45:38.379Z</time></trkpt><trkpt lat="43.2212925" lon="12.2545238"><ele>660.0</ele><time>2026-03-29T07:45:39.377Z</time></trkpt><trkpt lat="43.221367" lon="12.2544295"><ele>660.0</ele><time>2026-03-29T07:45:41.379Z</time></trkpt><trkpt lat="43.2214331" lon="12.254439"><ele>660.0</ele><time>2026-03-29T07:45:42.378Z</time></trkpt><trkpt lat="43.2215132" lon="12.2544575"><ele>660.0</ele><time>2026-03-29T07:45:43.378Z</time></trkpt><trkpt lat="43.2215712" lon="12.2545068"><ele>660.0</ele><time>2026-03-29T07:45:44.378Z</time></trkpt><trkpt lat="43.2216961" lon="12.2545709"><ele>660.0</ele><time>2026-03-29T07:45:46.378Z</time></trkpt><trkpt lat="43.2218187" lon="12.254598"><ele>660.0</ele><time>2026-03-29T07:45:48.377Z</time></trkpt><trkpt lat="43.2218809" lon="12.2546154"><ele>660.0</ele><time>2026-03-29T07:45:49.378Z</time></trkpt><trkpt lat="43.2219337" lon="12.2546822"><ele>660.0000000000001</ele><time>2026-03-29T07:45:50.377Z</time></trkpt><trkpt lat="43.2219761" lon="12.2547826"><ele>660.0</ele><time>2026-03-29T07:45:51.377Z</time></trkpt><trkpt lat="43.2220239" lon="12.2548569"><ele>660.0</ele><time>2026-03-29T07:45:52.377Z</time></trkpt><trkpt lat="43.2220806" lon="12.25491"><ele>660.0</ele><time>2026-03-29T07:45:53.377Z</time></trkpt><trkpt lat="43.2221527" lon="12.2549371"><ele>660.0</ele><time>2026-03-29T07:45:54.377Z</time></trkpt><trkpt lat="43.222217" lon="12.2549423"><ele>660.0000000000001</ele><time>2026-03-29T07:45:55.379Z</time></trkpt><trkpt lat="43.2222899" lon="12.2549187"><ele>660.0</ele><time>2026-03-29T07:45:56.379Z</time></trkpt><trkpt lat="43.222362" lon="12.2548949"><ele>654.2</ele><time>2026-03-29T07:45:57.378Z</time></trkpt><trkpt lat="43.2224426" lon="12.2548512"><ele>648.4</ele><time>2026-03-29T07:45:58.378Z</time></trkpt><trkpt lat="43.2225573" lon="12.254805"><ele>642.6</ele><time>2026-03-29T07:46:00.379Z</time></trkpt><trkpt lat="43.2226446" lon="12.2548489"><ele>636.8</ele><time>2026-03-29T07:46:02.378Z</time></trkpt><trkpt lat="43.2227174" lon="12.2549354"><ele>631.0</ele><time>2026-03-29T07:46:04.377Z</time></trkpt><trkpt lat="43.222779" lon="12.2550056"><ele>631.0</ele><time>2026-03-29T07:46:05.378Z</time></trkpt><trkpt lat="43.2228775" lon="12.2551108"><ele>631.0</ele><time>2026-03-29T07:46:07.379Z</time></trkpt><trkpt lat="43.2229264" lon="12.2551735"><ele>631.0</ele><time>2026-03-29T07:46:08.377Z</time></trkpt><trkpt lat="43.2229725" lon="12.2552357"><ele>631.0</ele><time>2026-03-29T07:46:09.378Z</time></trkpt><trkpt lat="43.2230475" lon="12.2552961"><ele>631.0</ele><time>2026-03-29T07:46:11.379Z</time></trkpt><trkpt lat="43.223112" lon="12.2552666"><ele>631.0</ele><time>2026-03-29T07:46:15.377Z</time></trkpt><trkpt lat="43.2231789" lon="12.2552298"><ele>633.0</ele><time>2026-03-29T07:46:17.377Z</time></trkpt><trkpt lat="43.223259" lon="12.2552039"><ele>635.0</ele><time>2026-03-29T07:46:19.378Z</time></trkpt><trkpt lat="43.2233082" lon="12.2551262"><ele>637.0</ele><time>2026-03-29T07:46:21.377Z</time></trkpt><trkpt lat="43.2233369" lon="12.2550209"><ele>639.0</ele><time>2026-03-29T07:46:23.379Z</time></trkpt><trkpt lat="43.2233825" lon="12.2549229"><ele>641.0</ele><time>2026-03-29T07:46:25.377Z</time></trkpt><trkpt lat="43.2234912" lon="12.2548407"><ele>643.0</ele><time>2026-03-29T07:46:27.377Z</time></trkpt><trkpt lat="43.2235705" lon="12.2547941"><ele>648.4</ele><time>2026-03-29T07:46:28.377Z</time></trkpt><trkpt lat="43.2236683" lon="12.2546938"><ele>653.8</ele><time>2026-03-29T07:46:30.378Z</time></trkpt><trkpt lat="43.2237087" lon="12.2545971"><ele>659.2</ele><time>2026-03-29T07:46:31.378Z</time></trkpt><trkpt lat="43.2237748" lon="12.2545084"><ele>664.6</ele><time>2026-03-29T07:46:32.378Z</time></trkpt><trkpt lat="43.2238723" lon="12.254457"><ele>670.0</ele><time>2026-03-29T07:46:33.379Z</time></trkpt><trkpt lat="43.2239575" lon="12.2543744"><ele>669.2</ele><time>2026-03-29T07:46:34.377Z</time></trkpt><trkpt lat="43.2240499" lon="12.2542833"><ele>668.4</ele><time>2026-03-29T07:46:35.377Z</time></trkpt><trkpt lat="43.2241347" lon="12.2542062"><ele>667.5999999999999</ele><time>2026-03-29T07:46:36.378Z</time></trkpt><trkpt lat="43.224208" lon="12.2541209"><ele>666.8</ele><time>2026-03-29T07:46:37.377Z</time></trkpt><trkpt lat="43.2242896" lon="12.2540394"><ele>666.0</ele><time>2026-03-29T07:46:38.377Z</time></trkpt><trkpt lat="43.2243702" lon="12.2539704"><ele>671.0</ele><time>2026-03-29T07:46:39.378Z</time></trkpt><trkpt lat="43.2244531" lon="12.253931"><ele>676.0</ele><time>2026-03-29T07:46:40.378Z</time></trkpt><trkpt lat="43.2245348" lon="12.2539089"><ele>681.0</ele><time>2026-03-29T07:46:41.377Z</time></trkpt><trkpt lat="43.2246302" lon="12.2538993"><ele>686.0</ele><time>2026-03-29T07:46:42.377Z</time></trkpt><trkpt lat="43.224742" lon="12.2539005"><ele>691.0</ele><time>2026-03-29T07:46:43.378Z</time></trkpt><trkpt lat="43.2248423" lon="12.253912"><ele>692.1999999999999</ele><time>2026-03-29T07:46:44.378Z</time></trkpt><trkpt lat="43.2249512" lon="12.2539513"><ele>693.4</ele><time>2026-03-29T07:46:45.377Z</time></trkpt><trkpt lat="43.2250562" lon="12.2540006"><ele>694.6</ele><time>2026-03-29T07:46:46.379Z</time></trkpt><trkpt lat="43.2251295" lon="12.2540556"><ele>695.8</ele><time>2026-03-29T07:46:47.378Z</time></trkpt><trkpt lat="43.2252104" lon="12.2540862"><ele>697.0</ele><time>2026-03-29T07:46:48.379Z</time></trkpt><trkpt lat="43.2253029" lon="12.2541071"><ele>693.5</ele><time>2026-03-29T07:46:49.379Z</time></trkpt><trkpt lat="43.2253855" lon="12.2541273"><ele>690.0</ele><time>2026-03-29T07:46:50.378Z</time></trkpt><trkpt lat="43.2254715" lon="12.2541351"><ele>686.5</ele><time>2026-03-29T07:46:51.377Z</time></trkpt><trkpt lat="43.2255712" lon="12.2541632"><ele>683.0</ele><time>2026-03-29T07:46:52.378Z</time></trkpt><trkpt lat="43.225648" lon="12.2541715"><ele>679.5</ele><time>2026-03-29T07:46:53.378Z</time></trkpt><trkpt lat="43.2257202" lon="12.2541656"><ele>676.0</ele><time>2026-03-29T07:46:54.379Z</time></trkpt><trkpt lat="43.2257927" lon="12.2541194"><ele>676.0</ele><time>2026-03-29T07:46:55.378Z</time></trkpt><trkpt lat="43.2258531" lon="12.2540681"><ele>676.0</ele><time>2026-03-29T07:46:56.377Z</time></trkpt><trkpt lat="43.2259004" lon="12.2539862"><ele>676.0</ele><time>2026-03-29T07:46:57.378Z</time></trkpt><trkpt lat="43.2259494" lon="12.2539075"><ele>676.0</ele><time>2026-03-29T07:46:58.378Z</time></trkpt><trkpt lat="43.2259514" lon="12.2537908"><ele>676.0</ele><time>2026-03-29T07:46:59.376Z</time></trkpt><trkpt lat="43.2259672" lon="12.2536862"><ele>676.0</ele><time>2026-03-29T07:47:00.379Z</time></trkpt><trkpt lat="43.2259829" lon="12.2535836"><ele>679.8</ele><time>2026-03-29T07:47:01.378Z</time></trkpt><trkpt lat="43.2260143" lon="12.2534693"><ele>683.5999999999999</ele><time>2026-03-29T07:47:02.376Z</time></trkpt><trkpt lat="43.2260313" lon="12.2533504"><ele>687.4</ele><time>2026-03-29T07:47:03.379Z</time></trkpt><trkpt lat="43.2260579" lon="12.253215"><ele>691.2</ele><time>2026-03-29T07:47:04.378Z</time></trkpt><trkpt lat="43.2260751" lon="12.2530769"><ele>695.0</ele><time>2026-03-29T07:47:05.377Z</time></trkpt><trkpt lat="43.2260837" lon="12.2529266"><ele>697.8333333333333</ele><time>2026-03-29T07:47:06.377Z</time></trkpt><trkpt lat="43.2261008" lon="12.2527916"><ele>700.6666666666666</ele><time>2026-03-29T07:47:07.378Z</time></trkpt><trkpt lat="43.226121" lon="12.2526874"><ele>703.5</ele><time>2026-03-29T07:47:08.378Z</time></trkpt><trkpt lat="43.2261281" lon="12.2525704"><ele>706.3333333333334</ele><time>2026-03-29T07:47:09.379Z</time></trkpt><trkpt lat="43.2261297" lon="12.2524417"><ele>709.1666666666667</ele><time>2026-03-29T07:47:10.377Z</time></trkpt><trkpt lat="43.2261526" lon="12.252336"><ele>712.0</ele><time>2026-03-29T07:47:11.378Z</time></trkpt><trkpt lat="43.2261924" lon="12.2522542"><ele>713.6666666666667</ele><time>2026-03-29T07:47:12.378Z</time></trkpt><trkpt lat="43.2262306" lon="12.2521819"><ele>715.3333333333334</ele><time>2026-03-29T07:47:13.379Z</time></trkpt><trkpt lat="43.2262929" lon="12.2521637"><ele>717.0</ele><time>2026-03-29T07:47:14.377Z</time></trkpt><trkpt lat="43.2263714" lon="12.2521224"><ele>718.6666666666666</ele><time>2026-03-29T07:47:15.378Z</time></trkpt><trkpt lat="43.2264621" lon="12.2520989"><ele>720.3333333333333</ele><time>2026-03-29T07:47:16.378Z</time></trkpt><trkpt lat="43.2265721" lon="12.2520542"><ele>722.0</ele><time>2026-03-29T07:47:17.378Z</time></trkpt><trkpt lat="43.226664" lon="12.2520328"><ele>722.0</ele><time>2026-03-29T07:47:18.378Z</time></trkpt><trkpt lat="43.2267546" lon="12.2520157"><ele>722.0</ele><time>2026-03-29T07:47:19.378Z</time></trkpt><trkpt lat="43.2268472" lon="12.2519676"><ele>722.0</ele><time>2026-03-29T07:47:20.378Z</time></trkpt><trkpt lat="43.2269417" lon="12.2518902"><ele>722.0</ele><time>2026-03-29T07:47:21.378Z</time></trkpt><trkpt lat="43.2270484" lon="12.2518167"><ele>722.0</ele><time>2026-03-29T07:47:22.377Z</time></trkpt><trkpt lat="43.227142" lon="12.2517501"><ele>722.0</ele><time>2026-03-29T07:47:23.378Z</time></trkpt><trkpt lat="43.2272415" lon="12.2516927"><ele>722.0</ele><time>2026-03-29T07:47:24.377Z</time></trkpt><trkpt lat="43.2273369" lon="12.2516537"><ele>722.0</ele><time>2026-03-29T07:47:25.378Z</time></trkpt><trkpt lat="43.2274855" lon="12.2516176"><ele>722.0</ele><time>2026-03-29T07:47:27.378Z</time></trkpt><trkpt lat="43.2275664" lon="12.2516347"><ele>722.0</ele><time>2026-03-29T07:47:28.378Z</time></trkpt><trkpt lat="43.2276601" lon="12.2516411"><ele>722.0</ele><time>2026-03-29T07:47:29.378Z</time></trkpt><trkpt lat="43.2277688" lon="12.2516598"><ele>722.0</ele><time>2026-03-29T07:47:30.377Z</time></trkpt><trkpt lat="43.2278839" lon="12.2516734"><ele>722.0</ele><time>2026-03-29T07:47:31.377Z</time></trkpt><trkpt lat="43.2280137" lon="12.2516818"><ele>722.0</ele><time>2026-03-29T07:47:32.379Z</time></trkpt><trkpt lat="43.2281369" lon="12.2516956"><ele>722.2</ele><time>2026-03-29T07:47:33.378Z</time></trkpt><trkpt lat="43.2282689" lon="12.2517133"><ele>722.4000000000001</ele><time>2026-03-29T07:47:34.376Z</time></trkpt><trkpt lat="43.2283963" lon="12.2517252"><ele>722.5999999999999</ele><time>2026-03-29T07:47:35.377Z</time></trkpt><trkpt lat="43.2284953" lon="12.251747"><ele>722.8</ele><time>2026-03-29T07:47:36.377Z</time></trkpt><trkpt lat="43.2285762" lon="12.2517577"><ele>723.0</ele><time>2026-03-29T07:47:37.377Z</time></trkpt><trkpt lat="43.2286523" lon="12.2517602"><ele>723.0</ele><time>2026-03-29T07:47:38.377Z</time></trkpt><trkpt lat="43.2287566" lon="12.251675"><ele>723.0</ele><time>2026-03-29T07:47:40.378Z</time></trkpt><trkpt lat="43.2288203" lon="12.2516118"><ele>723.0</ele><time>2026-03-29T07:47:41.377Z</time></trkpt><trkpt lat="43.2288778" lon="12.2514704"><ele>723.0</ele><time>2026-03-29T07:47:42.378Z</time></trkpt><trkpt lat="43.2289513" lon="12.2513768"><ele>723.0</ele><time>2026-03-29T07:47:43.378Z</time></trkpt><trkpt lat="43.2290202" lon="12.2512842"><ele>724.8333333333334</ele><time>2026-03-29T07:47:44.378Z</time></trkpt><trkpt lat="43.2290793" lon="12.25119"><ele>726.6666666666666</ele><time>2026-03-29T07:47:45.378Z</time></trkpt><trkpt lat="43.2291533" lon="12.2511097"><ele>728.5</ele><time>2026-03-29T07:47:46.377Z</time></trkpt><trkpt lat="43.2292258" lon="12.2510477"><ele>730.3333333333333</ele><time>2026-03-29T07:47:47.377Z</time></trkpt><trkpt lat="43.2292895" lon="12.2509987"><ele>732.1666666666666</ele><time>2026-03-29T07:47:48.378Z</time></trkpt><trkpt lat="43.2293539" lon="12.250959"><ele>734.0</ele><time>2026-03-29T07:47:49.378Z</time></trkpt><trkpt lat="43.2294605" lon="12.250858"><ele>734.0</ele><time>2026-03-29T07:47:51.377Z</time></trkpt><trkpt lat="43.2294944" lon="12.2507751"><ele>734.0</ele><time>2026-03-29T07:47:52.378Z</time></trkpt><trkpt lat="43.2295418" lon="12.2507118"><ele>734.0</ele><time>2026-03-29T07:47:53.378Z</time></trkpt><trkpt lat="43.2295811" lon="12.2506323"><ele>734.0</ele><time>2026-03-29T07:47:54.377Z</time></trkpt><trkpt lat="43.2296196" lon="12.2505498"><ele>734.0</ele><time>2026-03-29T07:47:55.378Z</time></trkpt><trkpt lat="43.2296758" lon="12.2504974"><ele>734.0</ele><time>2026-03-29T07:47:56.377Z</time></trkpt><trkpt lat="43.229792" lon="12.2504334"><ele>736.6</ele><time>2026-03-29T07:47:58.378Z</time></trkpt><trkpt lat="43.2299224" lon="12.250423"><ele>739.2</ele><time>2026-03-29T07:47:59.377Z</time></trkpt><trkpt lat="43.2299895" lon="12.2504074"><ele>741.8000000000001</ele><time>2026-03-29T07:48:00.378Z</time></trkpt><trkpt lat="43.2300943" lon="12.2504502"><ele>744.4000000000001</ele><time>2026-03-29T07:48:01.377Z</time></trkpt><trkpt lat="43.2301784" lon="12.2504755"><ele>747.0</ele><time>2026-03-29T07:48:02.377Z</time></trkpt><trkpt lat="43.2302627" lon="12.2505008"><ele>747.0</ele><time>2026-03-29T07:48:03.379Z</time></trkpt><trkpt lat="43.2303331" lon="12.2505229"><ele>747.0</ele><time>2026-03-29T07:48:04.378Z</time></trkpt><trkpt lat="43.2304072" lon="12.2505397"><ele>747.0</ele><time>2026-03-29T07:48:05.379Z</time></trkpt><trkpt lat="43.2304737" lon="12.2505389"><ele>747.0</ele><time>2026-03-29T07:48:06.378Z</time></trkpt><trkpt lat="43.2305746" lon="12.250523"><ele>747.0</ele><time>2026-03-29T07:48:07.378Z</time></trkpt><trkpt lat="43.2306444" lon="12.2505111"><ele>747.0</ele><time>2026-03-29T07:48:08.378Z</time></trkpt><trkpt lat="43.2307396" lon="12.2504973"><ele>745.7142857142857</ele><time>2026-03-29T07:48:09.379Z</time></trkpt><trkpt lat="43.2308198" lon="12.2504802"><ele>744.4285714285714</ele><time>2026-03-29T07:48:10.378Z</time></trkpt><trkpt lat="43.2308821" lon="12.2504402"><ele>743.1428571428571</ele><time>2026-03-29T07:48:11.379Z</time></trkpt><trkpt lat="43.2309424" lon="12.2503909"><ele>741.8571428571429</ele><time>2026-03-29T07:48:12.378Z</time></trkpt><trkpt lat="43.2310051" lon="12.2503197"><ele>740.5714285714286</ele><time>2026-03-29T07:48:13.378Z</time></trkpt><trkpt lat="43.2310714" lon="12.2502597"><ele>739.2857142857142</ele><time>2026-03-29T07:48:14.377Z</time></trkpt><trkpt lat="43.2311293" lon="12.2502189"><ele>738.0</ele><time>2026-03-29T07:48:15.379Z</time></trkpt><trkpt lat="43.2312009" lon="12.250173"><ele>738.0</ele><time>2026-03-29T07:48:16.378Z</time></trkpt><trkpt lat="43.2312686" lon="12.2501439"><ele>738.0</ele><time>2026-03-29T07:48:17.378Z</time></trkpt><trkpt lat="43.2313338" lon="12.2501216"><ele>738.0</ele><time>2026-03-29T07:48:18.378Z</time></trkpt><trkpt lat="43.2314078" lon="12.2501052"><ele>738.0</ele><time>2026-03-29T07:48:19.379Z</time></trkpt><trkpt lat="43.2314796" lon="12.250104"><ele>738.0</ele><time>2026-03-29T07:48:20.378Z</time></trkpt><trkpt lat="43.2315582" lon="12.2501019"><ele>738.0</ele><time>2026-03-29T07:48:21.379Z</time></trkpt><trkpt lat="43.2316326" lon="12.2501216"><ele>738.0</ele><time>2026-03-29T07:48:22.377Z</time></trkpt><trkpt lat="43.2317027" lon="12.2501492"><ele>736.1666666666666</ele><time>2026-03-29T07:48:23.377Z</time></trkpt><trkpt lat="43.2317868" lon="12.2501637"><ele>734.3333333333334</ele><time>2026-03-29T07:48:24.378Z</time></trkpt><trkpt lat="43.2318637" lon="12.2501622"><ele>732.5</ele><time>2026-03-29T07:48:25.379Z</time></trkpt><trkpt lat="43.2319313" lon="12.250141"><ele>730.6666666666667</ele><time>2026-03-29T07:48:26.378Z</time></trkpt><trkpt lat="43.2319987" lon="12.2501021"><ele>728.8333333333334</ele><time>2026-03-29T07:48:27.379Z</time></trkpt><trkpt lat="43.2320622" lon="12.2500686"><ele>727.0</ele><time>2026-03-29T07:48:28.378Z</time></trkpt><trkpt lat="43.2321777" lon="12.2499922"><ele>727.0</ele><time>2026-03-29T07:48:30.379Z</time></trkpt><trkpt lat="43.232265" lon="12.2499037"><ele>727.0</ele><time>2026-03-29T07:48:32.377Z</time></trkpt><trkpt lat="43.2323207" lon="12.249859"><ele>727.0</ele><time>2026-03-29T07:48:33.378Z</time></trkpt><trkpt lat="43.2323629" lon="12.2497853"><ele>727.0</ele><time>2026-03-29T07:48:34.379Z</time></trkpt><trkpt lat="43.2324096" lon="12.2496982"><ele>727.0</ele><time>2026-03-29T07:48:35.377Z</time></trkpt><trkpt lat="43.2324628" lon="12.2496135"><ele>727.0</ele><time>2026-03-29T07:48:36.377Z</time></trkpt><trkpt lat="43.2325114" lon="12.2495279"><ele>727.8333333333334</ele><time>2026-03-29T07:48:37.378Z</time></trkpt><trkpt lat="43.2325595" lon="12.2494625"><ele>728.6666666666667</ele><time>2026-03-29T07:48:38.378Z</time></trkpt><trkpt lat="43.2326292" lon="12.2493986"><ele>729.5</ele><time>2026-03-29T07:48:39.378Z</time></trkpt><trkpt lat="43.232693" lon="12.2493614"><ele>730.3333333333334</ele><time>2026-03-29T07:48:40.378Z</time></trkpt><trkpt lat="43.2327613" lon="12.2493171"><ele>731.1666666666666</ele><time>2026-03-29T07:48:41.377Z</time></trkpt><trkpt lat="43.232894" lon="12.2492711"><ele>732.0</ele><time>2026-03-29T07:48:42.378Z</time></trkpt><trkpt lat="43.2330091" lon="12.2492173"><ele>732.0</ele><time>2026-03-29T07:48:43.377Z</time></trkpt><trkpt lat="43.2331119" lon="12.2491758"><ele>732.0</ele><time>2026-03-29T07:48:44.379Z</time></trkpt><trkpt lat="43.2332094" lon="12.249138"><ele>732.0</ele><time>2026-03-29T07:48:45.377Z</time></trkpt><trkpt lat="43.2333097" lon="12.2490948"><ele>732.0</ele><time>2026-03-29T07:48:46.378Z</time></trkpt><trkpt lat="43.2334163" lon="12.2490463"><ele>732.0</ele><time>2026-03-29T07:48:47.379Z</time></trkpt><trkpt lat="43.2335176" lon="12.249007"><ele>729.0</ele><time>2026-03-29T07:48:48.378Z</time></trkpt><trkpt lat="43.2336341" lon="12.2490062"><ele>726.0</ele><time>2026-03-29T07:48:49.379Z</time></trkpt><trkpt lat="43.2337976" lon="12.2490396"><ele>723.0</ele><time>2026-03-29T07:48:50.377Z</time></trkpt><trkpt lat="43.2339339" lon="12.2490655"><ele>720.0</ele><time>2026-03-29T07:48:51.379Z</time></trkpt><trkpt lat="43.2340684" lon="12.2490986"><ele>719.0</ele><time>2026-03-29T07:48:52.378Z</time></trkpt><trkpt lat="43.2341864" lon="12.2491206"><ele>718.0</ele><time>2026-03-29T07:48:53.379Z</time></trkpt><trkpt lat="43.2342994" lon="12.2491656"><ele>717.0</ele><time>2026-03-29T07:48:54.377Z</time></trkpt><trkpt lat="43.2344136" lon="12.2491996"><ele>716.0</ele><time>2026-03-29T07:48:55.378Z</time></trkpt><trkpt lat="43.2345182" lon="12.2492498"><ele>716.0</ele><time>2026-03-29T07:48:56.379Z</time></trkpt><trkpt lat="43.2345957" lon="12.2492875"><ele>716.0</ele><time>2026-03-29T07:48:57.378Z</time></trkpt><trkpt lat="43.2347189" lon="12.2492574"><ele>716.0</ele><time>2026-03-29T07:48:59.377Z</time></trkpt><trkpt lat="43.2347822" lon="12.2492308"><ele>716.0</ele><time>2026-03-29T07:49:00.377Z</time></trkpt><trkpt lat="43.2348368" lon="12.2491619"><ele>716.0</ele><time>2026-03-29T07:49:01.379Z</time></trkpt><trkpt lat="43.2348787" lon="12.2490841"><ele>716.0</ele><time>2026-03-29T07:49:02.379Z</time></trkpt><trkpt lat="43.2349194" lon="12.2489922"><ele>717.5999999999999</ele><time>2026-03-29T07:49:03.378Z</time></trkpt><trkpt lat="43.2349424" lon="12.2488974"><ele>719.2</ele><time>2026-03-29T07:49:04.378Z</time></trkpt><trkpt lat="43.2349715" lon="12.2487566"><ele>720.8</ele><time>2026-03-29T07:49:05.378Z</time></trkpt><trkpt lat="43.2350009" lon="12.2485911"><ele>722.4000000000001</ele><time>2026-03-29T07:49:06.378Z</time></trkpt><trkpt lat="43.2350298" lon="12.2484095"><ele>724.0</ele><time>2026-03-29T07:49:07.379Z</time></trkpt><trkpt lat="43.2351306" lon="12.2483422"><ele>724.0</ele><time>2026-03-29T07:49:08.379Z</time></trkpt><trkpt lat="43.2352049" lon="12.2482791"><ele>724.0</ele><time>2026-03-29T07:49:09.378Z</time></trkpt><trkpt lat="43.2352738" lon="12.2481994"><ele>724.0</ele><time>2026-03-29T07:49:10.378Z</time></trkpt><trkpt lat="43.2353097" lon="12.2481262"><ele>724.0</ele><time>2026-03-29T07:49:11.378Z</time></trkpt><trkpt lat="43.235312" lon="12.2480378"><ele>724.0</ele><time>2026-03-29T07:49:12.379Z</time></trkpt><trkpt lat="43.2353276" lon="12.2479291"><ele>724.0</ele><time>2026-03-29T07:49:13.379Z</time></trkpt><trkpt lat="43.235411" lon="12.2478332"><ele>723.2</ele><time>2026-03-29T07:49:15.378Z</time></trkpt><trkpt lat="43.2354703" lon="12.2477484"><ele>722.4000000000001</ele><time>2026-03-29T07:49:16.378Z</time></trkpt><trkpt lat="43.2355338" lon="12.2476972"><ele>721.6</ele><time>2026-03-29T07:49:17.379Z</time></trkpt><trkpt lat="43.2356249" lon="12.2475992"><ele>720.8</ele><time>2026-03-29T07:49:18.378Z</time></trkpt><trkpt lat="43.2357069" lon="12.247522"><ele>720.0</ele><time>2026-03-29T07:49:19.379Z</time></trkpt><trkpt lat="43.2357776" lon="12.2474142"><ele>720.0</ele><time>2026-03-29T07:49:20.378Z</time></trkpt><trkpt lat="43.235846" lon="12.2473031"><ele>720.0</ele><time>2026-03-29T07:49:21.378Z</time></trkpt><trkpt lat="43.2359079" lon="12.2471939"><ele>720.0</ele><time>2026-03-29T07:49:22.378Z</time></trkpt><trkpt lat="43.2359843" lon="12.2470879"><ele>720.0</ele><time>2026-03-29T07:49:23.378Z</time></trkpt><trkpt lat="43.2360694" lon="12.2470325"><ele>720.0</ele><time>2026-03-29T07:49:24.379Z</time></trkpt><trkpt lat="43.2361527" lon="12.2469835"><ele>722.0</ele><time>2026-03-29T07:49:25.378Z</time></trkpt><trkpt lat="43.2362332" lon="12.2469422"><ele>724.0</ele><time>2026-03-29T07:49:26.38Z</time></trkpt><trkpt lat="43.2363248" lon="12.2468417"><ele>726.0</ele><time>2026-03-29T07:49:28.378Z</time></trkpt><trkpt lat="43.2363528" lon="12.246756"><ele>728.0</ele><time>2026-03-29T07:49:29.38Z</time></trkpt><trkpt lat="43.2363835" lon="12.2466388"><ele>730.0</ele><time>2026-03-29T07:49:30.377Z</time></trkpt><trkpt lat="43.2364134" lon="12.2465131"><ele>729.0</ele><time>2026-03-29T07:49:31.378Z</time></trkpt><trkpt lat="43.2364513" lon="12.2463851"><ele>728.0</ele><time>2026-03-29T07:49:32.378Z</time></trkpt><trkpt lat="43.2364858" lon="12.2462541"><ele>727.0</ele><time>2026-03-29T07:49:33.377Z</time></trkpt><trkpt lat="43.2365158" lon="12.2461143"><ele>726.0</ele><time>2026-03-29T07:49:34.378Z</time></trkpt><trkpt lat="43.2365383" lon="12.2459923"><ele>725.0</ele><time>2026-03-29T07:49:35.378Z</time></trkpt><trkpt lat="43.2365605" lon="12.2458939"><ele>725.2</ele><time>2026-03-29T07:49:36.377Z</time></trkpt><trkpt lat="43.2365883" lon="12.245731"><ele>725.4</ele><time>2026-03-29T07:49:38.378Z</time></trkpt><trkpt lat="43.2366087" lon="12.2456084"><ele>725.5999999999999</ele><time>2026-03-29T07:49:40.378Z</time></trkpt><trkpt lat="43.2366504" lon="12.2455191"><ele>725.8</ele><time>2026-03-29T07:49:42.377Z</time></trkpt><trkpt lat="43.2367283" lon="12.2454027"><ele>726.0</ele><time>2026-03-29T07:49:44.379Z</time></trkpt><trkpt lat="43.2367898" lon="12.2453446"><ele>726.0</ele><time>2026-03-29T07:49:45.378Z</time></trkpt><trkpt lat="43.2368382" lon="12.2452766"><ele>726.0</ele><time>2026-03-29T07:49:46.379Z</time></trkpt><trkpt lat="43.236918" lon="12.2451877"><ele>726.0</ele><time>2026-03-29T07:49:47.379Z</time></trkpt><trkpt lat="43.2369982" lon="12.2451141"><ele>726.0</ele><time>2026-03-29T07:49:48.379Z</time></trkpt><trkpt lat="43.2370807" lon="12.2450407"><ele>726.0</ele><time>2026-03-29T07:49:49.38Z</time></trkpt><trkpt lat="43.2371837" lon="12.244957"><ele>726.0</ele><time>2026-03-29T07:49:50.377Z</time></trkpt><trkpt lat="43.2372758" lon="12.2448781"><ele>726.0</ele><time>2026-03-29T07:49:51.378Z</time></trkpt><trkpt lat="43.2373644" lon="12.244804"><ele>726.0</ele><time>2026-03-29T07:49:52.378Z</time></trkpt><trkpt lat="43.2374549" lon="12.2447362"><ele>726.0</ele><time>2026-03-29T07:49:53.377Z</time></trkpt><trkpt lat="43.237546" lon="12.2446685"><ele>726.0</ele><time>2026-03-29T07:49:54.379Z</time></trkpt><trkpt lat="43.237632" lon="12.2446043"><ele>723.8</ele><time>2026-03-29T07:49:55.378Z</time></trkpt><trkpt lat="43.2377212" lon="12.2445371"><ele>721.5999999999999</ele><time>2026-03-29T07:49:56.378Z</time></trkpt><trkpt lat="43.2378113" lon="12.2444695"><ele>719.4</ele><time>2026-03-29T07:49:57.379Z</time></trkpt><trkpt lat="43.2378983" lon="12.2444046"><ele>717.2</ele><time>2026-03-29T07:49:58.378Z</time></trkpt><trkpt lat="43.2379847" lon="12.2443412"><ele>715.0</ele><time>2026-03-29T07:49:59.378Z</time></trkpt><trkpt lat="43.2380687" lon="12.2442786"><ele>715.2</ele><time>2026-03-29T07:50:00.38Z</time></trkpt><trkpt lat="43.2381558" lon="12.2442209"><ele>715.4</ele><time>2026-03-29T07:50:01.378Z</time></trkpt><trkpt lat="43.238243" lon="12.2441712"><ele>715.5999999999999</ele><time>2026-03-29T07:50:02.377Z</time></trkpt><trkpt lat="43.2383353" lon="12.2441238"><ele>715.8</ele><time>2026-03-29T07:50:03.379Z</time></trkpt><trkpt lat="43.2384358" lon="12.2440982"><ele>716.0</ele><time>2026-03-29T07:50:04.377Z</time></trkpt><trkpt lat="43.2385313" lon="12.2440656"><ele>716.0</ele><time>2026-03-29T07:50:05.378Z</time></trkpt><trkpt lat="43.2386296" lon="12.2440305"><ele>716.0</ele><time>2026-03-29T07:50:06.38Z</time></trkpt><trkpt lat="43.2387331" lon="12.2439873"><ele>716.0</ele><time>2026-03-29T07:50:07.378Z</time></trkpt><trkpt lat="43.2388261" lon="12.243925"><ele>716.0</ele><time>2026-03-29T07:50:08.378Z</time></trkpt><trkpt lat="43.2389211" lon="12.2438424"><ele>716.0</ele><time>2026-03-29T07:50:09.379Z</time></trkpt><trkpt lat="43.2390066" lon="12.2437472"><ele>714.0</ele><time>2026-03-29T07:50:10.378Z</time></trkpt><trkpt lat="43.2390878" lon="12.2436413"><ele>712.0</ele><time>2026-03-29T07:50:11.378Z</time></trkpt><trkpt lat="43.2391768" lon="12.2435389"><ele>710.0</ele><time>2026-03-29T07:50:12.378Z</time></trkpt><trkpt lat="43.2392656" lon="12.2434394"><ele>708.0</ele><time>2026-03-29T07:50:13.377Z</time></trkpt><trkpt lat="43.2393535" lon="12.2433415"><ele>708.0</ele><time>2026-03-29T07:50:14.378Z</time></trkpt><trkpt lat="43.2394383" lon="12.2432436"><ele>708.0</ele><time>2026-03-29T07:50:15.378Z</time></trkpt><trkpt lat="43.2395296" lon="12.2431557"><ele>708.0</ele><time>2026-03-29T07:50:16.379Z</time></trkpt><trkpt lat="43.2396208" lon="12.2430664"><ele>708.0</ele><time>2026-03-29T07:50:17.379Z</time></trkpt><trkpt lat="43.239714" lon="12.2429763"><ele>708.0</ele><time>2026-03-29T07:50:18.378Z</time></trkpt><trkpt lat="43.2398062" lon="12.2428885"><ele>705.25</ele><time>2026-03-29T07:50:19.378Z</time></trkpt><trkpt lat="43.2399012" lon="12.2428031"><ele>702.5</ele><time>2026-03-29T07:50:20.38Z</time></trkpt><trkpt lat="43.2399933" lon="12.2427166"><ele>699.75</ele><time>2026-03-29T07:50:21.377Z</time></trkpt><trkpt lat="43.240092" lon="12.2426287"><ele>697.0</ele><time>2026-03-29T07:50:22.379Z</time></trkpt><trkpt lat="43.2401889" lon="12.2425458"><ele>697.0</ele><time>2026-03-29T07:50:23.379Z</time></trkpt><trkpt lat="43.2402797" lon="12.2424606"><ele>697.0</ele><time>2026-03-29T07:50:24.38Z</time></trkpt><trkpt lat="43.2403647" lon="12.2423963"><ele>697.0</ele><time>2026-03-29T07:50:25.379Z</time></trkpt><trkpt lat="43.240445" lon="12.2423278"><ele>697.0</ele><time>2026-03-29T07:50:26.379Z</time></trkpt><trkpt lat="43.2405253" lon="12.2422438"><ele>697.0</ele><time>2026-03-29T07:50:27.379Z</time></trkpt><trkpt lat="43.2406013" lon="12.2421501"><ele>697.8</ele><time>2026-03-29T07:50:28.377Z</time></trkpt><trkpt lat="43.2406832" lon="12.2420542"><ele>698.6</ele><time>2026-03-29T07:50:29.379Z</time></trkpt><trkpt lat="43.2407599" lon="12.2419659"><ele>699.4</ele><time>2026-03-29T07:50:30.377Z</time></trkpt><trkpt lat="43.2408315" lon="12.2418799"><ele>700.1999999999999</ele><time>2026-03-29T07:50:31.379Z</time></trkpt><trkpt lat="43.2409026" lon="12.2418003"><ele>701.0</ele><time>2026-03-29T07:50:32.38Z</time></trkpt><trkpt lat="43.2409896" lon="12.2417263"><ele>701.0</ele><time>2026-03-29T07:50:33.379Z</time></trkpt><trkpt lat="43.2410831" lon="12.2416679"><ele>701.0</ele><time>2026-03-29T07:50:34.379Z</time></trkpt><trkpt lat="43.2411955" lon="12.2416193"><ele>701.0</ele><time>2026-03-29T07:50:35.378Z</time></trkpt><trkpt lat="43.2412998" lon="12.2415662"><ele>701.0</ele><time>2026-03-29T07:50:36.378Z</time></trkpt><trkpt lat="43.2414073" lon="12.2415004"><ele>701.0</ele><time>2026-03-29T07:50:37.378Z</time></trkpt><trkpt lat="43.2415151" lon="12.2414236"><ele>702.75</ele><time>2026-03-29T07:50:38.378Z</time></trkpt><trkpt lat="43.2416208" lon="12.2413533"><ele>704.5</ele><time>2026-03-29T07:50:39.379Z</time></trkpt><trkpt lat="43.2417292" lon="12.2412761"><ele>706.25</ele><time>2026-03-29T07:50:40.379Z</time></trkpt><trkpt lat="43.2418302" lon="12.2412143"><ele>708.0</ele><time>2026-03-29T07:50:41.379Z</time></trkpt><trkpt lat="43.2419278" lon="12.2411642"><ele>708.0</ele><time>2026-03-29T07:50:42.377Z</time></trkpt><trkpt lat="43.2420137" lon="12.2411434"><ele>708.0</ele><time>2026-03-29T07:50:43.378Z</time></trkpt><trkpt lat="43.2420843" lon="12.2411234"><ele>708.0</ele><time>2026-03-29T07:50:44.379Z</time></trkpt><trkpt lat="43.2421644" lon="12.2411227"><ele>708.0</ele><time>2026-03-29T07:50:45.378Z</time></trkpt><trkpt lat="43.2422483" lon="12.2411379"><ele>708.0</ele><time>2026-03-29T07:50:46.378Z</time></trkpt><trkpt lat="43.2423369" lon="12.2411564"><ele>708.0</ele><time>2026-03-29T07:50:47.379Z</time></trkpt><trkpt lat="43.2424401" lon="12.2411752"><ele>708.4</ele><time>2026-03-29T07:50:48.38Z</time></trkpt><trkpt lat="43.2425346" lon="12.2411953"><ele>708.8</ele><time>2026-03-29T07:50:49.379Z</time></trkpt><trkpt lat="43.2426336" lon="12.2412279"><ele>709.2</ele><time>2026-03-29T07:50:50.379Z</time></trkpt><trkpt lat="43.2427459" lon="12.2412397"><ele>709.6</ele><time>2026-03-29T07:50:51.378Z</time></trkpt><trkpt lat="43.242859" lon="12.2412584"><ele>710.0</ele><time>2026-03-29T07:50:52.38Z</time></trkpt><trkpt lat="43.2429684" lon="12.2412895"><ele>710.0</ele><time>2026-03-29T07:50:53.38Z</time></trkpt><trkpt lat="43.2431303" lon="12.2413343"><ele>710.0</ele><time>2026-03-29T07:50:54.379Z</time></trkpt><trkpt lat="43.2432595" lon="12.241375"><ele>710.0</ele><time>2026-03-29T07:50:55.377Z</time></trkpt><trkpt lat="43.2433879" lon="12.2414314"><ele>710.0</ele><time>2026-03-29T07:50:56.379Z</time></trkpt><trkpt lat="43.2435306" lon="12.2414978"><ele>712.5</ele><time>2026-03-29T07:50:57.38Z</time></trkpt><trkpt lat="43.2436506" lon="12.2415764"><ele>715.0</ele><time>2026-03-29T07:50:58.378Z</time></trkpt><trkpt lat="43.2437433" lon="12.2416643"><ele>717.5</ele><time>2026-03-29T07:50:59.378Z</time></trkpt><trkpt lat="43.2438402" lon="12.2417562"><ele>720.0</ele><time>2026-03-29T07:51:00.378Z</time></trkpt><trkpt lat="43.2439405" lon="12.2418464"><ele>717.75</ele><time>2026-03-29T07:51:01.379Z</time></trkpt><trkpt lat="43.2440488" lon="12.24196"><ele>715.5</ele><time>2026-03-29T07:51:02.377Z</time></trkpt><trkpt lat="43.2441586" lon="12.2420588"><ele>713.25</ele><time>2026-03-29T07:51:03.378Z</time></trkpt><trkpt lat="43.2442631" lon="12.2421544"><ele>711.0</ele><time>2026-03-29T07:51:04.379Z</time></trkpt><trkpt lat="43.2444322" lon="12.2422358"><ele>712.75</ele><time>2026-03-29T07:51:05.379Z</time></trkpt><trkpt lat="43.2445523" lon="12.2423086"><ele>714.5</ele><time>2026-03-29T07:51:06.379Z</time></trkpt><trkpt lat="43.2446796" lon="12.2423637"><ele>716.25</ele><time>2026-03-29T07:51:07.378Z</time></trkpt><trkpt lat="43.2448267" lon="12.2424288"><ele>718.0</ele><time>2026-03-29T07:51:08.378Z</time></trkpt><trkpt lat="43.244965" lon="12.2424827"><ele>718.0</ele><time>2026-03-29T07:51:09.38Z</time></trkpt><trkpt lat="43.2450892" lon="12.2425346"><ele>718.0</ele><time>2026-03-29T07:51:10.378Z</time></trkpt><trkpt lat="43.2452003" lon="12.2425986"><ele>718.0</ele><time>2026-03-29T07:51:11.379Z</time></trkpt><trkpt lat="43.2453042" lon="12.2426789"><ele>718.0</ele><time>2026-03-29T07:51:12.379Z</time></trkpt><trkpt lat="43.2454087" lon="12.2427648"><ele>718.0</ele><time>2026-03-29T07:51:13.378Z</time></trkpt><trkpt lat="43.245515" lon="12.2428611"><ele>718.0</ele><time>2026-03-29T07:51:14.378Z</time></trkpt><trkpt lat="43.2456156" lon="12.2429488"><ele>718.0</ele><time>2026-03-29T07:51:15.379Z</time></trkpt><trkpt lat="43.2457058" lon="12.2430406"><ele>718.0</ele><time>2026-03-29T07:51:16.378Z</time></trkpt><trkpt lat="43.2458201" lon="12.2431007"><ele>719.25</ele><time>2026-03-29T07:51:17.378Z</time></trkpt><trkpt lat="43.2459266" lon="12.2431782"><ele>720.5</ele><time>2026-03-29T07:51:18.378Z</time></trkpt><trkpt lat="43.2460623" lon="12.2432342"><ele>721.75</ele><time>2026-03-29T07:51:19.377Z</time></trkpt><trkpt lat="43.2462176" lon="12.2432972"><ele>723.0</ele><time>2026-03-29T07:51:20.38Z</time></trkpt><trkpt lat="43.2463666" lon="12.2433386"><ele>724.25</ele><time>2026-03-29T07:51:21.38Z</time></trkpt><trkpt lat="43.2465102" lon="12.2433798"><ele>725.5</ele><time>2026-03-29T07:51:22.378Z</time></trkpt><trkpt lat="43.2466543" lon="12.2434275"><ele>726.75</ele><time>2026-03-29T07:51:23.38Z</time></trkpt><trkpt lat="43.2467891" lon="12.243469"><ele>728.0</ele><time>2026-03-29T07:51:24.38Z</time></trkpt><trkpt lat="43.2469056" lon="12.2435067"><ele>728.0</ele><time>2026-03-29T07:51:25.378Z</time></trkpt><trkpt lat="43.2470463" lon="12.2435282"><ele>728.0</ele><time>2026-03-29T07:51:26.379Z</time></trkpt><trkpt lat="43.2471551" lon="12.2435665"><ele>728.0</ele><time>2026-03-29T07:51:27.378Z</time></trkpt><trkpt lat="43.2472271" lon="12.2435763"><ele>728.0</ele><time>2026-03-29T07:51:28.378Z</time></trkpt><trkpt lat="43.2473197" lon="12.2436053"><ele>728.0</ele><time>2026-03-29T07:51:29.378Z</time></trkpt><trkpt lat="43.2474122" lon="12.2436739"><ele>728.2</ele><time>2026-03-29T07:51:30.38Z</time></trkpt><trkpt lat="43.2475062" lon="12.2437587"><ele>728.4</ele><time>2026-03-29T07:51:31.379Z</time></trkpt><trkpt lat="43.2476058" lon="12.2438625"><ele>728.6</ele><time>2026-03-29T07:51:32.379Z</time></trkpt><trkpt lat="43.2476819" lon="12.2439634"><ele>728.8000000000001</ele><time>2026-03-29T07:51:33.379Z</time></trkpt><trkpt lat="43.2477664" lon="12.244041"><ele>729.0</ele><time>2026-03-29T07:51:34.379Z</time></trkpt><trkpt lat="43.2478355" lon="12.2440702"><ele>729.0</ele><time>2026-03-29T07:51:35.378Z</time></trkpt><trkpt lat="43.2479009" lon="12.2440746"><ele>729.0</ele><time>2026-03-29T07:51:36.378Z</time></trkpt><trkpt lat="43.2479544" lon="12.2439591"><ele>729.0</ele><time>2026-03-29T07:51:38.379Z</time></trkpt><trkpt lat="43.247976" lon="12.2438454"><ele>729.0</ele><time>2026-03-29T07:51:39.38Z</time></trkpt><trkpt lat="43.248" lon="12.2437354"><ele>729.0</ele><time>2026-03-29T07:51:40.378Z</time></trkpt><trkpt lat="43.2480137" lon="12.243615"><ele>729.0</ele><time>2026-03-29T07:51:41.378Z</time></trkpt><trkpt lat="43.2480398" lon="12.2435054"><ele>729.8000000000001</ele><time>2026-03-29T07:51:42.378Z</time></trkpt><trkpt lat="43.2480977" lon="12.2433946"><ele>730.6</ele><time>2026-03-29T07:51:43.378Z</time></trkpt><trkpt lat="43.2481573" lon="12.2432817"><ele>731.4</ele><time>2026-03-29T07:51:44.379Z</time></trkpt><trkpt lat="43.248236" lon="12.2431766"><ele>732.2</ele><time>2026-03-29T07:51:45.379Z</time></trkpt><trkpt lat="43.2483111" lon="12.2430851"><ele>733.0</ele><time>2026-03-29T07:51:46.38Z</time></trkpt><trkpt lat="43.248389" lon="12.2430439"><ele>734.4</ele><time>2026-03-29T07:51:47.379Z</time></trkpt><trkpt lat="43.2484734" lon="12.2430108"><ele>735.8</ele><time>2026-03-29T07:51:48.379Z</time></trkpt><trkpt lat="43.2485562" lon="12.2430356"><ele>737.2</ele><time>2026-03-29T07:51:49.38Z</time></trkpt><trkpt lat="43.248666" lon="12.2430796"><ele>738.6</ele><time>2026-03-29T07:51:50.379Z</time></trkpt><trkpt lat="43.2487688" lon="12.2431834"><ele>740.0</ele><time>2026-03-29T07:51:51.379Z</time></trkpt><trkpt lat="43.248858" lon="12.243271"><ele>741.6</ele><time>2026-03-29T07:51:52.378Z</time></trkpt><trkpt lat="43.2489383" lon="12.2433396"><ele>743.2</ele><time>2026-03-29T07:51:53.379Z</time></trkpt><trkpt lat="43.2490166" lon="12.2433662"><ele>744.8</ele><time>2026-03-29T07:51:54.377Z</time></trkpt><trkpt lat="43.2491233" lon="12.2433777"><ele>746.4</ele><time>2026-03-29T07:51:55.379Z</time></trkpt><trkpt lat="43.2492167" lon="12.2433795"><ele>748.0</ele><time>2026-03-29T07:51:56.379Z</time></trkpt><trkpt lat="43.2493476" lon="12.2433824"><ele>750.75</ele><time>2026-03-29T07:51:57.379Z</time></trkpt><trkpt lat="43.2494577" lon="12.2433882"><ele>753.5</ele><time>2026-03-29T07:51:58.379Z</time></trkpt><trkpt lat="43.2495971" lon="12.2433909"><ele>756.25</ele><time>2026-03-29T07:51:59.379Z</time></trkpt><trkpt lat="43.2497185" lon="12.2433882"><ele>759.0</ele><time>2026-03-29T07:52:00.378Z</time></trkpt><trkpt lat="43.2498527" lon="12.2433939"><ele>759.5</ele><time>2026-03-29T07:52:01.379Z</time></trkpt><trkpt lat="43.2499977" lon="12.2434091"><ele>760.0</ele><time>2026-03-29T07:52:02.378Z</time></trkpt><trkpt lat="43.2501104" lon="12.2434308"><ele>760.5</ele><time>2026-03-29T07:52:03.38Z</time></trkpt><trkpt lat="43.2502378" lon="12.2434392"><ele>761.0</ele><time>2026-03-29T07:52:04.377Z</time></trkpt><trkpt lat="43.2503715" lon="12.2434452"><ele>761.0</ele><time>2026-03-29T07:52:05.379Z</time></trkpt><trkpt lat="43.2504844" lon="12.2434339"><ele>761.0</ele><time>2026-03-29T07:52:06.379Z</time></trkpt><trkpt lat="43.2506045" lon="12.2434095"><ele>761.0</ele><time>2026-03-29T07:52:07.379Z</time></trkpt><trkpt lat="43.2507371" lon="12.2434061"><ele>761.0</ele><time>2026-03-29T07:52:08.379Z</time></trkpt><trkpt lat="43.2508822" lon="12.2434048"><ele>761.75</ele><time>2026-03-29T07:52:09.379Z</time></trkpt><trkpt lat="43.2510193" lon="12.2434101"><ele>762.5</ele><time>2026-03-29T07:52:10.38Z</time></trkpt><trkpt lat="43.2511506" lon="12.2434254"><ele>763.25</ele><time>2026-03-29T07:52:11.38Z</time></trkpt><trkpt lat="43.2512859" lon="12.2434246"><ele>764.0</ele><time>2026-03-29T07:52:12.379Z</time></trkpt><trkpt lat="43.2514324" lon="12.243421"><ele>764.6666666666666</ele><time>2026-03-29T07:52:13.378Z</time></trkpt><trkpt lat="43.2515813" lon="12.2434018"><ele>765.3333333333334</ele><time>2026-03-29T07:52:14.378Z</time></trkpt><trkpt lat="43.2517487" lon="12.2434297"><ele>766.0</ele><time>2026-03-29T07:52:15.379Z</time></trkpt><trkpt lat="43.2518903" lon="12.24346"><ele>766.0</ele><time>2026-03-29T07:52:16.378Z</time></trkpt><trkpt lat="43.2520338" lon="12.2434968"><ele>766.0</ele><time>2026-03-29T07:52:17.378Z</time></trkpt><trkpt lat="43.2521828" lon="12.24356"><ele>766.0</ele><time>2026-03-29T07:52:18.38Z</time></trkpt><trkpt lat="43.2523294" lon="12.2436072"><ele>765.5</ele><time>2026-03-29T07:52:19.378Z</time></trkpt><trkpt lat="43.2524652" lon="12.2436324"><ele>765.0</ele><time>2026-03-29T07:52:20.38Z</time></trkpt><trkpt lat="43.2526045" lon="12.2436357"><ele>764.5</ele><time>2026-03-29T07:52:21.379Z</time></trkpt><trkpt lat="43.2527481" lon="12.2436375"><ele>764.0</ele><time>2026-03-29T07:52:22.38Z</time></trkpt><trkpt lat="43.2528863" lon="12.2436582"><ele>764.0</ele><time>2026-03-29T07:52:23.379Z</time></trkpt><trkpt lat="43.2530174" lon="12.2436848"><ele>764.0</ele><time>2026-03-29T07:52:24.379Z</time></trkpt><trkpt lat="43.2531269" lon="12.2437241"><ele>764.0</ele><time>2026-03-29T07:52:25.377Z</time></trkpt><trkpt lat="43.2532443" lon="12.2437837"><ele>764.0</ele><time>2026-03-29T07:52:26.379Z</time></trkpt><trkpt lat="43.2533416" lon="12.243858"><ele>761.75</ele><time>2026-03-29T07:52:27.38Z</time></trkpt><trkpt lat="43.2534698" lon="12.243933"><ele>759.5</ele><time>2026-03-29T07:52:28.379Z</time></trkpt><trkpt lat="43.2535761" lon="12.2440089"><ele>757.25</ele><time>2026-03-29T07:52:29.38Z</time></trkpt><trkpt lat="43.2536943" lon="12.2440482"><ele>755.0</ele><time>2026-03-29T07:52:30.378Z</time></trkpt><trkpt lat="43.2538164" lon="12.2440788"><ele>754.8333333333333</ele><time>2026-03-29T07:52:31.379Z</time></trkpt><trkpt lat="43.2539176" lon="12.2441033"><ele>754.6666666666666</ele><time>2026-03-29T07:52:32.38Z</time></trkpt><trkpt lat="43.2540066" lon="12.2441379"><ele>754.5</ele><time>2026-03-29T07:52:33.378Z</time></trkpt><trkpt lat="43.2540797" lon="12.2441832"><ele>754.3333333333334</ele><time>2026-03-29T07:52:34.378Z</time></trkpt><trkpt lat="43.2541239" lon="12.2442502"><ele>754.1666666666667</ele><time>2026-03-29T07:52:35.378Z</time></trkpt><trkpt lat="43.254176" lon="12.2443213"><ele>754.0</ele><time>2026-03-29T07:52:36.379Z</time></trkpt><trkpt lat="43.254231" lon="12.2444033"><ele>754.0</ele><time>2026-03-29T07:52:37.38Z</time></trkpt><trkpt lat="43.2542859" lon="12.2444872"><ele>754.0</ele><time>2026-03-29T07:52:38.379Z</time></trkpt><trkpt lat="43.2543487" lon="12.2445748"><ele>754.0</ele><time>2026-03-29T07:52:39.379Z</time></trkpt><trkpt lat="43.2544204" lon="12.2446536"><ele>754.0</ele><time>2026-03-29T07:52:40.379Z</time></trkpt><trkpt lat="43.2544901" lon="12.2447181"><ele>754.0</ele><time>2026-03-29T07:52:41.379Z</time></trkpt><trkpt lat="43.2545491" lon="12.2447539"><ele>754.0</ele><time>2026-03-29T07:52:42.379Z</time></trkpt><trkpt lat="43.2546231" lon="12.2447683"><ele>754.0</ele><time>2026-03-29T07:52:43.379Z</time></trkpt><trkpt lat="43.2546964" lon="12.244772"><ele>754.0</ele><time>2026-03-29T07:52:44.379Z</time></trkpt><trkpt lat="43.2547805" lon="12.2447748"><ele>754.0</ele><time>2026-03-29T07:52:45.379Z</time></trkpt><trkpt lat="43.2548511" lon="12.2447969"><ele>754.0</ele><time>2026-03-29T07:52:46.378Z</time></trkpt><trkpt lat="43.2549452" lon="12.2447807"><ele>754.0</ele><time>2026-03-29T07:52:47.378Z</time></trkpt><trkpt lat="43.2550298" lon="12.2447588"><ele>754.0</ele><time>2026-03-29T07:52:48.38Z</time></trkpt><trkpt lat="43.2551107" lon="12.2447406"><ele>754.6</ele><time>2026-03-29T07:52:49.379Z</time></trkpt><trkpt lat="43.2551901" lon="12.2447441"><ele>755.2</ele><time>2026-03-29T07:52:50.378Z</time></trkpt><trkpt lat="43.2552606" lon="12.2447551"><ele>755.8000000000001</ele><time>2026-03-29T07:52:51.38Z</time></trkpt><trkpt lat="43.2554027" lon="12.2448079"><ele>756.4000000000001</ele><time>2026-03-29T07:52:53.378Z</time></trkpt><trkpt lat="43.2555141" lon="12.2448153"><ele>757.0</ele><time>2026-03-29T07:52:55.379Z</time></trkpt><trkpt lat="43.255581" lon="12.244783"><ele>755.5</ele><time>2026-03-29T07:52:56.38Z</time></trkpt><trkpt lat="43.2556456" lon="12.2447465"><ele>754.0</ele><time>2026-03-29T07:52:57.379Z</time></trkpt><trkpt lat="43.2557071" lon="12.2447088"><ele>752.5</ele><time>2026-03-29T07:52:58.379Z</time></trkpt><trkpt lat="43.255776" lon="12.244706"><ele>751.0</ele><time>2026-03-29T07:52:59.379Z</time></trkpt><trkpt lat="43.2558873" lon="12.2447741"><ele>749.5</ele><time>2026-03-29T07:53:01.379Z</time></trkpt><trkpt lat="43.2559362" lon="12.2448373"><ele>748.0</ele><time>2026-03-29T07:53:02.38Z</time></trkpt><trkpt lat="43.2559812" lon="12.2449036"><ele>748.0</ele><time>2026-03-29T07:53:03.379Z</time></trkpt><trkpt lat="43.2560211" lon="12.244992"><ele>748.0</ele><time>2026-03-29T07:53:04.38Z</time></trkpt><trkpt lat="43.256069" lon="12.24506"><ele>748.0</ele><time>2026-03-29T07:53:05.379Z</time></trkpt><trkpt lat="43.2561212" lon="12.2451368"><ele>748.0</ele><time>2026-03-29T07:53:06.38Z</time></trkpt><trkpt lat="43.256187" lon="12.2452261"><ele>748.0</ele><time>2026-03-29T07:53:07.378Z</time></trkpt><trkpt lat="43.2562415" lon="12.2453131"><ele>748.0</ele><time>2026-03-29T07:53:08.379Z</time></trkpt><trkpt lat="43.2563067" lon="12.2454313"><ele>748.0</ele><time>2026-03-29T07:53:10.379Z</time></trkpt><trkpt lat="43.2563718" lon="12.2454546"><ele>748.0</ele><time>2026-03-29T07:53:13.379Z</time></trkpt><trkpt lat="43.2564227" lon="12.2453504"><ele>748.0</ele><time>2026-03-29T07:53:15.379Z</time></trkpt><trkpt lat="43.2564536" lon="12.2452646"><ele>748.0</ele><time>2026-03-29T07:53:16.379Z</time></trkpt><trkpt lat="43.2565443" lon="12.2451384"><ele>748.0</ele><time>2026-03-29T07:53:18.38Z</time></trkpt><trkpt lat="43.2565972" lon="12.2450866"><ele>748.0</ele><time>2026-03-29T07:53:19.38Z</time></trkpt><trkpt lat="43.256678" lon="12.2449933"><ele>746.1428571428571</ele><time>2026-03-29T07:53:21.379Z</time></trkpt><trkpt lat="43.2567406" lon="12.2449454"><ele>744.2857142857143</ele><time>2026-03-29T07:53:22.379Z</time></trkpt><trkpt lat="43.2568111" lon="12.2449006"><ele>742.4285714285714</ele><time>2026-03-29T07:53:23.378Z</time></trkpt><trkpt lat="43.2568708" lon="12.2448578"><ele>740.5714285714286</ele><time>2026-03-29T07:53:24.379Z</time></trkpt><trkpt lat="43.2569314" lon="12.2447977"><ele>738.7142857142858</ele><time>2026-03-29T07:53:25.38Z</time></trkpt><trkpt lat="43.2569964" lon="12.2447415"><ele>736.8571428571429</ele><time>2026-03-29T07:53:26.379Z</time></trkpt><trkpt lat="43.2570434" lon="12.2446839"><ele>735.0</ele><time>2026-03-29T07:53:27.379Z</time></trkpt><trkpt lat="43.2571064" lon="12.2446276"><ele>733.5714285714286</ele><time>2026-03-29T07:53:28.379Z</time></trkpt><trkpt lat="43.2571567" lon="12.2445655"><ele>732.1428571428571</ele><time>2026-03-29T07:53:29.379Z</time></trkpt><trkpt lat="43.2572282" lon="12.2444991"><ele>730.7142857142858</ele><time>2026-03-29T07:53:30.379Z</time></trkpt><trkpt lat="43.2572709" lon="12.2444226"><ele>729.2857142857142</ele><time>2026-03-29T07:53:31.379Z</time></trkpt><trkpt lat="43.2573178" lon="12.2443567"><ele>727.8571428571429</ele><time>2026-03-29T07:53:32.378Z</time></trkpt><trkpt lat="43.2573813" lon="12.2443119"><ele>726.4285714285714</ele><time>2026-03-29T07:53:33.379Z</time></trkpt><trkpt lat="43.2574416" lon="12.2442347"><ele>725.0</ele><time>2026-03-29T07:53:34.38Z</time></trkpt><trkpt lat="43.2574821" lon="12.2441394"><ele>721.8333333333333</ele><time>2026-03-29T07:53:35.379Z</time></trkpt><trkpt lat="43.2575271" lon="12.2440579"><ele>718.6666666666666</ele><time>2026-03-29T07:53:36.379Z</time></trkpt><trkpt lat="43.2575904" lon="12.2439787"><ele>715.5</ele><time>2026-03-29T07:53:37.378Z</time></trkpt><trkpt lat="43.2576334" lon="12.2439073"><ele>712.3333333333334</ele><time>2026-03-29T07:53:38.38Z</time></trkpt><trkpt lat="43.2576885" lon="12.2438347"><ele>709.1666666666667</ele><time>2026-03-29T07:53:39.38Z</time></trkpt><trkpt lat="43.257741" lon="12.2437507"><ele>706.0</ele><time>2026-03-29T07:53:40.38Z</time></trkpt><trkpt lat="43.2578361" lon="12.2436402"><ele>704.8</ele><time>2026-03-29T07:53:42.379Z</time></trkpt><trkpt lat="43.2578981" lon="12.2436125"><ele>703.5999999999999</ele><time>2026-03-29T07:53:43.379Z</time></trkpt><trkpt lat="43.2579679" lon="12.2435722"><ele>702.4</ele><time>2026-03-29T07:53:44.378Z</time></trkpt><trkpt lat="43.2580335" lon="12.2435177"><ele>701.2</ele><time>2026-03-29T07:53:45.378Z</time></trkpt><trkpt lat="43.2581483" lon="12.2434577"><ele>700.0</ele><time>2026-03-29T07:53:47.379Z</time></trkpt><trkpt lat="43.2582763" lon="12.2434576"><ele>697.2</ele><time>2026-03-29T07:53:49.379Z</time></trkpt><trkpt lat="43.2583605" lon="12.2435015"><ele>694.4</ele><time>2026-03-29T07:53:51.379Z</time></trkpt><trkpt lat="43.2584299" lon="12.2434069"><ele>691.5999999999999</ele><time>2026-03-29T07:53:53.379Z</time></trkpt><trkpt lat="43.2584245" lon="12.2432325"><ele>688.8</ele><time>2026-03-29T07:53:55.379Z</time></trkpt><trkpt lat="43.2584071" lon="12.2431442"><ele>686.0</ele><time>2026-03-29T07:53:56.379Z</time></trkpt><trkpt lat="43.2583917" lon="12.2430479"><ele>685.0</ele><time>2026-03-29T07:53:57.378Z</time></trkpt><trkpt lat="43.2583753" lon="12.2429132"><ele>684.0</ele><time>2026-03-29T07:53:59.38Z</time></trkpt><trkpt lat="43.2583476" lon="12.2428172"><ele>683.0</ele><time>2026-03-29T07:54:01.38Z</time></trkpt><trkpt lat="43.2583417" lon="12.2426886"><ele>682.0</ele><time>2026-03-29T07:54:03.38Z</time></trkpt><trkpt lat="43.2583775" lon="12.2425648"><ele>681.0</ele><time>2026-03-29T07:54:05.379Z</time></trkpt><trkpt lat="43.2584125" lon="12.2424309"><ele>681.0</ele><time>2026-03-29T07:54:07.38Z</time></trkpt><trkpt lat="43.2584336" lon="12.2423363"><ele>681.0</ele><time>2026-03-29T07:54:08.38Z</time></trkpt><trkpt lat="43.2584551" lon="12.242179"><ele>681.0</ele><time>2026-03-29T07:54:10.379Z</time></trkpt><trkpt lat="43.2584796" lon="12.2420228"><ele>681.0</ele><time>2026-03-29T07:54:12.379Z</time></trkpt><trkpt lat="43.258521" lon="12.241916"><ele>681.0</ele><time>2026-03-29T07:54:14.38Z</time></trkpt><trkpt lat="43.258547" lon="12.2418348"><ele>679.0</ele><time>2026-03-29T07:54:16.379Z</time></trkpt><trkpt lat="43.2586213" lon="12.2418708"><ele>677.0</ele><time>2026-03-29T07:54:20.379Z</time></trkpt><trkpt lat="43.2587061" lon="12.2418533"><ele>675.0</ele><time>2026-03-29T07:54:22.379Z</time></trkpt><trkpt lat="43.2587795" lon="12.2418201"><ele>673.0</ele><time>2026-03-29T07:54:23.379Z</time></trkpt><trkpt lat="43.2588329" lon="12.2417491"><ele>671.0</ele><time>2026-03-29T07:54:24.38Z</time></trkpt><trkpt lat="43.2589619" lon="12.2417246"><ele>669.0</ele><time>2026-03-29T07:54:26.379Z</time></trkpt><trkpt lat="43.2590279" lon="12.2417596"><ele>668.0</ele><time>2026-03-29T07:54:27.38Z</time></trkpt><trkpt lat="43.2591003" lon="12.2417788"><ele>667.0</ele><time>2026-03-29T07:54:28.38Z</time></trkpt><trkpt lat="43.2591989" lon="12.2418607"><ele>666.0</ele><time>2026-03-29T07:54:30.379Z</time></trkpt><trkpt lat="43.2593027" lon="12.2419543"><ele>665.0</ele><time>2026-03-29T07:54:32.38Z</time></trkpt><trkpt lat="43.2593562" lon="12.24207"><ele>664.0</ele><time>2026-03-29T07:54:34.379Z</time></trkpt><trkpt lat="43.2593751" lon="12.2421954"><ele>664.8333333333334</ele><time>2026-03-29T07:54:36.379Z</time></trkpt><trkpt lat="43.2593904" lon="12.2423269"><ele>665.6666666666667</ele><time>2026-03-29T07:54:38.38Z</time></trkpt><trkpt lat="43.2594239" lon="12.2424469"><ele>666.5</ele><time>2026-03-29T07:54:40.378Z</time></trkpt><trkpt lat="43.2594578" lon="12.2425403"><ele>667.3333333333334</ele><time>2026-03-29T07:54:42.378Z</time></trkpt><trkpt lat="43.2595309" lon="12.2426537"><ele>668.1666666666666</ele><time>2026-03-29T07:54:44.381Z</time></trkpt><trkpt lat="43.259586" lon="12.2427036"><ele>669.0</ele><time>2026-03-29T07:54:45.379Z</time></trkpt><trkpt lat="43.2596425" lon="12.2427561"><ele>669.0</ele><time>2026-03-29T07:54:46.38Z</time></trkpt><trkpt lat="43.2597053" lon="12.2428266"><ele>669.0</ele><time>2026-03-29T07:54:47.381Z</time></trkpt><trkpt lat="43.2598202" lon="12.2428722"><ele>669.0</ele><time>2026-03-29T07:54:49.378Z</time></trkpt><trkpt lat="43.2598856" lon="12.2429107"><ele>669.0</ele><time>2026-03-29T07:54:50.38Z</time></trkpt><trkpt lat="43.2599559" lon="12.2429625"><ele>669.0</ele><time>2026-03-29T07:54:51.378Z</time></trkpt><trkpt lat="43.2600312" lon="12.2430174"><ele>669.0</ele><time>2026-03-29T07:54:52.379Z</time></trkpt><trkpt lat="43.2601232" lon="12.2430858"><ele>665.4000000000001</ele><time>2026-03-29T07:54:53.38Z</time></trkpt><trkpt lat="43.2601843" lon="12.2431213"><ele>661.8</ele><time>2026-03-29T07:54:54.379Z</time></trkpt><trkpt lat="43.2602561" lon="12.2431583"><ele>658.2</ele><time>2026-03-29T07:54:55.38Z</time></trkpt><trkpt lat="43.2603236" lon="12.2432495"><ele>654.5999999999999</ele><time>2026-03-29T07:54:56.379Z</time></trkpt><trkpt lat="43.2604159" lon="12.2433154"><ele>651.0</ele><time>2026-03-29T07:54:58.379Z</time></trkpt><trkpt lat="43.2605241" lon="12.2433054"><ele>650.8333333333334</ele><time>2026-03-29T07:55:01.38Z</time></trkpt><trkpt lat="43.2606101" lon="12.2433163"><ele>650.6666666666666</ele><time>2026-03-29T07:55:03.38Z</time></trkpt><trkpt lat="43.2607058" lon="12.2433013"><ele>650.5</ele><time>2026-03-29T07:55:05.38Z</time></trkpt><trkpt lat="43.2607765" lon="12.2432859"><ele>650.3333333333333</ele><time>2026-03-29T07:55:06.379Z</time></trkpt><trkpt lat="43.2608536" lon="12.2433003"><ele>650.1666666666666</ele><time>2026-03-29T07:55:08.38Z</time></trkpt><trkpt lat="43.2609026" lon="12.2434111"><ele>650.0</ele><time>2026-03-29T07:55:10.379Z</time></trkpt><trkpt lat="43.2610154" lon="12.2434971"><ele>648.2</ele><time>2026-03-29T07:55:12.378Z</time></trkpt><trkpt lat="43.2611344" lon="12.2435308"><ele>646.4</ele><time>2026-03-29T07:55:14.379Z</time></trkpt><trkpt lat="43.2612355" lon="12.2435466"><ele>644.5999999999999</ele><time>2026-03-29T07:55:16.379Z</time></trkpt><trkpt lat="43.2613338" lon="12.2435421"><ele>642.8</ele><time>2026-03-29T07:55:17.379Z</time></trkpt><trkpt lat="43.26141" lon="12.2435239"><ele>641.0</ele><time>2026-03-29T07:55:18.38Z</time></trkpt><trkpt lat="43.2614857" lon="12.2435138"><ele>639.1666666666666</ele><time>2026-03-29T07:55:19.378Z</time></trkpt><trkpt lat="43.2615654" lon="12.2435063"><ele>637.3333333333333</ele><time>2026-03-29T07:55:20.379Z</time></trkpt><trkpt lat="43.2616463" lon="12.2434964"><ele>635.5</ele><time>2026-03-29T07:55:21.381Z</time></trkpt><trkpt lat="43.2617251" lon="12.2434948"><ele>633.6666666666666</ele><time>2026-03-29T07:55:22.379Z</time></trkpt><trkpt lat="43.2618048" lon="12.2435019"><ele>631.8333333333334</ele><time>2026-03-29T07:55:23.378Z</time></trkpt><trkpt lat="43.2618864" lon="12.2435204"><ele>630.0</ele><time>2026-03-29T07:55:24.381Z</time></trkpt><trkpt lat="43.2619647" lon="12.2435651"><ele>630.0</ele><time>2026-03-29T07:55:25.378Z</time></trkpt><trkpt lat="43.2620517" lon="12.2435847"><ele>630.0</ele><time>2026-03-29T07:55:26.379Z</time></trkpt><trkpt lat="43.2621464" lon="12.243608"><ele>630.0</ele><time>2026-03-29T07:55:27.379Z</time></trkpt><trkpt lat="43.2622255" lon="12.2436457"><ele>630.0</ele><time>2026-03-29T07:55:28.378Z</time></trkpt><trkpt lat="43.2622947" lon="12.2437037"><ele>630.0</ele><time>2026-03-29T07:55:29.38Z</time></trkpt><trkpt lat="43.2623625" lon="12.243744"><ele>630.0</ele><time>2026-03-29T07:55:30.379Z</time></trkpt><trkpt lat="43.2624274" lon="12.2437975"><ele>628.0</ele><time>2026-03-29T07:55:31.379Z</time></trkpt><trkpt lat="43.2625172" lon="12.2438815"><ele>626.0</ele><time>2026-03-29T07:55:32.379Z</time></trkpt><trkpt lat="43.2626174" lon="12.2439444"><ele>624.0</ele><time>2026-03-29T07:55:33.38Z</time></trkpt><trkpt lat="43.2626963" lon="12.2440231"><ele>622.0</ele><time>2026-03-29T07:55:34.38Z</time></trkpt><trkpt lat="43.2627709" lon="12.2440804"><ele>620.0</ele><time>2026-03-29T07:55:35.379Z</time></trkpt><trkpt lat="43.2628729" lon="12.244112"><ele>620.0</ele><time>2026-03-29T07:55:37.378Z</time></trkpt><trkpt lat="43.2628761" lon="12.2440209"><ele>620.0</ele><time>2026-03-29T07:55:42.38Z</time></trkpt><trkpt lat="43.2628947" lon="12.2438903"><ele>620.0</ele><time>2026-03-29T07:55:45.38Z</time></trkpt><trkpt lat="43.2629058" lon="12.2437475"><ele>620.0</ele><time>2026-03-29T07:55:47.379Z</time></trkpt><trkpt lat="43.2628873" lon="12.2436581"><ele>620.0</ele><time>2026-03-29T07:55:48.38Z</time></trkpt><trkpt lat="43.2628798" lon="12.243568"><ele>620.0</ele><time>2026-03-29T07:55:49.379Z</time></trkpt><trkpt lat="43.2628576" lon="12.2434787"><ele>620.0</ele><time>2026-03-29T07:55:50.38Z</time></trkpt><trkpt lat="43.2628378" lon="12.2433769"><ele>620.0</ele><time>2026-03-29T07:55:51.379Z</time></trkpt><trkpt lat="43.2628141" lon="12.2432722"><ele>620.0</ele><time>2026-03-29T07:55:52.378Z</time></trkpt><trkpt lat="43.2627954" lon="12.2431835"><ele>620.0</ele><time>2026-03-29T07:55:53.38Z</time></trkpt><trkpt lat="43.2627927" lon="12.243082"><ele>620.0</ele><time>2026-03-29T07:55:54.38Z</time></trkpt><trkpt lat="43.2627962" lon="12.2429951"><ele>620.0</ele><time>2026-03-29T07:55:55.379Z</time></trkpt><trkpt lat="43.2628248" lon="12.2428793"><ele>619.8333333333333</ele><time>2026-03-29T07:55:56.38Z</time></trkpt><trkpt lat="43.2628229" lon="12.2427885"><ele>619.6666666666666</ele><time>2026-03-29T07:55:57.379Z</time></trkpt><trkpt lat="43.2628056" lon="12.242681"><ele>619.5</ele><time>2026-03-29T07:55:58.38Z</time></trkpt><trkpt lat="43.2627867" lon="12.242588"><ele>619.3333333333334</ele><time>2026-03-29T07:55:59.379Z</time></trkpt><trkpt lat="43.2627947" lon="12.2424967"><ele>619.1666666666667</ele><time>2026-03-29T07:56:00.379Z</time></trkpt><trkpt lat="43.2628201" lon="12.2423186"><ele>619.0</ele><time>2026-03-29T07:56:02.38Z</time></trkpt><trkpt lat="43.2628358" lon="12.2422234"><ele>618.0</ele><time>2026-03-29T07:56:03.378Z</time></trkpt><trkpt lat="43.2628728" lon="12.2421471"><ele>617.0</ele><time>2026-03-29T07:56:04.379Z</time></trkpt><trkpt lat="43.2629202" lon="12.2420706"><ele>616.0</ele><time>2026-03-29T07:56:05.38Z</time></trkpt><trkpt lat="43.2629594" lon="12.2420024"><ele>615.0</ele><time>2026-03-29T07:56:06.38Z</time></trkpt><trkpt lat="43.2629883" lon="12.2419145"><ele>614.0</ele><time>2026-03-29T07:56:07.38Z</time></trkpt><trkpt lat="43.2630107" lon="12.2418056"><ele>613.0</ele><time>2026-03-29T07:56:08.38Z</time></trkpt><trkpt lat="43.2629986" lon="12.241699"><ele>612.0</ele><time>2026-03-29T07:56:09.38Z</time></trkpt><trkpt lat="43.2629813" lon="12.241593"><ele>612.0</ele><time>2026-03-29T07:56:10.38Z</time></trkpt><trkpt lat="43.2629488" lon="12.2415075"><ele>612.0</ele><time>2026-03-29T07:56:11.379Z</time></trkpt><trkpt lat="43.2629097" lon="12.2414132"><ele>612.0</ele><time>2026-03-29T07:56:12.379Z</time></trkpt><trkpt lat="43.2628613" lon="12.2413256"><ele>612.0</ele><time>2026-03-29T07:56:13.379Z</time></trkpt><trkpt lat="43.2628212" lon="12.2412373"><ele>612.0</ele><time>2026-03-29T07:56:14.379Z</time></trkpt><trkpt lat="43.2628078" lon="12.2411497"><ele>612.0</ele><time>2026-03-29T07:56:15.38Z</time></trkpt><trkpt lat="43.2627831" lon="12.2410627"><ele>612.0</ele><time>2026-03-29T07:56:16.379Z</time></trkpt><trkpt lat="43.2626728" lon="12.2409955"><ele>612.0</ele><time>2026-03-29T07:56:18.381Z</time></trkpt><trkpt lat="43.2626023" lon="12.2409951"><ele>612.0</ele><time>2026-03-29T07:56:19.38Z</time></trkpt><trkpt lat="43.2625164" lon="12.2410055"><ele>612.0</ele><time>2026-03-29T07:56:20.379Z</time></trkpt><trkpt lat="43.2624321" lon="12.2410299"><ele>612.0</ele><time>2026-03-29T07:56:21.379Z</time></trkpt><trkpt lat="43.2623552" lon="12.2410577"><ele>612.0</ele><time>2026-03-29T07:56:22.379Z</time></trkpt><trkpt lat="43.2622852" lon="12.2410824"><ele>612.0</ele><time>2026-03-29T07:56:23.381Z</time></trkpt><trkpt lat="43.2621718" lon="12.2410823"><ele>612.0</ele><time>2026-03-29T07:56:25.38Z</time></trkpt><trkpt lat="43.2621399" lon="12.2409412"><ele>612.0</ele><time>2026-03-29T07:56:27.381Z</time></trkpt><trkpt lat="43.2621275" lon="12.2407615"><ele>612.0</ele><time>2026-03-29T07:56:29.38Z</time></trkpt><trkpt lat="43.2620979" lon="12.2406491"><ele>612.0</ele><time>2026-03-29T07:56:30.378Z</time></trkpt><trkpt lat="43.2620892" lon="12.2404685"><ele>609.6</ele><time>2026-03-29T07:56:32.379Z</time></trkpt><trkpt lat="43.2621032" lon="12.2403664"><ele>607.2</ele><time>2026-03-29T07:56:33.378Z</time></trkpt><trkpt lat="43.2621125" lon="12.2402629"><ele>604.8</ele><time>2026-03-29T07:56:34.38Z</time></trkpt><trkpt lat="43.2621219" lon="12.2401341"><ele>602.4</ele><time>2026-03-29T07:56:35.378Z</time></trkpt><trkpt lat="43.2620991" lon="12.239954"><ele>600.0</ele><time>2026-03-29T07:56:37.38Z</time></trkpt><trkpt lat="43.2620509" lon="12.2398832"><ele>600.0</ele><time>2026-03-29T07:56:38.381Z</time></trkpt><trkpt lat="43.2619402" lon="12.2398217"><ele>600.0</ele><time>2026-03-29T07:56:40.38Z</time></trkpt><trkpt lat="43.2617836" lon="12.2397984"><ele>600.0</ele><time>2026-03-29T07:56:42.379Z</time></trkpt><trkpt lat="43.2616863" lon="12.2398482"><ele>600.0</ele><time>2026-03-29T07:56:43.38Z</time></trkpt><trkpt lat="43.2616111" lon="12.2398922"><ele>600.0</ele><time>2026-03-29T07:56:44.38Z</time></trkpt><trkpt lat="43.2615437" lon="12.2399167"><ele>600.0</ele><time>2026-03-29T07:56:45.38Z</time></trkpt><trkpt lat="43.2614603" lon="12.2399072"><ele>600.0</ele><time>2026-03-29T07:56:47.38Z</time></trkpt><trkpt lat="43.2614414" lon="12.2398128"><ele>600.0</ele><time>2026-03-29T07:56:49.379Z</time></trkpt><trkpt lat="43.2614538" lon="12.2396855"><ele>600.0</ele><time>2026-03-29T07:56:51.379Z</time></trkpt><trkpt lat="43.2614065" lon="12.2395879"><ele>600.0</ele><time>2026-03-29T07:56:53.38Z</time></trkpt><trkpt lat="43.2613383" lon="12.2395189"><ele>601.4</ele><time>2026-03-29T07:56:54.379Z</time></trkpt><trkpt lat="43.2612658" lon="12.2394421"><ele>602.8</ele><time>2026-03-29T07:56:55.38Z</time></trkpt><trkpt lat="43.2612139" lon="12.2393704"><ele>604.2</ele><time>2026-03-29T07:56:56.378Z</time></trkpt><trkpt lat="43.2611647" lon="12.2392964"><ele>605.6</ele><time>2026-03-29T07:56:57.38Z</time></trkpt><trkpt lat="43.2610824" lon="12.2391596"><ele>607.0</ele><time>2026-03-29T07:56:59.38Z</time></trkpt><trkpt lat="43.2611114" lon="12.2389992"><ele>604.6666666666667</ele><time>2026-03-29T07:57:01.38Z</time></trkpt><trkpt lat="43.2611368" lon="12.2389161"><ele>602.3333333333334</ele><time>2026-03-29T07:57:02.38Z</time></trkpt><trkpt lat="43.2611833" lon="12.2388553"><ele>600.0</ele><time>2026-03-29T07:57:03.38Z</time></trkpt><trkpt lat="43.2612169" lon="12.2387334"><ele>597.6666666666666</ele><time>2026-03-29T07:57:05.38Z</time></trkpt><trkpt lat="43.2612292" lon="12.2385969"><ele>595.3333333333333</ele><time>2026-03-29T07:57:07.378Z</time></trkpt><trkpt lat="43.2611912" lon="12.2385198"><ele>593.0</ele><time>2026-03-29T07:57:08.38Z</time></trkpt><trkpt lat="43.2611626" lon="12.238421"><ele>593.0</ele><time>2026-03-29T07:57:09.38Z</time></trkpt><trkpt lat="43.261107" lon="12.2383512"><ele>593.0</ele><time>2026-03-29T07:57:10.38Z</time></trkpt><trkpt lat="43.2610452" lon="12.2382863"><ele>593.0</ele><time>2026-03-29T07:57:11.379Z</time></trkpt><trkpt lat="43.2609617" lon="12.2382247"><ele>593.0</ele><time>2026-03-29T07:57:12.379Z</time></trkpt><trkpt lat="43.2608618" lon="12.2381644"><ele>593.0</ele><time>2026-03-29T07:57:13.38Z</time></trkpt><trkpt lat="43.2607805" lon="12.2380913"><ele>591.8</ele><time>2026-03-29T07:57:14.381Z</time></trkpt><trkpt lat="43.2606996" lon="12.2379816"><ele>590.5999999999999</ele><time>2026-03-29T07:57:15.379Z</time></trkpt><trkpt lat="43.2606241" lon="12.2379007"><ele>589.4000000000001</ele><time>2026-03-29T07:57:16.38Z</time></trkpt><trkpt lat="43.2605509" lon="12.2378358"><ele>588.2</ele><time>2026-03-29T07:57:17.38Z</time></trkpt><trkpt lat="43.2604606" lon="12.2377906"><ele>587.0</ele><time>2026-03-29T07:57:18.381Z</time></trkpt><trkpt lat="43.260372" lon="12.2377502"><ele>587.0</ele><time>2026-03-29T07:57:19.38Z</time></trkpt><trkpt lat="43.2602999" lon="12.2377136"><ele>587.0</ele><time>2026-03-29T07:57:20.381Z</time></trkpt><trkpt lat="43.2602192" lon="12.2376771"><ele>587.0</ele><time>2026-03-29T07:57:21.38Z</time></trkpt><trkpt lat="43.2601394" lon="12.2376369"><ele>587.0</ele><time>2026-03-29T07:57:22.38Z</time></trkpt><trkpt lat="43.260069" lon="12.2375889"><ele>587.0</ele><time>2026-03-29T07:57:23.381Z</time></trkpt><trkpt lat="43.2600209" lon="12.2375059"><ele>587.0</ele><time>2026-03-29T07:57:24.379Z</time></trkpt><trkpt lat="43.2599921" lon="12.2373856"><ele>585.0</ele><time>2026-03-29T07:57:25.379Z</time></trkpt><trkpt lat="43.2599654" lon="12.2372554"><ele>583.0</ele><time>2026-03-29T07:57:26.38Z</time></trkpt><trkpt lat="43.2599381" lon="12.237147"><ele>581.0</ele><time>2026-03-29T07:57:27.38Z</time></trkpt><trkpt lat="43.2599199" lon="12.2370281"><ele>579.0</ele><time>2026-03-29T07:57:28.38Z</time></trkpt><trkpt lat="43.2599019" lon="12.2369168"><ele>577.0</ele><time>2026-03-29T07:57:29.381Z</time></trkpt><trkpt lat="43.2598729" lon="12.2368277"><ele>575.0</ele><time>2026-03-29T07:57:30.38Z</time></trkpt><trkpt lat="43.2598624" lon="12.2367188"><ele>575.0</ele><time>2026-03-29T07:57:31.38Z</time></trkpt><trkpt lat="43.2599164" lon="12.2366083"><ele>575.0</ele><time>2026-03-29T07:57:33.38Z</time></trkpt><trkpt lat="43.2600551" lon="12.236598"><ele>575.0</ele><time>2026-03-29T07:57:35.38Z</time></trkpt><trkpt lat="43.2601304" lon="12.2365837"><ele>575.0</ele><time>2026-03-29T07:57:36.38Z</time></trkpt><trkpt lat="43.2602113" lon="12.2365483"><ele>575.0</ele><time>2026-03-29T07:57:37.381Z</time></trkpt><trkpt lat="43.2602925" lon="12.236528"><ele>575.0</ele><time>2026-03-29T07:57:38.38Z</time></trkpt><trkpt lat="43.2603753" lon="12.2365233"><ele>575.0</ele><time>2026-03-29T07:57:39.38Z</time></trkpt><trkpt lat="43.2604533" lon="12.236436"><ele>575.0</ele><time>2026-03-29T07:57:41.379Z</time></trkpt><trkpt lat="43.2604271" lon="12.2363069"><ele>575.0</ele><time>2026-03-29T07:57:44.381Z</time></trkpt><trkpt lat="43.2603816" lon="12.2362466"><ele>575.0</ele><time>2026-03-29T07:57:45.38Z</time></trkpt><trkpt lat="43.2603416" lon="12.2361518"><ele>575.0</ele><time>2026-03-29T07:57:46.379Z</time></trkpt><trkpt lat="43.2603294" lon="12.23604"><ele>572.6666666666666</ele><time>2026-03-29T07:57:47.381Z</time></trkpt><trkpt lat="43.2603281" lon="12.2359377"><ele>570.3333333333333</ele><time>2026-03-29T07:57:48.38Z</time></trkpt><trkpt lat="43.2603153" lon="12.2358395"><ele>568.0</ele><time>2026-03-29T07:57:49.38Z</time></trkpt><trkpt lat="43.2602317" lon="12.2357379"><ele>565.6666666666666</ele><time>2026-03-29T07:57:51.379Z</time></trkpt><trkpt lat="43.2601676" lon="12.2356941"><ele>563.3333333333334</ele><time>2026-03-29T07:57:52.38Z</time></trkpt><trkpt lat="43.2600851" lon="12.2357445"><ele>561.0</ele><time>2026-03-29T07:57:53.379Z</time></trkpt><trkpt lat="43.2600208" lon="12.235769"><ele>561.0</ele><time>2026-03-29T07:57:54.38Z</time></trkpt><trkpt lat="43.2599014" lon="12.2358106"><ele>561.0</ele><time>2026-03-29T07:57:56.379Z</time></trkpt><trkpt lat="43.2597995" lon="12.2357379"><ele>561.0</ele><time>2026-03-29T07:57:58.379Z</time></trkpt><trkpt lat="43.2597911" lon="12.2356222"><ele>561.0</ele><time>2026-03-29T07:58:00.379Z</time></trkpt><trkpt lat="43.2598045" lon="12.2355286"><ele>561.0</ele><time>2026-03-29T07:58:01.381Z</time></trkpt><trkpt lat="43.2598564" lon="12.2354627"><ele>557.2</ele><time>2026-03-29T07:58:02.379Z</time></trkpt><trkpt lat="43.259937" lon="12.2353479"><ele>553.4000000000001</ele><time>2026-03-29T07:58:03.38Z</time></trkpt><trkpt lat="43.2600029" lon="12.235278"><ele>549.6</ele><time>2026-03-29T07:58:04.379Z</time></trkpt><trkpt lat="43.2600693" lon="12.2352018"><ele>545.8000000000001</ele><time>2026-03-29T07:58:05.379Z</time></trkpt><trkpt lat="43.2601328" lon="12.2351406"><ele>542.0</ele><time>2026-03-29T07:58:06.38Z</time></trkpt><trkpt lat="43.2601005" lon="12.2349895"><ele>542.0</ele><time>2026-03-29T07:58:08.38Z</time></trkpt><trkpt lat="43.2599965" lon="12.2348638"><ele>542.0</ele><time>2026-03-29T07:58:10.38Z</time></trkpt><trkpt lat="43.2599173" lon="12.2348252"><ele>542.0</ele><time>2026-03-29T07:58:11.38Z</time></trkpt><trkpt lat="43.2597724" lon="12.2348536"><ele>542.0</ele><time>2026-03-29T07:58:13.38Z</time></trkpt><trkpt lat="43.2597028" lon="12.2349291"><ele>541.8000000000001</ele><time>2026-03-29T07:58:14.379Z</time></trkpt><trkpt lat="43.2596265" lon="12.234979"><ele>541.6</ele><time>2026-03-29T07:58:15.38Z</time></trkpt><trkpt lat="43.2595134" lon="12.2350484"><ele>541.4000000000001</ele><time>2026-03-29T07:58:16.379Z</time></trkpt><trkpt lat="43.2593973" lon="12.2350972"><ele>541.2</ele><time>2026-03-29T07:58:17.38Z</time></trkpt><trkpt lat="43.2593114" lon="12.2351541"><ele>541.0</ele><time>2026-03-29T07:58:18.381Z</time></trkpt><trkpt lat="43.259213" lon="12.2352182"><ele>541.0</ele><time>2026-03-29T07:58:19.38Z</time></trkpt><trkpt lat="43.2591455" lon="12.2352595"><ele>541.0</ele><time>2026-03-29T07:58:20.379Z</time></trkpt><trkpt lat="43.2590654" lon="12.235283"><ele>541.0</ele><time>2026-03-29T07:58:21.38Z</time></trkpt><trkpt lat="43.2590072" lon="12.2353162"><ele>541.0</ele><time>2026-03-29T07:58:22.38Z</time></trkpt><trkpt lat="43.2589303" lon="12.2353469"><ele>541.0</ele><time>2026-03-29T07:58:25.381Z</time></trkpt><trkpt lat="43.2588686" lon="12.2352945"><ele>541.0</ele><time>2026-03-29T07:58:27.379Z</time></trkpt><trkpt lat="43.2588713" lon="12.2351012"><ele>541.8</ele><time>2026-03-29T07:58:30.38Z</time></trkpt><trkpt lat="43.2588502" lon="12.2349932"><ele>542.6</ele><time>2026-03-29T07:58:31.381Z</time></trkpt><trkpt lat="43.2587907" lon="12.2348616"><ele>543.4</ele><time>2026-03-29T07:58:32.38Z</time></trkpt><trkpt lat="43.2587147" lon="12.2348045"><ele>544.2</ele><time>2026-03-29T07:58:33.379Z</time></trkpt><trkpt lat="43.2586244" lon="12.2347364"><ele>545.0</ele><time>2026-03-29T07:58:34.379Z</time></trkpt><trkpt lat="43.258533" lon="12.2346748"><ele>545.8333333333333</ele><time>2026-03-29T07:58:35.38Z</time></trkpt><trkpt lat="43.2584378" lon="12.2346403"><ele>546.6666666666666</ele><time>2026-03-29T07:58:36.38Z</time></trkpt><trkpt lat="43.2583571" lon="12.2345924"><ele>547.5</ele><time>2026-03-29T07:58:37.38Z</time></trkpt><trkpt lat="43.2582802" lon="12.2345815"><ele>548.3333333333334</ele><time>2026-03-29T07:58:38.381Z</time></trkpt><trkpt lat="43.258213" lon="12.2345742"><ele>549.1666666666667</ele><time>2026-03-29T07:58:39.38Z</time></trkpt><trkpt lat="43.2581341" lon="12.23453"><ele>550.0</ele><time>2026-03-29T07:58:40.379Z</time></trkpt><trkpt lat="43.2580514" lon="12.2344779"><ele>550.0</ele><time>2026-03-29T07:58:41.38Z</time></trkpt><trkpt lat="43.2579631" lon="12.2344124"><ele>550.0</ele><time>2026-03-29T07:58:42.38Z</time></trkpt><trkpt lat="43.2579042" lon="12.2343376"><ele>550.0</ele><time>2026-03-29T07:58:43.38Z</time></trkpt><trkpt lat="43.2578662" lon="12.2342368"><ele>550.0</ele><time>2026-03-29T07:58:44.38Z</time></trkpt><trkpt lat="43.2578349" lon="12.2341492"><ele>550.0</ele><time>2026-03-29T07:58:45.379Z</time></trkpt><trkpt lat="43.2577949" lon="12.2340073"><ele>550.0</ele><time>2026-03-29T07:58:47.38Z</time></trkpt><trkpt lat="43.2577756" lon="12.2339175"><ele>548.6</ele><time>2026-03-29T07:58:48.381Z</time></trkpt><trkpt lat="43.2577171" lon="12.2338096"><ele>547.2</ele><time>2026-03-29T07:58:50.38Z</time></trkpt><trkpt lat="43.2576189" lon="12.2337302"><ele>545.8</ele><time>2026-03-29T07:58:52.379Z</time></trkpt><trkpt lat="43.257534" lon="12.2337149"><ele>544.4</ele><time>2026-03-29T07:58:54.38Z</time></trkpt><trkpt lat="43.2574221" lon="12.2336746"><ele>543.0</ele><time>2026-03-29T07:58:56.38Z</time></trkpt><trkpt lat="43.2573349" lon="12.233574"><ele>543.0</ele><time>2026-03-29T07:58:58.38Z</time></trkpt><trkpt lat="43.2572878" lon="12.2334879"><ele>543.0</ele><time>2026-03-29T07:58:59.379Z</time></trkpt><trkpt lat="43.2572675" lon="12.2333991"><ele>543.0</ele><time>2026-03-29T07:59:00.379Z</time></trkpt><trkpt lat="43.2572343" lon="12.2332315"><ele>543.0</ele><time>2026-03-29T07:59:02.38Z</time></trkpt><trkpt lat="43.2571541" lon="12.2333267"><ele>543.0</ele><time>2026-03-29T07:59:07.379Z</time></trkpt><trkpt lat="43.2570883" lon="12.2334263"><ele>545.6666666666666</ele><time>2026-03-29T07:59:09.379Z</time></trkpt><trkpt lat="43.257026" lon="12.2334923"><ele>548.3333333333334</ele><time>2026-03-29T07:59:10.38Z</time></trkpt><trkpt lat="43.2569696" lon="12.2335495"><ele>551.0</ele><time>2026-03-29T07:59:11.38Z</time></trkpt><trkpt lat="43.256922" lon="12.2336112"><ele>553.6666666666667</ele><time>2026-03-29T07:59:12.38Z</time></trkpt><trkpt lat="43.2568274" lon="12.2336563"><ele>556.3333333333334</ele><time>2026-03-29T07:59:14.38Z</time></trkpt><trkpt lat="43.2567588" lon="12.2337042"><ele>559.0</ele><time>2026-03-29T07:59:37.38Z</time></trkpt><trkpt lat="43.2566925" lon="12.2337376"><ele>559.0</ele><time>2026-03-29T07:59:39.38Z</time></trkpt><trkpt lat="43.2566336" lon="12.2337885"><ele>559.0</ele><time>2026-03-29T07:59:40.381Z</time></trkpt><trkpt lat="43.2565512" lon="12.2338888"><ele>559.0</ele><time>2026-03-29T07:59:42.381Z</time></trkpt><trkpt lat="43.2564549" lon="12.2339705"><ele>559.0</ele><time>2026-03-29T07:59:44.381Z</time></trkpt><trkpt lat="43.2563453" lon="12.2340242"><ele>559.0</ele><time>2026-03-29T07:59:46.38Z</time></trkpt><trkpt lat="43.2562424" lon="12.2340332"><ele>562.0</ele><time>2026-03-29T07:59:48.38Z</time></trkpt><trkpt lat="43.2562089" lon="12.234108"><ele>565.0</ele><time>2026-03-29T07:59:49.38Z</time></trkpt><trkpt lat="43.2561927" lon="12.2342077"><ele>568.0</ele><time>2026-03-29T07:59:50.379Z</time></trkpt><trkpt lat="43.2562208" lon="12.2343214"><ele>571.0</ele><time>2026-03-29T07:59:51.379Z</time></trkpt><trkpt lat="43.2562501" lon="12.2344429"><ele>574.0</ele><time>2026-03-29T07:59:52.38Z</time></trkpt><trkpt lat="43.2563004" lon="12.2345315"><ele>577.0</ele><time>2026-03-29T07:59:53.382Z</time></trkpt><trkpt lat="43.2562982" lon="12.2346379"><ele>577.0</ele><time>2026-03-29T07:59:55.38Z</time></trkpt><trkpt lat="43.2562425" lon="12.2347226"><ele>577.0</ele><time>2026-03-29T07:59:58.382Z</time></trkpt><trkpt lat="43.2562267" lon="12.2348243"><ele>577.0</ele><time>2026-03-29T08:00:00.381Z</time></trkpt><trkpt lat="43.2563306" lon="12.234903"><ele>577.0</ele><time>2026-03-29T08:00:01.379Z</time></trkpt><trkpt lat="43.2563918" lon="12.2350411"><ele>577.0</ele><time>2026-03-29T08:00:03.381Z</time></trkpt><trkpt lat="43.2563809" lon="12.235176"><ele>579.6</ele><time>2026-03-29T08:00:05.379Z</time></trkpt><trkpt lat="43.2563289" lon="12.2352758"><ele>582.2</ele><time>2026-03-29T08:00:07.381Z</time></trkpt><trkpt lat="43.2563086" lon="12.2354367"><ele>584.8</ele><time>2026-03-29T08:00:09.38Z</time></trkpt><trkpt lat="43.2562703" lon="12.2355559"><ele>587.4</ele><time>2026-03-29T08:00:11.381Z</time></trkpt><trkpt lat="43.2562099" lon="12.235648"><ele>590.0</ele><time>2026-03-29T08:00:13.38Z</time></trkpt><trkpt lat="43.2561872" lon="12.2357751"><ele>592.6666666666666</ele><time>2026-03-29T08:00:15.38Z</time></trkpt><trkpt lat="43.2561741" lon="12.2358748"><ele>595.3333333333333</ele><time>2026-03-29T08:00:16.38Z</time></trkpt><trkpt lat="43.2561604" lon="12.2359707"><ele>598.0</ele><time>2026-03-29T08:00:17.381Z</time></trkpt><trkpt lat="43.2560916" lon="12.2361303"><ele>600.6666666666666</ele><time>2026-03-29T08:00:19.38Z</time></trkpt><trkpt lat="43.2560375" lon="12.2361917"><ele>603.3333333333334</ele><time>2026-03-29T08:00:20.379Z</time></trkpt><trkpt lat="43.2559832" lon="12.2362583"><ele>606.0</ele><time>2026-03-29T08:00:21.38Z</time></trkpt><trkpt lat="43.2558939" lon="12.2363079"><ele>606.0</ele><time>2026-03-29T08:00:22.381Z</time></trkpt><trkpt lat="43.2558207" lon="12.2363412"><ele>606.0</ele><time>2026-03-29T08:00:23.381Z</time></trkpt><trkpt lat="43.2556851" lon="12.2363954"><ele>606.0</ele><time>2026-03-29T08:00:25.381Z</time></trkpt><trkpt lat="43.255612" lon="12.2364114"><ele>606.0</ele><time>2026-03-29T08:00:26.38Z</time></trkpt><trkpt lat="43.2554946" lon="12.2363925"><ele>606.0</ele><time>2026-03-29T08:00:28.38Z</time></trkpt><trkpt lat="43.2553926" lon="12.2364526"><ele>609.1666666666666</ele><time>2026-03-29T08:00:30.381Z</time></trkpt><trkpt lat="43.2553641" lon="12.2365315"><ele>612.3333333333334</ele><time>2026-03-29T08:00:31.379Z</time></trkpt><trkpt lat="43.255344" lon="12.2366195"><ele>615.5</ele><time>2026-03-29T08:00:32.38Z</time></trkpt><trkpt lat="43.2553612" lon="12.2367771"><ele>618.6666666666667</ele><time>2026-03-29T08:00:33.381Z</time></trkpt><trkpt lat="43.2553633" lon="12.2369013"><ele>621.8333333333334</ele><time>2026-03-29T08:00:34.381Z</time></trkpt><trkpt lat="43.2553718" lon="12.2370096"><ele>625.0</ele><time>2026-03-29T08:00:35.381Z</time></trkpt><trkpt lat="43.2553948" lon="12.2371137"><ele>625.0</ele><time>2026-03-29T08:00:36.38Z</time></trkpt><trkpt lat="43.2554154" lon="12.2372015"><ele>625.0</ele><time>2026-03-29T08:00:37.382Z</time></trkpt><trkpt lat="43.2554171" lon="12.2373095"><ele>625.0</ele><time>2026-03-29T08:00:38.38Z</time></trkpt><trkpt lat="43.2553976" lon="12.2374276"><ele>625.0</ele><time>2026-03-29T08:00:40.381Z</time></trkpt><trkpt lat="43.2553253" lon="12.2374755"><ele>625.0</ele><time>2026-03-29T08:00:43.381Z</time></trkpt><trkpt lat="43.2552198" lon="12.2375511"><ele>625.0</ele><time>2026-03-29T08:01:10.381Z</time></trkpt><trkpt lat="43.2551511" lon="12.2375533"><ele>626.5</ele><time>2026-03-29T08:01:13.38Z</time></trkpt><trkpt lat="43.2550855" lon="12.2376115"><ele>628.0</ele><time>2026-03-29T08:01:15.381Z</time></trkpt><trkpt lat="43.2550104" lon="12.2377426"><ele>629.5</ele><time>2026-03-29T08:01:17.381Z</time></trkpt><trkpt lat="43.2549439" lon="12.2378041"><ele>631.0</ele><time>2026-03-29T08:01:18.379Z</time></trkpt><trkpt lat="43.2548857" lon="12.2378459"><ele>632.5</ele><time>2026-03-29T08:01:19.38Z</time></trkpt><trkpt lat="43.2548437" lon="12.2379243"><ele>634.0</ele><time>2026-03-29T08:01:20.379Z</time></trkpt><trkpt lat="43.2547899" lon="12.2380807"><ele>633.6</ele><time>2026-03-29T08:01:22.379Z</time></trkpt><trkpt lat="43.2548081" lon="12.2382602"><ele>633.2</ele><time>2026-03-29T08:01:24.38Z</time></trkpt><trkpt lat="43.2548077" lon="12.2384033"><ele>632.8000000000001</ele><time>2026-03-29T08:01:25.379Z</time></trkpt><trkpt lat="43.2547926" lon="12.2385383"><ele>632.4</ele><time>2026-03-29T08:01:26.382Z</time></trkpt><trkpt lat="43.254783" lon="12.2386701"><ele>632.0</ele><time>2026-03-29T08:01:27.381Z</time></trkpt><trkpt lat="43.2547568" lon="12.2387559"><ele>632.0</ele><time>2026-03-29T08:01:28.381Z</time></trkpt><trkpt lat="43.254686" lon="12.2389016"><ele>632.0</ele><time>2026-03-29T08:01:30.381Z</time></trkpt><trkpt lat="43.2546511" lon="12.2390091"><ele>632.0</ele><time>2026-03-29T08:01:31.38Z</time></trkpt><trkpt lat="43.2546336" lon="12.2391236"><ele>632.0</ele><time>2026-03-29T08:01:32.381Z</time></trkpt><trkpt lat="43.2546265" lon="12.2392204"><ele>632.0</ele><time>2026-03-29T08:01:33.379Z</time></trkpt><trkpt lat="43.2545464" lon="12.2393635"><ele>633.1666666666666</ele><time>2026-03-29T08:01:35.381Z</time></trkpt><trkpt lat="43.2545048" lon="12.2394534"><ele>634.3333333333333</ele><time>2026-03-29T08:01:36.382Z</time></trkpt><trkpt lat="43.2544381" lon="12.2394916"><ele>635.5</ele><time>2026-03-29T08:01:37.38Z</time></trkpt><trkpt lat="43.2543702" lon="12.2395324"><ele>636.6666666666666</ele><time>2026-03-29T08:01:38.38Z</time></trkpt><trkpt lat="43.2542811" lon="12.2395646"><ele>637.8333333333334</ele><time>2026-03-29T08:01:39.379Z</time></trkpt><trkpt lat="43.2541882" lon="12.2395763"><ele>639.0</ele><time>2026-03-29T08:01:41.38Z</time></trkpt><trkpt lat="43.2540704" lon="12.2395818"><ele>639.0</ele><time>2026-03-29T08:01:43.38Z</time></trkpt><trkpt lat="43.254006" lon="12.2395784"><ele>639.0</ele><time>2026-03-29T08:01:44.379Z</time></trkpt><trkpt lat="43.2539175" lon="12.2395066"><ele>639.0</ele><time>2026-03-29T08:01:46.381Z</time></trkpt><trkpt lat="43.2538012" lon="12.2394355"><ele>639.0</ele><time>2026-03-29T08:01:48.381Z</time></trkpt><trkpt lat="43.2537424" lon="12.2393931"><ele>639.0</ele><time>2026-03-29T08:01:50.381Z</time></trkpt><trkpt lat="43.2536674" lon="12.2394089"><ele>639.0</ele><time>2026-03-29T08:01:52.38Z</time></trkpt><trkpt lat="43.2535761" lon="12.2394807"><ele>639.2</ele><time>2026-03-29T08:01:54.38Z</time></trkpt><trkpt lat="43.2534818" lon="12.2395412"><ele>639.4</ele><time>2026-03-29T08:01:56.38Z</time></trkpt><trkpt lat="43.2533678" lon="12.2396039"><ele>639.6</ele><time>2026-03-29T08:01:58.381Z</time></trkpt><trkpt lat="43.2532965" lon="12.2396577"><ele>639.8</ele><time>2026-03-29T08:01:59.381Z</time></trkpt><trkpt lat="43.2531854" lon="12.2397115"><ele>640.0</ele><time>2026-03-29T08:02:01.382Z</time></trkpt><trkpt lat="43.2530776" lon="12.2397257"><ele>640.0</ele><time>2026-03-29T08:02:03.379Z</time></trkpt><trkpt lat="43.2530163" lon="12.2396941"><ele>640.0</ele><time>2026-03-29T08:02:04.381Z</time></trkpt><trkpt lat="43.2529423" lon="12.2396795"><ele>640.0</ele><time>2026-03-29T08:02:05.38Z</time></trkpt><trkpt lat="43.2528194" lon="12.2396896"><ele>640.0</ele><time>2026-03-29T08:02:07.381Z</time></trkpt><trkpt lat="43.2527525" lon="12.2396966"><ele>640.0</ele><time>2026-03-29T08:02:08.381Z</time></trkpt><trkpt lat="43.2526764" lon="12.239711"><ele>640.0</ele><time>2026-03-29T08:02:09.38Z</time></trkpt><trkpt lat="43.2526043" lon="12.2397199"><ele>640.0</ele><time>2026-03-29T08:02:10.38Z</time></trkpt><trkpt lat="43.252512" lon="12.2396988"><ele>640.0</ele><time>2026-03-29T08:02:11.38Z</time></trkpt><trkpt lat="43.2524446" lon="12.2396821"><ele>640.0</ele><time>2026-03-29T08:02:12.379Z</time></trkpt><trkpt lat="43.252364" lon="12.2396605"><ele>640.0</ele><time>2026-03-29T08:02:13.382Z</time></trkpt><trkpt lat="43.252258" lon="12.2396442"><ele>640.0</ele><time>2026-03-29T08:02:15.381Z</time></trkpt><trkpt lat="43.2521856" lon="12.2396387"><ele>640.0</ele><time>2026-03-29T08:02:16.381Z</time></trkpt><trkpt lat="43.2520592" lon="12.2395968"><ele>641.3333333333334</ele><time>2026-03-29T08:02:18.379Z</time></trkpt><trkpt lat="43.2519891" lon="12.2395643"><ele>642.6666666666667</ele><time>2026-03-29T08:02:19.381Z</time></trkpt><trkpt lat="43.2519132" lon="12.2395299"><ele>644.0</ele><time>2026-03-29T08:02:20.382Z</time></trkpt><trkpt lat="43.2518345" lon="12.2395069"><ele>645.3333333333334</ele><time>2026-03-29T08:02:21.38Z</time></trkpt><trkpt lat="43.2517527" lon="12.2394737"><ele>646.6666666666666</ele><time>2026-03-29T08:02:22.381Z</time></trkpt><trkpt lat="43.2516895" lon="12.2394325"><ele>648.0</ele><time>2026-03-29T08:02:23.38Z</time></trkpt><trkpt lat="43.2516125" lon="12.239398"><ele>648.0</ele><time>2026-03-29T08:02:24.381Z</time></trkpt><trkpt lat="43.2515284" lon="12.2392928"><ele>648.0</ele><time>2026-03-29T08:02:26.38Z</time></trkpt><trkpt lat="43.2514508" lon="12.2392013"><ele>648.0</ele><time>2026-03-29T08:05:56.383Z</time></trkpt><trkpt lat="43.2513963" lon="12.2391509"><ele>648.0</ele><time>2026-03-29T08:05:58.38Z</time></trkpt><trkpt lat="43.2513613" lon="12.2390017"><ele>648.0</ele><time>2026-03-29T08:06:00.381Z</time></trkpt><trkpt lat="43.2513426" lon="12.2388952"><ele>648.0</ele><time>2026-03-29T08:06:01.381Z</time></trkpt><trkpt lat="43.251319" lon="12.2388072"><ele>648.0</ele><time>2026-03-29T08:06:02.381Z</time></trkpt><trkpt lat="43.2512553" lon="12.2387168"><ele>648.0</ele><time>2026-03-29T08:06:03.382Z</time></trkpt><trkpt lat="43.2511917" lon="12.2386534"><ele>648.0</ele><time>2026-03-29T08:06:04.382Z</time></trkpt><trkpt lat="43.251127" lon="12.2385963"><ele>648.0</ele><time>2026-03-29T08:06:05.38Z</time></trkpt><trkpt lat="43.2510335" lon="12.2385408"><ele>648.0</ele><time>2026-03-29T08:06:06.38Z</time></trkpt><trkpt lat="43.2509504" lon="12.2384858"><ele>648.0</ele><time>2026-03-29T08:06:07.382Z</time></trkpt><trkpt lat="43.2508612" lon="12.2384631"><ele>648.0</ele><time>2026-03-29T08:06:08.381Z</time></trkpt><trkpt lat="43.2507731" lon="12.2384583"><ele>648.0</ele><time>2026-03-29T08:06:09.383Z</time></trkpt><trkpt lat="43.2506772" lon="12.2384619"><ele>648.0</ele><time>2026-03-29T08:06:10.382Z</time></trkpt><trkpt lat="43.2505679" lon="12.2384659"><ele>648.0</ele><time>2026-03-29T08:06:11.381Z</time></trkpt><trkpt lat="43.250466" lon="12.2384696"><ele>648.2</ele><time>2026-03-29T08:06:12.381Z</time></trkpt><trkpt lat="43.2503489" lon="12.2384931"><ele>648.4</ele><time>2026-03-29T08:06:13.381Z</time></trkpt><trkpt lat="43.2502422" lon="12.2385009"><ele>648.6</ele><time>2026-03-29T08:06:14.38Z</time></trkpt><trkpt lat="43.2501389" lon="12.2385167"><ele>648.8000000000001</ele><time>2026-03-29T08:06:15.381Z</time></trkpt><trkpt lat="43.2500378" lon="12.2385315"><ele>649.0</ele><time>2026-03-29T08:06:16.381Z</time></trkpt><trkpt lat="43.2499433" lon="12.238537"><ele>649.0</ele><time>2026-03-29T08:06:17.383Z</time></trkpt><trkpt lat="43.2498433" lon="12.2385003"><ele>649.0</ele><time>2026-03-29T08:06:18.382Z</time></trkpt><trkpt lat="43.2497457" lon="12.2384457"><ele>649.0</ele><time>2026-03-29T08:06:19.382Z</time></trkpt><trkpt lat="43.2496492" lon="12.2383813"><ele>649.0</ele><time>2026-03-29T08:06:20.381Z</time></trkpt><trkpt lat="43.2495778" lon="12.2382783"><ele>649.0</ele><time>2026-03-29T08:06:21.381Z</time></trkpt><trkpt lat="43.2495007" lon="12.2381913"><ele>648.6</ele><time>2026-03-29T08:06:22.38Z</time></trkpt><trkpt lat="43.2494189" lon="12.2381127"><ele>648.2</ele><time>2026-03-29T08:06:23.382Z</time></trkpt><trkpt lat="43.2493398" lon="12.2380402"><ele>647.8000000000001</ele><time>2026-03-29T08:06:24.382Z</time></trkpt><trkpt lat="43.2492756" lon="12.2379445"><ele>647.4000000000001</ele><time>2026-03-29T08:06:25.382Z</time></trkpt><trkpt lat="43.2492314" lon="12.237829"><ele>647.0</ele><time>2026-03-29T08:06:26.381Z</time></trkpt><trkpt lat="43.249155" lon="12.2376966"><ele>647.0</ele><time>2026-03-29T08:06:27.381Z</time></trkpt><trkpt lat="43.2490669" lon="12.2375829"><ele>647.0</ele><time>2026-03-29T08:06:28.382Z</time></trkpt><trkpt lat="43.2490084" lon="12.2374511"><ele>647.0</ele><time>2026-03-29T08:06:29.382Z</time></trkpt><trkpt lat="43.2489477" lon="12.2373157"><ele>647.0</ele><time>2026-03-29T08:06:30.381Z</time></trkpt><trkpt lat="43.2489182" lon="12.2371596"><ele>648.2</ele><time>2026-03-29T08:06:31.381Z</time></trkpt><trkpt lat="43.2488937" lon="12.2370242"><ele>649.4000000000001</ele><time>2026-03-29T08:06:32.382Z</time></trkpt><trkpt lat="43.2489009" lon="12.2368791"><ele>650.5999999999999</ele><time>2026-03-29T08:06:33.382Z</time></trkpt><trkpt lat="43.2488994" lon="12.2367437"><ele>651.8</ele><time>2026-03-29T08:06:34.381Z</time></trkpt><trkpt lat="43.2488815" lon="12.2366076"><ele>653.0</ele><time>2026-03-29T08:06:35.381Z</time></trkpt><trkpt lat="43.2488302" lon="12.2364532"><ele>650.4</ele><time>2026-03-29T08:06:36.38Z</time></trkpt><trkpt lat="43.2487815" lon="12.2363017"><ele>647.8</ele><time>2026-03-29T08:06:37.381Z</time></trkpt><trkpt lat="43.2487322" lon="12.2361681"><ele>645.2</ele><time>2026-03-29T08:06:38.381Z</time></trkpt><trkpt lat="43.2486795" lon="12.2360595"><ele>642.6</ele><time>2026-03-29T08:06:39.382Z</time></trkpt><trkpt lat="43.2486371" lon="12.2359619"><ele>640.0</ele><time>2026-03-29T08:06:40.381Z</time></trkpt><trkpt lat="43.2485601" lon="12.2358885"><ele>640.0</ele><time>2026-03-29T08:06:41.382Z</time></trkpt><trkpt lat="43.2484768" lon="12.2358076"><ele>640.0</ele><time>2026-03-29T08:06:42.382Z</time></trkpt><trkpt lat="43.2484062" lon="12.2357356"><ele>640.0</ele><time>2026-03-29T08:06:43.382Z</time></trkpt><trkpt lat="43.2483461" lon="12.2356987"><ele>640.0</ele><time>2026-03-29T08:06:44.381Z</time></trkpt><trkpt lat="43.2482624" lon="12.2356069"><ele>640.0</ele><time>2026-03-29T08:06:46.382Z</time></trkpt><trkpt lat="43.2482201" lon="12.2355414"><ele>640.0</ele><time>2026-03-29T08:06:47.38Z</time></trkpt><trkpt lat="43.2481789" lon="12.2354423"><ele>638.1666666666667</ele><time>2026-03-29T08:06:48.382Z</time></trkpt><trkpt lat="43.248144" lon="12.2353403"><ele>636.3333333333334</ele><time>2026-03-29T08:06:49.381Z</time></trkpt><trkpt lat="43.2481121" lon="12.235228"><ele>634.5</ele><time>2026-03-29T08:06:50.382Z</time></trkpt><trkpt lat="43.2480811" lon="12.2351188"><ele>632.6666666666666</ele><time>2026-03-29T08:06:51.38Z</time></trkpt><trkpt lat="43.2480571" lon="12.235009"><ele>630.8333333333333</ele><time>2026-03-29T08:06:52.382Z</time></trkpt><trkpt lat="43.2480215" lon="12.2349184"><ele>629.0</ele><time>2026-03-29T08:06:53.381Z</time></trkpt><trkpt lat="43.2479547" lon="12.2348347"><ele>628.6</ele><time>2026-03-29T08:06:54.382Z</time></trkpt><trkpt lat="43.2478985" lon="12.2347449"><ele>628.2</ele><time>2026-03-29T08:06:55.382Z</time></trkpt><trkpt lat="43.2478436" lon="12.2346607"><ele>627.8000000000001</ele><time>2026-03-29T08:06:56.382Z</time></trkpt><trkpt lat="43.247771" lon="12.2345941"><ele>627.4</ele><time>2026-03-29T08:06:57.381Z</time></trkpt><trkpt lat="43.247687" lon="12.2345008"><ele>627.0</ele><time>2026-03-29T08:06:58.381Z</time></trkpt><trkpt lat="43.2476179" lon="12.2343819"><ele>627.0</ele><time>2026-03-29T08:06:59.381Z</time></trkpt><trkpt lat="43.2475464" lon="12.2342847"><ele>627.0</ele><time>2026-03-29T08:07:00.38Z</time></trkpt><trkpt lat="43.2474876" lon="12.2341793"><ele>627.0</ele><time>2026-03-29T08:07:01.382Z</time></trkpt><trkpt lat="43.2474365" lon="12.2340656"><ele>627.0</ele><time>2026-03-29T08:07:02.381Z</time></trkpt><trkpt lat="43.2474049" lon="12.2339383"><ele>627.0</ele><time>2026-03-29T08:07:03.382Z</time></trkpt><trkpt lat="43.2473687" lon="12.2338096"><ele>628.2</ele><time>2026-03-29T08:07:04.382Z</time></trkpt><trkpt lat="43.2473302" lon="12.2336804"><ele>629.4000000000001</ele><time>2026-03-29T08:07:05.383Z</time></trkpt><trkpt lat="43.2472922" lon="12.2335622"><ele>630.5999999999999</ele><time>2026-03-29T08:07:06.382Z</time></trkpt><trkpt lat="43.2472654" lon="12.2334481"><ele>631.8</ele><time>2026-03-29T08:07:07.382Z</time></trkpt><trkpt lat="43.2472471" lon="12.2333368"><ele>633.0</ele><time>2026-03-29T08:07:08.383Z</time></trkpt><trkpt lat="43.2472316" lon="12.2332188"><ele>629.5</ele><time>2026-03-29T08:07:09.381Z</time></trkpt><trkpt lat="43.2472063" lon="12.2331029"><ele>626.0</ele><time>2026-03-29T08:07:10.382Z</time></trkpt><trkpt lat="43.2471745" lon="12.2329949"><ele>622.5</ele><time>2026-03-29T08:07:11.382Z</time></trkpt><trkpt lat="43.2471329" lon="12.2328899"><ele>619.0</ele><time>2026-03-29T08:07:12.382Z</time></trkpt><trkpt lat="43.2470904" lon="12.2328206"><ele>615.5</ele><time>2026-03-29T08:07:13.381Z</time></trkpt><trkpt lat="43.2470431" lon="12.2327265"><ele>612.0</ele><time>2026-03-29T08:07:14.381Z</time></trkpt><trkpt lat="43.2469905" lon="12.2326308"><ele>612.0</ele><time>2026-03-29T08:07:15.381Z</time></trkpt><trkpt lat="43.2469427" lon="12.2325243"><ele>612.0</ele><time>2026-03-29T08:07:16.382Z</time></trkpt><trkpt lat="43.2469019" lon="12.2324001"><ele>612.0</ele><time>2026-03-29T08:07:17.381Z</time></trkpt><trkpt lat="43.2468614" lon="12.2322767"><ele>612.0</ele><time>2026-03-29T08:07:18.382Z</time></trkpt><trkpt lat="43.2468235" lon="12.2321636"><ele>612.0</ele><time>2026-03-29T08:07:19.382Z</time></trkpt><trkpt lat="43.2467979" lon="12.2320757"><ele>612.0</ele><time>2026-03-29T08:07:20.381Z</time></trkpt><trkpt lat="43.2467593" lon="12.2319857"><ele>612.6666666666666</ele><time>2026-03-29T08:07:21.381Z</time></trkpt><trkpt lat="43.246711" lon="12.2318849"><ele>613.3333333333334</ele><time>2026-03-29T08:07:22.381Z</time></trkpt><trkpt lat="43.2466677" lon="12.2317979"><ele>614.0</ele><time>2026-03-29T08:07:23.382Z</time></trkpt><trkpt lat="43.2466198" lon="12.2316982"><ele>614.6666666666667</ele><time>2026-03-29T08:07:24.381Z</time></trkpt><trkpt lat="43.2465746" lon="12.231623"><ele>615.3333333333334</ele><time>2026-03-29T08:07:25.382Z</time></trkpt><trkpt lat="43.2465374" lon="12.2315394"><ele>616.0</ele><time>2026-03-29T08:07:26.38Z</time></trkpt><trkpt lat="43.2464852" lon="12.231456"><ele>612.4</ele><time>2026-03-29T08:07:27.38Z</time></trkpt><trkpt lat="43.2464258" lon="12.2313658"><ele>608.8</ele><time>2026-03-29T08:07:28.382Z</time></trkpt><trkpt lat="43.2463436" lon="12.2312925"><ele>605.1999999999999</ele><time>2026-03-29T08:07:29.382Z</time></trkpt><trkpt lat="43.2462662" lon="12.2312279"><ele>601.6</ele><time>2026-03-29T08:07:30.381Z</time></trkpt><trkpt lat="43.246183" lon="12.2311532"><ele>598.0</ele><time>2026-03-29T08:07:31.38Z</time></trkpt><trkpt lat="43.2461074" lon="12.2310761"><ele>598.0</ele><time>2026-03-29T08:07:32.382Z</time></trkpt><trkpt lat="43.2460258" lon="12.2310171"><ele>598.0</ele><time>2026-03-29T08:07:33.381Z</time></trkpt><trkpt lat="43.2459465" lon="12.230951"><ele>598.0</ele><time>2026-03-29T08:07:34.381Z</time></trkpt><trkpt lat="43.2458717" lon="12.2308963"><ele>598.0</ele><time>2026-03-29T08:07:35.382Z</time></trkpt><trkpt lat="43.245796" lon="12.2308348"><ele>598.0</ele><time>2026-03-29T08:07:36.382Z</time></trkpt><trkpt lat="43.245719" lon="12.2307518"><ele>598.0</ele><time>2026-03-29T08:07:37.382Z</time></trkpt><trkpt lat="43.2456326" lon="12.230674"><ele>598.0</ele><time>2026-03-29T08:07:38.381Z</time></trkpt><trkpt lat="43.2455477" lon="12.230597"><ele>598.0</ele><time>2026-03-29T08:07:39.382Z</time></trkpt><trkpt lat="43.2454703" lon="12.2305073"><ele>598.0</ele><time>2026-03-29T08:07:40.38Z</time></trkpt><trkpt lat="43.2453957" lon="12.2304239"><ele>598.0</ele><time>2026-03-29T08:07:41.383Z</time></trkpt><trkpt lat="43.2453276" lon="12.2303462"><ele>596.1999999999999</ele><time>2026-03-29T08:07:42.382Z</time></trkpt><trkpt lat="43.2452629" lon="12.2302751"><ele>594.4</ele><time>2026-03-29T08:07:43.381Z</time></trkpt><trkpt lat="43.2451929" lon="12.2302162"><ele>592.5999999999999</ele><time>2026-03-29T08:07:44.383Z</time></trkpt><trkpt lat="43.2451198" lon="12.23016"><ele>590.8</ele><time>2026-03-29T08:07:45.382Z</time></trkpt><trkpt lat="43.2450349" lon="12.2300907"><ele>589.0</ele><time>2026-03-29T08:07:46.382Z</time></trkpt><trkpt lat="43.2449463" lon="12.2299889"><ele>589.0</ele><time>2026-03-29T08:07:47.38Z</time></trkpt><trkpt lat="43.2448423" lon="12.2298736"><ele>589.0</ele><time>2026-03-29T08:07:48.381Z</time></trkpt><trkpt lat="43.2447235" lon="12.2297466"><ele>589.0</ele><time>2026-03-29T08:07:49.381Z</time></trkpt><trkpt lat="43.2446083" lon="12.2296306"><ele>589.0</ele><time>2026-03-29T08:07:50.383Z</time></trkpt><trkpt lat="43.2444967" lon="12.2295174"><ele>586.25</ele><time>2026-03-29T08:07:51.383Z</time></trkpt><trkpt lat="43.2443906" lon="12.2293974"><ele>583.5</ele><time>2026-03-29T08:07:52.383Z</time></trkpt><trkpt lat="43.244298" lon="12.2292766"><ele>580.75</ele><time>2026-03-29T08:07:53.382Z</time></trkpt><trkpt lat="43.2442384" lon="12.2291476"><ele>578.0</ele><time>2026-03-29T08:07:54.381Z</time></trkpt><trkpt lat="43.2442103" lon="12.2290251"><ele>577.0</ele><time>2026-03-29T08:07:55.381Z</time></trkpt><trkpt lat="43.2442088" lon="12.2289038"><ele>576.0</ele><time>2026-03-29T08:07:56.382Z</time></trkpt><trkpt lat="43.2442423" lon="12.228788"><ele>575.0</ele><time>2026-03-29T08:07:57.383Z</time></trkpt><trkpt lat="43.2442971" lon="12.2286718"><ele>574.0</ele><time>2026-03-29T08:07:58.381Z</time></trkpt><trkpt lat="43.2443666" lon="12.2285448"><ele>573.0</ele><time>2026-03-29T08:07:59.382Z</time></trkpt><trkpt lat="43.2444517" lon="12.2284125"><ele>573.0</ele><time>2026-03-29T08:08:00.383Z</time></trkpt><trkpt lat="43.2445202" lon="12.2282669"><ele>573.0</ele><time>2026-03-29T08:08:01.38Z</time></trkpt><trkpt lat="43.2445823" lon="12.2281251"><ele>573.0</ele><time>2026-03-29T08:08:02.382Z</time></trkpt><trkpt lat="43.2446303" lon="12.2279764"><ele>573.0</ele><time>2026-03-29T08:08:03.382Z</time></trkpt><trkpt lat="43.24465" lon="12.227822"><ele>573.0</ele><time>2026-03-29T08:08:04.383Z</time></trkpt><trkpt lat="43.2446424" lon="12.2276707"><ele>573.0</ele><time>2026-03-29T08:08:05.382Z</time></trkpt><trkpt lat="43.2446086" lon="12.2275301"><ele>573.0</ele><time>2026-03-29T08:08:06.382Z</time></trkpt><trkpt lat="43.2445627" lon="12.2273939"><ele>573.0</ele><time>2026-03-29T08:08:07.382Z</time></trkpt><trkpt lat="43.2444926" lon="12.2272645"><ele>573.0</ele><time>2026-03-29T08:08:08.382Z</time></trkpt><trkpt lat="43.2444237" lon="12.2271357"><ele>573.0</ele><time>2026-03-29T08:08:09.382Z</time></trkpt><trkpt lat="43.2443405" lon="12.2269956"><ele>573.0</ele><time>2026-03-29T08:08:10.382Z</time></trkpt><trkpt lat="43.2442546" lon="12.2268489"><ele>573.0</ele><time>2026-03-29T08:08:11.382Z</time></trkpt><trkpt lat="43.2441669" lon="12.2267006"><ele>573.0</ele><time>2026-03-29T08:08:12.382Z</time></trkpt><trkpt lat="43.2440858" lon="12.2265539"><ele>573.1999999999999</ele><time>2026-03-29T08:08:13.382Z</time></trkpt><trkpt lat="43.2440123" lon="12.2264139"><ele>573.4</ele><time>2026-03-29T08:08:14.383Z</time></trkpt><trkpt lat="43.2439531" lon="12.226291"><ele>573.5999999999999</ele><time>2026-03-29T08:08:15.382Z</time></trkpt><trkpt lat="43.243911" lon="12.2261835"><ele>573.8</ele><time>2026-03-29T08:08:16.382Z</time></trkpt><trkpt lat="43.2438829" lon="12.2260892"><ele>574.0</ele><time>2026-03-29T08:08:17.381Z</time></trkpt><trkpt lat="43.2438595" lon="12.2260071"><ele>575.6666666666667</ele><time>2026-03-29T08:08:18.382Z</time></trkpt><trkpt lat="43.2437945" lon="12.2258956"><ele>577.3333333333334</ele><time>2026-03-29T08:08:20.382Z</time></trkpt><trkpt lat="43.2437233" lon="12.2258299"><ele>579.0</ele><time>2026-03-29T08:08:22.382Z</time></trkpt><trkpt lat="43.2436603" lon="12.2257799"><ele>580.6666666666666</ele><time>2026-03-29T08:08:25.382Z</time></trkpt><trkpt lat="43.2436002" lon="12.2257534"><ele>582.3333333333333</ele><time>2026-03-29T08:08:29.382Z</time></trkpt><trkpt lat="43.2435066" lon="12.2257249"><ele>584.0</ele><time>2026-03-29T08:08:32.382Z</time></trkpt><trkpt lat="43.2433936" lon="12.2257138"><ele>584.0</ele><time>2026-03-29T08:08:34.383Z</time></trkpt><trkpt lat="43.2433191" lon="12.2256876"><ele>584.0</ele><time>2026-03-29T08:08:35.382Z</time></trkpt><trkpt lat="43.243239" lon="12.2256599"><ele>584.0</ele><time>2026-03-29T08:08:36.383Z</time></trkpt><trkpt lat="43.2431595" lon="12.2256195"><ele>584.0</ele><time>2026-03-29T08:08:37.382Z</time></trkpt><trkpt lat="43.2430647" lon="12.2255796"><ele>584.0</ele><time>2026-03-29T08:08:38.383Z</time></trkpt><trkpt lat="43.2429673" lon="12.225532"><ele>584.0</ele><time>2026-03-29T08:08:39.382Z</time></trkpt><trkpt lat="43.242883" lon="12.2254768"><ele>589.4</ele><time>2026-03-29T08:08:40.382Z</time></trkpt><trkpt lat="43.2427859" lon="12.2254112"><ele>594.8</ele><time>2026-03-29T08:08:41.382Z</time></trkpt><trkpt lat="43.2426779" lon="12.2253334"><ele>600.2</ele><time>2026-03-29T08:08:42.384Z</time></trkpt><trkpt lat="43.2425774" lon="12.2252484"><ele>605.6</ele><time>2026-03-29T08:08:43.383Z</time></trkpt><trkpt lat="43.2424937" lon="12.2251777"><ele>611.0</ele><time>2026-03-29T08:08:44.382Z</time></trkpt><trkpt lat="43.2424176" lon="12.2251069"><ele>611.0</ele><time>2026-03-29T08:08:45.383Z</time></trkpt><trkpt lat="43.242352" lon="12.2250445"><ele>611.0</ele><time>2026-03-29T08:08:46.382Z</time></trkpt><trkpt lat="43.2422818" lon="12.2250404"><ele>611.0</ele><time>2026-03-29T08:08:47.381Z</time></trkpt><trkpt lat="43.2422377" lon="12.2249076"><ele>611.0</ele><time>2026-03-29T08:08:49.382Z</time></trkpt><trkpt lat="43.2421705" lon="12.2247843"><ele>611.0</ele><time>2026-03-29T08:08:51.382Z</time></trkpt><trkpt lat="43.2420581" lon="12.2247312"><ele>611.3333333333333</ele><time>2026-03-29T08:08:53.382Z</time></trkpt><trkpt lat="43.2419936" lon="12.2247091"><ele>611.6666666666666</ele><time>2026-03-29T08:08:54.382Z</time></trkpt><trkpt lat="43.2419262" lon="12.2246688"><ele>612.0</ele><time>2026-03-29T08:08:55.383Z</time></trkpt><trkpt lat="43.2418662" lon="12.2246152"><ele>612.3333333333334</ele><time>2026-03-29T08:08:56.382Z</time></trkpt><trkpt lat="43.2418123" lon="12.2245656"><ele>612.6666666666667</ele><time>2026-03-29T08:08:57.382Z</time></trkpt><trkpt lat="43.2417381" lon="12.2244347"><ele>613.0</ele><time>2026-03-29T08:08:59.382Z</time></trkpt><trkpt lat="43.2417342" lon="12.2243462"><ele>613.0</ele><time>2026-03-29T08:09:01.38Z</time></trkpt><trkpt lat="43.2417256" lon="12.2242345"><ele>613.0</ele><time>2026-03-29T08:09:04.382Z</time></trkpt><trkpt lat="43.2417168" lon="12.2243338"><ele>613.0</ele><time>2026-03-29T08:09:11.382Z</time></trkpt><trkpt lat="43.2417716" lon="12.2242136"><ele>613.0</ele><time>2026-03-29T08:09:14.382Z</time></trkpt><trkpt lat="43.2417866" lon="12.224123"><ele>613.0</ele><time>2026-03-29T08:09:15.383Z</time></trkpt><trkpt lat="43.2417958" lon="12.2240251"><ele>613.0</ele><time>2026-03-29T08:09:16.382Z</time></trkpt><trkpt lat="43.2418176" lon="12.2239329"><ele>615.0</ele><time>2026-03-29T08:09:17.382Z</time></trkpt><trkpt lat="43.2418379" lon="12.2238266"><ele>617.0</ele><time>2026-03-29T08:09:18.381Z</time></trkpt><trkpt lat="43.2418544" lon="12.223684"><ele>619.0</ele><time>2026-03-29T08:09:20.382Z</time></trkpt><trkpt lat="43.2418241" lon="12.223574"><ele>621.0</ele><time>2026-03-29T08:09:22.383Z</time></trkpt><trkpt lat="43.2418007" lon="12.2234524"><ele>623.0</ele><time>2026-03-29T08:09:25.382Z</time></trkpt><trkpt lat="43.2417566" lon="12.2233773"><ele>625.0</ele><time>2026-03-29T08:09:26.382Z</time></trkpt><trkpt lat="43.241644" lon="12.2232644"><ele>625.0</ele><time>2026-03-29T08:09:28.383Z</time></trkpt><trkpt lat="43.2415498" lon="12.2231648"><ele>625.0</ele><time>2026-03-29T08:09:30.381Z</time></trkpt><trkpt lat="43.2415428" lon="12.2230632"><ele>625.0</ele><time>2026-03-29T08:09:32.382Z</time></trkpt><trkpt lat="43.2415058" lon="12.2229638"><ele>625.0</ele><time>2026-03-29T08:09:36.381Z</time></trkpt><trkpt lat="43.2414392" lon="12.222919"><ele>625.0</ele><time>2026-03-29T08:09:37.382Z</time></trkpt><trkpt lat="43.2413456" lon="12.2229046"><ele>625.0</ele><time>2026-03-29T08:09:39.381Z</time></trkpt><trkpt lat="43.2412688" lon="12.2228615"><ele>621.4</ele><time>2026-03-29T08:09:42.382Z</time></trkpt><trkpt lat="43.2412518" lon="12.2227324"><ele>617.8</ele><time>2026-03-29T08:09:46.382Z</time></trkpt><trkpt lat="43.2412637" lon="12.2226027"><ele>614.2</ele><time>2026-03-29T08:09:48.382Z</time></trkpt><trkpt lat="43.2412878" lon="12.2224904"><ele>610.6</ele><time>2026-03-29T08:09:50.382Z</time></trkpt><trkpt lat="43.2412617" lon="12.2223868"><ele>607.0</ele><time>2026-03-29T08:09:52.383Z</time></trkpt><trkpt lat="43.2411562" lon="12.2223431"><ele>607.0</ele><time>2026-03-29T08:09:54.381Z</time></trkpt><trkpt lat="43.2410895" lon="12.2223593"><ele>607.0</ele><time>2026-03-29T08:09:55.383Z</time></trkpt><trkpt lat="43.2410073" lon="12.2223852"><ele>607.0</ele><time>2026-03-29T08:09:56.382Z</time></trkpt><trkpt lat="43.2409147" lon="12.2224192"><ele>607.0</ele><time>2026-03-29T08:09:57.383Z</time></trkpt><trkpt lat="43.240825" lon="12.2224442"><ele>607.0</ele><time>2026-03-29T08:09:58.383Z</time></trkpt><trkpt lat="43.2407142" lon="12.2224983"><ele>605.2</ele><time>2026-03-29T08:09:59.381Z</time></trkpt><trkpt lat="43.2406001" lon="12.2225435"><ele>603.4000000000001</ele><time>2026-03-29T08:10:00.383Z</time></trkpt><trkpt lat="43.2404941" lon="12.2225866"><ele>601.5999999999999</ele><time>2026-03-29T08:10:01.382Z</time></trkpt><trkpt lat="43.2403913" lon="12.2226214"><ele>599.8</ele><time>2026-03-29T08:10:02.381Z</time></trkpt><trkpt lat="43.2402905" lon="12.2226414"><ele>598.0</ele><time>2026-03-29T08:10:03.382Z</time></trkpt><trkpt lat="43.2401988" lon="12.222651"><ele>598.0</ele><time>2026-03-29T08:10:04.382Z</time></trkpt><trkpt lat="43.2401097" lon="12.2226404"><ele>598.0</ele><time>2026-03-29T08:10:05.381Z</time></trkpt><trkpt lat="43.2400171" lon="12.2226098"><ele>598.0</ele><time>2026-03-29T08:10:06.382Z</time></trkpt><trkpt lat="43.2399154" lon="12.2225659"><ele>598.0</ele><time>2026-03-29T08:10:07.382Z</time></trkpt><trkpt lat="43.2398201" lon="12.2225082"><ele>598.0</ele><time>2026-03-29T08:10:08.381Z</time></trkpt><trkpt lat="43.2397196" lon="12.2224464"><ele>597.0</ele><time>2026-03-29T08:10:09.383Z</time></trkpt><trkpt lat="43.2396184" lon="12.2223773"><ele>596.0</ele><time>2026-03-29T08:10:10.382Z</time></trkpt><trkpt lat="43.2395163" lon="12.2223066"><ele>595.0</ele><time>2026-03-29T08:10:11.382Z</time></trkpt><trkpt lat="43.2394143" lon="12.2222435"><ele>594.0</ele><time>2026-03-29T08:10:12.383Z</time></trkpt><trkpt lat="43.2393064" lon="12.2221831"><ele>594.0</ele><time>2026-03-29T08:10:13.381Z</time></trkpt><trkpt lat="43.2391915" lon="12.2221179"><ele>594.0</ele><time>2026-03-29T08:10:14.382Z</time></trkpt><trkpt lat="43.2390799" lon="12.222051"><ele>594.0</ele><time>2026-03-29T08:10:15.383Z</time></trkpt><trkpt lat="43.2389633" lon="12.2219941"><ele>594.0</ele><time>2026-03-29T08:10:16.382Z</time></trkpt><trkpt lat="43.2388491" lon="12.2219262"><ele>596.5</ele><time>2026-03-29T08:10:17.382Z</time></trkpt><trkpt lat="43.2387366" lon="12.221863"><ele>599.0</ele><time>2026-03-29T08:10:18.381Z</time></trkpt><trkpt lat="43.2386214" lon="12.2217932"><ele>601.5</ele><time>2026-03-29T08:10:19.382Z</time></trkpt><trkpt lat="43.2384977" lon="12.2217184"><ele>604.0</ele><time>2026-03-29T08:10:20.381Z</time></trkpt><trkpt lat="43.2383854" lon="12.2216474"><ele>604.0</ele><time>2026-03-29T08:10:21.383Z</time></trkpt><trkpt lat="43.2382706" lon="12.221576"><ele>604.0</ele><time>2026-03-29T08:10:22.383Z</time></trkpt><trkpt lat="43.2381609" lon="12.2215019"><ele>604.0</ele><time>2026-03-29T08:10:23.382Z</time></trkpt><trkpt lat="43.2380461" lon="12.2214243"><ele>604.0</ele><time>2026-03-29T08:10:24.383Z</time></trkpt><trkpt lat="43.2379463" lon="12.2213517"><ele>601.2</ele><time>2026-03-29T08:10:25.382Z</time></trkpt><trkpt lat="43.2378456" lon="12.221295"><ele>598.4</ele><time>2026-03-29T08:10:26.382Z</time></trkpt><trkpt lat="43.2377403" lon="12.2212504"><ele>595.6</ele><time>2026-03-29T08:10:27.383Z</time></trkpt><trkpt lat="43.2376323" lon="12.2212121"><ele>592.8</ele><time>2026-03-29T08:10:28.381Z</time></trkpt><trkpt lat="43.2375227" lon="12.2211985"><ele>590.0</ele><time>2026-03-29T08:10:29.381Z</time></trkpt><trkpt lat="43.2374079" lon="12.221181"><ele>588.6</ele><time>2026-03-29T08:10:30.381Z</time></trkpt><trkpt lat="43.2372962" lon="12.2211577"><ele>587.2</ele><time>2026-03-29T08:10:31.382Z</time></trkpt><trkpt lat="43.2371858" lon="12.2211375"><ele>585.8</ele><time>2026-03-29T08:10:32.383Z</time></trkpt><trkpt lat="43.2370751" lon="12.2211184"><ele>584.4</ele><time>2026-03-29T08:10:33.382Z</time></trkpt><trkpt lat="43.2369634" lon="12.2210994"><ele>583.0</ele><time>2026-03-29T08:10:34.384Z</time></trkpt><trkpt lat="43.2368486" lon="12.2210736"><ele>583.0</ele><time>2026-03-29T08:10:35.382Z</time></trkpt><trkpt lat="43.2367406" lon="12.2210386"><ele>583.0</ele><time>2026-03-29T08:10:36.382Z</time></trkpt><trkpt lat="43.2366431" lon="12.220991"><ele>583.0</ele><time>2026-03-29T08:10:37.383Z</time></trkpt><trkpt lat="43.2365539" lon="12.2209221"><ele>583.0</ele><time>2026-03-29T08:10:38.382Z</time></trkpt><trkpt lat="43.2364769" lon="12.2208395"><ele>583.0</ele><time>2026-03-29T08:10:39.383Z</time></trkpt><trkpt lat="43.2364021" lon="12.2207345"><ele>579.0</ele><time>2026-03-29T08:10:40.381Z</time></trkpt><trkpt lat="43.2363375" lon="12.2206007"><ele>575.0</ele><time>2026-03-29T08:10:41.381Z</time></trkpt><trkpt lat="43.2362915" lon="12.2204339"><ele>571.0</ele><time>2026-03-29T08:10:42.381Z</time></trkpt><trkpt lat="43.2362465" lon="12.2202733"><ele>567.0</ele><time>2026-03-29T08:10:43.382Z</time></trkpt><trkpt lat="43.2362032" lon="12.2201195"><ele>567.0</ele><time>2026-03-29T08:10:44.381Z</time></trkpt><trkpt lat="43.2361644" lon="12.2199545"><ele>567.0</ele><time>2026-03-29T08:10:45.384Z</time></trkpt><trkpt lat="43.2361292" lon="12.2198003"><ele>567.0</ele><time>2026-03-29T08:10:46.382Z</time></trkpt><trkpt lat="43.2361038" lon="12.2196355"><ele>567.0</ele><time>2026-03-29T08:10:47.382Z</time></trkpt><trkpt lat="43.2360744" lon="12.2194842"><ele>567.0</ele><time>2026-03-29T08:10:48.382Z</time></trkpt><trkpt lat="43.2360511" lon="12.2193399"><ele>567.0</ele><time>2026-03-29T08:10:49.382Z</time></trkpt><trkpt lat="43.2360407" lon="12.2191883"><ele>567.0</ele><time>2026-03-29T08:10:50.382Z</time></trkpt><trkpt lat="43.2360064" lon="12.2190499"><ele>567.0</ele><time>2026-03-29T08:10:51.382Z</time></trkpt><trkpt lat="43.2359579" lon="12.2189087"><ele>567.0</ele><time>2026-03-29T08:10:52.382Z</time></trkpt><trkpt lat="43.2358922" lon="12.2187845"><ele>567.25</ele><time>2026-03-29T08:10:53.382Z</time></trkpt><trkpt lat="43.2358138" lon="12.2186735"><ele>567.5</ele><time>2026-03-29T08:10:54.383Z</time></trkpt><trkpt lat="43.2357341" lon="12.218567"><ele>567.75</ele><time>2026-03-29T08:10:55.381Z</time></trkpt><trkpt lat="43.2356307" lon="12.2184798"><ele>568.0</ele><time>2026-03-29T08:10:56.383Z</time></trkpt><trkpt lat="43.2355258" lon="12.218391"><ele>567.0</ele><time>2026-03-29T08:10:57.381Z</time></trkpt><trkpt lat="43.2354094" lon="12.2183344"><ele>566.0</ele><time>2026-03-29T08:10:58.382Z</time></trkpt><trkpt lat="43.2353042" lon="12.2182662"><ele>565.0</ele><time>2026-03-29T08:10:59.382Z</time></trkpt><trkpt lat="43.2351914" lon="12.2182009"><ele>564.0</ele><time>2026-03-29T08:11:00.383Z</time></trkpt><trkpt lat="43.2350808" lon="12.2181291"><ele>564.0</ele><time>2026-03-29T08:11:01.383Z</time></trkpt><trkpt lat="43.2349674" lon="12.218053"><ele>564.0</ele><time>2026-03-29T08:11:02.384Z</time></trkpt><trkpt lat="43.2348563" lon="12.2179524"><ele>564.0</ele><time>2026-03-29T08:11:03.383Z</time></trkpt><trkpt lat="43.2347488" lon="12.2178573"><ele>564.0</ele><time>2026-03-29T08:11:04.381Z</time></trkpt><trkpt lat="43.2346621" lon="12.2177473"><ele>562.0</ele><time>2026-03-29T08:11:05.382Z</time></trkpt><trkpt lat="43.2345736" lon="12.2176233"><ele>560.0</ele><time>2026-03-29T08:11:06.381Z</time></trkpt><trkpt lat="43.2344985" lon="12.2175044"><ele>558.0</ele><time>2026-03-29T08:11:07.381Z</time></trkpt><trkpt lat="43.2344314" lon="12.2173901"><ele>556.0</ele><time>2026-03-29T08:11:08.383Z</time></trkpt><trkpt lat="43.2343706" lon="12.2172606"><ele>556.0</ele><time>2026-03-29T08:11:09.382Z</time></trkpt><trkpt lat="43.2343166" lon="12.217111"><ele>556.0</ele><time>2026-03-29T08:11:10.382Z</time></trkpt><trkpt lat="43.2342755" lon="12.2169453"><ele>556.0</ele><time>2026-03-29T08:11:11.382Z</time></trkpt><trkpt lat="43.2342358" lon="12.2167723"><ele>556.0</ele><time>2026-03-29T08:11:12.381Z</time></trkpt><trkpt lat="43.2341981" lon="12.2165879"><ele>555.25</ele><time>2026-03-29T08:11:13.381Z</time></trkpt><trkpt lat="43.2341618" lon="12.2164211"><ele>554.5</ele><time>2026-03-29T08:11:14.383Z</time></trkpt><trkpt lat="43.2341236" lon="12.2162571"><ele>553.75</ele><time>2026-03-29T08:11:15.382Z</time></trkpt><trkpt lat="43.2340753" lon="12.2161001"><ele>553.0</ele><time>2026-03-29T08:11:16.382Z</time></trkpt><trkpt lat="43.2340092" lon="12.2159672"><ele>551.0</ele><time>2026-03-29T08:11:17.382Z</time></trkpt><trkpt lat="43.2339228" lon="12.2158517"><ele>549.0</ele><time>2026-03-29T08:11:18.383Z</time></trkpt><trkpt lat="43.2338257" lon="12.2157414"><ele>547.0</ele><time>2026-03-29T08:11:19.382Z</time></trkpt><trkpt lat="43.2337343" lon="12.215638"><ele>545.0</ele><time>2026-03-29T08:11:20.382Z</time></trkpt><trkpt lat="43.2336437" lon="12.2155237"><ele>545.0</ele><time>2026-03-29T08:11:21.382Z</time></trkpt><trkpt lat="43.233583" lon="12.2153901"><ele>545.0</ele><time>2026-03-29T08:11:22.382Z</time></trkpt><trkpt lat="43.2335488" lon="12.2152605"><ele>545.0</ele><time>2026-03-29T08:11:23.382Z</time></trkpt><trkpt lat="43.2335409" lon="12.2151301"><ele>545.0</ele><time>2026-03-29T08:11:24.382Z</time></trkpt><trkpt lat="43.2335577" lon="12.2150052"><ele>545.0</ele><time>2026-03-29T08:11:25.383Z</time></trkpt><trkpt lat="43.2336041" lon="12.2148862"><ele>543.25</ele><time>2026-03-29T08:11:26.383Z</time></trkpt><trkpt lat="43.2336622" lon="12.2147647"><ele>541.5</ele><time>2026-03-29T08:11:27.382Z</time></trkpt><trkpt lat="43.2337541" lon="12.2146623"><ele>539.75</ele><time>2026-03-29T08:11:28.382Z</time></trkpt><trkpt lat="43.233847" lon="12.2145713"><ele>538.0</ele><time>2026-03-29T08:11:29.383Z</time></trkpt><trkpt lat="43.2339522" lon="12.2145046"><ele>539.25</ele><time>2026-03-29T08:11:30.382Z</time></trkpt><trkpt lat="43.2340669" lon="12.2144577"><ele>540.5</ele><time>2026-03-29T08:11:31.384Z</time></trkpt><trkpt lat="43.2341981" lon="12.2144463"><ele>541.75</ele><time>2026-03-29T08:11:32.383Z</time></trkpt><trkpt lat="43.2343197" lon="12.2144327"><ele>543.0</ele><time>2026-03-29T08:11:33.383Z</time></trkpt><trkpt lat="43.2344328" lon="12.2144175"><ele>543.0</ele><time>2026-03-29T08:11:34.383Z</time></trkpt><trkpt lat="43.2345335" lon="12.2144301"><ele>543.0</ele><time>2026-03-29T08:11:35.382Z</time></trkpt><trkpt lat="43.234618" lon="12.2144696"><ele>543.0</ele><time>2026-03-29T08:11:36.383Z</time></trkpt><trkpt lat="43.2346854" lon="12.2145501"><ele>543.0</ele><time>2026-03-29T08:11:37.382Z</time></trkpt><trkpt lat="43.2347389" lon="12.2146743"><ele>543.0</ele><time>2026-03-29T08:11:38.382Z</time></trkpt><trkpt lat="43.2347938" lon="12.2148374"><ele>542.6</ele><time>2026-03-29T08:11:39.382Z</time></trkpt><trkpt lat="43.2348449" lon="12.2149961"><ele>542.1999999999999</ele><time>2026-03-29T08:11:40.383Z</time></trkpt><trkpt lat="43.2348941" lon="12.2151434"><ele>541.8</ele><time>2026-03-29T08:11:41.383Z</time></trkpt><trkpt lat="43.2349417" lon="12.2152461"><ele>541.4</ele><time>2026-03-29T08:11:42.382Z</time></trkpt><trkpt lat="43.2349939" lon="12.2153464"><ele>541.0</ele><time>2026-03-29T08:11:43.383Z</time></trkpt><trkpt lat="43.2350544" lon="12.2154056"><ele>541.0</ele><time>2026-03-29T08:11:44.382Z</time></trkpt><trkpt lat="43.2351238" lon="12.2154378"><ele>541.0</ele><time>2026-03-29T08:11:45.384Z</time></trkpt><trkpt lat="43.2351944" lon="12.2154385"><ele>541.0</ele><time>2026-03-29T08:11:46.382Z</time></trkpt><trkpt lat="43.2352608" lon="12.2153537"><ele>541.0</ele><time>2026-03-29T08:11:47.383Z</time></trkpt><trkpt lat="43.2352826" lon="12.2152631"><ele>541.0</ele><time>2026-03-29T08:11:48.382Z</time></trkpt><trkpt lat="43.2352917" lon="12.2151537"><ele>541.0</ele><time>2026-03-29T08:11:49.382Z</time></trkpt><trkpt lat="43.2352728" lon="12.2150485"><ele>541.0</ele><time>2026-03-29T08:11:50.383Z</time></trkpt><trkpt lat="43.2352185" lon="12.2149245"><ele>541.0</ele><time>2026-03-29T08:11:51.383Z</time></trkpt><trkpt lat="43.2351618" lon="12.2147842"><ele>541.0</ele><time>2026-03-29T08:11:52.382Z</time></trkpt><trkpt lat="43.2351036" lon="12.2146282"><ele>541.0</ele><time>2026-03-29T08:11:53.382Z</time></trkpt><trkpt lat="43.2350612" lon="12.2144078"><ele>539.0</ele><time>2026-03-29T08:11:54.381Z</time></trkpt><trkpt lat="43.2350266" lon="12.2142071"><ele>537.0</ele><time>2026-03-29T08:11:55.382Z</time></trkpt><trkpt lat="43.2349892" lon="12.2140086"><ele>535.0</ele><time>2026-03-29T08:11:56.381Z</time></trkpt><trkpt lat="43.2349506" lon="12.2138102"><ele>533.0</ele><time>2026-03-29T08:11:57.382Z</time></trkpt><trkpt lat="43.2349133" lon="12.2136229"><ele>529.1999999999999</ele><time>2026-03-29T08:11:58.381Z</time></trkpt><trkpt lat="43.2348821" lon="12.2134429"><ele>525.4</ele><time>2026-03-29T08:11:59.381Z</time></trkpt><trkpt lat="43.2348649" lon="12.2133112"><ele>521.5999999999999</ele><time>2026-03-29T08:12:00.384Z</time></trkpt><trkpt lat="43.2348631" lon="12.2131914"><ele>517.8</ele><time>2026-03-29T08:12:01.383Z</time></trkpt><trkpt lat="43.234897" lon="12.2130895"><ele>514.0</ele><time>2026-03-29T08:12:02.382Z</time></trkpt><trkpt lat="43.2349569" lon="12.2130137"><ele>511.79999999999995</ele><time>2026-03-29T08:12:03.381Z</time></trkpt><trkpt lat="43.235048" lon="12.2129458"><ele>509.59999999999997</ele><time>2026-03-29T08:12:04.382Z</time></trkpt><trkpt lat="43.2351545" lon="12.2128864"><ele>507.4</ele><time>2026-03-29T08:12:05.381Z</time></trkpt><trkpt lat="43.2352625" lon="12.2128209"><ele>505.2</ele><time>2026-03-29T08:12:06.383Z</time></trkpt><trkpt lat="43.2353578" lon="12.2127821"><ele>503.0</ele><time>2026-03-29T08:12:07.382Z</time></trkpt><trkpt lat="43.2354479" lon="12.2127343"><ele>502.99999999999994</ele><time>2026-03-29T08:12:08.383Z</time></trkpt><trkpt lat="43.235513" lon="12.2126676"><ele>503.0</ele><time>2026-03-29T08:12:09.381Z</time></trkpt><trkpt lat="43.2355569" lon="12.2125831"><ele>503.0</ele><time>2026-03-29T08:12:10.383Z</time></trkpt><trkpt lat="43.2355477" lon="12.2124167"><ele>503.0</ele><time>2026-03-29T08:12:12.382Z</time></trkpt><trkpt lat="43.2355046" lon="12.2123441"><ele>502.99999999999994</ele><time>2026-03-29T08:12:13.383Z</time></trkpt><trkpt lat="43.2354416" lon="12.212294"><ele>503.0</ele><time>2026-03-29T08:12:14.382Z</time></trkpt><trkpt lat="43.2353748" lon="12.2122777"><ele>503.0</ele><time>2026-03-29T08:12:15.382Z</time></trkpt><trkpt lat="43.2352863" lon="12.2122964"><ele>503.0</ele><time>2026-03-29T08:12:16.382Z</time></trkpt><trkpt lat="43.2351789" lon="12.2123597"><ele>503.0</ele><time>2026-03-29T08:12:17.384Z</time></trkpt><trkpt lat="43.2350622" lon="12.2124233"><ele>503.0</ele><time>2026-03-29T08:12:18.383Z</time></trkpt><trkpt lat="43.2349394" lon="12.2124785"><ele>503.0</ele><time>2026-03-29T08:12:19.382Z</time></trkpt><trkpt lat="43.2348103" lon="12.2125306"><ele>503.0</ele><time>2026-03-29T08:12:20.382Z</time></trkpt><trkpt lat="43.2346775" lon="12.212602"><ele>503.0</ele><time>2026-03-29T08:12:21.384Z</time></trkpt><trkpt lat="43.2345599" lon="12.2126611"><ele>503.0</ele><time>2026-03-29T08:12:22.383Z</time></trkpt><trkpt lat="43.234451" lon="12.2127016"><ele>502.79999999999995</ele><time>2026-03-29T08:12:23.383Z</time></trkpt><trkpt lat="43.2343535" lon="12.212709"><ele>502.59999999999997</ele><time>2026-03-29T08:12:24.383Z</time></trkpt><trkpt lat="43.2342527" lon="12.2126765"><ele>502.40000000000003</ele><time>2026-03-29T08:12:25.384Z</time></trkpt><trkpt lat="43.2341816" lon="12.2126086"><ele>502.20000000000005</ele><time>2026-03-29T08:12:26.382Z</time></trkpt><trkpt lat="43.2341295" lon="12.2124993"><ele>502.0</ele><time>2026-03-29T08:12:27.382Z</time></trkpt><trkpt lat="43.2340678" lon="12.2124067"><ele>502.00000000000006</ele><time>2026-03-29T08:12:28.381Z</time></trkpt><trkpt lat="43.2339955" lon="12.2123267"><ele>502.0</ele><time>2026-03-29T08:12:29.383Z</time></trkpt><trkpt lat="43.2339186" lon="12.212278"><ele>502.0</ele><time>2026-03-29T08:12:30.381Z</time></trkpt><trkpt lat="43.2338436" lon="12.2122682"><ele>502.0</ele><time>2026-03-29T08:12:31.382Z</time></trkpt><trkpt lat="43.2337521" lon="12.2122771"><ele>502.00000000000006</ele><time>2026-03-29T08:12:32.383Z</time></trkpt><trkpt lat="43.2336633" lon="12.2123289"><ele>502.0</ele><time>2026-03-29T08:12:33.382Z</time></trkpt><trkpt lat="43.2335665" lon="12.212403"><ele>501.0</ele><time>2026-03-29T08:12:34.382Z</time></trkpt><trkpt lat="43.233476" lon="12.2124774"><ele>500.00000000000006</ele><time>2026-03-29T08:12:35.383Z</time></trkpt><trkpt lat="43.233405" lon="12.2125766"><ele>499.00000000000006</ele><time>2026-03-29T08:12:36.383Z</time></trkpt><trkpt lat="43.2333234" lon="12.2126483"><ele>498.0</ele><time>2026-03-29T08:12:37.382Z</time></trkpt><trkpt lat="43.2332461" lon="12.2127027"><ele>497.0</ele><time>2026-03-29T08:12:38.382Z</time></trkpt><trkpt lat="43.2331705" lon="12.2126561"><ele>497.0</ele><time>2026-03-29T08:12:39.382Z</time></trkpt><trkpt lat="43.233091" lon="12.2125938"><ele>497.00000000000006</ele><time>2026-03-29T08:12:40.383Z</time></trkpt><trkpt lat="43.2330356" lon="12.2124913"><ele>497.00000000000006</ele><time>2026-03-29T08:12:41.382Z</time></trkpt><trkpt lat="43.2329517" lon="12.2123852"><ele>497.0</ele><time>2026-03-29T08:12:42.381Z</time></trkpt><trkpt lat="43.2328739" lon="12.2123001"><ele>497.0</ele><time>2026-03-29T08:12:43.383Z</time></trkpt><trkpt lat="43.2327909" lon="12.2122328"><ele>492.40000000000003</ele><time>2026-03-29T08:12:44.383Z</time></trkpt><trkpt lat="43.2327042" lon="12.2122168"><ele>487.80000000000007</ele><time>2026-03-29T08:12:45.384Z</time></trkpt><trkpt lat="43.2325996" lon="12.2122567"><ele>483.2</ele><time>2026-03-29T08:12:46.382Z</time></trkpt><trkpt lat="43.2324996" lon="12.2122779"><ele>478.6</ele><time>2026-03-29T08:12:47.384Z</time></trkpt><trkpt lat="43.2324121" lon="12.2123101"><ele>474.0</ele><time>2026-03-29T08:12:48.382Z</time></trkpt><trkpt lat="43.2322943" lon="12.2123195"><ele>474.0</ele><time>2026-03-29T08:12:49.382Z</time></trkpt><trkpt lat="43.2322018" lon="12.2122714"><ele>474.0</ele><time>2026-03-29T08:12:50.384Z</time></trkpt><trkpt lat="43.232104" lon="12.2121972"><ele>474.0</ele><time>2026-03-29T08:12:51.384Z</time></trkpt><trkpt lat="43.2320384" lon="12.2120886"><ele>474.0</ele><time>2026-03-29T08:12:52.381Z</time></trkpt><trkpt lat="43.231995" lon="12.211999"><ele>474.0</ele><time>2026-03-29T08:12:53.382Z</time></trkpt><trkpt lat="43.2319291" lon="12.2119685"><ele>474.0</ele><time>2026-03-29T08:12:54.382Z</time></trkpt><trkpt lat="43.2318568" lon="12.2119347"><ele>474.0</ele><time>2026-03-29T08:12:55.381Z</time></trkpt><trkpt lat="43.2317269" lon="12.2119525"><ele>474.0</ele><time>2026-03-29T08:12:56.382Z</time></trkpt><trkpt lat="43.2316089" lon="12.2119773"><ele>474.0</ele><time>2026-03-29T08:12:57.381Z</time></trkpt><trkpt lat="43.2314805" lon="12.2119971"><ele>473.0</ele><time>2026-03-29T08:12:58.383Z</time></trkpt><trkpt lat="43.2313692" lon="12.2120162"><ele>472.0</ele><time>2026-03-29T08:12:59.383Z</time></trkpt><trkpt lat="43.2312497" lon="12.2120262"><ele>471.0</ele><time>2026-03-29T08:13:00.381Z</time></trkpt><trkpt lat="43.2311396" lon="12.2119769"><ele>470.0</ele><time>2026-03-29T08:13:01.384Z</time></trkpt><trkpt lat="43.2310376" lon="12.2119124"><ele>470.0</ele><time>2026-03-29T08:13:02.383Z</time></trkpt><trkpt lat="43.2309454" lon="12.2118398"><ele>470.0</ele><time>2026-03-29T08:13:03.383Z</time></trkpt><trkpt lat="43.23087" lon="12.2117556"><ele>470.0</ele><time>2026-03-29T08:13:04.384Z</time></trkpt><trkpt lat="43.2307923" lon="12.2116721"><ele>470.0</ele><time>2026-03-29T08:13:05.382Z</time></trkpt><trkpt lat="43.230719" lon="12.2115703"><ele>470.0</ele><time>2026-03-29T08:13:06.384Z</time></trkpt><trkpt lat="43.2306605" lon="12.2114735"><ele>467.8</ele><time>2026-03-29T08:13:07.381Z</time></trkpt><trkpt lat="43.2306161" lon="12.2113644"><ele>465.6</ele><time>2026-03-29T08:13:08.381Z</time></trkpt><trkpt lat="43.2306005" lon="12.2112417"><ele>463.4</ele><time>2026-03-29T08:13:09.382Z</time></trkpt><trkpt lat="43.2305947" lon="12.2111088"><ele>461.2</ele><time>2026-03-29T08:13:10.383Z</time></trkpt><trkpt lat="43.2306382" lon="12.2109367"><ele>459.0</ele><time>2026-03-29T08:13:11.382Z</time></trkpt><trkpt lat="43.2306817" lon="12.2107834"><ele>457.25</ele><time>2026-03-29T08:13:12.382Z</time></trkpt><trkpt lat="43.2307387" lon="12.210624"><ele>455.5</ele><time>2026-03-29T08:13:13.382Z</time></trkpt><trkpt lat="43.2307831" lon="12.2104446"><ele>453.75</ele><time>2026-03-29T08:13:14.383Z</time></trkpt><trkpt lat="43.2308344" lon="12.2102583"><ele>452.0</ele><time>2026-03-29T08:13:15.383Z</time></trkpt><trkpt lat="43.2308815" lon="12.210073"><ele>452.0</ele><time>2026-03-29T08:13:16.382Z</time></trkpt><trkpt lat="43.2309278" lon="12.2098874"><ele>452.0</ele><time>2026-03-29T08:13:17.383Z</time></trkpt><trkpt lat="43.2309726" lon="12.2097106"><ele>452.0</ele><time>2026-03-29T08:13:18.382Z</time></trkpt><trkpt lat="43.2310183" lon="12.2095418"><ele>452.0</ele><time>2026-03-29T08:13:19.383Z</time></trkpt><trkpt lat="43.2310607" lon="12.2093753"><ele>452.0</ele><time>2026-03-29T08:13:20.383Z</time></trkpt><trkpt lat="43.2311019" lon="12.2092188"><ele>452.0</ele><time>2026-03-29T08:13:21.382Z</time></trkpt><trkpt lat="43.231142" lon="12.2090549"><ele>452.0</ele><time>2026-03-29T08:13:22.383Z</time></trkpt><trkpt lat="43.2311754" lon="12.2088734"><ele>452.0</ele><time>2026-03-29T08:13:23.383Z</time></trkpt><trkpt lat="43.2312037" lon="12.208684"><ele>450.75</ele><time>2026-03-29T08:13:24.382Z</time></trkpt><trkpt lat="43.231224" lon="12.208505"><ele>449.5</ele><time>2026-03-29T08:13:25.383Z</time></trkpt><trkpt lat="43.2312493" lon="12.2083308"><ele>448.25</ele><time>2026-03-29T08:13:26.381Z</time></trkpt><trkpt lat="43.2312707" lon="12.2081551"><ele>447.0</ele><time>2026-03-29T08:13:27.383Z</time></trkpt><trkpt lat="43.2312993" lon="12.2080089"><ele>447.0</ele><time>2026-03-29T08:13:28.382Z</time></trkpt><trkpt lat="43.2313188" lon="12.2078522"><ele>447.00000000000006</ele><time>2026-03-29T08:13:29.383Z</time></trkpt><trkpt lat="43.2313251" lon="12.2077159"><ele>447.00000000000006</ele><time>2026-03-29T08:13:30.382Z</time></trkpt><trkpt lat="43.2313264" lon="12.2076014"><ele>447.0</ele><time>2026-03-29T08:13:31.383Z</time></trkpt><trkpt lat="43.2313283" lon="12.2074769"><ele>447.0</ele><time>2026-03-29T08:13:32.382Z</time></trkpt><trkpt lat="43.2313372" lon="12.2073509"><ele>448.1666666666667</ele><time>2026-03-29T08:13:33.384Z</time></trkpt><trkpt lat="43.2313466" lon="12.2072218"><ele>449.33333333333337</ele><time>2026-03-29T08:13:34.382Z</time></trkpt><trkpt lat="43.2313532" lon="12.207097"><ele>450.5</ele><time>2026-03-29T08:13:35.383Z</time></trkpt><trkpt lat="43.2313406" lon="12.2070047"><ele>451.6666666666667</ele><time>2026-03-29T08:13:36.384Z</time></trkpt><trkpt lat="43.2313106" lon="12.2069263"><ele>452.83333333333337</ele><time>2026-03-29T08:13:37.383Z</time></trkpt><trkpt lat="43.2312437" lon="12.2068287"><ele>454.0</ele><time>2026-03-29T08:13:39.383Z</time></trkpt><trkpt lat="43.23113" lon="12.2068457"><ele>454.0</ele><time>2026-03-29T08:13:41.381Z</time></trkpt><trkpt lat="43.23104" lon="12.2068899"><ele>454.0</ele><time>2026-03-29T08:13:43.383Z</time></trkpt><trkpt lat="43.2309563" lon="12.2069572"><ele>454.0</ele><time>2026-03-29T08:13:45.382Z</time></trkpt><trkpt lat="43.2308573" lon="12.2070217"><ele>454.0</ele><time>2026-03-29T08:13:47.383Z</time></trkpt><trkpt lat="43.2308059" lon="12.2070983"><ele>454.0</ele><time>2026-03-29T08:13:48.382Z</time></trkpt><trkpt lat="43.2307059" lon="12.2071314"><ele>452.83333333333337</ele><time>2026-03-29T08:13:50.383Z</time></trkpt><trkpt lat="43.2305901" lon="12.2072256"><ele>451.6666666666667</ele><time>2026-03-29T08:13:52.383Z</time></trkpt><trkpt lat="43.2305289" lon="12.2072546"><ele>450.5</ele><time>2026-03-29T08:13:53.382Z</time></trkpt><trkpt lat="43.2304269" lon="12.2073382"><ele>449.33333333333337</ele><time>2026-03-29T08:13:55.382Z</time></trkpt><trkpt lat="43.2303719" lon="12.2073902"><ele>448.1666666666667</ele><time>2026-03-29T08:13:56.382Z</time></trkpt><trkpt lat="43.2303156" lon="12.2074333"><ele>447.0</ele><time>2026-03-29T08:13:57.383Z</time></trkpt><trkpt lat="43.2302055" lon="12.2074823"><ele>447.0</ele><time>2026-03-29T08:13:59.381Z</time></trkpt><trkpt lat="43.2301095" lon="12.2075587"><ele>447.00000000000006</ele><time>2026-03-29T08:14:01.384Z</time></trkpt><trkpt lat="43.2299905" lon="12.207574"><ele>447.00000000000006</ele><time>2026-03-29T08:14:03.383Z</time></trkpt><trkpt lat="43.2299159" lon="12.207613"><ele>447.0</ele><time>2026-03-29T08:14:05.383Z</time></trkpt><trkpt lat="43.2298229" lon="12.2076676"><ele>447.0</ele><time>2026-03-29T08:14:07.383Z</time></trkpt><trkpt lat="43.2297144" lon="12.2077281"><ele>446.6666666666667</ele><time>2026-03-29T08:14:09.383Z</time></trkpt><trkpt lat="43.2296561" lon="12.2077711"><ele>446.33333333333337</ele><time>2026-03-29T08:14:10.384Z</time></trkpt><trkpt lat="43.2295942" lon="12.2078126"><ele>446.0</ele><time>2026-03-29T08:14:11.383Z</time></trkpt><trkpt lat="43.2294822" lon="12.2078372"><ele>445.6666666666667</ele><time>2026-03-29T08:14:13.384Z</time></trkpt><trkpt lat="43.2293704" lon="12.2078606"><ele>445.33333333333337</ele><time>2026-03-29T08:14:15.383Z</time></trkpt><trkpt lat="43.2293067" lon="12.2078519"><ele>445.0</ele><time>2026-03-29T08:14:16.382Z</time></trkpt><trkpt lat="43.2292106" lon="12.2077891"><ele>445.0</ele><time>2026-03-29T08:14:18.383Z</time></trkpt><trkpt lat="43.2290819" lon="12.2077538"><ele>445.0</ele><time>2026-03-29T08:14:20.382Z</time></trkpt><trkpt lat="43.2289621" lon="12.2077977"><ele>445.0</ele><time>2026-03-29T08:14:22.383Z</time></trkpt><trkpt lat="43.2288671" lon="12.2078332"><ele>445.0</ele><time>2026-03-29T08:14:24.383Z</time></trkpt><trkpt lat="43.2287974" lon="12.2078426"><ele>445.0</ele><time>2026-03-29T08:14:25.382Z</time></trkpt><trkpt lat="43.2287178" lon="12.2078747"><ele>444.33333333333337</ele><time>2026-03-29T08:14:26.383Z</time></trkpt><trkpt lat="43.2286472" lon="12.2079058"><ele>443.6666666666667</ele><time>2026-03-29T08:14:27.383Z</time></trkpt><trkpt lat="43.2285422" lon="12.207954"><ele>443.0</ele><time>2026-03-29T08:14:29.382Z</time></trkpt><trkpt lat="43.2284628" lon="12.2079479"><ele>442.33333333333337</ele><time>2026-03-29T08:14:31.383Z</time></trkpt><trkpt lat="43.228472" lon="12.2080368"><ele>441.6666666666667</ele><time>2026-03-29T08:14:35.383Z</time></trkpt><trkpt lat="43.2285308" lon="12.2081124"><ele>441.0</ele><time>2026-03-29T08:14:37.383Z</time></trkpt><trkpt lat="43.2286037" lon="12.2081586"><ele>435.0</ele><time>2026-03-29T08:14:38.383Z</time></trkpt><trkpt lat="43.2287121" lon="12.2082407"><ele>429.0</ele><time>2026-03-29T08:14:40.381Z</time></trkpt><trkpt lat="43.2287539" lon="12.2083745"><ele>423.0</ele><time>2026-03-29T08:14:42.382Z</time></trkpt><trkpt lat="43.2287302" lon="12.2085445"><ele>417.0</ele><time>2026-03-29T08:14:44.383Z</time></trkpt><trkpt lat="43.228632" lon="12.2086346"><ele>417.0</ele><time>2026-03-29T08:14:46.383Z</time></trkpt><trkpt lat="43.2285637" lon="12.2086726"><ele>417.0</ele><time>2026-03-29T08:14:47.383Z</time></trkpt><trkpt lat="43.2284877" lon="12.2086903"><ele>417.0</ele><time>2026-03-29T08:14:48.383Z</time></trkpt><trkpt lat="43.2283945" lon="12.2086566"><ele>417.0</ele><time>2026-03-29T08:14:49.383Z</time></trkpt><trkpt lat="43.2283053" lon="12.2086341"><ele>417.0</ele><time>2026-03-29T08:14:50.382Z</time></trkpt><trkpt lat="43.2282248" lon="12.2086115"><ele>417.0</ele><time>2026-03-29T08:14:51.382Z</time></trkpt><trkpt lat="43.2281007" lon="12.2086275"><ele>417.40000000000003</ele><time>2026-03-29T08:14:53.383Z</time></trkpt><trkpt lat="43.2280872" lon="12.2087965"><ele>417.8</ele><time>2026-03-29T08:14:56.382Z</time></trkpt><trkpt lat="43.2280703" lon="12.2089348"><ele>418.2</ele><time>2026-03-29T08:14:58.383Z</time></trkpt><trkpt lat="43.2279647" lon="12.208995"><ele>418.6</ele><time>2026-03-29T08:15:00.383Z</time></trkpt><trkpt lat="43.2279019" lon="12.2090942"><ele>419.0</ele><time>2026-03-29T08:15:02.383Z</time></trkpt><trkpt lat="43.2278392" lon="12.20916"><ele>412.79999999999995</ele><time>2026-03-29T08:15:04.383Z</time></trkpt><trkpt lat="43.2277436" lon="12.2090706"><ele>406.59999999999997</ele><time>2026-03-29T08:15:07.384Z</time></trkpt><trkpt lat="43.2276452" lon="12.2090726"><ele>400.4</ele><time>2026-03-29T08:15:09.382Z</time></trkpt><trkpt lat="43.2275463" lon="12.2090944"><ele>394.2</ele><time>2026-03-29T08:15:10.384Z</time></trkpt><trkpt lat="43.2274602" lon="12.2091473"><ele>388.0</ele><time>2026-03-29T08:15:11.383Z</time></trkpt><trkpt lat="43.2273455" lon="12.2091505"><ele>388.59999999999997</ele><time>2026-03-29T08:15:12.382Z</time></trkpt><trkpt lat="43.227249" lon="12.2091698"><ele>389.2</ele><time>2026-03-29T08:15:13.382Z</time></trkpt><trkpt lat="43.2271675" lon="12.2091986"><ele>389.8</ele><time>2026-03-29T08:15:14.384Z</time></trkpt><trkpt lat="43.2270536" lon="12.2092357"><ele>390.4</ele><time>2026-03-29T08:15:15.382Z</time></trkpt><trkpt lat="43.2269543" lon="12.2092552"><ele>391.0</ele><time>2026-03-29T08:15:16.384Z</time></trkpt><trkpt lat="43.2268869" lon="12.2091908"><ele>391.00000000000006</ele><time>2026-03-29T08:15:17.381Z</time></trkpt><trkpt lat="43.2268132" lon="12.2091499"><ele>391.0</ele><time>2026-03-29T08:15:18.383Z</time></trkpt><trkpt lat="43.2267378" lon="12.2091665"><ele>391.0</ele><time>2026-03-29T08:15:19.382Z</time></trkpt><trkpt lat="43.2266435" lon="12.2091679"><ele>391.0</ele><time>2026-03-29T08:15:20.383Z</time></trkpt><trkpt lat="43.2265661" lon="12.209135"><ele>391.00000000000006</ele><time>2026-03-29T08:15:21.383Z</time></trkpt><trkpt lat="43.2264845" lon="12.2091537"><ele>391.0</ele><time>2026-03-29T08:15:22.382Z</time></trkpt><trkpt lat="43.2264213" lon="12.2091437"><ele>393.33333333333337</ele><time>2026-03-29T08:15:23.382Z</time></trkpt><trkpt lat="43.226352" lon="12.2091107"><ele>395.6666666666667</ele><time>2026-03-29T08:15:24.384Z</time></trkpt><trkpt lat="43.2262776" lon="12.2091982"><ele>398.0</ele><time>2026-03-29T08:15:27.383Z</time></trkpt><trkpt lat="43.2262388" lon="12.2092868"><ele>400.33333333333337</ele><time>2026-03-29T08:15:28.383Z</time></trkpt><trkpt lat="43.2261912" lon="12.2094105"><ele>402.6666666666667</ele><time>2026-03-29T08:15:29.383Z</time></trkpt><trkpt lat="43.2261505" lon="12.2094976"><ele>405.0</ele><time>2026-03-29T08:15:30.384Z</time></trkpt><trkpt lat="43.2261075" lon="12.2095752"><ele>405.0</ele><time>2026-03-29T08:15:31.383Z</time></trkpt><trkpt lat="43.2260649" lon="12.2096434"><ele>405.0</ele><time>2026-03-29T08:15:32.382Z</time></trkpt><trkpt lat="43.2259876" lon="12.2097778"><ele>405.0</ele><time>2026-03-29T08:15:34.384Z</time></trkpt><trkpt lat="43.2259474" lon="12.2098446"><ele>405.0</ele><time>2026-03-29T08:15:35.383Z</time></trkpt><trkpt lat="43.2258936" lon="12.2099263"><ele>405.0</ele><time>2026-03-29T08:15:36.383Z</time></trkpt><trkpt lat="43.2258465" lon="12.2100082"><ele>405.0</ele><time>2026-03-29T08:15:37.384Z</time></trkpt><trkpt lat="43.2257907" lon="12.2100721"><ele>400.4285714285714</ele><time>2026-03-29T08:15:38.383Z</time></trkpt><trkpt lat="43.2257389" lon="12.2101295"><ele>395.85714285714283</ele><time>2026-03-29T08:15:39.382Z</time></trkpt><trkpt lat="43.2256757" lon="12.2101842"><ele>391.2857142857143</ele><time>2026-03-29T08:15:40.383Z</time></trkpt><trkpt lat="43.2256221" lon="12.2102302"><ele>386.71428571428567</ele><time>2026-03-29T08:15:41.383Z</time></trkpt><trkpt lat="43.2255439" lon="12.2102719"><ele>382.14285714285717</ele><time>2026-03-29T08:15:42.383Z</time></trkpt><trkpt lat="43.2254873" lon="12.210322"><ele>377.57142857142856</ele><time>2026-03-29T08:15:43.382Z</time></trkpt><trkpt lat="43.2254325" lon="12.2103779"><ele>373.0</ele><time>2026-03-29T08:15:44.384Z</time></trkpt><trkpt lat="43.2253645" lon="12.2104146"><ele>372.8333333333333</ele><time>2026-03-29T08:15:45.383Z</time></trkpt><trkpt lat="43.2252968" lon="12.2104694"><ele>372.66666666666663</ele><time>2026-03-29T08:15:46.383Z</time></trkpt><trkpt lat="43.225227" lon="12.2105057"><ele>372.5</ele><time>2026-03-29T08:15:47.382Z</time></trkpt><trkpt lat="43.225168" lon="12.2105418"><ele>372.3333333333333</ele><time>2026-03-29T08:15:48.383Z</time></trkpt><trkpt lat="43.225069" lon="12.2106061"><ele>372.1666666666667</ele><time>2026-03-29T08:15:50.383Z</time></trkpt><trkpt lat="43.2249534" lon="12.2106206"><ele>372.0</ele><time>2026-03-29T08:15:52.383Z</time></trkpt><trkpt lat="43.2248875" lon="12.2106187"><ele>370.0</ele><time>2026-03-29T08:15:53.383Z</time></trkpt><trkpt lat="43.2248095" lon="12.2106157"><ele>368.0</ele><time>2026-03-29T08:15:54.382Z</time></trkpt><trkpt lat="43.224688" lon="12.2106403"><ele>366.0</ele><time>2026-03-29T08:15:56.382Z</time></trkpt><trkpt lat="43.2245649" lon="12.2106349"><ele>364.0</ele><time>2026-03-29T08:15:58.383Z</time></trkpt><trkpt lat="43.2244652" lon="12.2106486"><ele>362.0</ele><time>2026-03-29T08:16:00.383Z</time></trkpt><trkpt lat="43.224367" lon="12.2106512"><ele>362.0</ele><time>2026-03-29T08:16:02.384Z</time></trkpt><trkpt lat="43.2242843" lon="12.2106399"><ele>362.0</ele><time>2026-03-29T08:16:04.385Z</time></trkpt><trkpt lat="43.2241816" lon="12.2105513"><ele>362.0</ele><time>2026-03-29T08:16:06.383Z</time></trkpt><trkpt lat="43.2241322" lon="12.210497"><ele>362.0</ele><time>2026-03-29T08:16:07.383Z</time></trkpt><trkpt lat="43.2240725" lon="12.2104647"><ele>362.0</ele><time>2026-03-29T08:16:08.383Z</time></trkpt><trkpt lat="43.2240098" lon="12.2104748"><ele>362.0</ele><time>2026-03-29T08:16:09.382Z</time></trkpt><trkpt lat="43.2239445" lon="12.210484"><ele>358.5</ele><time>2026-03-29T08:16:10.384Z</time></trkpt><trkpt lat="43.2238806" lon="12.2104476"><ele>355.0</ele><time>2026-03-29T08:16:11.382Z</time></trkpt><trkpt lat="43.2238098" lon="12.2104148"><ele>351.5</ele><time>2026-03-29T08:16:12.384Z</time></trkpt><trkpt lat="43.2237358" lon="12.2103495"><ele>348.0</ele><time>2026-03-29T08:16:13.383Z</time></trkpt><trkpt lat="43.2236557" lon="12.2102884"><ele>344.5</ele><time>2026-03-29T08:16:14.383Z</time></trkpt><trkpt lat="43.2235834" lon="12.2102322"><ele>341.0</ele><time>2026-03-29T08:16:15.384Z</time></trkpt><trkpt lat="43.2235307" lon="12.2101486"><ele>341.0</ele><time>2026-03-29T08:16:16.382Z</time></trkpt><trkpt lat="43.2234423" lon="12.2100489"><ele>341.0</ele><time>2026-03-29T08:16:18.384Z</time></trkpt><trkpt lat="43.2233858" lon="12.2099881"><ele>341.0</ele><time>2026-03-29T08:16:19.384Z</time></trkpt><trkpt lat="43.223328" lon="12.2099113"><ele>341.0</ele><time>2026-03-29T08:16:20.384Z</time></trkpt><trkpt lat="43.223258" lon="12.2098332"><ele>341.0</ele><time>2026-03-29T08:16:21.383Z</time></trkpt><trkpt lat="43.2231782" lon="12.209764"><ele>340.4</ele><time>2026-03-29T08:16:22.384Z</time></trkpt><trkpt lat="43.2231078" lon="12.2096842"><ele>339.8</ele><time>2026-03-29T08:16:23.383Z</time></trkpt><trkpt lat="43.2230328" lon="12.2096341"><ele>339.2</ele><time>2026-03-29T08:16:24.383Z</time></trkpt><trkpt lat="43.2229471" lon="12.2095886"><ele>338.59999999999997</ele><time>2026-03-29T08:16:25.384Z</time></trkpt><trkpt lat="43.222861" lon="12.2095326"><ele>338.0</ele><time>2026-03-29T08:16:26.382Z</time></trkpt><trkpt lat="43.2227708" lon="12.2094872"><ele>338.0</ele><time>2026-03-29T08:16:27.383Z</time></trkpt><trkpt lat="43.2226847" lon="12.2094398"><ele>338.0</ele><time>2026-03-29T08:16:28.383Z</time></trkpt><trkpt lat="43.2226052" lon="12.2093961"><ele>338.0</ele><time>2026-03-29T08:16:29.383Z</time></trkpt><trkpt lat="43.2225528" lon="12.2093185"><ele>338.0</ele><time>2026-03-29T08:16:30.383Z</time></trkpt><trkpt lat="43.2224871" lon="12.209243"><ele>338.0</ele><time>2026-03-29T08:16:31.384Z</time></trkpt><trkpt lat="43.2224292" lon="12.2091516"><ele>338.0</ele><time>2026-03-29T08:16:32.383Z</time></trkpt><trkpt lat="43.2223685" lon="12.209079"><ele>336.79999999999995</ele><time>2026-03-29T08:16:33.383Z</time></trkpt><trkpt lat="43.2222915" lon="12.2089933"><ele>335.6</ele><time>2026-03-29T08:16:34.383Z</time></trkpt><trkpt lat="43.2222249" lon="12.2089085"><ele>334.4</ele><time>2026-03-29T08:16:35.384Z</time></trkpt><trkpt lat="43.2221626" lon="12.2088167"><ele>333.20000000000005</ele><time>2026-03-29T08:16:36.382Z</time></trkpt><trkpt lat="43.2220933" lon="12.2087511"><ele>332.0</ele><time>2026-03-29T08:16:37.383Z</time></trkpt><trkpt lat="43.2220196" lon="12.2086773"><ele>332.0</ele><time>2026-03-29T08:16:38.382Z</time></trkpt><trkpt lat="43.2219516" lon="12.2085945"><ele>332.0</ele><time>2026-03-29T08:16:39.384Z</time></trkpt><trkpt lat="43.2218972" lon="12.2085144"><ele>332.0</ele><time>2026-03-29T08:16:40.382Z</time></trkpt><trkpt lat="43.2218311" lon="12.2084244"><ele>332.0</ele><time>2026-03-29T08:16:41.382Z</time></trkpt><trkpt lat="43.221743" lon="12.2083296"><ele>332.0</ele><time>2026-03-29T08:16:42.383Z</time></trkpt><trkpt lat="43.2216575" lon="12.2082424"><ele>332.8</ele><time>2026-03-29T08:16:43.383Z</time></trkpt><trkpt lat="43.2215652" lon="12.208157"><ele>333.6</ele><time>2026-03-29T08:16:44.384Z</time></trkpt><trkpt lat="43.2214676" lon="12.2080612"><ele>334.40000000000003</ele><time>2026-03-29T08:16:45.384Z</time></trkpt><trkpt lat="43.2213723" lon="12.2079862"><ele>335.20000000000005</ele><time>2026-03-29T08:16:46.384Z</time></trkpt><trkpt lat="43.2212814" lon="12.2079386"><ele>336.0</ele><time>2026-03-29T08:16:47.384Z</time></trkpt><trkpt lat="43.2211967" lon="12.2079199"><ele>336.0</ele><time>2026-03-29T08:16:48.383Z</time></trkpt><trkpt lat="43.2211182" lon="12.2079068"><ele>336.0</ele><time>2026-03-29T08:16:49.382Z</time></trkpt><trkpt lat="43.2210367" lon="12.2078932"><ele>336.0</ele><time>2026-03-29T08:16:50.385Z</time></trkpt><trkpt lat="43.2209561" lon="12.2079019"><ele>336.0</ele><time>2026-03-29T08:16:51.383Z</time></trkpt><trkpt lat="43.2208827" lon="12.2079039"><ele>336.0</ele><time>2026-03-29T08:16:52.383Z</time></trkpt><trkpt lat="43.2208048" lon="12.2078912"><ele>336.0</ele><time>2026-03-29T08:16:53.384Z</time></trkpt><trkpt lat="43.2207357" lon="12.2078693"><ele>336.0</ele><time>2026-03-29T08:16:54.383Z</time></trkpt><trkpt lat="43.2206659" lon="12.2078618"><ele>336.0</ele><time>2026-03-29T08:16:55.383Z</time></trkpt><trkpt lat="43.2205841" lon="12.2078672"><ele>336.0</ele><time>2026-03-29T08:16:56.385Z</time></trkpt><trkpt lat="43.2205007" lon="12.2078635"><ele>336.0</ele><time>2026-03-29T08:16:57.383Z</time></trkpt><trkpt lat="43.2204357" lon="12.2078756"><ele>336.0</ele><time>2026-03-29T08:16:58.383Z</time></trkpt><trkpt lat="43.220299" lon="12.2079165"><ele>336.0</ele><time>2026-03-29T08:17:00.383Z</time></trkpt><trkpt lat="43.2202245" lon="12.207925"><ele>334.0</ele><time>2026-03-29T08:17:01.383Z</time></trkpt><trkpt lat="43.2201431" lon="12.2079204"><ele>332.0</ele><time>2026-03-29T08:17:02.383Z</time></trkpt><trkpt lat="43.2200687" lon="12.2078708"><ele>330.0</ele><time>2026-03-29T08:17:03.385Z</time></trkpt><trkpt lat="43.220005" lon="12.2077975"><ele>328.0</ele><time>2026-03-29T08:17:04.382Z</time></trkpt><trkpt lat="43.2199472" lon="12.2077112"><ele>326.0</ele><time>2026-03-29T08:17:05.385Z</time></trkpt><trkpt lat="43.2198979" lon="12.2075743"><ele>324.0</ele><time>2026-03-29T08:17:06.384Z</time></trkpt><trkpt lat="43.2198505" lon="12.2074378"><ele>323.25</ele><time>2026-03-29T08:17:07.383Z</time></trkpt><trkpt lat="43.2197969" lon="12.2072945"><ele>322.5</ele><time>2026-03-29T08:17:08.383Z</time></trkpt><trkpt lat="43.2197433" lon="12.207148"><ele>321.75</ele><time>2026-03-29T08:17:09.383Z</time></trkpt><trkpt lat="43.2197013" lon="12.20698"><ele>321.0</ele><time>2026-03-29T08:17:10.384Z</time></trkpt><trkpt lat="43.2196364" lon="12.20681"><ele>321.0</ele><time>2026-03-29T08:17:11.383Z</time></trkpt><trkpt lat="43.2195803" lon="12.2066402"><ele>321.0</ele><time>2026-03-29T08:17:12.383Z</time></trkpt><trkpt lat="43.219523" lon="12.2064802"><ele>321.0</ele><time>2026-03-29T08:17:13.384Z</time></trkpt><trkpt lat="43.2194573" lon="12.2063276"><ele>321.0</ele><time>2026-03-29T08:17:14.384Z</time></trkpt><trkpt lat="43.2194072" lon="12.2061738"><ele>320.75</ele><time>2026-03-29T08:17:15.382Z</time></trkpt><trkpt lat="43.2193525" lon="12.2060036"><ele>320.5</ele><time>2026-03-29T08:17:16.384Z</time></trkpt><trkpt lat="43.2193172" lon="12.2058421"><ele>320.25</ele><time>2026-03-29T08:17:17.382Z</time></trkpt><trkpt lat="43.2192716" lon="12.2056751"><ele>320.0</ele><time>2026-03-29T08:17:18.383Z</time></trkpt><trkpt lat="43.2192388" lon="12.205508"><ele>320.0</ele><time>2026-03-29T08:17:19.384Z</time></trkpt><trkpt lat="43.2191935" lon="12.2053418"><ele>320.0</ele><time>2026-03-29T08:17:20.382Z</time></trkpt><trkpt lat="43.2191706" lon="12.2051649"><ele>320.0</ele><time>2026-03-29T08:17:21.384Z</time></trkpt><trkpt lat="43.2191607" lon="12.2049893"><ele>320.0</ele><time>2026-03-29T08:17:22.383Z</time></trkpt><trkpt lat="43.2191626" lon="12.2048145"><ele>320.25</ele><time>2026-03-29T08:17:23.382Z</time></trkpt><trkpt lat="43.2191759" lon="12.2046455"><ele>320.5</ele><time>2026-03-29T08:17:24.384Z</time></trkpt><trkpt lat="43.2192051" lon="12.2044892"><ele>320.75</ele><time>2026-03-29T08:17:25.384Z</time></trkpt><trkpt lat="43.2192762" lon="12.2043799"><ele>321.0</ele><time>2026-03-29T08:17:26.383Z</time></trkpt><trkpt lat="43.2193323" lon="12.2042435"><ele>321.0</ele><time>2026-03-29T08:17:27.384Z</time></trkpt><trkpt lat="43.2193755" lon="12.2040871"><ele>321.0</ele><time>2026-03-29T08:17:28.383Z</time></trkpt><trkpt lat="43.2194089" lon="12.2039208"><ele>321.0</ele><time>2026-03-29T08:17:29.384Z</time></trkpt><trkpt lat="43.2194359" lon="12.2037796"><ele>321.0</ele><time>2026-03-29T08:17:30.384Z</time></trkpt><trkpt lat="43.2194618" lon="12.2036216"><ele>320.25</ele><time>2026-03-29T08:17:31.384Z</time></trkpt><trkpt lat="43.2194786" lon="12.2034703"><ele>319.5</ele><time>2026-03-29T08:17:32.382Z</time></trkpt><trkpt lat="43.2195311" lon="12.2033088"><ele>318.75</ele><time>2026-03-29T08:17:33.384Z</time></trkpt><trkpt lat="43.2195822" lon="12.2031344"><ele>318.0</ele><time>2026-03-29T08:17:34.384Z</time></trkpt><trkpt lat="43.219652" lon="12.2029917"><ele>318.0</ele><time>2026-03-29T08:17:35.384Z</time></trkpt><trkpt lat="43.219719" lon="12.2028309"><ele>318.0</ele><time>2026-03-29T08:17:36.382Z</time></trkpt><trkpt lat="43.2197814" lon="12.2026708"><ele>318.0</ele><time>2026-03-29T08:17:37.384Z</time></trkpt><trkpt lat="43.2198443" lon="12.2025133"><ele>318.0</ele><time>2026-03-29T08:17:38.383Z</time></trkpt><trkpt lat="43.2198953" lon="12.2023583"><ele>318.0</ele><time>2026-03-29T08:17:39.383Z</time></trkpt><trkpt lat="43.2199345" lon="12.2022255"><ele>318.0</ele><time>2026-03-29T08:17:40.383Z</time></trkpt><trkpt lat="43.2199523" lon="12.2020961"><ele>318.0</ele><time>2026-03-29T08:17:41.383Z</time></trkpt><trkpt lat="43.219942" lon="12.2019761"><ele>318.0</ele><time>2026-03-29T08:17:42.384Z</time></trkpt><trkpt lat="43.2199226" lon="12.2018765"><ele>318.0</ele><time>2026-03-29T08:17:43.383Z</time></trkpt><trkpt lat="43.2198612" lon="12.2018243"><ele>318.0</ele><time>2026-03-29T08:17:44.384Z</time></trkpt><trkpt lat="43.2198036" lon="12.2017839"><ele>317.5</ele><time>2026-03-29T08:17:45.383Z</time></trkpt><trkpt lat="43.2197462" lon="12.2017278"><ele>317.0</ele><time>2026-03-29T08:17:46.384Z</time></trkpt><trkpt lat="43.2197025" lon="12.2016431"><ele>316.5</ele><time>2026-03-29T08:17:47.383Z</time></trkpt><trkpt lat="43.2196335" lon="12.2015775"><ele>316.0</ele><time>2026-03-29T08:17:48.384Z</time></trkpt><trkpt lat="43.2195612" lon="12.2015215"><ele>315.5</ele><time>2026-03-29T08:17:49.382Z</time></trkpt><trkpt lat="43.2194741" lon="12.2015285"><ele>315.0</ele><time>2026-03-29T08:17:50.382Z</time></trkpt><trkpt lat="43.2193811" lon="12.2015941"><ele>315.0</ele><time>2026-03-29T08:17:51.384Z</time></trkpt><trkpt lat="43.2192911" lon="12.2016491"><ele>315.0</ele><time>2026-03-29T08:17:52.385Z</time></trkpt><trkpt lat="43.2192006" lon="12.2017195"><ele>315.0</ele><time>2026-03-29T08:17:53.384Z</time></trkpt><trkpt lat="43.2190997" lon="12.2017959"><ele>315.0</ele><time>2026-03-29T08:17:54.384Z</time></trkpt><trkpt lat="43.2190034" lon="12.2018625"><ele>315.0</ele><time>2026-03-29T08:17:55.383Z</time></trkpt><trkpt lat="43.2189354" lon="12.2019097"><ele>314.8</ele><time>2026-03-29T08:17:56.383Z</time></trkpt><trkpt lat="43.2188413" lon="12.2019693"><ele>314.6</ele><time>2026-03-29T08:17:58.383Z</time></trkpt><trkpt lat="43.2187425" lon="12.201941"><ele>314.4</ele><time>2026-03-29T08:18:00.384Z</time></trkpt><trkpt lat="43.2186622" lon="12.2017936"><ele>314.2</ele><time>2026-03-29T08:18:02.382Z</time></trkpt><trkpt lat="43.2186119" lon="12.2016645"><ele>314.0</ele><time>2026-03-29T08:18:03.385Z</time></trkpt><trkpt lat="43.2185584" lon="12.2014965"><ele>313.33333333333337</ele><time>2026-03-29T08:18:04.384Z</time></trkpt><trkpt lat="43.2184863" lon="12.2012825"><ele>312.6666666666667</ele><time>2026-03-29T08:18:05.383Z</time></trkpt><trkpt lat="43.2184106" lon="12.2010773"><ele>312.0</ele><time>2026-03-29T08:18:06.383Z</time></trkpt><trkpt lat="43.2183385" lon="12.2008724"><ele>312.0</ele><time>2026-03-29T08:18:07.383Z</time></trkpt><trkpt lat="43.2182686" lon="12.2006694"><ele>312.0</ele><time>2026-03-29T08:18:08.384Z</time></trkpt><trkpt lat="43.2181917" lon="12.200474"><ele>312.0</ele><time>2026-03-29T08:18:09.384Z</time></trkpt><trkpt lat="43.2181117" lon="12.2002841"><ele>311.6666666666667</ele><time>2026-03-29T08:18:10.383Z</time></trkpt><trkpt lat="43.2180275" lon="12.2001006"><ele>311.33333333333337</ele><time>2026-03-29T08:18:11.385Z</time></trkpt><trkpt lat="43.2179506" lon="12.1999148"><ele>311.0</ele><time>2026-03-29T08:18:12.382Z</time></trkpt><trkpt lat="43.2178818" lon="12.1997299"><ele>310.75</ele><time>2026-03-29T08:18:13.383Z</time></trkpt><trkpt lat="43.2178116" lon="12.1995476"><ele>310.5</ele><time>2026-03-29T08:18:14.384Z</time></trkpt><trkpt lat="43.2177432" lon="12.1993699"><ele>310.25</ele><time>2026-03-29T08:18:15.384Z</time></trkpt><trkpt lat="43.2176748" lon="12.1991919"><ele>310.0</ele><time>2026-03-29T08:18:16.384Z</time></trkpt><trkpt lat="43.2176006" lon="12.1990104"><ele>310.0</ele><time>2026-03-29T08:18:17.384Z</time></trkpt><trkpt lat="43.2175237" lon="12.1988327"><ele>310.0</ele><time>2026-03-29T08:18:18.383Z</time></trkpt><trkpt lat="43.2174506" lon="12.1986606"><ele>310.0</ele><time>2026-03-29T08:18:19.383Z</time></trkpt><trkpt lat="43.2173907" lon="12.1984861"><ele>310.0</ele><time>2026-03-29T08:18:20.384Z</time></trkpt><trkpt lat="43.217347" lon="12.1983007"><ele>310.3333333333333</ele><time>2026-03-29T08:18:21.384Z</time></trkpt><trkpt lat="43.2173157" lon="12.1981013"><ele>310.6666666666667</ele><time>2026-03-29T08:18:22.383Z</time></trkpt><trkpt lat="43.2172963" lon="12.1978995"><ele>311.0</ele><time>2026-03-29T08:18:23.382Z</time></trkpt><trkpt lat="43.217279" lon="12.1976913"><ele>311.0</ele><time>2026-03-29T08:18:24.382Z</time></trkpt><trkpt lat="43.2172535" lon="12.1974879"><ele>311.0</ele><time>2026-03-29T08:18:25.383Z</time></trkpt><trkpt lat="43.217227" lon="12.1972922"><ele>311.0</ele><time>2026-03-29T08:18:26.383Z</time></trkpt><trkpt lat="43.2171963" lon="12.1970966"><ele>311.0</ele><time>2026-03-29T08:18:27.383Z</time></trkpt><trkpt lat="43.2171688" lon="12.19691"><ele>311.0</ele><time>2026-03-29T08:18:28.384Z</time></trkpt><trkpt lat="43.2171486" lon="12.1967422"><ele>311.0</ele><time>2026-03-29T08:18:29.385Z</time></trkpt><trkpt lat="43.2171319" lon="12.1965742"><ele>311.0</ele><time>2026-03-29T08:18:30.382Z</time></trkpt><trkpt lat="43.2171342" lon="12.1964012"><ele>311.0</ele><time>2026-03-29T08:18:31.382Z</time></trkpt><trkpt lat="43.2171495" lon="12.1962273"><ele>311.25</ele><time>2026-03-29T08:18:32.383Z</time></trkpt><trkpt lat="43.2171816" lon="12.1960446"><ele>311.5</ele><time>2026-03-29T08:18:33.384Z</time></trkpt><trkpt lat="43.2172236" lon="12.1958583"><ele>311.75</ele><time>2026-03-29T08:18:34.383Z</time></trkpt><trkpt lat="43.2172698" lon="12.1956694"><ele>312.0</ele><time>2026-03-29T08:18:35.382Z</time></trkpt><trkpt lat="43.2173003" lon="12.1954872"><ele>312.0</ele><time>2026-03-29T08:18:36.385Z</time></trkpt><trkpt lat="43.2173459" lon="12.1953088"><ele>312.0</ele><time>2026-03-29T08:18:37.383Z</time></trkpt><trkpt lat="43.2174022" lon="12.1951311"><ele>312.0</ele><time>2026-03-29T08:18:38.384Z</time></trkpt><trkpt lat="43.2174334" lon="12.1949777"><ele>312.0</ele><time>2026-03-29T08:18:39.384Z</time></trkpt><trkpt lat="43.2174428" lon="12.1948591"><ele>312.0</ele><time>2026-03-29T08:18:40.383Z</time></trkpt><trkpt lat="43.2174515" lon="12.1947413"><ele>312.0</ele><time>2026-03-29T08:18:41.383Z</time></trkpt><trkpt lat="43.2174183" lon="12.1946136"><ele>312.0</ele><time>2026-03-29T08:18:42.384Z</time></trkpt><trkpt lat="43.2173573" lon="12.1944781"><ele>312.0</ele><time>2026-03-29T08:18:43.383Z</time></trkpt><trkpt lat="43.2172846" lon="12.1943357"><ele>312.0</ele><time>2026-03-29T08:18:44.383Z</time></trkpt><trkpt lat="43.2172275" lon="12.1941886"><ele>312.25</ele><time>2026-03-29T08:18:45.383Z</time></trkpt><trkpt lat="43.2171533" lon="12.1940181"><ele>312.5</ele><time>2026-03-29T08:18:46.384Z</time></trkpt><trkpt lat="43.2170804" lon="12.1938475"><ele>312.75</ele><time>2026-03-29T08:18:47.385Z</time></trkpt><trkpt lat="43.2170118" lon="12.1936669"><ele>313.0</ele><time>2026-03-29T08:18:48.384Z</time></trkpt><trkpt lat="43.2169329" lon="12.1934842"><ele>313.0</ele><time>2026-03-29T08:18:49.384Z</time></trkpt><trkpt lat="43.2168617" lon="12.1932896"><ele>313.0</ele><time>2026-03-29T08:18:50.385Z</time></trkpt><trkpt lat="43.2167859" lon="12.1931154"><ele>313.0</ele><time>2026-03-29T08:18:51.384Z</time></trkpt><trkpt lat="43.216711" lon="12.192938"><ele>313.0</ele><time>2026-03-29T08:18:52.383Z</time></trkpt><trkpt lat="43.216648" lon="12.1927829"><ele>313.0</ele><time>2026-03-29T08:18:53.385Z</time></trkpt><trkpt lat="43.2165843" lon="12.1926373"><ele>313.0</ele><time>2026-03-29T08:18:54.384Z</time></trkpt><trkpt lat="43.2165222" lon="12.1924932"><ele>313.0</ele><time>2026-03-29T08:18:55.384Z</time></trkpt><trkpt lat="43.2164872" lon="12.1923604"><ele>313.0</ele><time>2026-03-29T08:18:56.383Z</time></trkpt><trkpt lat="43.216463" lon="12.1922202"><ele>313.0</ele><time>2026-03-29T08:18:57.384Z</time></trkpt><trkpt lat="43.2164504" lon="12.1920999"><ele>313.0</ele><time>2026-03-29T08:18:58.385Z</time></trkpt><trkpt lat="43.216439" lon="12.1920047"><ele>313.0</ele><time>2026-03-29T08:18:59.384Z</time></trkpt><trkpt lat="43.2164749" lon="12.1918789"><ele>313.0</ele><time>2026-03-29T08:19:01.382Z</time></trkpt><trkpt lat="43.2165839" lon="12.1918232"><ele>313.0</ele><time>2026-03-29T08:19:03.383Z</time></trkpt><trkpt lat="43.216696" lon="12.1918251"><ele>313.0</ele><time>2026-03-29T08:19:04.383Z</time></trkpt><trkpt lat="43.2167975" lon="12.1918183"><ele>313.0</ele><time>2026-03-29T08:19:05.384Z</time></trkpt><trkpt lat="43.2169113" lon="12.1918072"><ele>313.0</ele><time>2026-03-29T08:19:06.383Z</time></trkpt><trkpt lat="43.2170305" lon="12.191797"><ele>313.0</ele><time>2026-03-29T08:19:07.383Z</time></trkpt><trkpt lat="43.2171667" lon="12.1917895"><ele>313.0</ele><time>2026-03-29T08:19:08.383Z</time></trkpt><trkpt lat="43.2173029" lon="12.1917724"><ele>313.0</ele><time>2026-03-29T08:19:09.383Z</time></trkpt><trkpt lat="43.2174413" lon="12.1917669"><ele>313.0</ele><time>2026-03-29T08:19:10.384Z</time></trkpt><trkpt lat="43.2175822" lon="12.1917566"><ele>313.0</ele><time>2026-03-29T08:19:11.384Z</time></trkpt><trkpt lat="43.2177262" lon="12.1917418"><ele>312.66666666666663</ele><time>2026-03-29T08:19:12.383Z</time></trkpt><trkpt lat="43.2178696" lon="12.1917287"><ele>312.3333333333333</ele><time>2026-03-29T08:19:13.384Z</time></trkpt><trkpt lat="43.2180221" lon="12.1917088"><ele>312.0</ele><time>2026-03-29T08:19:14.384Z</time></trkpt><trkpt lat="43.2181743" lon="12.1916916"><ele>312.0</ele><time>2026-03-29T08:19:15.383Z</time></trkpt><trkpt lat="43.218314" lon="12.1916756"><ele>312.0</ele><time>2026-03-29T08:19:16.384Z</time></trkpt><trkpt lat="43.2184462" lon="12.191651"><ele>312.0</ele><time>2026-03-29T08:19:17.383Z</time></trkpt><trkpt lat="43.2185695" lon="12.1916237"><ele>312.0</ele><time>2026-03-29T08:19:18.383Z</time></trkpt><trkpt lat="43.2186796" lon="12.1915931"><ele>312.0</ele><time>2026-03-29T08:19:19.385Z</time></trkpt><trkpt lat="43.2187784" lon="12.1915575"><ele>312.0</ele><time>2026-03-29T08:19:20.383Z</time></trkpt><trkpt lat="43.2188765" lon="12.1915194"><ele>312.0</ele><time>2026-03-29T08:19:21.383Z</time></trkpt><trkpt lat="43.2189614" lon="12.1914727"><ele>312.0</ele><time>2026-03-29T08:19:22.383Z</time></trkpt><trkpt lat="43.2190439" lon="12.1914103"><ele>312.0</ele><time>2026-03-29T08:19:23.384Z</time></trkpt><trkpt lat="43.2191021" lon="12.1913304"><ele>313.0</ele><time>2026-03-29T08:19:24.383Z</time></trkpt><trkpt lat="43.2191713" lon="12.1911812"><ele>314.0</ele><time>2026-03-29T08:19:25.384Z</time></trkpt><trkpt lat="43.2192555" lon="12.1910457"><ele>315.0</ele><time>2026-03-29T08:19:26.383Z</time></trkpt><trkpt lat="43.2193514" lon="12.1908879"><ele>316.0</ele><time>2026-03-29T08:19:27.383Z</time></trkpt><trkpt lat="43.2194495" lon="12.19073"><ele>315.75</ele><time>2026-03-29T08:19:28.385Z</time></trkpt><trkpt lat="43.2195475" lon="12.1905797"><ele>315.5</ele><time>2026-03-29T08:19:29.383Z</time></trkpt><trkpt lat="43.2196342" lon="12.1904491"><ele>315.25</ele><time>2026-03-29T08:19:30.383Z</time></trkpt><trkpt lat="43.2197132" lon="12.1903256"><ele>315.0</ele><time>2026-03-29T08:19:31.382Z</time></trkpt><trkpt lat="43.2198047" lon="12.190191"><ele>315.5</ele><time>2026-03-29T08:19:32.385Z</time></trkpt><trkpt lat="43.219901" lon="12.1900397"><ele>316.0</ele><time>2026-03-29T08:19:33.384Z</time></trkpt><trkpt lat="43.2199992" lon="12.1898874"><ele>316.5</ele><time>2026-03-29T08:19:34.384Z</time></trkpt><trkpt lat="43.2200924" lon="12.1897408"><ele>317.0</ele><time>2026-03-29T08:19:35.383Z</time></trkpt><trkpt lat="43.2201825" lon="12.1896036"><ele>317.0</ele><time>2026-03-29T08:19:36.384Z</time></trkpt><trkpt lat="43.2202681" lon="12.1894764"><ele>317.0</ele><time>2026-03-29T08:19:37.383Z</time></trkpt><trkpt lat="43.2203462" lon="12.1893552"><ele>317.0</ele><time>2026-03-29T08:19:38.383Z</time></trkpt><trkpt lat="43.2204315" lon="12.1892471"><ele>317.0</ele><time>2026-03-29T08:19:39.385Z</time></trkpt><trkpt lat="43.2205099" lon="12.1891198"><ele>316.75</ele><time>2026-03-29T08:19:40.383Z</time></trkpt><trkpt lat="43.220585" lon="12.1889901"><ele>316.5</ele><time>2026-03-29T08:19:41.384Z</time></trkpt><trkpt lat="43.2206411" lon="12.1888283"><ele>316.25</ele><time>2026-03-29T08:19:42.385Z</time></trkpt><trkpt lat="43.220691" lon="12.1886554"><ele>316.0</ele><time>2026-03-29T08:19:43.384Z</time></trkpt><trkpt lat="43.2207285" lon="12.1884751"><ele>316.0</ele><time>2026-03-29T08:19:44.384Z</time></trkpt><trkpt lat="43.2207643" lon="12.1882501"><ele>316.0</ele><time>2026-03-29T08:19:45.383Z</time></trkpt><trkpt lat="43.2207949" lon="12.1880248"><ele>316.0</ele><time>2026-03-29T08:19:46.384Z</time></trkpt><trkpt lat="43.2208236" lon="12.1878008"><ele>317.0</ele><time>2026-03-29T08:19:47.384Z</time></trkpt><trkpt lat="43.2208508" lon="12.1875969"><ele>318.0</ele><time>2026-03-29T08:19:48.385Z</time></trkpt><trkpt lat="43.2208633" lon="12.1873858"><ele>319.0</ele><time>2026-03-29T08:19:49.384Z</time></trkpt><trkpt lat="43.2208768" lon="12.1871963"><ele>320.0</ele><time>2026-03-29T08:19:50.383Z</time></trkpt><trkpt lat="43.2208928" lon="12.1870293"><ele>320.75</ele><time>2026-03-29T08:19:51.383Z</time></trkpt><trkpt lat="43.22091" lon="12.1868753"><ele>321.5</ele><time>2026-03-29T08:19:52.385Z</time></trkpt><trkpt lat="43.2209313" lon="12.186723"><ele>322.25</ele><time>2026-03-29T08:19:53.383Z</time></trkpt><trkpt lat="43.2209639" lon="12.1865617"><ele>323.0</ele><time>2026-03-29T08:19:54.384Z</time></trkpt><trkpt lat="43.2210068" lon="12.1863893"><ele>323.0</ele><time>2026-03-29T08:19:55.384Z</time></trkpt><trkpt lat="43.2210982" lon="12.1862445"><ele>323.0</ele><time>2026-03-29T08:19:56.384Z</time></trkpt><trkpt lat="43.2211731" lon="12.1860969"><ele>323.0</ele><time>2026-03-29T08:19:57.385Z</time></trkpt><trkpt lat="43.2212768" lon="12.185979"><ele>323.0</ele><time>2026-03-29T08:19:58.384Z</time></trkpt><trkpt lat="43.2213893" lon="12.1858608"><ele>325.5</ele><time>2026-03-29T08:19:59.383Z</time></trkpt><trkpt lat="43.2215108" lon="12.1857495"><ele>328.0</ele><time>2026-03-29T08:20:00.383Z</time></trkpt><trkpt lat="43.2216186" lon="12.1856584"><ele>330.5</ele><time>2026-03-29T08:20:01.383Z</time></trkpt><trkpt lat="43.221711" lon="12.1855666"><ele>333.0</ele><time>2026-03-29T08:20:02.385Z</time></trkpt><trkpt lat="43.2217783" lon="12.1855157"><ele>333.0</ele><time>2026-03-29T08:20:03.385Z</time></trkpt><trkpt lat="43.2218565" lon="12.185477"><ele>333.0</ele><time>2026-03-29T08:20:04.383Z</time></trkpt><trkpt lat="43.2219353" lon="12.1854776"><ele>333.0</ele><time>2026-03-29T08:20:05.383Z</time></trkpt><trkpt lat="43.222002" lon="12.1855257"><ele>333.0</ele><time>2026-03-29T08:20:06.385Z</time></trkpt><trkpt lat="43.2220625" lon="12.1856285"><ele>333.0</ele><time>2026-03-29T08:20:07.384Z</time></trkpt><trkpt lat="43.2221497" lon="12.1857252"><ele>333.0</ele><time>2026-03-29T08:20:08.383Z</time></trkpt><trkpt lat="43.2222313" lon="12.1858325"><ele>337.25</ele><time>2026-03-29T08:20:09.385Z</time></trkpt><trkpt lat="43.2223289" lon="12.1859405"><ele>341.5</ele><time>2026-03-29T08:20:10.383Z</time></trkpt><trkpt lat="43.2223942" lon="12.1860807"><ele>345.75</ele><time>2026-03-29T08:20:11.384Z</time></trkpt><trkpt lat="43.2224642" lon="12.1862053"><ele>350.0</ele><time>2026-03-29T08:20:12.383Z</time></trkpt><trkpt lat="43.2225093" lon="12.1863359"><ele>350.0</ele><time>2026-03-29T08:20:13.385Z</time></trkpt><trkpt lat="43.2225374" lon="12.1864576"><ele>350.0</ele><time>2026-03-29T08:20:14.382Z</time></trkpt><trkpt lat="43.2225883" lon="12.1865643"><ele>350.0</ele><time>2026-03-29T08:20:15.383Z</time></trkpt><trkpt lat="43.2226383" lon="12.1866705"><ele>350.0</ele><time>2026-03-29T08:20:16.383Z</time></trkpt><trkpt lat="43.2226978" lon="12.1867338"><ele>350.0</ele><time>2026-03-29T08:20:17.384Z</time></trkpt><trkpt lat="43.2227884" lon="12.1867775"><ele>350.0</ele><time>2026-03-29T08:20:18.384Z</time></trkpt><trkpt lat="43.2229036" lon="12.1868076"><ele>350.0</ele><time>2026-03-29T08:20:19.384Z</time></trkpt><trkpt lat="43.2230022" lon="12.186837"><ele>350.0</ele><time>2026-03-29T08:20:20.384Z</time></trkpt><trkpt lat="43.2230898" lon="12.1868693"><ele>350.0</ele><time>2026-03-29T08:20:21.384Z</time></trkpt><trkpt lat="43.2231656" lon="12.1868653"><ele>350.0</ele><time>2026-03-29T08:20:22.383Z</time></trkpt><trkpt lat="43.2232431" lon="12.1868298"><ele>350.0</ele><time>2026-03-29T08:20:23.384Z</time></trkpt><trkpt lat="43.2233362" lon="12.1867997"><ele>350.0</ele><time>2026-03-29T08:20:24.383Z</time></trkpt><trkpt lat="43.223418" lon="12.1867803"><ele>353.75</ele><time>2026-03-29T08:20:25.385Z</time></trkpt><trkpt lat="43.2235125" lon="12.1867409"><ele>357.5</ele><time>2026-03-29T08:20:26.384Z</time></trkpt><trkpt lat="43.22364" lon="12.1866866"><ele>361.25</ele><time>2026-03-29T08:20:27.384Z</time></trkpt><trkpt lat="43.2237891" lon="12.1866127"><ele>365.0</ele><time>2026-03-29T08:20:28.385Z</time></trkpt><trkpt lat="43.2239131" lon="12.1865537"><ele>367.2</ele><time>2026-03-29T08:20:29.384Z</time></trkpt><trkpt lat="43.2240246" lon="12.1864798"><ele>369.4</ele><time>2026-03-29T08:20:30.384Z</time></trkpt><trkpt lat="43.2241389" lon="12.1864146"><ele>371.6</ele><time>2026-03-29T08:20:31.384Z</time></trkpt><trkpt lat="43.2242444" lon="12.186365"><ele>373.8</ele><time>2026-03-29T08:20:32.384Z</time></trkpt><trkpt lat="43.2243214" lon="12.1863208"><ele>376.0</ele><time>2026-03-29T08:20:33.384Z</time></trkpt><trkpt lat="43.2243967" lon="12.1862688"><ele>376.0</ele><time>2026-03-29T08:20:34.383Z</time></trkpt><trkpt lat="43.2244313" lon="12.186101"><ele>376.0</ele><time>2026-03-29T08:20:36.384Z</time></trkpt><trkpt lat="43.2244273" lon="12.1860095"><ele>376.0</ele><time>2026-03-29T08:20:37.385Z</time></trkpt><trkpt lat="43.224346" lon="12.1859093"><ele>376.0</ele><time>2026-03-29T08:20:38.384Z</time></trkpt><trkpt lat="43.224283" lon="12.1857968"><ele>376.0</ele><time>2026-03-29T08:20:39.383Z</time></trkpt><trkpt lat="43.2242459" lon="12.1856983"><ele>375.6</ele><time>2026-03-29T08:20:40.384Z</time></trkpt><trkpt lat="43.2241948" lon="12.1856023"><ele>375.20000000000005</ele><time>2026-03-29T08:20:41.384Z</time></trkpt><trkpt lat="43.2241464" lon="12.1855096"><ele>374.79999999999995</ele><time>2026-03-29T08:20:42.384Z</time></trkpt><trkpt lat="43.2241303" lon="12.1853984"><ele>374.4</ele><time>2026-03-29T08:20:43.384Z</time></trkpt><trkpt lat="43.224132" lon="12.1852617"><ele>374.0</ele><time>2026-03-29T08:20:44.385Z</time></trkpt><trkpt lat="43.2241769" lon="12.1850837"><ele>374.0</ele><time>2026-03-29T08:20:45.384Z</time></trkpt><trkpt lat="43.2242073" lon="12.1848984"><ele>374.0</ele><time>2026-03-29T08:20:46.384Z</time></trkpt><trkpt lat="43.2242347" lon="12.1847138"><ele>374.0</ele><time>2026-03-29T08:20:47.384Z</time></trkpt><trkpt lat="43.2242534" lon="12.1845388"><ele>374.0</ele><time>2026-03-29T08:20:48.384Z</time></trkpt><trkpt lat="43.2242935" lon="12.1843762"><ele>373.79999999999995</ele><time>2026-03-29T08:20:49.384Z</time></trkpt><trkpt lat="43.2242851" lon="12.1842446"><ele>373.59999999999997</ele><time>2026-03-29T08:20:50.384Z</time></trkpt><trkpt lat="43.2242827" lon="12.1840982"><ele>373.4</ele><time>2026-03-29T08:20:51.384Z</time></trkpt><trkpt lat="43.224269" lon="12.1839795"><ele>373.2</ele><time>2026-03-29T08:20:52.384Z</time></trkpt><trkpt lat="43.2242575" lon="12.1838636"><ele>373.0</ele><time>2026-03-29T08:20:53.385Z</time></trkpt><trkpt lat="43.2242452" lon="12.1837422"><ele>373.5</ele><time>2026-03-29T08:20:54.385Z</time></trkpt><trkpt lat="43.2242268" lon="12.1836276"><ele>374.0</ele><time>2026-03-29T08:20:55.385Z</time></trkpt><trkpt lat="43.2242155" lon="12.1835248"><ele>374.5</ele><time>2026-03-29T08:20:56.384Z</time></trkpt><trkpt lat="43.2242096" lon="12.1834377"><ele>375.0</ele><time>2026-03-29T08:20:57.385Z</time></trkpt><trkpt lat="43.2241769" lon="12.1832542"><ele>375.5</ele><time>2026-03-29T08:20:59.385Z</time></trkpt><trkpt lat="43.2241407" lon="12.1831828"><ele>376.0</ele><time>2026-03-29T08:21:00.385Z</time></trkpt><trkpt lat="43.2240793" lon="12.1830939"><ele>377.5</ele><time>2026-03-29T08:21:01.384Z</time></trkpt><trkpt lat="43.2239777" lon="12.1829903"><ele>379.0</ele><time>2026-03-29T08:21:02.383Z</time></trkpt><trkpt lat="43.2238723" lon="12.1828827"><ele>380.5</ele><time>2026-03-29T08:21:03.384Z</time></trkpt><trkpt lat="43.2237443" lon="12.1827669"><ele>382.0</ele><time>2026-03-29T08:21:04.384Z</time></trkpt><trkpt lat="43.2236448" lon="12.1826673"><ele>382.0</ele><time>2026-03-29T08:21:05.384Z</time></trkpt><trkpt lat="43.2235209" lon="12.1826086"><ele>382.0</ele><time>2026-03-29T08:21:06.385Z</time></trkpt><trkpt lat="43.223429" lon="12.1825257"><ele>382.0</ele><time>2026-03-29T08:21:07.385Z</time></trkpt><trkpt lat="43.2233447" lon="12.1824305"><ele>382.0</ele><time>2026-03-29T08:21:08.384Z</time></trkpt><trkpt lat="43.223285" lon="12.1823047"><ele>382.75</ele><time>2026-03-29T08:21:09.385Z</time></trkpt><trkpt lat="43.2232014" lon="12.1821178"><ele>383.5</ele><time>2026-03-29T08:21:10.385Z</time></trkpt><trkpt lat="43.2231348" lon="12.1819664"><ele>384.25</ele><time>2026-03-29T08:21:11.385Z</time></trkpt><trkpt lat="43.2230622" lon="12.1817963"><ele>385.0</ele><time>2026-03-29T08:21:12.384Z</time></trkpt><trkpt lat="43.222941" lon="12.1816673"><ele>385.0</ele><time>2026-03-29T08:21:13.384Z</time></trkpt><trkpt lat="43.2228596" lon="12.1815627"><ele>385.0</ele><time>2026-03-29T08:21:14.385Z</time></trkpt><trkpt lat="43.2227746" lon="12.1814151"><ele>385.0</ele><time>2026-03-29T08:21:15.385Z</time></trkpt><trkpt lat="43.2227163" lon="12.18127"><ele>385.0</ele><time>2026-03-29T08:21:16.384Z</time></trkpt><trkpt lat="43.2226814" lon="12.1811469"><ele>386.33333333333337</ele><time>2026-03-29T08:21:17.383Z</time></trkpt><trkpt lat="43.2226443" lon="12.1810292"><ele>387.6666666666667</ele><time>2026-03-29T08:21:18.385Z</time></trkpt><trkpt lat="43.2226171" lon="12.180949"><ele>389.0</ele><time>2026-03-29T08:21:19.385Z</time></trkpt><trkpt lat="43.2226248" lon="12.1810798"><ele>390.33333333333337</ele><time>2026-03-29T08:21:33.385Z</time></trkpt><trkpt lat="43.2226997" lon="12.1810964"><ele>391.6666666666667</ele><time>2026-03-29T08:21:36.385Z</time></trkpt><trkpt lat="43.2227576" lon="12.1810485"><ele>393.0</ele><time>2026-03-29T08:21:38.384Z</time></trkpt><trkpt lat="43.2227985" lon="12.1809631"><ele>393.0</ele><time>2026-03-29T08:21:39.386Z</time></trkpt><trkpt lat="43.2229161" lon="12.1808905"><ele>393.0</ele><time>2026-03-29T08:21:41.385Z</time></trkpt><trkpt lat="43.2229867" lon="12.1808871"><ele>393.0</ele><time>2026-03-29T08:21:42.384Z</time></trkpt><trkpt lat="43.2230218" lon="12.1809668"><ele>393.0</ele><time>2026-03-29T08:21:43.383Z</time></trkpt><trkpt lat="43.2230817" lon="12.1810239"><ele>393.0</ele><time>2026-03-29T08:21:44.384Z</time></trkpt><trkpt lat="43.2231389" lon="12.1810619"><ele>393.0</ele><time>2026-03-29T08:21:45.385Z</time></trkpt><trkpt lat="43.2232636" lon="12.1810253"><ele>395.8333333333333</ele><time>2026-03-29T08:21:47.385Z</time></trkpt><trkpt lat="43.223341" lon="12.1810257"><ele>398.66666666666663</ele><time>2026-03-29T08:21:48.384Z</time></trkpt><trkpt lat="43.2234205" lon="12.1810288"><ele>401.5</ele><time>2026-03-29T08:21:49.384Z</time></trkpt><trkpt lat="43.2235153" lon="12.1810372"><ele>404.3333333333333</ele><time>2026-03-29T08:21:50.384Z</time></trkpt><trkpt lat="43.2236098" lon="12.1810593"><ele>407.16666666666663</ele><time>2026-03-29T08:21:51.384Z</time></trkpt><trkpt lat="43.2236833" lon="12.1810976"><ele>410.0</ele><time>2026-03-29T08:21:52.383Z</time></trkpt><trkpt lat="43.223764" lon="12.1811446"><ele>410.0</ele><time>2026-03-29T08:21:53.385Z</time></trkpt><trkpt lat="43.2238545" lon="12.18118"><ele>410.0</ele><time>2026-03-29T08:21:54.383Z</time></trkpt><trkpt lat="43.2239514" lon="12.1811834"><ele>410.0</ele><time>2026-03-29T08:21:55.384Z</time></trkpt><trkpt lat="43.2240515" lon="12.1811795"><ele>410.0</ele><time>2026-03-29T08:21:56.383Z</time></trkpt><trkpt lat="43.2241678" lon="12.1811604"><ele>410.0</ele><time>2026-03-29T08:21:57.384Z</time></trkpt><trkpt lat="43.224265" lon="12.1811393"><ele>412.3333333333333</ele><time>2026-03-29T08:21:58.384Z</time></trkpt><trkpt lat="43.2243482" lon="12.1811267"><ele>414.66666666666663</ele><time>2026-03-29T08:21:59.384Z</time></trkpt><trkpt lat="43.2244151" lon="12.1811144"><ele>417.0</ele><time>2026-03-29T08:22:00.384Z</time></trkpt><trkpt lat="43.2244942" lon="12.1810988"><ele>419.33333333333337</ele><time>2026-03-29T08:22:01.385Z</time></trkpt><trkpt lat="43.2245631" lon="12.1810993"><ele>421.6666666666667</ele><time>2026-03-29T08:22:02.384Z</time></trkpt><trkpt lat="43.2246543" lon="12.1810917"><ele>424.0</ele><time>2026-03-29T08:22:04.384Z</time></trkpt><trkpt lat="43.2247482" lon="12.1810902"><ele>425.6</ele><time>2026-03-29T08:22:05.384Z</time></trkpt><trkpt lat="43.224879" lon="12.1810974"><ele>427.2</ele><time>2026-03-29T08:22:07.385Z</time></trkpt><trkpt lat="43.2249537" lon="12.1811046"><ele>428.80000000000007</ele><time>2026-03-29T08:22:08.384Z</time></trkpt><trkpt lat="43.2250633" lon="12.1810876"><ele>430.40000000000003</ele><time>2026-03-29T08:22:09.384Z</time></trkpt><trkpt lat="43.2251488" lon="12.1811024"><ele>432.0</ele><time>2026-03-29T08:22:10.385Z</time></trkpt><trkpt lat="43.2252329" lon="12.1811193"><ele>432.0</ele><time>2026-03-29T08:22:11.383Z</time></trkpt><trkpt lat="43.2253318" lon="12.1810656"><ele>432.0</ele><time>2026-03-29T08:22:13.383Z</time></trkpt><trkpt lat="43.2253203" lon="12.180943"><ele>432.0</ele><time>2026-03-29T08:22:15.385Z</time></trkpt><trkpt lat="43.225305" lon="12.1808587"><ele>432.0</ele><time>2026-03-29T08:22:16.384Z</time></trkpt><trkpt lat="43.2252962" lon="12.1807553"><ele>432.0</ele><time>2026-03-29T08:22:17.384Z</time></trkpt><trkpt lat="43.2252424" lon="12.1806228"><ele>432.0</ele><time>2026-03-29T08:22:18.384Z</time></trkpt><trkpt lat="43.2251733" lon="12.1805449"><ele>431.3333333333333</ele><time>2026-03-29T08:22:19.384Z</time></trkpt><trkpt lat="43.2250957" lon="12.1804671"><ele>430.66666666666663</ele><time>2026-03-29T08:22:20.384Z</time></trkpt><trkpt lat="43.2250405" lon="12.1803942"><ele>430.0</ele><time>2026-03-29T08:22:21.384Z</time></trkpt><trkpt lat="43.2249798" lon="12.1803208"><ele>429.3333333333333</ele><time>2026-03-29T08:22:22.383Z</time></trkpt><trkpt lat="43.2249013" lon="12.180274"><ele>428.66666666666663</ele><time>2026-03-29T08:22:23.386Z</time></trkpt><trkpt lat="43.2248197" lon="12.1802284"><ele>428.0</ele><time>2026-03-29T08:22:24.385Z</time></trkpt><trkpt lat="43.2247416" lon="12.1801636"><ele>428.0</ele><time>2026-03-29T08:22:26.384Z</time></trkpt><trkpt lat="43.2247371" lon="12.1800485"><ele>427.99999999999994</ele><time>2026-03-29T08:22:28.386Z</time></trkpt><trkpt lat="43.224794" lon="12.1798792"><ele>427.99999999999994</ele><time>2026-03-29T08:22:30.385Z</time></trkpt><trkpt lat="43.2248274" lon="12.1798006"><ele>428.0</ele><time>2026-03-29T08:22:31.385Z</time></trkpt><trkpt lat="43.2249008" lon="12.1797016"><ele>428.0</ele><time>2026-03-29T08:22:33.384Z</time></trkpt><trkpt lat="43.2249605" lon="12.1796671"><ele>430.66666666666663</ele><time>2026-03-29T08:22:34.384Z</time></trkpt><trkpt lat="43.2250355" lon="12.1796252"><ele>433.3333333333333</ele><time>2026-03-29T08:22:35.384Z</time></trkpt><trkpt lat="43.225117" lon="12.1795864"><ele>436.0</ele><time>2026-03-29T08:22:36.385Z</time></trkpt><trkpt lat="43.2251895" lon="12.1795185"><ele>438.66666666666663</ele><time>2026-03-29T08:22:37.385Z</time></trkpt><trkpt lat="43.2252588" lon="12.1794591"><ele>441.3333333333333</ele><time>2026-03-29T08:22:38.384Z</time></trkpt><trkpt lat="43.2253253" lon="12.1794106"><ele>444.0</ele><time>2026-03-29T08:22:39.383Z</time></trkpt><trkpt lat="43.2253737" lon="12.1793439"><ele>444.0</ele><time>2026-03-29T08:22:40.384Z</time></trkpt><trkpt lat="43.2254155" lon="12.1792646"><ele>444.0</ele><time>2026-03-29T08:22:41.385Z</time></trkpt><trkpt lat="43.225445" lon="12.1791834"><ele>444.0</ele><time>2026-03-29T08:22:42.384Z</time></trkpt><trkpt lat="43.2255006" lon="12.179123"><ele>444.0</ele><time>2026-03-29T08:22:43.383Z</time></trkpt><trkpt lat="43.2255844" lon="12.17901"><ele>444.0</ele><time>2026-03-29T08:22:45.384Z</time></trkpt><trkpt lat="43.2255767" lon="12.1788766"><ele>444.0</ele><time>2026-03-29T08:22:47.385Z</time></trkpt><trkpt lat="43.2255331" lon="12.1788056"><ele>445.4</ele><time>2026-03-29T08:22:48.385Z</time></trkpt><trkpt lat="43.2255172" lon="12.1786704"><ele>446.79999999999995</ele><time>2026-03-29T08:22:50.383Z</time></trkpt><trkpt lat="43.2255919" lon="12.1785683"><ele>448.20000000000005</ele><time>2026-03-29T08:22:52.385Z</time></trkpt><trkpt lat="43.2256868" lon="12.1784937"><ele>449.6</ele><time>2026-03-29T08:22:54.385Z</time></trkpt><trkpt lat="43.2257331" lon="12.1783661"><ele>451.0</ele><time>2026-03-29T08:22:56.385Z</time></trkpt><trkpt lat="43.2257251" lon="12.1782441"><ele>452.6666666666667</ele><time>2026-03-29T08:22:57.384Z</time></trkpt><trkpt lat="43.2257335" lon="12.1781261"><ele>454.33333333333337</ele><time>2026-03-29T08:22:58.385Z</time></trkpt><trkpt lat="43.2257341" lon="12.1780148"><ele>456.0</ele><time>2026-03-29T08:22:59.384Z</time></trkpt><trkpt lat="43.2257154" lon="12.1779019"><ele>457.66666666666663</ele><time>2026-03-29T08:23:00.384Z</time></trkpt><trkpt lat="43.2257031" lon="12.1778049"><ele>459.3333333333333</ele><time>2026-03-29T08:23:01.384Z</time></trkpt><trkpt lat="43.2256877" lon="12.1776687"><ele>461.0</ele><time>2026-03-29T08:23:02.385Z</time></trkpt><trkpt lat="43.2256841" lon="12.1775567"><ele>460.99999999999994</ele><time>2026-03-29T08:23:03.385Z</time></trkpt><trkpt lat="43.2256752" lon="12.1774395"><ele>461.0</ele><time>2026-03-29T08:23:04.384Z</time></trkpt><trkpt lat="43.2256915" lon="12.177327"><ele>461.0</ele><time>2026-03-29T08:23:05.385Z</time></trkpt><trkpt lat="43.2256998" lon="12.1772253"><ele>461.0</ele><time>2026-03-29T08:23:06.384Z</time></trkpt><trkpt lat="43.2257178" lon="12.1771045"><ele>460.99999999999994</ele><time>2026-03-29T08:23:07.385Z</time></trkpt><trkpt lat="43.2257274" lon="12.1770013"><ele>461.0</ele><time>2026-03-29T08:23:08.384Z</time></trkpt><trkpt lat="43.225733" lon="12.1768927"><ele>461.66666666666663</ele><time>2026-03-29T08:23:09.383Z</time></trkpt><trkpt lat="43.2257679" lon="12.1767959"><ele>462.3333333333333</ele><time>2026-03-29T08:23:10.384Z</time></trkpt><trkpt lat="43.2258169" lon="12.176718"><ele>463.0</ele><time>2026-03-29T08:23:11.385Z</time></trkpt><trkpt lat="43.2258754" lon="12.1766738"><ele>463.66666666666663</ele><time>2026-03-29T08:23:12.384Z</time></trkpt><trkpt lat="43.2259166" lon="12.1765965"><ele>464.3333333333333</ele><time>2026-03-29T08:23:13.386Z</time></trkpt><trkpt lat="43.2260064" lon="12.1764476"><ele>465.0</ele><time>2026-03-29T08:23:15.384Z</time></trkpt><trkpt lat="43.2260483" lon="12.1763637"><ele>466.3333333333333</ele><time>2026-03-29T08:23:16.384Z</time></trkpt><trkpt lat="43.2260794" lon="12.176275"><ele>467.66666666666663</ele><time>2026-03-29T08:23:17.385Z</time></trkpt><trkpt lat="43.2261018" lon="12.1761789"><ele>469.0</ele><time>2026-03-29T08:23:18.385Z</time></trkpt><trkpt lat="43.226124" lon="12.1760906"><ele>470.3333333333333</ele><time>2026-03-29T08:23:19.384Z</time></trkpt><trkpt lat="43.2261167" lon="12.1759966"><ele>471.66666666666663</ele><time>2026-03-29T08:23:20.384Z</time></trkpt><trkpt lat="43.2261316" lon="12.1758602"><ele>473.0</ele><time>2026-03-29T08:23:22.384Z</time></trkpt><trkpt lat="43.2261541" lon="12.1757694"><ele>472.99999999999994</ele><time>2026-03-29T08:23:23.384Z</time></trkpt><trkpt lat="43.2261756" lon="12.1756877"><ele>473.0</ele><time>2026-03-29T08:23:24.383Z</time></trkpt><trkpt lat="43.2261893" lon="12.1755428"><ele>473.0</ele><time>2026-03-29T08:23:26.384Z</time></trkpt><trkpt lat="43.2262214" lon="12.1754575"><ele>473.0</ele><time>2026-03-29T08:23:28.384Z</time></trkpt><trkpt lat="43.2262072" lon="12.1753607"><ele>472.99999999999994</ele><time>2026-03-29T08:23:31.384Z</time></trkpt><trkpt lat="43.2262038" lon="12.1752526"><ele>473.0</ele><time>2026-03-29T08:23:37.385Z</time></trkpt><trkpt lat="43.2261971" lon="12.175156"><ele>475.59999999999997</ele><time>2026-03-29T08:23:43.384Z</time></trkpt><trkpt lat="43.2261772" lon="12.1750077"><ele>478.19999999999993</ele><time>2026-03-29T08:23:47.385Z</time></trkpt><trkpt lat="43.2261513" lon="12.1749233"><ele>480.8</ele><time>2026-03-29T08:23:49.383Z</time></trkpt><trkpt lat="43.2260661" lon="12.1747862"><ele>483.4</ele><time>2026-03-29T08:23:51.384Z</time></trkpt><trkpt lat="43.2259944" lon="12.1746563"><ele>486.0</ele><time>2026-03-29T08:23:53.385Z</time></trkpt><trkpt lat="43.2259453" lon="12.174532"><ele>488.4</ele><time>2026-03-29T08:23:55.385Z</time></trkpt><trkpt lat="43.2259587" lon="12.1744257"><ele>490.8</ele><time>2026-03-29T08:23:57.384Z</time></trkpt><trkpt lat="43.226035" lon="12.1743626"><ele>493.19999999999993</ele><time>2026-03-29T08:23:59.384Z</time></trkpt><trkpt lat="43.2261438" lon="12.1743015"><ele>495.59999999999997</ele><time>2026-03-29T08:24:01.384Z</time></trkpt><trkpt lat="43.2262271" lon="12.1742378"><ele>498.0</ele><time>2026-03-29T08:24:03.385Z</time></trkpt><trkpt lat="43.2262894" lon="12.1741684"><ele>498.0</ele><time>2026-03-29T08:24:05.385Z</time></trkpt><trkpt lat="43.2263637" lon="12.1741395"><ele>498.0</ele><time>2026-03-29T08:24:07.385Z</time></trkpt><trkpt lat="43.2264343" lon="12.1740922"><ele>498.0</ele><time>2026-03-29T08:24:09.384Z</time></trkpt><trkpt lat="43.2264977" lon="12.1740615"><ele>498.0</ele><time>2026-03-29T08:24:11.386Z</time></trkpt><trkpt lat="43.2265492" lon="12.1740082"><ele>498.0</ele><time>2026-03-29T08:24:13.386Z</time></trkpt><trkpt lat="43.2266652" lon="12.1739844"><ele>498.0</ele><time>2026-03-29T08:24:15.386Z</time></trkpt><trkpt lat="43.2267301" lon="12.1739779"><ele>502.1666666666667</ele><time>2026-03-29T08:24:16.384Z</time></trkpt><trkpt lat="43.2267974" lon="12.1739568"><ele>506.33333333333337</ele><time>2026-03-29T08:24:17.383Z</time></trkpt><trkpt lat="43.226899" lon="12.1739111"><ele>510.5</ele><time>2026-03-29T08:24:19.384Z</time></trkpt><trkpt lat="43.226922" lon="12.1738134"><ele>514.6666666666667</ele><time>2026-03-29T08:24:22.386Z</time></trkpt><trkpt lat="43.2268742" lon="12.1737246"><ele>518.8333333333334</ele><time>2026-03-29T08:24:24.383Z</time></trkpt><trkpt lat="43.2268308" lon="12.1736395"><ele>523.0</ele><time>2026-03-29T08:24:26.384Z</time></trkpt><trkpt lat="43.2267575" lon="12.173531"><ele>523.0</ele><time>2026-03-29T08:24:28.386Z</time></trkpt><trkpt lat="43.2267224" lon="12.1733832"><ele>523.0</ele><time>2026-03-29T08:24:30.386Z</time></trkpt><trkpt lat="43.2267144" lon="12.1732551"><ele>523.0</ele><time>2026-03-29T08:24:32.385Z</time></trkpt><trkpt lat="43.2267525" lon="12.1731522"><ele>523.0</ele><time>2026-03-29T08:24:34.386Z</time></trkpt><trkpt lat="43.2268454" lon="12.1730956"><ele>523.0</ele><time>2026-03-29T08:24:36.384Z</time></trkpt><trkpt lat="43.2268519" lon="12.1729959"><ele>525.4</ele><time>2026-03-29T08:24:38.384Z</time></trkpt><trkpt lat="43.2268424" lon="12.172878"><ele>527.8</ele><time>2026-03-29T08:24:40.385Z</time></trkpt><trkpt lat="43.2268695" lon="12.1727307"><ele>530.2</ele><time>2026-03-29T08:24:42.386Z</time></trkpt><trkpt lat="43.2268641" lon="12.1726103"><ele>532.6</ele><time>2026-03-29T08:24:44.386Z</time></trkpt><trkpt lat="43.2268934" lon="12.1725035"><ele>535.0</ele><time>2026-03-29T08:24:46.385Z</time></trkpt><trkpt lat="43.2268979" lon="12.1723755"><ele>537.5</ele><time>2026-03-29T08:24:48.385Z</time></trkpt><trkpt lat="43.2268948" lon="12.1722869"><ele>540.0</ele><time>2026-03-29T08:24:50.385Z</time></trkpt><trkpt lat="43.2268607" lon="12.1721438"><ele>542.5</ele><time>2026-03-29T08:24:52.384Z</time></trkpt><trkpt lat="43.2268191" lon="12.1720526"><ele>545.0</ele><time>2026-03-29T08:24:53.385Z</time></trkpt><trkpt lat="43.2267529" lon="12.1719242"><ele>547.5</ele><time>2026-03-29T08:24:55.386Z</time></trkpt><trkpt lat="43.2267064" lon="12.1718386"><ele>550.0</ele><time>2026-03-29T08:24:57.385Z</time></trkpt><trkpt lat="43.2266688" lon="12.1717524"><ele>550.0</ele><time>2026-03-29T08:24:59.383Z</time></trkpt><trkpt lat="43.2266685" lon="12.1716345"><ele>550.0</ele><time>2026-03-29T08:25:02.384Z</time></trkpt><trkpt lat="43.2267422" lon="12.1715285"><ele>550.0</ele><time>2026-03-29T08:25:04.384Z</time></trkpt><trkpt lat="43.2268672" lon="12.1715032"><ele>550.0</ele><time>2026-03-29T08:25:06.385Z</time></trkpt><trkpt lat="43.2269392" lon="12.1714921"><ele>550.0</ele><time>2026-03-29T08:25:07.383Z</time></trkpt><trkpt lat="43.2270202" lon="12.1714321"><ele>552.0</ele><time>2026-03-29T08:25:09.386Z</time></trkpt><trkpt lat="43.2270327" lon="12.1713143"><ele>554.0</ele><time>2026-03-29T08:25:11.384Z</time></trkpt><trkpt lat="43.2269713" lon="12.1711742"><ele>556.0</ele><time>2026-03-29T08:25:13.385Z</time></trkpt><trkpt lat="43.2268663" lon="12.171073"><ele>558.0</ele><time>2026-03-29T08:25:15.384Z</time></trkpt><trkpt lat="43.2268121" lon="12.1710225"><ele>560.0</ele><time>2026-03-29T08:25:16.385Z</time></trkpt><trkpt lat="43.2267597" lon="12.1709041"><ele>560.0</ele><time>2026-03-29T08:25:18.384Z</time></trkpt><trkpt lat="43.2267696" lon="12.1707713"><ele>560.0</ele><time>2026-03-29T08:25:20.385Z</time></trkpt><trkpt lat="43.2267751" lon="12.1706754"><ele>560.0</ele><time>2026-03-29T08:25:21.385Z</time></trkpt><trkpt lat="43.2268281" lon="12.1706041"><ele>560.0</ele><time>2026-03-29T08:25:23.385Z</time></trkpt><trkpt lat="43.2269394" lon="12.1706134"><ele>560.0</ele><time>2026-03-29T08:25:25.385Z</time></trkpt><trkpt lat="43.2270241" lon="12.1706547"><ele>560.0</ele><time>2026-03-29T08:25:26.383Z</time></trkpt><trkpt lat="43.2271048" lon="12.1706763"><ele>560.0</ele><time>2026-03-29T08:25:27.385Z</time></trkpt><trkpt lat="43.2271892" lon="12.1706975"><ele>560.0</ele><time>2026-03-29T08:25:28.385Z</time></trkpt><trkpt lat="43.2272648" lon="12.170716"><ele>560.0</ele><time>2026-03-29T08:25:29.385Z</time></trkpt><trkpt lat="43.2273337" lon="12.1706995"><ele>560.0</ele><time>2026-03-29T08:25:30.384Z</time></trkpt><trkpt lat="43.2273982" lon="12.1706614"><ele>560.0</ele><time>2026-03-29T08:25:32.384Z</time></trkpt><trkpt lat="43.2270202" lon="12.1714321"><ele>560.0</ele><time>2026-03-29T08:25:09.386Z</time></trkpt><trkpt lat="43.2270327" lon="12.1713143"><ele>560.0</ele><time>2026-03-29T08:25:11.384Z</time></trkpt><trkpt lat="43.2269713" lon="12.1711742"><ele>560.0</ele><time>2026-03-29T08:25:13.385Z</time></trkpt><trkpt lat="43.2268663" lon="12.171073"><ele>560.0</ele><time>2026-03-29T08:25:15.384Z</time></trkpt><trkpt lat="43.2268121" lon="12.1710225"><ele>560.0</ele><time>2026-03-29T08:25:16.385Z</time></trkpt><trkpt lat="43.2267597" lon="12.1709041"><ele>560.0</ele><time>2026-03-29T08:25:18.384Z</time></trkpt><trkpt lat="43.2267696" lon="12.1707713"><ele>560.0</ele><time>2026-03-29T08:25:20.385Z</time></trkpt><trkpt lat="43.2267751" lon="12.1706754"><ele>560.0</ele><time>2026-03-29T08:25:21.385Z</time></trkpt><trkpt lat="43.2268281" lon="12.1706041"><ele>560.0</ele><time>2026-03-29T08:25:23.385Z</time></trkpt><trkpt lat="43.2269394" lon="12.1706134"><ele>560.0</ele><time>2026-03-29T08:25:25.385Z</time></trkpt><trkpt lat="43.2270241" lon="12.1706547"><ele>560.0</ele><time>2026-03-29T08:25:26.383Z</time></trkpt><trkpt lat="43.2271048" lon="12.1706763"><ele>560.0</ele><time>2026-03-29T08:25:27.385Z</time></trkpt><trkpt lat="43.2271892" lon="12.1706975"><ele>560.0</ele><time>2026-03-29T08:25:28.385Z</time></trkpt><trkpt lat="43.2272648" lon="12.170716"><ele>560.0</ele><time>2026-03-29T08:25:29.385Z</time></trkpt><trkpt lat="43.2273337" lon="12.1706995"><ele>560.0</ele><time>2026-03-29T08:25:30.384Z</time></trkpt><trkpt lat="43.2273982" lon="12.1706614"><ele>560.0</ele><time>2026-03-29T08:25:32.384Z</time></trkpt><trkpt lat="43.2274708" lon="12.1707126"><ele>560.0</ele><time>2026-03-29T08:25:42.384Z</time></trkpt><trkpt lat="43.2275516" lon="12.1707849"><ele>562.0</ele><time>2026-03-29T08:25:44.385Z</time></trkpt><trkpt lat="43.2276201" lon="12.1708215"><ele>564.0</ele><time>2026-03-29T08:25:45.385Z</time></trkpt><trkpt lat="43.2277447" lon="12.1708568"><ele>566.0</ele><time>2026-03-29T08:25:47.386Z</time></trkpt><trkpt lat="43.2278177" lon="12.170872"><ele>568.0</ele><time>2026-03-29T08:25:48.385Z</time></trkpt><trkpt lat="43.2279486" lon="12.1708476"><ele>570.0</ele><time>2026-03-29T08:25:50.385Z</time></trkpt><trkpt lat="43.2280184" lon="12.170828"><ele>570.0</ele><time>2026-03-29T08:25:51.386Z</time></trkpt><trkpt lat="43.228092" lon="12.1708218"><ele>570.0</ele><time>2026-03-29T08:25:52.385Z</time></trkpt><trkpt lat="43.2281711" lon="12.1708737"><ele>570.0</ele><time>2026-03-29T08:25:53.384Z</time></trkpt><trkpt lat="43.2282268" lon="12.1709228"><ele>570.0</ele><time>2026-03-29T08:25:54.384Z</time></trkpt><trkpt lat="43.2282822" lon="12.171021"><ele>570.0</ele><time>2026-03-29T08:25:55.385Z</time></trkpt><trkpt lat="43.2283329" lon="12.1711023"><ele>570.0</ele><time>2026-03-29T08:25:56.386Z</time></trkpt><trkpt lat="43.2283834" lon="12.1711631"><ele>570.4</ele><time>2026-03-29T08:25:57.384Z</time></trkpt><trkpt lat="43.2285246" lon="12.1712196"><ele>570.8</ele><time>2026-03-29T08:25:59.385Z</time></trkpt><trkpt lat="43.2286245" lon="12.1712558"><ele>571.2</ele><time>2026-03-29T08:26:00.384Z</time></trkpt><trkpt lat="43.2287189" lon="12.1712928"><ele>571.6</ele><time>2026-03-29T08:26:01.384Z</time></trkpt><trkpt lat="43.228805" lon="12.1713454"><ele>572.0</ele><time>2026-03-29T08:26:02.386Z</time></trkpt><trkpt lat="43.2288807" lon="12.1713956"><ele>574.0</ele><time>2026-03-29T08:26:03.383Z</time></trkpt><trkpt lat="43.2289862" lon="12.1714273"><ele>576.0</ele><time>2026-03-29T08:26:04.386Z</time></trkpt><trkpt lat="43.2290557" lon="12.1714603"><ele>578.0</ele><time>2026-03-29T08:26:05.385Z</time></trkpt><trkpt lat="43.2291533" lon="12.1715158"><ele>580.0</ele><time>2026-03-29T08:26:06.384Z</time></trkpt><trkpt lat="43.2292387" lon="12.1715916"><ele>582.0</ele><time>2026-03-29T08:26:07.384Z</time></trkpt><trkpt lat="43.2293391" lon="12.1716811"><ele>578.0</ele><time>2026-03-29T08:26:08.385Z</time></trkpt><trkpt lat="43.2294253" lon="12.1717663"><ele>574.0</ele><time>2026-03-29T08:26:09.385Z</time></trkpt><trkpt lat="43.2294904" lon="12.1718137"><ele>570.0</ele><time>2026-03-29T08:26:10.385Z</time></trkpt><trkpt lat="43.2295486" lon="12.1718987"><ele>566.0</ele><time>2026-03-29T08:26:11.384Z</time></trkpt><trkpt lat="43.2296178" lon="12.1719456"><ele>562.0</ele><time>2026-03-29T08:26:12.385Z</time></trkpt><trkpt lat="43.2296926" lon="12.1719829"><ele>558.0</ele><time>2026-03-29T08:26:13.385Z</time></trkpt><trkpt lat="43.2297778" lon="12.1720171"><ele>559.4</ele><time>2026-03-29T08:26:14.385Z</time></trkpt><trkpt lat="43.229868" lon="12.1720575"><ele>560.8</ele><time>2026-03-29T08:26:15.385Z</time></trkpt><trkpt lat="43.2299617" lon="12.1720881"><ele>562.2</ele><time>2026-03-29T08:26:16.385Z</time></trkpt><trkpt lat="43.2300499" lon="12.1721041"><ele>563.6</ele><time>2026-03-29T08:26:17.386Z</time></trkpt><trkpt lat="43.2301324" lon="12.1721211"><ele>565.0</ele><time>2026-03-29T08:26:18.385Z</time></trkpt><trkpt lat="43.2302218" lon="12.1721074"><ele>565.0</ele><time>2026-03-29T08:26:19.385Z</time></trkpt><trkpt lat="43.2303077" lon="12.172056"><ele>565.0</ele><time>2026-03-29T08:26:20.385Z</time></trkpt><trkpt lat="43.2304005" lon="12.1720246"><ele>565.0</ele><time>2026-03-29T08:26:21.384Z</time></trkpt><trkpt lat="43.2304881" lon="12.1719738"><ele>565.0</ele><time>2026-03-29T08:26:22.384Z</time></trkpt><trkpt lat="43.2305685" lon="12.1719116"><ele>565.0</ele><time>2026-03-29T08:26:23.384Z</time></trkpt><trkpt lat="43.2306277" lon="12.1718594"><ele>565.0</ele><time>2026-03-29T08:26:24.385Z</time></trkpt><trkpt lat="43.2306963" lon="12.1718109"><ele>563.5</ele><time>2026-03-29T08:26:25.385Z</time></trkpt><trkpt lat="43.2307481" lon="12.1717467"><ele>562.0</ele><time>2026-03-29T08:26:26.384Z</time></trkpt><trkpt lat="43.2307699" lon="12.1716411"><ele>560.5</ele><time>2026-03-29T08:26:27.385Z</time></trkpt><trkpt lat="43.2308005" lon="12.1715482"><ele>559.0</ele><time>2026-03-29T08:26:28.386Z</time></trkpt><trkpt lat="43.2307938" lon="12.1714278"><ele>557.5</ele><time>2026-03-29T08:26:29.385Z</time></trkpt><trkpt lat="43.2308393" lon="12.1713295"><ele>556.0</ele><time>2026-03-29T08:26:30.384Z</time></trkpt><trkpt lat="43.2308954" lon="12.1712427"><ele>556.0</ele><time>2026-03-29T08:26:31.385Z</time></trkpt><trkpt lat="43.2309364" lon="12.1711259"><ele>556.0</ele><time>2026-03-29T08:26:32.385Z</time></trkpt><trkpt lat="43.2309686" lon="12.1710266"><ele>556.0</ele><time>2026-03-29T08:26:33.384Z</time></trkpt><trkpt lat="43.2309952" lon="12.1709361"><ele>556.0</ele><time>2026-03-29T08:26:34.386Z</time></trkpt><trkpt lat="43.2309999" lon="12.1708424"><ele>556.0</ele><time>2026-03-29T08:26:35.385Z</time></trkpt><trkpt lat="43.2310611" lon="12.1707737"><ele>556.0</ele><time>2026-03-29T08:26:36.385Z</time></trkpt><trkpt lat="43.2311486" lon="12.1707486"><ele>556.0</ele><time>2026-03-29T08:26:37.385Z</time></trkpt><trkpt lat="43.2312158" lon="12.170706"><ele>556.0</ele><time>2026-03-29T08:26:38.384Z</time></trkpt><trkpt lat="43.2312736" lon="12.1705663"><ele>556.0</ele><time>2026-03-29T08:26:40.384Z</time></trkpt><trkpt lat="43.231298" lon="12.1704607"><ele>556.0</ele><time>2026-03-29T08:26:41.385Z</time></trkpt><trkpt lat="43.2313432" lon="12.1703726"><ele>556.0</ele><time>2026-03-29T08:26:42.384Z</time></trkpt><trkpt lat="43.2313854" lon="12.1702871"><ele>556.0</ele><time>2026-03-29T08:26:43.384Z</time></trkpt><trkpt lat="43.2314813" lon="12.170189"><ele>557.0</ele><time>2026-03-29T08:26:45.386Z</time></trkpt><trkpt lat="43.231553" lon="12.1701487"><ele>558.0</ele><time>2026-03-29T08:26:46.385Z</time></trkpt><trkpt lat="43.2316455" lon="12.1701196"><ele>559.0</ele><time>2026-03-29T08:26:47.384Z</time></trkpt><trkpt lat="43.2317364" lon="12.1700509"><ele>560.0</ele><time>2026-03-29T08:26:48.384Z</time></trkpt><trkpt lat="43.2318277" lon="12.1700005"><ele>561.0</ele><time>2026-03-29T08:26:49.385Z</time></trkpt><trkpt lat="43.2319281" lon="12.1699748"><ele>561.0</ele><time>2026-03-29T08:26:50.384Z</time></trkpt><trkpt lat="43.2320236" lon="12.1699206"><ele>561.0</ele><time>2026-03-29T08:26:51.384Z</time></trkpt><trkpt lat="43.2321049" lon="12.169871"><ele>561.0</ele><time>2026-03-29T08:26:52.385Z</time></trkpt><trkpt lat="43.2321599" lon="12.1698012"><ele>561.0</ele><time>2026-03-29T08:26:53.385Z</time></trkpt><trkpt lat="43.2322385" lon="12.169679"><ele>561.0</ele><time>2026-03-29T08:26:54.385Z</time></trkpt><trkpt lat="43.2322723" lon="12.1695509"><ele>562.0</ele><time>2026-03-29T08:26:55.385Z</time></trkpt><trkpt lat="43.2323278" lon="12.1694434"><ele>563.0</ele><time>2026-03-29T08:26:56.385Z</time></trkpt><trkpt lat="43.2324006" lon="12.1693622"><ele>564.0</ele><time>2026-03-29T08:26:57.386Z</time></trkpt><trkpt lat="43.2324647" lon="12.1692879"><ele>565.0</ele><time>2026-03-29T08:26:58.384Z</time></trkpt><trkpt lat="43.2324991" lon="12.1691939"><ele>566.0</ele><time>2026-03-29T08:26:59.385Z</time></trkpt><trkpt lat="43.2325551" lon="12.1691046"><ele>567.0</ele><time>2026-03-29T08:27:00.384Z</time></trkpt><trkpt lat="43.2326251" lon="12.1690327"><ele>571.8000000000001</ele><time>2026-03-29T08:27:01.385Z</time></trkpt><trkpt lat="43.2327144" lon="12.1688852"><ele>576.6</ele><time>2026-03-29T08:27:03.384Z</time></trkpt><trkpt lat="43.2327894" lon="12.1688116"><ele>581.4000000000001</ele><time>2026-03-29T08:27:04.384Z</time></trkpt><trkpt lat="43.2328882" lon="12.1687624"><ele>586.2</ele><time>2026-03-29T08:27:05.385Z</time></trkpt><trkpt lat="43.2329711" lon="12.1687056"><ele>591.0</ele><time>2026-03-29T08:27:06.384Z</time></trkpt><trkpt lat="43.2330772" lon="12.1687279"><ele>588.0</ele><time>2026-03-29T08:27:07.386Z</time></trkpt><trkpt lat="43.2331713" lon="12.1687396"><ele>585.0</ele><time>2026-03-29T08:27:08.385Z</time></trkpt><trkpt lat="43.2332807" lon="12.1687757"><ele>582.0</ele><time>2026-03-29T08:27:09.385Z</time></trkpt><trkpt lat="43.2333638" lon="12.1687851"><ele>579.0</ele><time>2026-03-29T08:27:10.385Z</time></trkpt><trkpt lat="43.2334596" lon="12.1687151"><ele>576.0</ele><time>2026-03-29T08:27:12.385Z</time></trkpt><trkpt lat="43.2334165" lon="12.1686282"><ele>576.0</ele><time>2026-03-29T08:27:15.386Z</time></trkpt><trkpt lat="43.2333528" lon="12.1686151"><ele>576.0</ele><time>2026-03-29T08:27:16.385Z</time></trkpt><trkpt lat="43.2332695" lon="12.1685203"><ele>576.0</ele><time>2026-03-29T08:27:18.387Z</time></trkpt><trkpt lat="43.2332798" lon="12.1683851"><ele>576.0</ele><time>2026-03-29T08:27:20.387Z</time></trkpt><trkpt lat="43.2332984" lon="12.1682123"><ele>576.0</ele><time>2026-03-29T08:27:22.385Z</time></trkpt><trkpt lat="43.2333101" lon="12.1681162"><ele>577.0</ele><time>2026-03-29T08:27:23.385Z</time></trkpt><trkpt lat="43.2333126" lon="12.1680155"><ele>578.0</ele><time>2026-03-29T08:27:24.386Z</time></trkpt><trkpt lat="43.2333313" lon="12.1679127"><ele>579.0</ele><time>2026-03-29T08:27:25.385Z</time></trkpt><trkpt lat="43.2333114" lon="12.1677581"><ele>580.0</ele><time>2026-03-29T08:27:26.385Z</time></trkpt><trkpt lat="43.2333064" lon="12.1676445"><ele>581.0</ele><time>2026-03-29T08:27:27.384Z</time></trkpt><trkpt lat="43.2332831" lon="12.1674887"><ele>581.0</ele><time>2026-03-29T08:27:28.385Z</time></trkpt><trkpt lat="43.233247" lon="12.1673701"><ele>581.0</ele><time>2026-03-29T08:27:29.385Z</time></trkpt><trkpt lat="43.2332627" lon="12.1672382"><ele>581.0</ele><time>2026-03-29T08:27:30.385Z</time></trkpt><trkpt lat="43.2333184" lon="12.1671391"><ele>581.0</ele><time>2026-03-29T08:27:31.385Z</time></trkpt><trkpt lat="43.233336" lon="12.1670109"><ele>581.0</ele><time>2026-03-29T08:27:32.384Z</time></trkpt><trkpt lat="43.2333661" lon="12.1669098"><ele>581.3333333333333</ele><time>2026-03-29T08:27:33.385Z</time></trkpt><trkpt lat="43.2333191" lon="12.166786"><ele>581.6666666666666</ele><time>2026-03-29T08:27:34.386Z</time></trkpt><trkpt lat="43.2333291" lon="12.1666832"><ele>582.0</ele><time>2026-03-29T08:27:35.385Z</time></trkpt><trkpt lat="43.2333516" lon="12.1665708"><ele>582.3333333333334</ele><time>2026-03-29T08:27:37.384Z</time></trkpt><trkpt lat="43.2334237" lon="12.1665982"><ele>582.6666666666667</ele><time>2026-03-29T08:27:39.384Z</time></trkpt><trkpt lat="43.2334883" lon="12.1665941"><ele>583.0</ele><time>2026-03-29T08:27:40.387Z</time></trkpt><trkpt lat="43.2336077" lon="12.16661"><ele>583.0</ele><time>2026-03-29T08:27:42.384Z</time></trkpt><trkpt lat="43.2337883" lon="12.166589"><ele>583.0</ele><time>2026-03-29T08:27:44.385Z</time></trkpt><trkpt lat="43.2339026" lon="12.1664855"><ele>583.0</ele><time>2026-03-29T08:27:45.385Z</time></trkpt><trkpt lat="43.2339949" lon="12.1664184"><ele>583.0</ele><time>2026-03-29T08:27:46.385Z</time></trkpt><trkpt lat="43.2340919" lon="12.1663639"><ele>582.4</ele><time>2026-03-29T08:27:47.385Z</time></trkpt><trkpt lat="43.2341686" lon="12.1663166"><ele>581.8</ele><time>2026-03-29T08:27:48.386Z</time></trkpt><trkpt lat="43.2342584" lon="12.1662744"><ele>581.2</ele><time>2026-03-29T08:27:49.386Z</time></trkpt><trkpt lat="43.2343349" lon="12.1662955"><ele>580.6</ele><time>2026-03-29T08:27:51.385Z</time></trkpt><trkpt lat="43.2344441" lon="12.1663784"><ele>580.0</ele><time>2026-03-29T08:27:53.384Z</time></trkpt><trkpt lat="43.2345184" lon="12.1664158"><ele>580.0</ele><time>2026-03-29T08:27:54.386Z</time></trkpt><trkpt lat="43.2346282" lon="12.1664122"><ele>580.0</ele><time>2026-03-29T08:27:55.385Z</time></trkpt><trkpt lat="43.2347388" lon="12.166437"><ele>580.0</ele><time>2026-03-29T08:27:56.386Z</time></trkpt><trkpt lat="43.2348303" lon="12.1664494"><ele>580.0</ele><time>2026-03-29T08:27:57.384Z</time></trkpt><trkpt lat="43.2349563" lon="12.1665445"><ele>577.3333333333334</ele><time>2026-03-29T08:27:59.385Z</time></trkpt><trkpt lat="43.2350501" lon="12.1665909"><ele>574.6666666666667</ele><time>2026-03-29T08:28:00.385Z</time></trkpt><trkpt lat="43.2351301" lon="12.1666462"><ele>572.0</ele><time>2026-03-29T08:28:01.385Z</time></trkpt><trkpt lat="43.2351924" lon="12.1667221"><ele>569.3333333333334</ele><time>2026-03-29T08:28:02.385Z</time></trkpt><trkpt lat="43.2352551" lon="12.1667918"><ele>566.6666666666666</ele><time>2026-03-29T08:28:03.385Z</time></trkpt><trkpt lat="43.2353077" lon="12.1668571"><ele>564.0</ele><time>2026-03-29T08:28:04.385Z</time></trkpt><trkpt lat="43.2353932" lon="12.1669413"><ele>564.0</ele><time>2026-03-29T08:28:05.385Z</time></trkpt><trkpt lat="43.2354628" lon="12.1669803"><ele>564.0</ele><time>2026-03-29T08:28:06.386Z</time></trkpt><trkpt lat="43.2355455" lon="12.1670303"><ele>564.0</ele><time>2026-03-29T08:28:07.387Z</time></trkpt><trkpt lat="43.2356158" lon="12.1671022"><ele>564.0</ele><time>2026-03-29T08:28:08.385Z</time></trkpt><trkpt lat="43.2356826" lon="12.1671747"><ele>564.0</ele><time>2026-03-29T08:28:09.385Z</time></trkpt><trkpt lat="43.235756" lon="12.1673061"><ele>564.8</ele><time>2026-03-29T08:28:11.384Z</time></trkpt><trkpt lat="43.2358377" lon="12.1674066"><ele>565.5999999999999</ele><time>2026-03-29T08:28:13.384Z</time></trkpt><trkpt lat="43.2359337" lon="12.1673739"><ele>566.4</ele><time>2026-03-29T08:28:15.386Z</time></trkpt><trkpt lat="43.235979" lon="12.1672273"><ele>567.1999999999999</ele><time>2026-03-29T08:28:17.385Z</time></trkpt><trkpt lat="43.2360265" lon="12.1671229"><ele>568.0</ele><time>2026-03-29T08:28:18.385Z</time></trkpt><trkpt lat="43.2360833" lon="12.1669954"><ele>568.0</ele><time>2026-03-29T08:28:19.385Z</time></trkpt><trkpt lat="43.2361352" lon="12.1668864"><ele>568.0</ele><time>2026-03-29T08:28:20.386Z</time></trkpt><trkpt lat="43.2361405" lon="12.1667756"><ele>568.0</ele><time>2026-03-29T08:28:21.386Z</time></trkpt><trkpt lat="43.236167" lon="12.1666915"><ele>568.0</ele><time>2026-03-29T08:28:22.385Z</time></trkpt><trkpt lat="43.2362515" lon="12.1666924"><ele>568.0</ele><time>2026-03-29T08:28:23.386Z</time></trkpt><trkpt lat="43.2363409" lon="12.1666985"><ele>568.0</ele><time>2026-03-29T08:28:24.384Z</time></trkpt><trkpt lat="43.2364725" lon="12.1667587"><ele>565.0</ele><time>2026-03-29T08:28:26.385Z</time></trkpt><trkpt lat="43.2365717" lon="12.1668142"><ele>562.0</ele><time>2026-03-29T08:28:27.385Z</time></trkpt><trkpt lat="43.2366812" lon="12.1668879"><ele>559.0</ele><time>2026-03-29T08:28:28.385Z</time></trkpt><trkpt lat="43.236756" lon="12.1669215"><ele>556.0</ele><time>2026-03-29T08:28:29.386Z</time></trkpt><trkpt lat="43.2367983" lon="12.1670066"><ele>553.0</ele><time>2026-03-29T08:28:30.385Z</time></trkpt><trkpt lat="43.2368614" lon="12.1670762"><ele>553.0</ele><time>2026-03-29T08:28:31.385Z</time></trkpt><trkpt lat="43.2369676" lon="12.1670957"><ele>553.0</ele><time>2026-03-29T08:28:33.385Z</time></trkpt><trkpt lat="43.2370937" lon="12.167083"><ele>553.0</ele><time>2026-03-29T08:28:34.386Z</time></trkpt><trkpt lat="43.2371913" lon="12.1670546"><ele>553.0</ele><time>2026-03-29T08:28:35.386Z</time></trkpt><trkpt lat="43.2372978" lon="12.1670034"><ele>553.0</ele><time>2026-03-29T08:28:36.385Z</time></trkpt><trkpt lat="43.2373565" lon="12.1669644"><ele>551.6666666666667</ele><time>2026-03-29T08:28:37.386Z</time></trkpt><trkpt lat="43.2374371" lon="12.1669432"><ele>550.3333333333334</ele><time>2026-03-29T08:28:38.385Z</time></trkpt><trkpt lat="43.2375119" lon="12.166925"><ele>549.0</ele><time>2026-03-29T08:28:39.385Z</time></trkpt><trkpt lat="43.2376066" lon="12.1669223"><ele>547.6666666666666</ele><time>2026-03-29T08:28:40.386Z</time></trkpt><trkpt lat="43.2377105" lon="12.1669373"><ele>546.3333333333333</ele><time>2026-03-29T08:28:41.386Z</time></trkpt><trkpt lat="43.23779" lon="12.1669686"><ele>545.0</ele><time>2026-03-29T08:28:42.385Z</time></trkpt><trkpt lat="43.2378737" lon="12.1669929"><ele>545.0</ele><time>2026-03-29T08:28:43.386Z</time></trkpt><trkpt lat="43.2379471" lon="12.1669896"><ele>545.0</ele><time>2026-03-29T08:28:44.387Z</time></trkpt><trkpt lat="43.2380566" lon="12.1669759"><ele>545.0</ele><time>2026-03-29T08:28:45.386Z</time></trkpt><trkpt lat="43.2381451" lon="12.1669683"><ele>545.0</ele><time>2026-03-29T08:28:46.386Z</time></trkpt><trkpt lat="43.2382388" lon="12.1669698"><ele>545.0</ele><time>2026-03-29T08:28:47.385Z</time></trkpt><trkpt lat="43.2383218" lon="12.1669436"><ele>541.6</ele><time>2026-03-29T08:28:48.386Z</time></trkpt><trkpt lat="43.2384062" lon="12.1669827"><ele>538.2</ele><time>2026-03-29T08:28:49.384Z</time></trkpt><trkpt lat="43.2385248" lon="12.1670457"><ele>534.8</ele><time>2026-03-29T08:28:51.386Z</time></trkpt><trkpt lat="43.2386091" lon="12.1671132"><ele>531.4</ele><time>2026-03-29T08:28:53.385Z</time></trkpt><trkpt lat="43.2386645" lon="12.1670506"><ele>528.0</ele><time>2026-03-29T08:28:56.386Z</time></trkpt><trkpt lat="43.238679" lon="12.1669131"><ele>528.0</ele><time>2026-03-29T08:28:59.387Z</time></trkpt><trkpt lat="43.2386612" lon="12.1667608"><ele>528.0</ele><time>2026-03-29T08:29:00.385Z</time></trkpt><trkpt lat="43.2386454" lon="12.1666469"><ele>528.0</ele><time>2026-03-29T08:29:01.385Z</time></trkpt><trkpt lat="43.2386209" lon="12.1665226"><ele>528.0</ele><time>2026-03-29T08:29:02.385Z</time></trkpt><trkpt lat="43.2386018" lon="12.166412"><ele>528.0</ele><time>2026-03-29T08:29:03.386Z</time></trkpt><trkpt lat="43.2385483" lon="12.1662787"><ele>529.0</ele><time>2026-03-29T08:29:04.384Z</time></trkpt><trkpt lat="43.2385116" lon="12.1661351"><ele>530.0</ele><time>2026-03-29T08:29:05.384Z</time></trkpt><trkpt lat="43.2384932" lon="12.1660037"><ele>531.0</ele><time>2026-03-29T08:29:06.387Z</time></trkpt><trkpt lat="43.2384416" lon="12.165812"><ele>532.0</ele><time>2026-03-29T08:29:07.386Z</time></trkpt><trkpt lat="43.2384051" lon="12.1656141"><ele>532.25</ele><time>2026-03-29T08:29:08.386Z</time></trkpt><trkpt lat="43.2383792" lon="12.1654389"><ele>532.5</ele><time>2026-03-29T08:29:09.385Z</time></trkpt><trkpt lat="43.2383728" lon="12.1652738"><ele>532.75</ele><time>2026-03-29T08:29:10.384Z</time></trkpt><trkpt lat="43.2383561" lon="12.165086"><ele>533.0</ele><time>2026-03-29T08:29:11.386Z</time></trkpt><trkpt lat="43.2383224" lon="12.1649804"><ele>532.75</ele><time>2026-03-29T08:29:12.385Z</time></trkpt><trkpt lat="43.2382786" lon="12.1648087"><ele>532.5</ele><time>2026-03-29T08:29:13.386Z</time></trkpt><trkpt lat="43.2382085" lon="12.1646461"><ele>532.25</ele><time>2026-03-29T08:29:14.385Z</time></trkpt><trkpt lat="43.238176" lon="12.1644652"><ele>532.0</ele><time>2026-03-29T08:29:15.385Z</time></trkpt><trkpt lat="43.2381486" lon="12.1643029"><ele>531.6</ele><time>2026-03-29T08:29:16.385Z</time></trkpt><trkpt lat="43.2381231" lon="12.1641595"><ele>531.2</ele><time>2026-03-29T08:29:17.385Z</time></trkpt><trkpt lat="43.2381605" lon="12.1640228"><ele>530.8</ele><time>2026-03-29T08:29:18.387Z</time></trkpt><trkpt lat="43.2381905" lon="12.1638992"><ele>530.4</ele><time>2026-03-29T08:29:19.385Z</time></trkpt><trkpt lat="43.2381776" lon="12.1637396"><ele>530.0</ele><time>2026-03-29T08:29:20.386Z</time></trkpt><trkpt lat="43.238162" lon="12.1635939"><ele>537.0</ele><time>2026-03-29T08:29:21.385Z</time></trkpt><trkpt lat="43.2381273" lon="12.1634666"><ele>544.0</ele><time>2026-03-29T08:29:22.387Z</time></trkpt><trkpt lat="43.2380586" lon="12.1633627"><ele>551.0</ele><time>2026-03-29T08:29:23.385Z</time></trkpt><trkpt lat="43.2379543" lon="12.1632694"><ele>558.0</ele><time>2026-03-29T08:29:24.386Z</time></trkpt><trkpt lat="43.2378359" lon="12.1632046"><ele>556.0</ele><time>2026-03-29T08:29:25.386Z</time></trkpt><trkpt lat="43.2377083" lon="12.1631251"><ele>554.0</ele><time>2026-03-29T08:29:26.387Z</time></trkpt><trkpt lat="43.2376333" lon="12.1630557"><ele>552.0</ele><time>2026-03-29T08:29:27.385Z</time></trkpt><trkpt lat="43.2375574" lon="12.1629595"><ele>550.0</ele><time>2026-03-29T08:29:28.386Z</time></trkpt><trkpt lat="43.2375032" lon="12.1628421"><ele>548.0</ele><time>2026-03-29T08:29:29.385Z</time></trkpt><trkpt lat="43.2374844" lon="12.162713"><ele>548.0</ele><time>2026-03-29T08:29:30.386Z</time></trkpt><trkpt lat="43.2374395" lon="12.1625998"><ele>548.0</ele><time>2026-03-29T08:29:31.385Z</time></trkpt><trkpt lat="43.2373413" lon="12.1624986"><ele>548.0</ele><time>2026-03-29T08:29:32.385Z</time></trkpt><trkpt lat="43.2372453" lon="12.162398"><ele>548.0</ele><time>2026-03-29T08:29:33.386Z</time></trkpt><trkpt lat="43.2371672" lon="12.1623658"><ele>548.0</ele><time>2026-03-29T08:29:34.385Z</time></trkpt><trkpt lat="43.2370768" lon="12.1623189"><ele>551.6666666666666</ele><time>2026-03-29T08:29:35.384Z</time></trkpt><trkpt lat="43.2370118" lon="12.162301"><ele>555.3333333333333</ele><time>2026-03-29T08:29:36.385Z</time></trkpt><trkpt lat="43.2369697" lon="12.1622293"><ele>559.0</ele><time>2026-03-29T08:29:37.386Z</time></trkpt><trkpt lat="43.2369296" lon="12.1621374"><ele>562.6666666666666</ele><time>2026-03-29T08:29:38.387Z</time></trkpt><trkpt lat="43.236916" lon="12.1619731"><ele>566.3333333333334</ele><time>2026-03-29T08:29:39.385Z</time></trkpt><trkpt lat="43.2368891" lon="12.1618623"><ele>570.0</ele><time>2026-03-29T08:29:40.384Z</time></trkpt><trkpt lat="43.2368236" lon="12.1617351"><ele>570.0</ele><time>2026-03-29T08:29:41.385Z</time></trkpt><trkpt lat="43.2367654" lon="12.1616473"><ele>570.0</ele><time>2026-03-29T08:29:42.385Z</time></trkpt><trkpt lat="43.2366749" lon="12.1615839"><ele>570.0</ele><time>2026-03-29T08:29:43.386Z</time></trkpt><trkpt lat="43.2365891" lon="12.1615401"><ele>570.0</ele><time>2026-03-29T08:29:44.386Z</time></trkpt><trkpt lat="43.2364789" lon="12.1615547"><ele>570.0</ele><time>2026-03-29T08:29:45.384Z</time></trkpt><trkpt lat="43.236396" lon="12.1615067"><ele>576.25</ele><time>2026-03-29T08:29:46.386Z</time></trkpt><trkpt lat="43.2363194" lon="12.1614368"><ele>582.5</ele><time>2026-03-29T08:29:47.387Z</time></trkpt><trkpt lat="43.2363707" lon="12.1612281"><ele>588.75</ele><time>2026-03-29T08:29:49.386Z</time></trkpt><trkpt lat="43.2364236" lon="12.1610823"><ele>595.0</ele><time>2026-03-29T08:29:50.386Z</time></trkpt><trkpt lat="43.2364629" lon="12.1609338"><ele>592.75</ele><time>2026-03-29T08:29:51.386Z</time></trkpt><trkpt lat="43.2364779" lon="12.1607945"><ele>590.5</ele><time>2026-03-29T08:29:52.387Z</time></trkpt><trkpt lat="43.2364806" lon="12.1606263"><ele>588.25</ele><time>2026-03-29T08:29:53.386Z</time></trkpt><trkpt lat="43.2364575" lon="12.1604518"><ele>586.0</ele><time>2026-03-29T08:29:54.386Z</time></trkpt><trkpt lat="43.2364199" lon="12.1602853"><ele>586.0</ele><time>2026-03-29T08:29:55.386Z</time></trkpt><trkpt lat="43.236394" lon="12.1601293"><ele>586.0</ele><time>2026-03-29T08:29:56.385Z</time></trkpt><trkpt lat="43.2363684" lon="12.1600027"><ele>586.0</ele><time>2026-03-29T08:29:57.385Z</time></trkpt><trkpt lat="43.2363125" lon="12.1598987"><ele>586.0</ele><time>2026-03-29T08:29:58.386Z</time></trkpt><trkpt lat="43.2362459" lon="12.1598305"><ele>586.0</ele><time>2026-03-29T08:30:00.386Z</time></trkpt><trkpt lat="43.2362126" lon="12.1597554"><ele>583.5</ele><time>2026-03-29T08:30:02.385Z</time></trkpt><trkpt lat="43.2361867" lon="12.1596314"><ele>581.0</ele><time>2026-03-29T08:30:06.385Z</time></trkpt><trkpt lat="43.2361706" lon="12.1595432"><ele>578.5</ele><time>2026-03-29T08:30:07.387Z</time></trkpt><trkpt lat="43.2361354" lon="12.1593994"><ele>576.0</ele><time>2026-03-29T08:30:09.386Z</time></trkpt><trkpt lat="43.2361643" lon="12.1593175"><ele>573.5</ele><time>2026-03-29T08:30:10.386Z</time></trkpt><trkpt lat="43.2361864" lon="12.1592273"><ele>571.0</ele><time>2026-03-29T08:30:11.385Z</time></trkpt><trkpt lat="43.236238" lon="12.1591434"><ele>571.0</ele><time>2026-03-29T08:30:12.385Z</time></trkpt><trkpt lat="43.2362962" lon="12.1590646"><ele>571.0</ele><time>2026-03-29T08:30:13.386Z</time></trkpt><trkpt lat="43.236351" lon="12.1589783"><ele>571.0</ele><time>2026-03-29T08:30:14.385Z</time></trkpt><trkpt lat="43.2363869" lon="12.158901"><ele>571.0</ele><time>2026-03-29T08:30:15.386Z</time></trkpt><trkpt lat="43.2364157" lon="12.1588238"><ele>571.0</ele><time>2026-03-29T08:30:16.386Z</time></trkpt><trkpt lat="43.2365121" lon="12.1587913"><ele>571.0</ele><time>2026-03-29T08:30:18.386Z</time></trkpt><trkpt lat="43.2366323" lon="12.1588019"><ele>566.0</ele><time>2026-03-29T08:30:20.387Z</time></trkpt><trkpt lat="43.2367111" lon="12.1588086"><ele>561.0</ele><time>2026-03-29T08:30:21.385Z</time></trkpt><trkpt lat="43.2367886" lon="12.1587906"><ele>556.0</ele><time>2026-03-29T08:30:22.386Z</time></trkpt><trkpt lat="43.2368709" lon="12.1587817"><ele>551.0</ele><time>2026-03-29T08:30:23.386Z</time></trkpt><trkpt lat="43.2369483" lon="12.15877"><ele>546.0</ele><time>2026-03-29T08:30:24.386Z</time></trkpt><trkpt lat="43.2370176" lon="12.1587226"><ele>541.0</ele><time>2026-03-29T08:30:25.385Z</time></trkpt><trkpt lat="43.2370982" lon="12.1586932"><ele>541.0</ele><time>2026-03-29T08:30:26.385Z</time></trkpt><trkpt lat="43.2371715" lon="12.1586395"><ele>541.0</ele><time>2026-03-29T08:30:27.386Z</time></trkpt><trkpt lat="43.2372413" lon="12.1585066"><ele>541.0</ele><time>2026-03-29T08:30:29.385Z</time></trkpt><trkpt lat="43.2372637" lon="12.1584211"><ele>541.0</ele><time>2026-03-29T08:30:30.384Z</time></trkpt><trkpt lat="43.2372832" lon="12.1583278"><ele>541.0</ele><time>2026-03-29T08:30:31.385Z</time></trkpt><trkpt lat="43.2373389" lon="12.1582611"><ele>541.0</ele><time>2026-03-29T08:30:32.385Z</time></trkpt><trkpt lat="43.237395" lon="12.1582114"><ele>536.8333333333334</ele><time>2026-03-29T08:30:33.386Z</time></trkpt><trkpt lat="43.2374645" lon="12.1581006"><ele>532.6666666666667</ele><time>2026-03-29T08:30:35.386Z</time></trkpt><trkpt lat="43.2374698" lon="12.1580076"><ele>528.5</ele><time>2026-03-29T08:30:36.385Z</time></trkpt><trkpt lat="43.2374664" lon="12.1578999"><ele>524.3333333333334</ele><time>2026-03-29T08:30:37.384Z</time></trkpt><trkpt lat="43.2374588" lon="12.1577964"><ele>520.1666666666666</ele><time>2026-03-29T08:30:38.386Z</time></trkpt><trkpt lat="43.2374571" lon="12.1576907"><ele>516.0</ele><time>2026-03-29T08:30:39.386Z</time></trkpt><trkpt lat="43.2374427" lon="12.157589"><ele>516.0</ele><time>2026-03-29T08:30:40.386Z</time></trkpt><trkpt lat="43.2374516" lon="12.1574958"><ele>516.0</ele><time>2026-03-29T08:30:41.386Z</time></trkpt><trkpt lat="43.2374799" lon="12.1573876"><ele>516.0</ele><time>2026-03-29T08:30:42.385Z</time></trkpt><trkpt lat="43.2374925" lon="12.1572851"><ele>516.0</ele><time>2026-03-29T08:30:43.385Z</time></trkpt><trkpt lat="43.2375033" lon="12.1571947"><ele>516.0</ele><time>2026-03-29T08:30:44.386Z</time></trkpt><trkpt lat="43.2374792" lon="12.1570574"><ele>516.0</ele><time>2026-03-29T08:30:46.387Z</time></trkpt><trkpt lat="43.2374516" lon="12.1569771"><ele>515.8</ele><time>2026-03-29T08:30:47.386Z</time></trkpt><trkpt lat="43.2374278" lon="12.1568664"><ele>515.6</ele><time>2026-03-29T08:30:48.386Z</time></trkpt><trkpt lat="43.2373943" lon="12.1567839"><ele>515.4</ele><time>2026-03-29T08:30:49.386Z</time></trkpt><trkpt lat="43.2373039" lon="12.1566813"><ele>515.2</ele><time>2026-03-29T08:30:51.385Z</time></trkpt><trkpt lat="43.2372586" lon="12.1565486"><ele>515.0</ele><time>2026-03-29T08:30:53.386Z</time></trkpt><trkpt lat="43.2373352" lon="12.1564172"><ele>509.99999999999994</ele><time>2026-03-29T08:30:55.386Z</time></trkpt><trkpt lat="43.2373951" lon="12.1563513"><ele>505.0</ele><time>2026-03-29T08:30:56.385Z</time></trkpt><trkpt lat="43.2374511" lon="12.1562794"><ele>500.0</ele><time>2026-03-29T08:30:57.386Z</time></trkpt><trkpt lat="43.2375499" lon="12.1562312"><ele>495.0</ele><time>2026-03-29T08:30:58.385Z</time></trkpt><trkpt lat="43.2376127" lon="12.1561673"><ele>489.99999999999994</ele><time>2026-03-29T08:30:59.386Z</time></trkpt><trkpt lat="43.2376737" lon="12.1560976"><ele>485.0</ele><time>2026-03-29T08:31:00.385Z</time></trkpt><trkpt lat="43.2377413" lon="12.1560022"><ele>485.0</ele><time>2026-03-29T08:31:01.386Z</time></trkpt><trkpt lat="43.2378174" lon="12.155888"><ele>485.0</ele><time>2026-03-29T08:31:03.387Z</time></trkpt><trkpt lat="43.2379087" lon="12.1558578"><ele>485.0</ele><time>2026-03-29T08:31:08.387Z</time></trkpt><trkpt lat="43.2379725" lon="12.1558924"><ele>485.0</ele><time>2026-03-29T08:31:14.386Z</time></trkpt><trkpt lat="43.2378753" lon="12.1558926"><ele>485.0</ele><time>2026-03-29T08:31:30.386Z</time></trkpt><trkpt lat="43.237794" lon="12.1558771"><ele>484.99999999999994</ele><time>2026-03-29T08:31:32.386Z</time></trkpt><trkpt lat="43.2377143" lon="12.1558525"><ele>485.0</ele><time>2026-03-29T08:31:33.386Z</time></trkpt><trkpt lat="43.2376414" lon="12.1558419"><ele>485.0</ele><time>2026-03-29T08:31:34.387Z</time></trkpt><trkpt lat="43.2375653" lon="12.155809"><ele>485.0</ele><time>2026-03-29T08:31:35.385Z</time></trkpt><trkpt lat="43.2374962" lon="12.1557729"><ele>484.99999999999994</ele><time>2026-03-29T08:31:36.386Z</time></trkpt><trkpt lat="43.2373979" lon="12.1557291"><ele>485.0</ele><time>2026-03-29T08:31:37.386Z</time></trkpt><trkpt lat="43.2373102" lon="12.1557056"><ele>483.99999999999994</ele><time>2026-03-29T08:31:38.386Z</time></trkpt><trkpt lat="43.2372212" lon="12.1556827"><ele>483.0</ele><time>2026-03-29T08:31:39.386Z</time></trkpt><trkpt lat="43.2371352" lon="12.1556716"><ele>482.0</ele><time>2026-03-29T08:31:40.385Z</time></trkpt><trkpt lat="43.2370677" lon="12.1556122"><ele>481.0</ele><time>2026-03-29T08:31:41.387Z</time></trkpt><trkpt lat="43.2369992" lon="12.1555559"><ele>479.99999999999994</ele><time>2026-03-29T08:31:42.387Z</time></trkpt><trkpt lat="43.2369151" lon="12.1555087"><ele>479.0</ele><time>2026-03-29T08:31:43.386Z</time></trkpt><trkpt lat="43.2368451" lon="12.155472"><ele>478.99999999999994</ele><time>2026-03-29T08:31:44.387Z</time></trkpt><trkpt lat="43.2367373" lon="12.1554943"><ele>479.0</ele><time>2026-03-29T08:31:46.385Z</time></trkpt><trkpt lat="43.2366658" lon="12.1555066"><ele>479.0</ele><time>2026-03-29T08:31:47.386Z</time></trkpt><trkpt lat="43.2365844" lon="12.1555347"><ele>479.0</ele><time>2026-03-29T08:31:48.385Z</time></trkpt><trkpt lat="43.2364999" lon="12.1555264"><ele>478.99999999999994</ele><time>2026-03-29T08:31:49.385Z</time></trkpt><trkpt lat="43.2364139" lon="12.155506"><ele>479.0</ele><time>2026-03-29T08:31:50.386Z</time></trkpt><trkpt lat="43.2363136" lon="12.1554529"><ele>484.0</ele><time>2026-03-29T08:31:51.386Z</time></trkpt><trkpt lat="43.2362269" lon="12.1554113"><ele>489.0</ele><time>2026-03-29T08:31:52.387Z</time></trkpt><trkpt lat="43.2361393" lon="12.1554283"><ele>494.0</ele><time>2026-03-29T08:31:54.386Z</time></trkpt><trkpt lat="43.2360277" lon="12.1554328"><ele>499.0</ele><time>2026-03-29T08:31:56.386Z</time></trkpt><trkpt lat="43.2359233" lon="12.1554065"><ele>504.0</ele><time>2026-03-29T08:31:58.386Z</time></trkpt><trkpt lat="43.2358812" lon="12.1552872"><ele>504.0</ele><time>2026-03-29T08:32:00.386Z</time></trkpt><trkpt lat="43.2357982" lon="12.1552403"><ele>504.0</ele><time>2026-03-29T08:32:02.387Z</time></trkpt><trkpt lat="43.2357275" lon="12.1553091"><ele>504.0</ele><time>2026-03-29T08:32:04.387Z</time></trkpt><trkpt lat="43.2356317" lon="12.1554079"><ele>504.0</ele><time>2026-03-29T08:32:06.386Z</time></trkpt><trkpt lat="43.2355688" lon="12.1554774"><ele>504.0</ele><time>2026-03-29T08:32:07.385Z</time></trkpt><trkpt lat="43.2355104" lon="12.1555656"><ele>510.3333333333333</ele><time>2026-03-29T08:32:08.385Z</time></trkpt><trkpt lat="43.2354144" lon="12.1556524"><ele>516.6666666666666</ele><time>2026-03-29T08:32:10.386Z</time></trkpt><trkpt lat="43.235345" lon="12.1557242"><ele>523.0</ele><time>2026-03-29T08:32:11.387Z</time></trkpt><trkpt lat="43.2352707" lon="12.1557808"><ele>529.3333333333333</ele><time>2026-03-29T08:32:12.386Z</time></trkpt><trkpt lat="43.2352057" lon="12.1558277"><ele>535.6666666666666</ele><time>2026-03-29T08:32:13.385Z</time></trkpt><trkpt lat="43.2351273" lon="12.1558256"><ele>542.0</ele><time>2026-03-29T08:32:15.387Z</time></trkpt><trkpt lat="43.2350651" lon="12.155738"><ele>544.4</ele><time>2026-03-29T08:32:17.386Z</time></trkpt><trkpt lat="43.2350487" lon="12.1555876"><ele>546.8000000000001</ele><time>2026-03-29T08:32:19.385Z</time></trkpt><trkpt lat="43.2350557" lon="12.1554192"><ele>549.2</ele><time>2026-03-29T08:32:21.386Z</time></trkpt><trkpt lat="43.2350483" lon="12.1553224"><ele>551.6</ele><time>2026-03-29T08:32:23.385Z</time></trkpt><trkpt lat="43.2350717" lon="12.1552393"><ele>554.0</ele><time>2026-03-29T08:32:25.386Z</time></trkpt><trkpt lat="43.2350966" lon="12.155094"><ele>554.0</ele><time>2026-03-29T08:32:27.386Z</time></trkpt><trkpt lat="43.2351058" lon="12.1549988"><ele>554.0</ele><time>2026-03-29T08:32:28.387Z</time></trkpt><trkpt lat="43.2351022" lon="12.1549009"><ele>554.0</ele><time>2026-03-29T08:32:29.385Z</time></trkpt><trkpt lat="43.2350879" lon="12.1548084"><ele>554.0</ele><time>2026-03-29T08:32:30.386Z</time></trkpt><trkpt lat="43.2350685" lon="12.1547198"><ele>554.0</ele><time>2026-03-29T08:32:31.387Z</time></trkpt><trkpt lat="43.2350093" lon="12.1546573"><ele>554.0</ele><time>2026-03-29T08:32:32.386Z</time></trkpt><trkpt lat="43.2349327" lon="12.1545221"><ele>554.1666666666666</ele><time>2026-03-29T08:32:34.386Z</time></trkpt><trkpt lat="43.2348932" lon="12.1544081"><ele>554.3333333333333</ele><time>2026-03-29T08:32:35.386Z</time></trkpt><trkpt lat="43.2348515" lon="12.1543235"><ele>554.5</ele><time>2026-03-29T08:32:36.386Z</time></trkpt><trkpt lat="43.2347891" lon="12.1542763"><ele>554.6666666666666</ele><time>2026-03-29T08:32:38.385Z</time></trkpt><trkpt lat="43.2346828" lon="12.1542483"><ele>554.8333333333334</ele><time>2026-03-29T08:32:40.386Z</time></trkpt><trkpt lat="43.2346079" lon="12.1542521"><ele>555.0</ele><time>2026-03-29T08:32:41.387Z</time></trkpt><trkpt lat="43.2345184" lon="12.1542592"><ele>560.6</ele><time>2026-03-29T08:32:42.386Z</time></trkpt><trkpt lat="43.2344174" lon="12.1542487"><ele>566.2</ele><time>2026-03-29T08:32:43.387Z</time></trkpt><trkpt lat="43.2343512" lon="12.1542166"><ele>571.8</ele><time>2026-03-29T08:32:44.385Z</time></trkpt><trkpt lat="43.2342786" lon="12.1541781"><ele>577.4</ele><time>2026-03-29T08:32:45.386Z</time></trkpt><trkpt lat="43.2341599" lon="12.1540981"><ele>583.0</ele><time>2026-03-29T08:32:47.386Z</time></trkpt><trkpt lat="43.2340919" lon="12.1540753"><ele>583.0</ele><time>2026-03-29T08:32:48.385Z</time></trkpt><trkpt lat="43.2340076" lon="12.1540828"><ele>583.0</ele><time>2026-03-29T08:32:50.387Z</time></trkpt><trkpt lat="43.2339644" lon="12.1541781"><ele>583.0</ele><time>2026-03-29T08:32:51.386Z</time></trkpt><trkpt lat="43.233956" lon="12.1543543"><ele>583.0</ele><time>2026-03-29T08:32:53.385Z</time></trkpt><trkpt lat="43.2339722" lon="12.1544568"><ele>583.0</ele><time>2026-03-29T08:32:54.386Z</time></trkpt><trkpt lat="43.2340298" lon="12.1545664"><ele>583.0</ele><time>2026-03-29T08:32:55.386Z</time></trkpt><trkpt lat="43.2340511" lon="12.1546801"><ele>583.0</ele><time>2026-03-29T08:32:56.385Z</time></trkpt><trkpt lat="43.2340682" lon="12.1548173"><ele>583.0</ele><time>2026-03-29T08:32:57.386Z</time></trkpt><trkpt lat="43.2340778" lon="12.1549374"><ele>583.0</ele><time>2026-03-29T08:32:58.387Z</time></trkpt><trkpt lat="43.2340465" lon="12.1550254"><ele>583.0</ele><time>2026-03-29T08:32:59.387Z</time></trkpt><trkpt lat="43.2340058" lon="12.1551172"><ele>583.0</ele><time>2026-03-29T08:33:00.385Z</time></trkpt><trkpt lat="43.2339501" lon="12.1552067"><ele>589.4</ele><time>2026-03-29T08:33:01.386Z</time></trkpt><trkpt lat="43.2338628" lon="12.1552566"><ele>595.8</ele><time>2026-03-29T08:33:02.386Z</time></trkpt><trkpt lat="43.2337645" lon="12.1553016"><ele>602.2</ele><time>2026-03-29T08:33:03.385Z</time></trkpt><trkpt lat="43.2336993" lon="12.1553238"><ele>608.6</ele><time>2026-03-29T08:33:04.387Z</time></trkpt><trkpt lat="43.2336245" lon="12.1553025"><ele>615.0</ele><time>2026-03-29T08:33:05.386Z</time></trkpt><trkpt lat="43.2335243" lon="12.155239"><ele>615.0</ele><time>2026-03-29T08:33:07.387Z</time></trkpt><trkpt lat="43.2334379" lon="12.1551189"><ele>615.0</ele><time>2026-03-29T08:33:09.386Z</time></trkpt><trkpt lat="43.2332918" lon="12.1550547"><ele>615.0</ele><time>2026-03-29T08:33:11.386Z</time></trkpt><trkpt lat="43.2332318" lon="12.1550831"><ele>615.0</ele><time>2026-03-29T08:33:12.387Z</time></trkpt><trkpt lat="43.2330995" lon="12.155056"><ele>619.2</ele><time>2026-03-29T08:33:14.387Z</time></trkpt><trkpt lat="43.2330355" lon="12.1550372"><ele>623.4</ele><time>2026-03-29T08:33:15.387Z</time></trkpt><trkpt lat="43.2328943" lon="12.1549962"><ele>627.6</ele><time>2026-03-29T08:33:17.387Z</time></trkpt><trkpt lat="43.2328053" lon="12.1549833"><ele>631.8</ele><time>2026-03-29T08:33:18.386Z</time></trkpt><trkpt lat="43.2327083" lon="12.1549744"><ele>636.0</ele><time>2026-03-29T08:33:19.386Z</time></trkpt><trkpt lat="43.2326216" lon="12.1549528"><ele>636.0</ele><time>2026-03-29T08:33:20.388Z</time></trkpt><trkpt lat="43.2325341" lon="12.1549368"><ele>636.0</ele><time>2026-03-29T08:33:21.386Z</time></trkpt><trkpt lat="43.2324375" lon="12.1549329"><ele>636.0</ele><time>2026-03-29T08:33:22.388Z</time></trkpt><trkpt lat="43.2323619" lon="12.154964"><ele>636.0</ele><time>2026-03-29T08:33:23.385Z</time></trkpt><trkpt lat="43.2322906" lon="12.1549808"><ele>636.0</ele><time>2026-03-29T08:33:24.387Z</time></trkpt><trkpt lat="43.2322216" lon="12.1550617"><ele>636.0</ele><time>2026-03-29T08:33:26.387Z</time></trkpt><trkpt lat="43.2322004" lon="12.1551864"><ele>636.8333333333334</ele><time>2026-03-29T08:33:28.385Z</time></trkpt><trkpt lat="43.2321608" lon="12.1552825"><ele>637.6666666666666</ele><time>2026-03-29T08:33:29.385Z</time></trkpt><trkpt lat="43.2321459" lon="12.1554079"><ele>638.5</ele><time>2026-03-29T08:33:30.387Z</time></trkpt><trkpt lat="43.2321404" lon="12.1555279"><ele>639.3333333333333</ele><time>2026-03-29T08:33:31.386Z</time></trkpt><trkpt lat="43.2321242" lon="12.1556137"><ele>640.1666666666666</ele><time>2026-03-29T08:33:32.385Z</time></trkpt><trkpt lat="43.232077" lon="12.1557022"><ele>641.0</ele><time>2026-03-29T08:33:33.386Z</time></trkpt><trkpt lat="43.2320073" lon="12.1557545"><ele>641.0</ele><time>2026-03-29T08:33:34.385Z</time></trkpt><trkpt lat="43.231893" lon="12.1558154"><ele>641.0</ele><time>2026-03-29T08:33:36.386Z</time></trkpt><trkpt lat="43.231796" lon="12.1558208"><ele>641.0</ele><time>2026-03-29T08:33:37.387Z</time></trkpt><trkpt lat="43.2316839" lon="12.1558029"><ele>641.0</ele><time>2026-03-29T08:33:38.385Z</time></trkpt><trkpt lat="43.2315305" lon="12.1557317"><ele>644.5</ele><time>2026-03-29T08:33:39.387Z</time></trkpt><trkpt lat="43.2313974" lon="12.1556702"><ele>648.0</ele><time>2026-03-29T08:33:40.387Z</time></trkpt><trkpt lat="43.2312849" lon="12.1556106"><ele>651.5</ele><time>2026-03-29T08:33:41.387Z</time></trkpt><trkpt lat="43.2311622" lon="12.1555858"><ele>655.0</ele><time>2026-03-29T08:33:43.386Z</time></trkpt><trkpt lat="43.231091" lon="12.1556295"><ele>654.0</ele><time>2026-03-29T08:33:45.386Z</time></trkpt><trkpt lat="43.2310807" lon="12.1558583"><ele>653.0</ele><time>2026-03-29T08:33:47.386Z</time></trkpt><trkpt lat="43.2310775" lon="12.1560415"><ele>652.0</ele><time>2026-03-29T08:33:48.386Z</time></trkpt><trkpt lat="43.2310748" lon="12.1562171"><ele>651.0</ele><time>2026-03-29T08:33:49.386Z</time></trkpt><trkpt lat="43.2310795" lon="12.156418"><ele>650.5999999999999</ele><time>2026-03-29T08:33:50.386Z</time></trkpt><trkpt lat="43.2310621" lon="12.1565816"><ele>650.2</ele><time>2026-03-29T08:33:51.385Z</time></trkpt><trkpt lat="43.2310277" lon="12.1567288"><ele>649.8</ele><time>2026-03-29T08:33:52.387Z</time></trkpt><trkpt lat="43.2309806" lon="12.1568645"><ele>649.4000000000001</ele><time>2026-03-29T08:33:53.385Z</time></trkpt><trkpt lat="43.2309436" lon="12.1569733"><ele>649.0</ele><time>2026-03-29T08:33:54.386Z</time></trkpt><trkpt lat="43.2308984" lon="12.1570539"><ele>649.0</ele><time>2026-03-29T08:33:55.385Z</time></trkpt><trkpt lat="43.2308157" lon="12.1571248"><ele>649.0</ele><time>2026-03-29T08:33:56.385Z</time></trkpt><trkpt lat="43.2307192" lon="12.1571977"><ele>649.0</ele><time>2026-03-29T08:33:57.387Z</time></trkpt><trkpt lat="43.2306254" lon="12.1572634"><ele>649.0</ele><time>2026-03-29T08:33:58.387Z</time></trkpt><trkpt lat="43.230557" lon="12.1573179"><ele>649.0</ele><time>2026-03-29T08:33:59.386Z</time></trkpt><trkpt lat="43.2304802" lon="12.1573615"><ele>648.4285714285713</ele><time>2026-03-29T08:34:00.385Z</time></trkpt><trkpt lat="43.2304245" lon="12.1574175"><ele>647.8571428571429</ele><time>2026-03-29T08:34:01.387Z</time></trkpt><trkpt lat="43.2303613" lon="12.1574294"><ele>647.2857142857142</ele><time>2026-03-29T08:34:02.387Z</time></trkpt><trkpt lat="43.2303011" lon="12.1574989"><ele>646.7142857142857</ele><time>2026-03-29T08:34:03.387Z</time></trkpt><trkpt lat="43.2302347" lon="12.1575913"><ele>646.1428571428571</ele><time>2026-03-29T08:34:05.385Z</time></trkpt><trkpt lat="43.2301781" lon="12.1576553"><ele>645.5714285714286</ele><time>2026-03-29T08:34:13.387Z</time></trkpt><trkpt lat="43.2301241" lon="12.1576037"><ele>645.0</ele><time>2026-03-29T08:34:15.386Z</time></trkpt><trkpt lat="43.2301043" lon="12.1575104"><ele>645.0</ele><time>2026-03-29T08:34:16.387Z</time></trkpt><trkpt lat="43.2300665" lon="12.157419"><ele>645.0</ele><time>2026-03-29T08:34:17.387Z</time></trkpt><trkpt lat="43.2300251" lon="12.1572852"><ele>645.0</ele><time>2026-03-29T08:34:18.386Z</time></trkpt><trkpt lat="43.2299937" lon="12.1571745"><ele>645.0</ele><time>2026-03-29T08:34:19.387Z</time></trkpt><trkpt lat="43.2299738" lon="12.1570778"><ele>645.0</ele><time>2026-03-29T08:34:20.387Z</time></trkpt><trkpt lat="43.2299698" lon="12.1569882"><ele>645.0</ele><time>2026-03-29T08:34:21.386Z</time></trkpt><trkpt lat="43.2299807" lon="12.1568885"><ele>646.8333333333334</ele><time>2026-03-29T08:34:22.386Z</time></trkpt><trkpt lat="43.2299933" lon="12.1567778"><ele>648.6666666666666</ele><time>2026-03-29T08:34:23.386Z</time></trkpt><trkpt lat="43.2299975" lon="12.1566718"><ele>650.5</ele><time>2026-03-29T08:34:24.386Z</time></trkpt><trkpt lat="43.2300023" lon="12.1565832"><ele>652.3333333333333</ele><time>2026-03-29T08:34:25.387Z</time></trkpt><trkpt lat="43.2300087" lon="12.1564757"><ele>654.1666666666666</ele><time>2026-03-29T08:34:26.387Z</time></trkpt><trkpt lat="43.2300439" lon="12.1563719"><ele>656.0</ele><time>2026-03-29T08:34:27.387Z</time></trkpt><trkpt lat="43.2300717" lon="12.1562484"><ele>656.0</ele><time>2026-03-29T08:34:28.386Z</time></trkpt><trkpt lat="43.2301114" lon="12.1561249"><ele>656.0</ele><time>2026-03-29T08:34:29.386Z</time></trkpt><trkpt lat="43.2301362" lon="12.1560024"><ele>656.0</ele><time>2026-03-29T08:34:30.387Z</time></trkpt><trkpt lat="43.2301674" lon="12.1558691"><ele>656.0</ele><time>2026-03-29T08:34:31.385Z</time></trkpt><trkpt lat="43.2301944" lon="12.1557228"><ele>656.0</ele><time>2026-03-29T08:34:32.385Z</time></trkpt><trkpt lat="43.2302216" lon="12.1555818"><ele>655.1999999999999</ele><time>2026-03-29T08:34:33.386Z</time></trkpt><trkpt lat="43.2302525" lon="12.1554387"><ele>654.4</ele><time>2026-03-29T08:34:34.387Z</time></trkpt><trkpt lat="43.2302835" lon="12.1552992"><ele>653.6</ele><time>2026-03-29T08:34:35.385Z</time></trkpt><trkpt lat="43.2303134" lon="12.1551827"><ele>652.8</ele><time>2026-03-29T08:34:36.386Z</time></trkpt><trkpt lat="43.2303235" lon="12.1550746"><ele>652.0</ele><time>2026-03-29T08:34:37.386Z</time></trkpt><trkpt lat="43.2303772" lon="12.1549331"><ele>652.0</ele><time>2026-03-29T08:34:39.386Z</time></trkpt><trkpt lat="43.2304677" lon="12.1548789"><ele>652.0</ele><time>2026-03-29T08:34:41.385Z</time></trkpt><trkpt lat="43.2305485" lon="12.1548457"><ele>652.0</ele><time>2026-03-29T08:34:43.387Z</time></trkpt><trkpt lat="43.23061" lon="12.1548096"><ele>652.0</ele><time>2026-03-29T08:34:44.385Z</time></trkpt><trkpt lat="43.2307276" lon="12.1547729"><ele>652.0</ele><time>2026-03-29T08:34:46.386Z</time></trkpt><trkpt lat="43.2307947" lon="12.1547675"><ele>652.0</ele><time>2026-03-29T08:34:47.388Z</time></trkpt><trkpt lat="43.2308739" lon="12.1547752"><ele>654.0</ele><time>2026-03-29T08:34:48.385Z</time></trkpt><trkpt lat="43.2309743" lon="12.1547997"><ele>656.0</ele><time>2026-03-29T08:34:49.388Z</time></trkpt><trkpt lat="43.2310637" lon="12.1548177"><ele>658.0</ele><time>2026-03-29T08:34:50.386Z</time></trkpt><trkpt lat="43.2311404" lon="12.1548357"><ele>660.0</ele><time>2026-03-29T08:34:51.387Z</time></trkpt><trkpt lat="43.2312068" lon="12.1548563"><ele>662.0</ele><time>2026-03-29T08:34:52.387Z</time></trkpt><trkpt lat="43.2312895" lon="12.154854"><ele>664.0</ele><time>2026-03-29T08:34:54.385Z</time></trkpt><trkpt lat="43.2313608" lon="12.1548399"><ele>664.0</ele><time>2026-03-29T08:34:55.387Z</time></trkpt><trkpt lat="43.2314262" lon="12.1547917"><ele>664.0</ele><time>2026-03-29T08:34:56.385Z</time></trkpt><trkpt lat="43.231486" lon="12.1547382"><ele>664.0</ele><time>2026-03-29T08:34:57.387Z</time></trkpt><trkpt lat="43.2315381" lon="12.1546632"><ele>664.0</ele><time>2026-03-29T08:34:58.385Z</time></trkpt><trkpt lat="43.2315815" lon="12.1545629"><ele>664.0</ele><time>2026-03-29T08:34:59.386Z</time></trkpt><trkpt lat="43.2316106" lon="12.1544845"><ele>664.0</ele><time>2026-03-29T08:35:00.387Z</time></trkpt><trkpt lat="43.2316404" lon="12.1543943"><ele>664.0</ele><time>2026-03-29T08:35:03.388Z</time></trkpt><trkpt lat="43.2317405" lon="12.154359"><ele>662.6666666666667</ele><time>2026-03-29T08:35:52.385Z</time></trkpt><trkpt lat="43.2317498" lon="12.1542552"><ele>661.3333333333334</ele><time>2026-03-29T08:35:55.386Z</time></trkpt><trkpt lat="43.2316948" lon="12.154147"><ele>660.0</ele><time>2026-03-29T08:35:57.388Z</time></trkpt><trkpt lat="43.2316426" lon="12.1539999"><ele>658.6666666666666</ele><time>2026-03-29T08:35:59.388Z</time></trkpt><trkpt lat="43.2316417" lon="12.1539089"><ele>657.3333333333333</ele><time>2026-03-29T08:36:00.387Z</time></trkpt><trkpt lat="43.2316554" lon="12.1538046"><ele>656.0</ele><time>2026-03-29T08:36:01.386Z</time></trkpt><trkpt lat="43.2316473" lon="12.153715"><ele>655.5</ele><time>2026-03-29T08:36:02.386Z</time></trkpt><trkpt lat="43.2316345" lon="12.1535315"><ele>655.0</ele><time>2026-03-29T08:36:04.388Z</time></trkpt><trkpt lat="43.2315965" lon="12.1534318"><ele>654.5</ele><time>2026-03-29T08:36:05.387Z</time></trkpt><trkpt lat="43.2315692" lon="12.1532663"><ele>654.0</ele><time>2026-03-29T08:36:07.387Z</time></trkpt><trkpt lat="43.2315593" lon="12.1530938"><ele>654.0</ele><time>2026-03-29T08:36:09.387Z</time></trkpt><trkpt lat="43.2315617" lon="12.1529964"><ele>654.0</ele><time>2026-03-29T08:36:10.388Z</time></trkpt><trkpt lat="43.2316677" lon="12.1529214"><ele>654.0</ele><time>2026-03-29T08:36:12.388Z</time></trkpt><trkpt lat="43.2317179" lon="12.1527871"><ele>654.0</ele><time>2026-03-29T08:36:14.387Z</time></trkpt><trkpt lat="43.2317591" lon="12.1526705"><ele>654.0</ele><time>2026-03-29T08:36:16.385Z</time></trkpt><trkpt lat="43.2318573" lon="12.1526225"><ele>654.0</ele><time>2026-03-29T08:36:18.387Z</time></trkpt><trkpt lat="43.2319234" lon="12.1526261"><ele>654.0</ele><time>2026-03-29T08:36:19.386Z</time></trkpt><trkpt lat="43.2319925" lon="12.1525953"><ele>654.0</ele><time>2026-03-29T08:36:20.387Z</time></trkpt><trkpt lat="43.2320552" lon="12.1525266"><ele>654.0</ele><time>2026-03-29T08:36:21.387Z</time></trkpt><trkpt lat="43.2321259" lon="12.1524618"><ele>654.0</ele><time>2026-03-29T08:36:22.387Z</time></trkpt><trkpt lat="43.2322097" lon="12.1523749"><ele>654.0</ele><time>2026-03-29T08:36:23.388Z</time></trkpt><trkpt lat="43.2322883" lon="12.1522903"><ele>651.2</ele><time>2026-03-29T08:36:24.387Z</time></trkpt><trkpt lat="43.2323386" lon="12.1522258"><ele>648.4000000000001</ele><time>2026-03-29T08:36:25.388Z</time></trkpt><trkpt lat="43.2323464" lon="12.1520719"><ele>645.6</ele><time>2026-03-29T08:36:27.386Z</time></trkpt><trkpt lat="43.2324036" lon="12.151934"><ele>642.8</ele><time>2026-03-29T08:36:29.387Z</time></trkpt><trkpt lat="43.232418" lon="12.1518364"><ele>640.0</ele><time>2026-03-29T08:36:30.387Z</time></trkpt><trkpt lat="43.2324018" lon="12.151709"><ele>640.0</ele><time>2026-03-29T08:36:31.388Z</time></trkpt><trkpt lat="43.2324106" lon="12.1515788"><ele>640.0</ele><time>2026-03-29T08:36:32.387Z</time></trkpt><trkpt lat="43.2323704" lon="12.1514689"><ele>640.0</ele><time>2026-03-29T08:36:33.386Z</time></trkpt><trkpt lat="43.2323443" lon="12.1513898"><ele>640.0</ele><time>2026-03-29T08:36:34.386Z</time></trkpt><trkpt lat="43.2323059" lon="12.1513108"><ele>640.0</ele><time>2026-03-29T08:36:35.388Z</time></trkpt><trkpt lat="43.232321" lon="12.1511906"><ele>640.0</ele><time>2026-03-29T08:36:37.387Z</time></trkpt><trkpt lat="43.2324036" lon="12.1511222"><ele>641.0</ele><time>2026-03-29T08:36:39.387Z</time></trkpt><trkpt lat="43.2325085" lon="12.1510363"><ele>642.0</ele><time>2026-03-29T08:36:41.386Z</time></trkpt><trkpt lat="43.2325514" lon="12.15097"><ele>643.0</ele><time>2026-03-29T08:36:42.388Z</time></trkpt><trkpt lat="43.232611" lon="12.150904"><ele>644.0</ele><time>2026-03-29T08:36:44.386Z</time></trkpt><trkpt lat="43.2326897" lon="12.1508264"><ele>645.0</ele><time>2026-03-29T08:36:46.386Z</time></trkpt><trkpt lat="43.2327463" lon="12.1507821"><ele>646.0</ele><time>2026-03-29T08:36:47.387Z</time></trkpt><trkpt lat="43.232867" lon="12.1507765"><ele>646.0</ele><time>2026-03-29T08:36:49.387Z</time></trkpt><trkpt lat="43.2329285" lon="12.1507451"><ele>646.0</ele><time>2026-03-29T08:36:50.387Z</time></trkpt><trkpt lat="43.2329988" lon="12.1506907"><ele>646.0</ele><time>2026-03-29T08:36:51.387Z</time></trkpt><trkpt lat="43.2330365" lon="12.1506146"><ele>646.0</ele><time>2026-03-29T08:36:52.386Z</time></trkpt><trkpt lat="43.2330732" lon="12.150512"><ele>646.0</ele><time>2026-03-29T08:36:53.388Z</time></trkpt><trkpt lat="43.2331307" lon="12.1504151"><ele>646.0</ele><time>2026-03-29T08:36:54.386Z</time></trkpt><trkpt lat="43.2332321" lon="12.1503334"><ele>642.1999999999999</ele><time>2026-03-29T08:36:55.388Z</time></trkpt><trkpt lat="43.2333467" lon="12.1502484"><ele>638.4</ele><time>2026-03-29T08:36:56.386Z</time></trkpt><trkpt lat="43.2334258" lon="12.1501764"><ele>634.6</ele><time>2026-03-29T08:36:57.387Z</time></trkpt><trkpt lat="43.233492" lon="12.1500941"><ele>630.8</ele><time>2026-03-29T08:36:58.387Z</time></trkpt><trkpt lat="43.2335576" lon="12.1500149"><ele>627.0</ele><time>2026-03-29T08:36:59.387Z</time></trkpt><trkpt lat="43.2336246" lon="12.1499132"><ele>626.3333333333334</ele><time>2026-03-29T08:37:00.388Z</time></trkpt><trkpt lat="43.2336639" lon="12.1498244"><ele>625.6666666666666</ele><time>2026-03-29T08:37:01.387Z</time></trkpt><trkpt lat="43.2337185" lon="12.1497435"><ele>625.0</ele><time>2026-03-29T08:37:02.387Z</time></trkpt><trkpt lat="43.2337716" lon="12.1496884"><ele>624.3333333333333</ele><time>2026-03-29T08:37:03.387Z</time></trkpt><trkpt lat="43.2338495" lon="12.1496442"><ele>623.6666666666666</ele><time>2026-03-29T08:37:04.386Z</time></trkpt><trkpt lat="43.2339606" lon="12.1496183"><ele>623.0</ele><time>2026-03-29T08:37:05.386Z</time></trkpt><trkpt lat="43.2340655" lon="12.1495987"><ele>620.4</ele><time>2026-03-29T08:37:06.386Z</time></trkpt><trkpt lat="43.2341604" lon="12.1495778"><ele>617.8</ele><time>2026-03-29T08:37:07.387Z</time></trkpt><trkpt lat="43.2342619" lon="12.1495443"><ele>615.2</ele><time>2026-03-29T08:37:08.386Z</time></trkpt><trkpt lat="43.2343622" lon="12.1495644"><ele>612.6</ele><time>2026-03-29T08:37:09.387Z</time></trkpt><trkpt lat="43.2344502" lon="12.1495866"><ele>610.0</ele><time>2026-03-29T08:37:10.386Z</time></trkpt><trkpt lat="43.2345575" lon="12.1496116"><ele>610.0</ele><time>2026-03-29T08:37:11.387Z</time></trkpt><trkpt lat="43.2346605" lon="12.1496287"><ele>610.0</ele><time>2026-03-29T08:37:12.387Z</time></trkpt><trkpt lat="43.2347584" lon="12.1496559"><ele>610.0</ele><time>2026-03-29T08:37:13.387Z</time></trkpt><trkpt lat="43.2348445" lon="12.1496763"><ele>610.0</ele><time>2026-03-29T08:37:14.386Z</time></trkpt><trkpt lat="43.2349307" lon="12.1497"><ele>610.0</ele><time>2026-03-29T08:37:15.387Z</time></trkpt><trkpt lat="43.2350011" lon="12.1497531"><ele>609.3333333333334</ele><time>2026-03-29T08:37:16.388Z</time></trkpt><trkpt lat="43.2350613" lon="12.1498161"><ele>608.6666666666667</ele><time>2026-03-29T08:37:17.386Z</time></trkpt><trkpt lat="43.2351357" lon="12.1498778"><ele>608.0</ele><time>2026-03-29T08:37:18.388Z</time></trkpt><trkpt lat="43.2352218" lon="12.1499234"><ele>607.3333333333334</ele><time>2026-03-29T08:37:19.386Z</time></trkpt><trkpt lat="43.2353028" lon="12.1499653"><ele>606.6666666666666</ele><time>2026-03-29T08:37:20.387Z</time></trkpt><trkpt lat="43.2354049" lon="12.150011"><ele>606.0</ele><time>2026-03-29T08:37:22.387Z</time></trkpt><trkpt lat="43.2354719" lon="12.150125"><ele>606.0</ele><time>2026-03-29T08:37:24.386Z</time></trkpt><trkpt lat="43.2355488" lon="12.1502572"><ele>606.0</ele><time>2026-03-29T08:37:26.387Z</time></trkpt><trkpt lat="43.2356504" lon="12.1503126"><ele>606.0</ele><time>2026-03-29T08:37:28.386Z</time></trkpt><trkpt lat="43.2357238" lon="12.1503308"><ele>606.0</ele><time>2026-03-29T08:37:29.388Z</time></trkpt><trkpt lat="43.2357909" lon="12.150353"><ele>606.0</ele><time>2026-03-29T08:37:30.387Z</time></trkpt><trkpt lat="43.2359092" lon="12.1504436"><ele>602.0</ele><time>2026-03-29T08:37:32.387Z</time></trkpt><trkpt lat="43.2359698" lon="12.1504721"><ele>598.0</ele><time>2026-03-29T08:37:33.387Z</time></trkpt><trkpt lat="43.2360325" lon="12.150451"><ele>594.0</ele><time>2026-03-29T08:37:34.386Z</time></trkpt><trkpt lat="43.2361335" lon="12.1503813"><ele>590.0</ele><time>2026-03-29T08:37:36.388Z</time></trkpt><trkpt lat="43.2362026" lon="12.1503704"><ele>586.0</ele><time>2026-03-29T08:37:37.387Z</time></trkpt><trkpt lat="43.236295" lon="12.1503741"><ele>582.0</ele><time>2026-03-29T08:37:38.387Z</time></trkpt><trkpt lat="43.2363802" lon="12.1503761"><ele>582.0</ele><time>2026-03-29T08:37:39.387Z</time></trkpt><trkpt lat="43.2364651" lon="12.1503949"><ele>582.0</ele><time>2026-03-29T08:37:40.386Z</time></trkpt><trkpt lat="43.2365451" lon="12.1504285"><ele>582.0</ele><time>2026-03-29T08:37:41.387Z</time></trkpt><trkpt lat="43.2366208" lon="12.1504662"><ele>582.0</ele><time>2026-03-29T08:37:42.387Z</time></trkpt><trkpt lat="43.236696" lon="12.1504929"><ele>582.0</ele><time>2026-03-29T08:37:43.387Z</time></trkpt><trkpt lat="43.2367839" lon="12.1505176"><ele>582.0</ele><time>2026-03-29T08:37:44.388Z</time></trkpt><trkpt lat="43.2368723" lon="12.1505053"><ele>577.2</ele><time>2026-03-29T08:37:45.387Z</time></trkpt><trkpt lat="43.2369591" lon="12.1505181"><ele>572.4000000000001</ele><time>2026-03-29T08:37:46.387Z</time></trkpt><trkpt lat="43.2370907" lon="12.1504741"><ele>567.5999999999999</ele><time>2026-03-29T08:37:48.387Z</time></trkpt><trkpt lat="43.237187" lon="12.1504322"><ele>562.8</ele><time>2026-03-29T08:37:50.388Z</time></trkpt><trkpt lat="43.2372867" lon="12.1503853"><ele>558.0</ele><time>2026-03-29T08:37:52.386Z</time></trkpt><trkpt lat="43.2374053" lon="12.1503787"><ele>553.0</ele><time>2026-03-29T08:37:54.387Z</time></trkpt><trkpt lat="43.2375271" lon="12.1503879"><ele>548.0</ele><time>2026-03-29T08:37:56.387Z</time></trkpt><trkpt lat="43.2376543" lon="12.1503957"><ele>543.0</ele><time>2026-03-29T08:37:58.387Z</time></trkpt><trkpt lat="43.2377592" lon="12.1504396"><ele>538.0</ele><time>2026-03-29T08:38:00.387Z</time></trkpt><trkpt lat="43.237827" lon="12.1504602"><ele>533.0</ele><time>2026-03-29T08:38:01.388Z</time></trkpt><trkpt lat="43.2379168" lon="12.1504522"><ele>533.0</ele><time>2026-03-29T08:38:02.388Z</time></trkpt><trkpt lat="43.2380181" lon="12.1504629"><ele>533.0</ele><time>2026-03-29T08:38:03.387Z</time></trkpt><trkpt lat="43.2381525" lon="12.1504437"><ele>533.0</ele><time>2026-03-29T08:38:05.388Z</time></trkpt><trkpt lat="43.2382396" lon="12.1504129"><ele>533.0</ele><time>2026-03-29T08:38:06.387Z</time></trkpt><trkpt lat="43.2383107" lon="12.1504054"><ele>533.0</ele><time>2026-03-29T08:38:07.387Z</time></trkpt><trkpt lat="43.2384459" lon="12.1503374"><ele>530.1666666666666</ele><time>2026-03-29T08:38:09.388Z</time></trkpt><trkpt lat="43.2385145" lon="12.1503265"><ele>527.3333333333333</ele><time>2026-03-29T08:38:10.387Z</time></trkpt><trkpt lat="43.2385969" lon="12.1503312"><ele>524.5</ele><time>2026-03-29T08:38:11.387Z</time></trkpt><trkpt lat="43.2386717" lon="12.1503182"><ele>521.6666666666666</ele><time>2026-03-29T08:38:12.388Z</time></trkpt><trkpt lat="43.2387402" lon="12.1503084"><ele>518.8333333333334</ele><time>2026-03-29T08:38:13.387Z</time></trkpt><trkpt lat="43.2388093" lon="12.1502936"><ele>516.0</ele><time>2026-03-29T08:38:14.387Z</time></trkpt><trkpt lat="43.2389076" lon="12.1502516"><ele>513.8</ele><time>2026-03-29T08:38:16.388Z</time></trkpt><trkpt lat="43.2389718" lon="12.1501531"><ele>511.6</ele><time>2026-03-29T08:38:18.386Z</time></trkpt><trkpt lat="43.2390305" lon="12.1500593"><ele>509.4</ele><time>2026-03-29T08:38:20.387Z</time></trkpt><trkpt lat="43.2390975" lon="12.1499732"><ele>507.2</ele><time>2026-03-29T08:38:22.386Z</time></trkpt><trkpt lat="43.2391388" lon="12.1498588"><ele>505.0</ele><time>2026-03-29T08:38:24.387Z</time></trkpt><trkpt lat="43.2392204" lon="12.1498119"><ele>503.00000000000006</ele><time>2026-03-29T08:38:26.387Z</time></trkpt><trkpt lat="43.2393115" lon="12.1497771"><ele>501.0</ele><time>2026-03-29T08:38:28.387Z</time></trkpt><trkpt lat="43.2394151" lon="12.1497281"><ele>499.0</ele><time>2026-03-29T08:38:30.387Z</time></trkpt><trkpt lat="43.2394894" lon="12.1497063"><ele>497.0</ele><time>2026-03-29T08:38:31.387Z</time></trkpt><trkpt lat="43.239559" lon="12.1496512"><ele>495.00000000000006</ele><time>2026-03-29T08:38:32.388Z</time></trkpt><trkpt lat="43.2396175" lon="12.1495745"><ele>493.0</ele><time>2026-03-29T08:38:33.387Z</time></trkpt><trkpt lat="43.2396826" lon="12.1494985"><ele>493.00000000000006</ele><time>2026-03-29T08:38:34.386Z</time></trkpt><trkpt lat="43.2397411" lon="12.1494094"><ele>493.0</ele><time>2026-03-29T08:38:35.389Z</time></trkpt><trkpt lat="43.2397844" lon="12.1493281"><ele>493.0</ele><time>2026-03-29T08:38:36.388Z</time></trkpt><trkpt lat="43.2398428" lon="12.1492278"><ele>493.0</ele><time>2026-03-29T08:38:37.387Z</time></trkpt><trkpt lat="43.2399091" lon="12.1491482"><ele>493.00000000000006</ele><time>2026-03-29T08:38:38.387Z</time></trkpt><trkpt lat="43.2399756" lon="12.1490659"><ele>493.0</ele><time>2026-03-29T08:38:39.386Z</time></trkpt><trkpt lat="43.2400239" lon="12.14899"><ele>490.1666666666667</ele><time>2026-03-29T08:38:40.388Z</time></trkpt><trkpt lat="43.240083" lon="12.1489261"><ele>487.33333333333337</ele><time>2026-03-29T08:38:41.386Z</time></trkpt><trkpt lat="43.2401187" lon="12.1488536"><ele>484.5</ele><time>2026-03-29T08:38:42.388Z</time></trkpt><trkpt lat="43.240096" lon="12.1487241"><ele>481.66666666666663</ele><time>2026-03-29T08:38:44.387Z</time></trkpt><trkpt lat="43.2399813" lon="12.1486787"><ele>478.8333333333333</ele><time>2026-03-29T08:38:46.389Z</time></trkpt><trkpt lat="43.2398957" lon="12.1486754"><ele>476.0</ele><time>2026-03-29T08:38:47.387Z</time></trkpt><trkpt lat="43.2398106" lon="12.148681"><ele>476.4</ele><time>2026-03-29T08:38:48.389Z</time></trkpt><trkpt lat="43.2397277" lon="12.1486941"><ele>476.8</ele><time>2026-03-29T08:38:49.387Z</time></trkpt><trkpt lat="43.2396352" lon="12.1486956"><ele>477.19999999999993</ele><time>2026-03-29T08:38:50.387Z</time></trkpt><trkpt lat="43.2395642" lon="12.1486818"><ele>477.59999999999997</ele><time>2026-03-29T08:38:51.388Z</time></trkpt><trkpt lat="43.2394738" lon="12.1485985"><ele>478.0</ele><time>2026-03-29T08:38:53.387Z</time></trkpt><trkpt lat="43.2394619" lon="12.1484078"><ele>478.00000000000006</ele><time>2026-03-29T08:38:55.387Z</time></trkpt><trkpt lat="43.2394661" lon="12.148294"><ele>478.0</ele><time>2026-03-29T08:38:56.387Z</time></trkpt><trkpt lat="43.2394424" lon="12.1481995"><ele>478.0</ele><time>2026-03-29T08:38:57.388Z</time></trkpt><trkpt lat="43.2393976" lon="12.1480857"><ele>478.0</ele><time>2026-03-29T08:38:58.388Z</time></trkpt><trkpt lat="43.2393693" lon="12.1479891"><ele>478.00000000000006</ele><time>2026-03-29T08:38:59.388Z</time></trkpt><trkpt lat="43.2393317" lon="12.1478401"><ele>478.0</ele><time>2026-03-29T08:39:01.388Z</time></trkpt><trkpt lat="43.2393331" lon="12.1476834"><ele>475.4</ele><time>2026-03-29T08:39:03.388Z</time></trkpt><trkpt lat="43.2392252" lon="12.1475997"><ele>472.79999999999995</ele><time>2026-03-29T08:39:05.388Z</time></trkpt><trkpt lat="43.2391199" lon="12.1474803"><ele>470.2</ele><time>2026-03-29T08:39:07.387Z</time></trkpt><trkpt lat="43.2390529" lon="12.147394"><ele>467.6</ele><time>2026-03-29T08:39:08.388Z</time></trkpt><trkpt lat="43.2390152" lon="12.1473032"><ele>465.0</ele><time>2026-03-29T08:39:09.386Z</time></trkpt><trkpt lat="43.2389789" lon="12.1471144"><ele>465.8</ele><time>2026-03-29T08:39:11.387Z</time></trkpt><trkpt lat="43.2389493" lon="12.1469521"><ele>466.6</ele><time>2026-03-29T08:39:13.389Z</time></trkpt><trkpt lat="43.2389194" lon="12.1467738"><ele>467.4</ele><time>2026-03-29T08:39:16.387Z</time></trkpt><trkpt lat="43.2388755" lon="12.1466687"><ele>468.2</ele><time>2026-03-29T08:39:17.388Z</time></trkpt><trkpt lat="43.2388209" lon="12.1465731"><ele>469.0</ele><time>2026-03-29T08:39:18.388Z</time></trkpt><trkpt lat="43.2387595" lon="12.1464805"><ele>467.33333333333337</ele><time>2026-03-29T08:39:19.387Z</time></trkpt><trkpt lat="43.2387211" lon="12.1463882"><ele>465.6666666666667</ele><time>2026-03-29T08:39:20.387Z</time></trkpt><trkpt lat="43.2387038" lon="12.1462826"><ele>464.0</ele><time>2026-03-29T08:39:21.387Z</time></trkpt><trkpt lat="43.2386689" lon="12.1461568"><ele>462.33333333333337</ele><time>2026-03-29T08:39:22.387Z</time></trkpt><trkpt lat="43.2386268" lon="12.1460445"><ele>460.6666666666667</ele><time>2026-03-29T08:39:23.387Z</time></trkpt><trkpt lat="43.2385859" lon="12.1459398"><ele>459.0</ele><time>2026-03-29T08:39:24.387Z</time></trkpt><trkpt lat="43.238558" lon="12.1458611"><ele>459.0</ele><time>2026-03-29T08:39:25.386Z</time></trkpt><trkpt lat="43.238484" lon="12.1457319"><ele>459.0</ele><time>2026-03-29T08:39:27.387Z</time></trkpt><trkpt lat="43.2384375" lon="12.1456158"><ele>459.0</ele><time>2026-03-29T08:39:29.387Z</time></trkpt><trkpt lat="43.2383617" lon="12.1455066"><ele>459.0</ele><time>2026-03-29T08:39:31.387Z</time></trkpt><trkpt lat="43.2383232" lon="12.1454102"><ele>459.0</ele><time>2026-03-29T08:39:32.387Z</time></trkpt><trkpt lat="43.2382756" lon="12.1453091"><ele>457.2</ele><time>2026-03-29T08:39:33.388Z</time></trkpt><trkpt lat="43.2382088" lon="12.1451867"><ele>455.4</ele><time>2026-03-29T08:39:35.387Z</time></trkpt><trkpt lat="43.2382039" lon="12.1450697"><ele>453.6</ele><time>2026-03-29T08:39:36.387Z</time></trkpt><trkpt lat="43.2382277" lon="12.1449775"><ele>451.8</ele><time>2026-03-29T08:39:37.387Z</time></trkpt><trkpt lat="43.2382015" lon="12.1448624"><ele>450.0</ele><time>2026-03-29T08:39:38.388Z</time></trkpt><trkpt lat="43.2382635" lon="12.1447128"><ele>449.8571428571429</ele><time>2026-03-29T08:39:40.388Z</time></trkpt><trkpt lat="43.2383041" lon="12.1446158"><ele>449.7142857142857</ele><time>2026-03-29T08:39:41.387Z</time></trkpt><trkpt lat="43.2383138" lon="12.1445288"><ele>449.57142857142856</ele><time>2026-03-29T08:39:42.388Z</time></trkpt><trkpt lat="43.2383335" lon="12.1444445"><ele>449.42857142857144</ele><time>2026-03-29T08:39:43.387Z</time></trkpt><trkpt lat="43.2383835" lon="12.1443859"><ele>449.2857142857142</ele><time>2026-03-29T08:39:44.387Z</time></trkpt><trkpt lat="43.2384371" lon="12.1442829"><ele>449.1428571428571</ele><time>2026-03-29T08:39:46.387Z</time></trkpt><trkpt lat="43.2385037" lon="12.1442355"><ele>449.0</ele><time>2026-03-29T08:39:47.387Z</time></trkpt><trkpt lat="43.2385843" lon="12.1441916"><ele>449.0</ele><time>2026-03-29T08:39:48.388Z</time></trkpt><trkpt lat="43.2386732" lon="12.1441323"><ele>449.0</ele><time>2026-03-29T08:39:49.386Z</time></trkpt><trkpt lat="43.2387709" lon="12.144098"><ele>449.0</ele><time>2026-03-29T08:39:50.387Z</time></trkpt><trkpt lat="43.2388519" lon="12.1441057"><ele>449.0</ele><time>2026-03-29T08:39:51.386Z</time></trkpt><trkpt lat="43.2389329" lon="12.1440957"><ele>449.0</ele><time>2026-03-29T08:39:52.388Z</time></trkpt><trkpt lat="43.2390176" lon="12.1440633"><ele>445.3333333333333</ele><time>2026-03-29T08:39:53.388Z</time></trkpt><trkpt lat="43.2391196" lon="12.1439638"><ele>441.66666666666663</ele><time>2026-03-29T08:39:55.388Z</time></trkpt><trkpt lat="43.2391829" lon="12.1438744"><ele>438.0</ele><time>2026-03-29T08:39:56.387Z</time></trkpt><trkpt lat="43.2392212" lon="12.1437842"><ele>434.33333333333337</ele><time>2026-03-29T08:39:57.388Z</time></trkpt><trkpt lat="43.2392676" lon="12.1437065"><ele>430.6666666666667</ele><time>2026-03-29T08:39:58.387Z</time></trkpt><trkpt lat="43.2393402" lon="12.14366"><ele>427.0</ele><time>2026-03-29T08:39:59.387Z</time></trkpt><trkpt lat="43.2394465" lon="12.1436894"><ele>427.0</ele><time>2026-03-29T08:40:00.387Z</time></trkpt><trkpt lat="43.2395536" lon="12.1436888"><ele>427.00000000000006</ele><time>2026-03-29T08:40:01.387Z</time></trkpt><trkpt lat="43.2396577" lon="12.1437137"><ele>427.00000000000006</ele><time>2026-03-29T08:40:02.386Z</time></trkpt><trkpt lat="43.2397623" lon="12.1437357"><ele>427.0</ele><time>2026-03-29T08:40:03.387Z</time></trkpt><trkpt lat="43.2398624" lon="12.1437307"><ele>427.0</ele><time>2026-03-29T08:40:04.387Z</time></trkpt><trkpt lat="43.2399681" lon="12.1437138"><ele>421.40000000000003</ele><time>2026-03-29T08:40:05.387Z</time></trkpt><trkpt lat="43.2400598" lon="12.143673"><ele>415.80000000000007</ele><time>2026-03-29T08:40:06.388Z</time></trkpt><trkpt lat="43.2401605" lon="12.1436512"><ele>410.2</ele><time>2026-03-29T08:40:07.389Z</time></trkpt><trkpt lat="43.2402688" lon="12.1436454"><ele>404.6</ele><time>2026-03-29T08:40:09.388Z</time></trkpt><trkpt lat="43.2403374" lon="12.1435424"><ele>399.0</ele><time>2026-03-29T08:40:11.389Z</time></trkpt><trkpt lat="43.240316" lon="12.1434527"><ele>399.0</ele><time>2026-03-29T08:40:12.386Z</time></trkpt><trkpt lat="43.2402865" lon="12.1433165"><ele>399.0</ele><time>2026-03-29T08:40:14.387Z</time></trkpt><trkpt lat="43.240313" lon="12.1432307"><ele>399.0</ele><time>2026-03-29T08:40:15.388Z</time></trkpt><trkpt lat="43.2404077" lon="12.1431478"><ele>399.0</ele><time>2026-03-29T08:40:17.387Z</time></trkpt><trkpt lat="43.2405092" lon="12.1430376"><ele>399.0</ele><time>2026-03-29T08:40:19.389Z</time></trkpt><trkpt lat="43.2404882" lon="12.1429167"><ele>397.5</ele><time>2026-03-29T08:40:21.388Z</time></trkpt><trkpt lat="43.2404192" lon="12.1428836"><ele>396.0</ele><time>2026-03-29T08:40:23.387Z</time></trkpt><trkpt lat="43.2403222" lon="12.1428374"><ele>394.5</ele><time>2026-03-29T08:40:25.388Z</time></trkpt><trkpt lat="43.2403276" lon="12.1427459"><ele>393.0</ele><time>2026-03-29T08:40:26.387Z</time></trkpt><trkpt lat="43.2403213" lon="12.1426541"><ele>391.5</ele><time>2026-03-29T08:40:27.388Z</time></trkpt><trkpt lat="43.2404099" lon="12.1425912"><ele>390.0</ele><time>2026-03-29T08:40:28.388Z</time></trkpt><trkpt lat="43.2404665" lon="12.142501"><ele>390.0</ele><time>2026-03-29T08:40:29.387Z</time></trkpt><trkpt lat="43.2405774" lon="12.1424158"><ele>390.0</ele><time>2026-03-29T08:40:31.387Z</time></trkpt><trkpt lat="43.2406887" lon="12.1423876"><ele>390.0</ele><time>2026-03-29T08:40:33.388Z</time></trkpt><trkpt lat="43.2407896" lon="12.1425145"><ele>390.0</ele><time>2026-03-29T08:40:35.387Z</time></trkpt><trkpt lat="43.2408629" lon="12.1425676"><ele>385.6</ele><time>2026-03-29T08:40:36.388Z</time></trkpt><trkpt lat="43.2409628" lon="12.1425758"><ele>381.2</ele><time>2026-03-29T08:40:37.388Z</time></trkpt><trkpt lat="43.241056" lon="12.1425781"><ele>376.79999999999995</ele><time>2026-03-29T08:40:38.387Z</time></trkpt><trkpt lat="43.2411466" lon="12.1425761"><ele>372.4</ele><time>2026-03-29T08:40:39.387Z</time></trkpt><trkpt lat="43.2412186" lon="12.142626"><ele>368.0</ele><time>2026-03-29T08:40:40.386Z</time></trkpt><trkpt lat="43.2412989" lon="12.1426952"><ele>368.0</ele><time>2026-03-29T08:40:41.387Z</time></trkpt><trkpt lat="43.2413725" lon="12.142756"><ele>368.0</ele><time>2026-03-29T08:40:42.388Z</time></trkpt><trkpt lat="43.2414491" lon="12.1428389"><ele>368.0</ele><time>2026-03-29T08:40:43.389Z</time></trkpt><trkpt lat="43.241591" lon="12.1428518"><ele>368.0</ele><time>2026-03-29T08:40:45.388Z</time></trkpt><trkpt lat="43.2416623" lon="12.1428564"><ele>368.0</ele><time>2026-03-29T08:40:46.388Z</time></trkpt><trkpt lat="43.241767" lon="12.1427824"><ele>366.75</ele><time>2026-03-29T08:40:47.389Z</time></trkpt><trkpt lat="43.2418807" lon="12.1427016"><ele>365.5</ele><time>2026-03-29T08:40:48.388Z</time></trkpt><trkpt lat="43.2419949" lon="12.1426161"><ele>364.25</ele><time>2026-03-29T08:40:49.389Z</time></trkpt><trkpt lat="43.2420969" lon="12.1425496"><ele>363.0</ele><time>2026-03-29T08:40:50.389Z</time></trkpt><trkpt lat="43.2421914" lon="12.1424732"><ele>363.0</ele><time>2026-03-29T08:40:51.388Z</time></trkpt><trkpt lat="43.2422807" lon="12.1424075"><ele>363.0</ele><time>2026-03-29T08:40:52.388Z</time></trkpt><trkpt lat="43.2423657" lon="12.1423475"><ele>363.0</ele><time>2026-03-29T08:40:53.387Z</time></trkpt><trkpt lat="43.2424504" lon="12.1422966"><ele>363.0</ele><time>2026-03-29T08:40:54.388Z</time></trkpt><trkpt lat="43.2424874" lon="12.1422249"><ele>363.0</ele><time>2026-03-29T08:40:55.388Z</time></trkpt><trkpt lat="43.2425828" lon="12.1421822"><ele>362.2</ele><time>2026-03-29T08:40:56.387Z</time></trkpt><trkpt lat="43.2426468" lon="12.1421435"><ele>361.4</ele><time>2026-03-29T08:40:57.389Z</time></trkpt><trkpt lat="43.2427508" lon="12.1421581"><ele>360.59999999999997</ele><time>2026-03-29T08:40:58.388Z</time></trkpt><trkpt lat="43.2428776" lon="12.142157"><ele>359.79999999999995</ele><time>2026-03-29T08:40:59.386Z</time></trkpt><trkpt lat="43.2429938" lon="12.1421598"><ele>359.0</ele><time>2026-03-29T08:41:00.387Z</time></trkpt><trkpt lat="43.243121" lon="12.1421621"><ele>356.25</ele><time>2026-03-29T08:41:01.387Z</time></trkpt><trkpt lat="43.2432643" lon="12.1421603"><ele>353.5</ele><time>2026-03-29T08:41:02.387Z</time></trkpt><trkpt lat="43.2433798" lon="12.14217"><ele>350.75</ele><time>2026-03-29T08:41:03.387Z</time></trkpt><trkpt lat="43.2435034" lon="12.1421615"><ele>348.0</ele><time>2026-03-29T08:41:04.387Z</time></trkpt><trkpt lat="43.2436443" lon="12.1421792"><ele>348.0</ele><time>2026-03-29T08:41:05.389Z</time></trkpt><trkpt lat="43.2437586" lon="12.1421736"><ele>348.0</ele><time>2026-03-29T08:41:06.388Z</time></trkpt><trkpt lat="43.2438667" lon="12.1421536"><ele>348.0</ele><time>2026-03-29T08:41:07.387Z</time></trkpt><trkpt lat="43.2439639" lon="12.1421365"><ele>348.0</ele><time>2026-03-29T08:41:08.387Z</time></trkpt><trkpt lat="43.2440702" lon="12.1421374"><ele>348.0</ele><time>2026-03-29T08:41:09.388Z</time></trkpt><trkpt lat="43.2441856" lon="12.142155"><ele>345.4</ele><time>2026-03-29T08:41:10.388Z</time></trkpt><trkpt lat="43.2442911" lon="12.1421776"><ele>342.79999999999995</ele><time>2026-03-29T08:41:11.387Z</time></trkpt><trkpt lat="43.2443931" lon="12.1422117"><ele>340.2</ele><time>2026-03-29T08:41:12.388Z</time></trkpt><trkpt lat="43.2444959" lon="12.1422723"><ele>337.6</ele><time>2026-03-29T08:41:13.388Z</time></trkpt><trkpt lat="43.2445913" lon="12.1423294"><ele>335.0</ele><time>2026-03-29T08:41:14.388Z</time></trkpt><trkpt lat="43.2446795" lon="12.1423881"><ele>334.5</ele><time>2026-03-29T08:41:15.388Z</time></trkpt><trkpt lat="43.2447736" lon="12.1424582"><ele>334.0</ele><time>2026-03-29T08:41:16.387Z</time></trkpt><trkpt lat="43.2448708" lon="12.1425277"><ele>333.5</ele><time>2026-03-29T08:41:17.387Z</time></trkpt><trkpt lat="43.2449726" lon="12.1425987"><ele>333.0</ele><time>2026-03-29T08:41:18.388Z</time></trkpt><trkpt lat="43.2450894" lon="12.1426646"><ele>331.0</ele><time>2026-03-29T08:41:19.388Z</time></trkpt><trkpt lat="43.2451977" lon="12.1427034"><ele>329.0</ele><time>2026-03-29T08:41:20.387Z</time></trkpt><trkpt lat="43.2453054" lon="12.1427414"><ele>327.0</ele><time>2026-03-29T08:41:21.388Z</time></trkpt><trkpt lat="43.2454213" lon="12.1427708"><ele>325.0</ele><time>2026-03-29T08:41:22.388Z</time></trkpt><trkpt lat="43.2455464" lon="12.1427989"><ele>323.5</ele><time>2026-03-29T08:41:23.389Z</time></trkpt><trkpt lat="43.245658" lon="12.1428253"><ele>322.0</ele><time>2026-03-29T08:41:24.389Z</time></trkpt><trkpt lat="43.2457926" lon="12.1428646"><ele>320.5</ele><time>2026-03-29T08:41:25.387Z</time></trkpt><trkpt lat="43.2459" lon="12.1428962"><ele>319.0</ele><time>2026-03-29T08:41:26.388Z</time></trkpt><trkpt lat="43.2460385" lon="12.1429548"><ele>319.0</ele><time>2026-03-29T08:41:27.388Z</time></trkpt><trkpt lat="43.2461536" lon="12.1430029"><ele>319.0</ele><time>2026-03-29T08:41:28.388Z</time></trkpt><trkpt lat="43.2462385" lon="12.143052"><ele>319.0</ele><time>2026-03-29T08:41:29.389Z</time></trkpt><trkpt lat="43.2463252" lon="12.1431131"><ele>319.0</ele><time>2026-03-29T08:41:30.389Z</time></trkpt><trkpt lat="43.2463697" lon="12.1431847"><ele>319.0</ele><time>2026-03-29T08:41:31.388Z</time></trkpt><trkpt lat="43.2463607" lon="12.1433348"><ele>319.0</ele><time>2026-03-29T08:41:33.388Z</time></trkpt><trkpt lat="43.2463277" lon="12.1434798"><ele>319.0</ele><time>2026-03-29T08:41:35.387Z</time></trkpt><trkpt lat="43.2462567" lon="12.1435894"><ele>319.0</ele><time>2026-03-29T08:41:37.388Z</time></trkpt><trkpt lat="43.2462151" lon="12.1436592"><ele>319.0</ele><time>2026-03-29T08:41:39.388Z</time></trkpt><trkpt lat="43.2461699" lon="12.1437345"><ele>319.0</ele><time>2026-03-29T08:41:41.387Z</time></trkpt><trkpt lat="43.2461301" lon="12.1438123"><ele>319.0</ele><time>2026-03-29T08:41:43.389Z</time></trkpt><trkpt lat="43.2460916" lon="12.1438808"><ele>319.0</ele><time>2026-03-29T08:41:45.387Z</time></trkpt><trkpt lat="43.2460789" lon="12.143978"><ele>319.0</ele><time>2026-03-29T08:41:47.388Z</time></trkpt><trkpt lat="43.246119" lon="12.1440593"><ele>319.0</ele><time>2026-03-29T08:41:48.388Z</time></trkpt><trkpt lat="43.2461714" lon="12.1441273"><ele>319.0</ele><time>2026-03-29T08:41:49.388Z</time></trkpt><trkpt lat="43.246229" lon="12.1441944"><ele>319.0</ele><time>2026-03-29T08:41:50.388Z</time></trkpt><trkpt lat="43.2462808" lon="12.1442563"><ele>319.0</ele><time>2026-03-29T08:41:51.388Z</time></trkpt><trkpt lat="43.2463753" lon="12.1443661"><ele>319.16666666666663</ele><time>2026-03-29T08:41:53.388Z</time></trkpt><trkpt lat="43.2464603" lon="12.1444656"><ele>319.3333333333333</ele><time>2026-03-29T08:41:55.388Z</time></trkpt><trkpt lat="43.2465287" lon="12.1445152"><ele>319.5</ele><time>2026-03-29T08:41:57.388Z</time></trkpt><trkpt lat="43.2465949" lon="12.1445631"><ele>319.6666666666667</ele><time>2026-03-29T08:41:59.387Z</time></trkpt><trkpt lat="43.2466604" lon="12.1446223"><ele>319.83333333333337</ele><time>2026-03-29T08:42:02.389Z</time></trkpt><trkpt lat="43.2467068" lon="12.144688"><ele>320.0</ele><time>2026-03-29T08:42:07.388Z</time></trkpt><trkpt lat="43.2467692" lon="12.1447453"><ele>318.2857142857143</ele><time>2026-03-29T08:42:10.387Z</time></trkpt><trkpt lat="43.2468472" lon="12.1447928"><ele>316.57142857142856</ele><time>2026-03-29T08:42:13.388Z</time></trkpt><trkpt lat="43.2467863" lon="12.1447665"><ele>314.8571428571429</ele><time>2026-03-29T08:43:03.388Z</time></trkpt><trkpt lat="43.2467295" lon="12.144718"><ele>313.1428571428571</ele><time>2026-03-29T08:43:10.388Z</time></trkpt><trkpt lat="43.2466734" lon="12.1446647"><ele>311.42857142857144</ele><time>2026-03-29T08:43:15.388Z</time></trkpt><trkpt lat="43.2466175" lon="12.1446199"><ele>309.7142857142857</ele><time>2026-03-29T08:43:19.389Z</time></trkpt><trkpt lat="43.2465563" lon="12.1445676"><ele>308.0</ele><time>2026-03-29T08:43:24.388Z</time></trkpt><trkpt lat="43.2466224" lon="12.1445503"><ele>308.0</ele><time>2026-03-29T08:44:04.389Z</time></trkpt><trkpt lat="43.2466642" lon="12.1444841"><ele>308.0</ele><time>2026-03-29T08:44:11.387Z</time></trkpt><trkpt lat="43.2466614" lon="12.1444223"><ele>308.0</ele><time>2026-03-29T08:52:10.388Z</time></trkpt><trkpt lat="43.2467284" lon="12.144418"><ele>308.0</ele><time>2026-03-29T08:52:24.388Z</time></trkpt><trkpt lat="43.2466619" lon="12.1444524"><ele>308.0</ele><time>2026-03-29T08:53:34.389Z</time></trkpt><trkpt lat="43.2466241" lon="12.1445218"><ele>308.0</ele><time>2026-03-29T08:53:42.388Z</time></trkpt><trkpt lat="43.2466655" lon="12.1444405"><ele>308.0</ele><time>2026-03-29T08:55:10.389Z</time></trkpt><trkpt lat="43.2467078" lon="12.1443594"><ele>308.0</ele><time>2026-03-29T08:57:06.389Z</time></trkpt><trkpt lat="43.2467298" lon="12.1442635"><ele>308.0</ele><time>2026-03-29T08:57:10.389Z</time></trkpt><trkpt lat="43.2467817" lon="12.1441788"><ele>308.0</ele><time>2026-03-29T08:57:15.389Z</time></trkpt><trkpt lat="43.2468179" lon="12.1441014"><ele>308.0</ele><time>2026-03-29T08:57:20.383Z</time></trkpt><trkpt lat="43.2468801" lon="12.1440622"><ele>308.0</ele><time>2026-03-29T08:57:32.39Z</time></trkpt><trkpt lat="43.2469235" lon="12.1439967"><ele>308.0</ele><time>2026-03-29T08:57:37.319Z</time></trkpt><trkpt lat="43.2468826" lon="12.1440816"><ele>308.0</ele><time>2026-03-29T09:02:03.39Z</time></trkpt><trkpt lat="43.2468286" lon="12.1441531"><ele>308.0</ele><time>2026-03-29T09:02:08.391Z</time></trkpt><trkpt lat="43.2467656" lon="12.1442077"><ele>308.0</ele><time>2026-03-29T09:02:14.391Z</time></trkpt><trkpt lat="43.2467587" lon="12.1443033"><ele>308.0</ele><time>2026-03-29T09:02:19.391Z</time></trkpt><trkpt lat="43.2467172" lon="12.1443906"><ele>308.0</ele><time>2026-03-29T09:02:25.372Z</time></trkpt><trkpt lat="43.246684" lon="12.1444653"><ele>308.0</ele><time>2026-03-29T09:02:34.39Z</time></trkpt><trkpt lat="43.2466718" lon="12.1445606"><ele>308.0</ele><time>2026-03-29T09:03:01.389Z</time></trkpt><trkpt lat="43.2466998" lon="12.1446483"><ele>308.0</ele><time>2026-03-29T09:03:05.39Z</time></trkpt><trkpt lat="43.2467529" lon="12.1447048"><ele>308.0</ele><time>2026-03-29T09:03:16.389Z</time></trkpt><trkpt lat="43.2467928" lon="12.1447852"><ele>308.0</ele><time>2026-03-29T09:03:23.39Z</time></trkpt><trkpt lat="43.2468638" lon="12.1447978"><ele>308.0</ele><time>2026-03-29T09:03:29.391Z</time></trkpt><trkpt lat="43.2469299" lon="12.1448144"><ele>308.0</ele><time>2026-03-29T09:03:39.311Z</time></trkpt><trkpt lat="43.24699" lon="12.1447754"><ele>308.0</ele><time>2026-03-29T09:08:53.391Z</time></trkpt><trkpt lat="43.246901" lon="12.1447421"><ele>308.0</ele><time>2026-03-29T09:10:45.391Z</time></trkpt><trkpt lat="43.2469333" lon="12.144845"><ele>307.5</ele><time>2026-03-29T09:10:52.392Z</time></trkpt><trkpt lat="43.2470315" lon="12.1449074"><ele>307.0</ele><time>2026-03-29T09:10:54.391Z</time></trkpt><trkpt lat="43.2471007" lon="12.1449201"><ele>306.5</ele><time>2026-03-29T09:10:55.391Z</time></trkpt><trkpt lat="43.2471724" lon="12.1449057"><ele>306.0</ele><time>2026-03-29T09:10:56.39Z</time></trkpt><trkpt lat="43.2472417" lon="12.1448802"><ele>305.5</ele><time>2026-03-29T09:10:57.391Z</time></trkpt><trkpt lat="43.2473044" lon="12.1448614"><ele>305.0</ele><time>2026-03-29T09:10:58.391Z</time></trkpt><trkpt lat="43.2473988" lon="12.1448153"><ele>304.0</ele><time>2026-03-29T09:11:00.39Z</time></trkpt><trkpt lat="43.2474519" lon="12.1446958"><ele>303.0</ele><time>2026-03-29T09:11:02.39Z</time></trkpt><trkpt lat="43.2474482" lon="12.1445182"><ele>302.0</ele><time>2026-03-29T09:11:04.39Z</time></trkpt><trkpt lat="43.2474497" lon="12.1444084"><ele>301.0</ele><time>2026-03-29T09:11:05.391Z</time></trkpt><trkpt lat="43.247451" lon="12.1442896"><ele>300.0</ele><time>2026-03-29T09:11:06.391Z</time></trkpt><trkpt lat="43.2474516" lon="12.1441787"><ele>300.0</ele><time>2026-03-29T09:11:07.391Z</time></trkpt><trkpt lat="43.2474496" lon="12.1440761"><ele>300.0</ele><time>2026-03-29T09:11:08.391Z</time></trkpt><trkpt lat="43.2474437" lon="12.143979"><ele>300.0</ele><time>2026-03-29T09:11:09.391Z</time></trkpt><trkpt lat="43.2474421" lon="12.1438814"><ele>300.0</ele><time>2026-03-29T09:11:10.39Z</time></trkpt><trkpt lat="43.2474434" lon="12.1437756"><ele>300.0</ele><time>2026-03-29T09:11:11.39Z</time></trkpt><trkpt lat="43.2474397" lon="12.1436641"><ele>300.0</ele><time>2026-03-29T09:11:12.392Z</time></trkpt><trkpt lat="43.2474364" lon="12.1435448"><ele>300.4</ele><time>2026-03-29T09:11:13.392Z</time></trkpt><trkpt lat="43.2474367" lon="12.1434202"><ele>300.8</ele><time>2026-03-29T09:11:14.391Z</time></trkpt><trkpt lat="43.2474328" lon="12.1432896"><ele>301.2</ele><time>2026-03-29T09:11:15.39Z</time></trkpt><trkpt lat="43.2474166" lon="12.1431435"><ele>301.6</ele><time>2026-03-29T09:11:16.392Z</time></trkpt><trkpt lat="43.247387" lon="12.1429844"><ele>302.0</ele><time>2026-03-29T09:11:17.391Z</time></trkpt><trkpt lat="43.2473384" lon="12.1428061"><ele>304.2</ele><time>2026-03-29T09:11:18.392Z</time></trkpt><trkpt lat="43.2472936" lon="12.1426426"><ele>306.4</ele><time>2026-03-29T09:11:19.391Z</time></trkpt><trkpt lat="43.2472522" lon="12.1425001"><ele>308.6</ele><time>2026-03-29T09:11:20.392Z</time></trkpt><trkpt lat="43.247222" lon="12.1423541"><ele>310.8</ele><time>2026-03-29T09:11:21.391Z</time></trkpt><trkpt lat="43.24722" lon="12.1422169"><ele>313.0</ele><time>2026-03-29T09:11:22.392Z</time></trkpt><trkpt lat="43.2472287" lon="12.1421022"><ele>313.0</ele><time>2026-03-29T09:11:23.391Z</time></trkpt><trkpt lat="43.2472357" lon="12.1420059"><ele>313.0</ele><time>2026-03-29T09:11:24.392Z</time></trkpt><trkpt lat="43.2472471" lon="12.1419116"><ele>313.0</ele><time>2026-03-29T09:11:25.391Z</time></trkpt><trkpt lat="43.2472752" lon="12.1418274"><ele>313.0</ele><time>2026-03-29T09:11:26.39Z</time></trkpt><trkpt lat="43.2473239" lon="12.1417362"><ele>313.0</ele><time>2026-03-29T09:11:27.392Z</time></trkpt><trkpt lat="43.2473939" lon="12.1416425"><ele>313.0</ele><time>2026-03-29T09:11:28.392Z</time></trkpt><trkpt lat="43.2474746" lon="12.14154"><ele>313.0</ele><time>2026-03-29T09:11:29.392Z</time></trkpt><trkpt lat="43.2475561" lon="12.1414309"><ele>313.0</ele><time>2026-03-29T09:11:30.391Z</time></trkpt><trkpt lat="43.2476449" lon="12.1413144"><ele>313.0</ele><time>2026-03-29T09:11:31.391Z</time></trkpt><trkpt lat="43.24774" lon="12.1411929"><ele>313.0</ele><time>2026-03-29T09:11:32.391Z</time></trkpt><trkpt lat="43.24783" lon="12.1410758"><ele>313.0</ele><time>2026-03-29T09:11:33.391Z</time></trkpt><trkpt lat="43.2479227" lon="12.1409536"><ele>313.0</ele><time>2026-03-29T09:11:34.391Z</time></trkpt><trkpt lat="43.2480192" lon="12.1408344"><ele>313.0</ele><time>2026-03-29T09:11:35.39Z</time></trkpt><trkpt lat="43.2481161" lon="12.1407094"><ele>313.0</ele><time>2026-03-29T09:11:36.391Z</time></trkpt><trkpt lat="43.2482158" lon="12.1405812"><ele>311.75</ele><time>2026-03-29T09:11:37.39Z</time></trkpt><trkpt lat="43.2483131" lon="12.1404552"><ele>310.5</ele><time>2026-03-29T09:11:38.391Z</time></trkpt><trkpt lat="43.2484116" lon="12.1403309"><ele>309.25</ele><time>2026-03-29T09:11:39.392Z</time></trkpt><trkpt lat="43.2485122" lon="12.140205"><ele>308.0</ele><time>2026-03-29T09:11:40.392Z</time></trkpt><trkpt lat="43.248604" lon="12.14009"><ele>308.0</ele><time>2026-03-29T09:11:41.392Z</time></trkpt><trkpt lat="43.248691" lon="12.1399738"><ele>308.0</ele><time>2026-03-29T09:11:42.39Z</time></trkpt><trkpt lat="43.2487809" lon="12.1398569"><ele>308.0</ele><time>2026-03-29T09:11:43.391Z</time></trkpt><trkpt lat="43.2488716" lon="12.1397419"><ele>308.0</ele><time>2026-03-29T09:11:44.391Z</time></trkpt><trkpt lat="43.2489646" lon="12.1396243"><ele>307.75</ele><time>2026-03-29T09:11:45.391Z</time></trkpt><trkpt lat="43.2490579" lon="12.1395011"><ele>307.5</ele><time>2026-03-29T09:11:46.392Z</time></trkpt><trkpt lat="43.2491536" lon="12.1393793"><ele>307.25</ele><time>2026-03-29T09:11:47.392Z</time></trkpt><trkpt lat="43.2492423" lon="12.1392654"><ele>307.0</ele><time>2026-03-29T09:11:48.39Z</time></trkpt><trkpt lat="43.249325" lon="12.1391557"><ele>307.0</ele><time>2026-03-29T09:11:49.39Z</time></trkpt><trkpt lat="43.2494032" lon="12.1390592"><ele>307.0</ele><time>2026-03-29T09:11:50.392Z</time></trkpt><trkpt lat="43.2494814" lon="12.1389747"><ele>307.0</ele><time>2026-03-29T09:11:51.391Z</time></trkpt><trkpt lat="43.2495552" lon="12.1389156"><ele>307.0</ele><time>2026-03-29T09:11:52.391Z</time></trkpt><trkpt lat="43.2496146" lon="12.1388855"><ele>307.0</ele><time>2026-03-29T09:11:53.391Z</time></trkpt><trkpt lat="43.24969" lon="12.1388637"><ele>307.0</ele><time>2026-03-29T09:11:55.392Z</time></trkpt><trkpt lat="43.2497831" lon="12.13887"><ele>305.8333333333333</ele><time>2026-03-29T09:12:06.391Z</time></trkpt><trkpt lat="43.249883" lon="12.1388853"><ele>304.66666666666663</ele><time>2026-03-29T09:12:08.391Z</time></trkpt><trkpt lat="43.2499493" lon="12.138903"><ele>303.5</ele><time>2026-03-29T09:12:09.392Z</time></trkpt><trkpt lat="43.250022" lon="12.138921"><ele>302.3333333333333</ele><time>2026-03-29T09:12:10.391Z</time></trkpt><trkpt lat="43.250102" lon="12.1389323"><ele>301.1666666666667</ele><time>2026-03-29T09:12:11.39Z</time></trkpt><trkpt lat="43.2501908" lon="12.1389436"><ele>300.0</ele><time>2026-03-29T09:12:12.391Z</time></trkpt><trkpt lat="43.2502934" lon="12.138958"><ele>300.0</ele><time>2026-03-29T09:12:13.392Z</time></trkpt><trkpt lat="43.2504086" lon="12.1389712"><ele>300.0</ele><time>2026-03-29T09:12:14.392Z</time></trkpt><trkpt lat="43.2505308" lon="12.1389874"><ele>300.0</ele><time>2026-03-29T09:12:15.392Z</time></trkpt><trkpt lat="43.2506575" lon="12.1389998"><ele>300.0</ele><time>2026-03-29T09:12:16.393Z</time></trkpt><trkpt lat="43.2507907" lon="12.1390156"><ele>299.5</ele><time>2026-03-29T09:12:17.393Z</time></trkpt><trkpt lat="43.250921" lon="12.1390241"><ele>299.0</ele><time>2026-03-29T09:12:18.392Z</time></trkpt><trkpt lat="43.2510512" lon="12.139036"><ele>298.5</ele><time>2026-03-29T09:12:19.392Z</time></trkpt><trkpt lat="43.2511782" lon="12.13905"><ele>298.0</ele><time>2026-03-29T09:12:20.391Z</time></trkpt><trkpt lat="43.2513073" lon="12.1390636"><ele>298.0</ele><time>2026-03-29T09:12:21.392Z</time></trkpt><trkpt lat="43.2514345" lon="12.1390773"><ele>298.0</ele><time>2026-03-29T09:12:22.392Z</time></trkpt><trkpt lat="43.2515625" lon="12.1390902"><ele>298.0</ele><time>2026-03-29T09:12:23.392Z</time></trkpt><trkpt lat="43.2516941" lon="12.1391025"><ele>298.0</ele><time>2026-03-29T09:12:24.392Z</time></trkpt><trkpt lat="43.2518332" lon="12.1391177"><ele>298.25</ele><time>2026-03-29T09:12:25.393Z</time></trkpt><trkpt lat="43.2519791" lon="12.1391356"><ele>298.5</ele><time>2026-03-29T09:12:26.393Z</time></trkpt><trkpt lat="43.2521262" lon="12.1391545"><ele>298.75</ele><time>2026-03-29T09:12:27.392Z</time></trkpt><trkpt lat="43.2522801" lon="12.1391729"><ele>299.0</ele><time>2026-03-29T09:12:28.391Z</time></trkpt><trkpt lat="43.2524328" lon="12.1391927"><ele>299.25</ele><time>2026-03-29T09:12:29.391Z</time></trkpt><trkpt lat="43.252582" lon="12.1392075"><ele>299.5</ele><time>2026-03-29T09:12:30.391Z</time></trkpt><trkpt lat="43.2527312" lon="12.1392224"><ele>299.75</ele><time>2026-03-29T09:12:31.391Z</time></trkpt><trkpt lat="43.2528727" lon="12.1392391"><ele>300.0</ele><time>2026-03-29T09:12:32.393Z</time></trkpt><trkpt lat="43.2530059" lon="12.1392489"><ele>300.5</ele><time>2026-03-29T09:12:33.392Z</time></trkpt><trkpt lat="43.2531364" lon="12.1392623"><ele>301.0</ele><time>2026-03-29T09:12:34.392Z</time></trkpt><trkpt lat="43.253259" lon="12.1392756"><ele>301.5</ele><time>2026-03-29T09:12:35.392Z</time></trkpt><trkpt lat="43.2533783" lon="12.139287"><ele>302.0</ele><time>2026-03-29T09:12:36.39Z</time></trkpt><trkpt lat="43.2534998" lon="12.1393038"><ele>302.0</ele><time>2026-03-29T09:12:37.391Z</time></trkpt><trkpt lat="43.2536059" lon="12.1393215"><ele>302.0</ele><time>2026-03-29T09:12:38.39Z</time></trkpt><trkpt lat="43.2537062" lon="12.1393358"><ele>302.0</ele><time>2026-03-29T09:12:39.392Z</time></trkpt><trkpt lat="43.2537923" lon="12.1393484"><ele>302.0</ele><time>2026-03-29T09:12:40.391Z</time></trkpt><trkpt lat="43.2538655" lon="12.1393619"><ele>302.0</ele><time>2026-03-29T09:12:41.393Z</time></trkpt><trkpt lat="43.2539113" lon="12.1394375"><ele>302.0</ele><time>2026-03-29T09:12:44.392Z</time></trkpt><trkpt lat="43.253925" lon="12.1395231"><ele>302.00000000000006</ele><time>2026-03-29T09:12:49.393Z</time></trkpt><trkpt lat="43.2540029" lon="12.139538"><ele>302.0</ele><time>2026-03-29T09:23:47.391Z</time></trkpt><trkpt lat="43.2540691" lon="12.1395458"><ele>302.0</ele><time>2026-03-29T09:23:57.392Z</time></trkpt><trkpt lat="43.2541294" lon="12.1395104"><ele>302.0</ele><time>2026-03-29T09:24:31.393Z</time></trkpt><trkpt lat="43.2541351" lon="12.1394199"><ele>302.0</ele><time>2026-03-29T09:24:35.394Z</time></trkpt><trkpt lat="43.2540716" lon="12.1393357"><ele>302.00000000000006</ele><time>2026-03-29T09:24:39.392Z</time></trkpt><trkpt lat="43.254001" lon="12.139317"><ele>302.0</ele><time>2026-03-29T09:24:41.391Z</time></trkpt><trkpt lat="43.253891" lon="12.1393114"><ele>302.0</ele><time>2026-03-29T09:24:43.392Z</time></trkpt><trkpt lat="43.2538182" lon="12.1393112"><ele>302.0</ele><time>2026-03-29T09:24:44.392Z</time></trkpt><trkpt lat="43.2537242" lon="12.1393061"><ele>302.0</ele><time>2026-03-29T09:24:45.391Z</time></trkpt><trkpt lat="43.2536295" lon="12.1392946"><ele>302.0</ele><time>2026-03-29T09:24:46.392Z</time></trkpt><trkpt lat="43.2535293" lon="12.1392852"><ele>302.0</ele><time>2026-03-29T09:24:47.392Z</time></trkpt><trkpt lat="43.2534285" lon="12.1392753"><ele>302.0</ele><time>2026-03-29T09:24:48.394Z</time></trkpt><trkpt lat="43.2533267" lon="12.1392684"><ele>302.0</ele><time>2026-03-29T09:24:49.392Z</time></trkpt><trkpt lat="43.2532273" lon="12.1392549"><ele>302.0</ele><time>2026-03-29T09:24:50.392Z</time></trkpt><trkpt lat="43.2531307" lon="12.1392412"><ele>302.0</ele><time>2026-03-29T09:24:51.392Z</time></trkpt><trkpt lat="43.2530297" lon="12.1392265"><ele>302.0</ele><time>2026-03-29T09:24:52.391Z</time></trkpt><trkpt lat="43.2529227" lon="12.1392156"><ele>301.5</ele><time>2026-03-29T09:24:53.392Z</time></trkpt><trkpt lat="43.2528058" lon="12.1392045"><ele>301.0</ele><time>2026-03-29T09:24:54.393Z</time></trkpt><trkpt lat="43.2526906" lon="12.1391886"><ele>300.5</ele><time>2026-03-29T09:24:55.393Z</time></trkpt><trkpt lat="43.2525758" lon="12.1391709"><ele>300.0</ele><time>2026-03-29T09:24:56.393Z</time></trkpt><trkpt lat="43.2524625" lon="12.1391529"><ele>300.0</ele><time>2026-03-29T09:24:57.392Z</time></trkpt><trkpt lat="43.2523488" lon="12.1391399"><ele>300.0</ele><time>2026-03-29T09:24:58.393Z</time></trkpt><trkpt lat="43.2522298" lon="12.1391261"><ele>300.0</ele><time>2026-03-29T09:24:59.392Z</time></trkpt><trkpt lat="43.2521068" lon="12.1391033"><ele>300.0</ele><time>2026-03-29T09:25:00.392Z</time></trkpt><trkpt lat="43.2519756" lon="12.1390896"><ele>299.75</ele><time>2026-03-29T09:25:01.394Z</time></trkpt><trkpt lat="43.2518444" lon="12.1390737"><ele>299.5</ele><time>2026-03-29T09:25:02.392Z</time></trkpt><trkpt lat="43.2517107" lon="12.1390586"><ele>299.25</ele><time>2026-03-29T09:25:03.393Z</time></trkpt><trkpt lat="43.251571" lon="12.1390445"><ele>299.0</ele><time>2026-03-29T09:25:04.394Z</time></trkpt><trkpt lat="43.2514284" lon="12.1390294"><ele>298.75</ele><time>2026-03-29T09:25:05.392Z</time></trkpt><trkpt lat="43.2512838" lon="12.1390117"><ele>298.5</ele><time>2026-03-29T09:25:06.392Z</time></trkpt><trkpt lat="43.2511403" lon="12.1389988"><ele>298.25</ele><time>2026-03-29T09:25:07.393Z</time></trkpt><trkpt lat="43.2510022" lon="12.1389829"><ele>298.0</ele><time>2026-03-29T09:25:08.392Z</time></trkpt><trkpt lat="43.2508711" lon="12.1389719"><ele>298.0</ele><time>2026-03-29T09:25:09.393Z</time></trkpt><trkpt lat="43.2507422" lon="12.1389599"><ele>298.0</ele><time>2026-03-29T09:25:10.393Z</time></trkpt><trkpt lat="43.2506144" lon="12.1389468"><ele>298.0</ele><time>2026-03-29T09:25:11.392Z</time></trkpt><trkpt lat="43.250488" lon="12.1389291"><ele>298.0</ele><time>2026-03-29T09:25:12.392Z</time></trkpt><trkpt lat="43.2503666" lon="12.1389155"><ele>298.4</ele><time>2026-03-29T09:25:13.393Z</time></trkpt><trkpt lat="43.2502537" lon="12.1389002"><ele>298.8</ele><time>2026-03-29T09:25:14.393Z</time></trkpt><trkpt lat="43.2501411" lon="12.1388867"><ele>299.2</ele><time>2026-03-29T09:25:15.393Z</time></trkpt><trkpt lat="43.2500289" lon="12.138878"><ele>299.6</ele><time>2026-03-29T09:25:16.393Z</time></trkpt><trkpt lat="43.2499263" lon="12.1388677"><ele>300.0</ele><time>2026-03-29T09:25:17.393Z</time></trkpt><trkpt lat="43.2498318" lon="12.1388472"><ele>305.2</ele><time>2026-03-29T09:25:18.393Z</time></trkpt><trkpt lat="43.2497507" lon="12.1387964"><ele>310.4</ele><time>2026-03-29T09:25:19.393Z</time></trkpt><trkpt lat="43.2496988" lon="12.1387075"><ele>315.6</ele><time>2026-03-29T09:25:20.391Z</time></trkpt><trkpt lat="43.2496583" lon="12.1386131"><ele>320.8</ele><time>2026-03-29T09:25:21.392Z</time></trkpt><trkpt lat="43.249691" lon="12.138493"><ele>326.0</ele><time>2026-03-29T09:25:22.393Z</time></trkpt><trkpt lat="43.2497299" lon="12.1383487"><ele>329.25</ele><time>2026-03-29T09:25:23.392Z</time></trkpt><trkpt lat="43.2497815" lon="12.1381868"><ele>332.5</ele><time>2026-03-29T09:25:24.391Z</time></trkpt><trkpt lat="43.2498306" lon="12.1380286"><ele>335.75</ele><time>2026-03-29T09:25:25.391Z</time></trkpt><trkpt lat="43.2498793" lon="12.1378616"><ele>339.0</ele><time>2026-03-29T09:25:26.392Z</time></trkpt><trkpt lat="43.2499317" lon="12.1376894"><ele>331.75</ele><time>2026-03-29T09:25:27.392Z</time></trkpt><trkpt lat="43.2499823" lon="12.1375162"><ele>324.5</ele><time>2026-03-29T09:25:28.392Z</time></trkpt><trkpt lat="43.2500321" lon="12.1373613"><ele>317.25</ele><time>2026-03-29T09:25:29.391Z</time></trkpt><trkpt lat="43.2500912" lon="12.1372066"><ele>310.0</ele><time>2026-03-29T09:25:30.392Z</time></trkpt><trkpt lat="43.250161" lon="12.1370561"><ele>310.0</ele><time>2026-03-29T09:25:31.392Z</time></trkpt><trkpt lat="43.2502483" lon="12.1369092"><ele>310.0</ele><time>2026-03-29T09:25:32.392Z</time></trkpt><trkpt lat="43.2503398" lon="12.1367537"><ele>310.0</ele><time>2026-03-29T09:25:33.392Z</time></trkpt><trkpt lat="43.2504327" lon="12.1366041"><ele>310.0</ele><time>2026-03-29T09:25:34.393Z</time></trkpt><trkpt lat="43.250521" lon="12.1364247"><ele>308.66666666666663</ele><time>2026-03-29T09:25:35.391Z</time></trkpt><trkpt lat="43.2505998" lon="12.1362362"><ele>307.3333333333333</ele><time>2026-03-29T09:25:36.391Z</time></trkpt><trkpt lat="43.2506752" lon="12.1360296"><ele>306.0</ele><time>2026-03-29T09:25:37.392Z</time></trkpt><trkpt lat="43.2507489" lon="12.1358097"><ele>309.6666666666667</ele><time>2026-03-29T09:25:38.393Z</time></trkpt><trkpt lat="43.2508287" lon="12.1355926"><ele>313.33333333333337</ele><time>2026-03-29T09:25:39.391Z</time></trkpt><trkpt lat="43.2509004" lon="12.135381"><ele>317.0</ele><time>2026-03-29T09:25:40.392Z</time></trkpt><trkpt lat="43.2509727" lon="12.1351682"><ele>317.0</ele><time>2026-03-29T09:25:41.392Z</time></trkpt><trkpt lat="43.2510396" lon="12.1349653"><ele>317.0</ele><time>2026-03-29T09:25:42.392Z</time></trkpt><trkpt lat="43.2511069" lon="12.1347828"><ele>317.0</ele><time>2026-03-29T09:25:43.392Z</time></trkpt><trkpt lat="43.2511852" lon="12.1346207"><ele>315.5</ele><time>2026-03-29T09:25:44.392Z</time></trkpt><trkpt lat="43.2512824" lon="12.1344904"><ele>314.0</ele><time>2026-03-29T09:25:45.393Z</time></trkpt><trkpt lat="43.2513903" lon="12.1343848"><ele>312.5</ele><time>2026-03-29T09:25:46.393Z</time></trkpt><trkpt lat="43.2514915" lon="12.1342712"><ele>311.0</ele><time>2026-03-29T09:25:47.393Z</time></trkpt><trkpt lat="43.2515884" lon="12.1341414"><ele>316.33333333333337</ele><time>2026-03-29T09:25:48.393Z</time></trkpt><trkpt lat="43.2516784" lon="12.1339755"><ele>321.6666666666667</ele><time>2026-03-29T09:25:49.393Z</time></trkpt><trkpt lat="43.2517648" lon="12.1337807"><ele>327.0</ele><time>2026-03-29T09:25:50.393Z</time></trkpt><trkpt lat="43.2518513" lon="12.1336025"><ele>327.0</ele><time>2026-03-29T09:25:51.392Z</time></trkpt><trkpt lat="43.2519463" lon="12.1334477"><ele>327.0</ele><time>2026-03-29T09:25:52.393Z</time></trkpt><trkpt lat="43.2520506" lon="12.1333052"><ele>327.0</ele><time>2026-03-29T09:25:53.392Z</time></trkpt><trkpt lat="43.2521475" lon="12.133182"><ele>327.0</ele><time>2026-03-29T09:25:54.393Z</time></trkpt><trkpt lat="43.2522327" lon="12.1330617"><ele>324.20000000000005</ele><time>2026-03-29T09:25:55.393Z</time></trkpt><trkpt lat="43.252309" lon="12.1329458"><ele>321.40000000000003</ele><time>2026-03-29T09:25:56.392Z</time></trkpt><trkpt lat="43.252349" lon="12.1328096"><ele>318.6</ele><time>2026-03-29T09:25:57.393Z</time></trkpt><trkpt lat="43.2523637" lon="12.1326697"><ele>315.8</ele><time>2026-03-29T09:25:58.392Z</time></trkpt><trkpt lat="43.2523485" lon="12.1325243"><ele>313.0</ele><time>2026-03-29T09:25:59.393Z</time></trkpt><trkpt lat="43.2523219" lon="12.1323811"><ele>313.0</ele><time>2026-03-29T09:26:00.391Z</time></trkpt><trkpt lat="43.2522928" lon="12.1322318"><ele>313.0</ele><time>2026-03-29T09:26:01.392Z</time></trkpt><trkpt lat="43.2522641" lon="12.1320771"><ele>313.0</ele><time>2026-03-29T09:26:02.393Z</time></trkpt><trkpt lat="43.2522251" lon="12.1319434"><ele>313.0</ele><time>2026-03-29T09:26:03.392Z</time></trkpt><trkpt lat="43.2521647" lon="12.1318431"><ele>313.0</ele><time>2026-03-29T09:26:04.393Z</time></trkpt><trkpt lat="43.2520955" lon="12.1317817"><ele>315.0</ele><time>2026-03-29T09:26:05.392Z</time></trkpt><trkpt lat="43.2520199" lon="12.1317531"><ele>317.0</ele><time>2026-03-29T09:26:06.391Z</time></trkpt><trkpt lat="43.2519517" lon="12.1317519"><ele>319.0</ele><time>2026-03-29T09:26:07.392Z</time></trkpt><trkpt lat="43.251883" lon="12.1318434"><ele>321.0</ele><time>2026-03-29T09:26:09.392Z</time></trkpt><trkpt lat="43.2518031" lon="12.1319319"><ele>323.0</ele><time>2026-03-29T09:26:11.391Z</time></trkpt><trkpt lat="43.251734" lon="12.1319306"><ele>325.0</ele><time>2026-03-29T09:26:12.392Z</time></trkpt><trkpt lat="43.2516668" lon="12.1319326"><ele>325.0</ele><time>2026-03-29T09:26:13.391Z</time></trkpt><trkpt lat="43.2515946" lon="12.1320691"><ele>325.0</ele><time>2026-03-29T09:26:15.392Z</time></trkpt><trkpt lat="43.2515847" lon="12.1321878"><ele>325.0</ele><time>2026-03-29T09:26:16.392Z</time></trkpt><trkpt lat="43.2515748" lon="12.1323147"><ele>325.0</ele><time>2026-03-29T09:26:17.394Z</time></trkpt><trkpt lat="43.2515818" lon="12.1324653"><ele>325.0</ele><time>2026-03-29T09:26:18.392Z</time></trkpt><trkpt lat="43.2515778" lon="12.1326066"><ele>326.6</ele><time>2026-03-29T09:26:19.391Z</time></trkpt><trkpt lat="43.2515495" lon="12.1327104"><ele>328.2</ele><time>2026-03-29T09:26:20.391Z</time></trkpt><trkpt lat="43.2514812" lon="12.1328239"><ele>329.79999999999995</ele><time>2026-03-29T09:26:22.393Z</time></trkpt><trkpt lat="43.2513543" lon="12.1328785"><ele>331.4</ele><time>2026-03-29T09:26:24.393Z</time></trkpt><trkpt lat="43.2512891" lon="12.1329121"><ele>333.0</ele><time>2026-03-29T09:26:25.393Z</time></trkpt><trkpt lat="43.2511866" lon="12.1328658"><ele>336.6666666666667</ele><time>2026-03-29T09:26:27.391Z</time></trkpt><trkpt lat="43.2511228" lon="12.1328224"><ele>340.3333333333333</ele><time>2026-03-29T09:26:28.392Z</time></trkpt><trkpt lat="43.2510438" lon="12.1327302"><ele>344.0</ele><time>2026-03-29T09:26:30.393Z</time></trkpt><trkpt lat="43.2509709" lon="12.1328023"><ele>347.66666666666663</ele><time>2026-03-29T09:26:33.392Z</time></trkpt><trkpt lat="43.2509296" lon="12.132901"><ele>351.3333333333333</ele><time>2026-03-29T09:26:36.392Z</time></trkpt><trkpt lat="43.2508447" lon="12.132873"><ele>355.0</ele><time>2026-03-29T09:26:38.393Z</time></trkpt><trkpt lat="43.2507653" lon="12.1328675"><ele>355.0</ele><time>2026-03-29T09:26:40.392Z</time></trkpt><trkpt lat="43.2507002" lon="12.1328698"><ele>355.0</ele><time>2026-03-29T09:26:42.392Z</time></trkpt><trkpt lat="43.2505854" lon="12.1328747"><ele>355.0</ele><time>2026-03-29T09:26:47.392Z</time></trkpt><trkpt lat="43.2505119" lon="12.1328685"><ele>355.0</ele><time>2026-03-29T09:26:48.392Z</time></trkpt><trkpt lat="43.2504254" lon="12.132873"><ele>355.0</ele><time>2026-03-29T09:26:49.391Z</time></trkpt><trkpt lat="43.250326" lon="12.1328879"><ele>355.0</ele><time>2026-03-29T09:26:50.394Z</time></trkpt><trkpt lat="43.2502332" lon="12.1328903"><ele>356.66666666666663</ele><time>2026-03-29T09:26:51.393Z</time></trkpt><trkpt lat="43.2501376" lon="12.1328836"><ele>358.3333333333333</ele><time>2026-03-29T09:26:52.392Z</time></trkpt><trkpt lat="43.2500675" lon="12.1328786"><ele>360.0</ele><time>2026-03-29T09:26:53.392Z</time></trkpt><trkpt lat="43.2499908" lon="12.1328945"><ele>361.6666666666667</ele><time>2026-03-29T09:26:54.392Z</time></trkpt><trkpt lat="43.2499078" lon="12.1329156"><ele>363.33333333333337</ele><time>2026-03-29T09:26:55.392Z</time></trkpt><trkpt lat="43.2498267" lon="12.1329209"><ele>365.0</ele><time>2026-03-29T09:26:56.392Z</time></trkpt><trkpt lat="43.2497567" lon="12.1328963"><ele>366.6</ele><time>2026-03-29T09:26:57.392Z</time></trkpt><trkpt lat="43.2496884" lon="12.1328963"><ele>368.2</ele><time>2026-03-29T09:26:58.391Z</time></trkpt><trkpt lat="43.2495771" lon="12.132923"><ele>369.79999999999995</ele><time>2026-03-29T09:27:00.392Z</time></trkpt><trkpt lat="43.2495157" lon="12.1329755"><ele>371.4</ele><time>2026-03-29T09:27:01.394Z</time></trkpt><trkpt lat="43.2494289" lon="12.1330387"><ele>373.0</ele><time>2026-03-29T09:27:02.393Z</time></trkpt><trkpt lat="43.2493342" lon="12.1330753"><ele>373.0</ele><time>2026-03-29T09:27:03.393Z</time></trkpt><trkpt lat="43.2492502" lon="12.1331309"><ele>373.0</ele><time>2026-03-29T09:27:04.393Z</time></trkpt><trkpt lat="43.2491783" lon="12.1331689"><ele>373.0</ele><time>2026-03-29T09:27:05.393Z</time></trkpt><trkpt lat="43.2490929" lon="12.1331858"><ele>373.0</ele><time>2026-03-29T09:27:06.391Z</time></trkpt><trkpt lat="43.2490084" lon="12.1332028"><ele>373.0</ele><time>2026-03-29T09:27:07.393Z</time></trkpt><trkpt lat="43.2489294" lon="12.1332013"><ele>373.0</ele><time>2026-03-29T09:27:08.393Z</time></trkpt><trkpt lat="43.2488508" lon="12.1332383"><ele>376.5</ele><time>2026-03-29T09:27:09.392Z</time></trkpt><trkpt lat="43.2487884" lon="12.1332748"><ele>380.0</ele><time>2026-03-29T09:27:10.394Z</time></trkpt><trkpt lat="43.2487205" lon="12.1332942"><ele>383.5</ele><time>2026-03-29T09:27:11.393Z</time></trkpt><trkpt lat="43.2486525" lon="12.1333015"><ele>387.0</ele><time>2026-03-29T09:27:12.392Z</time></trkpt><trkpt lat="43.2485838" lon="12.133305"><ele>390.50000000000006</ele><time>2026-03-29T09:27:13.393Z</time></trkpt><trkpt lat="43.248457" lon="12.1333481"><ele>394.0</ele><time>2026-03-29T09:27:15.392Z</time></trkpt><trkpt lat="43.2483911" lon="12.1333321"><ele>394.0</ele><time>2026-03-29T09:27:16.393Z</time></trkpt><trkpt lat="43.2483141" lon="12.1333417"><ele>394.0</ele><time>2026-03-29T09:27:17.393Z</time></trkpt><trkpt lat="43.2482504" lon="12.1333256"><ele>394.0</ele><time>2026-03-29T09:27:18.394Z</time></trkpt><trkpt lat="43.2481865" lon="12.1333197"><ele>394.0</ele><time>2026-03-29T09:27:19.392Z</time></trkpt><trkpt lat="43.2481055" lon="12.1332933"><ele>394.0</ele><time>2026-03-29T09:27:20.392Z</time></trkpt><trkpt lat="43.2480294" lon="12.1332661"><ele>394.0</ele><time>2026-03-29T09:27:21.392Z</time></trkpt><trkpt lat="43.2479663" lon="12.1332313"><ele>394.0</ele><time>2026-03-29T09:27:22.392Z</time></trkpt><trkpt lat="43.2478692" lon="12.1332003"><ele>394.33333333333337</ele><time>2026-03-29T09:27:23.391Z</time></trkpt><trkpt lat="43.2478002" lon="12.1331492"><ele>394.6666666666667</ele><time>2026-03-29T09:27:24.392Z</time></trkpt><trkpt lat="43.2477049" lon="12.133095"><ele>395.0</ele><time>2026-03-29T09:27:25.391Z</time></trkpt><trkpt lat="43.2476202" lon="12.1330553"><ele>395.33333333333337</ele><time>2026-03-29T09:27:26.393Z</time></trkpt><trkpt lat="43.2475368" lon="12.1329819"><ele>395.6666666666667</ele><time>2026-03-29T09:27:27.393Z</time></trkpt><trkpt lat="43.2474806" lon="12.1329157"><ele>396.0</ele><time>2026-03-29T09:27:28.393Z</time></trkpt><trkpt lat="43.2474128" lon="12.132847"><ele>396.0</ele><time>2026-03-29T09:27:29.393Z</time></trkpt><trkpt lat="43.2473565" lon="12.1327934"><ele>396.0</ele><time>2026-03-29T09:27:30.394Z</time></trkpt><trkpt lat="43.2472515" lon="12.1327171"><ele>396.0</ele><time>2026-03-29T09:27:32.392Z</time></trkpt><trkpt lat="43.2471491" lon="12.1326695"><ele>396.0</ele><time>2026-03-29T09:27:34.392Z</time></trkpt><trkpt lat="43.2470733" lon="12.1326714"><ele>396.0</ele><time>2026-03-29T09:27:36.392Z</time></trkpt><trkpt lat="43.2470148" lon="12.1327799"><ele>398.3333333333333</ele><time>2026-03-29T09:27:38.393Z</time></trkpt><trkpt lat="43.2469228" lon="12.1328207"><ele>400.66666666666663</ele><time>2026-03-29T09:27:40.392Z</time></trkpt><trkpt lat="43.2468468" lon="12.1328628"><ele>403.0</ele><time>2026-03-29T09:27:41.392Z</time></trkpt><trkpt lat="43.2467857" lon="12.1328854"><ele>405.3333333333333</ele><time>2026-03-29T09:27:42.392Z</time></trkpt><trkpt lat="43.2467456" lon="12.1329564"><ele>407.66666666666663</ele><time>2026-03-29T09:27:44.391Z</time></trkpt><trkpt lat="43.2467404" lon="12.1330859"><ele>410.0</ele><time>2026-03-29T09:27:47.392Z</time></trkpt><trkpt lat="43.2467355" lon="12.1331726"><ele>414.25</ele><time>2026-03-29T09:27:49.393Z</time></trkpt><trkpt lat="43.2467632" lon="12.1332705"><ele>418.5</ele><time>2026-03-29T09:27:53.393Z</time></trkpt><trkpt lat="43.2467425" lon="12.1334113"><ele>422.75</ele><time>2026-03-29T09:27:55.393Z</time></trkpt><trkpt lat="43.2467315" lon="12.1336328"><ele>427.0</ele><time>2026-03-29T09:27:57.393Z</time></trkpt><trkpt lat="43.246714" lon="12.133794"><ele>427.0</ele><time>2026-03-29T09:27:59.391Z</time></trkpt><trkpt lat="43.2466585" lon="12.1339372"><ele>427.00000000000006</ele><time>2026-03-29T09:28:01.392Z</time></trkpt><trkpt lat="43.2466215" lon="12.1340191"><ele>427.00000000000006</ele><time>2026-03-29T09:28:02.393Z</time></trkpt><trkpt lat="43.2465891" lon="12.1341009"><ele>427.0</ele><time>2026-03-29T09:28:03.392Z</time></trkpt><trkpt lat="43.2465183" lon="12.1342244"><ele>427.0</ele><time>2026-03-29T09:28:05.393Z</time></trkpt><trkpt lat="43.2464982" lon="12.134334"><ele>429.40000000000003</ele><time>2026-03-29T09:28:07.392Z</time></trkpt><trkpt lat="43.2465167" lon="12.1344473"><ele>431.80000000000007</ele><time>2026-03-29T09:28:09.394Z</time></trkpt><trkpt lat="43.2464499" lon="12.1345497"><ele>434.2</ele><time>2026-03-29T09:28:11.393Z</time></trkpt><trkpt lat="43.2464064" lon="12.1346398"><ele>436.6</ele><time>2026-03-29T09:28:13.391Z</time></trkpt><trkpt lat="43.2463369" lon="12.134591"><ele>439.0</ele><time>2026-03-29T09:28:15.392Z</time></trkpt><trkpt lat="43.2462052" lon="12.1345066"><ele>443.4</ele><time>2026-03-29T09:28:17.391Z</time></trkpt><trkpt lat="43.2461095" lon="12.1345243"><ele>447.79999999999995</ele><time>2026-03-29T09:28:18.394Z</time></trkpt><trkpt lat="43.2460231" lon="12.1345181"><ele>452.20000000000005</ele><time>2026-03-29T09:28:19.392Z</time></trkpt><trkpt lat="43.2459197" lon="12.134519"><ele>456.6</ele><time>2026-03-29T09:28:20.392Z</time></trkpt><trkpt lat="43.2458224" lon="12.1345177"><ele>461.0</ele><time>2026-03-29T09:28:21.392Z</time></trkpt><trkpt lat="43.2457388" lon="12.1345131"><ele>461.0</ele><time>2026-03-29T09:28:22.393Z</time></trkpt><trkpt lat="43.2456519" lon="12.1345111"><ele>461.0</ele><time>2026-03-29T09:28:23.393Z</time></trkpt><trkpt lat="43.2455774" lon="12.1345001"><ele>461.0</ele><time>2026-03-29T09:28:24.392Z</time></trkpt><trkpt lat="43.2454584" lon="12.134494"><ele>461.0</ele><time>2026-03-29T09:28:26.392Z</time></trkpt><trkpt lat="43.2453747" lon="12.1345114"><ele>461.0</ele><time>2026-03-29T09:28:27.393Z</time></trkpt><trkpt lat="43.2452785" lon="12.134522"><ele>464.66666666666663</ele><time>2026-03-29T09:28:28.392Z</time></trkpt><trkpt lat="43.2451828" lon="12.1345156"><ele>468.3333333333333</ele><time>2026-03-29T09:28:29.391Z</time></trkpt><trkpt lat="43.2450972" lon="12.134533"><ele>472.0</ele><time>2026-03-29T09:28:30.392Z</time></trkpt><trkpt lat="43.2450335" lon="12.1345511"><ele>475.66666666666663</ele><time>2026-03-29T09:28:31.392Z</time></trkpt><trkpt lat="43.2449403" lon="12.1345621"><ele>479.3333333333333</ele><time>2026-03-29T09:28:33.393Z</time></trkpt><trkpt lat="43.2448468" lon="12.1345957"><ele>483.0</ele><time>2026-03-29T09:28:36.392Z</time></trkpt><trkpt lat="43.2447577" lon="12.1346186"><ele>486.8333333333333</ele><time>2026-03-29T09:28:38.392Z</time></trkpt><trkpt lat="43.2446859" lon="12.13461"><ele>490.66666666666663</ele><time>2026-03-29T09:28:40.394Z</time></trkpt><trkpt lat="43.2445767" lon="12.1346211"><ele>494.5</ele><time>2026-03-29T09:28:50.393Z</time></trkpt><trkpt lat="43.2444547" lon="12.1346254"><ele>498.3333333333333</ele><time>2026-03-29T09:28:52.393Z</time></trkpt><trkpt lat="43.2443875" lon="12.1346219"><ele>502.16666666666663</ele><time>2026-03-29T09:28:53.391Z</time></trkpt><trkpt lat="43.2443115" lon="12.1346231"><ele>506.0</ele><time>2026-03-29T09:28:54.392Z</time></trkpt><trkpt lat="43.2442372" lon="12.1346287"><ele>506.00000000000006</ele><time>2026-03-29T09:28:55.392Z</time></trkpt><trkpt lat="43.2441606" lon="12.1346286"><ele>506.0</ele><time>2026-03-29T09:28:56.392Z</time></trkpt><trkpt lat="43.244084" lon="12.1346334"><ele>506.00000000000006</ele><time>2026-03-29T09:28:57.392Z</time></trkpt><trkpt lat="43.2440116" lon="12.1346404"><ele>506.00000000000006</ele><time>2026-03-29T09:28:58.393Z</time></trkpt><trkpt lat="43.2439434" lon="12.1346453"><ele>506.0</ele><time>2026-03-29T09:28:59.393Z</time></trkpt><trkpt lat="43.2438757" lon="12.134644"><ele>506.00000000000006</ele><time>2026-03-29T09:29:00.393Z</time></trkpt><trkpt lat="43.2438036" lon="12.1346448"><ele>506.00000000000006</ele><time>2026-03-29T09:29:01.393Z</time></trkpt><trkpt lat="43.2437172" lon="12.1346423"><ele>510.99999999999994</ele><time>2026-03-29T09:29:02.392Z</time></trkpt><trkpt lat="43.2436275" lon="12.1346375"><ele>516.0</ele><time>2026-03-29T09:29:03.393Z</time></trkpt><trkpt lat="43.2435453" lon="12.1346322"><ele>521.0</ele><time>2026-03-29T09:29:04.392Z</time></trkpt><trkpt lat="43.2434679" lon="12.1346369"><ele>526.0</ele><time>2026-03-29T09:29:05.392Z</time></trkpt><trkpt lat="43.2433851" lon="12.134626"><ele>531.0</ele><time>2026-03-29T09:29:07.393Z</time></trkpt><trkpt lat="43.2433081" lon="12.1346064"><ele>536.0</ele><time>2026-03-29T09:29:09.393Z</time></trkpt><trkpt lat="43.2432201" lon="12.1345507"><ele>536.0</ele><time>2026-03-29T09:29:11.391Z</time></trkpt><trkpt lat="43.2431581" lon="12.1345025"><ele>536.0</ele><time>2026-03-29T09:29:13.393Z</time></trkpt><trkpt lat="43.2430958" lon="12.1344658"><ele>536.0</ele><time>2026-03-29T09:29:15.393Z</time></trkpt><trkpt lat="43.2430164" lon="12.1344589"><ele>536.0</ele><time>2026-03-29T09:29:20.393Z</time></trkpt><trkpt lat="43.2429407" lon="12.1344062"><ele>536.0</ele><time>2026-03-29T09:29:25.393Z</time></trkpt><trkpt lat="43.2428646" lon="12.1343397"><ele>536.0</ele><time>2026-03-29T09:29:27.393Z</time></trkpt><trkpt lat="43.2427449" lon="12.1342598"><ele>539.8333333333333</ele><time>2026-03-29T09:29:29.392Z</time></trkpt><trkpt lat="43.2426756" lon="12.1342342"><ele>543.6666666666666</ele><time>2026-03-29T09:29:30.393Z</time></trkpt><trkpt lat="43.2425915" lon="12.1341929"><ele>547.5</ele><time>2026-03-29T09:29:32.394Z</time></trkpt><trkpt lat="43.2425361" lon="12.1341449"><ele>551.3333333333334</ele><time>2026-03-29T09:29:36.392Z</time></trkpt><trkpt lat="43.2424295" lon="12.1341186"><ele>555.1666666666667</ele><time>2026-03-29T09:30:20.394Z</time></trkpt><trkpt lat="43.2423562" lon="12.1340905"><ele>559.0</ele><time>2026-03-29T09:30:21.393Z</time></trkpt><trkpt lat="43.2422773" lon="12.1340601"><ele>561.6666666666667</ele><time>2026-03-29T09:30:22.394Z</time></trkpt><trkpt lat="43.2422063" lon="12.1340319"><ele>564.3333333333334</ele><time>2026-03-29T09:30:23.394Z</time></trkpt><trkpt lat="43.242133" lon="12.1339992"><ele>567.0</ele><time>2026-03-29T09:30:24.392Z</time></trkpt><trkpt lat="43.2420577" lon="12.1339548"><ele>569.6666666666666</ele><time>2026-03-29T09:30:25.392Z</time></trkpt><trkpt lat="43.2419825" lon="12.1338936"><ele>572.3333333333333</ele><time>2026-03-29T09:30:26.393Z</time></trkpt><trkpt lat="43.2418958" lon="12.1338388"><ele>575.0</ele><time>2026-03-29T09:30:27.393Z</time></trkpt><trkpt lat="43.2418039" lon="12.1337983"><ele>575.0</ele><time>2026-03-29T09:30:28.392Z</time></trkpt><trkpt lat="43.2417075" lon="12.1337454"><ele>575.0</ele><time>2026-03-29T09:30:29.393Z</time></trkpt><trkpt lat="43.2416235" lon="12.1337219"><ele>575.0</ele><time>2026-03-29T09:30:30.392Z</time></trkpt><trkpt lat="43.2415339" lon="12.1336929"><ele>575.0</ele><time>2026-03-29T09:30:31.393Z</time></trkpt><trkpt lat="43.2414549" lon="12.133652"><ele>575.0</ele><time>2026-03-29T09:30:32.393Z</time></trkpt><trkpt lat="43.2413907" lon="12.1336275"><ele>575.0</ele><time>2026-03-29T09:30:33.393Z</time></trkpt><trkpt lat="43.2413159" lon="12.1336067"><ele>579.5</ele><time>2026-03-29T09:30:34.392Z</time></trkpt><trkpt lat="43.2412274" lon="12.1335917"><ele>584.0</ele><time>2026-03-29T09:30:35.394Z</time></trkpt><trkpt lat="43.2411485" lon="12.1335795"><ele>588.5</ele><time>2026-03-29T09:30:36.393Z</time></trkpt><trkpt lat="43.2410846" lon="12.1336116"><ele>593.0</ele><time>2026-03-29T09:30:37.392Z</time></trkpt><trkpt lat="43.2410131" lon="12.133619"><ele>597.5</ele><time>2026-03-29T09:30:38.393Z</time></trkpt><trkpt lat="43.2409392" lon="12.1336229"><ele>602.0</ele><time>2026-03-29T09:30:39.392Z</time></trkpt><trkpt lat="43.2408007" lon="12.1336138"><ele>602.0</ele><time>2026-03-29T09:30:41.393Z</time></trkpt><trkpt lat="43.240682" lon="12.1335488"><ele>602.0</ele><time>2026-03-29T09:30:43.392Z</time></trkpt><trkpt lat="43.2405642" lon="12.1334971"><ele>602.0</ele><time>2026-03-29T09:30:45.393Z</time></trkpt><trkpt lat="43.2404487" lon="12.1334608"><ele>602.0</ele><time>2026-03-29T09:30:47.392Z</time></trkpt><trkpt lat="43.2403849" lon="12.1334463"><ele>602.0</ele><time>2026-03-29T09:30:48.393Z</time></trkpt><trkpt lat="43.2403205" lon="12.1334317"><ele>608.5</ele><time>2026-03-29T09:30:49.392Z</time></trkpt><trkpt lat="43.2402544" lon="12.1334063"><ele>615.0</ele><time>2026-03-29T09:30:50.393Z</time></trkpt><trkpt lat="43.2401284" lon="12.1333712"><ele>621.5</ele><time>2026-03-29T09:30:52.392Z</time></trkpt><trkpt lat="43.2399982" lon="12.1333009"><ele>628.0</ele><time>2026-03-29T09:30:54.393Z</time></trkpt><trkpt lat="43.2398784" lon="12.1332278"><ele>626.5</ele><time>2026-03-29T09:30:56.393Z</time></trkpt><trkpt lat="43.2398054" lon="12.133171"><ele>625.0</ele><time>2026-03-29T09:30:59.393Z</time></trkpt><trkpt lat="43.2397406" lon="12.1331647"><ele>623.5</ele><time>2026-03-29T09:31:02.393Z</time></trkpt><trkpt lat="43.2396629" lon="12.1331152"><ele>622.0</ele><time>2026-03-29T09:31:05.394Z</time></trkpt><trkpt lat="43.2395694" lon="12.1330602"><ele>620.5</ele><time>2026-03-29T09:31:08.394Z</time></trkpt><trkpt lat="43.2394949" lon="12.1329901"><ele>619.0</ele><time>2026-03-29T09:31:10.393Z</time></trkpt><trkpt lat="43.2393813" lon="12.1330288"><ele>624.3333333333334</ele><time>2026-03-29T09:31:12.393Z</time></trkpt><trkpt lat="43.2392977" lon="12.1330684"><ele>629.6666666666667</ele><time>2026-03-29T09:31:13.392Z</time></trkpt><trkpt lat="43.2392338" lon="12.1330831"><ele>635.0</ele><time>2026-03-29T09:31:14.392Z</time></trkpt><trkpt lat="43.2391663" lon="12.1330789"><ele>640.3333333333334</ele><time>2026-03-29T09:31:15.393Z</time></trkpt><trkpt lat="43.2390525" lon="12.1330618"><ele>645.6666666666666</ele><time>2026-03-29T09:31:17.393Z</time></trkpt><trkpt lat="43.2389754" lon="12.1330035"><ele>651.0</ele><time>2026-03-29T09:31:19.392Z</time></trkpt><trkpt lat="43.2389407" lon="12.1328548"><ele>652.0</ele><time>2026-03-29T09:31:21.392Z</time></trkpt><trkpt lat="43.2389189" lon="12.132759"><ele>653.0</ele><time>2026-03-29T09:31:22.393Z</time></trkpt><trkpt lat="43.2388526" lon="12.1326198"><ele>654.0</ele><time>2026-03-29T09:31:24.394Z</time></trkpt><trkpt lat="43.238762" lon="12.1325089"><ele>655.0</ele><time>2026-03-29T09:31:26.391Z</time></trkpt><trkpt lat="43.238689" lon="12.1324474"><ele>656.0</ele><time>2026-03-29T09:31:27.393Z</time></trkpt><trkpt lat="43.2385995" lon="12.1323604"><ele>659.1666666666666</ele><time>2026-03-29T09:31:28.394Z</time></trkpt><trkpt lat="43.2385179" lon="12.1323193"><ele>662.3333333333333</ele><time>2026-03-29T09:31:29.394Z</time></trkpt><trkpt lat="43.2384375" lon="12.1322844"><ele>665.5</ele><time>2026-03-29T09:31:30.394Z</time></trkpt><trkpt lat="43.2383528" lon="12.1322499"><ele>668.6666666666666</ele><time>2026-03-29T09:31:31.393Z</time></trkpt><trkpt lat="43.2382681" lon="12.132235"><ele>671.8333333333334</ele><time>2026-03-29T09:31:32.393Z</time></trkpt><trkpt lat="43.2382027" lon="12.1322098"><ele>675.0</ele><time>2026-03-29T09:31:33.393Z</time></trkpt><trkpt lat="43.2381062" lon="12.132205"><ele>675.8</ele><time>2026-03-29T09:31:34.393Z</time></trkpt><trkpt lat="43.2380166" lon="12.132221"><ele>676.6</ele><time>2026-03-29T09:31:35.392Z</time></trkpt><trkpt lat="43.2379196" lon="12.1322303"><ele>677.4000000000001</ele><time>2026-03-29T09:31:36.393Z</time></trkpt><trkpt lat="43.2378181" lon="12.1322346"><ele>678.2</ele><time>2026-03-29T09:31:37.392Z</time></trkpt><trkpt lat="43.2376982" lon="12.1322465"><ele>679.0</ele><time>2026-03-29T09:31:38.394Z</time></trkpt><trkpt lat="43.2375975" lon="12.1322295"><ele>679.0</ele><time>2026-03-29T09:31:39.393Z</time></trkpt><trkpt lat="43.2374681" lon="12.1322963"><ele>679.0</ele><time>2026-03-29T09:31:40.391Z</time></trkpt><trkpt lat="43.2373592" lon="12.1323436"><ele>679.0</ele><time>2026-03-29T09:31:41.393Z</time></trkpt><trkpt lat="43.2372692" lon="12.132394"><ele>679.0</ele><time>2026-03-29T09:31:42.394Z</time></trkpt><trkpt lat="43.2371645" lon="12.1324604"><ele>679.0</ele><time>2026-03-29T09:31:43.391Z</time></trkpt><trkpt lat="43.2370738" lon="12.1325175"><ele>679.0</ele><time>2026-03-29T09:31:44.394Z</time></trkpt><trkpt lat="43.2369682" lon="12.1325602"><ele>679.0</ele><time>2026-03-29T09:31:45.392Z</time></trkpt><trkpt lat="43.2368897" lon="12.1325589"><ele>679.0</ele><time>2026-03-29T09:31:46.392Z</time></trkpt><trkpt lat="43.2368224" lon="12.132526"><ele>679.0</ele><time>2026-03-29T09:31:48.392Z</time></trkpt><trkpt lat="43.2366726" lon="12.132333"><ele>679.0</ele><time>2026-03-29T09:31:50.392Z</time></trkpt><trkpt lat="43.2365771" lon="12.1322371"><ele>679.0</ele><time>2026-03-29T09:31:51.393Z</time></trkpt><trkpt lat="43.2364548" lon="12.1321567"><ele>679.0</ele><time>2026-03-29T09:31:52.392Z</time></trkpt><trkpt lat="43.2363255" lon="12.1320549"><ele>679.0</ele><time>2026-03-29T09:31:53.392Z</time></trkpt><trkpt lat="43.2361991" lon="12.1319762"><ele>679.2</ele><time>2026-03-29T09:31:54.393Z</time></trkpt><trkpt lat="43.2360865" lon="12.131879"><ele>679.4000000000001</ele><time>2026-03-29T09:31:55.393Z</time></trkpt><trkpt lat="43.2359738" lon="12.1317989"><ele>679.6</ele><time>2026-03-29T09:31:56.392Z</time></trkpt><trkpt lat="43.2358722" lon="12.1317635"><ele>679.8</ele><time>2026-03-29T09:31:57.393Z</time></trkpt><trkpt lat="43.2357911" lon="12.1317626"><ele>680.0</ele><time>2026-03-29T09:31:58.394Z</time></trkpt><trkpt lat="43.2357221" lon="12.1317944"><ele>680.0</ele><time>2026-03-29T09:31:59.393Z</time></trkpt><trkpt lat="43.2356479" lon="12.1318375"><ele>680.0</ele><time>2026-03-29T09:32:00.393Z</time></trkpt><trkpt lat="43.2355557" lon="12.1319282"><ele>680.0</ele><time>2026-03-29T09:32:01.393Z</time></trkpt><trkpt lat="43.2354671" lon="12.1319763"><ele>680.0</ele><time>2026-03-29T09:32:02.393Z</time></trkpt><trkpt lat="43.2353649" lon="12.1320058"><ele>680.0</ele><time>2026-03-29T09:32:03.393Z</time></trkpt><trkpt lat="43.2352443" lon="12.1319866"><ele>685.5</ele><time>2026-03-29T09:32:04.393Z</time></trkpt><trkpt lat="43.2351101" lon="12.1319623"><ele>691.0</ele><time>2026-03-29T09:32:05.393Z</time></trkpt><trkpt lat="43.2349809" lon="12.131952"><ele>696.5</ele><time>2026-03-29T09:32:06.392Z</time></trkpt><trkpt lat="43.2348369" lon="12.1319811"><ele>702.0</ele><time>2026-03-29T09:32:07.394Z</time></trkpt><trkpt lat="43.2346767" lon="12.1320177"><ele>704.75</ele><time>2026-03-29T09:32:08.393Z</time></trkpt><trkpt lat="43.2345391" lon="12.1320706"><ele>707.5</ele><time>2026-03-29T09:32:09.393Z</time></trkpt><trkpt lat="43.2344189" lon="12.1321015"><ele>710.25</ele><time>2026-03-29T09:32:10.392Z</time></trkpt><trkpt lat="43.2343177" lon="12.1321194"><ele>713.0</ele><time>2026-03-29T09:32:11.392Z</time></trkpt><trkpt lat="43.2342125" lon="12.1320979"><ele>713.0</ele><time>2026-03-29T09:32:12.393Z</time></trkpt><trkpt lat="43.2341073" lon="12.1320388"><ele>713.0</ele><time>2026-03-29T09:32:13.394Z</time></trkpt><trkpt lat="43.2339964" lon="12.1319504"><ele>713.0</ele><time>2026-03-29T09:32:14.393Z</time></trkpt><trkpt lat="43.2338828" lon="12.1318626"><ele>713.0</ele><time>2026-03-29T09:32:15.393Z</time></trkpt><trkpt lat="43.2337751" lon="12.131776"><ele>713.6666666666666</ele><time>2026-03-29T09:32:16.394Z</time></trkpt><trkpt lat="43.2336777" lon="12.1317019"><ele>714.3333333333333</ele><time>2026-03-29T09:32:17.393Z</time></trkpt><trkpt lat="43.2335969" lon="12.1316364"><ele>715.0</ele><time>2026-03-29T09:32:18.394Z</time></trkpt><trkpt lat="43.2335273" lon="12.1315897"><ele>715.6666666666666</ele><time>2026-03-29T09:32:19.394Z</time></trkpt><trkpt lat="43.2334542" lon="12.1315737"><ele>716.3333333333334</ele><time>2026-03-29T09:32:20.393Z</time></trkpt><trkpt lat="43.23339" lon="12.1316303"><ele>717.0</ele><time>2026-03-29T09:32:22.393Z</time></trkpt><trkpt lat="43.2333642" lon="12.1317206"><ele>717.0</ele><time>2026-03-29T09:32:23.392Z</time></trkpt><trkpt lat="43.233309" lon="12.1318507"><ele>717.0</ele><time>2026-03-29T09:32:24.394Z</time></trkpt><trkpt lat="43.2332522" lon="12.1320088"><ele>717.0</ele><time>2026-03-29T09:32:25.392Z</time></trkpt><trkpt lat="43.233192" lon="12.1321043"><ele>717.0</ele><time>2026-03-29T09:32:26.392Z</time></trkpt><trkpt lat="43.2331137" lon="12.1321703"><ele>717.0</ele><time>2026-03-29T09:32:27.393Z</time></trkpt><trkpt lat="43.2330212" lon="12.1322034"><ele>719.75</ele><time>2026-03-29T09:32:28.393Z</time></trkpt><trkpt lat="43.2329059" lon="12.1322378"><ele>722.5</ele><time>2026-03-29T09:32:29.393Z</time></trkpt><trkpt lat="43.2327837" lon="12.1322304"><ele>725.25</ele><time>2026-03-29T09:32:30.392Z</time></trkpt><trkpt lat="43.2326611" lon="12.1322111"><ele>728.0</ele><time>2026-03-29T09:32:31.393Z</time></trkpt><trkpt lat="43.2325315" lon="12.1322165"><ele>728.0</ele><time>2026-03-29T09:32:32.393Z</time></trkpt><trkpt lat="43.2324185" lon="12.1322302"><ele>728.0</ele><time>2026-03-29T09:32:33.393Z</time></trkpt><trkpt lat="43.2322932" lon="12.1322758"><ele>728.0</ele><time>2026-03-29T09:32:34.393Z</time></trkpt><trkpt lat="43.2321599" lon="12.1323322"><ele>728.0</ele><time>2026-03-29T09:32:35.393Z</time></trkpt><trkpt lat="43.2320483" lon="12.132391"><ele>727.0</ele><time>2026-03-29T09:32:36.393Z</time></trkpt><trkpt lat="43.2319432" lon="12.132472"><ele>726.0</ele><time>2026-03-29T09:32:37.393Z</time></trkpt><trkpt lat="43.2318384" lon="12.132549"><ele>725.0</ele><time>2026-03-29T09:32:38.393Z</time></trkpt><trkpt lat="43.2317348" lon="12.1325929"><ele>724.0</ele><time>2026-03-29T09:32:39.392Z</time></trkpt><trkpt lat="43.2316409" lon="12.1326017"><ele>723.0</ele><time>2026-03-29T09:32:40.393Z</time></trkpt><trkpt lat="43.2315373" lon="12.1325934"><ele>723.1666666666666</ele><time>2026-03-29T09:32:41.394Z</time></trkpt><trkpt lat="43.2314484" lon="12.132528"><ele>723.3333333333334</ele><time>2026-03-29T09:32:42.393Z</time></trkpt><trkpt lat="43.2313736" lon="12.1324687"><ele>723.5</ele><time>2026-03-29T09:32:43.393Z</time></trkpt><trkpt lat="43.2313076" lon="12.1324204"><ele>723.6666666666667</ele><time>2026-03-29T09:32:44.391Z</time></trkpt><trkpt lat="43.2311969" lon="12.1324033"><ele>723.8333333333334</ele><time>2026-03-29T09:32:46.393Z</time></trkpt><trkpt lat="43.2311295" lon="12.1324409"><ele>724.0</ele><time>2026-03-29T09:32:48.392Z</time></trkpt><trkpt lat="43.231092" lon="12.1325776"><ele>724.0</ele><time>2026-03-29T09:32:52.393Z</time></trkpt><trkpt lat="43.2310687" lon="12.1326797"><ele>724.0</ele><time>2026-03-29T09:32:53.392Z</time></trkpt><trkpt lat="43.2310479" lon="12.1327911"><ele>724.0</ele><time>2026-03-29T09:32:54.393Z</time></trkpt><trkpt lat="43.2310165" lon="12.1329328"><ele>724.0</ele><time>2026-03-29T09:32:55.393Z</time></trkpt><trkpt lat="43.2309862" lon="12.1330956"><ele>724.0</ele><time>2026-03-29T09:32:56.394Z</time></trkpt><trkpt lat="43.2309768" lon="12.1332322"><ele>724.25</ele><time>2026-03-29T09:32:57.394Z</time></trkpt><trkpt lat="43.2309781" lon="12.1333617"><ele>724.5</ele><time>2026-03-29T09:32:58.393Z</time></trkpt><trkpt lat="43.2310104" lon="12.1335576"><ele>724.75</ele><time>2026-03-29T09:32:59.393Z</time></trkpt><trkpt lat="43.2310242" lon="12.1337445"><ele>725.0</ele><time>2026-03-29T09:33:00.392Z</time></trkpt><trkpt lat="43.2310364" lon="12.1338933"><ele>725.5</ele><time>2026-03-29T09:33:01.394Z</time></trkpt><trkpt lat="43.2310439" lon="12.1340689"><ele>726.0</ele><time>2026-03-29T09:33:02.392Z</time></trkpt><trkpt lat="43.2310759" lon="12.1342143"><ele>726.5</ele><time>2026-03-29T09:33:03.394Z</time></trkpt><trkpt lat="43.2310779" lon="12.1343475"><ele>727.0</ele><time>2026-03-29T09:33:04.393Z</time></trkpt><trkpt lat="43.2310798" lon="12.1345052"><ele>727.0</ele><time>2026-03-29T09:33:05.393Z</time></trkpt><trkpt lat="43.2310823" lon="12.1346712"><ele>727.0</ele><time>2026-03-29T09:33:06.392Z</time></trkpt><trkpt lat="43.2310827" lon="12.1348276"><ele>727.0</ele><time>2026-03-29T09:33:07.394Z</time></trkpt><trkpt lat="43.2310849" lon="12.1349879"><ele>727.0</ele><time>2026-03-29T09:33:08.392Z</time></trkpt><trkpt lat="43.2310698" lon="12.1351336"><ele>725.6</ele><time>2026-03-29T09:33:09.393Z</time></trkpt><trkpt lat="43.2310591" lon="12.1352798"><ele>724.2</ele><time>2026-03-29T09:33:10.393Z</time></trkpt><trkpt lat="43.2310267" lon="12.1353855"><ele>722.8</ele><time>2026-03-29T09:33:11.393Z</time></trkpt><trkpt lat="43.2309517" lon="12.1354878"><ele>721.4</ele><time>2026-03-29T09:33:12.394Z</time></trkpt><trkpt lat="43.2308731" lon="12.1355771"><ele>720.0</ele><time>2026-03-29T09:33:13.392Z</time></trkpt><trkpt lat="43.2307938" lon="12.1356666"><ele>720.0</ele><time>2026-03-29T09:33:14.393Z</time></trkpt><trkpt lat="43.2306999" lon="12.1356861"><ele>720.0</ele><time>2026-03-29T09:33:15.392Z</time></trkpt><trkpt lat="43.2306118" lon="12.1357241"><ele>720.0</ele><time>2026-03-29T09:33:16.393Z</time></trkpt><trkpt lat="43.2305115" lon="12.1357774"><ele>720.0</ele><time>2026-03-29T09:33:17.393Z</time></trkpt><trkpt lat="43.2304091" lon="12.1358435"><ele>720.0</ele><time>2026-03-29T09:33:18.393Z</time></trkpt><trkpt lat="43.230308" lon="12.135879"><ele>718.8</ele><time>2026-03-29T09:33:19.393Z</time></trkpt><trkpt lat="43.2302032" lon="12.135925"><ele>717.6</ele><time>2026-03-29T09:33:20.392Z</time></trkpt><trkpt lat="43.2300991" lon="12.1359768"><ele>716.4000000000001</ele><time>2026-03-29T09:33:21.393Z</time></trkpt><trkpt lat="43.2300061" lon="12.1360384"><ele>715.2</ele><time>2026-03-29T09:33:22.392Z</time></trkpt><trkpt lat="43.2299188" lon="12.1361194"><ele>714.0</ele><time>2026-03-29T09:33:23.393Z</time></trkpt><trkpt lat="43.2298407" lon="12.1362324"><ele>716.5</ele><time>2026-03-29T09:33:24.394Z</time></trkpt><trkpt lat="43.2297694" lon="12.1364122"><ele>719.0</ele><time>2026-03-29T09:33:25.393Z</time></trkpt><trkpt lat="43.2296948" lon="12.1365779"><ele>721.5</ele><time>2026-03-29T09:33:26.393Z</time></trkpt><trkpt lat="43.2296646" lon="12.1367129"><ele>724.0</ele><time>2026-03-29T09:33:27.393Z</time></trkpt><trkpt lat="43.2296452" lon="12.1368243"><ele>724.0</ele><time>2026-03-29T09:33:28.393Z</time></trkpt><trkpt lat="43.2296252" lon="12.1369411"><ele>724.0</ele><time>2026-03-29T09:33:29.394Z</time></trkpt><trkpt lat="43.2296126" lon="12.1370674"><ele>724.0</ele><time>2026-03-29T09:33:30.393Z</time></trkpt><trkpt lat="43.2296149" lon="12.1372065"><ele>724.0</ele><time>2026-03-29T09:33:31.393Z</time></trkpt><trkpt lat="43.2295924" lon="12.1373364"><ele>724.0</ele><time>2026-03-29T09:33:32.393Z</time></trkpt><trkpt lat="43.2295595" lon="12.1374601"><ele>721.2</ele><time>2026-03-29T09:33:33.394Z</time></trkpt><trkpt lat="43.2295241" lon="12.1376024"><ele>718.4000000000001</ele><time>2026-03-29T09:33:34.393Z</time></trkpt><trkpt lat="43.2294947" lon="12.1377367"><ele>715.6</ele><time>2026-03-29T09:33:35.392Z</time></trkpt><trkpt lat="43.229477" lon="12.1378802"><ele>712.8</ele><time>2026-03-29T09:33:36.393Z</time></trkpt><trkpt lat="43.2294757" lon="12.1380253"><ele>710.0</ele><time>2026-03-29T09:33:37.393Z</time></trkpt><trkpt lat="43.229469" lon="12.1381562"><ele>709.2</ele><time>2026-03-29T09:33:38.394Z</time></trkpt><trkpt lat="43.2294675" lon="12.1382683"><ele>708.4</ele><time>2026-03-29T09:33:39.393Z</time></trkpt><trkpt lat="43.2294816" lon="12.1384162"><ele>707.5999999999999</ele><time>2026-03-29T09:33:41.393Z</time></trkpt><trkpt lat="43.2295168" lon="12.13855"><ele>706.8</ele><time>2026-03-29T09:33:43.392Z</time></trkpt><trkpt lat="43.2295479" lon="12.1386374"><ele>706.0</ele><time>2026-03-29T09:33:44.394Z</time></trkpt><trkpt lat="43.2295961" lon="12.1387473"><ele>706.0</ele><time>2026-03-29T09:33:45.393Z</time></trkpt><trkpt lat="43.2296427" lon="12.1388606"><ele>706.0</ele><time>2026-03-29T09:33:46.394Z</time></trkpt><trkpt lat="43.2296848" lon="12.1389714"><ele>706.0</ele><time>2026-03-29T09:33:47.392Z</time></trkpt><trkpt lat="43.2297309" lon="12.1390691"><ele>706.0</ele><time>2026-03-29T09:33:48.393Z</time></trkpt><trkpt lat="43.2297726" lon="12.1391539"><ele>706.0</ele><time>2026-03-29T09:33:49.394Z</time></trkpt><trkpt lat="43.229823" lon="12.1392094"><ele>706.0</ele><time>2026-03-29T09:33:50.393Z</time></trkpt><trkpt lat="43.2299283" lon="12.1393124"><ele>706.3333333333334</ele><time>2026-03-29T09:33:52.393Z</time></trkpt><trkpt lat="43.2299827" lon="12.1393965"><ele>706.6666666666667</ele><time>2026-03-29T09:33:53.393Z</time></trkpt><trkpt lat="43.2300284" lon="12.1395079"><ele>707.0</ele><time>2026-03-29T09:33:54.392Z</time></trkpt><trkpt lat="43.2300759" lon="12.1396239"><ele>707.3333333333334</ele><time>2026-03-29T09:33:55.393Z</time></trkpt><trkpt lat="43.2301173" lon="12.1397285"><ele>707.6666666666666</ele><time>2026-03-29T09:33:56.392Z</time></trkpt><trkpt lat="43.2301511" lon="12.139839"><ele>708.0</ele><time>2026-03-29T09:33:57.393Z</time></trkpt><trkpt lat="43.2301876" lon="12.1399357"><ele>708.1666666666666</ele><time>2026-03-29T09:33:58.394Z</time></trkpt><trkpt lat="43.2302457" lon="12.1400254"><ele>708.3333333333334</ele><time>2026-03-29T09:34:00.393Z</time></trkpt><trkpt lat="43.2302979" lon="12.1401624"><ele>708.5</ele><time>2026-03-29T09:34:46.395Z</time></trkpt><trkpt lat="43.2303646" lon="12.1402621"><ele>708.6666666666667</ele><time>2026-03-29T09:34:48.394Z</time></trkpt><trkpt lat="43.2303999" lon="12.140334"><ele>708.8333333333334</ele><time>2026-03-29T09:34:49.393Z</time></trkpt><trkpt lat="43.2304224" lon="12.1404211"><ele>709.0</ele><time>2026-03-29T09:34:50.393Z</time></trkpt><trkpt lat="43.2304585" lon="12.140571"><ele>706.1666666666667</ele><time>2026-03-29T09:34:52.392Z</time></trkpt><trkpt lat="43.2304511" lon="12.1407219"><ele>703.3333333333334</ele><time>2026-03-29T09:34:54.393Z</time></trkpt><trkpt lat="43.2304135" lon="12.1408549"><ele>700.5</ele><time>2026-03-29T09:34:56.394Z</time></trkpt><trkpt lat="43.2303824" lon="12.1409411"><ele>697.6666666666666</ele><time>2026-03-29T09:34:57.392Z</time></trkpt><trkpt lat="43.2303519" lon="12.1410357"><ele>694.8333333333333</ele><time>2026-03-29T09:34:58.393Z</time></trkpt><trkpt lat="43.2303243" lon="12.1411426"><ele>692.0</ele><time>2026-03-29T09:34:59.393Z</time></trkpt><trkpt lat="43.2302897" lon="12.1412415"><ele>692.0</ele><time>2026-03-29T09:35:00.392Z</time></trkpt><trkpt lat="43.2302523" lon="12.1413472"><ele>692.0</ele><time>2026-03-29T09:35:01.393Z</time></trkpt><trkpt lat="43.2302196" lon="12.1414854"><ele>692.0</ele><time>2026-03-29T09:35:02.392Z</time></trkpt><trkpt lat="43.2301977" lon="12.1416188"><ele>692.0</ele><time>2026-03-29T09:35:03.394Z</time></trkpt><trkpt lat="43.230181" lon="12.141734"><ele>692.0</ele><time>2026-03-29T09:35:04.393Z</time></trkpt><trkpt lat="43.2301551" lon="12.1418528"><ele>690.2</ele><time>2026-03-29T09:35:05.394Z</time></trkpt><trkpt lat="43.2301344" lon="12.1419659"><ele>688.4000000000001</ele><time>2026-03-29T09:35:06.392Z</time></trkpt><trkpt lat="43.2301142" lon="12.1420709"><ele>686.5999999999999</ele><time>2026-03-29T09:35:07.393Z</time></trkpt><trkpt lat="43.2300423" lon="12.1422165"><ele>684.8</ele><time>2026-03-29T09:35:09.394Z</time></trkpt><trkpt lat="43.2299828" lon="12.1422943"><ele>683.0</ele><time>2026-03-29T09:35:11.394Z</time></trkpt><trkpt lat="43.230041" lon="12.1422108"><ele>683.0</ele><time>2026-03-29T09:35:20.393Z</time></trkpt><trkpt lat="43.230089" lon="12.142126"><ele>683.0</ele><time>2026-03-29T09:35:22.394Z</time></trkpt><trkpt lat="43.2300386" lon="12.1421954"><ele>683.0</ele><time>2026-03-29T09:35:28.394Z</time></trkpt><trkpt lat="43.2299935" lon="12.1422812"><ele>683.0</ele><time>2026-03-29T09:35:31.393Z</time></trkpt><trkpt lat="43.2299599" lon="12.1423594"><ele>683.0</ele><time>2026-03-29T09:35:35.393Z</time></trkpt><trkpt lat="43.2299327" lon="12.1424921"><ele>683.0</ele><time>2026-03-29T09:37:57.393Z</time></trkpt><trkpt lat="43.2299151" lon="12.1426075"><ele>681.5999999999999</ele><time>2026-03-29T09:37:58.393Z</time></trkpt><trkpt lat="43.2298952" lon="12.142743"><ele>680.1999999999999</ele><time>2026-03-29T09:37:59.393Z</time></trkpt><trkpt lat="43.2298662" lon="12.1428794"><ele>678.8</ele><time>2026-03-29T09:38:00.393Z</time></trkpt><trkpt lat="43.2298116" lon="12.1430106"><ele>677.4</ele><time>2026-03-29T09:38:01.392Z</time></trkpt><trkpt lat="43.2297411" lon="12.1431417"><ele>676.0</ele><time>2026-03-29T09:38:02.393Z</time></trkpt><trkpt lat="43.2296857" lon="12.14326"><ele>675.4</ele><time>2026-03-29T09:38:03.393Z</time></trkpt><trkpt lat="43.2296368" lon="12.1434024"><ele>674.8</ele><time>2026-03-29T09:38:04.393Z</time></trkpt><trkpt lat="43.2296012" lon="12.1435445"><ele>674.1999999999999</ele><time>2026-03-29T09:38:05.393Z</time></trkpt><trkpt lat="43.2295691" lon="12.1436732"><ele>673.5999999999999</ele><time>2026-03-29T09:38:06.393Z</time></trkpt><trkpt lat="43.2295273" lon="12.143769"><ele>673.0</ele><time>2026-03-29T09:38:07.392Z</time></trkpt><trkpt lat="43.229506" lon="12.1439351"><ele>673.0</ele><time>2026-03-29T09:38:09.393Z</time></trkpt><trkpt lat="43.2295279" lon="12.1440358"><ele>673.0</ele><time>2026-03-29T09:38:10.392Z</time></trkpt><trkpt lat="43.2295556" lon="12.1441162"><ele>673.0</ele><time>2026-03-29T09:38:11.392Z</time></trkpt><trkpt lat="43.2295822" lon="12.1442497"><ele>673.0</ele><time>2026-03-29T09:38:13.392Z</time></trkpt><trkpt lat="43.2295706" lon="12.144384"><ele>673.0</ele><time>2026-03-29T09:38:15.393Z</time></trkpt><trkpt lat="43.2295426" lon="12.1445554"><ele>674.5</ele><time>2026-03-29T09:38:17.392Z</time></trkpt><trkpt lat="43.2295359" lon="12.144654"><ele>676.0</ele><time>2026-03-29T09:38:18.393Z</time></trkpt><trkpt lat="43.229509" lon="12.1447484"><ele>677.5</ele><time>2026-03-29T09:38:19.393Z</time></trkpt><trkpt lat="43.2294913" lon="12.1448335"><ele>679.0</ele><time>2026-03-29T09:38:20.393Z</time></trkpt><trkpt lat="43.2295188" lon="12.1449922"><ele>680.5</ele><time>2026-03-29T09:38:22.394Z</time></trkpt><trkpt lat="43.229544" lon="12.1450759"><ele>682.0</ele><time>2026-03-29T09:38:23.393Z</time></trkpt><trkpt lat="43.2295598" lon="12.1451778"><ele>684.4000000000001</ele><time>2026-03-29T09:38:24.394Z</time></trkpt><trkpt lat="43.22957" lon="12.1452924"><ele>686.8000000000001</ele><time>2026-03-29T09:38:25.393Z</time></trkpt><trkpt lat="43.2295719" lon="12.1454299"><ele>689.2</ele><time>2026-03-29T09:38:26.393Z</time></trkpt><trkpt lat="43.2295771" lon="12.1455714"><ele>691.6</ele><time>2026-03-29T09:38:27.393Z</time></trkpt><trkpt lat="43.2295812" lon="12.1457239"><ele>694.0</ele><time>2026-03-29T09:38:28.392Z</time></trkpt><trkpt lat="43.2295825" lon="12.1458794"><ele>694.5</ele><time>2026-03-29T09:38:29.393Z</time></trkpt><trkpt lat="43.2295963" lon="12.1460527"><ele>695.0</ele><time>2026-03-29T09:38:30.392Z</time></trkpt><trkpt lat="43.2296142" lon="12.146221"><ele>695.5</ele><time>2026-03-29T09:38:31.392Z</time></trkpt><trkpt lat="43.2296393" lon="12.1463773"><ele>696.0</ele><time>2026-03-29T09:38:32.394Z</time></trkpt><trkpt lat="43.2296698" lon="12.1465053"><ele>695.0</ele><time>2026-03-29T09:38:33.394Z</time></trkpt><trkpt lat="43.2297024" lon="12.1466196"><ele>694.0</ele><time>2026-03-29T09:38:34.393Z</time></trkpt><trkpt lat="43.2297356" lon="12.1467271"><ele>693.0</ele><time>2026-03-29T09:38:35.392Z</time></trkpt><trkpt lat="43.2297471" lon="12.1468449"><ele>692.0</ele><time>2026-03-29T09:38:36.393Z</time></trkpt><trkpt lat="43.2297453" lon="12.1469759"><ele>691.0</ele><time>2026-03-29T09:38:37.394Z</time></trkpt><trkpt lat="43.229769" lon="12.1471073"><ele>691.0</ele><time>2026-03-29T09:38:38.393Z</time></trkpt><trkpt lat="43.2298003" lon="12.1472319"><ele>691.0</ele><time>2026-03-29T09:38:39.393Z</time></trkpt><trkpt lat="43.2298385" lon="12.1473692"><ele>691.0</ele><time>2026-03-29T09:38:40.393Z</time></trkpt><trkpt lat="43.229861" lon="12.1475031"><ele>691.0</ele><time>2026-03-29T09:38:41.394Z</time></trkpt><trkpt lat="43.2298907" lon="12.1476405"><ele>691.0</ele><time>2026-03-29T09:38:42.393Z</time></trkpt><trkpt lat="43.229939" lon="12.1477705"><ele>691.0</ele><time>2026-03-29T09:38:43.392Z</time></trkpt><trkpt lat="43.23" lon="12.1479067"><ele>691.0</ele><time>2026-03-29T09:38:44.393Z</time></trkpt><trkpt lat="43.2300525" lon="12.1480516"><ele>691.0</ele><time>2026-03-29T09:38:45.392Z</time></trkpt><trkpt lat="43.2301218" lon="12.1482125"><ele>691.0</ele><time>2026-03-29T09:38:46.392Z</time></trkpt><trkpt lat="43.2301885" lon="12.1483849"><ele>691.0</ele><time>2026-03-29T09:38:47.392Z</time></trkpt><trkpt lat="43.2302589" lon="12.1485603"><ele>691.0</ele><time>2026-03-29T09:38:48.393Z</time></trkpt><trkpt lat="43.2303261" lon="12.1487364"><ele>691.0</ele><time>2026-03-29T09:38:49.393Z</time></trkpt><trkpt lat="43.2303892" lon="12.1489137"><ele>691.0</ele><time>2026-03-29T09:38:50.393Z</time></trkpt><trkpt lat="43.2304532" lon="12.1490827"><ele>692.0</ele><time>2026-03-29T09:38:51.394Z</time></trkpt><trkpt lat="43.2305266" lon="12.1492542"><ele>693.0</ele><time>2026-03-29T09:38:52.393Z</time></trkpt><trkpt lat="43.2306096" lon="12.1494075"><ele>694.0</ele><time>2026-03-29T09:38:53.393Z</time></trkpt><trkpt lat="43.2306976" lon="12.1495643"><ele>695.0</ele><time>2026-03-29T09:38:54.393Z</time></trkpt><trkpt lat="43.2307696" lon="12.1497369"><ele>694.5</ele><time>2026-03-29T09:38:55.392Z</time></trkpt><trkpt lat="43.2308274" lon="12.1498982"><ele>694.0</ele><time>2026-03-29T09:38:56.393Z</time></trkpt><trkpt lat="43.2308897" lon="12.1500387"><ele>693.5</ele><time>2026-03-29T09:38:57.394Z</time></trkpt><trkpt lat="43.230957" lon="12.1501625"><ele>693.0</ele><time>2026-03-29T09:38:58.393Z</time></trkpt><trkpt lat="43.2310281" lon="12.1502716"><ele>693.0</ele><time>2026-03-29T09:38:59.393Z</time></trkpt><trkpt lat="43.2310949" lon="12.1503751"><ele>693.0</ele><time>2026-03-29T09:39:00.392Z</time></trkpt><trkpt lat="43.2311567" lon="12.1504808"><ele>693.0</ele><time>2026-03-29T09:39:01.392Z</time></trkpt><trkpt lat="43.2312052" lon="12.1505861"><ele>693.0</ele><time>2026-03-29T09:39:02.393Z</time></trkpt><trkpt lat="43.231199" lon="12.1507137"><ele>693.0</ele><time>2026-03-29T09:39:03.393Z</time></trkpt><trkpt lat="43.2311776" lon="12.1508178"><ele>692.2</ele><time>2026-03-29T09:39:04.394Z</time></trkpt><trkpt lat="43.2311043" lon="12.1509077"><ele>691.4</ele><time>2026-03-29T09:39:05.394Z</time></trkpt><trkpt lat="43.2310189" lon="12.1509852"><ele>690.6</ele><time>2026-03-29T09:39:06.395Z</time></trkpt><trkpt lat="43.2309274" lon="12.1510447"><ele>689.8000000000001</ele><time>2026-03-29T09:39:07.394Z</time></trkpt><trkpt lat="43.2308328" lon="12.1510842"><ele>689.0</ele><time>2026-03-29T09:39:08.393Z</time></trkpt><trkpt lat="43.2307425" lon="12.1511041"><ele>689.0</ele><time>2026-03-29T09:39:09.394Z</time></trkpt><trkpt lat="43.2306633" lon="12.1511302"><ele>689.0</ele><time>2026-03-29T09:39:10.395Z</time></trkpt><trkpt lat="43.2305954" lon="12.1511707"><ele>689.0</ele><time>2026-03-29T09:39:11.394Z</time></trkpt><trkpt lat="43.2305465" lon="12.1512316"><ele>689.0</ele><time>2026-03-29T09:39:12.394Z</time></trkpt><trkpt lat="43.2305423" lon="12.1513204"><ele>689.0</ele><time>2026-03-29T09:39:13.394Z</time></trkpt><trkpt lat="43.2305606" lon="12.1514307"><ele>689.0</ele><time>2026-03-29T09:39:14.394Z</time></trkpt><trkpt lat="43.2305798" lon="12.1515635"><ele>683.2</ele><time>2026-03-29T09:39:15.394Z</time></trkpt><trkpt lat="43.2305975" lon="12.1517026"><ele>677.4000000000001</ele><time>2026-03-29T09:39:16.394Z</time></trkpt><trkpt lat="43.2305949" lon="12.1518473"><ele>671.6</ele><time>2026-03-29T09:39:17.394Z</time></trkpt><trkpt lat="43.2305711" lon="12.1519956"><ele>665.8</ele><time>2026-03-29T09:39:18.394Z</time></trkpt><trkpt lat="43.2305556" lon="12.1521508"><ele>660.0</ele><time>2026-03-29T09:39:19.394Z</time></trkpt><trkpt lat="43.2305527" lon="12.1523152"><ele>662.25</ele><time>2026-03-29T09:39:20.395Z</time></trkpt><trkpt lat="43.2305622" lon="12.1524994"><ele>664.5</ele><time>2026-03-29T09:39:21.394Z</time></trkpt><trkpt lat="43.2305751" lon="12.1526831"><ele>666.75</ele><time>2026-03-29T09:39:22.393Z</time></trkpt><trkpt lat="43.2305893" lon="12.152872"><ele>669.0</ele><time>2026-03-29T09:39:23.394Z</time></trkpt><trkpt lat="43.2306127" lon="12.1530637"><ele>669.0</ele><time>2026-03-29T09:39:24.395Z</time></trkpt><trkpt lat="43.2306408" lon="12.1532475"><ele>669.0</ele><time>2026-03-29T09:39:25.393Z</time></trkpt><trkpt lat="43.2306572" lon="12.1534325"><ele>669.0</ele><time>2026-03-29T09:39:26.395Z</time></trkpt><trkpt lat="43.2306761" lon="12.1536072"><ele>669.0</ele><time>2026-03-29T09:39:27.393Z</time></trkpt><trkpt lat="43.2306938" lon="12.1537723"><ele>668.4000000000001</ele><time>2026-03-29T09:39:28.394Z</time></trkpt><trkpt lat="43.2307112" lon="12.1539136"><ele>667.8</ele><time>2026-03-29T09:39:29.393Z</time></trkpt><trkpt lat="43.2307197" lon="12.1540361"><ele>667.2</ele><time>2026-03-29T09:39:30.393Z</time></trkpt><trkpt lat="43.2307094" lon="12.154154"><ele>666.5999999999999</ele><time>2026-03-29T09:39:31.393Z</time></trkpt><trkpt lat="43.2306742" lon="12.1542654"><ele>666.0</ele><time>2026-03-29T09:39:32.395Z</time></trkpt><trkpt lat="43.2306035" lon="12.1543863"><ele>664.25</ele><time>2026-03-29T09:39:33.393Z</time></trkpt><trkpt lat="43.2305168" lon="12.1544956"><ele>662.5</ele><time>2026-03-29T09:39:34.393Z</time></trkpt><trkpt lat="43.2304508" lon="12.1546443"><ele>660.75</ele><time>2026-03-29T09:39:35.392Z</time></trkpt><trkpt lat="43.2303836" lon="12.1548623"><ele>659.0</ele><time>2026-03-29T09:39:36.392Z</time></trkpt><trkpt lat="43.2303309" lon="12.1550605"><ele>656.6666666666666</ele><time>2026-03-29T09:39:37.393Z</time></trkpt><trkpt lat="43.2302765" lon="12.1552584"><ele>654.3333333333334</ele><time>2026-03-29T09:39:38.395Z</time></trkpt><trkpt lat="43.230213" lon="12.1554564"><ele>652.0</ele><time>2026-03-29T09:39:39.394Z</time></trkpt><trkpt lat="43.2301524" lon="12.1556395"><ele>653.0</ele><time>2026-03-29T09:39:40.394Z</time></trkpt><trkpt lat="43.2301009" lon="12.1558092"><ele>654.0</ele><time>2026-03-29T09:39:41.393Z</time></trkpt><trkpt lat="43.2300519" lon="12.1559828"><ele>655.0</ele><time>2026-03-29T09:39:42.393Z</time></trkpt><trkpt lat="43.2300185" lon="12.1561373"><ele>656.0</ele><time>2026-03-29T09:39:43.393Z</time></trkpt><trkpt lat="43.2299799" lon="12.1562856"><ele>656.0</ele><time>2026-03-29T09:39:44.393Z</time></trkpt><trkpt lat="43.2299399" lon="12.1564409"><ele>656.0</ele><time>2026-03-29T09:39:45.393Z</time></trkpt><trkpt lat="43.2298992" lon="12.1565819"><ele>656.0</ele><time>2026-03-29T09:39:46.393Z</time></trkpt><trkpt lat="43.2298536" lon="12.1566862"><ele>656.0</ele><time>2026-03-29T09:39:47.394Z</time></trkpt><trkpt lat="43.2298147" lon="12.1567999"><ele>656.0</ele><time>2026-03-29T09:39:48.394Z</time></trkpt><trkpt lat="43.2298115" lon="12.1569235"><ele>656.1666666666666</ele><time>2026-03-29T09:39:49.394Z</time></trkpt><trkpt lat="43.2298066" lon="12.157047"><ele>656.3333333333333</ele><time>2026-03-29T09:39:50.395Z</time></trkpt><trkpt lat="43.2298219" lon="12.1571714"><ele>656.5</ele><time>2026-03-29T09:39:51.394Z</time></trkpt><trkpt lat="43.2298409" lon="12.1572968"><ele>656.6666666666666</ele><time>2026-03-29T09:39:52.393Z</time></trkpt><trkpt lat="43.2298738" lon="12.1573915"><ele>656.8333333333334</ele><time>2026-03-29T09:39:53.394Z</time></trkpt><trkpt lat="43.2299023" lon="12.1574928"><ele>657.0</ele><time>2026-03-29T09:39:54.393Z</time></trkpt><trkpt lat="43.2299243" lon="12.1575783"><ele>655.0</ele><time>2026-03-29T09:39:55.394Z</time></trkpt><trkpt lat="43.2299378" lon="12.1576922"><ele>653.0</ele><time>2026-03-29T09:39:57.395Z</time></trkpt><trkpt lat="43.2299637" lon="12.157777"><ele>651.0</ele><time>2026-03-29T09:40:01.392Z</time></trkpt><trkpt lat="43.2299513" lon="12.1579163"><ele>649.0</ele><time>2026-03-29T09:42:07.394Z</time></trkpt><trkpt lat="43.229936" lon="12.1580003"><ele>647.0</ele><time>2026-03-29T09:42:08.394Z</time></trkpt><trkpt lat="43.229909" lon="12.1580983"><ele>645.0</ele><time>2026-03-29T09:42:09.394Z</time></trkpt><trkpt lat="43.2298573" lon="12.1582442"><ele>642.8</ele><time>2026-03-29T09:42:10.394Z</time></trkpt><trkpt lat="43.2298066" lon="12.1583862"><ele>640.6</ele><time>2026-03-29T09:42:11.394Z</time></trkpt><trkpt lat="43.229743" lon="12.1585049"><ele>638.4</ele><time>2026-03-29T09:42:12.394Z</time></trkpt><trkpt lat="43.2296644" lon="12.1586051"><ele>636.2</ele><time>2026-03-29T09:42:13.395Z</time></trkpt><trkpt lat="43.2295922" lon="12.1586845"><ele>634.0</ele><time>2026-03-29T09:42:14.394Z</time></trkpt><trkpt lat="43.2295107" lon="12.1587517"><ele>634.0</ele><time>2026-03-29T09:42:15.395Z</time></trkpt><trkpt lat="43.2294368" lon="12.158823"><ele>634.0</ele><time>2026-03-29T09:42:16.394Z</time></trkpt><trkpt lat="43.2293613" lon="12.1589033"><ele>634.0</ele><time>2026-03-29T09:42:17.394Z</time></trkpt><trkpt lat="43.2293056" lon="12.1589887"><ele>634.0</ele><time>2026-03-29T09:42:18.394Z</time></trkpt><trkpt lat="43.2292656" lon="12.1590794"><ele>634.0</ele><time>2026-03-29T09:42:19.395Z</time></trkpt><trkpt lat="43.229236" lon="12.15919"><ele>634.0</ele><time>2026-03-29T09:42:20.393Z</time></trkpt><trkpt lat="43.2292266" lon="12.1593402"><ele>635.4</ele><time>2026-03-29T09:42:21.394Z</time></trkpt><trkpt lat="43.2292104" lon="12.1594773"><ele>636.8</ele><time>2026-03-29T09:42:22.394Z</time></trkpt><trkpt lat="43.2291948" lon="12.1596113"><ele>638.1999999999999</ele><time>2026-03-29T09:42:23.393Z</time></trkpt><trkpt lat="43.229171" lon="12.1597517"><ele>639.5999999999999</ele><time>2026-03-29T09:42:24.394Z</time></trkpt><trkpt lat="43.2291248" lon="12.1598875"><ele>641.0</ele><time>2026-03-29T09:42:25.395Z</time></trkpt><trkpt lat="43.2290608" lon="12.1600004"><ele>641.8</ele><time>2026-03-29T09:42:26.394Z</time></trkpt><trkpt lat="43.2289977" lon="12.1601089"><ele>642.5999999999999</ele><time>2026-03-29T09:42:27.394Z</time></trkpt><trkpt lat="43.2289142" lon="12.160196"><ele>643.4</ele><time>2026-03-29T09:42:28.395Z</time></trkpt><trkpt lat="43.2288215" lon="12.1602908"><ele>644.2</ele><time>2026-03-29T09:42:29.393Z</time></trkpt><trkpt lat="43.2287182" lon="12.1603742"><ele>645.0</ele><time>2026-03-29T09:42:30.393Z</time></trkpt><trkpt lat="43.228635" lon="12.1604613"><ele>645.2</ele><time>2026-03-29T09:42:31.394Z</time></trkpt><trkpt lat="43.228559" lon="12.1605534"><ele>645.4</ele><time>2026-03-29T09:42:32.393Z</time></trkpt><trkpt lat="43.2285034" lon="12.1606529"><ele>645.5999999999999</ele><time>2026-03-29T09:42:33.394Z</time></trkpt><trkpt lat="43.2284663" lon="12.160759"><ele>645.8</ele><time>2026-03-29T09:42:34.394Z</time></trkpt><trkpt lat="43.2284449" lon="12.1608779"><ele>646.0</ele><time>2026-03-29T09:42:35.394Z</time></trkpt><trkpt lat="43.2284405" lon="12.1610031"><ele>646.0</ele><time>2026-03-29T09:42:36.394Z</time></trkpt><trkpt lat="43.2284447" lon="12.1611502"><ele>646.0</ele><time>2026-03-29T09:42:37.394Z</time></trkpt><trkpt lat="43.228447" lon="12.1613099"><ele>646.0</ele><time>2026-03-29T09:42:38.393Z</time></trkpt><trkpt lat="43.2284437" lon="12.1614726"><ele>646.0</ele><time>2026-03-29T09:42:39.393Z</time></trkpt><trkpt lat="43.2284435" lon="12.161625"><ele>647.0</ele><time>2026-03-29T09:42:40.394Z</time></trkpt><trkpt lat="43.2284371" lon="12.161761"><ele>648.0</ele><time>2026-03-29T09:42:41.394Z</time></trkpt><trkpt lat="43.2284207" lon="12.1618698"><ele>649.0</ele><time>2026-03-29T09:42:42.394Z</time></trkpt><trkpt lat="43.2284023" lon="12.1619711"><ele>650.0</ele><time>2026-03-29T09:42:43.393Z</time></trkpt><trkpt lat="43.2282944" lon="12.1620769"><ele>651.0</ele><time>2026-03-29T09:42:45.393Z</time></trkpt><trkpt lat="43.2282111" lon="12.162114"><ele>650.0</ele><time>2026-03-29T09:42:46.393Z</time></trkpt><trkpt lat="43.2281281" lon="12.1621693"><ele>649.0</ele><time>2026-03-29T09:42:47.395Z</time></trkpt><trkpt lat="43.2280441" lon="12.1622306"><ele>648.0</ele><time>2026-03-29T09:42:48.394Z</time></trkpt><trkpt lat="43.2279575" lon="12.1622973"><ele>647.0</ele><time>2026-03-29T09:42:49.393Z</time></trkpt><trkpt lat="43.2278806" lon="12.1623714"><ele>646.0</ele><time>2026-03-29T09:42:50.394Z</time></trkpt><trkpt lat="43.2278026" lon="12.1624346"><ele>646.0</ele><time>2026-03-29T09:42:51.394Z</time></trkpt><trkpt lat="43.227715" lon="12.1624987"><ele>646.0</ele><time>2026-03-29T09:42:52.394Z</time></trkpt><trkpt lat="43.2276277" lon="12.1625627"><ele>646.0</ele><time>2026-03-29T09:42:53.395Z</time></trkpt><trkpt lat="43.2275323" lon="12.1626202"><ele>646.0</ele><time>2026-03-29T09:42:54.393Z</time></trkpt><trkpt lat="43.2274433" lon="12.1626774"><ele>646.0</ele><time>2026-03-29T09:42:55.393Z</time></trkpt><trkpt lat="43.227354" lon="12.1627292"><ele>644.1666666666667</ele><time>2026-03-29T09:42:56.394Z</time></trkpt><trkpt lat="43.2272785" lon="12.1627689"><ele>642.3333333333334</ele><time>2026-03-29T09:42:57.394Z</time></trkpt><trkpt lat="43.2272072" lon="12.1628185"><ele>640.5</ele><time>2026-03-29T09:42:58.393Z</time></trkpt><trkpt lat="43.2271427" lon="12.1628518"><ele>638.6666666666666</ele><time>2026-03-29T09:42:59.394Z</time></trkpt><trkpt lat="43.2270759" lon="12.1628822"><ele>636.8333333333333</ele><time>2026-03-29T09:43:00.394Z</time></trkpt><trkpt lat="43.2269487" lon="12.1629025"><ele>635.0</ele><time>2026-03-29T09:43:02.394Z</time></trkpt><trkpt lat="43.2268315" lon="12.1628692"><ele>635.0</ele><time>2026-03-29T09:43:04.393Z</time></trkpt><trkpt lat="43.226767" lon="12.1628375"><ele>635.0</ele><time>2026-03-29T09:43:05.394Z</time></trkpt><trkpt lat="43.2266423" lon="12.1627963"><ele>635.0</ele><time>2026-03-29T09:43:07.394Z</time></trkpt><trkpt lat="43.226522" lon="12.1627485"><ele>635.0</ele><time>2026-03-29T09:43:09.395Z</time></trkpt><trkpt lat="43.2264598" lon="12.1627244"><ele>635.0</ele><time>2026-03-29T09:43:10.395Z</time></trkpt><trkpt lat="43.2263994" lon="12.1626916"><ele>633.7142857142857</ele><time>2026-03-29T09:43:11.393Z</time></trkpt><trkpt lat="43.2263343" lon="12.1626616"><ele>632.4285714285714</ele><time>2026-03-29T09:43:12.394Z</time></trkpt><trkpt lat="43.2262704" lon="12.1626318"><ele>631.1428571428571</ele><time>2026-03-29T09:43:13.394Z</time></trkpt><trkpt lat="43.2262072" lon="12.1626055"><ele>629.8571428571429</ele><time>2026-03-29T09:43:14.395Z</time></trkpt><trkpt lat="43.2261454" lon="12.1625728"><ele>628.5714285714286</ele><time>2026-03-29T09:43:15.394Z</time></trkpt><trkpt lat="43.2260826" lon="12.1625485"><ele>627.2857142857142</ele><time>2026-03-29T09:43:16.394Z</time></trkpt><trkpt lat="43.2260207" lon="12.1625214"><ele>626.0</ele><time>2026-03-29T09:43:17.394Z</time></trkpt><trkpt lat="43.2259577" lon="12.1624985"><ele>626.0</ele><time>2026-03-29T09:43:18.394Z</time></trkpt><trkpt lat="43.2258909" lon="12.1624694"><ele>626.0</ele><time>2026-03-29T09:43:19.394Z</time></trkpt><trkpt lat="43.2258195" lon="12.1624455"><ele>626.0</ele><time>2026-03-29T09:43:20.393Z</time></trkpt><trkpt lat="43.2257407" lon="12.1624169"><ele>626.0</ele><time>2026-03-29T09:43:21.394Z</time></trkpt><trkpt lat="43.2256608" lon="12.1623853"><ele>626.0</ele><time>2026-03-29T09:43:22.393Z</time></trkpt><trkpt lat="43.2255779" lon="12.1623587"><ele>626.0</ele><time>2026-03-29T09:43:23.395Z</time></trkpt><trkpt lat="43.2254938" lon="12.1623305"><ele>623.4</ele><time>2026-03-29T09:43:24.394Z</time></trkpt><trkpt lat="43.2254066" lon="12.1623083"><ele>620.8</ele><time>2026-03-29T09:43:25.394Z</time></trkpt><trkpt lat="43.2253176" lon="12.1622796"><ele>618.1999999999999</ele><time>2026-03-29T09:43:26.394Z</time></trkpt><trkpt lat="43.2252181" lon="12.1622445"><ele>615.6</ele><time>2026-03-29T09:43:27.394Z</time></trkpt><trkpt lat="43.2251233" lon="12.1622255"><ele>613.0</ele><time>2026-03-29T09:43:28.395Z</time></trkpt><trkpt lat="43.2250283" lon="12.1622274"><ele>613.0</ele><time>2026-03-29T09:43:29.395Z</time></trkpt><trkpt lat="43.224937" lon="12.1622251"><ele>613.0</ele><time>2026-03-29T09:43:30.393Z</time></trkpt><trkpt lat="43.2248424" lon="12.1622396"><ele>613.0</ele><time>2026-03-29T09:43:31.394Z</time></trkpt><trkpt lat="43.2247455" lon="12.1622401"><ele>613.0</ele><time>2026-03-29T09:43:32.394Z</time></trkpt><trkpt lat="43.224654" lon="12.1622259"><ele>613.0</ele><time>2026-03-29T09:43:33.395Z</time></trkpt><trkpt lat="43.2245572" lon="12.1622151"><ele>611.4</ele><time>2026-03-29T09:43:34.394Z</time></trkpt><trkpt lat="43.2244694" lon="12.1621973"><ele>609.8</ele><time>2026-03-29T09:43:35.393Z</time></trkpt><trkpt lat="43.2243744" lon="12.1621762"><ele>608.2</ele><time>2026-03-29T09:43:36.395Z</time></trkpt><trkpt lat="43.2242766" lon="12.1621677"><ele>606.6</ele><time>2026-03-29T09:43:37.394Z</time></trkpt><trkpt lat="43.2241842" lon="12.1621742"><ele>605.0</ele><time>2026-03-29T09:43:38.393Z</time></trkpt><trkpt lat="43.2240924" lon="12.1621917"><ele>605.0</ele><time>2026-03-29T09:43:39.395Z</time></trkpt><trkpt lat="43.2240027" lon="12.1622088"><ele>605.0</ele><time>2026-03-29T09:43:40.394Z</time></trkpt><trkpt lat="43.2239093" lon="12.1622252"><ele>605.0</ele><time>2026-03-29T09:43:41.393Z</time></trkpt><trkpt lat="43.2238039" lon="12.162246"><ele>605.0</ele><time>2026-03-29T09:43:42.395Z</time></trkpt><trkpt lat="43.2236866" lon="12.1622646"><ele>605.0</ele><time>2026-03-29T09:43:43.394Z</time></trkpt><trkpt lat="43.2235673" lon="12.1622839"><ele>602.5</ele><time>2026-03-29T09:43:44.393Z</time></trkpt><trkpt lat="43.2234391" lon="12.1623049"><ele>600.0</ele><time>2026-03-29T09:43:45.393Z</time></trkpt><trkpt lat="43.2233146" lon="12.1623224"><ele>597.5</ele><time>2026-03-29T09:43:46.394Z</time></trkpt><trkpt lat="43.2231849" lon="12.1623428"><ele>595.0</ele><time>2026-03-29T09:43:47.395Z</time></trkpt><trkpt lat="43.2230521" lon="12.1623634"><ele>594.25</ele><time>2026-03-29T09:43:48.394Z</time></trkpt><trkpt lat="43.2229203" lon="12.162394"><ele>593.5</ele><time>2026-03-29T09:43:49.395Z</time></trkpt><trkpt lat="43.2227932" lon="12.1624288"><ele>592.75</ele><time>2026-03-29T09:43:50.394Z</time></trkpt><trkpt lat="43.2226672" lon="12.1624693"><ele>592.0</ele><time>2026-03-29T09:43:51.395Z</time></trkpt><trkpt lat="43.2225507" lon="12.1625023"><ele>592.0</ele><time>2026-03-29T09:43:52.393Z</time></trkpt><trkpt lat="43.2224446" lon="12.1625381"><ele>592.0</ele><time>2026-03-29T09:43:53.395Z</time></trkpt><trkpt lat="43.2223541" lon="12.1625735"><ele>592.0</ele><time>2026-03-29T09:43:54.393Z</time></trkpt><trkpt lat="43.2222738" lon="12.1625946"><ele>592.0</ele><time>2026-03-29T09:43:55.394Z</time></trkpt><trkpt lat="43.2222081" lon="12.1625974"><ele>592.0</ele><time>2026-03-29T09:43:56.393Z</time></trkpt><trkpt lat="43.2221424" lon="12.1625883"><ele>592.0</ele><time>2026-03-29T09:43:57.393Z</time></trkpt><trkpt lat="43.2220779" lon="12.1626073"><ele>590.6</ele><time>2026-03-29T09:43:58.394Z</time></trkpt><trkpt lat="43.2219869" lon="12.1626526"><ele>589.2</ele><time>2026-03-29T09:43:59.393Z</time></trkpt><trkpt lat="43.221887" lon="12.1626985"><ele>587.8</ele><time>2026-03-29T09:44:00.395Z</time></trkpt><trkpt lat="43.2217782" lon="12.1627189"><ele>586.4</ele><time>2026-03-29T09:44:01.394Z</time></trkpt><trkpt lat="43.2216663" lon="12.1627277"><ele>585.0</ele><time>2026-03-29T09:44:02.393Z</time></trkpt><trkpt lat="43.2215484" lon="12.1627573"><ele>582.75</ele><time>2026-03-29T09:44:03.394Z</time></trkpt><trkpt lat="43.221435" lon="12.1627985"><ele>580.5</ele><time>2026-03-29T09:44:04.394Z</time></trkpt><trkpt lat="43.2213143" lon="12.1628364"><ele>578.25</ele><time>2026-03-29T09:44:05.395Z</time></trkpt><trkpt lat="43.2212061" lon="12.1628669"><ele>576.0</ele><time>2026-03-29T09:44:06.395Z</time></trkpt><trkpt lat="43.2210943" lon="12.1628936"><ele>576.0</ele><time>2026-03-29T09:44:07.395Z</time></trkpt><trkpt lat="43.2209975" lon="12.1629374"><ele>576.0</ele><time>2026-03-29T09:44:08.394Z</time></trkpt><trkpt lat="43.2209115" lon="12.1629847"><ele>576.0</ele><time>2026-03-29T09:44:09.395Z</time></trkpt><trkpt lat="43.2208362" lon="12.1630688"><ele>576.0</ele><time>2026-03-29T09:44:10.394Z</time></trkpt><trkpt lat="43.220778" lon="12.163142"><ele>576.0</ele><time>2026-03-29T09:44:11.394Z</time></trkpt><trkpt lat="43.2207459" lon="12.1632245"><ele>576.0</ele><time>2026-03-29T09:44:12.394Z</time></trkpt><trkpt lat="43.2207146" lon="12.16333"><ele>576.8</ele><time>2026-03-29T09:44:13.395Z</time></trkpt><trkpt lat="43.2207006" lon="12.1634182"><ele>577.6</ele><time>2026-03-29T09:44:14.395Z</time></trkpt><trkpt lat="43.2207064" lon="12.1635497"><ele>578.4</ele><time>2026-03-29T09:44:15.394Z</time></trkpt><trkpt lat="43.2207256" lon="12.1636801"><ele>579.2</ele><time>2026-03-29T09:44:16.395Z</time></trkpt><trkpt lat="43.2207547" lon="12.1637977"><ele>580.0</ele><time>2026-03-29T09:44:17.395Z</time></trkpt><trkpt lat="43.2208062" lon="12.163922"><ele>580.0</ele><time>2026-03-29T09:44:18.394Z</time></trkpt><trkpt lat="43.2208722" lon="12.1640279"><ele>580.0</ele><time>2026-03-29T09:44:19.393Z</time></trkpt><trkpt lat="43.2209567" lon="12.1641264"><ele>580.0</ele><time>2026-03-29T09:44:20.395Z</time></trkpt><trkpt lat="43.2210474" lon="12.164219"><ele>580.0</ele><time>2026-03-29T09:44:21.394Z</time></trkpt><trkpt lat="43.2211235" lon="12.1643274"><ele>580.0</ele><time>2026-03-29T09:44:22.394Z</time></trkpt><trkpt lat="43.2211955" lon="12.1644383"><ele>578.6666666666667</ele><time>2026-03-29T09:44:23.394Z</time></trkpt><trkpt lat="43.2212553" lon="12.1645322"><ele>577.3333333333334</ele><time>2026-03-29T09:44:24.394Z</time></trkpt><trkpt lat="43.2213138" lon="12.1646214"><ele>576.0</ele><time>2026-03-29T09:44:25.395Z</time></trkpt><trkpt lat="43.2213708" lon="12.1647096"><ele>574.6666666666666</ele><time>2026-03-29T09:44:26.394Z</time></trkpt><trkpt lat="43.2214236" lon="12.1647821"><ele>573.3333333333333</ele><time>2026-03-29T09:44:27.394Z</time></trkpt><trkpt lat="43.2214759" lon="12.1648862"><ele>572.0</ele><time>2026-03-29T09:44:29.395Z</time></trkpt><trkpt lat="43.2214258" lon="12.1649705"><ele>568.6666666666666</ele><time>2026-03-29T09:44:31.394Z</time></trkpt><trkpt lat="43.2213606" lon="12.164971"><ele>565.3333333333333</ele><time>2026-03-29T09:44:32.394Z</time></trkpt><trkpt lat="43.2212832" lon="12.1649616"><ele>562.0</ele><time>2026-03-29T09:44:34.394Z</time></trkpt><trkpt lat="43.2212317" lon="12.1650193"><ele>558.6666666666666</ele><time>2026-03-29T09:44:36.394Z</time></trkpt><trkpt lat="43.221263" lon="12.165112"><ele>555.3333333333334</ele><time>2026-03-29T09:44:38.395Z</time></trkpt><trkpt lat="43.2213648" lon="12.1652047"><ele>552.0</ele><time>2026-03-29T09:44:40.394Z</time></trkpt><trkpt lat="43.2214691" lon="12.165291"><ele>552.0</ele><time>2026-03-29T09:44:42.393Z</time></trkpt><trkpt lat="43.2214326" lon="12.1654343"><ele>552.0</ele><time>2026-03-29T09:44:44.394Z</time></trkpt><trkpt lat="43.2213596" lon="12.1655517"><ele>552.0</ele><time>2026-03-29T09:44:46.393Z</time></trkpt><trkpt lat="43.2212658" lon="12.1656525"><ele>552.0</ele><time>2026-03-29T09:44:48.393Z</time></trkpt><trkpt lat="43.2211591" lon="12.165688"><ele>549.6666666666666</ele><time>2026-03-29T09:44:50.394Z</time></trkpt><trkpt lat="43.2210795" lon="12.1657075"><ele>547.3333333333334</ele><time>2026-03-29T09:44:52.393Z</time></trkpt><trkpt lat="43.2210176" lon="12.1657893"><ele>545.0</ele><time>2026-03-29T09:44:55.394Z</time></trkpt><trkpt lat="43.2210266" lon="12.1658962"><ele>542.6666666666667</ele><time>2026-03-29T09:44:57.394Z</time></trkpt><trkpt lat="43.2210209" lon="12.1660622"><ele>540.3333333333334</ele><time>2026-03-29T09:44:59.396Z</time></trkpt><trkpt lat="43.2209828" lon="12.1661579"><ele>538.0</ele><time>2026-03-29T09:45:00.395Z</time></trkpt><trkpt lat="43.2209531" lon="12.1662488"><ele>538.0</ele><time>2026-03-29T09:45:01.393Z</time></trkpt><trkpt lat="43.2209367" lon="12.1663537"><ele>538.0</ele><time>2026-03-29T09:45:02.394Z</time></trkpt><trkpt lat="43.2209311" lon="12.1664441"><ele>538.0</ele><time>2026-03-29T09:45:03.394Z</time></trkpt><trkpt lat="43.2209419" lon="12.1666037"><ele>538.0</ele><time>2026-03-29T09:45:05.394Z</time></trkpt><trkpt lat="43.2209755" lon="12.166735"><ele>538.0</ele><time>2026-03-29T09:45:07.394Z</time></trkpt><trkpt lat="43.2210375" lon="12.1667808"><ele>538.0</ele><time>2026-03-29T09:45:08.394Z</time></trkpt><trkpt lat="43.2210794" lon="12.1668484"><ele>535.1999999999999</ele><time>2026-03-29T09:45:09.393Z</time></trkpt><trkpt lat="43.221101" lon="12.1669537"><ele>532.4</ele><time>2026-03-29T09:45:10.394Z</time></trkpt><trkpt lat="43.221128" lon="12.1671267"><ele>529.5999999999999</ele><time>2026-03-29T09:45:12.394Z</time></trkpt><trkpt lat="43.2211081" lon="12.1672149"><ele>526.8</ele><time>2026-03-29T09:45:13.394Z</time></trkpt><trkpt lat="43.2210382" lon="12.1673465"><ele>524.0</ele><time>2026-03-29T09:45:15.394Z</time></trkpt><trkpt lat="43.220975" lon="12.1674537"><ele>521.0</ele><time>2026-03-29T09:45:17.394Z</time></trkpt><trkpt lat="43.2210108" lon="12.167562"><ele>518.0</ele><time>2026-03-29T09:45:19.395Z</time></trkpt><trkpt lat="43.2210483" lon="12.1676796"><ele>515.0</ele><time>2026-03-29T09:45:21.395Z</time></trkpt><trkpt lat="43.2210528" lon="12.1678199"><ele>512.0</ele><time>2026-03-29T09:45:23.394Z</time></trkpt><trkpt lat="43.2209827" lon="12.1679303"><ele>509.0</ele><time>2026-03-29T09:45:25.394Z</time></trkpt><trkpt lat="43.2208957" lon="12.1680103"><ele>508.99999999999994</ele><time>2026-03-29T09:45:27.395Z</time></trkpt><trkpt lat="43.2208051" lon="12.1680517"><ele>509.0</ele><time>2026-03-29T09:45:29.394Z</time></trkpt><trkpt lat="43.2207453" lon="12.1680903"><ele>509.0</ele><time>2026-03-29T09:45:36.393Z</time></trkpt><trkpt lat="43.2206722" lon="12.1681177"><ele>509.0</ele><time>2026-03-29T09:45:39.394Z</time></trkpt><trkpt lat="43.2206079" lon="12.1681587"><ele>508.99999999999994</ele><time>2026-03-29T09:45:46.394Z</time></trkpt><trkpt lat="43.2205839" lon="12.1682543"><ele>509.0</ele><time>2026-03-29T09:45:48.394Z</time></trkpt><trkpt lat="43.2205947" lon="12.168404"><ele>504.66666666666663</ele><time>2026-03-29T09:45:50.394Z</time></trkpt><trkpt lat="43.2206208" lon="12.1685217"><ele>500.3333333333333</ele><time>2026-03-29T09:45:52.396Z</time></trkpt><trkpt lat="43.2206199" lon="12.1686443"><ele>496.0</ele><time>2026-03-29T09:45:54.396Z</time></trkpt><trkpt lat="43.2205796" lon="12.1687363"><ele>491.66666666666663</ele><time>2026-03-29T09:45:56.394Z</time></trkpt><trkpt lat="43.2204775" lon="12.1688322"><ele>487.3333333333333</ele><time>2026-03-29T09:45:58.395Z</time></trkpt><trkpt lat="43.2204144" lon="12.1688666"><ele>483.0</ele><time>2026-03-29T09:45:59.394Z</time></trkpt><trkpt lat="43.2203449" lon="12.1689135"><ele>483.0</ele><time>2026-03-29T09:46:00.395Z</time></trkpt><trkpt lat="43.2202791" lon="12.1689679"><ele>483.0</ele><time>2026-03-29T09:46:01.396Z</time></trkpt><trkpt lat="43.2202217" lon="12.1690047"><ele>483.0</ele><time>2026-03-29T09:46:02.396Z</time></trkpt><trkpt lat="43.2201191" lon="12.1690828"><ele>483.0</ele><time>2026-03-29T09:46:04.395Z</time></trkpt><trkpt lat="43.2200366" lon="12.1691704"><ele>483.0</ele><time>2026-03-29T09:46:06.394Z</time></trkpt><trkpt lat="43.2199913" lon="12.1692501"><ele>483.0</ele><time>2026-03-29T09:46:07.395Z</time></trkpt><trkpt lat="43.2199387" lon="12.1693225"><ele>480.79999999999995</ele><time>2026-03-29T09:46:08.394Z</time></trkpt><trkpt lat="43.2198431" lon="12.1694032"><ele>478.59999999999997</ele><time>2026-03-29T09:46:10.394Z</time></trkpt><trkpt lat="43.2197619" lon="12.169462"><ele>476.40000000000003</ele><time>2026-03-29T09:46:12.393Z</time></trkpt><trkpt lat="43.2196551" lon="12.169508"><ele>474.20000000000005</ele><time>2026-03-29T09:46:14.394Z</time></trkpt><trkpt lat="43.2195381" lon="12.1695258"><ele>472.0</ele><time>2026-03-29T09:46:16.395Z</time></trkpt><trkpt lat="43.2194317" lon="12.1695174"><ele>469.20000000000005</ele><time>2026-03-29T09:46:18.395Z</time></trkpt><trkpt lat="43.2193776" lon="12.1696209"><ele>466.40000000000003</ele><time>2026-03-29T09:46:20.395Z</time></trkpt><trkpt lat="43.2193289" lon="12.1697619"><ele>463.59999999999997</ele><time>2026-03-29T09:46:22.396Z</time></trkpt><trkpt lat="43.2192807" lon="12.1698194"><ele>460.79999999999995</ele><time>2026-03-29T09:46:23.394Z</time></trkpt><trkpt lat="43.2192248" lon="12.1698673"><ele>458.0</ele><time>2026-03-29T09:46:24.395Z</time></trkpt><trkpt lat="43.2191077" lon="12.1699488"><ele>457.49999999999994</ele><time>2026-03-29T09:46:26.396Z</time></trkpt><trkpt lat="43.2190581" lon="12.1700296"><ele>457.0</ele><time>2026-03-29T09:46:27.394Z</time></trkpt><trkpt lat="43.2190284" lon="12.170106"><ele>456.5</ele><time>2026-03-29T09:46:28.396Z</time></trkpt><trkpt lat="43.2190233" lon="12.1702073"><ele>456.0</ele><time>2026-03-29T09:46:30.396Z</time></trkpt><trkpt lat="43.2191055" lon="12.1702532"><ele>455.49999999999994</ele><time>2026-03-29T09:46:33.394Z</time></trkpt><trkpt lat="43.2192031" lon="12.1702234"><ele>455.0</ele><time>2026-03-29T09:46:35.394Z</time></trkpt><trkpt lat="43.219344" lon="12.1702341"><ele>454.99999999999994</ele><time>2026-03-29T09:46:37.395Z</time></trkpt><trkpt lat="43.2194298" lon="12.1702835"><ele>455.0</ele><time>2026-03-29T09:46:38.394Z</time></trkpt><trkpt lat="43.2195128" lon="12.1703355"><ele>455.0</ele><time>2026-03-29T09:46:39.394Z</time></trkpt><trkpt lat="43.2195998" lon="12.1703817"><ele>455.0</ele><time>2026-03-29T09:46:40.395Z</time></trkpt><trkpt lat="43.2196789" lon="12.1704144"><ele>454.99999999999994</ele><time>2026-03-29T09:46:41.394Z</time></trkpt><trkpt lat="43.2197579" lon="12.1704315"><ele>455.0</ele><time>2026-03-29T09:46:42.394Z</time></trkpt><trkpt lat="43.2198743" lon="12.1704175"><ele>455.8333333333333</ele><time>2026-03-29T09:46:44.394Z</time></trkpt><trkpt lat="43.2199407" lon="12.1703823"><ele>456.66666666666663</ele><time>2026-03-29T09:46:45.395Z</time></trkpt><trkpt lat="43.2200006" lon="12.1703421"><ele>457.5</ele><time>2026-03-29T09:46:46.394Z</time></trkpt><trkpt lat="43.2201233" lon="12.1703253"><ele>458.33333333333337</ele><time>2026-03-29T09:46:48.394Z</time></trkpt><trkpt lat="43.2202034" lon="12.1703205"><ele>459.1666666666667</ele><time>2026-03-29T09:46:49.395Z</time></trkpt><trkpt lat="43.220276" lon="12.1702906"><ele>460.0</ele><time>2026-03-29T09:46:50.394Z</time></trkpt><trkpt lat="43.2203536" lon="12.1702421"><ele>460.00000000000006</ele><time>2026-03-29T09:46:51.393Z</time></trkpt><trkpt lat="43.2204352" lon="12.1701984"><ele>460.0</ele><time>2026-03-29T09:46:52.394Z</time></trkpt><trkpt lat="43.2204916" lon="12.1701485"><ele>460.0</ele><time>2026-03-29T09:46:53.394Z</time></trkpt><trkpt lat="43.2205458" lon="12.1700546"><ele>460.0</ele><time>2026-03-29T09:46:54.394Z</time></trkpt><trkpt lat="43.2205876" lon="12.1699742"><ele>460.00000000000006</ele><time>2026-03-29T09:46:55.394Z</time></trkpt><trkpt lat="43.2206497" lon="12.1699219"><ele>460.0</ele><time>2026-03-29T09:46:56.395Z</time></trkpt><trkpt lat="43.22075" lon="12.1698812"><ele>457.83333333333337</ele><time>2026-03-29T09:46:58.393Z</time></trkpt><trkpt lat="43.220811" lon="12.1699043"><ele>455.6666666666667</ele><time>2026-03-29T09:46:59.394Z</time></trkpt><trkpt lat="43.2208937" lon="12.1699065"><ele>453.5</ele><time>2026-03-29T09:47:00.395Z</time></trkpt><trkpt lat="43.2209676" lon="12.1698828"><ele>451.33333333333337</ele><time>2026-03-29T09:47:01.395Z</time></trkpt><trkpt lat="43.221042" lon="12.1698465"><ele>449.1666666666667</ele><time>2026-03-29T09:47:02.393Z</time></trkpt><trkpt lat="43.2211258" lon="12.1697945"><ele>447.0</ele><time>2026-03-29T09:47:03.394Z</time></trkpt><trkpt lat="43.2211997" lon="12.1697429"><ele>448.3333333333333</ele><time>2026-03-29T09:47:04.396Z</time></trkpt><trkpt lat="43.2212811" lon="12.1696871"><ele>449.66666666666663</ele><time>2026-03-29T09:47:05.394Z</time></trkpt><trkpt lat="43.2213233" lon="12.1696134"><ele>451.0</ele><time>2026-03-29T09:47:06.396Z</time></trkpt><trkpt lat="43.2213656" lon="12.1695424"><ele>452.3333333333333</ele><time>2026-03-29T09:47:07.395Z</time></trkpt><trkpt lat="43.2214024" lon="12.1694616"><ele>453.66666666666663</ele><time>2026-03-29T09:47:08.395Z</time></trkpt><trkpt lat="43.2214522" lon="12.1693082"><ele>455.0</ele><time>2026-03-29T09:47:10.394Z</time></trkpt><trkpt lat="43.2214917" lon="12.1692143"><ele>454.99999999999994</ele><time>2026-03-29T09:47:11.394Z</time></trkpt><trkpt lat="43.2215346" lon="12.1691172"><ele>455.0</ele><time>2026-03-29T09:47:12.395Z</time></trkpt><trkpt lat="43.2215734" lon="12.1690416"><ele>455.0</ele><time>2026-03-29T09:47:13.395Z</time></trkpt><trkpt lat="43.2215953" lon="12.1689424"><ele>455.0</ele><time>2026-03-29T09:47:14.394Z</time></trkpt><trkpt lat="43.2216352" lon="12.1688694"><ele>454.99999999999994</ele><time>2026-03-29T09:47:15.394Z</time></trkpt><trkpt lat="43.2216871" lon="12.1688031"><ele>455.0</ele><time>2026-03-29T09:47:16.395Z</time></trkpt><trkpt lat="43.2217471" lon="12.1687117"><ele>458.16666666666663</ele><time>2026-03-29T09:47:18.394Z</time></trkpt><trkpt lat="43.2217909" lon="12.1686477"><ele>461.3333333333333</ele><time>2026-03-29T09:47:20.395Z</time></trkpt><trkpt lat="43.2218797" lon="12.1685964"><ele>464.5</ele><time>2026-03-29T09:47:22.393Z</time></trkpt><trkpt lat="43.2219482" lon="12.1686309"><ele>467.66666666666663</ele><time>2026-03-29T09:47:24.395Z</time></trkpt><trkpt lat="43.2219813" lon="12.1687565"><ele>470.8333333333333</ele><time>2026-03-29T09:47:26.395Z</time></trkpt><trkpt lat="43.2220524" lon="12.1688775"><ele>474.0</ele><time>2026-03-29T09:47:28.395Z</time></trkpt><trkpt lat="43.22211" lon="12.1690058"><ele>470.8333333333333</ele><time>2026-03-29T09:47:30.394Z</time></trkpt><trkpt lat="43.2221517" lon="12.1691166"><ele>467.66666666666663</ele><time>2026-03-29T09:47:32.394Z</time></trkpt><trkpt lat="43.2221261" lon="12.1692577"><ele>464.5</ele><time>2026-03-29T09:47:34.394Z</time></trkpt><trkpt lat="43.2221814" lon="12.1693082"><ele>461.3333333333333</ele><time>2026-03-29T09:47:37.396Z</time></trkpt><trkpt lat="43.2222603" lon="12.1693353"><ele>458.16666666666663</ele><time>2026-03-29T09:47:40.395Z</time></trkpt><trkpt lat="43.2222923" lon="12.1694101"><ele>455.0</ele><time>2026-03-29T09:47:42.394Z</time></trkpt><trkpt lat="43.2222706" lon="12.1695087"><ele>455.0</ele><time>2026-03-29T09:47:44.396Z</time></trkpt><trkpt lat="43.2222539" lon="12.1696664"><ele>455.0</ele><time>2026-03-29T09:47:46.395Z</time></trkpt><trkpt lat="43.2222328" lon="12.1698068"><ele>455.0</ele><time>2026-03-29T09:47:47.393Z</time></trkpt><trkpt lat="43.2221996" lon="12.1699049"><ele>455.0</ele><time>2026-03-29T09:47:48.394Z</time></trkpt><trkpt lat="43.2221734" lon="12.1700193"><ele>455.0</ele><time>2026-03-29T09:47:49.395Z</time></trkpt><trkpt lat="43.2221652" lon="12.170108"><ele>452.3333333333333</ele><time>2026-03-29T09:47:50.394Z</time></trkpt><trkpt lat="43.2221774" lon="12.1702085"><ele>449.66666666666663</ele><time>2026-03-29T09:47:51.395Z</time></trkpt><trkpt lat="43.2221835" lon="12.1703038"><ele>447.0</ele><time>2026-03-29T09:47:52.395Z</time></trkpt><trkpt lat="43.2221996" lon="12.1703911"><ele>444.33333333333337</ele><time>2026-03-29T09:47:53.395Z</time></trkpt><trkpt lat="43.2222506" lon="12.170487"><ele>441.6666666666667</ele><time>2026-03-29T09:47:55.394Z</time></trkpt><trkpt lat="43.2223161" lon="12.1704977"><ele>439.0</ele><time>2026-03-29T09:47:56.394Z</time></trkpt><trkpt lat="43.2223709" lon="12.1706217"><ele>437.00000000000006</ele><time>2026-03-29T09:47:58.394Z</time></trkpt><trkpt lat="43.2224126" lon="12.1707874"><ele>435.0</ele><time>2026-03-29T09:48:00.396Z</time></trkpt><trkpt lat="43.2224503" lon="12.1708657"><ele>433.0</ele><time>2026-03-29T09:48:01.395Z</time></trkpt><trkpt lat="43.2225112" lon="12.1709346"><ele>431.0</ele><time>2026-03-29T09:48:02.394Z</time></trkpt><trkpt lat="43.2225635" lon="12.1709872"><ele>429.00000000000006</ele><time>2026-03-29T09:48:03.396Z</time></trkpt><trkpt lat="43.2225845" lon="12.1710974"><ele>427.0</ele><time>2026-03-29T09:48:05.395Z</time></trkpt><trkpt lat="43.2226255" lon="12.1713064"><ele>427.0</ele><time>2026-03-29T09:48:07.395Z</time></trkpt><trkpt lat="43.2226659" lon="12.1714369"><ele>427.00000000000006</ele><time>2026-03-29T09:48:08.394Z</time></trkpt><trkpt lat="43.2226885" lon="12.1715566"><ele>427.00000000000006</ele><time>2026-03-29T09:48:09.395Z</time></trkpt><trkpt lat="43.2226362" lon="12.1716624"><ele>427.0</ele><time>2026-03-29T09:48:10.395Z</time></trkpt><trkpt lat="43.2226042" lon="12.1717778"><ele>427.0</ele><time>2026-03-29T09:48:11.394Z</time></trkpt><trkpt lat="43.2225548" lon="12.1719122"><ele>426.6</ele><time>2026-03-29T09:48:12.394Z</time></trkpt><trkpt lat="43.2225046" lon="12.1720535"><ele>426.20000000000005</ele><time>2026-03-29T09:48:13.395Z</time></trkpt><trkpt lat="43.2224706" lon="12.1722065"><ele>425.8</ele><time>2026-03-29T09:48:14.395Z</time></trkpt><trkpt lat="43.2224382" lon="12.1723511"><ele>425.4</ele><time>2026-03-29T09:48:15.395Z</time></trkpt><trkpt lat="43.2224205" lon="12.1724736"><ele>425.0</ele><time>2026-03-29T09:48:16.394Z</time></trkpt><trkpt lat="43.2223968" lon="12.1726224"><ele>425.0</ele><time>2026-03-29T09:48:17.396Z</time></trkpt><trkpt lat="43.2223562" lon="12.1727711"><ele>425.0</ele><time>2026-03-29T09:48:18.395Z</time></trkpt><trkpt lat="43.2223164" lon="12.1728696"><ele>425.0</ele><time>2026-03-29T09:48:19.394Z</time></trkpt><trkpt lat="43.2222655" lon="12.1729889"><ele>425.0</ele><time>2026-03-29T09:48:20.395Z</time></trkpt><trkpt lat="43.2222263" lon="12.1731043"><ele>425.0</ele><time>2026-03-29T09:48:21.394Z</time></trkpt><trkpt lat="43.2221543" lon="12.1731829"><ele>422.3333333333333</ele><time>2026-03-29T09:48:22.395Z</time></trkpt><trkpt lat="43.2220623" lon="12.1731946"><ele>419.66666666666663</ele><time>2026-03-29T09:48:23.394Z</time></trkpt><trkpt lat="43.2219808" lon="12.1732255"><ele>417.0</ele><time>2026-03-29T09:48:24.396Z</time></trkpt><trkpt lat="43.2218967" lon="12.173265"><ele>414.33333333333337</ele><time>2026-03-29T09:48:25.396Z</time></trkpt><trkpt lat="43.2218702" lon="12.1733483"><ele>411.6666666666667</ele><time>2026-03-29T09:48:26.394Z</time></trkpt><trkpt lat="43.2218428" lon="12.1734445"><ele>409.0</ele><time>2026-03-29T09:48:27.394Z</time></trkpt><trkpt lat="43.2218294" lon="12.1735645"><ele>409.0</ele><time>2026-03-29T09:48:28.395Z</time></trkpt><trkpt lat="43.2218353" lon="12.1737041"><ele>409.0</ele><time>2026-03-29T09:48:29.396Z</time></trkpt><trkpt lat="43.2218552" lon="12.1738655"><ele>409.0</ele><time>2026-03-29T09:48:30.394Z</time></trkpt><trkpt lat="43.2218873" lon="12.1740197"><ele>409.0</ele><time>2026-03-29T09:48:31.393Z</time></trkpt><trkpt lat="43.2219158" lon="12.1741929"><ele>408.0</ele><time>2026-03-29T09:48:32.394Z</time></trkpt><trkpt lat="43.2219355" lon="12.1743347"><ele>407.0</ele><time>2026-03-29T09:48:33.394Z</time></trkpt><trkpt lat="43.2219929" lon="12.1744705"><ele>406.0</ele><time>2026-03-29T09:48:34.395Z</time></trkpt><trkpt lat="43.2220417" lon="12.1745763"><ele>405.0</ele><time>2026-03-29T09:48:35.395Z</time></trkpt><trkpt lat="43.2221032" lon="12.1746911"><ele>404.0</ele><time>2026-03-29T09:48:36.394Z</time></trkpt><trkpt lat="43.2221741" lon="12.1747839"><ele>404.0</ele><time>2026-03-29T09:48:37.395Z</time></trkpt><trkpt lat="43.2222445" lon="12.1748473"><ele>404.0</ele><time>2026-03-29T09:48:38.394Z</time></trkpt><trkpt lat="43.2223629" lon="12.1748607"><ele>404.0</ele><time>2026-03-29T09:48:39.396Z</time></trkpt><trkpt lat="43.2224674" lon="12.1748629"><ele>404.0</ele><time>2026-03-29T09:48:40.394Z</time></trkpt><trkpt lat="43.2225682" lon="12.1748599"><ele>404.0</ele><time>2026-03-29T09:48:41.395Z</time></trkpt><trkpt lat="43.2226977" lon="12.1748681"><ele>404.75</ele><time>2026-03-29T09:48:42.395Z</time></trkpt><trkpt lat="43.2228159" lon="12.1748854"><ele>405.5</ele><time>2026-03-29T09:48:43.395Z</time></trkpt><trkpt lat="43.2229339" lon="12.174921"><ele>406.25</ele><time>2026-03-29T09:48:44.395Z</time></trkpt><trkpt lat="43.223045" lon="12.1749394"><ele>407.0</ele><time>2026-03-29T09:48:45.395Z</time></trkpt><trkpt lat="43.2231441" lon="12.1749784"><ele>408.8333333333333</ele><time>2026-03-29T09:48:46.395Z</time></trkpt><trkpt lat="43.223233" lon="12.1749914"><ele>410.66666666666663</ele><time>2026-03-29T09:48:47.394Z</time></trkpt><trkpt lat="43.2233005" lon="12.1750326"><ele>412.5</ele><time>2026-03-29T09:48:48.395Z</time></trkpt><trkpt lat="43.2233517" lon="12.1751899"><ele>414.33333333333337</ele><time>2026-03-29T09:48:50.393Z</time></trkpt><trkpt lat="43.2233282" lon="12.1752808"><ele>416.1666666666667</ele><time>2026-03-29T09:48:51.395Z</time></trkpt><trkpt lat="43.2232918" lon="12.1753567"><ele>418.0</ele><time>2026-03-29T09:48:52.395Z</time></trkpt><trkpt lat="43.2231945" lon="12.1753953"><ele>415.79999999999995</ele><time>2026-03-29T09:48:53.395Z</time></trkpt><trkpt lat="43.2230995" lon="12.1754171"><ele>413.6</ele><time>2026-03-29T09:48:54.395Z</time></trkpt><trkpt lat="43.2230054" lon="12.1754962"><ele>411.4</ele><time>2026-03-29T09:48:55.395Z</time></trkpt><trkpt lat="43.2229023" lon="12.1755662"><ele>409.20000000000005</ele><time>2026-03-29T09:48:56.395Z</time></trkpt><trkpt lat="43.2228035" lon="12.1756479"><ele>407.0</ele><time>2026-03-29T09:48:57.393Z</time></trkpt><trkpt lat="43.2227088" lon="12.1757046"><ele>405.0</ele><time>2026-03-29T09:48:58.393Z</time></trkpt><trkpt lat="43.2226052" lon="12.1757627"><ele>403.0</ele><time>2026-03-29T09:48:59.395Z</time></trkpt><trkpt lat="43.2225009" lon="12.175827"><ele>401.0</ele><time>2026-03-29T09:49:00.395Z</time></trkpt><trkpt lat="43.2224254" lon="12.1759331"><ele>399.0</ele><time>2026-03-29T09:49:01.395Z</time></trkpt><trkpt lat="43.2223299" lon="12.1760784"><ele>396.6</ele><time>2026-03-29T09:49:02.394Z</time></trkpt><trkpt lat="43.2222434" lon="12.1761931"><ele>394.2</ele><time>2026-03-29T09:49:03.394Z</time></trkpt><trkpt lat="43.2221603" lon="12.1763309"><ele>391.8</ele><time>2026-03-29T09:49:04.395Z</time></trkpt><trkpt lat="43.2220905" lon="12.176443"><ele>389.40000000000003</ele><time>2026-03-29T09:49:05.393Z</time></trkpt><trkpt lat="43.2220276" lon="12.1765228"><ele>387.0</ele><time>2026-03-29T09:49:06.396Z</time></trkpt><trkpt lat="43.2219497" lon="12.1765661"><ele>387.0</ele><time>2026-03-29T09:49:07.394Z</time></trkpt><trkpt lat="43.2218533" lon="12.176571"><ele>387.0</ele><time>2026-03-29T09:49:08.395Z</time></trkpt><trkpt lat="43.2217579" lon="12.1765705"><ele>387.0</ele><time>2026-03-29T09:49:09.395Z</time></trkpt><trkpt lat="43.2216732" lon="12.1765528"><ele>387.0</ele><time>2026-03-29T09:49:10.395Z</time></trkpt><trkpt lat="43.2215875" lon="12.176538"><ele>387.0</ele><time>2026-03-29T09:49:11.395Z</time></trkpt><trkpt lat="43.2214947" lon="12.1765159"><ele>385.0</ele><time>2026-03-29T09:49:12.395Z</time></trkpt><trkpt lat="43.221401" lon="12.1764731"><ele>383.0</ele><time>2026-03-29T09:49:13.393Z</time></trkpt><trkpt lat="43.2213044" lon="12.1764336"><ele>381.0</ele><time>2026-03-29T09:49:14.395Z</time></trkpt><trkpt lat="43.2212029" lon="12.1763968"><ele>379.0</ele><time>2026-03-29T09:49:15.395Z</time></trkpt><trkpt lat="43.221096" lon="12.1763456"><ele>377.0</ele><time>2026-03-29T09:49:16.395Z</time></trkpt><trkpt lat="43.2209891" lon="12.1763103"><ele>377.0</ele><time>2026-03-29T09:49:17.394Z</time></trkpt><trkpt lat="43.2208999" lon="12.1762817"><ele>377.0</ele><time>2026-03-29T09:49:18.395Z</time></trkpt><trkpt lat="43.220819" lon="12.1762752"><ele>377.0</ele><time>2026-03-29T09:49:19.395Z</time></trkpt><trkpt lat="43.2207408" lon="12.1762807"><ele>377.0</ele><time>2026-03-29T09:49:20.394Z</time></trkpt><trkpt lat="43.2206731" lon="12.1763456"><ele>377.0</ele><time>2026-03-29T09:49:21.394Z</time></trkpt><trkpt lat="43.2206208" lon="12.1764612"><ele>377.0</ele><time>2026-03-29T09:49:22.394Z</time></trkpt><trkpt lat="43.2205364" lon="12.1765315"><ele>373.0</ele><time>2026-03-29T09:49:23.394Z</time></trkpt><trkpt lat="43.2204316" lon="12.176598"><ele>369.0</ele><time>2026-03-29T09:49:24.394Z</time></trkpt><trkpt lat="43.2203038" lon="12.1766539"><ele>365.0</ele><time>2026-03-29T09:49:25.394Z</time></trkpt><trkpt lat="43.2201619" lon="12.176725"><ele>361.0</ele><time>2026-03-29T09:49:26.395Z</time></trkpt><trkpt lat="43.2200209" lon="12.176788"><ele>361.0</ele><time>2026-03-29T09:49:27.395Z</time></trkpt><trkpt lat="43.219869" lon="12.1768612"><ele>361.0</ele><time>2026-03-29T09:49:28.395Z</time></trkpt><trkpt lat="43.2197208" lon="12.1769305"><ele>361.0</ele><time>2026-03-29T09:49:29.396Z</time></trkpt><trkpt lat="43.219572" lon="12.1770091"><ele>358.5</ele><time>2026-03-29T09:49:30.394Z</time></trkpt><trkpt lat="43.2194302" lon="12.1770861"><ele>356.0</ele><time>2026-03-29T09:49:31.395Z</time></trkpt><trkpt lat="43.2192986" lon="12.1771805"><ele>353.5</ele><time>2026-03-29T09:49:32.395Z</time></trkpt><trkpt lat="43.2191792" lon="12.1772771"><ele>351.0</ele><time>2026-03-29T09:49:33.395Z</time></trkpt><trkpt lat="43.2190591" lon="12.1773814"><ele>348.25</ele><time>2026-03-29T09:49:34.394Z</time></trkpt><trkpt lat="43.2189423" lon="12.1775124"><ele>345.5</ele><time>2026-03-29T09:49:35.395Z</time></trkpt><trkpt lat="43.2188266" lon="12.1776262"><ele>342.75</ele><time>2026-03-29T09:49:36.395Z</time></trkpt><trkpt lat="43.2187187" lon="12.1777198"><ele>340.0</ele><time>2026-03-29T09:49:37.395Z</time></trkpt><trkpt lat="43.2186182" lon="12.1778174"><ele>340.0</ele><time>2026-03-29T09:49:38.394Z</time></trkpt><trkpt lat="43.2185334" lon="12.1779247"><ele>340.0</ele><time>2026-03-29T09:49:39.395Z</time></trkpt><trkpt lat="43.2184299" lon="12.178034"><ele>340.0</ele><time>2026-03-29T09:49:40.396Z</time></trkpt><trkpt lat="43.218314" lon="12.1781349"><ele>340.0</ele><time>2026-03-29T09:49:41.395Z</time></trkpt><trkpt lat="43.2181928" lon="12.1782277"><ele>339.2</ele><time>2026-03-29T09:49:42.394Z</time></trkpt><trkpt lat="43.2180743" lon="12.1783113"><ele>338.4</ele><time>2026-03-29T09:49:43.394Z</time></trkpt><trkpt lat="43.217972" lon="12.1783637"><ele>337.6</ele><time>2026-03-29T09:49:44.395Z</time></trkpt><trkpt lat="43.2178719" lon="12.1784212"><ele>336.8</ele><time>2026-03-29T09:49:45.395Z</time></trkpt><trkpt lat="43.2177826" lon="12.1784689"><ele>336.0</ele><time>2026-03-29T09:49:46.394Z</time></trkpt><trkpt lat="43.2177078" lon="12.1785091"><ele>336.0</ele><time>2026-03-29T09:49:47.394Z</time></trkpt><trkpt lat="43.2176441" lon="12.178529"><ele>336.0</ele><time>2026-03-29T09:49:48.396Z</time></trkpt><trkpt lat="43.2175805" lon="12.178536"><ele>336.0</ele><time>2026-03-29T09:49:49.394Z</time></trkpt><trkpt lat="43.2175173" lon="12.1785293"><ele>336.0</ele><time>2026-03-29T09:49:50.393Z</time></trkpt><trkpt lat="43.2173986" lon="12.1785809"><ele>336.0</ele><time>2026-03-29T09:49:52.396Z</time></trkpt><trkpt lat="43.2173332" lon="12.1786254"><ele>336.0</ele><time>2026-03-29T09:49:53.395Z</time></trkpt><trkpt lat="43.2172609" lon="12.17871"><ele>334.5</ele><time>2026-03-29T09:49:54.394Z</time></trkpt><trkpt lat="43.2171815" lon="12.1787924"><ele>333.0</ele><time>2026-03-29T09:49:55.395Z</time></trkpt><trkpt lat="43.2170965" lon="12.1788686"><ele>331.5</ele><time>2026-03-29T09:49:56.395Z</time></trkpt><trkpt lat="43.2169941" lon="12.1789519"><ele>330.0</ele><time>2026-03-29T09:49:57.395Z</time></trkpt><trkpt lat="43.2168825" lon="12.179046"><ele>329.6666666666667</ele><time>2026-03-29T09:49:58.394Z</time></trkpt><trkpt lat="43.216756" lon="12.1791519"><ele>329.33333333333337</ele><time>2026-03-29T09:49:59.396Z</time></trkpt><trkpt lat="43.216623" lon="12.1792556"><ele>329.0</ele><time>2026-03-29T09:50:00.393Z</time></trkpt><trkpt lat="43.2164931" lon="12.1793629"><ele>326.33333333333337</ele><time>2026-03-29T09:50:01.396Z</time></trkpt><trkpt lat="43.2163613" lon="12.1794707"><ele>323.6666666666667</ele><time>2026-03-29T09:50:02.395Z</time></trkpt><trkpt lat="43.2162293" lon="12.179578"><ele>321.0</ele><time>2026-03-29T09:50:03.394Z</time></trkpt><trkpt lat="43.2161081" lon="12.1796896"><ele>321.0</ele><time>2026-03-29T09:50:04.395Z</time></trkpt><trkpt lat="43.2160099" lon="12.1797849"><ele>321.0</ele><time>2026-03-29T09:50:05.395Z</time></trkpt><trkpt lat="43.2159387" lon="12.1798785"><ele>321.0</ele><time>2026-03-29T09:50:06.395Z</time></trkpt><trkpt lat="43.2158828" lon="12.1799862"><ele>321.0</ele><time>2026-03-29T09:50:07.396Z</time></trkpt><trkpt lat="43.2158551" lon="12.1801016"><ele>321.0</ele><time>2026-03-29T09:50:08.394Z</time></trkpt><trkpt lat="43.2158603" lon="12.1802192"><ele>320.6</ele><time>2026-03-29T09:50:09.395Z</time></trkpt><trkpt lat="43.2158875" lon="12.1803215"><ele>320.20000000000005</ele><time>2026-03-29T09:50:10.393Z</time></trkpt><trkpt lat="43.2159373" lon="12.1804252"><ele>319.79999999999995</ele><time>2026-03-29T09:50:11.395Z</time></trkpt><trkpt lat="43.2160096" lon="12.1805371"><ele>319.4</ele><time>2026-03-29T09:50:12.396Z</time></trkpt><trkpt lat="43.2160925" lon="12.1806511"><ele>319.0</ele><time>2026-03-29T09:50:13.396Z</time></trkpt><trkpt lat="43.2161889" lon="12.180771"><ele>318.75</ele><time>2026-03-29T09:50:14.394Z</time></trkpt><trkpt lat="43.2162814" lon="12.1808799"><ele>318.5</ele><time>2026-03-29T09:50:15.395Z</time></trkpt><trkpt lat="43.2163866" lon="12.1809658"><ele>318.25</ele><time>2026-03-29T09:50:16.394Z</time></trkpt><trkpt lat="43.2164854" lon="12.1810581"><ele>318.0</ele><time>2026-03-29T09:50:17.394Z</time></trkpt><trkpt lat="43.2165826" lon="12.1811747"><ele>318.3333333333333</ele><time>2026-03-29T09:50:18.395Z</time></trkpt><trkpt lat="43.2166837" lon="12.1813253"><ele>318.66666666666663</ele><time>2026-03-29T09:50:19.394Z</time></trkpt><trkpt lat="43.2168069" lon="12.1814871"><ele>319.0</ele><time>2026-03-29T09:50:20.395Z</time></trkpt><trkpt lat="43.2169181" lon="12.1816444"><ele>319.0</ele><time>2026-03-29T09:50:21.394Z</time></trkpt><trkpt lat="43.2170201" lon="12.1817977"><ele>319.0</ele><time>2026-03-29T09:50:22.395Z</time></trkpt><trkpt lat="43.2171269" lon="12.1819424"><ele>319.0</ele><time>2026-03-29T09:50:23.394Z</time></trkpt><trkpt lat="43.2172287" lon="12.1820955"><ele>320.3333333333333</ele><time>2026-03-29T09:50:24.395Z</time></trkpt><trkpt lat="43.2173306" lon="12.1822501"><ele>321.6666666666667</ele><time>2026-03-29T09:50:25.395Z</time></trkpt><trkpt lat="43.2174384" lon="12.1824067"><ele>323.0</ele><time>2026-03-29T09:50:26.395Z</time></trkpt><trkpt lat="43.2175525" lon="12.1825715"><ele>323.0</ele><time>2026-03-29T09:50:27.395Z</time></trkpt><trkpt lat="43.2176512" lon="12.1827276"><ele>323.0</ele><time>2026-03-29T09:50:28.394Z</time></trkpt><trkpt lat="43.2177551" lon="12.182879"><ele>323.0</ele><time>2026-03-29T09:50:29.395Z</time></trkpt><trkpt lat="43.217856" lon="12.1830309"><ele>323.25</ele><time>2026-03-29T09:50:30.395Z</time></trkpt><trkpt lat="43.2179602" lon="12.1831886"><ele>323.5</ele><time>2026-03-29T09:50:31.395Z</time></trkpt><trkpt lat="43.2180549" lon="12.1833406"><ele>323.75</ele><time>2026-03-29T09:50:32.396Z</time></trkpt><trkpt lat="43.2181522" lon="12.1834884"><ele>324.0</ele><time>2026-03-29T09:50:33.394Z</time></trkpt><trkpt lat="43.2182441" lon="12.1836291"><ele>324.25</ele><time>2026-03-29T09:50:34.394Z</time></trkpt><trkpt lat="43.2183329" lon="12.1837872"><ele>324.5</ele><time>2026-03-29T09:50:35.396Z</time></trkpt><trkpt lat="43.2184355" lon="12.1839357"><ele>324.75</ele><time>2026-03-29T09:50:36.396Z</time></trkpt><trkpt lat="43.2185264" lon="12.1840849"><ele>325.0</ele><time>2026-03-29T09:50:37.394Z</time></trkpt><trkpt lat="43.2186306" lon="12.1842365"><ele>325.0</ele><time>2026-03-29T09:50:38.395Z</time></trkpt><trkpt lat="43.2187404" lon="12.184394"><ele>325.0</ele><time>2026-03-29T09:50:39.395Z</time></trkpt><trkpt lat="43.2188398" lon="12.1845355"><ele>325.0</ele><time>2026-03-29T09:50:40.395Z</time></trkpt><trkpt lat="43.2189384" lon="12.1846694"><ele>325.0</ele><time>2026-03-29T09:50:41.395Z</time></trkpt><trkpt lat="43.2190419" lon="12.1847901"><ele>325.75</ele><time>2026-03-29T09:50:42.394Z</time></trkpt><trkpt lat="43.2191415" lon="12.1849204"><ele>326.5</ele><time>2026-03-29T09:50:43.395Z</time></trkpt><trkpt lat="43.2192466" lon="12.1850137"><ele>327.25</ele><time>2026-03-29T09:50:44.395Z</time></trkpt><trkpt lat="43.2193681" lon="12.1851395"><ele>328.0</ele><time>2026-03-29T09:50:45.396Z</time></trkpt><trkpt lat="43.2194839" lon="12.1852524"><ele>328.0</ele><time>2026-03-29T09:50:46.395Z</time></trkpt><trkpt lat="43.2196082" lon="12.185376"><ele>328.0</ele><time>2026-03-29T09:50:47.395Z</time></trkpt><trkpt lat="43.2197269" lon="12.1855015"><ele>328.0</ele><time>2026-03-29T09:50:48.396Z</time></trkpt><trkpt lat="43.2198508" lon="12.1856281"><ele>325.3333333333333</ele><time>2026-03-29T09:50:49.396Z</time></trkpt><trkpt lat="43.2199888" lon="12.1857638"><ele>322.6666666666667</ele><time>2026-03-29T09:50:50.396Z</time></trkpt><trkpt lat="43.2201167" lon="12.1858887"><ele>320.0</ele><time>2026-03-29T09:50:51.395Z</time></trkpt><trkpt lat="43.2202512" lon="12.1860012"><ele>320.0</ele><time>2026-03-29T09:50:52.394Z</time></trkpt><trkpt lat="43.2203626" lon="12.1860979"><ele>320.0</ele><time>2026-03-29T09:50:53.395Z</time></trkpt><trkpt lat="43.2204699" lon="12.1861945"><ele>320.0</ele><time>2026-03-29T09:50:54.394Z</time></trkpt><trkpt lat="43.2205405" lon="12.1862721"><ele>320.0</ele><time>2026-03-29T09:50:55.396Z</time></trkpt><trkpt lat="43.2206301" lon="12.1863501"><ele>320.5</ele><time>2026-03-29T09:50:56.395Z</time></trkpt><trkpt lat="43.2207019" lon="12.1864152"><ele>321.0</ele><time>2026-03-29T09:50:57.396Z</time></trkpt><trkpt lat="43.2207747" lon="12.1864986"><ele>321.5</ele><time>2026-03-29T09:50:58.395Z</time></trkpt><trkpt lat="43.2208236" lon="12.1865746"><ele>322.0</ele><time>2026-03-29T09:50:59.396Z</time></trkpt><trkpt lat="43.2208715" lon="12.1866354"><ele>322.5</ele><time>2026-03-29T09:51:00.394Z</time></trkpt><trkpt lat="43.2209151" lon="12.1867509"><ele>323.0</ele><time>2026-03-29T09:51:02.396Z</time></trkpt><trkpt lat="43.2209038" lon="12.1869172"><ele>323.25</ele><time>2026-03-29T09:51:04.394Z</time></trkpt><trkpt lat="43.2208911" lon="12.1870669"><ele>323.5</ele><time>2026-03-29T09:51:05.395Z</time></trkpt><trkpt lat="43.2208845" lon="12.1872171"><ele>323.75</ele><time>2026-03-29T09:51:06.394Z</time></trkpt><trkpt lat="43.2208697" lon="12.1873939"><ele>324.0</ele><time>2026-03-29T09:51:07.395Z</time></trkpt><trkpt lat="43.2208589" lon="12.1875632"><ele>323.0</ele><time>2026-03-29T09:51:08.394Z</time></trkpt><trkpt lat="43.2208469" lon="12.1877317"><ele>322.0</ele><time>2026-03-29T09:51:09.394Z</time></trkpt><trkpt lat="43.2208315" lon="12.1878978"><ele>321.0</ele><time>2026-03-29T09:51:10.395Z</time></trkpt><trkpt lat="43.2208085" lon="12.1880581"><ele>320.0</ele><time>2026-03-29T09:51:11.394Z</time></trkpt><trkpt lat="43.2207873" lon="12.1882228"><ele>319.0</ele><time>2026-03-29T09:51:12.395Z</time></trkpt><trkpt lat="43.2207549" lon="12.1884034"><ele>318.0</ele><time>2026-03-29T09:51:13.396Z</time></trkpt><trkpt lat="43.2207174" lon="12.1885645"><ele>317.0</ele><time>2026-03-29T09:51:14.394Z</time></trkpt><trkpt lat="43.2206689" lon="12.188709"><ele>316.0</ele><time>2026-03-29T09:51:15.395Z</time></trkpt><trkpt lat="43.2206208" lon="12.1888632"><ele>316.25</ele><time>2026-03-29T09:51:16.394Z</time></trkpt><trkpt lat="43.2205656" lon="12.189013"><ele>316.5</ele><time>2026-03-29T09:51:17.396Z</time></trkpt><trkpt lat="43.2204749" lon="12.1891431"><ele>316.75</ele><time>2026-03-29T09:51:18.395Z</time></trkpt><trkpt lat="43.220383" lon="12.189279"><ele>317.0</ele><time>2026-03-29T09:51:19.395Z</time></trkpt><trkpt lat="43.220292" lon="12.1894231"><ele>317.0</ele><time>2026-03-29T09:51:20.395Z</time></trkpt><trkpt lat="43.2201914" lon="12.1895759"><ele>317.0</ele><time>2026-03-29T09:51:21.396Z</time></trkpt><trkpt lat="43.2200914" lon="12.1897269"><ele>317.0</ele><time>2026-03-29T09:51:22.395Z</time></trkpt><trkpt lat="43.2199913" lon="12.1898729"><ele>317.0</ele><time>2026-03-29T09:51:23.394Z</time></trkpt><trkpt lat="43.2198909" lon="12.1900281"><ele>316.5</ele><time>2026-03-29T09:51:24.396Z</time></trkpt><trkpt lat="43.2198045" lon="12.1901717"><ele>316.0</ele><time>2026-03-29T09:51:25.396Z</time></trkpt><trkpt lat="43.2197198" lon="12.1903127"><ele>315.5</ele><time>2026-03-29T09:51:26.396Z</time></trkpt><trkpt lat="43.219633" lon="12.1904553"><ele>315.0</ele><time>2026-03-29T09:51:27.395Z</time></trkpt><trkpt lat="43.2195516" lon="12.1905955"><ele>315.25</ele><time>2026-03-29T09:51:28.396Z</time></trkpt><trkpt lat="43.2194634" lon="12.1907331"><ele>315.5</ele><time>2026-03-29T09:51:29.395Z</time></trkpt><trkpt lat="43.2193838" lon="12.1908559"><ele>315.75</ele><time>2026-03-29T09:51:30.395Z</time></trkpt><trkpt lat="43.2193168" lon="12.1909707"><ele>316.0</ele><time>2026-03-29T09:51:31.395Z</time></trkpt><trkpt lat="43.2192618" lon="12.1910714"><ele>316.0</ele><time>2026-03-29T09:51:32.395Z</time></trkpt><trkpt lat="43.219221" lon="12.1911589"><ele>316.0</ele><time>2026-03-29T09:51:33.395Z</time></trkpt><trkpt lat="43.2191791" lon="12.1912328"><ele>316.0</ele><time>2026-03-29T09:51:34.395Z</time></trkpt><trkpt lat="43.2191095" lon="12.1913655"><ele>316.0</ele><time>2026-03-29T09:51:36.394Z</time></trkpt><trkpt lat="43.2189835" lon="12.191471"><ele>316.0</ele><time>2026-03-29T09:51:38.395Z</time></trkpt><trkpt lat="43.2188841" lon="12.1915189"><ele>315.2</ele><time>2026-03-29T09:51:39.395Z</time></trkpt><trkpt lat="43.2187825" lon="12.191575"><ele>314.40000000000003</ele><time>2026-03-29T09:51:40.396Z</time></trkpt><trkpt lat="43.2186884" lon="12.1916047"><ele>313.6</ele><time>2026-03-29T09:51:41.397Z</time></trkpt><trkpt lat="43.2185956" lon="12.1916344"><ele>312.8</ele><time>2026-03-29T09:51:42.394Z</time></trkpt><trkpt lat="43.2185055" lon="12.1916461"><ele>312.0</ele><time>2026-03-29T09:51:43.394Z</time></trkpt><trkpt lat="43.2184093" lon="12.1916648"><ele>312.0</ele><time>2026-03-29T09:51:44.396Z</time></trkpt><trkpt lat="43.218293" lon="12.1916823"><ele>312.0</ele><time>2026-03-29T09:51:45.394Z</time></trkpt><trkpt lat="43.2181766" lon="12.1916931"><ele>312.0</ele><time>2026-03-29T09:51:46.396Z</time></trkpt><trkpt lat="43.2180557" lon="12.1916984"><ele>312.0</ele><time>2026-03-29T09:51:47.394Z</time></trkpt><trkpt lat="43.2179313" lon="12.1917125"><ele>312.0</ele><time>2026-03-29T09:51:48.395Z</time></trkpt><trkpt lat="43.2178024" lon="12.1917271"><ele>312.0</ele><time>2026-03-29T09:51:49.395Z</time></trkpt><trkpt lat="43.2176736" lon="12.1917378"><ele>312.0</ele><time>2026-03-29T09:51:50.395Z</time></trkpt><trkpt lat="43.217545" lon="12.1917449"><ele>312.0</ele><time>2026-03-29T09:51:51.395Z</time></trkpt><trkpt lat="43.2174233" lon="12.1917552"><ele>312.25</ele><time>2026-03-29T09:51:52.396Z</time></trkpt><trkpt lat="43.2173049" lon="12.1917693"><ele>312.5</ele><time>2026-03-29T09:51:53.395Z</time></trkpt><trkpt lat="43.2171835" lon="12.1917741"><ele>312.75</ele><time>2026-03-29T09:51:54.395Z</time></trkpt><trkpt lat="43.2170645" lon="12.191785"><ele>313.0</ele><time>2026-03-29T09:51:55.394Z</time></trkpt><trkpt lat="43.2169435" lon="12.1917973"><ele>313.0</ele><time>2026-03-29T09:51:56.394Z</time></trkpt><trkpt lat="43.2168269" lon="12.1918022"><ele>313.0</ele><time>2026-03-29T09:51:57.394Z</time></trkpt><trkpt lat="43.2167387" lon="12.1918061"><ele>313.0</ele><time>2026-03-29T09:51:58.395Z</time></trkpt><trkpt lat="43.2166521" lon="12.1918043"><ele>313.0</ele><time>2026-03-29T09:51:59.396Z</time></trkpt><trkpt lat="43.2165841" lon="12.1918083"><ele>313.0</ele><time>2026-03-29T09:52:00.395Z</time></trkpt><trkpt lat="43.2165216" lon="12.1918245"><ele>313.0</ele><time>2026-03-29T09:52:01.394Z</time></trkpt><trkpt lat="43.2164521" lon="12.191911"><ele>313.0</ele><time>2026-03-29T09:52:03.395Z</time></trkpt><trkpt lat="43.2164479" lon="12.192089"><ele>313.0</ele><time>2026-03-29T09:52:05.394Z</time></trkpt><trkpt lat="43.2164852" lon="12.1922694"><ele>313.0</ele><time>2026-03-29T09:52:06.395Z</time></trkpt><trkpt lat="43.2165205" lon="12.1924308"><ele>313.0</ele><time>2026-03-29T09:52:07.395Z</time></trkpt><trkpt lat="43.2165771" lon="12.1925893"><ele>313.0</ele><time>2026-03-29T09:52:08.395Z</time></trkpt><trkpt lat="43.2166465" lon="12.1927384"><ele>313.0</ele><time>2026-03-29T09:52:09.394Z</time></trkpt><trkpt lat="43.2167121" lon="12.1928923"><ele>313.0</ele><time>2026-03-29T09:52:10.396Z</time></trkpt><trkpt lat="43.2167792" lon="12.1930515"><ele>313.0</ele><time>2026-03-29T09:52:11.394Z</time></trkpt><trkpt lat="43.2168461" lon="12.1932166"><ele>313.25</ele><time>2026-03-29T09:52:12.396Z</time></trkpt><trkpt lat="43.2169163" lon="12.1933788"><ele>313.5</ele><time>2026-03-29T09:52:13.395Z</time></trkpt><trkpt lat="43.2169853" lon="12.1935509"><ele>313.75</ele><time>2026-03-29T09:52:14.396Z</time></trkpt><trkpt lat="43.2170591" lon="12.1937193"><ele>314.0</ele><time>2026-03-29T09:52:15.395Z</time></trkpt><trkpt lat="43.2171293" lon="12.1938979"><ele>313.75</ele><time>2026-03-29T09:52:16.395Z</time></trkpt><trkpt lat="43.2172006" lon="12.1940626"><ele>313.5</ele><time>2026-03-29T09:52:17.395Z</time></trkpt><trkpt lat="43.2172716" lon="12.1942201"><ele>313.25</ele><time>2026-03-29T09:52:18.394Z</time></trkpt><trkpt lat="43.2173377" lon="12.1943644"><ele>313.0</ele><time>2026-03-29T09:52:19.394Z</time></trkpt><trkpt lat="43.217397" lon="12.1944985"><ele>312.8</ele><time>2026-03-29T09:52:20.396Z</time></trkpt><trkpt lat="43.2174474" lon="12.1946264"><ele>312.6</ele><time>2026-03-29T09:52:21.395Z</time></trkpt><trkpt lat="43.2174833" lon="12.1947435"><ele>312.4</ele><time>2026-03-29T09:52:22.395Z</time></trkpt><trkpt lat="43.2174826" lon="12.1948644"><ele>312.2</ele><time>2026-03-29T09:52:23.394Z</time></trkpt><trkpt lat="43.2174636" lon="12.1949984"><ele>312.0</ele><time>2026-03-29T09:52:24.395Z</time></trkpt><trkpt lat="43.217437" lon="12.195143"><ele>312.0</ele><time>2026-03-29T09:52:25.395Z</time></trkpt><trkpt lat="43.2173873" lon="12.195324"><ele>312.0</ele><time>2026-03-29T09:52:26.396Z</time></trkpt><trkpt lat="43.2173539" lon="12.1954922"><ele>312.0</ele><time>2026-03-29T09:52:27.395Z</time></trkpt><trkpt lat="43.2173072" lon="12.1956661"><ele>312.0</ele><time>2026-03-29T09:52:28.394Z</time></trkpt><trkpt lat="43.2172636" lon="12.1958314"><ele>312.0</ele><time>2026-03-29T09:52:29.395Z</time></trkpt><trkpt lat="43.2172196" lon="12.1960078"><ele>312.0</ele><time>2026-03-29T09:52:30.395Z</time></trkpt><trkpt lat="43.2171843" lon="12.1961782"><ele>312.0</ele><time>2026-03-29T09:52:31.394Z</time></trkpt><trkpt lat="43.2171593" lon="12.19635"><ele>312.0</ele><time>2026-03-29T09:52:32.396Z</time></trkpt><trkpt lat="43.2171679" lon="12.1965612"><ele>311.75</ele><time>2026-03-29T09:52:33.395Z</time></trkpt><trkpt lat="43.2171788" lon="12.1967635"><ele>311.5</ele><time>2026-03-29T09:52:34.394Z</time></trkpt><trkpt lat="43.2171986" lon="12.1969585"><ele>311.25</ele><time>2026-03-29T09:52:35.394Z</time></trkpt><trkpt lat="43.2172249" lon="12.1971357"><ele>311.0</ele><time>2026-03-29T09:52:36.396Z</time></trkpt><trkpt lat="43.217249" lon="12.1973122"><ele>311.0</ele><time>2026-03-29T09:52:37.394Z</time></trkpt><trkpt lat="43.2172793" lon="12.1974757"><ele>311.0</ele><time>2026-03-29T09:52:38.394Z</time></trkpt><trkpt lat="43.2172983" lon="12.1976448"><ele>311.0</ele><time>2026-03-29T09:52:39.395Z</time></trkpt><trkpt lat="43.2173177" lon="12.1978335"><ele>311.0</ele><time>2026-03-29T09:52:40.395Z</time></trkpt><trkpt lat="43.2173316" lon="12.1980232"><ele>310.75</ele><time>2026-03-29T09:52:41.396Z</time></trkpt><trkpt lat="43.2173578" lon="12.1982139"><ele>310.5</ele><time>2026-03-29T09:52:42.395Z</time></trkpt><trkpt lat="43.2173941" lon="12.1984061"><ele>310.25</ele><time>2026-03-29T09:52:43.395Z</time></trkpt><trkpt lat="43.2174412" lon="12.198591"><ele>310.0</ele><time>2026-03-29T09:52:44.395Z</time></trkpt><trkpt lat="43.2175049" lon="12.1987562"><ele>310.0</ele><time>2026-03-29T09:52:45.396Z</time></trkpt><trkpt lat="43.2175757" lon="12.1989282"><ele>310.0</ele><time>2026-03-29T09:52:46.396Z</time></trkpt><trkpt lat="43.2176501" lon="12.1991084"><ele>310.0</ele><time>2026-03-29T09:52:47.394Z</time></trkpt><trkpt lat="43.2177151" lon="12.1992748"><ele>310.0</ele><time>2026-03-29T09:52:48.394Z</time></trkpt><trkpt lat="43.2177803" lon="12.1994505"><ele>310.0</ele><time>2026-03-29T09:52:49.395Z</time></trkpt><trkpt lat="43.2178481" lon="12.1996112"><ele>310.0</ele><time>2026-03-29T09:52:50.395Z</time></trkpt><trkpt lat="43.2179152" lon="12.1997753"><ele>310.0</ele><time>2026-03-29T09:52:51.395Z</time></trkpt><trkpt lat="43.2179784" lon="12.1999438"><ele>310.0</ele><time>2026-03-29T09:52:52.396Z</time></trkpt><trkpt lat="43.2180459" lon="12.2001164"><ele>310.0</ele><time>2026-03-29T09:52:53.395Z</time></trkpt><trkpt lat="43.2181128" lon="12.2002917"><ele>310.0</ele><time>2026-03-29T09:52:54.395Z</time></trkpt><trkpt lat="43.2181816" lon="12.2004713"><ele>310.0</ele><time>2026-03-29T09:52:55.395Z</time></trkpt><trkpt lat="43.2182516" lon="12.2006363"><ele>310.0</ele><time>2026-03-29T09:52:56.395Z</time></trkpt><trkpt lat="43.2183148" lon="12.2008015"><ele>310.5</ele><time>2026-03-29T09:52:57.396Z</time></trkpt><trkpt lat="43.21837" lon="12.200959"><ele>311.0</ele><time>2026-03-29T09:52:58.395Z</time></trkpt><trkpt lat="43.2184262" lon="12.2011154"><ele>311.5</ele><time>2026-03-29T09:52:59.395Z</time></trkpt><trkpt lat="43.2184823" lon="12.2012625"><ele>312.0</ele><time>2026-03-29T09:53:00.394Z</time></trkpt><trkpt lat="43.2185341" lon="12.2014014"><ele>312.4</ele><time>2026-03-29T09:53:01.397Z</time></trkpt><trkpt lat="43.2185851" lon="12.2015357"><ele>312.79999999999995</ele><time>2026-03-29T09:53:02.394Z</time></trkpt><trkpt lat="43.2186339" lon="12.2016652"><ele>313.2</ele><time>2026-03-29T09:53:03.395Z</time></trkpt><trkpt lat="43.2186722" lon="12.2017694"><ele>313.59999999999997</ele><time>2026-03-29T09:53:04.397Z</time></trkpt><trkpt lat="43.2187004" lon="12.2018529"><ele>314.0</ele><time>2026-03-29T09:53:05.395Z</time></trkpt><trkpt lat="43.2187362" lon="12.2019633"><ele>314.0</ele><time>2026-03-29T09:53:07.396Z</time></trkpt><trkpt lat="43.2187238" lon="12.2020557"><ele>314.0</ele><time>2026-03-29T09:53:12.395Z</time></trkpt><trkpt lat="43.2186488" lon="12.2021013"><ele>314.0</ele><time>2026-03-29T09:53:16.395Z</time></trkpt><trkpt lat="43.218583" lon="12.2021249"><ele>314.0</ele><time>2026-03-29T09:53:18.395Z</time></trkpt><trkpt lat="43.2184472" lon="12.2021301"><ele>314.0</ele><time>2026-03-29T09:53:20.395Z</time></trkpt><trkpt lat="43.2183642" lon="12.2021377"><ele>314.0</ele><time>2026-03-29T09:53:21.394Z</time></trkpt><trkpt lat="43.2182708" lon="12.2021482"><ele>314.0</ele><time>2026-03-29T09:53:22.395Z</time></trkpt><trkpt lat="43.2181693" lon="12.2021613"><ele>314.0</ele><time>2026-03-29T09:53:23.396Z</time></trkpt><trkpt lat="43.2180641" lon="12.2021753"><ele>314.0</ele><time>2026-03-29T09:53:24.394Z</time></trkpt><trkpt lat="43.2179552" lon="12.202189"><ele>314.0</ele><time>2026-03-29T09:53:25.395Z</time></trkpt><trkpt lat="43.2178322" lon="12.2022"><ele>314.0</ele><time>2026-03-29T09:53:26.395Z</time></trkpt><trkpt lat="43.2176886" lon="12.2022208"><ele>314.0</ele><time>2026-03-29T09:53:27.395Z</time></trkpt><trkpt lat="43.217548" lon="12.2022392"><ele>314.0</ele><time>2026-03-29T09:53:28.396Z</time></trkpt><trkpt lat="43.2174164" lon="12.2022543"><ele>314.0</ele><time>2026-03-29T09:53:29.396Z</time></trkpt><trkpt lat="43.2172906" lon="12.2022675"><ele>314.0</ele><time>2026-03-29T09:53:30.394Z</time></trkpt><trkpt lat="43.217198" lon="12.2022956"><ele>314.0</ele><time>2026-03-29T09:53:31.395Z</time></trkpt><trkpt lat="43.2171034" lon="12.2023417"><ele>314.0</ele><time>2026-03-29T09:53:32.395Z</time></trkpt><trkpt lat="43.2170195" lon="12.202389"><ele>314.0</ele><time>2026-03-29T09:53:33.396Z</time></trkpt><trkpt lat="43.2169511" lon="12.2024711"><ele>314.0</ele><time>2026-03-29T09:53:34.396Z</time></trkpt><trkpt lat="43.2168925" lon="12.202543"><ele>314.0</ele><time>2026-03-29T09:53:35.395Z</time></trkpt><trkpt lat="43.2168584" lon="12.2026166"><ele>314.0</ele><time>2026-03-29T09:53:36.395Z</time></trkpt><trkpt lat="43.2168174" lon="12.2026829"><ele>314.0</ele><time>2026-03-29T09:53:37.396Z</time></trkpt><trkpt lat="43.2167726" lon="12.2027596"><ele>314.0</ele><time>2026-03-29T09:53:38.394Z</time></trkpt><trkpt lat="43.2167034" lon="12.2028812"><ele>314.0</ele><time>2026-03-29T09:53:39.396Z</time></trkpt><trkpt lat="43.2166332" lon="12.2030021"><ele>314.0</ele><time>2026-03-29T09:53:40.396Z</time></trkpt><trkpt lat="43.2165644" lon="12.2031178"><ele>314.0</ele><time>2026-03-29T09:53:41.395Z</time></trkpt><trkpt lat="43.2164621" lon="12.2032841"><ele>315.5</ele><time>2026-03-29T09:53:42.395Z</time></trkpt><trkpt lat="43.2163701" lon="12.2034219"><ele>317.0</ele><time>2026-03-29T09:53:43.395Z</time></trkpt><trkpt lat="43.2162895" lon="12.2035248"><ele>318.5</ele><time>2026-03-29T09:53:44.395Z</time></trkpt><trkpt lat="43.2162108" lon="12.20363"><ele>320.0</ele><time>2026-03-29T09:53:45.395Z</time></trkpt><trkpt lat="43.2161456" lon="12.2037606"><ele>320.0</ele><time>2026-03-29T09:53:46.395Z</time></trkpt><trkpt lat="43.2160915" lon="12.203901"><ele>320.0</ele><time>2026-03-29T09:53:47.396Z</time></trkpt><trkpt lat="43.2160354" lon="12.2040316"><ele>320.0</ele><time>2026-03-29T09:53:48.395Z</time></trkpt><trkpt lat="43.2159774" lon="12.2041283"><ele>320.0</ele><time>2026-03-29T09:53:49.395Z</time></trkpt><trkpt lat="43.2159215" lon="12.2042106"><ele>320.0</ele><time>2026-03-29T09:53:50.395Z</time></trkpt><trkpt lat="43.215863" lon="12.2042852"><ele>320.6</ele><time>2026-03-29T09:53:51.395Z</time></trkpt><trkpt lat="43.2157929" lon="12.2043522"><ele>321.2</ele><time>2026-03-29T09:53:52.396Z</time></trkpt><trkpt lat="43.215705" lon="12.2044169"><ele>321.79999999999995</ele><time>2026-03-29T09:53:53.396Z</time></trkpt><trkpt lat="43.2156085" lon="12.20449"><ele>322.4</ele><time>2026-03-29T09:53:54.396Z</time></trkpt><trkpt lat="43.2155185" lon="12.204571"><ele>323.0</ele><time>2026-03-29T09:53:55.396Z</time></trkpt><trkpt lat="43.2154277" lon="12.2046749"><ele>323.5</ele><time>2026-03-29T09:53:56.395Z</time></trkpt><trkpt lat="43.215335" lon="12.204801"><ele>324.0</ele><time>2026-03-29T09:53:57.397Z</time></trkpt><trkpt lat="43.215262" lon="12.2049151"><ele>324.5</ele><time>2026-03-29T09:53:58.394Z</time></trkpt><trkpt lat="43.215158" lon="12.2050167"><ele>325.0</ele><time>2026-03-29T09:53:59.396Z</time></trkpt><trkpt lat="43.2150645" lon="12.2051174"><ele>325.6</ele><time>2026-03-29T09:54:00.396Z</time></trkpt><trkpt lat="43.2149707" lon="12.205205"><ele>326.2</ele><time>2026-03-29T09:54:01.395Z</time></trkpt><trkpt lat="43.2148716" lon="12.205254"><ele>326.79999999999995</ele><time>2026-03-29T09:54:02.395Z</time></trkpt><trkpt lat="43.2147903" lon="12.2052969"><ele>327.4</ele><time>2026-03-29T09:54:03.395Z</time></trkpt><trkpt lat="43.2147029" lon="12.2053643"><ele>328.0</ele><time>2026-03-29T09:54:04.397Z</time></trkpt><trkpt lat="43.2146334" lon="12.2054379"><ele>328.0</ele><time>2026-03-29T09:54:05.394Z</time></trkpt><trkpt lat="43.2145567" lon="12.2055642"><ele>328.0</ele><time>2026-03-29T09:54:06.394Z</time></trkpt><trkpt lat="43.2144825" lon="12.2056725"><ele>328.0</ele><time>2026-03-29T09:54:07.395Z</time></trkpt><trkpt lat="43.2144114" lon="12.205826"><ele>328.0</ele><time>2026-03-29T09:54:08.395Z</time></trkpt><trkpt lat="43.2143528" lon="12.2059606"><ele>328.16666666666663</ele><time>2026-03-29T09:54:09.397Z</time></trkpt><trkpt lat="43.2142978" lon="12.2060945"><ele>328.3333333333333</ele><time>2026-03-29T09:54:10.394Z</time></trkpt><trkpt lat="43.2142745" lon="12.2061848"><ele>328.5</ele><time>2026-03-29T09:54:11.396Z</time></trkpt><trkpt lat="43.214255" lon="12.2063061"><ele>328.6666666666667</ele><time>2026-03-29T09:54:12.396Z</time></trkpt><trkpt lat="43.2142369" lon="12.2064119"><ele>328.83333333333337</ele><time>2026-03-29T09:54:13.395Z</time></trkpt><trkpt lat="43.2141939" lon="12.2065268"><ele>329.0</ele><time>2026-03-29T09:54:14.395Z</time></trkpt><trkpt lat="43.2141593" lon="12.206653"><ele>329.5</ele><time>2026-03-29T09:54:15.394Z</time></trkpt><trkpt lat="43.2141276" lon="12.2067854"><ele>330.0</ele><time>2026-03-29T09:54:16.397Z</time></trkpt><trkpt lat="43.2141059" lon="12.2068892"><ele>330.5</ele><time>2026-03-29T09:54:17.396Z</time></trkpt><trkpt lat="43.2140949" lon="12.2070027"><ele>331.0</ele><time>2026-03-29T09:54:18.397Z</time></trkpt><trkpt lat="43.214091" lon="12.2070923"><ele>331.5</ele><time>2026-03-29T09:54:19.396Z</time></trkpt><trkpt lat="43.2141256" lon="12.2072264"><ele>332.0</ele><time>2026-03-29T09:54:21.395Z</time></trkpt><trkpt lat="43.2140879" lon="12.2073224"><ele>332.83333333333337</ele><time>2026-03-29T09:54:23.397Z</time></trkpt><trkpt lat="43.2139898" lon="12.207448"><ele>333.6666666666667</ele><time>2026-03-29T09:54:25.395Z</time></trkpt><trkpt lat="43.213933" lon="12.2075301"><ele>334.5</ele><time>2026-03-29T09:54:26.395Z</time></trkpt><trkpt lat="43.213877" lon="12.2076142"><ele>335.3333333333333</ele><time>2026-03-29T09:54:27.395Z</time></trkpt><trkpt lat="43.213839" lon="12.2076966"><ele>336.16666666666663</ele><time>2026-03-29T09:54:28.396Z</time></trkpt><trkpt lat="43.2138075" lon="12.2077746"><ele>337.0</ele><time>2026-03-29T09:54:29.396Z</time></trkpt><trkpt lat="43.213732" lon="12.2078431"><ele>337.0</ele><time>2026-03-29T09:54:31.396Z</time></trkpt><trkpt lat="43.2136275" lon="12.2079387"><ele>337.0</ele><time>2026-03-29T09:54:33.396Z</time></trkpt><trkpt lat="43.2135667" lon="12.2079907"><ele>337.0</ele><time>2026-03-29T09:54:34.396Z</time></trkpt><trkpt lat="43.2135044" lon="12.2080156"><ele>337.0</ele><time>2026-03-29T09:54:35.397Z</time></trkpt><trkpt lat="43.2134263" lon="12.208022"><ele>337.0</ele><time>2026-03-29T09:54:36.396Z</time></trkpt><trkpt lat="43.2133506" lon="12.208026"><ele>337.0</ele><time>2026-03-29T09:54:37.395Z</time></trkpt><trkpt lat="43.2132591" lon="12.2080577"><ele>338.0</ele><time>2026-03-29T09:54:38.397Z</time></trkpt><trkpt lat="43.213155" lon="12.208088"><ele>339.0</ele><time>2026-03-29T09:54:39.396Z</time></trkpt><trkpt lat="43.213055" lon="12.2081231"><ele>340.0</ele><time>2026-03-29T09:54:40.396Z</time></trkpt><trkpt lat="43.212961" lon="12.2081671"><ele>341.0</ele><time>2026-03-29T09:54:41.395Z</time></trkpt><trkpt lat="43.2128747" lon="12.208205"><ele>342.0</ele><time>2026-03-29T09:54:42.396Z</time></trkpt><trkpt lat="43.2127877" lon="12.2082325"><ele>342.0</ele><time>2026-03-29T09:54:43.396Z</time></trkpt><trkpt lat="43.2127109" lon="12.2082595"><ele>342.0</ele><time>2026-03-29T09:54:44.395Z</time></trkpt><trkpt lat="43.2126268" lon="12.2083284"><ele>342.0</ele><time>2026-03-29T09:54:45.395Z</time></trkpt><trkpt lat="43.2125538" lon="12.2083874"><ele>342.0</ele><time>2026-03-29T09:54:46.396Z</time></trkpt><trkpt lat="43.212461" lon="12.2084496"><ele>342.0</ele><time>2026-03-29T09:54:47.394Z</time></trkpt><trkpt lat="43.2123828" lon="12.2084929"><ele>342.8333333333333</ele><time>2026-03-29T09:54:48.397Z</time></trkpt><trkpt lat="43.2123091" lon="12.2085444"><ele>343.6666666666667</ele><time>2026-03-29T09:54:49.396Z</time></trkpt><trkpt lat="43.2122456" lon="12.2086238"><ele>344.5</ele><time>2026-03-29T09:54:50.394Z</time></trkpt><trkpt lat="43.212184" lon="12.2086839"><ele>345.33333333333337</ele><time>2026-03-29T09:54:51.397Z</time></trkpt><trkpt lat="43.2121306" lon="12.2087686"><ele>346.1666666666667</ele><time>2026-03-29T09:54:52.395Z</time></trkpt><trkpt lat="43.2120729" lon="12.2088586"><ele>347.0</ele><time>2026-03-29T09:54:53.396Z</time></trkpt><trkpt lat="43.2120235" lon="12.2089205"><ele>347.0</ele><time>2026-03-29T09:54:54.397Z</time></trkpt><trkpt lat="43.2119589" lon="12.2089573"><ele>347.0</ele><time>2026-03-29T09:54:55.395Z</time></trkpt><trkpt lat="43.2119323" lon="12.2091047"><ele>347.0</ele><time>2026-03-29T09:54:57.395Z</time></trkpt><trkpt lat="43.2119679" lon="12.2092967"><ele>347.0</ele><time>2026-03-29T09:54:59.396Z</time></trkpt><trkpt lat="43.2119944" lon="12.2094138"><ele>347.0</ele><time>2026-03-29T09:55:00.395Z</time></trkpt><trkpt lat="43.212017" lon="12.2095383"><ele>346.8</ele><time>2026-03-29T09:55:01.395Z</time></trkpt><trkpt lat="43.2120166" lon="12.2096361"><ele>346.6</ele><time>2026-03-29T09:55:02.396Z</time></trkpt><trkpt lat="43.2119738" lon="12.2097835"><ele>346.40000000000003</ele><time>2026-03-29T09:55:04.397Z</time></trkpt><trkpt lat="43.2119825" lon="12.2099757"><ele>346.20000000000005</ele><time>2026-03-29T09:55:06.394Z</time></trkpt><trkpt lat="43.2119949" lon="12.210087"><ele>346.0</ele><time>2026-03-29T09:55:07.397Z</time></trkpt><trkpt lat="43.2119978" lon="12.2101808"><ele>346.8333333333333</ele><time>2026-03-29T09:55:08.396Z</time></trkpt><trkpt lat="43.2119924" lon="12.2102892"><ele>347.66666666666663</ele><time>2026-03-29T09:55:09.395Z</time></trkpt><trkpt lat="43.2119796" lon="12.2104033"><ele>348.5</ele><time>2026-03-29T09:55:10.397Z</time></trkpt><trkpt lat="43.2119724" lon="12.2105099"><ele>349.3333333333333</ele><time>2026-03-29T09:55:11.394Z</time></trkpt><trkpt lat="43.2119705" lon="12.2106003"><ele>350.1666666666667</ele><time>2026-03-29T09:55:12.396Z</time></trkpt><trkpt lat="43.2119024" lon="12.210698"><ele>351.0</ele><time>2026-03-29T09:55:14.396Z</time></trkpt><trkpt lat="43.2118305" lon="12.2107317"><ele>351.0</ele><time>2026-03-29T09:55:16.396Z</time></trkpt><trkpt lat="43.2117647" lon="12.2107106"><ele>351.0</ele><time>2026-03-29T09:55:18.395Z</time></trkpt><trkpt lat="43.2117483" lon="12.2105759"><ele>351.0</ele><time>2026-03-29T09:55:20.394Z</time></trkpt><trkpt lat="43.2117461" lon="12.2104098"><ele>351.0</ele><time>2026-03-29T09:55:22.395Z</time></trkpt><trkpt lat="43.211708" lon="12.2102737"><ele>351.0</ele><time>2026-03-29T09:55:24.396Z</time></trkpt><trkpt lat="43.2117003" lon="12.2101564"><ele>351.0</ele><time>2026-03-29T09:55:26.395Z</time></trkpt><trkpt lat="43.2116798" lon="12.2100702"><ele>351.0</ele><time>2026-03-29T09:55:27.396Z</time></trkpt><trkpt lat="43.2116543" lon="12.2099687"><ele>351.0</ele><time>2026-03-29T09:55:28.396Z</time></trkpt><trkpt lat="43.2115984" lon="12.2098235"><ele>351.0</ele><time>2026-03-29T09:55:30.395Z</time></trkpt><trkpt lat="43.2115616" lon="12.2096797"><ele>351.0</ele><time>2026-03-29T09:55:32.396Z</time></trkpt><trkpt lat="43.2114797" lon="12.2096281"><ele>351.5</ele><time>2026-03-29T09:55:35.397Z</time></trkpt><trkpt lat="43.2113994" lon="12.2095557"><ele>352.0</ele><time>2026-03-29T09:55:37.396Z</time></trkpt><trkpt lat="43.2113438" lon="12.2094984"><ele>352.5</ele><time>2026-03-29T09:55:39.397Z</time></trkpt><trkpt lat="43.2112632" lon="12.2095576"><ele>353.0</ele><time>2026-03-29T09:55:42.396Z</time></trkpt><trkpt lat="43.2112551" lon="12.2097095"><ele>353.5</ele><time>2026-03-29T09:55:44.395Z</time></trkpt><trkpt lat="43.2112142" lon="12.209804"><ele>354.0</ele><time>2026-03-29T09:55:46.396Z</time></trkpt><trkpt lat="43.2111322" lon="12.2098273"><ele>354.0</ele><time>2026-03-29T09:55:49.395Z</time></trkpt><trkpt lat="43.2110567" lon="12.2098392"><ele>354.0</ele><time>2026-03-29T09:55:50.396Z</time></trkpt><trkpt lat="43.2109552" lon="12.2098805"><ele>354.0</ele><time>2026-03-29T09:55:52.397Z</time></trkpt><trkpt lat="43.2108461" lon="12.2099165"><ele>354.0</ele><time>2026-03-29T09:55:54.397Z</time></trkpt><trkpt lat="43.2107388" lon="12.2099812"><ele>354.0</ele><time>2026-03-29T09:55:56.396Z</time></trkpt><trkpt lat="43.2106532" lon="12.2100504"><ele>357.0</ele><time>2026-03-29T09:55:58.396Z</time></trkpt><trkpt lat="43.2105886" lon="12.2101323"><ele>360.0</ele><time>2026-03-29T09:56:00.396Z</time></trkpt><trkpt lat="43.2105254" lon="12.2101971"><ele>363.0</ele><time>2026-03-29T09:56:02.396Z</time></trkpt><trkpt lat="43.2104465" lon="12.210289"><ele>366.0</ele><time>2026-03-29T09:56:04.396Z</time></trkpt><trkpt lat="43.2103561" lon="12.2103218"><ele>369.0</ele><time>2026-03-29T09:56:06.396Z</time></trkpt><trkpt lat="43.2102892" lon="12.2103039"><ele>372.0</ele><time>2026-03-29T09:56:09.396Z</time></trkpt><trkpt lat="43.2102453" lon="12.2103698"><ele>372.0</ele><time>2026-03-29T09:56:11.395Z</time></trkpt><trkpt lat="43.2102085" lon="12.2104866"><ele>372.0</ele><time>2026-03-29T09:56:13.397Z</time></trkpt><trkpt lat="43.2101755" lon="12.2105758"><ele>372.0</ele><time>2026-03-29T09:56:14.396Z</time></trkpt><trkpt lat="43.2100718" lon="12.2106762"><ele>372.0</ele><time>2026-03-29T09:56:16.396Z</time></trkpt><trkpt lat="43.2099885" lon="12.2107322"><ele>372.0</ele><time>2026-03-29T09:56:18.395Z</time></trkpt><trkpt lat="43.2098935" lon="12.2107748"><ele>372.8333333333333</ele><time>2026-03-29T09:56:20.396Z</time></trkpt><trkpt lat="43.2098192" lon="12.2108157"><ele>373.6666666666667</ele><time>2026-03-29T09:56:23.396Z</time></trkpt><trkpt lat="43.2097493" lon="12.2108167"><ele>374.5</ele><time>2026-03-29T09:56:26.395Z</time></trkpt><trkpt lat="43.2096697" lon="12.210829"><ele>375.33333333333337</ele><time>2026-03-29T09:56:28.396Z</time></trkpt><trkpt lat="43.2096075" lon="12.2108766"><ele>376.1666666666667</ele><time>2026-03-29T09:56:30.396Z</time></trkpt><trkpt lat="43.2095282" lon="12.2109541"><ele>377.0</ele><time>2026-03-29T09:56:33.395Z</time></trkpt><trkpt lat="43.2094658" lon="12.2110112"><ele>377.0</ele><time>2026-03-29T09:56:35.394Z</time></trkpt><trkpt lat="43.2093919" lon="12.2110881"><ele>377.0</ele><time>2026-03-29T09:56:38.396Z</time></trkpt><trkpt lat="43.2093445" lon="12.21115"><ele>377.0</ele><time>2026-03-29T09:56:40.396Z</time></trkpt><trkpt lat="43.2093222" lon="12.2112534"><ele>377.0</ele><time>2026-03-29T09:56:43.395Z</time></trkpt><trkpt lat="43.209296" lon="12.2113447"><ele>377.0</ele><time>2026-03-29T09:56:45.396Z</time></trkpt><trkpt lat="43.2092589" lon="12.2114348"><ele>377.0</ele><time>2026-03-29T09:56:47.397Z</time></trkpt><trkpt lat="43.2092187" lon="12.2115383"><ele>376.33333333333337</ele><time>2026-03-29T09:57:38.394Z</time></trkpt><trkpt lat="43.2091843" lon="12.2116351"><ele>375.6666666666667</ele><time>2026-03-29T09:57:42.397Z</time></trkpt><trkpt lat="43.2092233" lon="12.2117351"><ele>375.0</ele><time>2026-03-29T09:59:16.396Z</time></trkpt><trkpt lat="43.2092571" lon="12.2118397"><ele>374.3333333333333</ele><time>2026-03-29T10:01:47.396Z</time></trkpt><trkpt lat="43.2092988" lon="12.2119058"><ele>373.66666666666663</ele><time>2026-03-29T10:01:50.398Z</time></trkpt><trkpt lat="43.2093468" lon="12.2119743"><ele>373.0</ele><time>2026-03-29T10:02:10.397Z</time></trkpt><trkpt lat="43.2093839" lon="12.2120842"><ele>373.0</ele><time>2026-03-29T10:02:12.395Z</time></trkpt><trkpt lat="43.209425" lon="12.2122013"><ele>373.0</ele><time>2026-03-29T10:02:14.397Z</time></trkpt><trkpt lat="43.2094468" lon="12.2123163"><ele>373.0</ele><time>2026-03-29T10:02:16.396Z</time></trkpt><trkpt lat="43.20947" lon="12.212421"><ele>373.0</ele><time>2026-03-29T10:02:18.395Z</time></trkpt><trkpt lat="43.2094548" lon="12.2125342"><ele>373.0</ele><time>2026-03-29T10:02:21.398Z</time></trkpt><trkpt lat="43.2094995" lon="12.2126181"><ele>373.0</ele><time>2026-03-29T10:02:22.396Z</time></trkpt><trkpt lat="43.209544" lon="12.2127679"><ele>374.5</ele><time>2026-03-29T10:02:24.397Z</time></trkpt><trkpt lat="43.2095832" lon="12.2128798"><ele>376.0</ele><time>2026-03-29T10:02:26.397Z</time></trkpt><trkpt lat="43.2096067" lon="12.2129687"><ele>377.5</ele><time>2026-03-29T10:02:28.397Z</time></trkpt><trkpt lat="43.2095776" lon="12.2130781"><ele>379.0</ele><time>2026-03-29T10:02:43.397Z</time></trkpt><trkpt lat="43.2095154" lon="12.2131831"><ele>380.5</ele><time>2026-03-29T10:02:45.398Z</time></trkpt><trkpt lat="43.2094757" lon="12.2133049"><ele>382.0</ele><time>2026-03-29T10:02:47.395Z</time></trkpt><trkpt lat="43.2094399" lon="12.2134267"><ele>385.20000000000005</ele><time>2026-03-29T10:02:49.397Z</time></trkpt><trkpt lat="43.2093842" lon="12.2135535"><ele>388.4</ele><time>2026-03-29T10:02:51.398Z</time></trkpt><trkpt lat="43.209346" lon="12.213733"><ele>391.6</ele><time>2026-03-29T10:02:53.397Z</time></trkpt><trkpt lat="43.2093224" lon="12.2138202"><ele>394.79999999999995</ele><time>2026-03-29T10:02:54.398Z</time></trkpt><trkpt lat="43.2092957" lon="12.2139552"><ele>398.0</ele><time>2026-03-29T10:02:56.395Z</time></trkpt><trkpt lat="43.2092556" lon="12.2140936"><ele>400.59999999999997</ele><time>2026-03-29T10:02:58.396Z</time></trkpt><trkpt lat="43.2092499" lon="12.2142206"><ele>403.2</ele><time>2026-03-29T10:03:00.397Z</time></trkpt><trkpt lat="43.2092484" lon="12.2143443"><ele>405.8</ele><time>2026-03-29T10:03:02.397Z</time></trkpt><trkpt lat="43.2092274" lon="12.2144483"><ele>408.4</ele><time>2026-03-29T10:03:04.396Z</time></trkpt><trkpt lat="43.2091541" lon="12.21453"><ele>411.0</ele><time>2026-03-29T10:03:06.397Z</time></trkpt><trkpt lat="43.209066" lon="12.2146251"><ele>411.0</ele><time>2026-03-29T10:03:08.397Z</time></trkpt><trkpt lat="43.2090117" lon="12.2147478"><ele>411.0</ele><time>2026-03-29T10:03:10.396Z</time></trkpt><trkpt lat="43.2089536" lon="12.2148894"><ele>411.0</ele><time>2026-03-29T10:03:12.397Z</time></trkpt><trkpt lat="43.2089108" lon="12.2150742"><ele>411.0</ele><time>2026-03-29T10:03:14.397Z</time></trkpt><trkpt lat="43.2088972" lon="12.2151658"><ele>411.0</ele><time>2026-03-29T10:03:15.397Z</time></trkpt><trkpt lat="43.208861" lon="12.2153092"><ele>411.25</ele><time>2026-03-29T10:03:16.396Z</time></trkpt><trkpt lat="43.2088422" lon="12.2154527"><ele>411.5</ele><time>2026-03-29T10:03:17.397Z</time></trkpt><trkpt lat="43.2088157" lon="12.2156176"><ele>411.75</ele><time>2026-03-29T10:03:18.397Z</time></trkpt><trkpt lat="43.2087908" lon="12.2157906"><ele>412.0</ele><time>2026-03-29T10:03:19.396Z</time></trkpt><trkpt lat="43.208773" lon="12.2159345"><ele>414.8</ele><time>2026-03-29T10:03:20.398Z</time></trkpt><trkpt lat="43.2087752" lon="12.2160732"><ele>417.6</ele><time>2026-03-29T10:03:21.396Z</time></trkpt><trkpt lat="43.2087878" lon="12.2161657"><ele>420.40000000000003</ele><time>2026-03-29T10:03:22.398Z</time></trkpt><trkpt lat="43.2088693" lon="12.2163165"><ele>423.20000000000005</ele><time>2026-03-29T10:03:24.396Z</time></trkpt><trkpt lat="43.2089459" lon="12.2164097"><ele>426.0</ele><time>2026-03-29T10:03:25.398Z</time></trkpt><trkpt lat="43.2090114" lon="12.2164846"><ele>431.5</ele><time>2026-03-29T10:03:26.397Z</time></trkpt><trkpt lat="43.2090942" lon="12.2165654"><ele>437.0</ele><time>2026-03-29T10:03:27.395Z</time></trkpt><trkpt lat="43.2092322" lon="12.2166068"><ele>442.5</ele><time>2026-03-29T10:03:28.397Z</time></trkpt><trkpt lat="43.2093266" lon="12.2166657"><ele>448.0</ele><time>2026-03-29T10:03:29.397Z</time></trkpt><trkpt lat="43.2094196" lon="12.2167465"><ele>448.0</ele><time>2026-03-29T10:03:30.397Z</time></trkpt><trkpt lat="43.2094957" lon="12.2168369"><ele>447.99999999999994</ele><time>2026-03-29T10:03:31.397Z</time></trkpt><trkpt lat="43.2095852" lon="12.2169279"><ele>447.99999999999994</ele><time>2026-03-29T10:03:32.396Z</time></trkpt><trkpt lat="43.2096863" lon="12.2170046"><ele>448.0</ele><time>2026-03-29T10:03:33.395Z</time></trkpt><trkpt lat="43.2097814" lon="12.2171009"><ele>448.0</ele><time>2026-03-29T10:03:34.396Z</time></trkpt><trkpt lat="43.2098698" lon="12.2171975"><ele>447.59999999999997</ele><time>2026-03-29T10:03:35.397Z</time></trkpt><trkpt lat="43.2099494" lon="12.2172789"><ele>447.19999999999993</ele><time>2026-03-29T10:03:36.396Z</time></trkpt><trkpt lat="43.2100147" lon="12.2173228"><ele>446.8</ele><time>2026-03-29T10:03:37.398Z</time></trkpt><trkpt lat="43.2100813" lon="12.2173563"><ele>446.4</ele><time>2026-03-29T10:03:38.396Z</time></trkpt><trkpt lat="43.2101842" lon="12.2173478"><ele>446.0</ele><time>2026-03-29T10:03:39.397Z</time></trkpt><trkpt lat="43.2102895" lon="12.2173576"><ele>449.16666666666663</ele><time>2026-03-29T10:03:40.396Z</time></trkpt><trkpt lat="43.2103789" lon="12.2173826"><ele>452.3333333333333</ele><time>2026-03-29T10:03:41.396Z</time></trkpt><trkpt lat="43.2104628" lon="12.2174454"><ele>455.5</ele><time>2026-03-29T10:03:42.397Z</time></trkpt><trkpt lat="43.2105226" lon="12.2175206"><ele>458.66666666666663</ele><time>2026-03-29T10:03:43.397Z</time></trkpt><trkpt lat="43.2105763" lon="12.2176035"><ele>461.8333333333333</ele><time>2026-03-29T10:03:44.396Z</time></trkpt><trkpt lat="43.2105502" lon="12.2176903"><ele>465.0</ele><time>2026-03-29T10:03:45.397Z</time></trkpt><trkpt lat="43.2104651" lon="12.2178369"><ele>465.0</ele><time>2026-03-29T10:03:47.397Z</time></trkpt><trkpt lat="43.2103921" lon="12.2179428"><ele>465.0</ele><time>2026-03-29T10:03:48.397Z</time></trkpt><trkpt lat="43.2103122" lon="12.2180638"><ele>465.0</ele><time>2026-03-29T10:03:49.396Z</time></trkpt><trkpt lat="43.210214" lon="12.218198"><ele>465.0</ele><time>2026-03-29T10:03:50.395Z</time></trkpt><trkpt lat="43.2101445" lon="12.218338"><ele>467.25</ele><time>2026-03-29T10:03:51.396Z</time></trkpt><trkpt lat="43.2100794" lon="12.2184884"><ele>469.5</ele><time>2026-03-29T10:03:52.396Z</time></trkpt><trkpt lat="43.2100101" lon="12.2186261"><ele>471.75</ele><time>2026-03-29T10:03:53.395Z</time></trkpt><trkpt lat="43.2099291" lon="12.2187677"><ele>474.0</ele><time>2026-03-29T10:03:54.397Z</time></trkpt><trkpt lat="43.2098483" lon="12.2189052"><ele>478.25</ele><time>2026-03-29T10:03:55.396Z</time></trkpt><trkpt lat="43.209764" lon="12.2190583"><ele>482.5</ele><time>2026-03-29T10:03:56.396Z</time></trkpt><trkpt lat="43.2096782" lon="12.219206"><ele>486.75</ele><time>2026-03-29T10:03:57.396Z</time></trkpt><trkpt lat="43.2095981" lon="12.2193374"><ele>491.0</ele><time>2026-03-29T10:03:58.395Z</time></trkpt><trkpt lat="43.2095157" lon="12.2194472"><ele>491.0</ele><time>2026-03-29T10:03:59.396Z</time></trkpt><trkpt lat="43.2094356" lon="12.2194928"><ele>491.0</ele><time>2026-03-29T10:04:00.397Z</time></trkpt><trkpt lat="43.2093467" lon="12.219483"><ele>491.0</ele><time>2026-03-29T10:04:01.396Z</time></trkpt><trkpt lat="43.2092578" lon="12.2193971"><ele>491.0</ele><time>2026-03-29T10:04:02.397Z</time></trkpt><trkpt lat="43.2091666" lon="12.2193304"><ele>491.0</ele><time>2026-03-29T10:04:03.396Z</time></trkpt><trkpt lat="43.2090736" lon="12.2192599"><ele>490.3333333333333</ele><time>2026-03-29T10:04:04.398Z</time></trkpt><trkpt lat="43.2089859" lon="12.2191896"><ele>489.66666666666663</ele><time>2026-03-29T10:04:05.397Z</time></trkpt><trkpt lat="43.208909" lon="12.2191194"><ele>489.0</ele><time>2026-03-29T10:04:06.397Z</time></trkpt><trkpt lat="43.2088352" lon="12.2190521"><ele>488.33333333333337</ele><time>2026-03-29T10:04:07.397Z</time></trkpt><trkpt lat="43.208768" lon="12.2190024"><ele>487.6666666666667</ele><time>2026-03-29T10:04:08.396Z</time></trkpt><trkpt lat="43.2086978" lon="12.2189795"><ele>487.0</ele><time>2026-03-29T10:04:09.397Z</time></trkpt><trkpt lat="43.2085903" lon="12.2190205"><ele>487.0</ele><time>2026-03-29T10:04:11.395Z</time></trkpt><trkpt lat="43.2085019" lon="12.2191166"><ele>487.0</ele><time>2026-03-29T10:04:13.397Z</time></trkpt><trkpt lat="43.2084398" lon="12.2192211"><ele>487.0</ele><time>2026-03-29T10:04:14.395Z</time></trkpt><trkpt lat="43.2083702" lon="12.2193251"><ele>487.0</ele><time>2026-03-29T10:04:15.397Z</time></trkpt><trkpt lat="43.208264" lon="12.2194563"><ele>487.0</ele><time>2026-03-29T10:04:16.397Z</time></trkpt><trkpt lat="43.2081791" lon="12.2195835"><ele>487.0</ele><time>2026-03-29T10:04:17.397Z</time></trkpt><trkpt lat="43.2081064" lon="12.21971"><ele>487.0</ele><time>2026-03-29T10:04:18.396Z</time></trkpt><trkpt lat="43.2080385" lon="12.2198248"><ele>487.0</ele><time>2026-03-29T10:04:19.396Z</time></trkpt><trkpt lat="43.2079665" lon="12.2199352"><ele>491.40000000000003</ele><time>2026-03-29T10:04:20.397Z</time></trkpt><trkpt lat="43.207898" lon="12.2200353"><ele>495.80000000000007</ele><time>2026-03-29T10:04:21.395Z</time></trkpt><trkpt lat="43.2078349" lon="12.2201129"><ele>500.2</ele><time>2026-03-29T10:04:22.397Z</time></trkpt><trkpt lat="43.2077706" lon="12.2201918"><ele>504.6</ele><time>2026-03-29T10:04:23.397Z</time></trkpt><trkpt lat="43.2077026" lon="12.2202375"><ele>509.0</ele><time>2026-03-29T10:04:24.398Z</time></trkpt><trkpt lat="43.2076167" lon="12.220113"><ele>508.99999999999994</ele><time>2026-03-29T10:04:26.398Z</time></trkpt><trkpt lat="43.2075637" lon="12.2200333"><ele>509.0</ele><time>2026-03-29T10:04:27.397Z</time></trkpt><trkpt lat="43.2075077" lon="12.2199587"><ele>509.0</ele><time>2026-03-29T10:04:28.398Z</time></trkpt><trkpt lat="43.2074111" lon="12.2199774"><ele>509.0</ele><time>2026-03-29T10:04:29.396Z</time></trkpt><trkpt lat="43.2073387" lon="12.219995"><ele>508.99999999999994</ele><time>2026-03-29T10:04:30.396Z</time></trkpt><trkpt lat="43.2072677" lon="12.2200193"><ele>509.0</ele><time>2026-03-29T10:04:31.397Z</time></trkpt><trkpt lat="43.2071674" lon="12.2200922"><ele>510.25</ele><time>2026-03-29T10:04:32.398Z</time></trkpt><trkpt lat="43.2070664" lon="12.2201687"><ele>511.5</ele><time>2026-03-29T10:04:33.397Z</time></trkpt><trkpt lat="43.2069721" lon="12.2202514"><ele>512.75</ele><time>2026-03-29T10:04:34.395Z</time></trkpt><trkpt lat="43.2068779" lon="12.2203156"><ele>514.0</ele><time>2026-03-29T10:04:35.396Z</time></trkpt><trkpt lat="43.2067729" lon="12.2203962"><ele>514.0</ele><time>2026-03-29T10:04:36.397Z</time></trkpt><trkpt lat="43.2066683" lon="12.2204566"><ele>514.0</ele><time>2026-03-29T10:04:37.396Z</time></trkpt><trkpt lat="43.2065634" lon="12.2205101"><ele>514.0</ele><time>2026-03-29T10:04:38.398Z</time></trkpt><trkpt lat="43.20646" lon="12.2205713"><ele>514.0</ele><time>2026-03-29T10:04:39.397Z</time></trkpt><trkpt lat="43.2063627" lon="12.2206311"><ele>514.0</ele><time>2026-03-29T10:04:40.398Z</time></trkpt><trkpt lat="43.2062911" lon="12.2206352"><ele>515.0</ele><time>2026-03-29T10:04:41.397Z</time></trkpt><trkpt lat="43.2062131" lon="12.2206181"><ele>516.0</ele><time>2026-03-29T10:04:42.397Z</time></trkpt><trkpt lat="43.206131" lon="12.220584"><ele>517.0</ele><time>2026-03-29T10:04:43.397Z</time></trkpt><trkpt lat="43.2060355" lon="12.2205583"><ele>518.0</ele><time>2026-03-29T10:04:44.396Z</time></trkpt><trkpt lat="43.2059346" lon="12.2205661"><ele>519.0</ele><time>2026-03-29T10:04:45.397Z</time></trkpt><trkpt lat="43.2058303" lon="12.2205801"><ele>519.0</ele><time>2026-03-29T10:04:46.397Z</time></trkpt><trkpt lat="43.2057168" lon="12.2206486"><ele>519.0</ele><time>2026-03-29T10:04:47.396Z</time></trkpt><trkpt lat="43.2055879" lon="12.2207066"><ele>519.0</ele><time>2026-03-29T10:04:48.397Z</time></trkpt><trkpt lat="43.2054469" lon="12.2207542"><ele>519.0</ele><time>2026-03-29T10:04:49.397Z</time></trkpt><trkpt lat="43.2053204" lon="12.2207888"><ele>524.2</ele><time>2026-03-29T10:04:50.398Z</time></trkpt><trkpt lat="43.2051959" lon="12.220837"><ele>529.4</ele><time>2026-03-29T10:04:51.396Z</time></trkpt><trkpt lat="43.2051159" lon="12.2209096"><ele>534.6</ele><time>2026-03-29T10:04:52.396Z</time></trkpt><trkpt lat="43.2050365" lon="12.2209894"><ele>539.8</ele><time>2026-03-29T10:04:53.397Z</time></trkpt><trkpt lat="43.2049768" lon="12.2210825"><ele>545.0</ele><time>2026-03-29T10:04:54.397Z</time></trkpt><trkpt lat="43.2049399" lon="12.2211743"><ele>545.0</ele><time>2026-03-29T10:04:55.398Z</time></trkpt><trkpt lat="43.2049687" lon="12.2213385"><ele>545.0</ele><time>2026-03-29T10:04:57.397Z</time></trkpt><trkpt lat="43.2050883" lon="12.2214145"><ele>545.0</ele><time>2026-03-29T10:04:59.397Z</time></trkpt><trkpt lat="43.2051544" lon="12.2214406"><ele>545.0</ele><time>2026-03-29T10:05:00.397Z</time></trkpt><trkpt lat="43.2051772" lon="12.2215566"><ele>545.0</ele><time>2026-03-29T10:05:02.398Z</time></trkpt><trkpt lat="43.2050801" lon="12.2217409"><ele>547.8</ele><time>2026-03-29T10:05:04.396Z</time></trkpt><trkpt lat="43.2050158" lon="12.2218285"><ele>550.6</ele><time>2026-03-29T10:05:05.396Z</time></trkpt><trkpt lat="43.2049555" lon="12.2219313"><ele>553.4</ele><time>2026-03-29T10:05:06.396Z</time></trkpt><trkpt lat="43.2048903" lon="12.2220341"><ele>556.2</ele><time>2026-03-29T10:05:07.398Z</time></trkpt><trkpt lat="43.2048072" lon="12.2221293"><ele>559.0</ele><time>2026-03-29T10:05:08.396Z</time></trkpt><trkpt lat="43.2047173" lon="12.2222057"><ele>559.8</ele><time>2026-03-29T10:05:09.398Z</time></trkpt><trkpt lat="43.2046193" lon="12.2222587"><ele>560.5999999999999</ele><time>2026-03-29T10:05:10.397Z</time></trkpt><trkpt lat="43.2045148" lon="12.2222979"><ele>561.4</ele><time>2026-03-29T10:05:11.398Z</time></trkpt><trkpt lat="43.2044162" lon="12.2223446"><ele>562.1999999999999</ele><time>2026-03-29T10:05:12.396Z</time></trkpt><trkpt lat="43.2043165" lon="12.2223955"><ele>563.0</ele><time>2026-03-29T10:05:13.397Z</time></trkpt><trkpt lat="43.2042106" lon="12.2224623"><ele>566.5</ele><time>2026-03-29T10:05:14.397Z</time></trkpt><trkpt lat="43.204105" lon="12.2225304"><ele>570.0</ele><time>2026-03-29T10:05:15.397Z</time></trkpt><trkpt lat="43.2039957" lon="12.2226016"><ele>573.5</ele><time>2026-03-29T10:05:16.396Z</time></trkpt><trkpt lat="43.2038964" lon="12.2226813"><ele>577.0</ele><time>2026-03-29T10:05:17.396Z</time></trkpt><trkpt lat="43.2037981" lon="12.2227731"><ele>577.5</ele><time>2026-03-29T10:05:18.397Z</time></trkpt><trkpt lat="43.2037035" lon="12.2228698"><ele>578.0</ele><time>2026-03-29T10:05:19.397Z</time></trkpt><trkpt lat="43.2036121" lon="12.222976"><ele>578.5</ele><time>2026-03-29T10:05:20.398Z</time></trkpt><trkpt lat="43.2035107" lon="12.2230631"><ele>579.0</ele><time>2026-03-29T10:05:21.396Z</time></trkpt><trkpt lat="43.2033852" lon="12.223138"><ele>583.5</ele><time>2026-03-29T10:05:22.398Z</time></trkpt><trkpt lat="43.2032516" lon="12.2232005"><ele>588.0</ele><time>2026-03-29T10:05:23.397Z</time></trkpt><trkpt lat="43.2031296" lon="12.2232621"><ele>592.5</ele><time>2026-03-29T10:05:24.397Z</time></trkpt><trkpt lat="43.2030097" lon="12.2233061"><ele>597.0</ele><time>2026-03-29T10:05:25.397Z</time></trkpt><trkpt lat="43.2029121" lon="12.2233008"><ele>597.5</ele><time>2026-03-29T10:05:26.398Z</time></trkpt><trkpt lat="43.2028161" lon="12.2232868"><ele>598.0</ele><time>2026-03-29T10:05:27.396Z</time></trkpt><trkpt lat="43.2027356" lon="12.2232534"><ele>598.5</ele><time>2026-03-29T10:05:28.397Z</time></trkpt><trkpt lat="43.2026448" lon="12.2232696"><ele>599.0</ele><time>2026-03-29T10:05:29.398Z</time></trkpt><trkpt lat="43.2025677" lon="12.2233072"><ele>599.5</ele><time>2026-03-29T10:05:30.397Z</time></trkpt><trkpt lat="43.2025093" lon="12.2233855"><ele>600.0</ele><time>2026-03-29T10:05:31.397Z</time></trkpt><trkpt lat="43.2024654" lon="12.2234901"><ele>600.0</ele><time>2026-03-29T10:05:32.398Z</time></trkpt><trkpt lat="43.2024251" lon="12.2236019"><ele>600.0</ele><time>2026-03-29T10:05:33.396Z</time></trkpt><trkpt lat="43.2023774" lon="12.2236841"><ele>600.0</ele><time>2026-03-29T10:05:34.397Z</time></trkpt><trkpt lat="43.2023216" lon="12.2237498"><ele>600.0</ele><time>2026-03-29T10:05:35.397Z</time></trkpt><trkpt lat="43.2022367" lon="12.223735"><ele>600.0</ele><time>2026-03-29T10:05:36.396Z</time></trkpt><trkpt lat="43.2021561" lon="12.2237407"><ele>600.0</ele><time>2026-03-29T10:05:37.397Z</time></trkpt><trkpt lat="43.2020956" lon="12.2237874"><ele>601.6</ele><time>2026-03-29T10:05:38.397Z</time></trkpt><trkpt lat="43.2020579" lon="12.2239512"><ele>603.2</ele><time>2026-03-29T10:05:40.397Z</time></trkpt><trkpt lat="43.2020389" lon="12.2240916"><ele>604.8</ele><time>2026-03-29T10:05:42.398Z</time></trkpt><trkpt lat="43.2019793" lon="12.2241791"><ele>606.4</ele><time>2026-03-29T10:05:44.398Z</time></trkpt><trkpt lat="43.2019162" lon="12.2242221"><ele>608.0</ele><time>2026-03-29T10:05:45.397Z</time></trkpt><trkpt lat="43.2018525" lon="12.2242685"><ele>612.4</ele><time>2026-03-29T10:05:46.396Z</time></trkpt><trkpt lat="43.2017785" lon="12.2243444"><ele>616.8</ele><time>2026-03-29T10:05:47.397Z</time></trkpt><trkpt lat="43.2017106" lon="12.2244126"><ele>621.2</ele><time>2026-03-29T10:05:48.397Z</time></trkpt><trkpt lat="43.2016369" lon="12.2245075"><ele>625.6</ele><time>2026-03-29T10:05:49.397Z</time></trkpt><trkpt lat="43.2015646" lon="12.2245907"><ele>630.0</ele><time>2026-03-29T10:05:50.398Z</time></trkpt><trkpt lat="43.2014938" lon="12.2246344"><ele>630.2</ele><time>2026-03-29T10:05:51.395Z</time></trkpt><trkpt lat="43.2013837" lon="12.2246703"><ele>630.4</ele><time>2026-03-29T10:05:52.397Z</time></trkpt><trkpt lat="43.2012799" lon="12.2246997"><ele>630.6</ele><time>2026-03-29T10:05:53.397Z</time></trkpt><trkpt lat="43.2011862" lon="12.2247336"><ele>630.8</ele><time>2026-03-29T10:05:54.396Z</time></trkpt><trkpt lat="43.2010944" lon="12.2247678"><ele>631.0</ele><time>2026-03-29T10:05:55.396Z</time></trkpt><trkpt lat="43.2009859" lon="12.2247909"><ele>631.0</ele><time>2026-03-29T10:05:56.397Z</time></trkpt><trkpt lat="43.200883" lon="12.2247868"><ele>631.0</ele><time>2026-03-29T10:05:57.397Z</time></trkpt><trkpt lat="43.2007801" lon="12.2247743"><ele>631.0</ele><time>2026-03-29T10:05:58.396Z</time></trkpt><trkpt lat="43.2006685" lon="12.2247495"><ele>631.0</ele><time>2026-03-29T10:05:59.397Z</time></trkpt><trkpt lat="43.2005528" lon="12.2247294"><ele>631.0</ele><time>2026-03-29T10:06:00.398Z</time></trkpt><trkpt lat="43.2004396" lon="12.2247115"><ele>635.0</ele><time>2026-03-29T10:06:01.398Z</time></trkpt><trkpt lat="43.2003362" lon="12.22469"><ele>639.0</ele><time>2026-03-29T10:06:02.398Z</time></trkpt><trkpt lat="43.2002372" lon="12.2246704"><ele>643.0</ele><time>2026-03-29T10:06:03.397Z</time></trkpt><trkpt lat="43.2001454" lon="12.2246513"><ele>647.0</ele><time>2026-03-29T10:06:04.397Z</time></trkpt><trkpt lat="43.2000501" lon="12.2246232"><ele>651.0</ele><time>2026-03-29T10:06:06.396Z</time></trkpt><trkpt lat="43.1999839" lon="12.2246788"><ele>651.0</ele><time>2026-03-29T10:06:09.397Z</time></trkpt><trkpt lat="43.2000067" lon="12.2248106"><ele>651.0</ele><time>2026-03-29T10:06:12.396Z</time></trkpt><trkpt lat="43.2000379" lon="12.2249049"><ele>651.0</ele><time>2026-03-29T10:06:14.397Z</time></trkpt><trkpt lat="43.200078" lon="12.2249946"><ele>651.0</ele><time>2026-03-29T10:06:17.396Z</time></trkpt><trkpt lat="43.2001113" lon="12.2250735"><ele>651.0</ele><time>2026-03-29T10:06:22.396Z</time></trkpt><trkpt lat="43.2001397" lon="12.2251652"><ele>651.0</ele><time>2026-03-29T10:06:24.397Z</time></trkpt><trkpt lat="43.2001855" lon="12.225239"><ele>651.3333333333334</ele><time>2026-03-29T10:06:25.397Z</time></trkpt><trkpt lat="43.2002233" lon="12.2253849"><ele>651.6666666666666</ele><time>2026-03-29T10:06:27.398Z</time></trkpt><trkpt lat="43.2002431" lon="12.2254865"><ele>652.0</ele><time>2026-03-29T10:06:28.397Z</time></trkpt><trkpt lat="43.2002622" lon="12.225595"><ele>652.3333333333333</ele><time>2026-03-29T10:06:29.399Z</time></trkpt><trkpt lat="43.2002662" lon="12.2256987"><ele>652.6666666666666</ele><time>2026-03-29T10:06:30.398Z</time></trkpt><trkpt lat="43.2002779" lon="12.2258028"><ele>653.0</ele><time>2026-03-29T10:06:31.397Z</time></trkpt><trkpt lat="43.2002884" lon="12.2259058"><ele>653.0</ele><time>2026-03-29T10:06:32.396Z</time></trkpt><trkpt lat="43.2002974" lon="12.2260108"><ele>653.0</ele><time>2026-03-29T10:06:33.397Z</time></trkpt><trkpt lat="43.2003069" lon="12.2261282"><ele>653.0</ele><time>2026-03-29T10:06:34.397Z</time></trkpt><trkpt lat="43.2003095" lon="12.2262478"><ele>653.0</ele><time>2026-03-29T10:06:35.396Z</time></trkpt><trkpt lat="43.2003156" lon="12.2263682"><ele>653.0</ele><time>2026-03-29T10:06:36.397Z</time></trkpt><trkpt lat="43.200322" lon="12.2264964"><ele>653.0</ele><time>2026-03-29T10:06:37.397Z</time></trkpt><trkpt lat="43.2003335" lon="12.2266239"><ele>653.4</ele><time>2026-03-29T10:06:38.396Z</time></trkpt><trkpt lat="43.2003493" lon="12.2267481"><ele>653.8</ele><time>2026-03-29T10:06:39.398Z</time></trkpt><trkpt lat="43.2003625" lon="12.2268769"><ele>654.2</ele><time>2026-03-29T10:06:40.397Z</time></trkpt><trkpt lat="43.2003736" lon="12.227017"><ele>654.6</ele><time>2026-03-29T10:06:41.396Z</time></trkpt><trkpt lat="43.200382" lon="12.2271536"><ele>655.0</ele><time>2026-03-29T10:06:42.398Z</time></trkpt><trkpt lat="43.2003906" lon="12.2272874"><ele>655.8</ele><time>2026-03-29T10:06:43.398Z</time></trkpt><trkpt lat="43.2004032" lon="12.2274302"><ele>656.6</ele><time>2026-03-29T10:06:44.396Z</time></trkpt><trkpt lat="43.200414" lon="12.2275741"><ele>657.4000000000001</ele><time>2026-03-29T10:06:45.397Z</time></trkpt><trkpt lat="43.2004358" lon="12.2277152"><ele>658.2</ele><time>2026-03-29T10:06:46.397Z</time></trkpt><trkpt lat="43.2004712" lon="12.2278516"><ele>659.0</ele><time>2026-03-29T10:06:47.397Z</time></trkpt><trkpt lat="43.2005215" lon="12.2279878"><ele>659.0</ele><time>2026-03-29T10:06:48.397Z</time></trkpt><trkpt lat="43.2005781" lon="12.2281082"><ele>659.0</ele><time>2026-03-29T10:06:49.396Z</time></trkpt><trkpt lat="43.200644" lon="12.2282338"><ele>659.0</ele><time>2026-03-29T10:06:50.398Z</time></trkpt><trkpt lat="43.2007171" lon="12.2283549"><ele>659.0</ele><time>2026-03-29T10:06:51.397Z</time></trkpt><trkpt lat="43.2007754" lon="12.228484"><ele>659.0</ele><time>2026-03-29T10:06:52.398Z</time></trkpt><trkpt lat="43.200827" lon="12.228612"><ele>661.2</ele><time>2026-03-29T10:06:53.397Z</time></trkpt><trkpt lat="43.2008603" lon="12.2287412"><ele>663.4000000000001</ele><time>2026-03-29T10:06:54.397Z</time></trkpt><trkpt lat="43.200843" lon="12.228908"><ele>665.6</ele><time>2026-03-29T10:06:55.396Z</time></trkpt><trkpt lat="43.2008273" lon="12.2290551"><ele>667.8</ele><time>2026-03-29T10:06:56.396Z</time></trkpt><trkpt lat="43.2007921" lon="12.2291906"><ele>670.0</ele><time>2026-03-29T10:06:57.396Z</time></trkpt><trkpt lat="43.2007436" lon="12.2293023"><ele>666.5</ele><time>2026-03-29T10:06:58.397Z</time></trkpt><trkpt lat="43.2006636" lon="12.2293971"><ele>663.0</ele><time>2026-03-29T10:06:59.399Z</time></trkpt><trkpt lat="43.2005657" lon="12.2294593"><ele>659.5</ele><time>2026-03-29T10:07:00.397Z</time></trkpt><trkpt lat="43.2004495" lon="12.2294996"><ele>656.0</ele><time>2026-03-29T10:07:01.397Z</time></trkpt><trkpt lat="43.2003299" lon="12.2295413"><ele>656.0</ele><time>2026-03-29T10:07:02.397Z</time></trkpt><trkpt lat="43.2002137" lon="12.2295832"><ele>656.0</ele><time>2026-03-29T10:07:03.397Z</time></trkpt><trkpt lat="43.2001009" lon="12.2296046"><ele>656.0</ele><time>2026-03-29T10:07:04.397Z</time></trkpt><trkpt lat="43.1999888" lon="12.2296344"><ele>656.0</ele><time>2026-03-29T10:07:05.397Z</time></trkpt><trkpt lat="43.1999018" lon="12.2297001"><ele>656.0</ele><time>2026-03-29T10:07:06.397Z</time></trkpt><trkpt lat="43.1998169" lon="12.2297815"><ele>655.8</ele><time>2026-03-29T10:07:07.396Z</time></trkpt><trkpt lat="43.1997521" lon="12.2298723"><ele>655.5999999999999</ele><time>2026-03-29T10:07:08.397Z</time></trkpt><trkpt lat="43.1997112" lon="12.2299848"><ele>655.4</ele><time>2026-03-29T10:07:09.397Z</time></trkpt><trkpt lat="43.1997016" lon="12.2301098"><ele>655.2</ele><time>2026-03-29T10:07:10.396Z</time></trkpt><trkpt lat="43.1997292" lon="12.2302346"><ele>655.0</ele><time>2026-03-29T10:07:11.398Z</time></trkpt><trkpt lat="43.1997794" lon="12.2303439"><ele>655.5</ele><time>2026-03-29T10:07:12.396Z</time></trkpt><trkpt lat="43.1998544" lon="12.2304681"><ele>656.0</ele><time>2026-03-29T10:07:13.397Z</time></trkpt><trkpt lat="43.1999346" lon="12.2305938"><ele>656.5</ele><time>2026-03-29T10:07:14.397Z</time></trkpt><trkpt lat="43.2000212" lon="12.2307159"><ele>657.0</ele><time>2026-03-29T10:07:15.397Z</time></trkpt><trkpt lat="43.2001114" lon="12.230844"><ele>657.0</ele><time>2026-03-29T10:07:16.397Z</time></trkpt><trkpt lat="43.2002201" lon="12.2309678"><ele>657.0</ele><time>2026-03-29T10:07:17.396Z</time></trkpt><trkpt lat="43.2003422" lon="12.231071"><ele>657.0</ele><time>2026-03-29T10:07:18.399Z</time></trkpt><trkpt lat="43.2004734" lon="12.2311535"><ele>657.0</ele><time>2026-03-29T10:07:19.396Z</time></trkpt><trkpt lat="43.2006139" lon="12.2312089"><ele>658.25</ele><time>2026-03-29T10:07:20.398Z</time></trkpt><trkpt lat="43.2007526" lon="12.2312403"><ele>659.5</ele><time>2026-03-29T10:07:21.397Z</time></trkpt><trkpt lat="43.2008934" lon="12.2312687"><ele>660.75</ele><time>2026-03-29T10:07:22.397Z</time></trkpt><trkpt lat="43.2010358" lon="12.2312902"><ele>662.0</ele><time>2026-03-29T10:07:23.398Z</time></trkpt><trkpt lat="43.2011598" lon="12.2313205"><ele>662.0</ele><time>2026-03-29T10:07:24.398Z</time></trkpt><trkpt lat="43.2012811" lon="12.2313582"><ele>662.0</ele><time>2026-03-29T10:07:25.397Z</time></trkpt><trkpt lat="43.2013772" lon="12.2314373"><ele>662.0</ele><time>2026-03-29T10:07:26.397Z</time></trkpt><trkpt lat="43.2014533" lon="12.2315674"><ele>662.0</ele><time>2026-03-29T10:07:27.397Z</time></trkpt><trkpt lat="43.2015236" lon="12.2317159"><ele>654.3333333333333</ele><time>2026-03-29T10:07:28.396Z</time></trkpt><trkpt lat="43.2014807" lon="12.2319014"><ele>646.6666666666666</ele><time>2026-03-29T10:07:29.396Z</time></trkpt><trkpt lat="43.2014157" lon="12.2321236"><ele>639.0</ele><time>2026-03-29T10:07:30.396Z</time></trkpt><trkpt lat="43.2013876" lon="12.2323326"><ele>635.5</ele><time>2026-03-29T10:07:31.397Z</time></trkpt><trkpt lat="43.2013588" lon="12.2325204"><ele>632.0</ele><time>2026-03-29T10:07:32.396Z</time></trkpt><trkpt lat="43.2013472" lon="12.2327237"><ele>628.5</ele><time>2026-03-29T10:07:33.397Z</time></trkpt><trkpt lat="43.2013499" lon="12.2329201"><ele>625.0</ele><time>2026-03-29T10:07:34.396Z</time></trkpt><trkpt lat="43.2013687" lon="12.2331239"><ele>625.0</ele><time>2026-03-29T10:07:35.398Z</time></trkpt><trkpt lat="43.2013993" lon="12.2333265"><ele>625.0</ele><time>2026-03-29T10:07:36.397Z</time></trkpt><trkpt lat="43.2014364" lon="12.233537"><ele>625.0</ele><time>2026-03-29T10:07:37.397Z</time></trkpt><trkpt lat="43.2014663" lon="12.233746"><ele>628.6666666666667</ele><time>2026-03-29T10:07:38.397Z</time></trkpt><trkpt lat="43.2014992" lon="12.2339472"><ele>632.3333333333334</ele><time>2026-03-29T10:07:39.398Z</time></trkpt><trkpt lat="43.201533" lon="12.2341517"><ele>636.0</ele><time>2026-03-29T10:07:40.397Z</time></trkpt><trkpt lat="43.2015665" lon="12.2343509"><ele>637.25</ele><time>2026-03-29T10:07:41.397Z</time></trkpt><trkpt lat="43.2015989" lon="12.2345463"><ele>638.5</ele><time>2026-03-29T10:07:42.396Z</time></trkpt><trkpt lat="43.2016274" lon="12.2347438"><ele>639.75</ele><time>2026-03-29T10:07:43.397Z</time></trkpt><trkpt lat="43.2016584" lon="12.2349454"><ele>641.0</ele><time>2026-03-29T10:07:44.399Z</time></trkpt><trkpt lat="43.2016925" lon="12.235151"><ele>641.3333333333333</ele><time>2026-03-29T10:07:45.397Z</time></trkpt><trkpt lat="43.2017278" lon="12.2353653"><ele>641.6666666666666</ele><time>2026-03-29T10:07:46.397Z</time></trkpt><trkpt lat="43.201767" lon="12.2355872"><ele>642.0</ele><time>2026-03-29T10:07:47.398Z</time></trkpt><trkpt lat="43.2018095" lon="12.2358036"><ele>642.0</ele><time>2026-03-29T10:07:48.398Z</time></trkpt><trkpt lat="43.2018619" lon="12.2360359"><ele>642.0</ele><time>2026-03-29T10:07:49.398Z</time></trkpt><trkpt lat="43.2019258" lon="12.2362667"><ele>642.0</ele><time>2026-03-29T10:07:50.399Z</time></trkpt><trkpt lat="43.2019964" lon="12.2365034"><ele>641.0</ele><time>2026-03-29T10:07:51.398Z</time></trkpt><trkpt lat="43.2020697" lon="12.2367474"><ele>640.0</ele><time>2026-03-29T10:07:52.398Z</time></trkpt><trkpt lat="43.2021279" lon="12.2369885"><ele>639.0</ele><time>2026-03-29T10:07:53.398Z</time></trkpt><trkpt lat="43.2021796" lon="12.2372141"><ele>638.6666666666666</ele><time>2026-03-29T10:07:54.397Z</time></trkpt><trkpt lat="43.2022138" lon="12.2374263"><ele>638.3333333333333</ele><time>2026-03-29T10:07:55.399Z</time></trkpt><trkpt lat="43.2022553" lon="12.2376312"><ele>638.0</ele><time>2026-03-29T10:07:56.398Z</time></trkpt><trkpt lat="43.2022894" lon="12.2378366"><ele>638.0</ele><time>2026-03-29T10:07:57.397Z</time></trkpt><trkpt lat="43.2023269" lon="12.2380385"><ele>638.0</ele><time>2026-03-29T10:07:58.398Z</time></trkpt><trkpt lat="43.2023631" lon="12.2382481"><ele>638.0</ele><time>2026-03-29T10:07:59.397Z</time></trkpt><trkpt lat="43.2024055" lon="12.2384508"><ele>641.5</ele><time>2026-03-29T10:08:00.397Z</time></trkpt><trkpt lat="43.2024519" lon="12.2386358"><ele>645.0</ele><time>2026-03-29T10:08:01.397Z</time></trkpt><trkpt lat="43.2025052" lon="12.2388"><ele>648.5</ele><time>2026-03-29T10:08:02.396Z</time></trkpt><trkpt lat="43.202562" lon="12.2389514"><ele>652.0</ele><time>2026-03-29T10:08:03.396Z</time></trkpt><trkpt lat="43.2026168" lon="12.2390898"><ele>652.0</ele><time>2026-03-29T10:08:04.397Z</time></trkpt><trkpt lat="43.2026681" lon="12.2392135"><ele>652.0</ele><time>2026-03-29T10:08:05.397Z</time></trkpt><trkpt lat="43.2027122" lon="12.2393264"><ele>652.0</ele><time>2026-03-29T10:08:06.396Z</time></trkpt><trkpt lat="43.2027444" lon="12.2394355"><ele>652.0</ele><time>2026-03-29T10:08:07.397Z</time></trkpt><trkpt lat="43.2027709" lon="12.2395427"><ele>652.0</ele><time>2026-03-29T10:08:08.398Z</time></trkpt><trkpt lat="43.2027355" lon="12.2396526"><ele>652.0</ele><time>2026-03-29T10:08:09.397Z</time></trkpt><trkpt lat="43.2026884" lon="12.2397739"><ele>652.0</ele><time>2026-03-29T10:08:10.397Z</time></trkpt><trkpt lat="43.2026298" lon="12.2399042"><ele>652.0</ele><time>2026-03-29T10:08:11.398Z</time></trkpt><trkpt lat="43.2025575" lon="12.2400508"><ele>652.0</ele><time>2026-03-29T10:08:12.397Z</time></trkpt><trkpt lat="43.2024917" lon="12.2401858"><ele>652.2</ele><time>2026-03-29T10:08:13.398Z</time></trkpt><trkpt lat="43.2024191" lon="12.240301"><ele>652.4000000000001</ele><time>2026-03-29T10:08:14.396Z</time></trkpt><trkpt lat="43.2023558" lon="12.2403889"><ele>652.5999999999999</ele><time>2026-03-29T10:08:15.398Z</time></trkpt><trkpt lat="43.2023078" lon="12.2404945"><ele>652.8</ele><time>2026-03-29T10:08:16.397Z</time></trkpt><trkpt lat="43.2023149" lon="12.240594"><ele>653.0</ele><time>2026-03-29T10:08:17.397Z</time></trkpt><trkpt lat="43.2023417" lon="12.2407255"><ele>652.5999999999999</ele><time>2026-03-29T10:08:18.396Z</time></trkpt><trkpt lat="43.2023895" lon="12.240849"><ele>652.1999999999999</ele><time>2026-03-29T10:08:19.397Z</time></trkpt><trkpt lat="43.2024538" lon="12.2409599"><ele>651.8</ele><time>2026-03-29T10:08:20.396Z</time></trkpt><trkpt lat="43.2025363" lon="12.241056"><ele>651.4</ele><time>2026-03-29T10:08:21.397Z</time></trkpt><trkpt lat="43.2026213" lon="12.2411267"><ele>651.0</ele><time>2026-03-29T10:08:22.397Z</time></trkpt><trkpt lat="43.202706" lon="12.2411981"><ele>651.0</ele><time>2026-03-29T10:08:23.396Z</time></trkpt><trkpt lat="43.2027999" lon="12.2412584"><ele>651.0</ele><time>2026-03-29T10:08:24.397Z</time></trkpt><trkpt lat="43.2028958" lon="12.2413418"><ele>651.0</ele><time>2026-03-29T10:08:25.396Z</time></trkpt><trkpt lat="43.2029937" lon="12.2414281"><ele>651.0</ele><time>2026-03-29T10:08:26.397Z</time></trkpt><trkpt lat="43.2030873" lon="12.2414933"><ele>651.0</ele><time>2026-03-29T10:08:27.398Z</time></trkpt><trkpt lat="43.2031822" lon="12.241575"><ele>649.0</ele><time>2026-03-29T10:08:28.398Z</time></trkpt><trkpt lat="43.2032755" lon="12.2416703"><ele>647.0</ele><time>2026-03-29T10:08:29.396Z</time></trkpt><trkpt lat="43.203371" lon="12.2417762"><ele>645.0</ele><time>2026-03-29T10:08:30.396Z</time></trkpt><trkpt lat="43.203471" lon="12.2418725"><ele>643.0</ele><time>2026-03-29T10:08:31.398Z</time></trkpt><trkpt lat="43.2035633" lon="12.2419385"><ele>643.0</ele><time>2026-03-29T10:08:32.398Z</time></trkpt><trkpt lat="43.2036529" lon="12.2419952"><ele>643.0</ele><time>2026-03-29T10:08:33.399Z</time></trkpt><trkpt lat="43.2037199" lon="12.2420956"><ele>643.0</ele><time>2026-03-29T10:08:34.397Z</time></trkpt><trkpt lat="43.2037612" lon="12.2422294"><ele>643.0</ele><time>2026-03-29T10:08:35.397Z</time></trkpt><trkpt lat="43.2037801" lon="12.2423812"><ele>643.0</ele><time>2026-03-29T10:08:36.397Z</time></trkpt><trkpt lat="43.2038104" lon="12.2425214"><ele>638.8</ele><time>2026-03-29T10:08:37.397Z</time></trkpt><trkpt lat="43.2038111" lon="12.2426307"><ele>634.5999999999999</ele><time>2026-03-29T10:08:38.397Z</time></trkpt><trkpt lat="43.2038066" lon="12.242745"><ele>630.4000000000001</ele><time>2026-03-29T10:08:39.397Z</time></trkpt><trkpt lat="43.2037123" lon="12.2428842"><ele>626.2</ele><time>2026-03-29T10:08:41.397Z</time></trkpt><trkpt lat="43.203592" lon="12.2429167"><ele>622.0</ele><time>2026-03-29T10:08:42.397Z</time></trkpt><trkpt lat="43.2034713" lon="12.242971"><ele>622.0</ele><time>2026-03-29T10:08:43.398Z</time></trkpt><trkpt lat="43.2033398" lon="12.2430281"><ele>622.0</ele><time>2026-03-29T10:08:44.398Z</time></trkpt><trkpt lat="43.2032019" lon="12.2430968"><ele>622.0</ele><time>2026-03-29T10:08:45.397Z</time></trkpt><trkpt lat="43.2030751" lon="12.2431643"><ele>622.0</ele><time>2026-03-29T10:08:46.397Z</time></trkpt><trkpt lat="43.2029488" lon="12.2432242"><ele>618.25</ele><time>2026-03-29T10:08:47.398Z</time></trkpt><trkpt lat="43.202828" lon="12.2432957"><ele>614.5</ele><time>2026-03-29T10:08:48.396Z</time></trkpt><trkpt lat="43.2027351" lon="12.2433896"><ele>610.75</ele><time>2026-03-29T10:08:49.397Z</time></trkpt><trkpt lat="43.2026929" lon="12.243558"><ele>607.0</ele><time>2026-03-29T10:08:50.396Z</time></trkpt><trkpt lat="43.2026352" lon="12.2436559"><ele>607.0</ele><time>2026-03-29T10:08:51.398Z</time></trkpt><trkpt lat="43.2025783" lon="12.2437049"><ele>607.0</ele><time>2026-03-29T10:08:52.397Z</time></trkpt><trkpt lat="43.20251" lon="12.2437201"><ele>607.0</ele><time>2026-03-29T10:08:53.398Z</time></trkpt><trkpt lat="43.2024344" lon="12.2437343"><ele>607.0</ele><time>2026-03-29T10:08:54.397Z</time></trkpt><trkpt lat="43.2023537" lon="12.2437455"><ele>607.0</ele><time>2026-03-29T10:08:55.399Z</time></trkpt><trkpt lat="43.2022729" lon="12.2437675"><ele>607.0</ele><time>2026-03-29T10:08:56.396Z</time></trkpt><trkpt lat="43.2021994" lon="12.243788"><ele>604.0</ele><time>2026-03-29T10:08:57.398Z</time></trkpt><trkpt lat="43.2021098" lon="12.2439021"><ele>601.0</ele><time>2026-03-29T10:08:58.398Z</time></trkpt><trkpt lat="43.2020158" lon="12.2440308"><ele>598.0</ele><time>2026-03-29T10:08:59.398Z</time></trkpt><trkpt lat="43.2019384" lon="12.2441648"><ele>595.0</ele><time>2026-03-29T10:09:00.399Z</time></trkpt><trkpt lat="43.2018631" lon="12.2443352"><ele>595.0</ele><time>2026-03-29T10:09:01.398Z</time></trkpt><trkpt lat="43.2018066" lon="12.2444606"><ele>595.0</ele><time>2026-03-29T10:09:02.397Z</time></trkpt><trkpt lat="43.2017514" lon="12.2446008"><ele>595.0</ele><time>2026-03-29T10:09:03.399Z</time></trkpt><trkpt lat="43.2017256" lon="12.2447116"><ele>595.0</ele><time>2026-03-29T10:09:04.399Z</time></trkpt><trkpt lat="43.2017137" lon="12.2448173"><ele>595.0</ele><time>2026-03-29T10:09:05.396Z</time></trkpt><trkpt lat="43.2018311" lon="12.2449745"><ele>595.5</ele><time>2026-03-29T10:09:07.397Z</time></trkpt><trkpt lat="43.2018913" lon="12.2451008"><ele>596.0</ele><time>2026-03-29T10:09:08.397Z</time></trkpt><trkpt lat="43.2019248" lon="12.2452527"><ele>596.5</ele><time>2026-03-29T10:09:09.399Z</time></trkpt><trkpt lat="43.2019356" lon="12.2454221"><ele>597.0</ele><time>2026-03-29T10:09:10.398Z</time></trkpt><trkpt lat="43.2019539" lon="12.2455896"><ele>594.25</ele><time>2026-03-29T10:09:11.398Z</time></trkpt><trkpt lat="43.2019776" lon="12.2457559"><ele>591.5</ele><time>2026-03-29T10:09:12.397Z</time></trkpt><trkpt lat="43.2020032" lon="12.2459002"><ele>588.75</ele><time>2026-03-29T10:09:13.399Z</time></trkpt><trkpt lat="43.202017" lon="12.2460543"><ele>586.0</ele><time>2026-03-29T10:09:14.398Z</time></trkpt><trkpt lat="43.2019977" lon="12.2462204"><ele>586.0</ele><time>2026-03-29T10:09:15.397Z</time></trkpt><trkpt lat="43.2019636" lon="12.2463893"><ele>586.0</ele><time>2026-03-29T10:09:16.396Z</time></trkpt><trkpt lat="43.2018981" lon="12.2465332"><ele>586.0</ele><time>2026-03-29T10:09:17.397Z</time></trkpt><trkpt lat="43.2018513" lon="12.2466905"><ele>586.0</ele><time>2026-03-29T10:09:18.397Z</time></trkpt><trkpt lat="43.2018142" lon="12.2468372"><ele>586.2</ele><time>2026-03-29T10:09:19.396Z</time></trkpt><trkpt lat="43.2018065" lon="12.2469909"><ele>586.4000000000001</ele><time>2026-03-29T10:09:20.398Z</time></trkpt><trkpt lat="43.2018068" lon="12.2471309"><ele>586.6</ele><time>2026-03-29T10:09:21.398Z</time></trkpt><trkpt lat="43.2018263" lon="12.247258"><ele>586.8000000000001</ele><time>2026-03-29T10:09:22.396Z</time></trkpt><trkpt lat="43.2018585" lon="12.2473675"><ele>587.0</ele><time>2026-03-29T10:09:23.397Z</time></trkpt><trkpt lat="43.2018758" lon="12.2474852"><ele>587.8333333333333</ele><time>2026-03-29T10:09:24.398Z</time></trkpt><trkpt lat="43.2019025" lon="12.2476323"><ele>588.6666666666666</ele><time>2026-03-29T10:09:26.397Z</time></trkpt><trkpt lat="43.2018743" lon="12.2477139"><ele>589.5</ele><time>2026-03-29T10:09:27.396Z</time></trkpt><trkpt lat="43.2018373" lon="12.2478077"><ele>590.3333333333334</ele><time>2026-03-29T10:09:28.398Z</time></trkpt><trkpt lat="43.2017953" lon="12.2479167"><ele>591.1666666666667</ele><time>2026-03-29T10:09:29.398Z</time></trkpt><trkpt lat="43.2017545" lon="12.2480317"><ele>592.0</ele><time>2026-03-29T10:09:30.398Z</time></trkpt><trkpt lat="43.2017322" lon="12.2481596"><ele>592.0</ele><time>2026-03-29T10:09:31.398Z</time></trkpt><trkpt lat="43.2017167" lon="12.2482995"><ele>592.0</ele><time>2026-03-29T10:09:32.399Z</time></trkpt><trkpt lat="43.2017039" lon="12.2484609"><ele>592.0</ele><time>2026-03-29T10:09:33.397Z</time></trkpt><trkpt lat="43.2016921" lon="12.2486325"><ele>592.0</ele><time>2026-03-29T10:09:34.397Z</time></trkpt><trkpt lat="43.2016868" lon="12.2487683"><ele>592.0</ele><time>2026-03-29T10:09:35.398Z</time></trkpt><trkpt lat="43.2016859" lon="12.2488846"><ele>588.8000000000001</ele><time>2026-03-29T10:09:36.399Z</time></trkpt><trkpt lat="43.2016898" lon="12.2489804"><ele>585.6</ele><time>2026-03-29T10:09:37.396Z</time></trkpt><trkpt lat="43.20176" lon="12.2491281"><ele>582.4000000000001</ele><time>2026-03-29T10:09:39.398Z</time></trkpt><trkpt lat="43.201839" lon="12.2492043"><ele>579.2</ele><time>2026-03-29T10:09:40.397Z</time></trkpt><trkpt lat="43.2019482" lon="12.2493144"><ele>576.0</ele><time>2026-03-29T10:09:41.398Z</time></trkpt><trkpt lat="43.2020634" lon="12.2494105"><ele>576.0</ele><time>2026-03-29T10:09:42.396Z</time></trkpt><trkpt lat="43.2021839" lon="12.2494857"><ele>576.0</ele><time>2026-03-29T10:09:43.398Z</time></trkpt><trkpt lat="43.2022646" lon="12.2495544"><ele>576.0</ele><time>2026-03-29T10:09:44.398Z</time></trkpt><trkpt lat="43.2023473" lon="12.2496131"><ele>576.0</ele><time>2026-03-29T10:09:45.397Z</time></trkpt><trkpt lat="43.2024119" lon="12.249676"><ele>576.0</ele><time>2026-03-29T10:09:46.398Z</time></trkpt><trkpt lat="43.2024593" lon="12.2497519"><ele>575.0</ele><time>2026-03-29T10:09:47.398Z</time></trkpt><trkpt lat="43.2024754" lon="12.2498557"><ele>574.0</ele><time>2026-03-29T10:09:48.396Z</time></trkpt><trkpt lat="43.2024576" lon="12.2499871"><ele>573.0</ele><time>2026-03-29T10:09:49.398Z</time></trkpt><trkpt lat="43.2024257" lon="12.2501207"><ele>572.0</ele><time>2026-03-29T10:09:50.396Z</time></trkpt><trkpt lat="43.2023793" lon="12.2502485"><ele>571.0</ele><time>2026-03-29T10:09:51.396Z</time></trkpt><trkpt lat="43.202334" lon="12.2503731"><ele>568.6</ele><time>2026-03-29T10:09:52.397Z</time></trkpt><trkpt lat="43.2022688" lon="12.2504028"><ele>566.2</ele><time>2026-03-29T10:09:53.398Z</time></trkpt><trkpt lat="43.2021416" lon="12.2504239"><ele>563.8</ele><time>2026-03-29T10:09:55.397Z</time></trkpt><trkpt lat="43.2020528" lon="12.2504061"><ele>561.4</ele><time>2026-03-29T10:09:56.397Z</time></trkpt><trkpt lat="43.2019448" lon="12.2503773"><ele>559.0</ele><time>2026-03-29T10:09:57.397Z</time></trkpt><trkpt lat="43.2018406" lon="12.2503667"><ele>559.0</ele><time>2026-03-29T10:09:58.398Z</time></trkpt><trkpt lat="43.201736" lon="12.2503579"><ele>559.0</ele><time>2026-03-29T10:09:59.396Z</time></trkpt><trkpt lat="43.2016521" lon="12.2503772"><ele>559.0</ele><time>2026-03-29T10:10:00.398Z</time></trkpt><trkpt lat="43.2015581" lon="12.2504586"><ele>559.0</ele><time>2026-03-29T10:10:01.397Z</time></trkpt><trkpt lat="43.2015388" lon="12.2505427"><ele>559.0</ele><time>2026-03-29T10:10:02.399Z</time></trkpt><trkpt lat="43.2015188" lon="12.2506498"><ele>559.0</ele><time>2026-03-29T10:10:03.397Z</time></trkpt><trkpt lat="43.2015153" lon="12.2507675"><ele>557.8</ele><time>2026-03-29T10:10:04.399Z</time></trkpt><trkpt lat="43.2015173" lon="12.2508852"><ele>556.5999999999999</ele><time>2026-03-29T10:10:05.398Z</time></trkpt><trkpt lat="43.2015263" lon="12.2509819"><ele>555.4</ele><time>2026-03-29T10:10:06.398Z</time></trkpt><trkpt lat="43.2015013" lon="12.251104"><ele>554.1999999999999</ele><time>2026-03-29T10:10:07.398Z</time></trkpt><trkpt lat="43.2014479" lon="12.2512159"><ele>553.0</ele><time>2026-03-29T10:10:08.397Z</time></trkpt><trkpt lat="43.2013821" lon="12.2513248"><ele>548.0</ele><time>2026-03-29T10:10:09.399Z</time></trkpt><trkpt lat="43.2012917" lon="12.2514627"><ele>543.0</ele><time>2026-03-29T10:10:10.397Z</time></trkpt><trkpt lat="43.2012063" lon="12.2516166"><ele>538.0</ele><time>2026-03-29T10:10:11.397Z</time></trkpt><trkpt lat="43.201129" lon="12.2517729"><ele>533.0</ele><time>2026-03-29T10:10:12.398Z</time></trkpt><trkpt lat="43.2010434" lon="12.2519561"><ele>533.0</ele><time>2026-03-29T10:10:13.397Z</time></trkpt><trkpt lat="43.2009644" lon="12.2521534"><ele>533.0</ele><time>2026-03-29T10:10:14.399Z</time></trkpt><trkpt lat="43.2008829" lon="12.2523347"><ele>533.0</ele><time>2026-03-29T10:10:15.397Z</time></trkpt><trkpt lat="43.2008047" lon="12.2525177"><ele>533.3333333333333</ele><time>2026-03-29T10:10:16.398Z</time></trkpt><trkpt lat="43.2007182" lon="12.252702"><ele>533.6666666666666</ele><time>2026-03-29T10:10:17.397Z</time></trkpt><trkpt lat="43.2006465" lon="12.2528822"><ele>534.0</ele><time>2026-03-29T10:10:18.399Z</time></trkpt><trkpt lat="43.2005607" lon="12.2530503"><ele>533.75</ele><time>2026-03-29T10:10:19.398Z</time></trkpt><trkpt lat="43.2004774" lon="12.2531773"><ele>533.5</ele><time>2026-03-29T10:10:20.398Z</time></trkpt><trkpt lat="43.2003821" lon="12.2533034"><ele>533.25</ele><time>2026-03-29T10:10:21.399Z</time></trkpt><trkpt lat="43.2002748" lon="12.2533612"><ele>533.0</ele><time>2026-03-29T10:10:22.398Z</time></trkpt><trkpt lat="43.2001676" lon="12.2534188"><ele>533.0</ele><time>2026-03-29T10:10:23.397Z</time></trkpt><trkpt lat="43.2000574" lon="12.2534617"><ele>533.0</ele><time>2026-03-29T10:10:24.398Z</time></trkpt><trkpt lat="43.1999293" lon="12.2534828"><ele>533.0</ele><time>2026-03-29T10:10:25.398Z</time></trkpt><trkpt lat="43.1998026" lon="12.253501"><ele>533.0</ele><time>2026-03-29T10:10:26.397Z</time></trkpt><trkpt lat="43.1996603" lon="12.2535362"><ele>531.0</ele><time>2026-03-29T10:10:27.399Z</time></trkpt><trkpt lat="43.1995167" lon="12.2535942"><ele>529.0</ele><time>2026-03-29T10:10:28.397Z</time></trkpt><trkpt lat="43.1993761" lon="12.2536739"><ele>527.0</ele><time>2026-03-29T10:10:29.399Z</time></trkpt><trkpt lat="43.1992312" lon="12.253752"><ele>527.0</ele><time>2026-03-29T10:10:30.398Z</time></trkpt><trkpt lat="43.1991113" lon="12.2538197"><ele>527.0</ele><time>2026-03-29T10:10:31.399Z</time></trkpt><trkpt lat="43.1990096" lon="12.2538916"><ele>527.0</ele><time>2026-03-29T10:10:32.398Z</time></trkpt><trkpt lat="43.198935" lon="12.2539814"><ele>527.0</ele><time>2026-03-29T10:10:33.399Z</time></trkpt><trkpt lat="43.1988716" lon="12.254087"><ele>527.0</ele><time>2026-03-29T10:10:34.396Z</time></trkpt><trkpt lat="43.1987996" lon="12.2541742"><ele>527.75</ele><time>2026-03-29T10:10:35.399Z</time></trkpt><trkpt lat="43.1987111" lon="12.2542367"><ele>528.5</ele><time>2026-03-29T10:10:36.397Z</time></trkpt><trkpt lat="43.1985905" lon="12.2542867"><ele>529.25</ele><time>2026-03-29T10:10:37.398Z</time></trkpt><trkpt lat="43.1984554" lon="12.2543254"><ele>530.0</ele><time>2026-03-29T10:10:38.397Z</time></trkpt><trkpt lat="43.1983089" lon="12.2543528"><ele>530.0</ele><time>2026-03-29T10:10:39.399Z</time></trkpt><trkpt lat="43.1981833" lon="12.2543844"><ele>530.0</ele><time>2026-03-29T10:10:40.397Z</time></trkpt><trkpt lat="43.1980463" lon="12.2544122"><ele>530.0</ele><time>2026-03-29T10:10:41.397Z</time></trkpt><trkpt lat="43.1979176" lon="12.2544282"><ele>530.0</ele><time>2026-03-29T10:10:42.398Z</time></trkpt><trkpt lat="43.1977997" lon="12.2544598"><ele>527.4</ele><time>2026-03-29T10:10:43.397Z</time></trkpt><trkpt lat="43.1976944" lon="12.2545057"><ele>524.8</ele><time>2026-03-29T10:10:44.397Z</time></trkpt><trkpt lat="43.197596" lon="12.2545697"><ele>522.2</ele><time>2026-03-29T10:10:45.397Z</time></trkpt><trkpt lat="43.1975151" lon="12.254652"><ele>519.6</ele><time>2026-03-29T10:10:46.398Z</time></trkpt><trkpt lat="43.1974355" lon="12.2547642"><ele>517.0</ele><time>2026-03-29T10:10:47.398Z</time></trkpt><trkpt lat="43.1973747" lon="12.254884"><ele>516.5</ele><time>2026-03-29T10:10:48.398Z</time></trkpt><trkpt lat="43.1973183" lon="12.255002"><ele>516.0</ele><time>2026-03-29T10:10:49.397Z</time></trkpt><trkpt lat="43.197302" lon="12.2551145"><ele>515.5</ele><time>2026-03-29T10:10:50.397Z</time></trkpt><trkpt lat="43.1973137" lon="12.2552229"><ele>515.0</ele><time>2026-03-29T10:10:51.398Z</time></trkpt><trkpt lat="43.1973364" lon="12.2553364"><ele>514.5</ele><time>2026-03-29T10:10:52.396Z</time></trkpt><trkpt lat="43.1973554" lon="12.2554204"><ele>514.0</ele><time>2026-03-29T10:10:53.398Z</time></trkpt><trkpt lat="43.1973666" lon="12.2555084"><ele>510.25</ele><time>2026-03-29T10:10:54.398Z</time></trkpt><trkpt lat="43.1972431" lon="12.2556083"><ele>506.5</ele><time>2026-03-29T10:10:56.397Z</time></trkpt><trkpt lat="43.1971612" lon="12.2556517"><ele>502.75</ele><time>2026-03-29T10:10:57.399Z</time></trkpt><trkpt lat="43.1970501" lon="12.2557455"><ele>499.0</ele><time>2026-03-29T10:10:58.399Z</time></trkpt><trkpt lat="43.1969404" lon="12.2558483"><ele>499.0</ele><time>2026-03-29T10:10:59.397Z</time></trkpt><trkpt lat="43.1968353" lon="12.255944"><ele>499.0</ele><time>2026-03-29T10:11:00.399Z</time></trkpt><trkpt lat="43.1967228" lon="12.2560125"><ele>499.0</ele><time>2026-03-29T10:11:01.396Z</time></trkpt><trkpt lat="43.1965992" lon="12.2560459"><ele>499.0</ele><time>2026-03-29T10:11:02.398Z</time></trkpt><trkpt lat="43.1964685" lon="12.2560633"><ele>497.25</ele><time>2026-03-29T10:11:03.396Z</time></trkpt><trkpt lat="43.1963288" lon="12.2560608"><ele>495.5</ele><time>2026-03-29T10:11:04.398Z</time></trkpt><trkpt lat="43.1961842" lon="12.2560778"><ele>493.75</ele><time>2026-03-29T10:11:05.398Z</time></trkpt><trkpt lat="43.1960464" lon="12.2560996"><ele>492.0</ele><time>2026-03-29T10:11:06.397Z</time></trkpt><trkpt lat="43.1959313" lon="12.2561499"><ele>492.0</ele><time>2026-03-29T10:11:07.397Z</time></trkpt><trkpt lat="43.195841" lon="12.2561809"><ele>492.0</ele><time>2026-03-29T10:11:08.398Z</time></trkpt><trkpt lat="43.1957677" lon="12.2561918"><ele>492.0</ele><time>2026-03-29T10:11:09.399Z</time></trkpt><trkpt lat="43.1957047" lon="12.2561458"><ele>492.0</ele><time>2026-03-29T10:11:10.399Z</time></trkpt><trkpt lat="43.1956607" lon="12.2560522"><ele>492.0</ele><time>2026-03-29T10:11:11.398Z</time></trkpt><trkpt lat="43.1955973" lon="12.2559533"><ele>492.0</ele><time>2026-03-29T10:11:12.397Z</time></trkpt><trkpt lat="43.1955211" lon="12.2558251"><ele>490.0</ele><time>2026-03-29T10:11:13.397Z</time></trkpt><trkpt lat="43.1954197" lon="12.255699"><ele>488.00000000000006</ele><time>2026-03-29T10:11:14.397Z</time></trkpt><trkpt lat="43.1953488" lon="12.2555699"><ele>486.00000000000006</ele><time>2026-03-29T10:11:15.398Z</time></trkpt><trkpt lat="43.1952799" lon="12.2554709"><ele>484.0</ele><time>2026-03-29T10:11:16.399Z</time></trkpt><trkpt lat="43.1952151" lon="12.25538"><ele>482.0</ele><time>2026-03-29T10:11:17.399Z</time></trkpt><trkpt lat="43.1951736" lon="12.2553019"><ele>482.0</ele><time>2026-03-29T10:11:18.398Z</time></trkpt><trkpt lat="43.1951306" lon="12.2552369"><ele>482.00000000000006</ele><time>2026-03-29T10:11:19.397Z</time></trkpt><trkpt lat="43.1950256" lon="12.2551416"><ele>482.00000000000006</ele><time>2026-03-29T10:11:21.398Z</time></trkpt><trkpt lat="43.1949314" lon="12.2551738"><ele>482.0</ele><time>2026-03-29T10:11:23.397Z</time></trkpt><trkpt lat="43.1948949" lon="12.255287"><ele>482.0</ele><time>2026-03-29T10:11:25.399Z</time></trkpt><trkpt lat="43.1948408" lon="12.2553725"><ele>479.75</ele><time>2026-03-29T10:11:27.396Z</time></trkpt><trkpt lat="43.194704" lon="12.2553185"><ele>477.5</ele><time>2026-03-29T10:11:29.397Z</time></trkpt><trkpt lat="43.1945994" lon="12.2553105"><ele>475.25</ele><time>2026-03-29T10:11:30.398Z</time></trkpt><trkpt lat="43.1944734" lon="12.2553127"><ele>473.0</ele><time>2026-03-29T10:11:31.399Z</time></trkpt><trkpt lat="43.1943362" lon="12.2553478"><ele>473.0</ele><time>2026-03-29T10:11:32.398Z</time></trkpt><trkpt lat="43.1941925" lon="12.2553968"><ele>473.0</ele><time>2026-03-29T10:11:33.397Z</time></trkpt><trkpt lat="43.1940512" lon="12.25545"><ele>473.0</ele><time>2026-03-29T10:11:34.398Z</time></trkpt><trkpt lat="43.1939145" lon="12.2554999"><ele>473.0</ele><time>2026-03-29T10:11:35.397Z</time></trkpt><trkpt lat="43.1937772" lon="12.2555606"><ele>473.5</ele><time>2026-03-29T10:11:36.399Z</time></trkpt><trkpt lat="43.1936667" lon="12.2556196"><ele>474.0</ele><time>2026-03-29T10:11:37.397Z</time></trkpt><trkpt lat="43.1935491" lon="12.2557078"><ele>474.5</ele><time>2026-03-29T10:11:38.397Z</time></trkpt><trkpt lat="43.193447" lon="12.2557973"><ele>475.0</ele><time>2026-03-29T10:11:39.398Z</time></trkpt><trkpt lat="43.1933475" lon="12.255879"><ele>475.0</ele><time>2026-03-29T10:11:40.398Z</time></trkpt><trkpt lat="43.1932423" lon="12.2559517"><ele>475.0</ele><time>2026-03-29T10:11:41.397Z</time></trkpt><trkpt lat="43.193166" lon="12.256008"><ele>475.0</ele><time>2026-03-29T10:11:42.399Z</time></trkpt><trkpt lat="43.1930287" lon="12.2559487"><ele>475.0</ele><time>2026-03-29T10:11:44.398Z</time></trkpt><trkpt lat="43.1929423" lon="12.2558816"><ele>475.0</ele><time>2026-03-29T10:11:45.397Z</time></trkpt><trkpt lat="43.1928492" lon="12.255821"><ele>475.8</ele><time>2026-03-29T10:11:46.398Z</time></trkpt><trkpt lat="43.1927524" lon="12.2557573"><ele>476.6</ele><time>2026-03-29T10:11:47.399Z</time></trkpt><trkpt lat="43.1926652" lon="12.2557173"><ele>477.4</ele><time>2026-03-29T10:11:48.398Z</time></trkpt><trkpt lat="43.1925791" lon="12.2556856"><ele>478.2</ele><time>2026-03-29T10:11:49.397Z</time></trkpt><trkpt lat="43.1924888" lon="12.255699"><ele>479.0</ele><time>2026-03-29T10:11:50.398Z</time></trkpt><trkpt lat="43.1923956" lon="12.2557169"><ele>477.49999999999994</ele><time>2026-03-29T10:11:51.398Z</time></trkpt><trkpt lat="43.1922997" lon="12.255757"><ele>476.0</ele><time>2026-03-29T10:11:52.397Z</time></trkpt><trkpt lat="43.1922136" lon="12.2558014"><ele>474.5</ele><time>2026-03-29T10:11:53.397Z</time></trkpt><trkpt lat="43.1921439" lon="12.2558432"><ele>473.0</ele><time>2026-03-29T10:11:54.398Z</time></trkpt><trkpt lat="43.1920805" lon="12.2558779"><ele>471.49999999999994</ele><time>2026-03-29T10:11:55.398Z</time></trkpt><trkpt lat="43.1920067" lon="12.2558346"><ele>470.0</ele><time>2026-03-29T10:11:57.396Z</time></trkpt><trkpt lat="43.1919928" lon="12.2556673"><ele>467.49999999999994</ele><time>2026-03-29T10:11:59.399Z</time></trkpt><trkpt lat="43.1920014" lon="12.2555459"><ele>465.0</ele><time>2026-03-29T10:12:00.396Z</time></trkpt><trkpt lat="43.1920166" lon="12.2554439"><ele>462.5</ele><time>2026-03-29T10:12:01.399Z</time></trkpt><trkpt lat="43.1920183" lon="12.2553185"><ele>460.0</ele><time>2026-03-29T10:12:02.397Z</time></trkpt><trkpt lat="43.1919942" lon="12.2552251"><ele>457.49999999999994</ele><time>2026-03-29T10:12:03.397Z</time></trkpt><trkpt lat="43.1919671" lon="12.2551051"><ele>455.0</ele><time>2026-03-29T10:12:04.398Z</time></trkpt><trkpt lat="43.1919197" lon="12.2549971"><ele>454.99999999999994</ele><time>2026-03-29T10:12:05.398Z</time></trkpt><trkpt lat="43.1918804" lon="12.254911"><ele>455.0</ele><time>2026-03-29T10:12:06.396Z</time></trkpt><trkpt lat="43.1918306" lon="12.2548166"><ele>455.0</ele><time>2026-03-29T10:12:07.398Z</time></trkpt><trkpt lat="43.1917889" lon="12.2547343"><ele>455.0</ele><time>2026-03-29T10:12:08.399Z</time></trkpt><trkpt lat="43.1917409" lon="12.2546078"><ele>454.99999999999994</ele><time>2026-03-29T10:12:10.399Z</time></trkpt><trkpt lat="43.191774" lon="12.2544853"><ele>455.0</ele><time>2026-03-29T10:12:12.398Z</time></trkpt><trkpt lat="43.1918844" lon="12.2544501"><ele>455.2</ele><time>2026-03-29T10:12:14.398Z</time></trkpt><trkpt lat="43.1919596" lon="12.2544565"><ele>455.4</ele><time>2026-03-29T10:12:15.398Z</time></trkpt><trkpt lat="43.1920511" lon="12.2544561"><ele>455.6</ele><time>2026-03-29T10:12:16.398Z</time></trkpt><trkpt lat="43.1921778" lon="12.2544251"><ele>455.8</ele><time>2026-03-29T10:12:17.398Z</time></trkpt><trkpt lat="43.1922981" lon="12.2543976"><ele>456.0</ele><time>2026-03-29T10:12:18.399Z</time></trkpt><trkpt lat="43.1924039" lon="12.2543698"><ele>456.0</ele><time>2026-03-29T10:12:19.398Z</time></trkpt><trkpt lat="43.192491" lon="12.2543612"><ele>456.0</ele><time>2026-03-29T10:12:20.397Z</time></trkpt><trkpt lat="43.1925887" lon="12.254389"><ele>456.0</ele><time>2026-03-29T10:12:21.398Z</time></trkpt><trkpt lat="43.1926825" lon="12.2544283"><ele>456.0</ele><time>2026-03-29T10:12:22.399Z</time></trkpt><trkpt lat="43.1927608" lon="12.2544509"><ele>456.0</ele><time>2026-03-29T10:12:23.398Z</time></trkpt><trkpt lat="43.1928267" lon="12.2544525"><ele>456.0</ele><time>2026-03-29T10:12:24.399Z</time></trkpt><trkpt lat="43.1928993" lon="12.2543819"><ele>456.0</ele><time>2026-03-29T10:12:26.399Z</time></trkpt><trkpt lat="43.1928601" lon="12.2543128"><ele>456.0</ele><time>2026-03-29T10:12:27.398Z</time></trkpt><trkpt lat="43.1927677" lon="12.2542087"><ele>456.0</ele><time>2026-03-29T10:12:29.397Z</time></trkpt><trkpt lat="43.1927007" lon="12.2541696"><ele>456.0</ele><time>2026-03-29T10:12:30.398Z</time></trkpt><trkpt lat="43.1926262" lon="12.254136"><ele>456.0</ele><time>2026-03-29T10:12:31.397Z</time></trkpt><trkpt lat="43.1925416" lon="12.2540837"><ele>456.0</ele><time>2026-03-29T10:12:32.398Z</time></trkpt><trkpt lat="43.1924519" lon="12.254032"><ele>456.0</ele><time>2026-03-29T10:12:33.398Z</time></trkpt><trkpt lat="43.1923601" lon="12.2539991"><ele>456.0</ele><time>2026-03-29T10:12:34.398Z</time></trkpt><trkpt lat="43.1922815" lon="12.2539939"><ele>456.0</ele><time>2026-03-29T10:12:35.399Z</time></trkpt><trkpt lat="43.1921759" lon="12.2539835"><ele>456.0</ele><time>2026-03-29T10:12:36.398Z</time></trkpt><trkpt lat="43.1920826" lon="12.2539854"><ele>456.0</ele><time>2026-03-29T10:12:37.397Z</time></trkpt><trkpt lat="43.1919943" lon="12.2539767"><ele>453.8333333333333</ele><time>2026-03-29T10:12:38.398Z</time></trkpt><trkpt lat="43.1919175" lon="12.2539557"><ele>451.66666666666663</ele><time>2026-03-29T10:12:39.398Z</time></trkpt><trkpt lat="43.1918519" lon="12.2539253"><ele>449.5</ele><time>2026-03-29T10:12:40.397Z</time></trkpt><trkpt lat="43.1917767" lon="12.2538863"><ele>447.3333333333333</ele><time>2026-03-29T10:12:41.399Z</time></trkpt><trkpt lat="43.1917091" lon="12.2538408"><ele>445.16666666666663</ele><time>2026-03-29T10:12:42.398Z</time></trkpt><trkpt lat="43.1916415" lon="12.2538006"><ele>443.0</ele><time>2026-03-29T10:12:43.398Z</time></trkpt><trkpt lat="43.1915642" lon="12.2537573"><ele>437.3333333333333</ele><time>2026-03-29T10:12:44.398Z</time></trkpt><trkpt lat="43.1914899" lon="12.2537359"><ele>431.66666666666663</ele><time>2026-03-29T10:12:45.398Z</time></trkpt><trkpt lat="43.1914167" lon="12.2537272"><ele>426.0</ele><time>2026-03-29T10:12:46.398Z</time></trkpt><trkpt lat="43.1913498" lon="12.2537209"><ele>420.33333333333337</ele><time>2026-03-29T10:12:47.399Z</time></trkpt><trkpt lat="43.1912331" lon="12.25369"><ele>414.6666666666667</ele><time>2026-03-29T10:12:49.398Z</time></trkpt><trkpt lat="43.1911882" lon="12.253629"><ele>409.0</ele><time>2026-03-29T10:12:50.396Z</time></trkpt><trkpt lat="43.191099" lon="12.2535877"><ele>409.00000000000006</ele><time>2026-03-29T10:12:52.397Z</time></trkpt><trkpt lat="43.1910402" lon="12.2536773"><ele>409.0</ele><time>2026-03-29T10:12:54.398Z</time></trkpt><trkpt lat="43.1910328" lon="12.2537807"><ele>409.0</ele><time>2026-03-29T10:12:56.399Z</time></trkpt><trkpt lat="43.1909882" lon="12.2538849"><ele>409.0</ele><time>2026-03-29T10:12:58.398Z</time></trkpt><trkpt lat="43.1909733" lon="12.25398"><ele>409.00000000000006</ele><time>2026-03-29T10:13:00.398Z</time></trkpt><trkpt lat="43.190956" lon="12.2541143"><ele>409.0</ele><time>2026-03-29T10:13:02.398Z</time></trkpt><trkpt lat="43.1909098" lon="12.2542669"><ele>410.50000000000006</ele><time>2026-03-29T10:13:04.397Z</time></trkpt><trkpt lat="43.1908818" lon="12.2543515"><ele>412.0</ele><time>2026-03-29T10:13:05.398Z</time></trkpt><trkpt lat="43.1908349" lon="12.2544254"><ele>413.5</ele><time>2026-03-29T10:13:06.397Z</time></trkpt><trkpt lat="43.1907976" lon="12.2545062"><ele>415.0</ele><time>2026-03-29T10:13:07.399Z</time></trkpt><trkpt lat="43.1907825" lon="12.2546021"><ele>416.50000000000006</ele><time>2026-03-29T10:13:08.399Z</time></trkpt><trkpt lat="43.1907546" lon="12.2546995"><ele>418.0</ele><time>2026-03-29T10:13:09.398Z</time></trkpt><trkpt lat="43.1906683" lon="12.2547942"><ele>418.0</ele><time>2026-03-29T10:13:11.398Z</time></trkpt><trkpt lat="43.1906042" lon="12.2547815"><ele>418.0</ele><time>2026-03-29T10:13:12.398Z</time></trkpt><trkpt lat="43.1905243" lon="12.254784"><ele>418.0</ele><time>2026-03-29T10:13:13.398Z</time></trkpt><trkpt lat="43.1904552" lon="12.2547711"><ele>418.0</ele><time>2026-03-29T10:13:14.398Z</time></trkpt><trkpt lat="43.1903856" lon="12.2547585"><ele>418.0</ele><time>2026-03-29T10:13:15.397Z</time></trkpt><trkpt lat="43.1902998" lon="12.2547901"><ele>418.0</ele><time>2026-03-29T10:13:16.398Z</time></trkpt><trkpt lat="43.1902275" lon="12.2548187"><ele>418.0</ele><time>2026-03-29T10:13:17.398Z</time></trkpt><trkpt lat="43.190159" lon="12.2548507"><ele>418.00000000000006</ele><time>2026-03-29T10:13:18.399Z</time></trkpt><trkpt lat="43.190094" lon="12.2548916"><ele>418.0</ele><time>2026-03-29T10:13:19.397Z</time></trkpt><trkpt lat="43.1899923" lon="12.2549835"><ele>418.0</ele><time>2026-03-29T10:13:21.398Z</time></trkpt><trkpt lat="43.189949" lon="12.2550875"><ele>418.0</ele><time>2026-03-29T10:13:22.398Z</time></trkpt><trkpt lat="43.1899131" lon="12.2551699"><ele>418.00000000000006</ele><time>2026-03-29T10:13:23.399Z</time></trkpt><trkpt lat="43.1898532" lon="12.2552294"><ele>418.0</ele><time>2026-03-29T10:13:24.397Z</time></trkpt><trkpt lat="43.189753" lon="12.2551352"><ele>416.6666666666667</ele><time>2026-03-29T10:13:26.397Z</time></trkpt><trkpt lat="43.1896796" lon="12.2550909"><ele>415.33333333333337</ele><time>2026-03-29T10:13:27.399Z</time></trkpt><trkpt lat="43.1896021" lon="12.2550199"><ele>414.0</ele><time>2026-03-29T10:13:28.398Z</time></trkpt><trkpt lat="43.189523" lon="12.2549955"><ele>412.66666666666663</ele><time>2026-03-29T10:13:29.397Z</time></trkpt><trkpt lat="43.1894547" lon="12.2549832"><ele>411.3333333333333</ele><time>2026-03-29T10:13:30.399Z</time></trkpt><trkpt lat="43.1893682" lon="12.2550092"><ele>410.0</ele><time>2026-03-29T10:13:31.398Z</time></trkpt><trkpt lat="43.1892882" lon="12.2550578"><ele>409.99999999999994</ele><time>2026-03-29T10:13:32.397Z</time></trkpt><trkpt lat="43.1892007" lon="12.2550608"><ele>410.0</ele><time>2026-03-29T10:13:33.398Z</time></trkpt><trkpt lat="43.1891254" lon="12.2550717"><ele>410.0</ele><time>2026-03-29T10:13:34.398Z</time></trkpt><trkpt lat="43.1890485" lon="12.2550617"><ele>410.0</ele><time>2026-03-29T10:13:35.398Z</time></trkpt><trkpt lat="43.1889582" lon="12.255045"><ele>409.99999999999994</ele><time>2026-03-29T10:13:36.398Z</time></trkpt><trkpt lat="43.1889089" lon="12.2549652"><ele>410.0</ele><time>2026-03-29T10:13:37.397Z</time></trkpt><trkpt lat="43.1888337" lon="12.2549146"><ele>409.7142857142857</ele><time>2026-03-29T10:13:38.399Z</time></trkpt><trkpt lat="43.1887534" lon="12.254878"><ele>409.4285714285714</ele><time>2026-03-29T10:13:39.398Z</time></trkpt><trkpt lat="43.1886784" lon="12.2548758"><ele>409.1428571428571</ele><time>2026-03-29T10:13:40.398Z</time></trkpt><trkpt lat="43.1886141" lon="12.2548828"><ele>408.8571428571429</ele><time>2026-03-29T10:13:41.399Z</time></trkpt><trkpt lat="43.1885495" lon="12.2549056"><ele>408.57142857142856</ele><time>2026-03-29T10:13:42.399Z</time></trkpt><trkpt lat="43.1884809" lon="12.2549049"><ele>408.2857142857143</ele><time>2026-03-29T10:13:43.399Z</time></trkpt><trkpt lat="43.1884168" lon="12.2548941"><ele>408.0</ele><time>2026-03-29T10:13:44.396Z</time></trkpt><trkpt lat="43.1883577" lon="12.2548415"><ele>408.0</ele><time>2026-03-29T10:13:45.399Z</time></trkpt><trkpt lat="43.1882869" lon="12.2548052"><ele>408.0</ele><time>2026-03-29T10:13:46.398Z</time></trkpt><trkpt lat="43.188207" lon="12.2547318"><ele>408.0</ele><time>2026-03-29T10:13:47.399Z</time></trkpt><trkpt lat="43.1881422" lon="12.2546382"><ele>408.0</ele><time>2026-03-29T10:13:48.397Z</time></trkpt><trkpt lat="43.1880907" lon="12.2545476"><ele>408.0</ele><time>2026-03-29T10:13:49.399Z</time></trkpt><trkpt lat="43.1880326" lon="12.2544733"><ele>408.0</ele><time>2026-03-29T10:13:50.398Z</time></trkpt><trkpt lat="43.1879505" lon="12.2544716"><ele>405.0</ele><time>2026-03-29T10:13:51.398Z</time></trkpt><trkpt lat="43.1878726" lon="12.2544501"><ele>402.0</ele><time>2026-03-29T10:13:52.399Z</time></trkpt><trkpt lat="43.1877864" lon="12.2544288"><ele>399.0</ele><time>2026-03-29T10:13:53.399Z</time></trkpt><trkpt lat="43.1876832" lon="12.2544192"><ele>396.0</ele><time>2026-03-29T10:13:54.398Z</time></trkpt><trkpt lat="43.1876049" lon="12.2544376"><ele>393.0</ele><time>2026-03-29T10:13:55.399Z</time></trkpt><trkpt lat="43.187524" lon="12.2544694"><ele>390.0</ele><time>2026-03-29T10:13:56.399Z</time></trkpt><trkpt lat="43.1874495" lon="12.2544901"><ele>390.0</ele><time>2026-03-29T10:13:57.397Z</time></trkpt><trkpt lat="43.1873557" lon="12.2544904"><ele>390.0</ele><time>2026-03-29T10:13:58.398Z</time></trkpt><trkpt lat="43.1872596" lon="12.2544969"><ele>390.0</ele><time>2026-03-29T10:13:59.398Z</time></trkpt><trkpt lat="43.1871737" lon="12.2545087"><ele>390.0</ele><time>2026-03-29T10:14:00.397Z</time></trkpt><trkpt lat="43.1871008" lon="12.2545312"><ele>390.0</ele><time>2026-03-29T10:14:01.398Z</time></trkpt><trkpt lat="43.1870186" lon="12.2545669"><ele>390.0</ele><time>2026-03-29T10:14:02.398Z</time></trkpt><trkpt lat="43.1869488" lon="12.2546259"><ele>390.5</ele><time>2026-03-29T10:14:03.399Z</time></trkpt><trkpt lat="43.1868758" lon="12.2546961"><ele>391.0</ele><time>2026-03-29T10:14:04.397Z</time></trkpt><trkpt lat="43.186805" lon="12.2547483"><ele>391.5</ele><time>2026-03-29T10:14:05.399Z</time></trkpt><trkpt lat="43.1867421" lon="12.2547887"><ele>392.0</ele><time>2026-03-29T10:14:06.398Z</time></trkpt><trkpt lat="43.1866552" lon="12.2548"><ele>392.5</ele><time>2026-03-29T10:14:07.398Z</time></trkpt><trkpt lat="43.1865628" lon="12.2548151"><ele>393.0</ele><time>2026-03-29T10:14:08.397Z</time></trkpt><trkpt lat="43.18647" lon="12.2548477"><ele>393.0</ele><time>2026-03-29T10:14:09.398Z</time></trkpt><trkpt lat="43.1863793" lon="12.2548734"><ele>393.0</ele><time>2026-03-29T10:14:10.398Z</time></trkpt><trkpt lat="43.1863003" lon="12.2548909"><ele>393.0</ele><time>2026-03-29T10:14:11.397Z</time></trkpt><trkpt lat="43.1862048" lon="12.2548593"><ele>393.0</ele><time>2026-03-29T10:14:12.399Z</time></trkpt><trkpt lat="43.1861133" lon="12.2548322"><ele>393.0</ele><time>2026-03-29T10:14:13.397Z</time></trkpt><trkpt lat="43.186033" lon="12.2548511"><ele>393.0</ele><time>2026-03-29T10:14:14.398Z</time></trkpt><trkpt lat="43.1859354" lon="12.2548474"><ele>393.0</ele><time>2026-03-29T10:14:15.398Z</time></trkpt><trkpt lat="43.1858664" lon="12.2548633"><ele>393.0</ele><time>2026-03-29T10:14:16.398Z</time></trkpt><trkpt lat="43.1857794" lon="12.2549256"><ele>393.0</ele><time>2026-03-29T10:14:18.398Z</time></trkpt><trkpt lat="43.1856528" lon="12.2549792"><ele>393.0</ele><time>2026-03-29T10:14:20.398Z</time></trkpt><trkpt lat="43.1855754" lon="12.2550617"><ele>393.0</ele><time>2026-03-29T10:14:22.397Z</time></trkpt><trkpt lat="43.1854991" lon="12.2551019"><ele>389.75</ele><time>2026-03-29T10:14:23.398Z</time></trkpt><trkpt lat="43.1853666" lon="12.2550991"><ele>386.5</ele><time>2026-03-29T10:14:25.399Z</time></trkpt><trkpt lat="43.1852643" lon="12.2550628"><ele>383.25</ele><time>2026-03-29T10:14:26.398Z</time></trkpt><trkpt lat="43.1851666" lon="12.2550261"><ele>380.0</ele><time>2026-03-29T10:14:27.398Z</time></trkpt><trkpt lat="43.1850542" lon="12.2550199"><ele>380.0</ele><time>2026-03-29T10:14:28.398Z</time></trkpt><trkpt lat="43.1849588" lon="12.2550053"><ele>380.0</ele><time>2026-03-29T10:14:29.398Z</time></trkpt><trkpt lat="43.1848711" lon="12.2549785"><ele>380.0</ele><time>2026-03-29T10:14:30.398Z</time></trkpt><trkpt lat="43.1847997" lon="12.2549724"><ele>380.0</ele><time>2026-03-29T10:14:31.398Z</time></trkpt><trkpt lat="43.1847306" lon="12.2549866"><ele>380.0</ele><time>2026-03-29T10:14:32.398Z</time></trkpt><trkpt lat="43.1846626" lon="12.2550275"><ele>380.0</ele><time>2026-03-29T10:14:33.398Z</time></trkpt><trkpt lat="43.1846005" lon="12.2550591"><ele>376.6</ele><time>2026-03-29T10:14:34.397Z</time></trkpt><trkpt lat="43.1845486" lon="12.2551636"><ele>373.2</ele><time>2026-03-29T10:14:35.398Z</time></trkpt><trkpt lat="43.1844799" lon="12.2552429"><ele>369.79999999999995</ele><time>2026-03-29T10:14:36.398Z</time></trkpt><trkpt lat="43.1844095" lon="12.2553221"><ele>366.4</ele><time>2026-03-29T10:14:37.398Z</time></trkpt><trkpt lat="43.1843212" lon="12.2553763"><ele>363.0</ele><time>2026-03-29T10:14:38.398Z</time></trkpt><trkpt lat="43.1842379" lon="12.2554474"><ele>363.0</ele><time>2026-03-29T10:14:39.398Z</time></trkpt><trkpt lat="43.1841529" lon="12.2555164"><ele>363.0</ele><time>2026-03-29T10:14:40.397Z</time></trkpt><trkpt lat="43.1840688" lon="12.2556157"><ele>363.0</ele><time>2026-03-29T10:14:41.398Z</time></trkpt><trkpt lat="43.1839928" lon="12.2556924"><ele>363.0</ele><time>2026-03-29T10:14:42.398Z</time></trkpt><trkpt lat="43.1839429" lon="12.2557671"><ele>363.0</ele><time>2026-03-29T10:14:43.399Z</time></trkpt><trkpt lat="43.1839083" lon="12.255846"><ele>363.0</ele><time>2026-03-29T10:14:44.397Z</time></trkpt><trkpt lat="43.1839239" lon="12.2559536"><ele>360.6666666666667</ele><time>2026-03-29T10:14:45.398Z</time></trkpt><trkpt lat="43.1839206" lon="12.256042"><ele>358.3333333333333</ele><time>2026-03-29T10:14:46.398Z</time></trkpt><trkpt lat="43.1839291" lon="12.256133"><ele>356.0</ele><time>2026-03-29T10:14:47.398Z</time></trkpt><trkpt lat="43.1839417" lon="12.2562598"><ele>353.66666666666663</ele><time>2026-03-29T10:14:49.397Z</time></trkpt><trkpt lat="43.1838623" lon="12.2562737"><ele>351.3333333333333</ele><time>2026-03-29T10:14:52.397Z</time></trkpt><trkpt lat="43.1838444" lon="12.2561535"><ele>349.0</ele><time>2026-03-29T10:14:54.399Z</time></trkpt><trkpt lat="43.1837789" lon="12.2560435"><ele>349.0</ele><time>2026-03-29T10:14:56.399Z</time></trkpt><trkpt lat="43.1836803" lon="12.2559419"><ele>349.0</ele><time>2026-03-29T10:14:58.399Z</time></trkpt><trkpt lat="43.1836253" lon="12.2558518"><ele>349.0</ele><time>2026-03-29T10:14:59.397Z</time></trkpt><trkpt lat="43.1835781" lon="12.2557603"><ele>349.0</ele><time>2026-03-29T10:15:00.398Z</time></trkpt><trkpt lat="43.1835246" lon="12.2556977"><ele>349.0</ele><time>2026-03-29T10:15:01.398Z</time></trkpt><trkpt lat="43.1834748" lon="12.2556291"><ele>349.0</ele><time>2026-03-29T10:15:02.398Z</time></trkpt><trkpt lat="43.1834134" lon="12.2555625"><ele>348.4</ele><time>2026-03-29T10:15:03.397Z</time></trkpt><trkpt lat="43.1833519" lon="12.2554536"><ele>347.79999999999995</ele><time>2026-03-29T10:15:05.397Z</time></trkpt><trkpt lat="43.1832778" lon="12.2553612"><ele>347.20000000000005</ele><time>2026-03-29T10:15:07.399Z</time></trkpt><trkpt lat="43.1831778" lon="12.2553124"><ele>346.6</ele><time>2026-03-29T10:15:09.398Z</time></trkpt><trkpt lat="43.1830981" lon="12.2552706"><ele>346.0</ele><time>2026-03-29T10:15:11.398Z</time></trkpt><trkpt lat="43.183057" lon="12.2551945"><ele>341.8</ele><time>2026-03-29T10:15:13.399Z</time></trkpt><trkpt lat="43.183037" lon="12.2550295"><ele>337.6</ele><time>2026-03-29T10:15:15.398Z</time></trkpt><trkpt lat="43.1830288" lon="12.2549407"><ele>333.4</ele><time>2026-03-29T10:15:16.398Z</time></trkpt><trkpt lat="43.1829908" lon="12.2548466"><ele>329.2</ele><time>2026-03-29T10:15:18.4Z</time></trkpt><trkpt lat="43.1828996" lon="12.2549156"><ele>325.0</ele><time>2026-03-29T10:15:20.399Z</time></trkpt><trkpt lat="43.1828767" lon="12.2550739"><ele>325.0</ele><time>2026-03-29T10:15:22.398Z</time></trkpt><trkpt lat="43.1828887" lon="12.255194"><ele>325.0</ele><time>2026-03-29T10:15:23.398Z</time></trkpt><trkpt lat="43.1828996" lon="12.2553042"><ele>325.0</ele><time>2026-03-29T10:15:24.398Z</time></trkpt><trkpt lat="43.1829177" lon="12.2554108"><ele>325.0</ele><time>2026-03-29T10:15:25.399Z</time></trkpt><trkpt lat="43.1829482" lon="12.2555058"><ele>325.0</ele><time>2026-03-29T10:15:26.399Z</time></trkpt><trkpt lat="43.1829822" lon="12.255604"><ele>325.0</ele><time>2026-03-29T10:15:27.399Z</time></trkpt><trkpt lat="43.1829942" lon="12.255712"><ele>324.0</ele><time>2026-03-29T10:15:28.399Z</time></trkpt><trkpt lat="43.1830239" lon="12.2558178"><ele>323.0</ele><time>2026-03-29T10:15:29.398Z</time></trkpt><trkpt lat="43.1830486" lon="12.2559073"><ele>322.0</ele><time>2026-03-29T10:15:30.398Z</time></trkpt><trkpt lat="43.1830771" lon="12.2560045"><ele>321.0</ele><time>2026-03-29T10:15:31.399Z</time></trkpt><trkpt lat="43.1831125" lon="12.2560929"><ele>320.0</ele><time>2026-03-29T10:15:32.398Z</time></trkpt><trkpt lat="43.1831471" lon="12.2562119"><ele>319.0</ele><time>2026-03-29T10:15:33.4Z</time></trkpt><trkpt lat="43.1831523" lon="12.2563565"><ele>318.0</ele><time>2026-03-29T10:15:34.399Z</time></trkpt><trkpt lat="43.1831784" lon="12.2564764"><ele>317.0</ele><time>2026-03-29T10:15:35.398Z</time></trkpt><trkpt lat="43.1832048" lon="12.2565855"><ele>316.0</ele><time>2026-03-29T10:15:36.398Z</time></trkpt><trkpt lat="43.1832298" lon="12.2567094"><ele>315.0</ele><time>2026-03-29T10:15:37.398Z</time></trkpt><trkpt lat="43.1832581" lon="12.2568418"><ele>314.0</ele><time>2026-03-29T10:15:38.399Z</time></trkpt><trkpt lat="43.1832889" lon="12.2569732"><ele>316.6</ele><time>2026-03-29T10:15:39.398Z</time></trkpt><trkpt lat="43.1833065" lon="12.2571145"><ele>319.2</ele><time>2026-03-29T10:15:40.399Z</time></trkpt><trkpt lat="43.1833386" lon="12.257204"><ele>321.8</ele><time>2026-03-29T10:15:41.398Z</time></trkpt><trkpt lat="43.1833616" lon="12.2573074"><ele>324.40000000000003</ele><time>2026-03-29T10:15:42.398Z</time></trkpt><trkpt lat="43.183407" lon="12.2574627"><ele>327.0</ele><time>2026-03-29T10:15:44.399Z</time></trkpt><trkpt lat="43.1834392" lon="12.2575513"><ele>327.0</ele><time>2026-03-29T10:15:45.397Z</time></trkpt><trkpt lat="43.1834592" lon="12.2576443"><ele>327.0</ele><time>2026-03-29T10:15:46.398Z</time></trkpt><trkpt lat="43.1834399" lon="12.2577944"><ele>327.0</ele><time>2026-03-29T10:15:48.399Z</time></trkpt><trkpt lat="43.1833806" lon="12.2578743"><ele>327.0</ele><time>2026-03-29T10:15:51.399Z</time></trkpt><trkpt lat="43.1833146" lon="12.2578717"><ele>327.0</ele><time>2026-03-29T10:15:53.399Z</time></trkpt><trkpt lat="43.1832478" lon="12.2578384"><ele>327.0</ele><time>2026-03-29T10:15:55.398Z</time></trkpt><trkpt lat="43.183169" lon="12.2578218"><ele>327.0</ele><time>2026-03-29T10:15:58.399Z</time></trkpt><trkpt lat="43.1831598" lon="12.2577183"><ele>327.0</ele><time>2026-03-29T10:16:43.4Z</time></trkpt><trkpt lat="43.183178" lon="12.2576294"><ele>327.0</ele><time>2026-03-29T10:16:44.398Z</time></trkpt><trkpt lat="43.1831926" lon="12.2575295"><ele>327.0</ele><time>2026-03-29T10:16:45.399Z</time></trkpt><trkpt lat="43.1831967" lon="12.2574067"><ele>327.0</ele><time>2026-03-29T10:16:46.399Z</time></trkpt><trkpt lat="43.1831944" lon="12.2572658"><ele>327.0</ele><time>2026-03-29T10:16:47.399Z</time></trkpt><trkpt lat="43.1831703" lon="12.2571045"><ele>325.0</ele><time>2026-03-29T10:16:48.398Z</time></trkpt><trkpt lat="43.183089" lon="12.256872"><ele>323.0</ele><time>2026-03-29T10:16:49.398Z</time></trkpt><trkpt lat="43.1830348" lon="12.2566857"><ele>321.0</ele><time>2026-03-29T10:16:50.398Z</time></trkpt><trkpt lat="43.1829956" lon="12.2565489"><ele>319.0</ele><time>2026-03-29T10:16:51.399Z</time></trkpt><trkpt lat="43.1829652" lon="12.2564136"><ele>319.0</ele><time>2026-03-29T10:16:52.399Z</time></trkpt><trkpt lat="43.1829425" lon="12.2563041"><ele>319.0</ele><time>2026-03-29T10:16:53.398Z</time></trkpt><trkpt lat="43.1829682" lon="12.2562144"><ele>319.0</ele><time>2026-03-29T10:16:54.398Z</time></trkpt><trkpt lat="43.1829857" lon="12.2561059"><ele>319.0</ele><time>2026-03-29T10:16:55.397Z</time></trkpt><trkpt lat="43.1829587" lon="12.2559968"><ele>319.0</ele><time>2026-03-29T10:16:56.4Z</time></trkpt><trkpt lat="43.182927" lon="12.2558791"><ele>319.0</ele><time>2026-03-29T10:16:57.398Z</time></trkpt><trkpt lat="43.1828869" lon="12.2557783"><ele>319.0</ele><time>2026-03-29T10:16:58.399Z</time></trkpt><trkpt lat="43.1828457" lon="12.2557056"><ele>319.0</ele><time>2026-03-29T10:16:59.398Z</time></trkpt><trkpt lat="43.1828028" lon="12.2556333"><ele>319.0</ele><time>2026-03-29T10:17:00.398Z</time></trkpt><trkpt lat="43.1826807" lon="12.2555327"><ele>319.0</ele><time>2026-03-29T10:17:02.398Z</time></trkpt><trkpt lat="43.1826144" lon="12.2554635"><ele>319.0</ele><time>2026-03-29T10:17:03.398Z</time></trkpt><trkpt lat="43.1825564" lon="12.2553699"><ele>320.2</ele><time>2026-03-29T10:17:04.399Z</time></trkpt><trkpt lat="43.1825013" lon="12.2552726"><ele>321.4</ele><time>2026-03-29T10:17:05.398Z</time></trkpt><trkpt lat="43.1824411" lon="12.2551745"><ele>322.6</ele><time>2026-03-29T10:17:06.399Z</time></trkpt><trkpt lat="43.1823729" lon="12.2550813"><ele>323.8</ele><time>2026-03-29T10:17:07.399Z</time></trkpt><trkpt lat="43.1823042" lon="12.2549898"><ele>325.0</ele><time>2026-03-29T10:17:08.399Z</time></trkpt><trkpt lat="43.1822349" lon="12.2548988"><ele>322.5</ele><time>2026-03-29T10:17:09.399Z</time></trkpt><trkpt lat="43.1821698" lon="12.254817"><ele>320.0</ele><time>2026-03-29T10:17:10.399Z</time></trkpt><trkpt lat="43.182096" lon="12.2547268"><ele>317.5</ele><time>2026-03-29T10:17:11.4Z</time></trkpt><trkpt lat="43.182042" lon="12.2546305"><ele>315.0</ele><time>2026-03-29T10:17:12.398Z</time></trkpt><trkpt lat="43.1819903" lon="12.254533"><ele>312.5</ele><time>2026-03-29T10:17:13.4Z</time></trkpt><trkpt lat="43.181946" lon="12.2544462"><ele>310.0</ele><time>2026-03-29T10:17:14.399Z</time></trkpt><trkpt lat="43.1819075" lon="12.2543696"><ele>309.66666666666663</ele><time>2026-03-29T10:17:15.399Z</time></trkpt><trkpt lat="43.1818645" lon="12.2543053"><ele>309.3333333333333</ele><time>2026-03-29T10:17:16.399Z</time></trkpt><trkpt lat="43.1818136" lon="12.2542479"><ele>309.0</ele><time>2026-03-29T10:17:17.398Z</time></trkpt><trkpt lat="43.1817102" lon="12.2542214"><ele>308.6666666666667</ele><time>2026-03-29T10:17:19.398Z</time></trkpt><trkpt lat="43.1816084" lon="12.254198"><ele>308.33333333333337</ele><time>2026-03-29T10:17:21.397Z</time></trkpt><trkpt lat="43.1815299" lon="12.2541994"><ele>308.0</ele><time>2026-03-29T10:17:23.4Z</time></trkpt><trkpt lat="43.1814661" lon="12.2541832"><ele>308.0</ele><time>2026-03-29T10:17:25.4Z</time></trkpt><trkpt lat="43.1814035" lon="12.2541715"><ele>308.0</ele><time>2026-03-29T10:17:27.399Z</time></trkpt><trkpt lat="43.181332" lon="12.254147"><ele>308.0</ele><time>2026-03-29T10:17:29.398Z</time></trkpt><trkpt lat="43.1812527" lon="12.2540849"><ele>308.0</ele><time>2026-03-29T10:17:32.399Z</time></trkpt><trkpt lat="43.1811889" lon="12.2539885"><ele>308.0</ele><time>2026-03-29T10:17:35.397Z</time></trkpt><trkpt lat="43.1811626" lon="12.2538781"><ele>308.0</ele><time>2026-03-29T10:17:37.399Z</time></trkpt><trkpt lat="43.1811529" lon="12.2537923"><ele>308.0</ele><time>2026-03-29T10:17:40.398Z</time></trkpt><trkpt lat="43.1810497" lon="12.2537229"><ele>308.0</ele><time>2026-03-29T10:17:44.399Z</time></trkpt><trkpt lat="43.1809195" lon="12.2537181"><ele>308.0</ele><time>2026-03-29T10:17:46.399Z</time></trkpt><trkpt lat="43.1808167" lon="12.2537081"><ele>308.0</ele><time>2026-03-29T10:17:47.397Z</time></trkpt><trkpt lat="43.1807147" lon="12.2536614"><ele>309.6</ele><time>2026-03-29T10:17:48.399Z</time></trkpt><trkpt lat="43.1806081" lon="12.2536083"><ele>311.20000000000005</ele><time>2026-03-29T10:17:49.399Z</time></trkpt><trkpt lat="43.1805038" lon="12.2535467"><ele>312.8</ele><time>2026-03-29T10:17:50.398Z</time></trkpt><trkpt lat="43.1804031" lon="12.25348"><ele>314.40000000000003</ele><time>2026-03-29T10:17:51.399Z</time></trkpt><trkpt lat="43.1803103" lon="12.2534115"><ele>316.0</ele><time>2026-03-29T10:17:52.399Z</time></trkpt><trkpt lat="43.1802421" lon="12.2533241"><ele>316.0</ele><time>2026-03-29T10:17:53.399Z</time></trkpt><trkpt lat="43.1801668" lon="12.2532463"><ele>316.0</ele><time>2026-03-29T10:17:54.399Z</time></trkpt><trkpt lat="43.1801177" lon="12.2531631"><ele>316.0</ele><time>2026-03-29T10:17:55.399Z</time></trkpt><trkpt lat="43.1800677" lon="12.2530876"><ele>316.0</ele><time>2026-03-29T10:17:56.399Z</time></trkpt><trkpt lat="43.1800322" lon="12.252972"><ele>316.0</ele><time>2026-03-29T10:17:58.399Z</time></trkpt><trkpt lat="43.1800028" lon="12.252883"><ele>316.0</ele><time>2026-03-29T10:18:13.398Z</time></trkpt><trkpt lat="43.1799149" lon="12.2528784"><ele>314.2</ele><time>2026-03-29T10:18:33.399Z</time></trkpt><trkpt lat="43.1798517" lon="12.2529091"><ele>312.40000000000003</ele><time>2026-03-29T10:18:35.399Z</time></trkpt><trkpt lat="43.1797734" lon="12.2529775"><ele>310.6</ele><time>2026-03-29T10:18:38.399Z</time></trkpt><trkpt lat="43.1797002" lon="12.2529964"><ele>308.8</ele><time>2026-03-29T10:18:40.398Z</time></trkpt><trkpt lat="43.1796227" lon="12.2531479"><ele>307.0</ele><time>2026-03-29T10:18:42.398Z</time></trkpt><trkpt lat="43.1795649" lon="12.2532551"><ele>313.8</ele><time>2026-03-29T10:18:43.398Z</time></trkpt><trkpt lat="43.179507" lon="12.2533498"><ele>320.6</ele><time>2026-03-29T10:18:44.398Z</time></trkpt><trkpt lat="43.1794806" lon="12.253487"><ele>327.40000000000003</ele><time>2026-03-29T10:18:46.4Z</time></trkpt><trkpt lat="43.1794313" lon="12.2535545"><ele>334.2</ele><time>2026-03-29T10:18:47.398Z</time></trkpt><trkpt lat="43.1793533" lon="12.253671"><ele>341.0</ele><time>2026-03-29T10:18:49.399Z</time></trkpt><trkpt lat="43.1793001" lon="12.2537465"><ele>341.0</ele><time>2026-03-29T10:18:51.397Z</time></trkpt><trkpt lat="43.1792241" lon="12.2538569"><ele>341.0</ele><time>2026-03-29T10:18:53.4Z</time></trkpt><trkpt lat="43.1791656" lon="12.2539628"><ele>341.0</ele><time>2026-03-29T10:18:55.4Z</time></trkpt><trkpt lat="43.1791479" lon="12.2540692"><ele>341.0</ele><time>2026-03-29T10:18:57.398Z</time></trkpt><trkpt lat="43.1791123" lon="12.254142"><ele>341.0</ele><time>2026-03-29T10:18:59.398Z</time></trkpt><trkpt lat="43.1790645" lon="12.2542942"><ele>342.83333333333337</ele><time>2026-03-29T10:19:01.398Z</time></trkpt><trkpt lat="43.1790258" lon="12.2544203"><ele>344.6666666666667</ele><time>2026-03-29T10:19:26.399Z</time></trkpt><trkpt lat="43.1789918" lon="12.2545097"><ele>346.5</ele><time>2026-03-29T10:19:28.398Z</time></trkpt><trkpt lat="43.1789444" lon="12.2545815"><ele>348.3333333333333</ele><time>2026-03-29T10:19:32.399Z</time></trkpt><trkpt lat="43.1789065" lon="12.2544733"><ele>350.16666666666663</ele><time>2026-03-29T10:19:42.399Z</time></trkpt><trkpt lat="43.1788857" lon="12.2543161"><ele>352.0</ele><time>2026-03-29T10:19:44.399Z</time></trkpt><trkpt lat="43.1788462" lon="12.2542427"><ele>355.6</ele><time>2026-03-29T10:19:45.399Z</time></trkpt><trkpt lat="43.1787589" lon="12.2541236"><ele>359.20000000000005</ele><time>2026-03-29T10:19:47.398Z</time></trkpt><trkpt lat="43.1786707" lon="12.2540486"><ele>362.8</ele><time>2026-03-29T10:19:49.399Z</time></trkpt><trkpt lat="43.178589" lon="12.2540865"><ele>366.4</ele><time>2026-03-29T10:19:50.398Z</time></trkpt><trkpt lat="43.1785198" lon="12.2540926"><ele>370.0</ele><time>2026-03-29T10:19:51.399Z</time></trkpt><trkpt lat="43.1784335" lon="12.2540385"><ele>368.8</ele><time>2026-03-29T10:19:53.399Z</time></trkpt><trkpt lat="43.1783972" lon="12.2538743"><ele>367.6</ele><time>2026-03-29T10:19:55.4Z</time></trkpt><trkpt lat="43.1783855" lon="12.2537782"><ele>366.4</ele><time>2026-03-29T10:19:56.398Z</time></trkpt><trkpt lat="43.178394" lon="12.2536914"><ele>365.2</ele><time>2026-03-29T10:19:57.398Z</time></trkpt><trkpt lat="43.1783919" lon="12.2535952"><ele>364.0</ele><time>2026-03-29T10:19:58.399Z</time></trkpt><trkpt lat="43.1784003" lon="12.2533513"><ele>364.0</ele><time>2026-03-29T10:20:00.399Z</time></trkpt><trkpt lat="43.1784148" lon="12.2532194"><ele>364.0</ele><time>2026-03-29T10:20:01.398Z</time></trkpt><trkpt lat="43.178424" lon="12.2530915"><ele>364.0</ele><time>2026-03-29T10:20:02.398Z</time></trkpt><trkpt lat="43.17844" lon="12.2529402"><ele>364.0</ele><time>2026-03-29T10:20:03.4Z</time></trkpt><trkpt lat="43.1784561" lon="12.2527731"><ele>364.0</ele><time>2026-03-29T10:20:04.399Z</time></trkpt><trkpt lat="43.1784709" lon="12.2526631"><ele>363.0</ele><time>2026-03-29T10:20:05.399Z</time></trkpt><trkpt lat="43.1784703" lon="12.2525743"><ele>362.0</ele><time>2026-03-29T10:20:06.399Z</time></trkpt><trkpt lat="43.1784358" lon="12.2524936"><ele>361.0</ele><time>2026-03-29T10:20:07.398Z</time></trkpt><trkpt lat="43.1783969" lon="12.2523826"><ele>360.0</ele><time>2026-03-29T10:20:08.399Z</time></trkpt><trkpt lat="43.1783377" lon="12.2522643"><ele>359.0</ele><time>2026-03-29T10:20:09.398Z</time></trkpt><trkpt lat="43.1783012" lon="12.2521507"><ele>358.0</ele><time>2026-03-29T10:20:10.4Z</time></trkpt><trkpt lat="43.1782617" lon="12.2520569"><ele>355.0</ele><time>2026-03-29T10:20:11.398Z</time></trkpt><trkpt lat="43.1782157" lon="12.2518991"><ele>352.0</ele><time>2026-03-29T10:20:13.399Z</time></trkpt><trkpt lat="43.1781834" lon="12.2517993"><ele>349.0</ele><time>2026-03-29T10:20:15.399Z</time></trkpt><trkpt lat="43.1781096" lon="12.2519343"><ele>346.0</ele><time>2026-03-29T10:20:18.4Z</time></trkpt><trkpt lat="43.1780842" lon="12.2520149"><ele>343.0</ele><time>2026-03-29T10:20:19.399Z</time></trkpt><trkpt lat="43.1780479" lon="12.2520894"><ele>344.0</ele><time>2026-03-29T10:20:20.4Z</time></trkpt><trkpt lat="43.1779972" lon="12.2522299"><ele>345.0</ele><time>2026-03-29T10:20:22.399Z</time></trkpt><trkpt lat="43.1779665" lon="12.2523164"><ele>346.0</ele><time>2026-03-29T10:20:23.399Z</time></trkpt><trkpt lat="43.1779266" lon="12.2524585"><ele>347.0</ele><time>2026-03-29T10:20:25.399Z</time></trkpt><trkpt lat="43.177906" lon="12.2526113"><ele>348.0</ele><time>2026-03-29T10:20:27.399Z</time></trkpt><trkpt lat="43.1778838" lon="12.2527008"><ele>348.0</ele><time>2026-03-29T10:20:28.399Z</time></trkpt><trkpt lat="43.1778481" lon="12.2528915"><ele>348.0</ele><time>2026-03-29T10:20:30.4Z</time></trkpt><trkpt lat="43.1778284" lon="12.2530025"><ele>348.0</ele><time>2026-03-29T10:20:31.4Z</time></trkpt><trkpt lat="43.1777997" lon="12.2530944"><ele>348.0</ele><time>2026-03-29T10:20:32.4Z</time></trkpt><trkpt lat="43.1777738" lon="12.2531805"><ele>348.0</ele><time>2026-03-29T10:20:33.4Z</time></trkpt><trkpt lat="43.1778114" lon="12.2532585"><ele>348.0</ele><time>2026-03-29T10:20:34.399Z</time></trkpt><trkpt lat="43.1778041" lon="12.2534016"><ele>350.4</ele><time>2026-03-29T10:20:36.399Z</time></trkpt><trkpt lat="43.1777992" lon="12.2535544"><ele>352.79999999999995</ele><time>2026-03-29T10:20:38.399Z</time></trkpt><trkpt lat="43.1778146" lon="12.2536566"><ele>355.2</ele><time>2026-03-29T10:20:39.399Z</time></trkpt><trkpt lat="43.1778204" lon="12.2537441"><ele>357.6</ele><time>2026-03-29T10:20:40.399Z</time></trkpt><trkpt lat="43.1778533" lon="12.2539129"><ele>360.0</ele><time>2026-03-29T10:20:42.399Z</time></trkpt><trkpt lat="43.1778393" lon="12.2540318"><ele>362.3333333333333</ele><time>2026-03-29T10:20:44.397Z</time></trkpt><trkpt lat="43.1778025" lon="12.2541958"><ele>364.6666666666667</ele><time>2026-03-29T10:20:46.399Z</time></trkpt><trkpt lat="43.1778026" lon="12.2543248"><ele>367.0</ele><time>2026-03-29T10:20:47.4Z</time></trkpt><trkpt lat="43.1778147" lon="12.2544107"><ele>369.33333333333337</ele><time>2026-03-29T10:20:48.399Z</time></trkpt><trkpt lat="43.1778665" lon="12.2544797"><ele>371.6666666666667</ele><time>2026-03-29T10:20:49.398Z</time></trkpt><trkpt lat="43.1778742" lon="12.2545677"><ele>374.0</ele><time>2026-03-29T10:20:50.399Z</time></trkpt><trkpt lat="43.1779611" lon="12.2547524"><ele>374.83333333333337</ele><time>2026-03-29T10:20:52.398Z</time></trkpt><trkpt lat="43.1780076" lon="12.2548488"><ele>375.6666666666667</ele><time>2026-03-29T10:20:53.4Z</time></trkpt><trkpt lat="43.1780622" lon="12.2549336"><ele>376.5</ele><time>2026-03-29T10:20:54.399Z</time></trkpt><trkpt lat="43.1781206" lon="12.2550355"><ele>377.3333333333333</ele><time>2026-03-29T10:20:55.4Z</time></trkpt><trkpt lat="43.1781577" lon="12.2551375"><ele>378.16666666666663</ele><time>2026-03-29T10:20:56.398Z</time></trkpt><trkpt lat="43.1781851" lon="12.2552372"><ele>379.0</ele><time>2026-03-29T10:20:57.4Z</time></trkpt><trkpt lat="43.178195" lon="12.2553286"><ele>379.0</ele><time>2026-03-29T10:20:58.399Z</time></trkpt><trkpt lat="43.1782074" lon="12.2554325"><ele>379.0</ele><time>2026-03-29T10:20:59.398Z</time></trkpt><trkpt lat="43.1781979" lon="12.2555809"><ele>379.0</ele><time>2026-03-29T10:21:00.4Z</time></trkpt><trkpt lat="43.178159" lon="12.2557221"><ele>379.0</ele><time>2026-03-29T10:21:01.397Z</time></trkpt><trkpt lat="43.1781522" lon="12.2558503"><ele>379.0</ele><time>2026-03-29T10:21:02.398Z</time></trkpt><trkpt lat="43.1781507" lon="12.2559803"><ele>382.8333333333333</ele><time>2026-03-29T10:21:03.399Z</time></trkpt><trkpt lat="43.1781313" lon="12.2560898"><ele>386.66666666666663</ele><time>2026-03-29T10:21:04.399Z</time></trkpt><trkpt lat="43.1780943" lon="12.2562173"><ele>390.5</ele><time>2026-03-29T10:21:05.399Z</time></trkpt><trkpt lat="43.1780613" lon="12.2563252"><ele>394.3333333333333</ele><time>2026-03-29T10:21:06.399Z</time></trkpt><trkpt lat="43.1780365" lon="12.2564264"><ele>398.1666666666667</ele><time>2026-03-29T10:21:07.399Z</time></trkpt><trkpt lat="43.178126" lon="12.256489"><ele>402.0</ele><time>2026-03-29T10:21:09.398Z</time></trkpt><trkpt lat="43.1781978" lon="12.256488"><ele>402.0</ele><time>2026-03-29T10:21:10.399Z</time></trkpt><trkpt lat="43.1783022" lon="12.2564745"><ele>402.0</ele><time>2026-03-29T10:21:11.399Z</time></trkpt><trkpt lat="43.1783704" lon="12.2564568"><ele>402.0</ele><time>2026-03-29T10:21:12.399Z</time></trkpt><trkpt lat="43.1784795" lon="12.256464"><ele>402.0</ele><time>2026-03-29T10:21:13.399Z</time></trkpt><trkpt lat="43.1785677" lon="12.2564498"><ele>402.0</ele><time>2026-03-29T10:21:14.398Z</time></trkpt><trkpt lat="43.1786583" lon="12.2564084"><ele>402.0</ele><time>2026-03-29T10:21:15.4Z</time></trkpt><trkpt lat="43.1787538" lon="12.2563876"><ele>402.0</ele><time>2026-03-29T10:21:16.399Z</time></trkpt><trkpt lat="43.1788756" lon="12.2563803"><ele>402.0</ele><time>2026-03-29T10:21:18.399Z</time></trkpt><trkpt lat="43.178941" lon="12.2564568"><ele>402.0</ele><time>2026-03-29T10:21:21.399Z</time></trkpt><trkpt lat="43.1788852" lon="12.2565191"><ele>402.0</ele><time>2026-03-29T10:21:23.4Z</time></trkpt><trkpt lat="43.1788158" lon="12.2566375"><ele>402.0</ele><time>2026-03-29T10:21:25.399Z</time></trkpt><trkpt lat="43.1787669" lon="12.2567169"><ele>402.0</ele><time>2026-03-29T10:21:26.399Z</time></trkpt><trkpt lat="43.1787264" lon="12.2568001"><ele>402.0</ele><time>2026-03-29T10:21:27.4Z</time></trkpt><trkpt lat="43.1787006" lon="12.2568817"><ele>402.0</ele><time>2026-03-29T10:21:28.399Z</time></trkpt><trkpt lat="43.1786714" lon="12.2569595"><ele>402.0</ele><time>2026-03-29T10:21:29.4Z</time></trkpt><trkpt lat="43.1786055" lon="12.2570745"><ele>402.0</ele><time>2026-03-29T10:21:31.398Z</time></trkpt><trkpt lat="43.1785437" lon="12.2571465"><ele>402.0</ele><time>2026-03-29T10:21:32.399Z</time></trkpt><trkpt lat="43.1784741" lon="12.2572073"><ele>402.0</ele><time>2026-03-29T10:21:33.399Z</time></trkpt><trkpt lat="43.178407" lon="12.2572667"><ele>402.0</ele><time>2026-03-29T10:21:34.4Z</time></trkpt><trkpt lat="43.1783414" lon="12.2573354"><ele>402.0</ele><time>2026-03-29T10:21:35.398Z</time></trkpt><trkpt lat="43.1782677" lon="12.2573909"><ele>402.0</ele><time>2026-03-29T10:21:36.399Z</time></trkpt><trkpt lat="43.1782025" lon="12.2573996"><ele>402.0</ele><time>2026-03-29T10:21:37.398Z</time></trkpt><trkpt lat="43.1781244" lon="12.2574235"><ele>407.6</ele><time>2026-03-29T10:21:38.399Z</time></trkpt><trkpt lat="43.1780451" lon="12.257441"><ele>413.20000000000005</ele><time>2026-03-29T10:21:41.398Z</time></trkpt><trkpt lat="43.1780385" lon="12.2575393"><ele>418.8</ele><time>2026-03-29T10:21:45.399Z</time></trkpt><trkpt lat="43.1780565" lon="12.2576869"><ele>424.4</ele><time>2026-03-29T10:21:47.399Z</time></trkpt><trkpt lat="43.1780905" lon="12.2577828"><ele>430.0</ele><time>2026-03-29T10:21:48.4Z</time></trkpt><trkpt lat="43.1781313" lon="12.2579394"><ele>431.2</ele><time>2026-03-29T10:21:50.399Z</time></trkpt><trkpt lat="43.1781006" lon="12.2581462"><ele>432.4</ele><time>2026-03-29T10:21:52.399Z</time></trkpt><trkpt lat="43.1780881" lon="12.2582756"><ele>433.6</ele><time>2026-03-29T10:21:53.4Z</time></trkpt><trkpt lat="43.1780912" lon="12.258396"><ele>434.8</ele><time>2026-03-29T10:21:54.399Z</time></trkpt><trkpt lat="43.1780975" lon="12.2584945"><ele>436.0</ele><time>2026-03-29T10:21:55.399Z</time></trkpt><trkpt lat="43.178099" lon="12.2585827"><ele>436.0</ele><time>2026-03-29T10:21:56.399Z</time></trkpt><trkpt lat="43.1781065" lon="12.2587517"><ele>436.0</ele><time>2026-03-29T10:21:58.4Z</time></trkpt><trkpt lat="43.1781006" lon="12.2588558"><ele>436.0</ele><time>2026-03-29T10:21:59.4Z</time></trkpt><trkpt lat="43.1781111" lon="12.2589651"><ele>436.0</ele><time>2026-03-29T10:22:00.398Z</time></trkpt><trkpt lat="43.1780853" lon="12.25909"><ele>436.0</ele><time>2026-03-29T10:22:01.399Z</time></trkpt><trkpt lat="43.1780581" lon="12.2592091"><ele>435.00000000000006</ele><time>2026-03-29T10:22:02.398Z</time></trkpt><trkpt lat="43.1781079" lon="12.259306"><ele>434.0</ele><time>2026-03-29T10:22:04.398Z</time></trkpt><trkpt lat="43.1781827" lon="12.2593237"><ele>433.0</ele><time>2026-03-29T10:22:05.399Z</time></trkpt><trkpt lat="43.1782215" lon="12.259436"><ele>432.0</ele><time>2026-03-29T10:22:07.398Z</time></trkpt><trkpt lat="43.1781994" lon="12.2595307"><ele>431.00000000000006</ele><time>2026-03-29T10:22:08.398Z</time></trkpt><trkpt lat="43.1782018" lon="12.2596452"><ele>430.0</ele><time>2026-03-29T10:22:10.399Z</time></trkpt><trkpt lat="43.1782652" lon="12.2597426"><ele>426.2</ele><time>2026-03-29T10:22:12.399Z</time></trkpt><trkpt lat="43.1783436" lon="12.2597933"><ele>422.4</ele><time>2026-03-29T10:22:13.398Z</time></trkpt><trkpt lat="43.1784096" lon="12.2598583"><ele>418.6</ele><time>2026-03-29T10:22:14.401Z</time></trkpt><trkpt lat="43.1785124" lon="12.2598986"><ele>414.8</ele><time>2026-03-29T10:22:15.398Z</time></trkpt><trkpt lat="43.1786019" lon="12.2599249"><ele>411.0</ele><time>2026-03-29T10:22:16.398Z</time></trkpt><trkpt lat="43.1786665" lon="12.2600222"><ele>411.0</ele><time>2026-03-29T10:22:18.398Z</time></trkpt><trkpt lat="43.1787298" lon="12.2600885"><ele>411.0</ele><time>2026-03-29T10:22:19.399Z</time></trkpt><trkpt lat="43.1787722" lon="12.2601545"><ele>411.0</ele><time>2026-03-29T10:22:20.398Z</time></trkpt><trkpt lat="43.1788101" lon="12.2602403"><ele>411.0</ele><time>2026-03-29T10:22:21.399Z</time></trkpt><trkpt lat="43.1788473" lon="12.2603335"><ele>411.0</ele><time>2026-03-29T10:22:22.4Z</time></trkpt><trkpt lat="43.1788848" lon="12.2604372"><ele>411.0</ele><time>2026-03-29T10:22:23.398Z</time></trkpt><trkpt lat="43.1789035" lon="12.2605306"><ele>411.0</ele><time>2026-03-29T10:22:24.4Z</time></trkpt><trkpt lat="43.1790031" lon="12.2606354"><ele>407.20000000000005</ele><time>2026-03-29T10:22:26.399Z</time></trkpt><trkpt lat="43.1791091" lon="12.2605964"><ele>403.40000000000003</ele><time>2026-03-29T10:22:28.398Z</time></trkpt><trkpt lat="43.1791946" lon="12.2605594"><ele>399.6</ele><time>2026-03-29T10:22:29.398Z</time></trkpt><trkpt lat="43.1792947" lon="12.2605101"><ele>395.8</ele><time>2026-03-29T10:22:30.4Z</time></trkpt><trkpt lat="43.1793774" lon="12.2604793"><ele>392.0</ele><time>2026-03-29T10:22:31.401Z</time></trkpt><trkpt lat="43.1794564" lon="12.2604917"><ele>392.0</ele><time>2026-03-29T10:22:32.398Z</time></trkpt><trkpt lat="43.1795361" lon="12.2605235"><ele>392.0</ele><time>2026-03-29T10:22:33.399Z</time></trkpt><trkpt lat="43.1795979" lon="12.2605578"><ele>392.0</ele><time>2026-03-29T10:22:34.4Z</time></trkpt><trkpt lat="43.1796643" lon="12.2606006"><ele>392.0</ele><time>2026-03-29T10:22:35.4Z</time></trkpt><trkpt lat="43.1797271" lon="12.2606547"><ele>392.0</ele><time>2026-03-29T10:22:36.401Z</time></trkpt><trkpt lat="43.179787" lon="12.2606836"><ele>392.0</ele><time>2026-03-29T10:22:37.4Z</time></trkpt><trkpt lat="43.1798564" lon="12.2606648"><ele>392.0</ele><time>2026-03-29T10:22:38.399Z</time></trkpt><trkpt lat="43.1799895" lon="12.2606585"><ele>396.16666666666663</ele><time>2026-03-29T10:22:40.399Z</time></trkpt><trkpt lat="43.1800532" lon="12.2606719"><ele>400.3333333333333</ele><time>2026-03-29T10:22:41.399Z</time></trkpt><trkpt lat="43.1801425" lon="12.2607"><ele>404.5</ele><time>2026-03-29T10:22:42.399Z</time></trkpt><trkpt lat="43.1802135" lon="12.2607047"><ele>408.66666666666663</ele><time>2026-03-29T10:22:43.4Z</time></trkpt><trkpt lat="43.1802945" lon="12.2606952"><ele>412.8333333333333</ele><time>2026-03-29T10:22:44.4Z</time></trkpt><trkpt lat="43.1803824" lon="12.2606623"><ele>417.0</ele><time>2026-03-29T10:22:45.4Z</time></trkpt><trkpt lat="43.1804551" lon="12.2606383"><ele>417.0</ele><time>2026-03-29T10:22:46.398Z</time></trkpt><trkpt lat="43.1805297" lon="12.2606408"><ele>417.0</ele><time>2026-03-29T10:22:47.399Z</time></trkpt><trkpt lat="43.1806435" lon="12.2606559"><ele>417.0</ele><time>2026-03-29T10:22:49.399Z</time></trkpt><trkpt lat="43.1806827" lon="12.2607395"><ele>417.0</ele><time>2026-03-29T10:22:51.4Z</time></trkpt><trkpt lat="43.1806454" lon="12.2608677"><ele>417.0</ele><time>2026-03-29T10:22:53.399Z</time></trkpt><trkpt lat="43.1806027" lon="12.2609402"><ele>417.0</ele><time>2026-03-29T10:22:54.4Z</time></trkpt><trkpt lat="43.1805531" lon="12.2610042"><ele>417.0</ele><time>2026-03-29T10:22:55.399Z</time></trkpt><trkpt lat="43.1804875" lon="12.2610633"><ele>417.0</ele><time>2026-03-29T10:22:56.399Z</time></trkpt><trkpt lat="43.1804181" lon="12.2611122"><ele>417.0</ele><time>2026-03-29T10:22:57.4Z</time></trkpt><trkpt lat="43.1803418" lon="12.2611594"><ele>417.0</ele><time>2026-03-29T10:22:58.399Z</time></trkpt><trkpt lat="43.1802629" lon="12.2612004"><ele>417.0</ele><time>2026-03-29T10:22:59.399Z</time></trkpt><trkpt lat="43.1801789" lon="12.2612386"><ele>417.0</ele><time>2026-03-29T10:23:00.398Z</time></trkpt><trkpt lat="43.1800913" lon="12.2612916"><ele>417.0</ele><time>2026-03-29T10:23:01.4Z</time></trkpt><trkpt lat="43.1800067" lon="12.2613593"><ele>417.0</ele><time>2026-03-29T10:23:02.399Z</time></trkpt><trkpt lat="43.1799299" lon="12.2614209"><ele>417.0</ele><time>2026-03-29T10:23:03.399Z</time></trkpt><trkpt lat="43.1798436" lon="12.2614778"><ele>417.0</ele><time>2026-03-29T10:23:04.4Z</time></trkpt><trkpt lat="43.1797673" lon="12.2615314"><ele>417.0</ele><time>2026-03-29T10:23:05.4Z</time></trkpt><trkpt lat="43.1796741" lon="12.2615977"><ele>421.20000000000005</ele><time>2026-03-29T10:23:06.399Z</time></trkpt><trkpt lat="43.179593" lon="12.2616374"><ele>425.4</ele><time>2026-03-29T10:23:07.398Z</time></trkpt><trkpt lat="43.1795028" lon="12.2617086"><ele>429.59999999999997</ele><time>2026-03-29T10:23:08.4Z</time></trkpt><trkpt lat="43.1794104" lon="12.2617706"><ele>433.79999999999995</ele><time>2026-03-29T10:23:09.4Z</time></trkpt><trkpt lat="43.1793135" lon="12.261842"><ele>438.0</ele><time>2026-03-29T10:23:10.399Z</time></trkpt><trkpt lat="43.1792153" lon="12.2619161"><ele>438.0</ele><time>2026-03-29T10:23:11.399Z</time></trkpt><trkpt lat="43.1791155" lon="12.2620154"><ele>437.99999999999994</ele><time>2026-03-29T10:23:12.399Z</time></trkpt><trkpt lat="43.1790193" lon="12.2620802"><ele>437.99999999999994</ele><time>2026-03-29T10:23:13.399Z</time></trkpt><trkpt lat="43.1789194" lon="12.2621407"><ele>438.0</ele><time>2026-03-29T10:23:14.399Z</time></trkpt><trkpt lat="43.1788152" lon="12.2621735"><ele>438.0</ele><time>2026-03-29T10:23:15.399Z</time></trkpt><trkpt lat="43.1787268" lon="12.2621879"><ele>439.2</ele><time>2026-03-29T10:23:16.399Z</time></trkpt><trkpt lat="43.1786404" lon="12.2621984"><ele>440.4</ele><time>2026-03-29T10:23:17.399Z</time></trkpt><trkpt lat="43.1785591" lon="12.2622012"><ele>441.59999999999997</ele><time>2026-03-29T10:23:18.399Z</time></trkpt><trkpt lat="43.1784659" lon="12.2621984"><ele>442.79999999999995</ele><time>2026-03-29T10:23:19.4Z</time></trkpt><trkpt lat="43.17837" lon="12.26218"><ele>444.0</ele><time>2026-03-29T10:23:20.399Z</time></trkpt><trkpt lat="43.1782781" lon="12.2621707"><ele>445.6</ele><time>2026-03-29T10:23:21.399Z</time></trkpt><trkpt lat="43.1781746" lon="12.2621563"><ele>447.2</ele><time>2026-03-29T10:23:22.398Z</time></trkpt><trkpt lat="43.1780741" lon="12.2621329"><ele>448.80000000000007</ele><time>2026-03-29T10:23:23.4Z</time></trkpt><trkpt lat="43.1779752" lon="12.2621006"><ele>450.40000000000003</ele><time>2026-03-29T10:23:24.4Z</time></trkpt><trkpt lat="43.1778789" lon="12.2620552"><ele>452.0</ele><time>2026-03-29T10:23:25.399Z</time></trkpt><trkpt lat="43.1777746" lon="12.2619994"><ele>452.0</ele><time>2026-03-29T10:23:26.399Z</time></trkpt><trkpt lat="43.1776765" lon="12.2619307"><ele>452.00000000000006</ele><time>2026-03-29T10:23:27.399Z</time></trkpt><trkpt lat="43.177581" lon="12.2618629"><ele>452.00000000000006</ele><time>2026-03-29T10:23:28.399Z</time></trkpt><trkpt lat="43.1774807" lon="12.2617996"><ele>452.0</ele><time>2026-03-29T10:23:29.399Z</time></trkpt><trkpt lat="43.1773752" lon="12.2617472"><ele>452.0</ele><time>2026-03-29T10:23:30.4Z</time></trkpt><trkpt lat="43.1772741" lon="12.2617007"><ele>452.8</ele><time>2026-03-29T10:23:31.4Z</time></trkpt><trkpt lat="43.1771643" lon="12.2616663"><ele>453.6</ele><time>2026-03-29T10:23:32.4Z</time></trkpt><trkpt lat="43.1770649" lon="12.261638"><ele>454.40000000000003</ele><time>2026-03-29T10:23:33.398Z</time></trkpt><trkpt lat="43.1769585" lon="12.2616173"><ele>455.20000000000005</ele><time>2026-03-29T10:23:34.398Z</time></trkpt><trkpt lat="43.1768521" lon="12.2615905"><ele>456.0</ele><time>2026-03-29T10:23:35.399Z</time></trkpt><trkpt lat="43.176744" lon="12.2615651"><ele>456.0</ele><time>2026-03-29T10:23:36.399Z</time></trkpt><trkpt lat="43.1766393" lon="12.261523"><ele>456.0</ele><time>2026-03-29T10:23:37.399Z</time></trkpt><trkpt lat="43.1765443" lon="12.2614749"><ele>456.0</ele><time>2026-03-29T10:23:38.4Z</time></trkpt><trkpt lat="43.1764801" lon="12.2613873"><ele>456.0</ele><time>2026-03-29T10:23:39.398Z</time></trkpt><trkpt lat="43.1764091" lon="12.2613072"><ele>456.0</ele><time>2026-03-29T10:23:40.401Z</time></trkpt><trkpt lat="43.1763339" lon="12.2612128"><ele>455.4</ele><time>2026-03-29T10:23:41.4Z</time></trkpt><trkpt lat="43.1762609" lon="12.2611101"><ele>454.8</ele><time>2026-03-29T10:23:42.398Z</time></trkpt><trkpt lat="43.1761906" lon="12.2609938"><ele>454.19999999999993</ele><time>2026-03-29T10:23:43.398Z</time></trkpt><trkpt lat="43.176125" lon="12.2608709"><ele>453.59999999999997</ele><time>2026-03-29T10:23:44.399Z</time></trkpt><trkpt lat="43.1760663" lon="12.2607359"><ele>453.0</ele><time>2026-03-29T10:23:45.4Z</time></trkpt><trkpt lat="43.1760203" lon="12.2606042"><ele>454.59999999999997</ele><time>2026-03-29T10:23:46.4Z</time></trkpt><trkpt lat="43.1759961" lon="12.2604663"><ele>456.19999999999993</ele><time>2026-03-29T10:23:47.4Z</time></trkpt><trkpt lat="43.1759913" lon="12.2603306"><ele>457.8</ele><time>2026-03-29T10:23:48.398Z</time></trkpt><trkpt lat="43.1759971" lon="12.260192"><ele>459.4</ele><time>2026-03-29T10:23:49.4Z</time></trkpt><trkpt lat="43.1760303" lon="12.2600565"><ele>461.0</ele><time>2026-03-29T10:23:50.399Z</time></trkpt><trkpt lat="43.1760449" lon="12.2598998"><ele>462.8</ele><time>2026-03-29T10:23:51.399Z</time></trkpt><trkpt lat="43.1760584" lon="12.2597303"><ele>464.6</ele><time>2026-03-29T10:23:52.399Z</time></trkpt><trkpt lat="43.1760863" lon="12.2595794"><ele>466.4</ele><time>2026-03-29T10:23:53.4Z</time></trkpt><trkpt lat="43.1761139" lon="12.2594343"><ele>468.2</ele><time>2026-03-29T10:23:54.4Z</time></trkpt><trkpt lat="43.1761439" lon="12.2593076"><ele>470.0</ele><time>2026-03-29T10:23:55.398Z</time></trkpt><trkpt lat="43.176152" lon="12.2591888"><ele>470.0</ele><time>2026-03-29T10:23:56.399Z</time></trkpt><trkpt lat="43.1761514" lon="12.2590743"><ele>470.0</ele><time>2026-03-29T10:23:57.401Z</time></trkpt><trkpt lat="43.1761006" lon="12.2589667"><ele>470.0</ele><time>2026-03-29T10:23:58.398Z</time></trkpt><trkpt lat="43.1760346" lon="12.258884"><ele>470.0</ele><time>2026-03-29T10:23:59.398Z</time></trkpt><trkpt lat="43.1759515" lon="12.2588275"><ele>470.0</ele><time>2026-03-29T10:24:00.4Z</time></trkpt><trkpt lat="43.1758528" lon="12.2587781"><ele>468.25</ele><time>2026-03-29T10:24:01.4Z</time></trkpt><trkpt lat="43.1757504" lon="12.2587446"><ele>466.5</ele><time>2026-03-29T10:24:02.399Z</time></trkpt><trkpt lat="43.1756393" lon="12.2587355"><ele>464.75</ele><time>2026-03-29T10:24:03.399Z</time></trkpt><trkpt lat="43.1755224" lon="12.2587373"><ele>463.0</ele><time>2026-03-29T10:24:04.399Z</time></trkpt><trkpt lat="43.1753887" lon="12.2587306"><ele>463.0</ele><time>2026-03-29T10:24:05.4Z</time></trkpt><trkpt lat="43.1752588" lon="12.25873"><ele>463.0</ele><time>2026-03-29T10:24:06.399Z</time></trkpt><trkpt lat="43.1751197" lon="12.2587118"><ele>463.0</ele><time>2026-03-29T10:24:07.4Z</time></trkpt><trkpt lat="43.1749827" lon="12.2587008"><ele>463.0</ele><time>2026-03-29T10:24:08.399Z</time></trkpt><trkpt lat="43.1748528" lon="12.2586923"><ele>464.25</ele><time>2026-03-29T10:24:09.398Z</time></trkpt><trkpt lat="43.1747286" lon="12.2586814"><ele>465.5</ele><time>2026-03-29T10:24:10.4Z</time></trkpt><trkpt lat="43.1745999" lon="12.2586536"><ele>466.75</ele><time>2026-03-29T10:24:11.4Z</time></trkpt><trkpt lat="43.1744687" lon="12.2586305"><ele>468.0</ele><time>2026-03-29T10:24:12.401Z</time></trkpt><trkpt lat="43.1743437" lon="12.2585876"><ele>468.0</ele><time>2026-03-29T10:24:13.4Z</time></trkpt><trkpt lat="43.1742217" lon="12.2585308"><ele>468.0</ele><time>2026-03-29T10:24:14.401Z</time></trkpt><trkpt lat="43.174104" lon="12.2584693"><ele>468.0</ele><time>2026-03-29T10:24:15.399Z</time></trkpt><trkpt lat="43.1739909" lon="12.2584116"><ele>468.0</ele><time>2026-03-29T10:24:16.4Z</time></trkpt><trkpt lat="43.1738739" lon="12.2583356"><ele>468.25</ele><time>2026-03-29T10:24:17.399Z</time></trkpt><trkpt lat="43.1737671" lon="12.2582529"><ele>468.5</ele><time>2026-03-29T10:24:18.398Z</time></trkpt><trkpt lat="43.1736472" lon="12.2581524"><ele>468.75</ele><time>2026-03-29T10:24:19.4Z</time></trkpt><trkpt lat="43.1735387" lon="12.2580417"><ele>469.0</ele><time>2026-03-29T10:24:20.399Z</time></trkpt><trkpt lat="43.1734325" lon="12.2579274"><ele>469.0</ele><time>2026-03-29T10:24:21.4Z</time></trkpt><trkpt lat="43.1733295" lon="12.2577967"><ele>469.0</ele><time>2026-03-29T10:24:22.399Z</time></trkpt><trkpt lat="43.1732287" lon="12.2576619"><ele>469.0</ele><time>2026-03-29T10:24:23.4Z</time></trkpt><trkpt lat="43.1731279" lon="12.2575254"><ele>469.0</ele><time>2026-03-29T10:24:24.4Z</time></trkpt><trkpt lat="43.1730287" lon="12.257399"><ele>468.5</ele><time>2026-03-29T10:24:25.4Z</time></trkpt><trkpt lat="43.1729401" lon="12.257274"><ele>468.0</ele><time>2026-03-29T10:24:26.4Z</time></trkpt><trkpt lat="43.172847" lon="12.2571566"><ele>467.5</ele><time>2026-03-29T10:24:27.399Z</time></trkpt><trkpt lat="43.1727507" lon="12.2570474"><ele>467.0</ele><time>2026-03-29T10:24:28.398Z</time></trkpt><trkpt lat="43.1726405" lon="12.2569489"><ele>467.0</ele><time>2026-03-29T10:24:29.4Z</time></trkpt><trkpt lat="43.1725229" lon="12.2568801"><ele>467.0</ele><time>2026-03-29T10:24:30.4Z</time></trkpt><trkpt lat="43.1724058" lon="12.25683"><ele>467.0</ele><time>2026-03-29T10:24:31.399Z</time></trkpt><trkpt lat="43.1722988" lon="12.2567689"><ele>467.0</ele><time>2026-03-29T10:24:32.399Z</time></trkpt><trkpt lat="43.1721941" lon="12.2567023"><ele>467.25</ele><time>2026-03-29T10:24:33.399Z</time></trkpt><trkpt lat="43.1720868" lon="12.2566271"><ele>467.5</ele><time>2026-03-29T10:24:34.399Z</time></trkpt><trkpt lat="43.1719812" lon="12.2565575"><ele>467.75</ele><time>2026-03-29T10:24:35.4Z</time></trkpt><trkpt lat="43.171875" lon="12.2565412"><ele>468.0</ele><time>2026-03-29T10:24:36.398Z</time></trkpt><trkpt lat="43.1717575" lon="12.2565243"><ele>468.0</ele><time>2026-03-29T10:24:37.399Z</time></trkpt><trkpt lat="43.1716558" lon="12.2565068"><ele>467.99999999999994</ele><time>2026-03-29T10:24:38.4Z</time></trkpt><trkpt lat="43.1715478" lon="12.2564811"><ele>467.99999999999994</ele><time>2026-03-29T10:24:39.399Z</time></trkpt><trkpt lat="43.1714601" lon="12.2564262"><ele>468.0</ele><time>2026-03-29T10:24:40.401Z</time></trkpt><trkpt lat="43.1713866" lon="12.2563367"><ele>468.0</ele><time>2026-03-29T10:24:41.399Z</time></trkpt><trkpt lat="43.1713231" lon="12.2562395"><ele>466.59999999999997</ele><time>2026-03-29T10:24:42.4Z</time></trkpt><trkpt lat="43.1712621" lon="12.2561282"><ele>465.19999999999993</ele><time>2026-03-29T10:24:43.399Z</time></trkpt><trkpt lat="43.1712166" lon="12.2559948"><ele>463.8</ele><time>2026-03-29T10:24:44.399Z</time></trkpt><trkpt lat="43.1711667" lon="12.2558787"><ele>462.4</ele><time>2026-03-29T10:24:45.4Z</time></trkpt><trkpt lat="43.1711145" lon="12.2557632"><ele>461.0</ele><time>2026-03-29T10:24:46.4Z</time></trkpt><trkpt lat="43.171054" lon="12.2556468"><ele>459.6</ele><time>2026-03-29T10:24:47.4Z</time></trkpt><trkpt lat="43.1709963" lon="12.2555291"><ele>458.20000000000005</ele><time>2026-03-29T10:24:48.399Z</time></trkpt><trkpt lat="43.1709548" lon="12.255407"><ele>456.79999999999995</ele><time>2026-03-29T10:24:49.399Z</time></trkpt><trkpt lat="43.1709161" lon="12.2552908"><ele>455.4</ele><time>2026-03-29T10:24:50.4Z</time></trkpt><trkpt lat="43.17091" lon="12.2551625"><ele>454.0</ele><time>2026-03-29T10:24:51.4Z</time></trkpt><trkpt lat="43.1709074" lon="12.2550321"><ele>454.00000000000006</ele><time>2026-03-29T10:24:52.399Z</time></trkpt><trkpt lat="43.1709523" lon="12.2549469"><ele>454.0</ele><time>2026-03-29T10:24:53.399Z</time></trkpt><trkpt lat="43.1709884" lon="12.254872"><ele>454.0</ele><time>2026-03-29T10:24:54.399Z</time></trkpt><trkpt lat="43.1711003" lon="12.2547801"><ele>454.0</ele><time>2026-03-29T10:24:56.398Z</time></trkpt><trkpt lat="43.1711737" lon="12.2547498"><ele>454.00000000000006</ele><time>2026-03-29T10:24:57.401Z</time></trkpt><trkpt lat="43.1712576" lon="12.2547721"><ele>454.0</ele><time>2026-03-29T10:24:58.4Z</time></trkpt><trkpt lat="43.1713217" lon="12.2547782"><ele>454.0</ele><time>2026-03-29T10:24:59.399Z</time></trkpt><trkpt lat="43.1714378" lon="12.2547963"><ele>454.0</ele><time>2026-03-29T10:25:01.4Z</time></trkpt><trkpt lat="43.1715515" lon="12.2548204"><ele>454.0</ele><time>2026-03-29T10:25:03.398Z</time></trkpt><trkpt lat="43.1716503" lon="12.2548467"><ele>454.0</ele><time>2026-03-29T10:25:05.4Z</time></trkpt><trkpt lat="43.1717163" lon="12.2548438"><ele>454.0</ele><time>2026-03-29T10:25:06.4Z</time></trkpt><trkpt lat="43.1717838" lon="12.2548551"><ele>454.1666666666667</ele><time>2026-03-29T10:25:07.399Z</time></trkpt><trkpt lat="43.1718571" lon="12.2548404"><ele>454.33333333333337</ele><time>2026-03-29T10:25:08.399Z</time></trkpt><trkpt lat="43.1719387" lon="12.2548117"><ele>454.5</ele><time>2026-03-29T10:25:09.4Z</time></trkpt><trkpt lat="43.1720202" lon="12.2547757"><ele>454.66666666666663</ele><time>2026-03-29T10:25:10.4Z</time></trkpt><trkpt lat="43.1721035" lon="12.254749"><ele>454.8333333333333</ele><time>2026-03-29T10:25:11.4Z</time></trkpt><trkpt lat="43.1721929" lon="12.254707"><ele>455.0</ele><time>2026-03-29T10:25:12.399Z</time></trkpt><trkpt lat="43.1722694" lon="12.2546481"><ele>452.16666666666663</ele><time>2026-03-29T10:25:13.4Z</time></trkpt><trkpt lat="43.1723392" lon="12.2545753"><ele>449.3333333333333</ele><time>2026-03-29T10:25:14.398Z</time></trkpt><trkpt lat="43.1724119" lon="12.2545094"><ele>446.5</ele><time>2026-03-29T10:25:15.399Z</time></trkpt><trkpt lat="43.1724884" lon="12.2544512"><ele>443.66666666666663</ele><time>2026-03-29T10:25:16.4Z</time></trkpt><trkpt lat="43.1725666" lon="12.2544254"><ele>440.8333333333333</ele><time>2026-03-29T10:25:17.4Z</time></trkpt><trkpt lat="43.1726367" lon="12.2543935"><ele>438.0</ele><time>2026-03-29T10:25:18.4Z</time></trkpt><trkpt lat="43.1727029" lon="12.2543488"><ele>438.0</ele><time>2026-03-29T10:25:19.4Z</time></trkpt><trkpt lat="43.1727728" lon="12.2542512"><ele>438.0</ele><time>2026-03-29T10:25:21.399Z</time></trkpt><trkpt lat="43.1728527" lon="12.2541206"><ele>438.0</ele><time>2026-03-29T10:25:23.398Z</time></trkpt><trkpt lat="43.1729668" lon="12.25404"><ele>438.0</ele><time>2026-03-29T10:25:25.4Z</time></trkpt><trkpt lat="43.1730635" lon="12.2539884"><ele>435.79999999999995</ele><time>2026-03-29T10:25:26.401Z</time></trkpt><trkpt lat="43.1731511" lon="12.2539259"><ele>433.59999999999997</ele><time>2026-03-29T10:25:27.399Z</time></trkpt><trkpt lat="43.1732356" lon="12.2538738"><ele>431.40000000000003</ele><time>2026-03-29T10:25:28.399Z</time></trkpt><trkpt lat="43.173334" lon="12.2537992"><ele>429.20000000000005</ele><time>2026-03-29T10:25:29.401Z</time></trkpt><trkpt lat="43.1734237" lon="12.2537293"><ele>427.0</ele><time>2026-03-29T10:25:30.401Z</time></trkpt><trkpt lat="43.1735113" lon="12.2536639"><ele>427.0</ele><time>2026-03-29T10:25:31.4Z</time></trkpt><trkpt lat="43.1736144" lon="12.2535794"><ele>427.00000000000006</ele><time>2026-03-29T10:25:32.4Z</time></trkpt><trkpt lat="43.1737001" lon="12.2535045"><ele>427.00000000000006</ele><time>2026-03-29T10:25:33.4Z</time></trkpt><trkpt lat="43.1737685" lon="12.2534109"><ele>427.0</ele><time>2026-03-29T10:25:34.4Z</time></trkpt><trkpt lat="43.1738414" lon="12.2533054"><ele>427.0</ele><time>2026-03-29T10:25:35.399Z</time></trkpt><trkpt lat="43.173912" lon="12.2532046"><ele>424.0</ele><time>2026-03-29T10:25:36.4Z</time></trkpt><trkpt lat="43.1739921" lon="12.253114"><ele>421.00000000000006</ele><time>2026-03-29T10:25:37.4Z</time></trkpt><trkpt lat="43.1740675" lon="12.2530412"><ele>418.0</ele><time>2026-03-29T10:25:38.399Z</time></trkpt><trkpt lat="43.1741334" lon="12.2529691"><ele>415.0</ele><time>2026-03-29T10:25:39.401Z</time></trkpt><trkpt lat="43.1742153" lon="12.2529074"><ele>412.0</ele><time>2026-03-29T10:25:40.4Z</time></trkpt><trkpt lat="43.1742991" lon="12.2528543"><ele>412.0</ele><time>2026-03-29T10:25:41.398Z</time></trkpt><trkpt lat="43.1743676" lon="12.2527784"><ele>412.0</ele><time>2026-03-29T10:25:42.398Z</time></trkpt><trkpt lat="43.1744349" lon="12.2526787"><ele>412.0</ele><time>2026-03-29T10:25:43.4Z</time></trkpt><trkpt lat="43.1745" lon="12.2525728"><ele>412.0</ele><time>2026-03-29T10:25:44.4Z</time></trkpt><trkpt lat="43.1745644" lon="12.2524646"><ele>412.0</ele><time>2026-03-29T10:25:45.4Z</time></trkpt><trkpt lat="43.1746304" lon="12.2523809"><ele>412.00000000000006</ele><time>2026-03-29T10:25:46.399Z</time></trkpt><trkpt lat="43.174692" lon="12.2523003"><ele>412.0</ele><time>2026-03-29T10:25:47.399Z</time></trkpt><trkpt lat="43.1747541" lon="12.2522096"><ele>412.0</ele><time>2026-03-29T10:25:48.4Z</time></trkpt><trkpt lat="43.1748083" lon="12.2521566"><ele>412.0</ele><time>2026-03-29T10:25:49.399Z</time></trkpt><trkpt lat="43.1748654" lon="12.2521165"><ele>412.00000000000006</ele><time>2026-03-29T10:25:50.399Z</time></trkpt><trkpt lat="43.1749315" lon="12.2520788"><ele>412.0</ele><time>2026-03-29T10:25:51.399Z</time></trkpt><trkpt lat="43.1749956" lon="12.2520299"><ele>409.50000000000006</ele><time>2026-03-29T10:25:52.399Z</time></trkpt><trkpt lat="43.1750649" lon="12.2519894"><ele>407.0</ele><time>2026-03-29T10:25:53.399Z</time></trkpt><trkpt lat="43.1751306" lon="12.251951"><ele>404.5</ele><time>2026-03-29T10:25:54.4Z</time></trkpt><trkpt lat="43.1752049" lon="12.2519012"><ele>402.0</ele><time>2026-03-29T10:25:55.4Z</time></trkpt><trkpt lat="43.1752683" lon="12.2518739"><ele>399.50000000000006</ele><time>2026-03-29T10:25:56.4Z</time></trkpt><trkpt lat="43.1753487" lon="12.2518667"><ele>397.0</ele><time>2026-03-29T10:25:57.401Z</time></trkpt><trkpt lat="43.1754624" lon="12.2518861"><ele>397.0</ele><time>2026-03-29T10:25:59.401Z</time></trkpt><trkpt lat="43.1755982" lon="12.25195"><ele>397.0</ele><time>2026-03-29T10:26:01.4Z</time></trkpt><trkpt lat="43.1756728" lon="12.2519473"><ele>397.0</ele><time>2026-03-29T10:26:02.4Z</time></trkpt><trkpt lat="43.1757506" lon="12.2518487"><ele>397.0</ele><time>2026-03-29T10:26:04.398Z</time></trkpt><trkpt lat="43.1757107" lon="12.2517145"><ele>397.0</ele><time>2026-03-29T10:26:06.399Z</time></trkpt><trkpt lat="43.1756568" lon="12.2516472"><ele>397.0</ele><time>2026-03-29T10:26:07.398Z</time></trkpt><trkpt lat="43.1755906" lon="12.2515759"><ele>397.0</ele><time>2026-03-29T10:26:08.4Z</time></trkpt><trkpt lat="43.1755442" lon="12.2514601"><ele>397.0</ele><time>2026-03-29T10:26:09.4Z</time></trkpt><trkpt lat="43.175509" lon="12.2513857"><ele>397.0</ele><time>2026-03-29T10:26:10.399Z</time></trkpt><trkpt lat="43.1754621" lon="12.2513228"><ele>397.0</ele><time>2026-03-29T10:26:11.399Z</time></trkpt><trkpt lat="43.1754149" lon="12.2512603"><ele>397.0</ele><time>2026-03-29T10:26:12.399Z</time></trkpt><trkpt lat="43.1753566" lon="12.2512192"><ele>397.0</ele><time>2026-03-29T10:26:13.4Z</time></trkpt><trkpt lat="43.1752989" lon="12.2511641"><ele>393.7142857142857</ele><time>2026-03-29T10:26:14.399Z</time></trkpt><trkpt lat="43.1753295" lon="12.2510809"><ele>390.42857142857144</ele><time>2026-03-29T10:26:16.4Z</time></trkpt><trkpt lat="43.1753886" lon="12.2510387"><ele>387.1428571428571</ele><time>2026-03-29T10:26:17.401Z</time></trkpt><trkpt lat="43.1754622" lon="12.250994"><ele>383.8571428571429</ele><time>2026-03-29T10:26:18.401Z</time></trkpt><trkpt lat="43.1755254" lon="12.250967"><ele>380.5714285714286</ele><time>2026-03-29T10:26:19.399Z</time></trkpt><trkpt lat="43.1755927" lon="12.2509286"><ele>377.2857142857143</ele><time>2026-03-29T10:26:20.4Z</time></trkpt><trkpt lat="43.1756673" lon="12.2508922"><ele>374.0</ele><time>2026-03-29T10:26:21.4Z</time></trkpt><trkpt lat="43.1757225" lon="12.2508405"><ele>374.0</ele><time>2026-03-29T10:26:22.399Z</time></trkpt><trkpt lat="43.1757835" lon="12.2507893"><ele>374.0</ele><time>2026-03-29T10:26:23.398Z</time></trkpt><trkpt lat="43.1759107" lon="12.250762"><ele>374.0</ele><time>2026-03-29T10:26:25.4Z</time></trkpt><trkpt lat="43.1760169" lon="12.2507222"><ele>374.0</ele><time>2026-03-29T10:26:27.399Z</time></trkpt><trkpt lat="43.1760825" lon="12.2507219"><ele>374.0</ele><time>2026-03-29T10:26:28.399Z</time></trkpt><trkpt lat="43.1762012" lon="12.2507249"><ele>374.0</ele><time>2026-03-29T10:26:30.399Z</time></trkpt><trkpt lat="43.1763167" lon="12.2507013"><ele>374.0</ele><time>2026-03-29T10:26:32.399Z</time></trkpt><trkpt lat="43.1763587" lon="12.250568"><ele>374.0</ele><time>2026-03-29T10:26:34.399Z</time></trkpt><trkpt lat="43.1763713" lon="12.2504009"><ele>374.0</ele><time>2026-03-29T10:26:36.401Z</time></trkpt><trkpt lat="43.17638" lon="12.2502983"><ele>374.0</ele><time>2026-03-29T10:26:37.399Z</time></trkpt><trkpt lat="43.1763912" lon="12.2501935"><ele>370.2</ele><time>2026-03-29T10:26:38.398Z</time></trkpt><trkpt lat="43.1764156" lon="12.2500713"><ele>366.4</ele><time>2026-03-29T10:26:39.399Z</time></trkpt><trkpt lat="43.1764302" lon="12.2499594"><ele>362.6</ele><time>2026-03-29T10:26:40.401Z</time></trkpt><trkpt lat="43.1764399" lon="12.2497906"><ele>358.8</ele><time>2026-03-29T10:26:42.4Z</time></trkpt><trkpt lat="43.1764443" lon="12.2496762"><ele>355.0</ele><time>2026-03-29T10:26:43.401Z</time></trkpt><trkpt lat="43.17644" lon="12.2495494"><ele>351.4</ele><time>2026-03-29T10:26:44.401Z</time></trkpt><trkpt lat="43.1764342" lon="12.2494294"><ele>347.8</ele><time>2026-03-29T10:26:45.399Z</time></trkpt><trkpt lat="43.1764205" lon="12.2492553"><ele>344.20000000000005</ele><time>2026-03-29T10:26:47.4Z</time></trkpt><trkpt lat="43.1764126" lon="12.2491635"><ele>340.6</ele><time>2026-03-29T10:26:48.4Z</time></trkpt><trkpt lat="43.1764207" lon="12.2490497"><ele>337.0</ele><time>2026-03-29T10:26:49.399Z</time></trkpt><trkpt lat="43.1764247" lon="12.2489282"><ele>335.66666666666663</ele><time>2026-03-29T10:26:50.398Z</time></trkpt><trkpt lat="43.1764314" lon="12.2488209"><ele>334.3333333333333</ele><time>2026-03-29T10:26:51.4Z</time></trkpt><trkpt lat="43.1764258" lon="12.2487124"><ele>333.0</ele><time>2026-03-29T10:26:52.399Z</time></trkpt><trkpt lat="43.1764233" lon="12.2486125"><ele>331.6666666666667</ele><time>2026-03-29T10:26:53.4Z</time></trkpt><trkpt lat="43.1764319" lon="12.2484996"><ele>330.33333333333337</ele><time>2026-03-29T10:26:54.4Z</time></trkpt><trkpt lat="43.1764518" lon="12.2483215"><ele>329.0</ele><time>2026-03-29T10:26:56.401Z</time></trkpt><trkpt lat="43.1764449" lon="12.2482131"><ele>327.5</ele><time>2026-03-29T10:26:57.399Z</time></trkpt><trkpt lat="43.1764443" lon="12.2481167"><ele>326.0</ele><time>2026-03-29T10:26:58.399Z</time></trkpt><trkpt lat="43.1764392" lon="12.2479285"><ele>324.5</ele><time>2026-03-29T10:27:00.4Z</time></trkpt><trkpt lat="43.1764376" lon="12.247837"><ele>323.0</ele><time>2026-03-29T10:27:01.401Z</time></trkpt><trkpt lat="43.1764079" lon="12.2477376"><ele>321.5</ele><time>2026-03-29T10:27:02.399Z</time></trkpt><trkpt lat="43.1764037" lon="12.2476388"><ele>320.0</ele><time>2026-03-29T10:27:03.4Z</time></trkpt><trkpt lat="43.1764157" lon="12.247552"><ele>320.0</ele><time>2026-03-29T10:27:04.4Z</time></trkpt><trkpt lat="43.1764465" lon="12.2474"><ele>320.0</ele><time>2026-03-29T10:27:06.4Z</time></trkpt><trkpt lat="43.1765241" lon="12.247289"><ele>320.0</ele><time>2026-03-29T10:27:08.4Z</time></trkpt><trkpt lat="43.1765491" lon="12.2471617"><ele>320.0</ele><time>2026-03-29T10:27:10.401Z</time></trkpt><trkpt lat="43.1764915" lon="12.247105"><ele>320.0</ele><time>2026-03-29T10:27:12.401Z</time></trkpt><trkpt lat="43.1763862" lon="12.2471355"><ele>320.0</ele><time>2026-03-29T10:27:14.4Z</time></trkpt><trkpt lat="43.1763293" lon="12.2472177"><ele>320.0</ele><time>2026-03-29T10:27:16.4Z</time></trkpt><trkpt lat="43.176291" lon="12.2473503"><ele>320.0</ele><time>2026-03-29T10:27:18.4Z</time></trkpt><trkpt lat="43.176243" lon="12.2474268"><ele>320.0</ele><time>2026-03-29T10:27:19.398Z</time></trkpt><trkpt lat="43.1762011" lon="12.24751"><ele>320.0</ele><time>2026-03-29T10:27:20.4Z</time></trkpt><trkpt lat="43.1761601" lon="12.2475823"><ele>320.0</ele><time>2026-03-29T10:27:21.399Z</time></trkpt><trkpt lat="43.1761171" lon="12.2476664"><ele>320.0</ele><time>2026-03-29T10:27:22.399Z</time></trkpt><trkpt lat="43.1760841" lon="12.2477634"><ele>320.0</ele><time>2026-03-29T10:27:23.401Z</time></trkpt><trkpt lat="43.1760459" lon="12.2478591"><ele>320.0</ele><time>2026-03-29T10:27:24.4Z</time></trkpt><trkpt lat="43.1760109" lon="12.2479541"><ele>320.0</ele><time>2026-03-29T10:27:25.401Z</time></trkpt><trkpt lat="43.1759737" lon="12.2480339"><ele>320.0</ele><time>2026-03-29T10:27:26.399Z</time></trkpt><trkpt lat="43.1759115" lon="12.2481637"><ele>320.0</ele><time>2026-03-29T10:27:28.401Z</time></trkpt><trkpt lat="43.175877" lon="12.2482538"><ele>320.0</ele><time>2026-03-29T10:27:30.401Z</time></trkpt><trkpt lat="43.1758281" lon="12.2481751"><ele>320.0</ele><time>2026-03-29T10:27:33.4Z</time></trkpt><trkpt lat="43.1758254" lon="12.2480357"><ele>320.0</ele><time>2026-03-29T10:27:35.399Z</time></trkpt><trkpt lat="43.1758299" lon="12.2478627"><ele>320.0</ele><time>2026-03-29T10:27:37.4Z</time></trkpt><trkpt lat="43.1758266" lon="12.2477622"><ele>320.0</ele><time>2026-03-29T10:27:38.4Z</time></trkpt><trkpt lat="43.1758065" lon="12.247658"><ele>320.0</ele><time>2026-03-29T10:27:39.4Z</time></trkpt><trkpt lat="43.1757859" lon="12.2475699"><ele>320.0</ele><time>2026-03-29T10:27:40.4Z</time></trkpt><trkpt lat="43.1757692" lon="12.2473996"><ele>320.0</ele><time>2026-03-29T10:27:42.4Z</time></trkpt><trkpt lat="43.1757397" lon="12.2472475"><ele>320.0</ele><time>2026-03-29T10:27:44.4Z</time></trkpt><trkpt lat="43.1757493" lon="12.2470816"><ele>320.0</ele><time>2026-03-29T10:27:46.401Z</time></trkpt><trkpt lat="43.1758013" lon="12.2469895"><ele>318.33333333333337</ele><time>2026-03-29T10:27:47.399Z</time></trkpt><trkpt lat="43.175831" lon="12.2468906"><ele>316.6666666666667</ele><time>2026-03-29T10:27:48.4Z</time></trkpt><trkpt lat="43.1758539" lon="12.2467971"><ele>315.0</ele><time>2026-03-29T10:27:49.4Z</time></trkpt><trkpt lat="43.1758569" lon="12.2466926"><ele>313.3333333333333</ele><time>2026-03-29T10:27:50.401Z</time></trkpt><trkpt lat="43.1758889" lon="12.2465246"><ele>311.66666666666663</ele><time>2026-03-29T10:27:52.4Z</time></trkpt><trkpt lat="43.1759267" lon="12.2464427"><ele>310.0</ele><time>2026-03-29T10:27:53.4Z</time></trkpt><trkpt lat="43.1759627" lon="12.2463691"><ele>308.66666666666663</ele><time>2026-03-29T10:27:54.4Z</time></trkpt><trkpt lat="43.175971" lon="12.2462751"><ele>307.3333333333333</ele><time>2026-03-29T10:27:55.4Z</time></trkpt><trkpt lat="43.1759784" lon="12.246169"><ele>306.0</ele><time>2026-03-29T10:27:56.4Z</time></trkpt><trkpt lat="43.1759635" lon="12.2460582"><ele>304.6666666666667</ele><time>2026-03-29T10:27:57.399Z</time></trkpt><trkpt lat="43.1759748" lon="12.2459388"><ele>303.33333333333337</ele><time>2026-03-29T10:27:58.4Z</time></trkpt><trkpt lat="43.1760217" lon="12.2458214"><ele>302.0</ele><time>2026-03-29T10:27:59.4Z</time></trkpt><trkpt lat="43.1760954" lon="12.245707"><ele>302.75</ele><time>2026-03-29T10:28:00.4Z</time></trkpt><trkpt lat="43.1761797" lon="12.2455374"><ele>303.5</ele><time>2026-03-29T10:28:01.401Z</time></trkpt><trkpt lat="43.1762729" lon="12.2453941"><ele>304.25</ele><time>2026-03-29T10:28:02.4Z</time></trkpt><trkpt lat="43.1763556" lon="12.2452632"><ele>305.0</ele><time>2026-03-29T10:28:03.4Z</time></trkpt><trkpt lat="43.1764343" lon="12.2451228"><ele>305.0</ele><time>2026-03-29T10:28:04.401Z</time></trkpt><trkpt lat="43.1765161" lon="12.2450152"><ele>305.0</ele><time>2026-03-29T10:28:05.399Z</time></trkpt><trkpt lat="43.1765898" lon="12.2449037"><ele>305.0</ele><time>2026-03-29T10:28:06.399Z</time></trkpt><trkpt lat="43.176647" lon="12.2447755"><ele>305.0</ele><time>2026-03-29T10:28:07.4Z</time></trkpt><trkpt lat="43.1766893" lon="12.2446452"><ele>305.0</ele><time>2026-03-29T10:28:08.398Z</time></trkpt><trkpt lat="43.1767195" lon="12.244512"><ele>302.0</ele><time>2026-03-29T10:28:09.4Z</time></trkpt><trkpt lat="43.1767008" lon="12.2443551"><ele>299.0</ele><time>2026-03-29T10:28:10.4Z</time></trkpt><trkpt lat="43.1766844" lon="12.2442014"><ele>296.0</ele><time>2026-03-29T10:28:11.401Z</time></trkpt><trkpt lat="43.1766716" lon="12.2440512"><ele>293.0</ele><time>2026-03-29T10:28:12.401Z</time></trkpt><trkpt lat="43.1766684" lon="12.2439124"><ele>290.0</ele><time>2026-03-29T10:28:13.401Z</time></trkpt><trkpt lat="43.1766783" lon="12.2437883"><ele>289.8</ele><time>2026-03-29T10:28:14.4Z</time></trkpt><trkpt lat="43.1766922" lon="12.2436981"><ele>289.6</ele><time>2026-03-29T10:28:15.399Z</time></trkpt><trkpt lat="43.1766783" lon="12.2435822"><ele>289.4</ele><time>2026-03-29T10:28:16.4Z</time></trkpt><trkpt lat="43.1766232" lon="12.2434583"><ele>289.2</ele><time>2026-03-29T10:28:17.401Z</time></trkpt><trkpt lat="43.1765139" lon="12.2433518"><ele>289.0</ele><time>2026-03-29T10:28:18.401Z</time></trkpt><trkpt lat="43.1763988" lon="12.2432315"><ele>288.59999999999997</ele><time>2026-03-29T10:28:19.4Z</time></trkpt><trkpt lat="43.1763156" lon="12.2431148"><ele>288.2</ele><time>2026-03-29T10:28:20.4Z</time></trkpt><trkpt lat="43.1762491" lon="12.2430019"><ele>287.79999999999995</ele><time>2026-03-29T10:28:21.4Z</time></trkpt><trkpt lat="43.1762036" lon="12.2428678"><ele>287.4</ele><time>2026-03-29T10:28:22.4Z</time></trkpt><trkpt lat="43.1761856" lon="12.2427134"><ele>287.0</ele><time>2026-03-29T10:28:23.4Z</time></trkpt><trkpt lat="43.1761678" lon="12.2425342"><ele>287.0</ele><time>2026-03-29T10:28:24.401Z</time></trkpt><trkpt lat="43.1761128" lon="12.2423404"><ele>287.0</ele><time>2026-03-29T10:28:25.401Z</time></trkpt><trkpt lat="43.1760406" lon="12.2421372"><ele>287.0</ele><time>2026-03-29T10:28:26.399Z</time></trkpt><trkpt lat="43.1759553" lon="12.2419004"><ele>286.6666666666667</ele><time>2026-03-29T10:28:27.399Z</time></trkpt><trkpt lat="43.1758756" lon="12.2416695"><ele>286.3333333333333</ele><time>2026-03-29T10:28:28.4Z</time></trkpt><trkpt lat="43.1758062" lon="12.2414463"><ele>286.0</ele><time>2026-03-29T10:28:29.4Z</time></trkpt><trkpt lat="43.1757471" lon="12.2412311"><ele>286.3333333333333</ele><time>2026-03-29T10:28:30.4Z</time></trkpt><trkpt lat="43.1756949" lon="12.2410247"><ele>286.6666666666667</ele><time>2026-03-29T10:28:31.4Z</time></trkpt><trkpt lat="43.1756373" lon="12.240821"><ele>287.0</ele><time>2026-03-29T10:28:32.399Z</time></trkpt><trkpt lat="43.1755778" lon="12.2406107"><ele>286.0</ele><time>2026-03-29T10:28:33.4Z</time></trkpt><trkpt lat="43.1755212" lon="12.2403995"><ele>285.0</ele><time>2026-03-29T10:28:34.401Z</time></trkpt><trkpt lat="43.1754758" lon="12.2401808"><ele>284.0</ele><time>2026-03-29T10:28:35.4Z</time></trkpt><trkpt lat="43.1754399" lon="12.239955"><ele>283.6666666666667</ele><time>2026-03-29T10:28:36.4Z</time></trkpt><trkpt lat="43.1754116" lon="12.2397262"><ele>283.3333333333333</ele><time>2026-03-29T10:28:37.4Z</time></trkpt><trkpt lat="43.1753799" lon="12.239492"><ele>283.0</ele><time>2026-03-29T10:28:38.399Z</time></trkpt><trkpt lat="43.1753339" lon="12.2392691"><ele>283.0</ele><time>2026-03-29T10:28:39.401Z</time></trkpt><trkpt lat="43.1752817" lon="12.2390406"><ele>283.0</ele><time>2026-03-29T10:28:40.4Z</time></trkpt><trkpt lat="43.1752244" lon="12.238817"><ele>283.0</ele><time>2026-03-29T10:28:41.4Z</time></trkpt><trkpt lat="43.175165" lon="12.2385932"><ele>282.66666666666663</ele><time>2026-03-29T10:28:42.4Z</time></trkpt><trkpt lat="43.1751087" lon="12.2383683"><ele>282.3333333333333</ele><time>2026-03-29T10:28:43.4Z</time></trkpt><trkpt lat="43.175063" lon="12.2381398"><ele>282.0</ele><time>2026-03-29T10:28:44.4Z</time></trkpt><trkpt lat="43.1750313" lon="12.2379026"><ele>283.3333333333333</ele><time>2026-03-29T10:28:45.4Z</time></trkpt><trkpt lat="43.1750039" lon="12.2376767"><ele>284.66666666666663</ele><time>2026-03-29T10:28:46.4Z</time></trkpt><trkpt lat="43.1749659" lon="12.2374611"><ele>286.0</ele><time>2026-03-29T10:28:47.401Z</time></trkpt><trkpt lat="43.1749165" lon="12.2372445"><ele>284.3333333333333</ele><time>2026-03-29T10:28:48.401Z</time></trkpt><trkpt lat="43.1748507" lon="12.2370392"><ele>282.6666666666667</ele><time>2026-03-29T10:28:49.4Z</time></trkpt><trkpt lat="43.1747767" lon="12.2368572"><ele>281.0</ele><time>2026-03-29T10:28:50.401Z</time></trkpt><trkpt lat="43.1746973" lon="12.2367023"><ele>281.0</ele><time>2026-03-29T10:28:51.401Z</time></trkpt><trkpt lat="43.1746267" lon="12.2365846"><ele>281.0</ele><time>2026-03-29T10:28:52.4Z</time></trkpt><trkpt lat="43.1745595" lon="12.236472"><ele>281.0</ele><time>2026-03-29T10:28:53.4Z</time></trkpt><trkpt lat="43.174504" lon="12.236415"><ele>281.0</ele><time>2026-03-29T10:28:54.401Z</time></trkpt><trkpt lat="43.1744488" lon="12.236367"><ele>281.0</ele><time>2026-03-29T10:28:55.4Z</time></trkpt><trkpt lat="43.1743624" lon="12.2364407"><ele>281.0</ele><time>2026-03-29T10:28:57.4Z</time></trkpt><trkpt lat="43.1742932" lon="12.2365096"><ele>281.0</ele><time>2026-03-29T10:28:58.4Z</time></trkpt><trkpt lat="43.1742318" lon="12.2365786"><ele>281.0</ele><time>2026-03-29T10:28:59.399Z</time></trkpt><trkpt lat="43.1741344" lon="12.236655"><ele>281.0</ele><time>2026-03-29T10:29:00.4Z</time></trkpt><trkpt lat="43.1740233" lon="12.2367444"><ele>281.0</ele><time>2026-03-29T10:29:01.4Z</time></trkpt><trkpt lat="43.1738862" lon="12.2368881"><ele>280.40000000000003</ele><time>2026-03-29T10:29:02.4Z</time></trkpt><trkpt lat="43.1737721" lon="12.2369883"><ele>279.8</ele><time>2026-03-29T10:29:03.399Z</time></trkpt><trkpt lat="43.173699" lon="12.2370449"><ele>279.20000000000005</ele><time>2026-03-29T10:29:04.399Z</time></trkpt><trkpt lat="43.173616" lon="12.2371131"><ele>278.6</ele><time>2026-03-29T10:29:05.401Z</time></trkpt><trkpt lat="43.1735842" lon="12.2371891"><ele>278.0</ele><time>2026-03-29T10:29:07.399Z</time></trkpt><trkpt lat="43.1735719" lon="12.2373094"><ele>277.8</ele><time>2026-03-29T10:29:09.4Z</time></trkpt><trkpt lat="43.1735939" lon="12.2374779"><ele>277.6</ele><time>2026-03-29T10:29:11.401Z</time></trkpt><trkpt lat="43.1735919" lon="12.2375658"><ele>277.4</ele><time>2026-03-29T10:29:12.399Z</time></trkpt><trkpt lat="43.1735683" lon="12.2376468"><ele>277.2</ele><time>2026-03-29T10:29:13.4Z</time></trkpt><trkpt lat="43.1734551" lon="12.2377444"><ele>277.0</ele><time>2026-03-29T10:29:15.399Z</time></trkpt><trkpt lat="43.173371" lon="12.2377818"><ele>277.0</ele><time>2026-03-29T10:29:16.4Z</time></trkpt><trkpt lat="43.1732468" lon="12.2378233"><ele>277.0</ele><time>2026-03-29T10:29:17.4Z</time></trkpt><trkpt lat="43.1731411" lon="12.2378718"><ele>277.0</ele><time>2026-03-29T10:29:18.399Z</time></trkpt><trkpt lat="43.1730355" lon="12.2379134"><ele>277.0</ele><time>2026-03-29T10:29:19.4Z</time></trkpt><trkpt lat="43.1729536" lon="12.2379715"><ele>277.0</ele><time>2026-03-29T10:29:20.399Z</time></trkpt><trkpt lat="43.1728786" lon="12.2380717"><ele>277.75</ele><time>2026-03-29T10:29:21.4Z</time></trkpt><trkpt lat="43.1727965" lon="12.238188"><ele>278.5</ele><time>2026-03-29T10:29:22.402Z</time></trkpt><trkpt lat="43.1727083" lon="12.2383271"><ele>279.25</ele><time>2026-03-29T10:29:23.4Z</time></trkpt><trkpt lat="43.1726191" lon="12.2384557"><ele>280.0</ele><time>2026-03-29T10:29:24.4Z</time></trkpt><trkpt lat="43.1725256" lon="12.2385871"><ele>280.0</ele><time>2026-03-29T10:29:25.4Z</time></trkpt><trkpt lat="43.1724393" lon="12.2386868"><ele>280.0</ele><time>2026-03-29T10:29:26.4Z</time></trkpt><trkpt lat="43.1723852" lon="12.2387886"><ele>280.0</ele><time>2026-03-29T10:29:27.401Z</time></trkpt><trkpt lat="43.1723462" lon="12.2389775"><ele>280.0</ele><time>2026-03-29T10:29:29.399Z</time></trkpt><trkpt lat="43.17232" lon="12.2390749"><ele>280.0</ele><time>2026-03-29T10:29:30.4Z</time></trkpt><trkpt lat="43.1722498" lon="12.2391802"><ele>282.0</ele><time>2026-03-29T10:29:31.401Z</time></trkpt><trkpt lat="43.1721913" lon="12.2392789"><ele>284.0</ele><time>2026-03-29T10:29:32.399Z</time></trkpt><trkpt lat="43.1721294" lon="12.2393751"><ele>286.0</ele><time>2026-03-29T10:29:33.4Z</time></trkpt><trkpt lat="43.1720836" lon="12.239452"><ele>288.0</ele><time>2026-03-29T10:29:34.4Z</time></trkpt><trkpt lat="43.1720277" lon="12.2396108"><ele>290.0</ele><time>2026-03-29T10:29:36.4Z</time></trkpt><trkpt lat="43.1719892" lon="12.2397123"><ele>290.0</ele><time>2026-03-29T10:29:37.4Z</time></trkpt><trkpt lat="43.1719377" lon="12.2397807"><ele>290.0</ele><time>2026-03-29T10:29:38.399Z</time></trkpt><trkpt lat="43.1718242" lon="12.2398836"><ele>290.0</ele><time>2026-03-29T10:29:40.4Z</time></trkpt><trkpt lat="43.1716932" lon="12.2399923"><ele>290.0</ele><time>2026-03-29T10:29:42.4Z</time></trkpt><trkpt lat="43.1716284" lon="12.2400659"><ele>290.0</ele><time>2026-03-29T10:29:43.4Z</time></trkpt><trkpt lat="43.1715615" lon="12.2401504"><ele>290.8</ele><time>2026-03-29T10:29:44.402Z</time></trkpt><trkpt lat="43.1715277" lon="12.2402328"><ele>291.6</ele><time>2026-03-29T10:29:45.399Z</time></trkpt><trkpt lat="43.1715323" lon="12.2404093"><ele>292.4</ele><time>2026-03-29T10:29:47.399Z</time></trkpt><trkpt lat="43.1715746" lon="12.2405077"><ele>293.2</ele><time>2026-03-29T10:29:48.401Z</time></trkpt><trkpt lat="43.171642" lon="12.2406373"><ele>294.0</ele><time>2026-03-29T10:29:49.4Z</time></trkpt><trkpt lat="43.1717181" lon="12.240771"><ele>297.0</ele><time>2026-03-29T10:29:50.399Z</time></trkpt><trkpt lat="43.1717955" lon="12.2409107"><ele>300.0</ele><time>2026-03-29T10:29:51.401Z</time></trkpt><trkpt lat="43.1718733" lon="12.2410465"><ele>303.0</ele><time>2026-03-29T10:29:52.401Z</time></trkpt><trkpt lat="43.1719397" lon="12.2411677"><ele>306.0</ele><time>2026-03-29T10:29:53.4Z</time></trkpt><trkpt lat="43.1720235" lon="12.2412719"><ele>306.0</ele><time>2026-03-29T10:29:54.401Z</time></trkpt><trkpt lat="43.1720855" lon="12.2413774"><ele>306.0</ele><time>2026-03-29T10:29:55.4Z</time></trkpt><trkpt lat="43.1721403" lon="12.2414759"><ele>306.0</ele><time>2026-03-29T10:29:56.401Z</time></trkpt><trkpt lat="43.1721543" lon="12.2415967"><ele>306.0</ele><time>2026-03-29T10:29:57.399Z</time></trkpt><trkpt lat="43.1721324" lon="12.2417169"><ele>306.0</ele><time>2026-03-29T10:29:58.401Z</time></trkpt><trkpt lat="43.1721079" lon="12.2418502"><ele>308.6</ele><time>2026-03-29T10:29:59.4Z</time></trkpt><trkpt lat="43.1720889" lon="12.2419899"><ele>311.20000000000005</ele><time>2026-03-29T10:30:00.401Z</time></trkpt><trkpt lat="43.1720677" lon="12.2421342"><ele>313.79999999999995</ele><time>2026-03-29T10:30:01.401Z</time></trkpt><trkpt lat="43.1720539" lon="12.2422614"><ele>316.4</ele><time>2026-03-29T10:30:02.4Z</time></trkpt><trkpt lat="43.1720334" lon="12.2423935"><ele>319.0</ele><time>2026-03-29T10:30:03.4Z</time></trkpt><trkpt lat="43.1720038" lon="12.2425006"><ele>322.0</ele><time>2026-03-29T10:30:04.399Z</time></trkpt><trkpt lat="43.171969" lon="12.2425944"><ele>325.0</ele><time>2026-03-29T10:30:05.4Z</time></trkpt><trkpt lat="43.1719238" lon="12.2426735"><ele>328.0</ele><time>2026-03-29T10:30:06.4Z</time></trkpt><trkpt lat="43.1718412" lon="12.2427947"><ele>331.0</ele><time>2026-03-29T10:30:08.4Z</time></trkpt><trkpt lat="43.1718044" lon="12.2428731"><ele>334.0</ele><time>2026-03-29T10:30:09.4Z</time></trkpt><trkpt lat="43.1717934" lon="12.243043"><ele>336.16666666666663</ele><time>2026-03-29T10:30:11.4Z</time></trkpt><trkpt lat="43.1718194" lon="12.24321"><ele>338.3333333333333</ele><time>2026-03-29T10:30:13.4Z</time></trkpt><trkpt lat="43.1718371" lon="12.2433051"><ele>340.5</ele><time>2026-03-29T10:30:14.399Z</time></trkpt><trkpt lat="43.1718462" lon="12.2434014"><ele>342.6666666666667</ele><time>2026-03-29T10:30:15.4Z</time></trkpt><trkpt lat="43.171858" lon="12.2434959"><ele>344.83333333333337</ele><time>2026-03-29T10:30:16.401Z</time></trkpt><trkpt lat="43.1718729" lon="12.2435915"><ele>347.0</ele><time>2026-03-29T10:30:17.401Z</time></trkpt><trkpt lat="43.1719092" lon="12.2436918"><ele>347.0</ele><time>2026-03-29T10:30:18.401Z</time></trkpt><trkpt lat="43.1720119" lon="12.2437875"><ele>347.0</ele><time>2026-03-29T10:30:20.401Z</time></trkpt><trkpt lat="43.1721153" lon="12.2438939"><ele>347.0</ele><time>2026-03-29T10:30:22.4Z</time></trkpt><trkpt lat="43.1722145" lon="12.243958"><ele>347.0</ele><time>2026-03-29T10:30:24.399Z</time></trkpt><trkpt lat="43.1723092" lon="12.2440011"><ele>347.6666666666667</ele><time>2026-03-29T10:30:26.4Z</time></trkpt><trkpt lat="43.1723749" lon="12.2440712"><ele>348.33333333333337</ele><time>2026-03-29T10:30:28.399Z</time></trkpt><trkpt lat="43.1723618" lon="12.2441769"><ele>349.0</ele><time>2026-03-29T10:30:30.4Z</time></trkpt><trkpt lat="43.1723306" lon="12.2442954"><ele>349.6666666666667</ele><time>2026-03-29T10:30:32.399Z</time></trkpt><trkpt lat="43.1722929" lon="12.2444069"><ele>350.3333333333333</ele><time>2026-03-29T10:30:34.4Z</time></trkpt><trkpt lat="43.1722191" lon="12.2444946"><ele>351.0</ele><time>2026-03-29T10:30:36.4Z</time></trkpt><trkpt lat="43.1721571" lon="12.2446208"><ele>352.6</ele><time>2026-03-29T10:30:38.401Z</time></trkpt><trkpt lat="43.1721342" lon="12.2447914"><ele>354.20000000000005</ele><time>2026-03-29T10:30:40.401Z</time></trkpt><trkpt lat="43.1721126" lon="12.244903"><ele>355.79999999999995</ele><time>2026-03-29T10:30:41.401Z</time></trkpt><trkpt lat="43.1720938" lon="12.2450108"><ele>357.4</ele><time>2026-03-29T10:30:42.4Z</time></trkpt><trkpt lat="43.1721281" lon="12.2451208"><ele>359.0</ele><time>2026-03-29T10:30:44.4Z</time></trkpt><trkpt lat="43.172228" lon="12.2452443"><ele>362.2</ele><time>2026-03-29T10:30:46.4Z</time></trkpt><trkpt lat="43.1722756" lon="12.2453748"><ele>365.4</ele><time>2026-03-29T10:30:48.399Z</time></trkpt><trkpt lat="43.1722441" lon="12.2454991"><ele>368.6</ele><time>2026-03-29T10:30:50.4Z</time></trkpt><trkpt lat="43.1721947" lon="12.2456682"><ele>371.8</ele><time>2026-03-29T10:30:52.4Z</time></trkpt><trkpt lat="43.1721799" lon="12.2457633"><ele>375.0</ele><time>2026-03-29T10:30:53.401Z</time></trkpt><trkpt lat="43.1721644" lon="12.2458485"><ele>375.6</ele><time>2026-03-29T10:30:54.4Z</time></trkpt><trkpt lat="43.1721701" lon="12.2459733"><ele>376.2</ele><time>2026-03-29T10:30:56.4Z</time></trkpt><trkpt lat="43.1722351" lon="12.2460746"><ele>376.79999999999995</ele><time>2026-03-29T10:30:58.4Z</time></trkpt><trkpt lat="43.1723725" lon="12.2461313"><ele>377.4</ele><time>2026-03-29T10:31:00.4Z</time></trkpt><trkpt lat="43.1724497" lon="12.246165"><ele>378.0</ele><time>2026-03-29T10:31:01.402Z</time></trkpt><trkpt lat="43.1725475" lon="12.2461848"><ele>378.0</ele><time>2026-03-29T10:31:02.399Z</time></trkpt><trkpt lat="43.1726223" lon="12.2462252"><ele>378.0</ele><time>2026-03-29T10:31:03.4Z</time></trkpt><trkpt lat="43.1727056" lon="12.2462687"><ele>378.0</ele><time>2026-03-29T10:31:04.402Z</time></trkpt><trkpt lat="43.1727695" lon="12.2463077"><ele>378.0</ele><time>2026-03-29T10:31:05.4Z</time></trkpt><trkpt lat="43.1728304" lon="12.2463946"><ele>378.0</ele><time>2026-03-29T10:31:06.401Z</time></trkpt><trkpt lat="43.1729007" lon="12.246476"><ele>378.0</ele><time>2026-03-29T10:31:07.401Z</time></trkpt><trkpt lat="43.1729169" lon="12.2466656"><ele>380.1666666666667</ele><time>2026-03-29T10:31:09.4Z</time></trkpt><trkpt lat="43.1729003" lon="12.2468035"><ele>382.33333333333337</ele><time>2026-03-29T10:31:10.399Z</time></trkpt><trkpt lat="43.1728788" lon="12.2469124"><ele>384.5</ele><time>2026-03-29T10:31:11.4Z</time></trkpt><trkpt lat="43.1728703" lon="12.2470524"><ele>386.6666666666667</ele><time>2026-03-29T10:31:12.4Z</time></trkpt><trkpt lat="43.1728615" lon="12.2471556"><ele>388.83333333333337</ele><time>2026-03-29T10:31:13.401Z</time></trkpt><trkpt lat="43.1728343" lon="12.2472359"><ele>391.0</ele><time>2026-03-29T10:31:14.401Z</time></trkpt><trkpt lat="43.1727626" lon="12.247327"><ele>391.00000000000006</ele><time>2026-03-29T10:31:16.399Z</time></trkpt><trkpt lat="43.1726808" lon="12.2472907"><ele>391.0</ele><time>2026-03-29T10:31:19.4Z</time></trkpt><trkpt lat="43.1726" lon="12.2473287"><ele>391.0</ele><time>2026-03-29T10:31:22.401Z</time></trkpt><trkpt lat="43.1725269" lon="12.2473462"><ele>391.0</ele><time>2026-03-29T10:31:25.399Z</time></trkpt><trkpt lat="43.1724367" lon="12.2473935"><ele>391.00000000000006</ele><time>2026-03-29T10:31:28.4Z</time></trkpt><trkpt lat="43.1723782" lon="12.2474682"><ele>391.0</ele><time>2026-03-29T10:31:30.4Z</time></trkpt><trkpt lat="43.1723088" lon="12.2475418"><ele>394.50000000000006</ele><time>2026-03-29T10:31:31.4Z</time></trkpt><trkpt lat="43.1722462" lon="12.2475898"><ele>398.0</ele><time>2026-03-29T10:31:32.4Z</time></trkpt><trkpt lat="43.1721897" lon="12.2476341"><ele>401.5</ele><time>2026-03-29T10:31:33.399Z</time></trkpt><trkpt lat="43.1720996" lon="12.2477715"><ele>405.0</ele><time>2026-03-29T10:31:35.4Z</time></trkpt><trkpt lat="43.1720569" lon="12.2478702"><ele>408.50000000000006</ele><time>2026-03-29T10:31:36.4Z</time></trkpt><trkpt lat="43.172023" lon="12.2479711"><ele>412.0</ele><time>2026-03-29T10:31:37.4Z</time></trkpt><trkpt lat="43.1719657" lon="12.2480678"><ele>411.8</ele><time>2026-03-29T10:31:38.4Z</time></trkpt><trkpt lat="43.1718981" lon="12.2481519"><ele>411.6</ele><time>2026-03-29T10:31:39.402Z</time></trkpt><trkpt lat="43.1718287" lon="12.2482694"><ele>411.40000000000003</ele><time>2026-03-29T10:31:40.399Z</time></trkpt><trkpt lat="43.1717665" lon="12.2483767"><ele>411.20000000000005</ele><time>2026-03-29T10:31:41.401Z</time></trkpt><trkpt lat="43.1717035" lon="12.248491"><ele>411.0</ele><time>2026-03-29T10:31:42.402Z</time></trkpt><trkpt lat="43.1716452" lon="12.2486041"><ele>411.0</ele><time>2026-03-29T10:31:43.399Z</time></trkpt><trkpt lat="43.1716197" lon="12.2487102"><ele>411.0</ele><time>2026-03-29T10:31:44.4Z</time></trkpt><trkpt lat="43.1716257" lon="12.2488511"><ele>411.0</ele><time>2026-03-29T10:31:46.401Z</time></trkpt><trkpt lat="43.171739" lon="12.2489045"><ele>411.0</ele><time>2026-03-29T10:31:47.399Z</time></trkpt><trkpt lat="43.1718096" lon="12.2489693"><ele>411.0</ele><time>2026-03-29T10:31:48.4Z</time></trkpt><trkpt lat="43.1719062" lon="12.249038"><ele>412.6666666666667</ele><time>2026-03-29T10:31:49.401Z</time></trkpt><trkpt lat="43.1719947" lon="12.249086"><ele>414.33333333333337</ele><time>2026-03-29T10:31:50.401Z</time></trkpt><trkpt lat="43.1720591" lon="12.2491244"><ele>416.0</ele><time>2026-03-29T10:31:51.402Z</time></trkpt><trkpt lat="43.1721108" lon="12.2491941"><ele>417.6666666666667</ele><time>2026-03-29T10:31:52.401Z</time></trkpt><trkpt lat="43.1721761" lon="12.2492323"><ele>419.33333333333337</ele><time>2026-03-29T10:31:53.4Z</time></trkpt><trkpt lat="43.1722334" lon="12.2493676"><ele>421.0</ele><time>2026-03-29T10:31:55.4Z</time></trkpt><trkpt lat="43.1722772" lon="12.2494509"><ele>421.00000000000006</ele><time>2026-03-29T10:31:56.401Z</time></trkpt><trkpt lat="43.1723207" lon="12.2495508"><ele>421.0</ele><time>2026-03-29T10:31:57.4Z</time></trkpt><trkpt lat="43.1723442" lon="12.2496667"><ele>421.0</ele><time>2026-03-29T10:31:58.401Z</time></trkpt><trkpt lat="43.1723608" lon="12.2497836"><ele>421.0</ele><time>2026-03-29T10:31:59.401Z</time></trkpt><trkpt lat="43.1723533" lon="12.2498819"><ele>421.00000000000006</ele><time>2026-03-29T10:32:00.402Z</time></trkpt><trkpt lat="43.1723538" lon="12.249999"><ele>421.0</ele><time>2026-03-29T10:32:01.401Z</time></trkpt><trkpt lat="43.1723327" lon="12.2501159"><ele>423.00000000000006</ele><time>2026-03-29T10:32:02.4Z</time></trkpt><trkpt lat="43.17229" lon="12.2502276"><ele>425.0</ele><time>2026-03-29T10:32:03.401Z</time></trkpt><trkpt lat="43.1722607" lon="12.2503289"><ele>427.0</ele><time>2026-03-29T10:32:04.401Z</time></trkpt><trkpt lat="43.1722127" lon="12.250397"><ele>429.0</ele><time>2026-03-29T10:32:05.402Z</time></trkpt><trkpt lat="43.1721389" lon="12.2504713"><ele>431.00000000000006</ele><time>2026-03-29T10:32:06.399Z</time></trkpt><trkpt lat="43.172063" lon="12.2504574"><ele>433.0</ele><time>2026-03-29T10:32:07.401Z</time></trkpt><trkpt lat="43.1719838" lon="12.25048"><ele>433.00000000000006</ele><time>2026-03-29T10:32:08.4Z</time></trkpt><trkpt lat="43.1719014" lon="12.2504911"><ele>433.0</ele><time>2026-03-29T10:32:09.402Z</time></trkpt><trkpt lat="43.1717995" lon="12.2505166"><ele>433.0</ele><time>2026-03-29T10:32:10.401Z</time></trkpt><trkpt lat="43.1717117" lon="12.2505434"><ele>433.0</ele><time>2026-03-29T10:32:11.401Z</time></trkpt><trkpt lat="43.1716311" lon="12.2505922"><ele>433.00000000000006</ele><time>2026-03-29T10:32:12.4Z</time></trkpt><trkpt lat="43.1715822" lon="12.2506578"><ele>433.0</ele><time>2026-03-29T10:32:13.4Z</time></trkpt><trkpt lat="43.1715989" lon="12.2507629"><ele>431.59999999999997</ele><time>2026-03-29T10:32:14.4Z</time></trkpt><trkpt lat="43.1715868" lon="12.250895"><ele>430.19999999999993</ele><time>2026-03-29T10:32:15.4Z</time></trkpt><trkpt lat="43.1715736" lon="12.2510242"><ele>428.8</ele><time>2026-03-29T10:32:16.399Z</time></trkpt><trkpt lat="43.1715398" lon="12.2511671"><ele>427.4</ele><time>2026-03-29T10:32:17.399Z</time></trkpt><trkpt lat="43.1715317" lon="12.2513059"><ele>426.0</ele><time>2026-03-29T10:32:18.4Z</time></trkpt><trkpt lat="43.1715326" lon="12.2514056"><ele>425.20000000000005</ele><time>2026-03-29T10:32:19.399Z</time></trkpt><trkpt lat="43.1715272" lon="12.2514971"><ele>424.40000000000003</ele><time>2026-03-29T10:32:20.401Z</time></trkpt><trkpt lat="43.1714733" lon="12.2516429"><ele>423.6</ele><time>2026-03-29T10:32:22.4Z</time></trkpt><trkpt lat="43.1713531" lon="12.2517635"><ele>422.8</ele><time>2026-03-29T10:32:24.401Z</time></trkpt><trkpt lat="43.1712733" lon="12.2518349"><ele>422.0</ele><time>2026-03-29T10:32:25.4Z</time></trkpt><trkpt lat="43.1712046" lon="12.251916"><ele>425.16666666666663</ele><time>2026-03-29T10:32:26.4Z</time></trkpt><trkpt lat="43.1711592" lon="12.2520363"><ele>428.3333333333333</ele><time>2026-03-29T10:32:27.401Z</time></trkpt><trkpt lat="43.1711492" lon="12.252179"><ele>431.5</ele><time>2026-03-29T10:32:28.4Z</time></trkpt><trkpt lat="43.1711225" lon="12.2522851"><ele>434.66666666666663</ele><time>2026-03-29T10:32:29.401Z</time></trkpt><trkpt lat="43.1710918" lon="12.2523731"><ele>437.8333333333333</ele><time>2026-03-29T10:32:30.4Z</time></trkpt><trkpt lat="43.1710413" lon="12.2524349"><ele>441.0</ele><time>2026-03-29T10:32:31.401Z</time></trkpt><trkpt lat="43.1709758" lon="12.2524781"><ele>441.0</ele><time>2026-03-29T10:32:32.4Z</time></trkpt><trkpt lat="43.1709066" lon="12.2525096"><ele>441.0</ele><time>2026-03-29T10:32:33.399Z</time></trkpt><trkpt lat="43.1708257" lon="12.2525305"><ele>441.0</ele><time>2026-03-29T10:32:34.4Z</time></trkpt><trkpt lat="43.1707473" lon="12.2525306"><ele>441.0</ele><time>2026-03-29T10:32:35.4Z</time></trkpt><trkpt lat="43.1706706" lon="12.2525662"><ele>441.0</ele><time>2026-03-29T10:32:36.4Z</time></trkpt><trkpt lat="43.1706108" lon="12.2526093"><ele>441.0</ele><time>2026-03-29T10:32:37.4Z</time></trkpt><trkpt lat="43.1705381" lon="12.2525751"><ele>441.1666666666667</ele><time>2026-03-29T10:32:40.401Z</time></trkpt><trkpt lat="43.170543" lon="12.2524492"><ele>441.33333333333337</ele><time>2026-03-29T10:32:42.4Z</time></trkpt><trkpt lat="43.1705244" lon="12.25234"><ele>441.5</ele><time>2026-03-29T10:32:43.399Z</time></trkpt><trkpt lat="43.1705051" lon="12.2522418"><ele>441.6666666666667</ele><time>2026-03-29T10:32:44.4Z</time></trkpt><trkpt lat="43.1704865" lon="12.2521507"><ele>441.83333333333337</ele><time>2026-03-29T10:32:45.4Z</time></trkpt><trkpt lat="43.1704704" lon="12.2520581"><ele>442.0</ele><time>2026-03-29T10:32:46.4Z</time></trkpt><trkpt lat="43.1704681" lon="12.2519613"><ele>442.00000000000006</ele><time>2026-03-29T10:32:47.401Z</time></trkpt><trkpt lat="43.1704612" lon="12.2518743"><ele>442.0</ele><time>2026-03-29T10:32:48.4Z</time></trkpt><trkpt lat="43.1704537" lon="12.2517849"><ele>442.0</ele><time>2026-03-29T10:32:49.4Z</time></trkpt><trkpt lat="43.1704243" lon="12.2516591"><ele>442.0</ele><time>2026-03-29T10:32:51.4Z</time></trkpt><trkpt lat="43.1703697" lon="12.2515618"><ele>442.00000000000006</ele><time>2026-03-29T10:32:54.4Z</time></trkpt><trkpt lat="43.1703035" lon="12.2515049"><ele>442.0</ele><time>2026-03-29T10:32:56.4Z</time></trkpt><trkpt lat="43.1702354" lon="12.2514421"><ele>444.0</ele><time>2026-03-29T10:32:58.4Z</time></trkpt><trkpt lat="43.170153" lon="12.2513977"><ele>446.00000000000006</ele><time>2026-03-29T10:33:00.402Z</time></trkpt><trkpt lat="43.170024" lon="12.2513212"><ele>448.00000000000006</ele><time>2026-03-29T10:33:02.401Z</time></trkpt><trkpt lat="43.1699471" lon="12.2512636"><ele>450.0</ele><time>2026-03-29T10:33:03.401Z</time></trkpt><trkpt lat="43.1698563" lon="12.2512036"><ele>452.0</ele><time>2026-03-29T10:33:04.401Z</time></trkpt><trkpt lat="43.1697689" lon="12.2511336"><ele>452.0</ele><time>2026-03-29T10:33:05.401Z</time></trkpt><trkpt lat="43.1696857" lon="12.2510593"><ele>452.00000000000006</ele><time>2026-03-29T10:33:06.4Z</time></trkpt><trkpt lat="43.1696083" lon="12.2509758"><ele>452.00000000000006</ele><time>2026-03-29T10:33:07.401Z</time></trkpt><trkpt lat="43.169527" lon="12.2508693"><ele>452.0</ele><time>2026-03-29T10:33:08.399Z</time></trkpt><trkpt lat="43.1694502" lon="12.2507569"><ele>452.0</ele><time>2026-03-29T10:33:09.4Z</time></trkpt><trkpt lat="43.1693771" lon="12.2506161"><ele>454.75</ele><time>2026-03-29T10:33:10.401Z</time></trkpt><trkpt lat="43.169296" lon="12.2505063"><ele>457.5</ele><time>2026-03-29T10:33:11.4Z</time></trkpt><trkpt lat="43.1692112" lon="12.2503884"><ele>460.25</ele><time>2026-03-29T10:33:12.4Z</time></trkpt><trkpt lat="43.1691256" lon="12.2502901"><ele>463.0</ele><time>2026-03-29T10:33:13.401Z</time></trkpt><trkpt lat="43.1690524" lon="12.2501839"><ele>462.79999999999995</ele><time>2026-03-29T10:33:14.401Z</time></trkpt><trkpt lat="43.1690006" lon="12.250074"><ele>462.59999999999997</ele><time>2026-03-29T10:33:15.402Z</time></trkpt><trkpt lat="43.1689506" lon="12.2499622"><ele>462.40000000000003</ele><time>2026-03-29T10:33:16.4Z</time></trkpt><trkpt lat="43.1689016" lon="12.2498547"><ele>462.20000000000005</ele><time>2026-03-29T10:33:17.402Z</time></trkpt><trkpt lat="43.1688238" lon="12.2497473"><ele>462.0</ele><time>2026-03-29T10:33:18.402Z</time></trkpt><trkpt lat="43.168756" lon="12.2496215"><ele>462.0</ele><time>2026-03-29T10:33:19.4Z</time></trkpt><trkpt lat="43.1686816" lon="12.2495235"><ele>462.0</ele><time>2026-03-29T10:33:20.4Z</time></trkpt><trkpt lat="43.1685999" lon="12.2494355"><ele>462.0</ele><time>2026-03-29T10:33:21.401Z</time></trkpt><trkpt lat="43.1684955" lon="12.2493305"><ele>462.0</ele><time>2026-03-29T10:33:22.4Z</time></trkpt><trkpt lat="43.1684002" lon="12.2492185"><ele>462.0</ele><time>2026-03-29T10:33:23.401Z</time></trkpt><trkpt lat="43.168307" lon="12.249093"><ele>462.0</ele><time>2026-03-29T10:33:24.401Z</time></trkpt><trkpt lat="43.168223" lon="12.2489465"><ele>462.0</ele><time>2026-03-29T10:33:25.401Z</time></trkpt><trkpt lat="43.168132" lon="12.2487978"><ele>462.0</ele><time>2026-03-29T10:33:26.4Z</time></trkpt><trkpt lat="43.1680379" lon="12.2486551"><ele>462.0</ele><time>2026-03-29T10:33:27.401Z</time></trkpt><trkpt lat="43.167946" lon="12.2485297"><ele>462.0</ele><time>2026-03-29T10:33:28.4Z</time></trkpt><trkpt lat="43.1678435" lon="12.2484068"><ele>462.0</ele><time>2026-03-29T10:33:29.401Z</time></trkpt><trkpt lat="43.1677531" lon="12.2482876"><ele>462.0</ele><time>2026-03-29T10:33:30.401Z</time></trkpt><trkpt lat="43.1676844" lon="12.2481929"><ele>459.6</ele><time>2026-03-29T10:33:31.402Z</time></trkpt><trkpt lat="43.1676026" lon="12.2481229"><ele>457.20000000000005</ele><time>2026-03-29T10:33:32.4Z</time></trkpt><trkpt lat="43.1675108" lon="12.2480842"><ele>454.8</ele><time>2026-03-29T10:33:33.401Z</time></trkpt><trkpt lat="43.1674175" lon="12.2480799"><ele>452.4</ele><time>2026-03-29T10:33:34.402Z</time></trkpt><trkpt lat="43.1673121" lon="12.2480817"><ele>450.0</ele><time>2026-03-29T10:33:35.4Z</time></trkpt><trkpt lat="43.1672001" lon="12.2480898"><ele>450.0</ele><time>2026-03-29T10:33:36.401Z</time></trkpt><trkpt lat="43.1670925" lon="12.2480843"><ele>450.0</ele><time>2026-03-29T10:33:37.401Z</time></trkpt><trkpt lat="43.1670001" lon="12.248075"><ele>450.0</ele><time>2026-03-29T10:33:38.402Z</time></trkpt><trkpt lat="43.1669079" lon="12.2480868"><ele>450.0</ele><time>2026-03-29T10:33:39.4Z</time></trkpt><trkpt lat="43.1668122" lon="12.248121"><ele>450.0</ele><time>2026-03-29T10:33:40.401Z</time></trkpt><trkpt lat="43.1667031" lon="12.2481739"><ele>451.75</ele><time>2026-03-29T10:33:41.401Z</time></trkpt><trkpt lat="43.1665894" lon="12.2482243"><ele>453.5</ele><time>2026-03-29T10:33:42.399Z</time></trkpt><trkpt lat="43.1664761" lon="12.2482799"><ele>455.25</ele><time>2026-03-29T10:33:43.4Z</time></trkpt><trkpt lat="43.1663653" lon="12.2483418"><ele>457.0</ele><time>2026-03-29T10:33:44.401Z</time></trkpt><trkpt lat="43.1662612" lon="12.2484197"><ele>457.0</ele><time>2026-03-29T10:33:45.401Z</time></trkpt><trkpt lat="43.1661603" lon="12.2485022"><ele>457.0</ele><time>2026-03-29T10:33:46.4Z</time></trkpt><trkpt lat="43.1660635" lon="12.2486012"><ele>457.0</ele><time>2026-03-29T10:33:47.4Z</time></trkpt><trkpt lat="43.1659727" lon="12.2487152"><ele>457.0</ele><time>2026-03-29T10:33:48.4Z</time></trkpt><trkpt lat="43.1658824" lon="12.2488336"><ele>458.5</ele><time>2026-03-29T10:33:49.4Z</time></trkpt><trkpt lat="43.1658019" lon="12.248963"><ele>460.0</ele><time>2026-03-29T10:33:50.402Z</time></trkpt><trkpt lat="43.1657238" lon="12.249092"><ele>461.5</ele><time>2026-03-29T10:33:51.401Z</time></trkpt><trkpt lat="43.1656458" lon="12.2492193"><ele>463.0</ele><time>2026-03-29T10:33:52.4Z</time></trkpt><trkpt lat="43.1655648" lon="12.2493412"><ele>463.0</ele><time>2026-03-29T10:33:53.401Z</time></trkpt><trkpt lat="43.1654818" lon="12.2494351"><ele>462.99999999999994</ele><time>2026-03-29T10:33:54.4Z</time></trkpt><trkpt lat="43.1654114" lon="12.2495272"><ele>462.99999999999994</ele><time>2026-03-29T10:33:55.4Z</time></trkpt><trkpt lat="43.1653462" lon="12.2495998"><ele>463.0</ele><time>2026-03-29T10:33:56.4Z</time></trkpt><trkpt lat="43.1652715" lon="12.2496493"><ele>463.0</ele><time>2026-03-29T10:33:57.4Z</time></trkpt><trkpt lat="43.1651859" lon="12.2496841"><ele>463.0</ele><time>2026-03-29T10:33:58.4Z</time></trkpt><trkpt lat="43.1650765" lon="12.2496946"><ele>462.99999999999994</ele><time>2026-03-29T10:33:59.402Z</time></trkpt><trkpt lat="43.1649664" lon="12.2497012"><ele>462.99999999999994</ele><time>2026-03-29T10:34:00.4Z</time></trkpt><trkpt lat="43.1648566" lon="12.2496979"><ele>463.0</ele><time>2026-03-29T10:34:01.402Z</time></trkpt><trkpt lat="43.1647452" lon="12.249672"><ele>463.0</ele><time>2026-03-29T10:34:02.401Z</time></trkpt><trkpt lat="43.1646431" lon="12.2496459"><ele>464.1666666666667</ele><time>2026-03-29T10:34:03.401Z</time></trkpt><trkpt lat="43.1645482" lon="12.2496258"><ele>465.33333333333337</ele><time>2026-03-29T10:34:04.402Z</time></trkpt><trkpt lat="43.1644663" lon="12.2495956"><ele>466.5</ele><time>2026-03-29T10:34:05.401Z</time></trkpt><trkpt lat="43.164419" lon="12.2495213"><ele>467.66666666666663</ele><time>2026-03-29T10:34:06.401Z</time></trkpt><trkpt lat="43.1643649" lon="12.2494406"><ele>468.8333333333333</ele><time>2026-03-29T10:34:07.401Z</time></trkpt><trkpt lat="43.16431" lon="12.2493229"><ele>470.0</ele><time>2026-03-29T10:34:08.402Z</time></trkpt><trkpt lat="43.1642502" lon="12.249231"><ele>469.99999999999994</ele><time>2026-03-29T10:34:09.402Z</time></trkpt><trkpt lat="43.1641864" lon="12.2491252"><ele>470.0</ele><time>2026-03-29T10:34:10.401Z</time></trkpt><trkpt lat="43.1641201" lon="12.2490416"><ele>470.0</ele><time>2026-03-29T10:34:11.402Z</time></trkpt><trkpt lat="43.1640445" lon="12.2489988"><ele>470.0</ele><time>2026-03-29T10:34:12.402Z</time></trkpt><trkpt lat="43.1639661" lon="12.2489747"><ele>469.99999999999994</ele><time>2026-03-29T10:34:13.401Z</time></trkpt><trkpt lat="43.1638809" lon="12.2489536"><ele>470.0</ele><time>2026-03-29T10:34:14.402Z</time></trkpt><trkpt lat="43.1638091" lon="12.248904"><ele>471.99999999999994</ele><time>2026-03-29T10:34:15.401Z</time></trkpt><trkpt lat="43.1637585" lon="12.248836"><ele>474.0</ele><time>2026-03-29T10:34:16.402Z</time></trkpt><trkpt lat="43.1637047" lon="12.248744"><ele>476.0</ele><time>2026-03-29T10:34:17.402Z</time></trkpt><trkpt lat="43.1636634" lon="12.2486304"><ele>478.0</ele><time>2026-03-29T10:34:18.402Z</time></trkpt><trkpt lat="43.163634" lon="12.2484906"><ele>479.99999999999994</ele><time>2026-03-29T10:34:19.4Z</time></trkpt><trkpt lat="43.163596" lon="12.2483972"><ele>482.0</ele><time>2026-03-29T10:34:20.4Z</time></trkpt><trkpt lat="43.1635448" lon="12.2483253"><ele>481.99999999999994</ele><time>2026-03-29T10:34:21.4Z</time></trkpt><trkpt lat="43.1634893" lon="12.248273"><ele>482.0</ele><time>2026-03-29T10:34:22.399Z</time></trkpt><trkpt lat="43.1634152" lon="12.2482805"><ele>482.0</ele><time>2026-03-29T10:34:23.402Z</time></trkpt><trkpt lat="43.1633388" lon="12.2482603"><ele>482.0</ele><time>2026-03-29T10:34:24.402Z</time></trkpt><trkpt lat="43.1632625" lon="12.2482579"><ele>481.99999999999994</ele><time>2026-03-29T10:34:25.401Z</time></trkpt><trkpt lat="43.1631791" lon="12.2482609"><ele>482.0</ele><time>2026-03-29T10:34:26.401Z</time></trkpt><trkpt lat="43.1630935" lon="12.2482768"><ele>482.8333333333333</ele><time>2026-03-29T10:34:27.402Z</time></trkpt><trkpt lat="43.1630095" lon="12.248333"><ele>483.66666666666663</ele><time>2026-03-29T10:34:28.4Z</time></trkpt><trkpt lat="43.1629312" lon="12.2483954"><ele>484.5</ele><time>2026-03-29T10:34:29.402Z</time></trkpt><trkpt lat="43.1628694" lon="12.2485066"><ele>485.33333333333337</ele><time>2026-03-29T10:34:30.401Z</time></trkpt><trkpt lat="43.16281" lon="12.2485736"><ele>486.1666666666667</ele><time>2026-03-29T10:34:31.4Z</time></trkpt><trkpt lat="43.1627341" lon="12.2486127"><ele>487.0</ele><time>2026-03-29T10:34:32.401Z</time></trkpt><trkpt lat="43.1626672" lon="12.2486161"><ele>487.0</ele><time>2026-03-29T10:34:33.401Z</time></trkpt><trkpt lat="43.162575" lon="12.2485783"><ele>487.00000000000006</ele><time>2026-03-29T10:34:34.401Z</time></trkpt><trkpt lat="43.1624685" lon="12.2485334"><ele>487.00000000000006</ele><time>2026-03-29T10:34:36.402Z</time></trkpt><trkpt lat="43.1623802" lon="12.2485091"><ele>487.0</ele><time>2026-03-29T10:34:38.399Z</time></trkpt><trkpt lat="43.1622949" lon="12.2484638"><ele>487.0</ele><time>2026-03-29T10:34:39.401Z</time></trkpt><trkpt lat="43.1622085" lon="12.2484266"><ele>486.8</ele><time>2026-03-29T10:34:40.401Z</time></trkpt><trkpt lat="43.162124" lon="12.2483851"><ele>486.6</ele><time>2026-03-29T10:34:41.4Z</time></trkpt><trkpt lat="43.1620265" lon="12.2483351"><ele>486.40000000000003</ele><time>2026-03-29T10:34:42.4Z</time></trkpt><trkpt lat="43.1619421" lon="12.2482631"><ele>486.20000000000005</ele><time>2026-03-29T10:34:43.401Z</time></trkpt><trkpt lat="43.1618528" lon="12.2481913"><ele>486.0</ele><time>2026-03-29T10:34:44.402Z</time></trkpt><trkpt lat="43.1617495" lon="12.2481003"><ele>486.0</ele><time>2026-03-29T10:34:45.4Z</time></trkpt><trkpt lat="43.1616358" lon="12.2480325"><ele>486.0</ele><time>2026-03-29T10:34:46.4Z</time></trkpt><trkpt lat="43.161533" lon="12.2479803"><ele>486.0</ele><time>2026-03-29T10:34:47.401Z</time></trkpt><trkpt lat="43.1614387" lon="12.2479266"><ele>486.0</ele><time>2026-03-29T10:34:48.401Z</time></trkpt><trkpt lat="43.1613393" lon="12.2478582"><ele>486.0</ele><time>2026-03-29T10:34:49.401Z</time></trkpt><trkpt lat="43.1612237" lon="12.2477613"><ele>488.25</ele><time>2026-03-29T10:34:50.401Z</time></trkpt><trkpt lat="43.1611028" lon="12.2476853"><ele>490.5</ele><time>2026-03-29T10:34:51.4Z</time></trkpt><trkpt lat="43.1609923" lon="12.2476141"><ele>492.75</ele><time>2026-03-29T10:34:52.4Z</time></trkpt><trkpt lat="43.1609096" lon="12.2475354"><ele>495.0</ele><time>2026-03-29T10:34:53.401Z</time></trkpt><trkpt lat="43.1608323" lon="12.2474419"><ele>495.0</ele><time>2026-03-29T10:34:54.399Z</time></trkpt><trkpt lat="43.1607677" lon="12.2473232"><ele>495.0</ele><time>2026-03-29T10:34:55.401Z</time></trkpt><trkpt lat="43.1607103" lon="12.2471842"><ele>495.0</ele><time>2026-03-29T10:34:56.401Z</time></trkpt><trkpt lat="43.1606575" lon="12.2470384"><ele>495.0</ele><time>2026-03-29T10:34:57.402Z</time></trkpt><trkpt lat="43.1606111" lon="12.2469048"><ele>497.8</ele><time>2026-03-29T10:34:58.402Z</time></trkpt><trkpt lat="43.1605505" lon="12.2467748"><ele>500.6</ele><time>2026-03-29T10:34:59.4Z</time></trkpt><trkpt lat="43.1604925" lon="12.2466541"><ele>503.4</ele><time>2026-03-29T10:35:00.401Z</time></trkpt><trkpt lat="43.1604253" lon="12.2465503"><ele>506.2</ele><time>2026-03-29T10:35:01.4Z</time></trkpt><trkpt lat="43.1603371" lon="12.2464424"><ele>509.0</ele><time>2026-03-29T10:35:02.401Z</time></trkpt><trkpt lat="43.1602531" lon="12.2463434"><ele>509.0</ele><time>2026-03-29T10:35:03.4Z</time></trkpt><trkpt lat="43.1601651" lon="12.2462411"><ele>509.0</ele><time>2026-03-29T10:35:04.401Z</time></trkpt><trkpt lat="43.1600846" lon="12.246119"><ele>509.0</ele><time>2026-03-29T10:35:05.4Z</time></trkpt><trkpt lat="43.1600129" lon="12.2460002"><ele>509.0</ele><time>2026-03-29T10:35:06.401Z</time></trkpt><trkpt lat="43.1600094" lon="12.245856"><ele>509.0</ele><time>2026-03-29T10:35:07.4Z</time></trkpt><trkpt lat="43.1600115" lon="12.2457076"><ele>509.0</ele><time>2026-03-29T10:35:08.4Z</time></trkpt><trkpt lat="43.1600269" lon="12.2455516"><ele>509.0</ele><time>2026-03-29T10:35:09.401Z</time></trkpt><trkpt lat="43.1600473" lon="12.2453853"><ele>509.0</ele><time>2026-03-29T10:35:10.402Z</time></trkpt><trkpt lat="43.1600668" lon="12.2452306"><ele>509.2</ele><time>2026-03-29T10:35:11.401Z</time></trkpt><trkpt lat="43.16007" lon="12.2451224"><ele>509.4</ele><time>2026-03-29T10:35:12.4Z</time></trkpt><trkpt lat="43.1600682" lon="12.2449968"><ele>509.6</ele><time>2026-03-29T10:35:13.4Z</time></trkpt><trkpt lat="43.1600573" lon="12.2448705"><ele>509.8</ele><time>2026-03-29T10:35:14.402Z</time></trkpt><trkpt lat="43.1600036" lon="12.2447281"><ele>510.0</ele><time>2026-03-29T10:35:15.401Z</time></trkpt><trkpt lat="43.1599567" lon="12.244597"><ele>509.0</ele><time>2026-03-29T10:35:16.401Z</time></trkpt><trkpt lat="43.1599121" lon="12.2444441"><ele>508.0</ele><time>2026-03-29T10:35:17.401Z</time></trkpt><trkpt lat="43.1598658" lon="12.2442842"><ele>507.0</ele><time>2026-03-29T10:35:18.401Z</time></trkpt><trkpt lat="43.1598291" lon="12.2441092"><ele>506.0</ele><time>2026-03-29T10:35:19.4Z</time></trkpt><trkpt lat="43.1597897" lon="12.2439448"><ele>503.0</ele><time>2026-03-29T10:35:20.401Z</time></trkpt><trkpt lat="43.1597433" lon="12.2437811"><ele>500.0</ele><time>2026-03-29T10:35:21.401Z</time></trkpt><trkpt lat="43.1597052" lon="12.2436179"><ele>497.0</ele><time>2026-03-29T10:35:22.402Z</time></trkpt><trkpt lat="43.1596616" lon="12.243468"><ele>494.0</ele><time>2026-03-29T10:35:23.401Z</time></trkpt><trkpt lat="43.1596065" lon="12.2433243"><ele>494.0</ele><time>2026-03-29T10:35:24.401Z</time></trkpt><trkpt lat="43.1595474" lon="12.2431856"><ele>494.0</ele><time>2026-03-29T10:35:25.402Z</time></trkpt><trkpt lat="43.1594927" lon="12.2430557"><ele>494.0</ele><time>2026-03-29T10:35:26.402Z</time></trkpt><trkpt lat="43.1594318" lon="12.2429224"><ele>494.0</ele><time>2026-03-29T10:35:27.402Z</time></trkpt><trkpt lat="43.1593908" lon="12.2427799"><ele>490.5</ele><time>2026-03-29T10:35:28.4Z</time></trkpt><trkpt lat="43.1593548" lon="12.2426357"><ele>487.0</ele><time>2026-03-29T10:35:29.4Z</time></trkpt><trkpt lat="43.1593188" lon="12.2424802"><ele>483.5</ele><time>2026-03-29T10:35:30.4Z</time></trkpt><trkpt lat="43.1592829" lon="12.242327"><ele>480.0</ele><time>2026-03-29T10:35:31.401Z</time></trkpt><trkpt lat="43.1592453" lon="12.24217"><ele>478.0</ele><time>2026-03-29T10:35:32.4Z</time></trkpt><trkpt lat="43.1591927" lon="12.2420229"><ele>476.0</ele><time>2026-03-29T10:35:33.402Z</time></trkpt><trkpt lat="43.159149" lon="12.2418877"><ele>474.0</ele><time>2026-03-29T10:35:34.401Z</time></trkpt><trkpt lat="43.1591072" lon="12.2417387"><ele>472.0</ele><time>2026-03-29T10:35:35.4Z</time></trkpt><trkpt lat="43.1590608" lon="12.2415968"><ele>470.20000000000005</ele><time>2026-03-29T10:35:36.401Z</time></trkpt><trkpt lat="43.1590206" lon="12.2414611"><ele>468.40000000000003</ele><time>2026-03-29T10:35:37.402Z</time></trkpt><trkpt lat="43.1589925" lon="12.2413307"><ele>466.59999999999997</ele><time>2026-03-29T10:35:38.401Z</time></trkpt><trkpt lat="43.1589776" lon="12.2412338"><ele>464.79999999999995</ele><time>2026-03-29T10:35:39.401Z</time></trkpt><trkpt lat="43.159038" lon="12.2410694"><ele>463.0</ele><time>2026-03-29T10:35:41.402Z</time></trkpt><trkpt lat="43.1591236" lon="12.240977"><ele>463.0</ele><time>2026-03-29T10:35:42.401Z</time></trkpt><trkpt lat="43.1592113" lon="12.2408733"><ele>462.99999999999994</ele><time>2026-03-29T10:35:43.4Z</time></trkpt><trkpt lat="43.1592889" lon="12.2407719"><ele>462.99999999999994</ele><time>2026-03-29T10:35:44.401Z</time></trkpt><trkpt lat="43.159376" lon="12.240674"><ele>463.0</ele><time>2026-03-29T10:35:45.401Z</time></trkpt><trkpt lat="43.1594599" lon="12.2405787"><ele>463.0</ele><time>2026-03-29T10:35:46.401Z</time></trkpt><trkpt lat="43.1595401" lon="12.2404801"><ele>461.59999999999997</ele><time>2026-03-29T10:35:47.401Z</time></trkpt><trkpt lat="43.1595987" lon="12.2403892"><ele>460.19999999999993</ele><time>2026-03-29T10:35:48.399Z</time></trkpt><trkpt lat="43.1596712" lon="12.2403155"><ele>458.8</ele><time>2026-03-29T10:35:49.401Z</time></trkpt><trkpt lat="43.1597547" lon="12.2402701"><ele>457.4</ele><time>2026-03-29T10:35:50.403Z</time></trkpt><trkpt lat="43.1598458" lon="12.2402364"><ele>456.0</ele><time>2026-03-29T10:35:51.401Z</time></trkpt><trkpt lat="43.1599468" lon="12.2402269"><ele>455.20000000000005</ele><time>2026-03-29T10:35:52.4Z</time></trkpt><trkpt lat="43.1600478" lon="12.2402155"><ele>454.40000000000003</ele><time>2026-03-29T10:35:53.4Z</time></trkpt><trkpt lat="43.1601498" lon="12.2402238"><ele>453.6</ele><time>2026-03-29T10:35:54.401Z</time></trkpt><trkpt lat="43.1602477" lon="12.2402232"><ele>452.8</ele><time>2026-03-29T10:35:55.4Z</time></trkpt><trkpt lat="43.1603474" lon="12.240226"><ele>452.0</ele><time>2026-03-29T10:35:56.402Z</time></trkpt><trkpt lat="43.1604518" lon="12.2402146"><ele>452.0</ele><time>2026-03-29T10:35:57.401Z</time></trkpt><trkpt lat="43.1605539" lon="12.2402082"><ele>452.00000000000006</ele><time>2026-03-29T10:35:58.401Z</time></trkpt><trkpt lat="43.1606478" lon="12.2402217"><ele>452.00000000000006</ele><time>2026-03-29T10:35:59.402Z</time></trkpt><trkpt lat="43.1607365" lon="12.240224"><ele>452.0</ele><time>2026-03-29T10:36:00.4Z</time></trkpt><trkpt lat="43.1608115" lon="12.2402659"><ele>452.0</ele><time>2026-03-29T10:36:01.401Z</time></trkpt><trkpt lat="43.1608971" lon="12.2403137"><ele>448.6</ele><time>2026-03-29T10:36:02.401Z</time></trkpt><trkpt lat="43.1609859" lon="12.2403603"><ele>445.20000000000005</ele><time>2026-03-29T10:36:03.402Z</time></trkpt><trkpt lat="43.1610724" lon="12.2403852"><ele>441.8</ele><time>2026-03-29T10:36:04.402Z</time></trkpt><trkpt lat="43.1611449" lon="12.2404161"><ele>438.4</ele><time>2026-03-29T10:36:05.401Z</time></trkpt><trkpt lat="43.1612268" lon="12.2404501"><ele>435.0</ele><time>2026-03-29T10:36:06.401Z</time></trkpt><trkpt lat="43.1613443" lon="12.2405081"><ele>435.0</ele><time>2026-03-29T10:36:07.4Z</time></trkpt><trkpt lat="43.1614534" lon="12.2405675"><ele>435.0</ele><time>2026-03-29T10:36:08.4Z</time></trkpt><trkpt lat="43.161554" lon="12.2406118"><ele>435.0</ele><time>2026-03-29T10:36:09.401Z</time></trkpt><trkpt lat="43.1616518" lon="12.2406461"><ele>435.0</ele><time>2026-03-29T10:36:10.402Z</time></trkpt><trkpt lat="43.1617402" lon="12.2406774"><ele>435.0</ele><time>2026-03-29T10:36:11.4Z</time></trkpt><trkpt lat="43.1618328" lon="12.2406845"><ele>435.6</ele><time>2026-03-29T10:36:12.401Z</time></trkpt><trkpt lat="43.1619233" lon="12.2406579"><ele>436.2</ele><time>2026-03-29T10:36:13.401Z</time></trkpt><trkpt lat="43.1620141" lon="12.2406334"><ele>436.79999999999995</ele><time>2026-03-29T10:36:14.401Z</time></trkpt><trkpt lat="43.1620954" lon="12.2405873"><ele>437.4</ele><time>2026-03-29T10:36:15.401Z</time></trkpt><trkpt lat="43.1621705" lon="12.2405221"><ele>438.0</ele><time>2026-03-29T10:36:16.402Z</time></trkpt><trkpt lat="43.1622526" lon="12.2404189"><ele>435.0</ele><time>2026-03-29T10:36:17.401Z</time></trkpt><trkpt lat="43.1623419" lon="12.2403124"><ele>431.99999999999994</ele><time>2026-03-29T10:36:18.401Z</time></trkpt><trkpt lat="43.1624336" lon="12.2402143"><ele>429.0</ele><time>2026-03-29T10:36:19.4Z</time></trkpt><trkpt lat="43.1625077" lon="12.2401303"><ele>426.0</ele><time>2026-03-29T10:36:20.4Z</time></trkpt><trkpt lat="43.1625808" lon="12.2400474"><ele>423.0</ele><time>2026-03-29T10:36:21.402Z</time></trkpt><trkpt lat="43.1626566" lon="12.239971"><ele>422.59999999999997</ele><time>2026-03-29T10:36:22.402Z</time></trkpt><trkpt lat="43.1627274" lon="12.2398853"><ele>422.2</ele><time>2026-03-29T10:36:23.4Z</time></trkpt><trkpt lat="43.1628006" lon="12.2397983"><ele>421.8</ele><time>2026-03-29T10:36:24.4Z</time></trkpt><trkpt lat="43.1628734" lon="12.2397142"><ele>421.4</ele><time>2026-03-29T10:36:25.401Z</time></trkpt><trkpt lat="43.1629551" lon="12.239628"><ele>421.0</ele><time>2026-03-29T10:36:26.401Z</time></trkpt><trkpt lat="43.1630416" lon="12.2395376"><ele>418.8</ele><time>2026-03-29T10:36:27.402Z</time></trkpt><trkpt lat="43.1631193" lon="12.239445"><ele>416.6</ele><time>2026-03-29T10:36:28.401Z</time></trkpt><trkpt lat="43.163195" lon="12.23936"><ele>414.4</ele><time>2026-03-29T10:36:29.401Z</time></trkpt><trkpt lat="43.1632645" lon="12.2392733"><ele>412.2</ele><time>2026-03-29T10:36:30.401Z</time></trkpt><trkpt lat="43.1633432" lon="12.2391906"><ele>410.0</ele><time>2026-03-29T10:36:31.401Z</time></trkpt><trkpt lat="43.1634184" lon="12.2391089"><ele>409.3333333333333</ele><time>2026-03-29T10:36:32.401Z</time></trkpt><trkpt lat="43.163496" lon="12.2390213"><ele>408.66666666666663</ele><time>2026-03-29T10:36:33.401Z</time></trkpt><trkpt lat="43.1635673" lon="12.2389317"><ele>408.0</ele><time>2026-03-29T10:36:34.401Z</time></trkpt><trkpt lat="43.1636282" lon="12.2388546"><ele>407.33333333333337</ele><time>2026-03-29T10:36:35.402Z</time></trkpt><trkpt lat="43.1636854" lon="12.2388002"><ele>406.6666666666667</ele><time>2026-03-29T10:36:36.401Z</time></trkpt><trkpt lat="43.1637415" lon="12.2387498"><ele>406.0</ele><time>2026-03-29T10:36:37.401Z</time></trkpt><trkpt lat="43.1638059" lon="12.2387319"><ele>402.8</ele><time>2026-03-29T10:36:38.401Z</time></trkpt><trkpt lat="43.1638769" lon="12.2387357"><ele>399.6</ele><time>2026-03-29T10:36:39.401Z</time></trkpt><trkpt lat="43.1639568" lon="12.23875"><ele>396.4</ele><time>2026-03-29T10:36:40.4Z</time></trkpt><trkpt lat="43.1640244" lon="12.2387764"><ele>393.2</ele><time>2026-03-29T10:36:41.401Z</time></trkpt><trkpt lat="43.1641402" lon="12.23878"><ele>390.0</ele><time>2026-03-29T10:36:43.401Z</time></trkpt><trkpt lat="43.164206" lon="12.2386439"><ele>388.3333333333333</ele><time>2026-03-29T10:36:45.401Z</time></trkpt><trkpt lat="43.1642355" lon="12.2385259"><ele>386.6666666666667</ele><time>2026-03-29T10:36:46.4Z</time></trkpt><trkpt lat="43.1642558" lon="12.2384143"><ele>385.0</ele><time>2026-03-29T10:36:47.401Z</time></trkpt><trkpt lat="43.1642596" lon="12.2383277"><ele>383.33333333333337</ele><time>2026-03-29T10:36:48.402Z</time></trkpt><trkpt lat="43.164204" lon="12.2382478"><ele>381.6666666666667</ele><time>2026-03-29T10:36:49.401Z</time></trkpt><trkpt lat="43.1641551" lon="12.2381722"><ele>380.0</ele><time>2026-03-29T10:36:50.4Z</time></trkpt><trkpt lat="43.1641066" lon="12.2380904"><ele>379.0</ele><time>2026-03-29T10:36:51.401Z</time></trkpt><trkpt lat="43.1640732" lon="12.2380165"><ele>378.0</ele><time>2026-03-29T10:36:52.402Z</time></trkpt><trkpt lat="43.164022" lon="12.237907"><ele>377.0</ele><time>2026-03-29T10:36:54.402Z</time></trkpt><trkpt lat="43.1639325" lon="12.2378196"><ele>376.0</ele><time>2026-03-29T10:36:56.4Z</time></trkpt><trkpt lat="43.1638837" lon="12.2377224"><ele>375.0</ele><time>2026-03-29T10:36:58.4Z</time></trkpt><trkpt lat="43.1639341" lon="12.2375945"><ele>375.0</ele><time>2026-03-29T10:37:00.403Z</time></trkpt><trkpt lat="43.1640086" lon="12.2375715"><ele>375.0</ele><time>2026-03-29T10:37:01.4Z</time></trkpt><trkpt lat="43.1640736" lon="12.2375546"><ele>375.0</ele><time>2026-03-29T10:37:02.401Z</time></trkpt><trkpt lat="43.164154" lon="12.2375361"><ele>375.0</ele><time>2026-03-29T10:37:03.403Z</time></trkpt><trkpt lat="43.1642339" lon="12.2375239"><ele>375.0</ele><time>2026-03-29T10:37:04.401Z</time></trkpt><trkpt lat="43.1643087" lon="12.23752"><ele>375.0</ele><time>2026-03-29T10:37:05.401Z</time></trkpt><trkpt lat="43.1643852" lon="12.2375262"><ele>373.3333333333333</ele><time>2026-03-29T10:37:06.401Z</time></trkpt><trkpt lat="43.1644592" lon="12.2375147"><ele>371.6666666666667</ele><time>2026-03-29T10:37:07.401Z</time></trkpt><trkpt lat="43.1645349" lon="12.2374979"><ele>370.0</ele><time>2026-03-29T10:37:08.4Z</time></trkpt><trkpt lat="43.1646124" lon="12.237496"><ele>368.33333333333337</ele><time>2026-03-29T10:37:09.402Z</time></trkpt><trkpt lat="43.1646886" lon="12.2374856"><ele>366.6666666666667</ele><time>2026-03-29T10:37:10.402Z</time></trkpt><trkpt lat="43.164761" lon="12.2374764"><ele>365.0</ele><time>2026-03-29T10:37:11.401Z</time></trkpt><trkpt lat="43.1648436" lon="12.2374731"><ele>363.7142857142857</ele><time>2026-03-29T10:37:12.402Z</time></trkpt><trkpt lat="43.1649256" lon="12.2374692"><ele>362.42857142857144</ele><time>2026-03-29T10:37:13.402Z</time></trkpt><trkpt lat="43.1650001" lon="12.2374679"><ele>361.1428571428571</ele><time>2026-03-29T10:37:14.401Z</time></trkpt><trkpt lat="43.1650597" lon="12.237497"><ele>359.8571428571429</ele><time>2026-03-29T10:37:15.401Z</time></trkpt><trkpt lat="43.1651275" lon="12.2375189"><ele>358.57142857142856</ele><time>2026-03-29T10:37:16.402Z</time></trkpt><trkpt lat="43.1651908" lon="12.2375272"><ele>357.2857142857143</ele><time>2026-03-29T10:37:17.401Z</time></trkpt><trkpt lat="43.1652667" lon="12.2374895"><ele>356.0</ele><time>2026-03-29T10:37:18.401Z</time></trkpt><trkpt lat="43.1653286" lon="12.2374373"><ele>356.0</ele><time>2026-03-29T10:37:19.401Z</time></trkpt><trkpt lat="43.1653955" lon="12.2373506"><ele>356.0</ele><time>2026-03-29T10:37:20.4Z</time></trkpt><trkpt lat="43.1654429" lon="12.2372618"><ele>356.0</ele><time>2026-03-29T10:37:21.402Z</time></trkpt><trkpt lat="43.1654805" lon="12.2371713"><ele>356.0</ele><time>2026-03-29T10:37:22.402Z</time></trkpt><trkpt lat="43.1655104" lon="12.2370899"><ele>356.0</ele><time>2026-03-29T10:37:23.401Z</time></trkpt><trkpt lat="43.1655567" lon="12.2369736"><ele>356.0</ele><time>2026-03-29T10:37:25.401Z</time></trkpt><trkpt lat="43.1656115" lon="12.2369249"><ele>353.8</ele><time>2026-03-29T10:37:26.403Z</time></trkpt><trkpt lat="43.1656877" lon="12.2368478"><ele>351.6</ele><time>2026-03-29T10:37:27.402Z</time></trkpt><trkpt lat="43.1657597" lon="12.2367585"><ele>349.4</ele><time>2026-03-29T10:37:28.401Z</time></trkpt><trkpt lat="43.1658288" lon="12.2366918"><ele>347.2</ele><time>2026-03-29T10:37:29.4Z</time></trkpt><trkpt lat="43.1659143" lon="12.2366101"><ele>345.0</ele><time>2026-03-29T10:37:30.402Z</time></trkpt><trkpt lat="43.1659946" lon="12.2365356"><ele>342.6666666666667</ele><time>2026-03-29T10:37:31.4Z</time></trkpt><trkpt lat="43.1660647" lon="12.236464"><ele>340.3333333333333</ele><time>2026-03-29T10:37:32.401Z</time></trkpt><trkpt lat="43.1661222" lon="12.2363825"><ele>338.0</ele><time>2026-03-29T10:37:33.401Z</time></trkpt><trkpt lat="43.1661856" lon="12.2363021"><ele>335.66666666666663</ele><time>2026-03-29T10:37:34.4Z</time></trkpt><trkpt lat="43.16625" lon="12.2362426"><ele>333.3333333333333</ele><time>2026-03-29T10:37:35.401Z</time></trkpt><trkpt lat="43.166327" lon="12.2361802"><ele>331.0</ele><time>2026-03-29T10:37:36.401Z</time></trkpt><trkpt lat="43.1664024" lon="12.2360945"><ele>331.0</ele><time>2026-03-29T10:37:37.401Z</time></trkpt><trkpt lat="43.1664677" lon="12.2359822"><ele>331.0</ele><time>2026-03-29T10:37:38.402Z</time></trkpt><trkpt lat="43.1665303" lon="12.2358731"><ele>331.0</ele><time>2026-03-29T10:37:39.402Z</time></trkpt><trkpt lat="43.1665863" lon="12.235773"><ele>331.0</ele><time>2026-03-29T10:37:40.402Z</time></trkpt><trkpt lat="43.1666295" lon="12.2356638"><ele>331.0</ele><time>2026-03-29T10:37:41.402Z</time></trkpt><trkpt lat="43.1666651" lon="12.2355552"><ele>329.16666666666663</ele><time>2026-03-29T10:37:42.4Z</time></trkpt><trkpt lat="43.1667099" lon="12.2354622"><ele>327.3333333333333</ele><time>2026-03-29T10:37:43.402Z</time></trkpt><trkpt lat="43.1667775" lon="12.2353955"><ele>325.5</ele><time>2026-03-29T10:37:44.401Z</time></trkpt><trkpt lat="43.1668327" lon="12.2353503"><ele>323.6666666666667</ele><time>2026-03-29T10:37:45.401Z</time></trkpt><trkpt lat="43.1668928" lon="12.2352762"><ele>321.83333333333337</ele><time>2026-03-29T10:37:46.403Z</time></trkpt><trkpt lat="43.1669471" lon="12.235204"><ele>320.0</ele><time>2026-03-29T10:37:47.4Z</time></trkpt><trkpt lat="43.1669928" lon="12.2351269"><ele>320.0</ele><time>2026-03-29T10:37:48.401Z</time></trkpt><trkpt lat="43.1670098" lon="12.2350204"><ele>320.0</ele><time>2026-03-29T10:37:49.402Z</time></trkpt><trkpt lat="43.1669914" lon="12.2349116"><ele>320.0</ele><time>2026-03-29T10:37:50.402Z</time></trkpt><trkpt lat="43.1669586" lon="12.2348143"><ele>320.0</ele><time>2026-03-29T10:37:51.401Z</time></trkpt><trkpt lat="43.1669095" lon="12.2347331"><ele>320.0</ele><time>2026-03-29T10:37:52.401Z</time></trkpt><trkpt lat="43.1668486" lon="12.2346552"><ele>320.0</ele><time>2026-03-29T10:37:53.402Z</time></trkpt><trkpt lat="43.1667821" lon="12.2345775"><ele>317.6</ele><time>2026-03-29T10:37:54.403Z</time></trkpt><trkpt lat="43.1667377" lon="12.2345106"><ele>315.2</ele><time>2026-03-29T10:37:55.401Z</time></trkpt><trkpt lat="43.1667001" lon="12.234425"><ele>312.8</ele><time>2026-03-29T10:37:58.401Z</time></trkpt><trkpt lat="43.1666641" lon="12.2342875"><ele>310.4</ele><time>2026-03-29T10:38:00.4Z</time></trkpt><trkpt lat="43.1666207" lon="12.2341535"><ele>308.0</ele><time>2026-03-29T10:38:01.402Z</time></trkpt><trkpt lat="43.1665734" lon="12.2340029"><ele>305.75</ele><time>2026-03-29T10:38:02.401Z</time></trkpt><trkpt lat="43.166532" lon="12.233835"><ele>303.5</ele><time>2026-03-29T10:38:03.401Z</time></trkpt><trkpt lat="43.1664786" lon="12.2336787"><ele>301.25</ele><time>2026-03-29T10:38:04.402Z</time></trkpt><trkpt lat="43.1664337" lon="12.2335206"><ele>299.0</ele><time>2026-03-29T10:38:05.4Z</time></trkpt><trkpt lat="43.1663884" lon="12.2333615"><ele>298.2</ele><time>2026-03-29T10:38:06.401Z</time></trkpt><trkpt lat="43.1663536" lon="12.2332077"><ele>297.4</ele><time>2026-03-29T10:38:07.402Z</time></trkpt><trkpt lat="43.1663129" lon="12.2330529"><ele>296.6</ele><time>2026-03-29T10:38:08.401Z</time></trkpt><trkpt lat="43.1662812" lon="12.2329117"><ele>295.8</ele><time>2026-03-29T10:38:09.402Z</time></trkpt><trkpt lat="43.1662551" lon="12.2327848"><ele>295.0</ele><time>2026-03-29T10:38:10.4Z</time></trkpt><trkpt lat="43.166243" lon="12.2326759"><ele>293.6</ele><time>2026-03-29T10:38:11.401Z</time></trkpt><trkpt lat="43.1662507" lon="12.2325492"><ele>292.2</ele><time>2026-03-29T10:38:12.401Z</time></trkpt><trkpt lat="43.1662603" lon="12.2324104"><ele>290.8</ele><time>2026-03-29T10:38:13.401Z</time></trkpt><trkpt lat="43.1662719" lon="12.232267"><ele>289.4</ele><time>2026-03-29T10:38:14.401Z</time></trkpt><trkpt lat="43.1662814" lon="12.2321319"><ele>288.0</ele><time>2026-03-29T10:38:15.402Z</time></trkpt><trkpt lat="43.1662676" lon="12.2320131"><ele>287.1666666666667</ele><time>2026-03-29T10:38:16.401Z</time></trkpt><trkpt lat="43.1662368" lon="12.2318981"><ele>286.3333333333333</ele><time>2026-03-29T10:38:17.4Z</time></trkpt><trkpt lat="43.1661986" lon="12.2318044"><ele>285.5</ele><time>2026-03-29T10:38:18.402Z</time></trkpt><trkpt lat="43.1661708" lon="12.2317051"><ele>284.66666666666663</ele><time>2026-03-29T10:38:19.401Z</time></trkpt><trkpt lat="43.1661811" lon="12.2316081"><ele>283.8333333333333</ele><time>2026-03-29T10:38:20.4Z</time></trkpt><trkpt lat="43.1662242" lon="12.2315139"><ele>283.0</ele><time>2026-03-29T10:38:21.401Z</time></trkpt><trkpt lat="43.1662415" lon="12.2314264"><ele>281.5</ele><time>2026-03-29T10:38:22.402Z</time></trkpt><trkpt lat="43.1662302" lon="12.231337"><ele>280.0</ele><time>2026-03-29T10:38:23.402Z</time></trkpt><trkpt lat="43.1662126" lon="12.2312412"><ele>278.5</ele><time>2026-03-29T10:38:24.401Z</time></trkpt><trkpt lat="43.166127" lon="12.2311822"><ele>277.0</ele><time>2026-03-29T10:38:25.401Z</time></trkpt><trkpt lat="43.1660614" lon="12.23114"><ele>275.5</ele><time>2026-03-29T10:38:26.402Z</time></trkpt><trkpt lat="43.1659715" lon="12.2311474"><ele>274.0</ele><time>2026-03-29T10:38:27.4Z</time></trkpt><trkpt lat="43.1658855" lon="12.2311736"><ele>274.0</ele><time>2026-03-29T10:38:28.402Z</time></trkpt><trkpt lat="43.1658002" lon="12.231215"><ele>274.0</ele><time>2026-03-29T10:38:29.401Z</time></trkpt><trkpt lat="43.1657448" lon="12.2312961"><ele>274.0</ele><time>2026-03-29T10:38:30.402Z</time></trkpt><trkpt lat="43.1657224" lon="12.2314423"><ele>274.0</ele><time>2026-03-29T10:38:31.401Z</time></trkpt><trkpt lat="43.1656962" lon="12.2315891"><ele>274.0</ele><time>2026-03-29T10:38:32.402Z</time></trkpt><trkpt lat="43.1656678" lon="12.2317233"><ele>274.4</ele><time>2026-03-29T10:38:33.401Z</time></trkpt><trkpt lat="43.1656479" lon="12.231848"><ele>274.79999999999995</ele><time>2026-03-29T10:38:34.402Z</time></trkpt><trkpt lat="43.1656149" lon="12.2319429"><ele>275.20000000000005</ele><time>2026-03-29T10:38:35.401Z</time></trkpt><trkpt lat="43.1654998" lon="12.2319708"><ele>275.6</ele><time>2026-03-29T10:38:37.4Z</time></trkpt><trkpt lat="43.1654249" lon="12.2319098"><ele>276.0</ele><time>2026-03-29T10:38:38.4Z</time></trkpt><trkpt lat="43.1653481" lon="12.2318215"><ele>276.0</ele><time>2026-03-29T10:38:39.402Z</time></trkpt><trkpt lat="43.165262" lon="12.2317086"><ele>276.0</ele><time>2026-03-29T10:38:40.401Z</time></trkpt><trkpt lat="43.1651848" lon="12.2315698"><ele>276.0</ele><time>2026-03-29T10:38:41.401Z</time></trkpt><trkpt lat="43.1651052" lon="12.2314003"><ele>276.0</ele><time>2026-03-29T10:38:42.401Z</time></trkpt><trkpt lat="43.1650212" lon="12.2312417"><ele>275.0</ele><time>2026-03-29T10:38:43.402Z</time></trkpt><trkpt lat="43.1649422" lon="12.2310901"><ele>274.0</ele><time>2026-03-29T10:38:44.402Z</time></trkpt><trkpt lat="43.1648559" lon="12.2309611"><ele>273.0</ele><time>2026-03-29T10:38:45.401Z</time></trkpt><trkpt lat="43.1647799" lon="12.2308266"><ele>272.0</ele><time>2026-03-29T10:38:46.402Z</time></trkpt><trkpt lat="43.1647047" lon="12.2306781"><ele>271.5</ele><time>2026-03-29T10:38:47.402Z</time></trkpt><trkpt lat="43.1646392" lon="12.2305151"><ele>271.0</ele><time>2026-03-29T10:38:48.401Z</time></trkpt><trkpt lat="43.1645997" lon="12.2303225"><ele>270.5</ele><time>2026-03-29T10:38:49.402Z</time></trkpt><trkpt lat="43.1645989" lon="12.2301315"><ele>270.0</ele><time>2026-03-29T10:38:50.402Z</time></trkpt><trkpt lat="43.1645987" lon="12.2299319"><ele>269.5</ele><time>2026-03-29T10:38:51.402Z</time></trkpt><trkpt lat="43.1646489" lon="12.2297486"><ele>269.0</ele><time>2026-03-29T10:38:52.402Z</time></trkpt><trkpt lat="43.1646806" lon="12.2295455"><ele>268.5</ele><time>2026-03-29T10:38:53.403Z</time></trkpt><trkpt lat="43.164749" lon="12.229357"><ele>268.0</ele><time>2026-03-29T10:38:54.402Z</time></trkpt><trkpt lat="43.1648086" lon="12.2291803"><ele>267.0</ele><time>2026-03-29T10:38:55.401Z</time></trkpt><trkpt lat="43.1648805" lon="12.229"><ele>266.0</ele><time>2026-03-29T10:38:56.402Z</time></trkpt><trkpt lat="43.1649541" lon="12.2288183"><ele>265.0</ele><time>2026-03-29T10:38:57.403Z</time></trkpt><trkpt lat="43.1650317" lon="12.2286295"><ele>265.0</ele><time>2026-03-29T10:38:58.402Z</time></trkpt><trkpt lat="43.1651264" lon="12.2284562"><ele>265.0</ele><time>2026-03-29T10:38:59.402Z</time></trkpt><trkpt lat="43.1652072" lon="12.2282996"><ele>265.0</ele><time>2026-03-29T10:39:00.402Z</time></trkpt><trkpt lat="43.1652825" lon="12.2282082"><ele>265.0</ele><time>2026-03-29T10:39:01.401Z</time></trkpt><trkpt lat="43.1653505" lon="12.2281088"><ele>264.4</ele><time>2026-03-29T10:39:02.401Z</time></trkpt><trkpt lat="43.1654186" lon="12.2280199"><ele>263.8</ele><time>2026-03-29T10:39:03.401Z</time></trkpt><trkpt lat="43.1654565" lon="12.2279391"><ele>263.2</ele><time>2026-03-29T10:39:04.403Z</time></trkpt><trkpt lat="43.1655267" lon="12.2278735"><ele>262.6</ele><time>2026-03-29T10:39:05.402Z</time></trkpt><trkpt lat="43.1656021" lon="12.2278055"><ele>262.0</ele><time>2026-03-29T10:39:06.401Z</time></trkpt><trkpt lat="43.1657255" lon="12.2277357"><ele>261.66666666666663</ele><time>2026-03-29T10:39:07.401Z</time></trkpt><trkpt lat="43.1658414" lon="12.2276243"><ele>261.3333333333333</ele><time>2026-03-29T10:39:08.402Z</time></trkpt><trkpt lat="43.1659605" lon="12.2274894"><ele>261.0</ele><time>2026-03-29T10:39:09.4Z</time></trkpt><trkpt lat="43.1660878" lon="12.2273534"><ele>260.6666666666667</ele><time>2026-03-29T10:39:10.401Z</time></trkpt><trkpt lat="43.1662218" lon="12.2272242"><ele>260.33333333333337</ele><time>2026-03-29T10:39:11.402Z</time></trkpt><trkpt lat="43.1663531" lon="12.2270934"><ele>260.0</ele><time>2026-03-29T10:39:12.401Z</time></trkpt><trkpt lat="43.1664736" lon="12.2269714"><ele>260.25</ele><time>2026-03-29T10:39:13.402Z</time></trkpt><trkpt lat="43.1665835" lon="12.2268326"><ele>260.5</ele><time>2026-03-29T10:39:14.402Z</time></trkpt><trkpt lat="43.1666755" lon="12.2266859"><ele>260.75</ele><time>2026-03-29T10:39:15.401Z</time></trkpt><trkpt lat="43.1667598" lon="12.2265425"><ele>261.0</ele><time>2026-03-29T10:39:16.402Z</time></trkpt><trkpt lat="43.16683" lon="12.2264134"><ele>261.2</ele><time>2026-03-29T10:39:17.401Z</time></trkpt><trkpt lat="43.1668845" lon="12.2263065"><ele>261.40000000000003</ele><time>2026-03-29T10:39:18.401Z</time></trkpt><trkpt lat="43.1669204" lon="12.2262127"><ele>261.6</ele><time>2026-03-29T10:39:19.402Z</time></trkpt><trkpt lat="43.1669246" lon="12.2261218"><ele>261.8</ele><time>2026-03-29T10:39:20.4Z</time></trkpt><trkpt lat="43.1668615" lon="12.2259734"><ele>262.0</ele><time>2026-03-29T10:39:22.402Z</time></trkpt><trkpt lat="43.1667625" lon="12.2258801"><ele>262.0</ele><time>2026-03-29T10:39:23.401Z</time></trkpt><trkpt lat="43.1666643" lon="12.2257858"><ele>262.0</ele><time>2026-03-29T10:39:24.401Z</time></trkpt><trkpt lat="43.1665704" lon="12.2256937"><ele>262.0</ele><time>2026-03-29T10:39:25.402Z</time></trkpt><trkpt lat="43.166477" lon="12.225608"><ele>262.0</ele><time>2026-03-29T10:39:26.401Z</time></trkpt><trkpt lat="43.1663885" lon="12.2255224"><ele>261.25</ele><time>2026-03-29T10:39:27.402Z</time></trkpt><trkpt lat="43.1662941" lon="12.2254283"><ele>260.5</ele><time>2026-03-29T10:39:28.402Z</time></trkpt><trkpt lat="43.1661963" lon="12.2253336"><ele>259.75</ele><time>2026-03-29T10:39:29.4Z</time></trkpt><trkpt lat="43.1660954" lon="12.2252359"><ele>259.0</ele><time>2026-03-29T10:39:30.402Z</time></trkpt><trkpt lat="43.1659859" lon="12.2251308"><ele>259.0</ele><time>2026-03-29T10:39:31.402Z</time></trkpt><trkpt lat="43.1658758" lon="12.2250263"><ele>259.0</ele><time>2026-03-29T10:39:32.401Z</time></trkpt><trkpt lat="43.1657655" lon="12.2249132"><ele>259.0</ele><time>2026-03-29T10:39:33.402Z</time></trkpt><trkpt lat="43.1656498" lon="12.2247993"><ele>259.0</ele><time>2026-03-29T10:39:34.403Z</time></trkpt><trkpt lat="43.1655326" lon="12.2246705"><ele>258.66666666666663</ele><time>2026-03-29T10:39:35.402Z</time></trkpt><trkpt lat="43.1654126" lon="12.2245277"><ele>258.3333333333333</ele><time>2026-03-29T10:39:36.401Z</time></trkpt><trkpt lat="43.1652968" lon="12.2243908"><ele>258.0</ele><time>2026-03-29T10:39:37.401Z</time></trkpt><trkpt lat="43.1651863" lon="12.2242506"><ele>258.0</ele><time>2026-03-29T10:39:38.402Z</time></trkpt><trkpt lat="43.1650802" lon="12.2241187"><ele>258.0</ele><time>2026-03-29T10:39:39.402Z</time></trkpt><trkpt lat="43.1649732" lon="12.223984"><ele>258.0</ele><time>2026-03-29T10:39:40.402Z</time></trkpt><trkpt lat="43.1648656" lon="12.2238396"><ele>258.0</ele><time>2026-03-29T10:39:41.402Z</time></trkpt><trkpt lat="43.164754" lon="12.2236943"><ele>257.0</ele><time>2026-03-29T10:39:42.402Z</time></trkpt><trkpt lat="43.1646414" lon="12.2235512"><ele>256.0</ele><time>2026-03-29T10:39:43.401Z</time></trkpt><trkpt lat="43.1645306" lon="12.2234048"><ele>255.0</ele><time>2026-03-29T10:39:44.401Z</time></trkpt><trkpt lat="43.1644236" lon="12.2232537"><ele>255.0</ele><time>2026-03-29T10:39:45.402Z</time></trkpt><trkpt lat="43.1643132" lon="12.2231004"><ele>255.0</ele><time>2026-03-29T10:39:46.402Z</time></trkpt><trkpt lat="43.1642034" lon="12.2229448"><ele>255.0</ele><time>2026-03-29T10:39:47.401Z</time></trkpt><trkpt lat="43.1640929" lon="12.2228016"><ele>255.25</ele><time>2026-03-29T10:39:48.4Z</time></trkpt><trkpt lat="43.1639962" lon="12.2226616"><ele>255.5</ele><time>2026-03-29T10:39:49.402Z</time></trkpt><trkpt lat="43.1639044" lon="12.222539"><ele>255.75</ele><time>2026-03-29T10:39:50.402Z</time></trkpt><trkpt lat="43.1638257" lon="12.2224302"><ele>256.0</ele><time>2026-03-29T10:39:51.401Z</time></trkpt><trkpt lat="43.1637597" lon="12.2223365"><ele>255.8</ele><time>2026-03-29T10:39:52.402Z</time></trkpt><trkpt lat="43.1636998" lon="12.2222555"><ele>255.60000000000002</ele><time>2026-03-29T10:39:53.402Z</time></trkpt><trkpt lat="43.1636491" lon="12.2221835"><ele>255.4</ele><time>2026-03-29T10:39:54.401Z</time></trkpt><trkpt lat="43.1635852" lon="12.2220673"><ele>255.2</ele><time>2026-03-29T10:39:56.402Z</time></trkpt><trkpt lat="43.163616" lon="12.221989"><ele>255.0</ele><time>2026-03-29T10:39:58.401Z</time></trkpt><trkpt lat="43.1637297" lon="12.2218965"><ele>255.0</ele><time>2026-03-29T10:40:00.403Z</time></trkpt><trkpt lat="43.1638055" lon="12.2218341"><ele>255.0</ele><time>2026-03-29T10:40:01.402Z</time></trkpt><trkpt lat="43.1638891" lon="12.2217778"><ele>255.0</ele><time>2026-03-29T10:40:02.402Z</time></trkpt><trkpt lat="43.1639799" lon="12.2217049"><ele>255.0</ele><time>2026-03-29T10:40:03.402Z</time></trkpt><trkpt lat="43.164069" lon="12.2216318"><ele>255.0</ele><time>2026-03-29T10:40:04.401Z</time></trkpt><trkpt lat="43.1641626" lon="12.2215523"><ele>255.5</ele><time>2026-03-29T10:40:05.403Z</time></trkpt><trkpt lat="43.1642588" lon="12.2214694"><ele>256.0</ele><time>2026-03-29T10:40:06.402Z</time></trkpt><trkpt lat="43.1643588" lon="12.2213878"><ele>256.5</ele><time>2026-03-29T10:40:07.402Z</time></trkpt><trkpt lat="43.164462" lon="12.2213145"><ele>257.0</ele><time>2026-03-29T10:40:08.4Z</time></trkpt><trkpt lat="43.1645555" lon="12.2212318"><ele>257.0</ele><time>2026-03-29T10:40:09.4Z</time></trkpt><trkpt lat="43.1646558" lon="12.2211508"><ele>257.0</ele><time>2026-03-29T10:40:10.401Z</time></trkpt><trkpt lat="43.1647604" lon="12.2210634"><ele>257.0</ele><time>2026-03-29T10:40:11.403Z</time></trkpt><trkpt lat="43.1648656" lon="12.2209746"><ele>257.0</ele><time>2026-03-29T10:40:12.402Z</time></trkpt><trkpt lat="43.1649834" lon="12.2208967"><ele>257.25</ele><time>2026-03-29T10:40:13.401Z</time></trkpt><trkpt lat="43.1651028" lon="12.2208185"><ele>257.5</ele><time>2026-03-29T10:40:14.4Z</time></trkpt><trkpt lat="43.165224" lon="12.2207348"><ele>257.75</ele><time>2026-03-29T10:40:15.402Z</time></trkpt><trkpt lat="43.1653479" lon="12.2206654"><ele>258.0</ele><time>2026-03-29T10:40:16.4Z</time></trkpt><trkpt lat="43.165481" lon="12.2206005"><ele>258.25</ele><time>2026-03-29T10:40:17.401Z</time></trkpt><trkpt lat="43.1656132" lon="12.2205327"><ele>258.5</ele><time>2026-03-29T10:40:18.401Z</time></trkpt><trkpt lat="43.1657399" lon="12.2204637"><ele>258.75</ele><time>2026-03-29T10:40:19.401Z</time></trkpt><trkpt lat="43.1658752" lon="12.2203912"><ele>259.0</ele><time>2026-03-29T10:40:20.401Z</time></trkpt><trkpt lat="43.1660126" lon="12.2203126"><ele>259.0</ele><time>2026-03-29T10:40:21.401Z</time></trkpt><trkpt lat="43.1661473" lon="12.2202422"><ele>259.0</ele><time>2026-03-29T10:40:22.403Z</time></trkpt><trkpt lat="43.1662788" lon="12.2201743"><ele>259.0</ele><time>2026-03-29T10:40:23.402Z</time></trkpt><trkpt lat="43.1664067" lon="12.2201054"><ele>259.0</ele><time>2026-03-29T10:40:24.401Z</time></trkpt><trkpt lat="43.1665301" lon="12.2200436"><ele>259.25</ele><time>2026-03-29T10:40:25.401Z</time></trkpt><trkpt lat="43.1666585" lon="12.2199792"><ele>259.5</ele><time>2026-03-29T10:40:26.401Z</time></trkpt><trkpt lat="43.1667854" lon="12.2199042"><ele>259.75</ele><time>2026-03-29T10:40:27.402Z</time></trkpt><trkpt lat="43.1669217" lon="12.2198294"><ele>260.0</ele><time>2026-03-29T10:40:28.403Z</time></trkpt><trkpt lat="43.1670533" lon="12.2197549"><ele>260.0</ele><time>2026-03-29T10:40:29.402Z</time></trkpt><trkpt lat="43.1671864" lon="12.2196859"><ele>260.0</ele><time>2026-03-29T10:40:30.403Z</time></trkpt><trkpt lat="43.1673154" lon="12.2196115"><ele>260.0</ele><time>2026-03-29T10:40:31.402Z</time></trkpt><trkpt lat="43.1674474" lon="12.2195426"><ele>260.0</ele><time>2026-03-29T10:40:32.402Z</time></trkpt><trkpt lat="43.1675794" lon="12.2194688"><ele>260.25</ele><time>2026-03-29T10:40:33.402Z</time></trkpt><trkpt lat="43.1677121" lon="12.2194011"><ele>260.5</ele><time>2026-03-29T10:40:34.402Z</time></trkpt><trkpt lat="43.167849" lon="12.219332"><ele>260.75</ele><time>2026-03-29T10:40:35.402Z</time></trkpt><trkpt lat="43.1679824" lon="12.21926"><ele>261.0</ele><time>2026-03-29T10:40:36.403Z</time></trkpt><trkpt lat="43.1681144" lon="12.219183"><ele>261.5</ele><time>2026-03-29T10:40:37.401Z</time></trkpt><trkpt lat="43.1682562" lon="12.219112"><ele>262.0</ele><time>2026-03-29T10:40:38.402Z</time></trkpt><trkpt lat="43.168393" lon="12.2190372"><ele>262.5</ele><time>2026-03-29T10:40:39.402Z</time></trkpt><trkpt lat="43.1685288" lon="12.2189655"><ele>263.0</ele><time>2026-03-29T10:40:40.402Z</time></trkpt><trkpt lat="43.168669" lon="12.2188923"><ele>263.0</ele><time>2026-03-29T10:40:41.402Z</time></trkpt><trkpt lat="43.1688092" lon="12.2188183"><ele>263.0</ele><time>2026-03-29T10:40:42.401Z</time></trkpt><trkpt lat="43.1689479" lon="12.2187417"><ele>263.0</ele><time>2026-03-29T10:40:43.4Z</time></trkpt><trkpt lat="43.1690859" lon="12.2186629"><ele>263.0</ele><time>2026-03-29T10:40:44.401Z</time></trkpt><trkpt lat="43.1692218" lon="12.218592"><ele>264.0</ele><time>2026-03-29T10:40:45.402Z</time></trkpt><trkpt lat="43.1693579" lon="12.2185115"><ele>265.0</ele><time>2026-03-29T10:40:46.402Z</time></trkpt><trkpt lat="43.1694881" lon="12.2184385"><ele>266.0</ele><time>2026-03-29T10:40:47.4Z</time></trkpt><trkpt lat="43.1696061" lon="12.2183683"><ele>267.0</ele><time>2026-03-29T10:40:48.402Z</time></trkpt><trkpt lat="43.169713" lon="12.2182998"><ele>267.0</ele><time>2026-03-29T10:40:49.403Z</time></trkpt><trkpt lat="43.1697985" lon="12.2182502"><ele>267.0</ele><time>2026-03-29T10:40:50.4Z</time></trkpt><trkpt lat="43.1699165" lon="12.2182221"><ele>267.0</ele><time>2026-03-29T10:40:52.402Z</time></trkpt><trkpt lat="43.1699947" lon="12.2182069"><ele>267.0</ele><time>2026-03-29T10:40:53.401Z</time></trkpt><trkpt lat="43.1700922" lon="12.2181785"><ele>267.0</ele><time>2026-03-29T10:40:54.4Z</time></trkpt><trkpt lat="43.1701914" lon="12.2181477"><ele>267.4</ele><time>2026-03-29T10:40:55.401Z</time></trkpt><trkpt lat="43.1702954" lon="12.2181117"><ele>267.79999999999995</ele><time>2026-03-29T10:40:56.402Z</time></trkpt><trkpt lat="43.1703998" lon="12.2180674"><ele>268.2</ele><time>2026-03-29T10:40:57.4Z</time></trkpt><trkpt lat="43.1705025" lon="12.2180236"><ele>268.59999999999997</ele><time>2026-03-29T10:40:58.4Z</time></trkpt><trkpt lat="43.1706069" lon="12.2179841"><ele>269.0</ele><time>2026-03-29T10:40:59.401Z</time></trkpt><trkpt lat="43.1707037" lon="12.2179416"><ele>270.2</ele><time>2026-03-29T10:41:00.402Z</time></trkpt><trkpt lat="43.1707948" lon="12.2179116"><ele>271.4</ele><time>2026-03-29T10:41:01.401Z</time></trkpt><trkpt lat="43.1708844" lon="12.2178823"><ele>272.6</ele><time>2026-03-29T10:41:02.402Z</time></trkpt><trkpt lat="43.1709826" lon="12.2178488"><ele>273.8</ele><time>2026-03-29T10:41:03.402Z</time></trkpt><trkpt lat="43.171075" lon="12.2178141"><ele>275.0</ele><time>2026-03-29T10:41:04.402Z</time></trkpt><trkpt lat="43.1711675" lon="12.2177812"><ele>275.0</ele><time>2026-03-29T10:41:05.402Z</time></trkpt><trkpt lat="43.1712615" lon="12.2177426"><ele>275.0</ele><time>2026-03-29T10:41:06.402Z</time></trkpt><trkpt lat="43.1713519" lon="12.217704"><ele>275.0</ele><time>2026-03-29T10:41:07.403Z</time></trkpt><trkpt lat="43.1714407" lon="12.2176707"><ele>275.0</ele><time>2026-03-29T10:41:08.401Z</time></trkpt><trkpt lat="43.1715234" lon="12.2176412"><ele>275.0</ele><time>2026-03-29T10:41:09.402Z</time></trkpt><trkpt lat="43.1716042" lon="12.217607"><ele>276.0</ele><time>2026-03-29T10:41:10.401Z</time></trkpt><trkpt lat="43.1716879" lon="12.2175802"><ele>277.0</ele><time>2026-03-29T10:41:11.402Z</time></trkpt><trkpt lat="43.1717681" lon="12.2175669"><ele>278.0</ele><time>2026-03-29T10:41:12.4Z</time></trkpt><trkpt lat="43.171844" lon="12.2175814"><ele>279.0</ele><time>2026-03-29T10:41:13.402Z</time></trkpt><trkpt lat="43.1719222" lon="12.2176097"><ele>280.0</ele><time>2026-03-29T10:41:14.402Z</time></trkpt><trkpt lat="43.1719909" lon="12.2176566"><ele>281.0</ele><time>2026-03-29T10:41:15.401Z</time></trkpt><trkpt lat="43.1720626" lon="12.2176984"><ele>281.0</ele><time>2026-03-29T10:41:16.401Z</time></trkpt><trkpt lat="43.1721492" lon="12.2177443"><ele>281.0</ele><time>2026-03-29T10:41:17.401Z</time></trkpt><trkpt lat="43.1722349" lon="12.2177793"><ele>281.0</ele><time>2026-03-29T10:41:18.401Z</time></trkpt><trkpt lat="43.1723241" lon="12.217809"><ele>281.0</ele><time>2026-03-29T10:41:19.402Z</time></trkpt><trkpt lat="43.1724148" lon="12.2178437"><ele>281.0</ele><time>2026-03-29T10:41:20.402Z</time></trkpt><trkpt lat="43.1725204" lon="12.2178794"><ele>282.5</ele><time>2026-03-29T10:41:21.403Z</time></trkpt><trkpt lat="43.1726254" lon="12.2179247"><ele>284.0</ele><time>2026-03-29T10:41:22.402Z</time></trkpt><trkpt lat="43.172731" lon="12.217967"><ele>285.5</ele><time>2026-03-29T10:41:23.401Z</time></trkpt><trkpt lat="43.1728419" lon="12.2180115"><ele>287.0</ele><time>2026-03-29T10:41:24.402Z</time></trkpt><trkpt lat="43.1729554" lon="12.2180649"><ele>287.0</ele><time>2026-03-29T10:41:25.401Z</time></trkpt><trkpt lat="43.1730602" lon="12.21811"><ele>287.0</ele><time>2026-03-29T10:41:26.402Z</time></trkpt><trkpt lat="43.1731538" lon="12.2181562"><ele>287.0</ele><time>2026-03-29T10:41:27.401Z</time></trkpt><trkpt lat="43.1732307" lon="12.218194"><ele>287.0</ele><time>2026-03-29T10:41:28.402Z</time></trkpt><trkpt lat="43.1733401" lon="12.2182114"><ele>287.0</ele><time>2026-03-29T10:41:30.402Z</time></trkpt><trkpt lat="43.17339" lon="12.2180584"><ele>288.25</ele><time>2026-03-29T10:41:32.402Z</time></trkpt><trkpt lat="43.173397" lon="12.2179246"><ele>289.5</ele><time>2026-03-29T10:41:33.402Z</time></trkpt><trkpt lat="43.1734157" lon="12.2177681"><ele>290.75</ele><time>2026-03-29T10:41:34.401Z</time></trkpt><trkpt lat="43.1734416" lon="12.2175861"><ele>292.0</ele><time>2026-03-29T10:41:35.402Z</time></trkpt><trkpt lat="43.1734661" lon="12.2173953"><ele>290.75</ele><time>2026-03-29T10:41:36.402Z</time></trkpt><trkpt lat="43.1734863" lon="12.2171998"><ele>289.5</ele><time>2026-03-29T10:41:37.403Z</time></trkpt><trkpt lat="43.1735195" lon="12.2170129"><ele>288.25</ele><time>2026-03-29T10:41:38.403Z</time></trkpt><trkpt lat="43.1735508" lon="12.2168183"><ele>287.0</ele><time>2026-03-29T10:41:39.402Z</time></trkpt><trkpt lat="43.1735795" lon="12.2166169"><ele>286.5</ele><time>2026-03-29T10:41:40.401Z</time></trkpt><trkpt lat="43.1736069" lon="12.2164131"><ele>286.0</ele><time>2026-03-29T10:41:41.402Z</time></trkpt><trkpt lat="43.1736344" lon="12.2162095"><ele>285.5</ele><time>2026-03-29T10:41:42.402Z</time></trkpt><trkpt lat="43.173657" lon="12.2160207"><ele>285.0</ele><time>2026-03-29T10:41:43.402Z</time></trkpt><trkpt lat="43.1736835" lon="12.2158282"><ele>285.0</ele><time>2026-03-29T10:41:44.402Z</time></trkpt><trkpt lat="43.1737005" lon="12.2156552"><ele>285.0</ele><time>2026-03-29T10:41:45.401Z</time></trkpt><trkpt lat="43.1737217" lon="12.2155103"><ele>285.0</ele><time>2026-03-29T10:41:46.403Z</time></trkpt><trkpt lat="43.1737324" lon="12.2153875"><ele>285.0</ele><time>2026-03-29T10:41:47.4Z</time></trkpt><trkpt lat="43.1737459" lon="12.2152646"><ele>285.0</ele><time>2026-03-29T10:41:48.401Z</time></trkpt><trkpt lat="43.1737564" lon="12.2151609"><ele>284.8</ele><time>2026-03-29T10:41:49.403Z</time></trkpt><trkpt lat="43.1737612" lon="12.2150697"><ele>284.6</ele><time>2026-03-29T10:41:50.402Z</time></trkpt><trkpt lat="43.1736806" lon="12.214935"><ele>284.4</ele><time>2026-03-29T10:41:52.403Z</time></trkpt><trkpt lat="43.1735938" lon="12.2148966"><ele>284.2</ele><time>2026-03-29T10:41:53.401Z</time></trkpt><trkpt lat="43.1734896" lon="12.2148662"><ele>284.0</ele><time>2026-03-29T10:41:54.401Z</time></trkpt><trkpt lat="43.173379" lon="12.2148349"><ele>285.0</ele><time>2026-03-29T10:41:55.403Z</time></trkpt><trkpt lat="43.1732511" lon="12.2147948"><ele>286.0</ele><time>2026-03-29T10:41:56.403Z</time></trkpt><trkpt lat="43.1731304" lon="12.2147379"><ele>287.0</ele><time>2026-03-29T10:41:57.402Z</time></trkpt><trkpt lat="43.1730116" lon="12.2146672"><ele>288.0</ele><time>2026-03-29T10:41:58.402Z</time></trkpt><trkpt lat="43.172902" lon="12.2145898"><ele>286.0</ele><time>2026-03-29T10:41:59.401Z</time></trkpt><trkpt lat="43.172803" lon="12.2145052"><ele>284.0</ele><time>2026-03-29T10:42:00.402Z</time></trkpt><trkpt lat="43.172719" lon="12.214402"><ele>282.0</ele><time>2026-03-29T10:42:01.402Z</time></trkpt><trkpt lat="43.1726554" lon="12.2142753"><ele>280.0</ele><time>2026-03-29T10:42:02.4Z</time></trkpt><trkpt lat="43.1726123" lon="12.2141384"><ele>280.0</ele><time>2026-03-29T10:42:03.403Z</time></trkpt><trkpt lat="43.1725957" lon="12.2139884"><ele>280.0</ele><time>2026-03-29T10:42:04.401Z</time></trkpt><trkpt lat="43.1726124" lon="12.2138409"><ele>280.0</ele><time>2026-03-29T10:42:05.401Z</time></trkpt><trkpt lat="43.1726469" lon="12.2136951"><ele>280.0</ele><time>2026-03-29T10:42:06.403Z</time></trkpt><trkpt lat="43.1727062" lon="12.2135557"><ele>280.0</ele><time>2026-03-29T10:42:07.403Z</time></trkpt><trkpt lat="43.1727862" lon="12.2134138"><ele>279.5</ele><time>2026-03-29T10:42:08.401Z</time></trkpt><trkpt lat="43.1728708" lon="12.213268"><ele>279.0</ele><time>2026-03-29T10:42:09.402Z</time></trkpt><trkpt lat="43.1729596" lon="12.2131171"><ele>278.5</ele><time>2026-03-29T10:42:10.403Z</time></trkpt><trkpt lat="43.1730418" lon="12.2129589"><ele>278.0</ele><time>2026-03-29T10:42:11.402Z</time></trkpt><trkpt lat="43.1731243" lon="12.2127992"><ele>278.0</ele><time>2026-03-29T10:42:12.402Z</time></trkpt><trkpt lat="43.1731914" lon="12.2126445"><ele>278.0</ele><time>2026-03-29T10:42:13.401Z</time></trkpt><trkpt lat="43.1732498" lon="12.212494"><ele>278.0</ele><time>2026-03-29T10:42:14.402Z</time></trkpt><trkpt lat="43.1733077" lon="12.2123424"><ele>278.0</ele><time>2026-03-29T10:42:15.403Z</time></trkpt><trkpt lat="43.173368" lon="12.2121977"><ele>278.0</ele><time>2026-03-29T10:42:16.402Z</time></trkpt><trkpt lat="43.1734219" lon="12.2120422"><ele>278.0</ele><time>2026-03-29T10:42:17.401Z</time></trkpt><trkpt lat="43.1734678" lon="12.2118828"><ele>278.0</ele><time>2026-03-29T10:42:18.402Z</time></trkpt><trkpt lat="43.1734966" lon="12.2117227"><ele>278.0</ele><time>2026-03-29T10:42:19.4Z</time></trkpt><trkpt lat="43.1735201" lon="12.2115603"><ele>277.75</ele><time>2026-03-29T10:42:20.403Z</time></trkpt><trkpt lat="43.1735543" lon="12.2114063"><ele>277.5</ele><time>2026-03-29T10:42:21.402Z</time></trkpt><trkpt lat="43.1736073" lon="12.2112563"><ele>277.25</ele><time>2026-03-29T10:42:22.402Z</time></trkpt><trkpt lat="43.1736808" lon="12.2111322"><ele>277.0</ele><time>2026-03-29T10:42:23.402Z</time></trkpt><trkpt lat="43.1737753" lon="12.2110394"><ele>277.0</ele><time>2026-03-29T10:42:24.401Z</time></trkpt><trkpt lat="43.1738708" lon="12.2109616"><ele>277.0</ele><time>2026-03-29T10:42:25.401Z</time></trkpt><trkpt lat="43.1739858" lon="12.2109048"><ele>277.0</ele><time>2026-03-29T10:42:26.403Z</time></trkpt><trkpt lat="43.1740976" lon="12.2108452"><ele>277.0</ele><time>2026-03-29T10:42:27.402Z</time></trkpt><trkpt lat="43.1742047" lon="12.2107586"><ele>277.75</ele><time>2026-03-29T10:42:28.402Z</time></trkpt><trkpt lat="43.1743062" lon="12.2106481"><ele>278.5</ele><time>2026-03-29T10:42:29.401Z</time></trkpt><trkpt lat="43.1744035" lon="12.2105222"><ele>279.25</ele><time>2026-03-29T10:42:30.401Z</time></trkpt><trkpt lat="43.1745144" lon="12.2104111"><ele>280.0</ele><time>2026-03-29T10:42:31.403Z</time></trkpt><trkpt lat="43.1746336" lon="12.2103198"><ele>280.0</ele><time>2026-03-29T10:42:32.402Z</time></trkpt><trkpt lat="43.1747611" lon="12.2102485"><ele>280.0</ele><time>2026-03-29T10:42:33.402Z</time></trkpt><trkpt lat="43.1748779" lon="12.2102043"><ele>280.0</ele><time>2026-03-29T10:42:34.401Z</time></trkpt><trkpt lat="43.1749822" lon="12.2101628"><ele>280.0</ele><time>2026-03-29T10:42:35.403Z</time></trkpt><trkpt lat="43.1750583" lon="12.2101084"><ele>280.8</ele><time>2026-03-29T10:42:36.402Z</time></trkpt><trkpt lat="43.1751216" lon="12.2100294"><ele>281.6</ele><time>2026-03-29T10:42:37.402Z</time></trkpt><trkpt lat="43.1751481" lon="12.2099196"><ele>282.4</ele><time>2026-03-29T10:42:38.403Z</time></trkpt><trkpt lat="43.1751625" lon="12.2098059"><ele>283.2</ele><time>2026-03-29T10:42:39.401Z</time></trkpt><trkpt lat="43.1751703" lon="12.2096868"><ele>284.0</ele><time>2026-03-29T10:42:40.403Z</time></trkpt><trkpt lat="43.1751462" lon="12.209525"><ele>284.0</ele><time>2026-03-29T10:42:41.403Z</time></trkpt><trkpt lat="43.1751193" lon="12.2093514"><ele>284.0</ele><time>2026-03-29T10:42:42.402Z</time></trkpt><trkpt lat="43.1750938" lon="12.2091851"><ele>284.0</ele><time>2026-03-29T10:42:43.401Z</time></trkpt><trkpt lat="43.1750699" lon="12.2090212"><ele>284.0</ele><time>2026-03-29T10:42:44.402Z</time></trkpt><trkpt lat="43.1750641" lon="12.2088775"><ele>285.33333333333337</ele><time>2026-03-29T10:42:45.403Z</time></trkpt><trkpt lat="43.1750692" lon="12.2087391"><ele>286.6666666666667</ele><time>2026-03-29T10:42:46.402Z</time></trkpt><trkpt lat="43.1750978" lon="12.2086231"><ele>288.0</ele><time>2026-03-29T10:42:47.402Z</time></trkpt><trkpt lat="43.1751366" lon="12.2085278"><ele>289.3333333333333</ele><time>2026-03-29T10:42:48.402Z</time></trkpt><trkpt lat="43.1751726" lon="12.2084477"><ele>290.66666666666663</ele><time>2026-03-29T10:42:49.403Z</time></trkpt><trkpt lat="43.17521" lon="12.2083551"><ele>292.0</ele><time>2026-03-29T10:42:50.401Z</time></trkpt><trkpt lat="43.1752583" lon="12.2082637"><ele>292.0</ele><time>2026-03-29T10:42:51.403Z</time></trkpt><trkpt lat="43.1753191" lon="12.2081681"><ele>292.0</ele><time>2026-03-29T10:42:52.403Z</time></trkpt><trkpt lat="43.1753855" lon="12.2081001"><ele>292.0</ele><time>2026-03-29T10:42:53.402Z</time></trkpt><trkpt lat="43.1754603" lon="12.2080311"><ele>292.0</ele><time>2026-03-29T10:42:54.402Z</time></trkpt><trkpt lat="43.1755344" lon="12.2079167"><ele>292.0</ele><time>2026-03-29T10:42:55.403Z</time></trkpt><trkpt lat="43.1755939" lon="12.2078387"><ele>294.0</ele><time>2026-03-29T10:42:56.401Z</time></trkpt><trkpt lat="43.1756204" lon="12.2077359"><ele>296.0</ele><time>2026-03-29T10:42:58.402Z</time></trkpt><trkpt lat="43.1755679" lon="12.2076555"><ele>298.0</ele><time>2026-03-29T10:43:00.403Z</time></trkpt><trkpt lat="43.1754951" lon="12.2076021"><ele>300.0</ele><time>2026-03-29T10:43:01.402Z</time></trkpt><trkpt lat="43.1754576" lon="12.2075323"><ele>302.0</ele><time>2026-03-29T10:43:02.402Z</time></trkpt><trkpt lat="43.175484" lon="12.2074347"><ele>304.0</ele><time>2026-03-29T10:43:04.401Z</time></trkpt><trkpt lat="43.1755634" lon="12.2073104"><ele>306.3333333333333</ele><time>2026-03-29T10:43:06.401Z</time></trkpt><trkpt lat="43.1756079" lon="12.20718"><ele>308.66666666666663</ele><time>2026-03-29T10:43:08.401Z</time></trkpt><trkpt lat="43.1756219" lon="12.2070934"><ele>311.0</ele><time>2026-03-29T10:43:09.402Z</time></trkpt><trkpt lat="43.1756221" lon="12.2070043"><ele>313.3333333333333</ele><time>2026-03-29T10:43:10.402Z</time></trkpt><trkpt lat="43.1756184" lon="12.2068977"><ele>315.6666666666667</ele><time>2026-03-29T10:43:11.402Z</time></trkpt><trkpt lat="43.1756159" lon="12.2067877"><ele>318.0</ele><time>2026-03-29T10:43:12.401Z</time></trkpt><trkpt lat="43.175603" lon="12.2066786"><ele>318.0</ele><time>2026-03-29T10:43:13.401Z</time></trkpt><trkpt lat="43.1756144" lon="12.2065836"><ele>318.0</ele><time>2026-03-29T10:43:14.403Z</time></trkpt><trkpt lat="43.1755671" lon="12.2064851"><ele>318.0</ele><time>2026-03-29T10:43:16.402Z</time></trkpt><trkpt lat="43.1754786" lon="12.2063811"><ele>318.0</ele><time>2026-03-29T10:43:18.402Z</time></trkpt><trkpt lat="43.175457" lon="12.2062941"><ele>318.0</ele><time>2026-03-29T10:43:19.403Z</time></trkpt><trkpt lat="43.1754082" lon="12.2061979"><ele>318.0</ele><time>2026-03-29T10:43:20.402Z</time></trkpt><trkpt lat="43.1753621" lon="12.2061098"><ele>319.1666666666667</ele><time>2026-03-29T10:43:21.403Z</time></trkpt><trkpt lat="43.1753089" lon="12.2060011"><ele>320.3333333333333</ele><time>2026-03-29T10:43:22.402Z</time></trkpt><trkpt lat="43.1752494" lon="12.2059047"><ele>321.5</ele><time>2026-03-29T10:43:23.401Z</time></trkpt><trkpt lat="43.1751921" lon="12.2058108"><ele>322.66666666666663</ele><time>2026-03-29T10:43:24.402Z</time></trkpt><trkpt lat="43.1751482" lon="12.2057257"><ele>323.8333333333333</ele><time>2026-03-29T10:43:25.401Z</time></trkpt><trkpt lat="43.1751008" lon="12.2056351"><ele>325.0</ele><time>2026-03-29T10:43:27.402Z</time></trkpt><trkpt lat="43.175116" lon="12.2057374"><ele>325.0</ele><time>2026-03-29T10:43:31.401Z</time></trkpt><trkpt lat="43.1751332" lon="12.2058729"><ele>325.0</ele><time>2026-03-29T10:43:33.402Z</time></trkpt><trkpt lat="43.1751593" lon="12.2059787"><ele>325.0</ele><time>2026-03-29T10:43:35.403Z</time></trkpt><trkpt lat="43.1752146" lon="12.2060826"><ele>325.0</ele><time>2026-03-29T10:43:37.401Z</time></trkpt><trkpt lat="43.1752507" lon="12.2061636"><ele>325.0</ele><time>2026-03-29T10:43:38.402Z</time></trkpt><trkpt lat="43.1752832" lon="12.2063367"><ele>325.0</ele><time>2026-03-29T10:43:40.403Z</time></trkpt><trkpt lat="43.1752763" lon="12.2064483"><ele>325.0</ele><time>2026-03-29T10:43:41.402Z</time></trkpt><trkpt lat="43.175244" lon="12.2065497"><ele>325.0</ele><time>2026-03-29T10:43:42.401Z</time></trkpt><trkpt lat="43.1752057" lon="12.2066306"><ele>325.0</ele><time>2026-03-29T10:43:43.402Z</time></trkpt><trkpt lat="43.1751577" lon="12.2067036"><ele>325.0</ele><time>2026-03-29T10:43:44.402Z</time></trkpt><trkpt lat="43.1750925" lon="12.2067705"><ele>325.0</ele><time>2026-03-29T10:43:45.403Z</time></trkpt><trkpt lat="43.1750198" lon="12.2068251"><ele>323.8333333333333</ele><time>2026-03-29T10:43:46.403Z</time></trkpt><trkpt lat="43.1749466" lon="12.2068634"><ele>322.66666666666663</ele><time>2026-03-29T10:43:47.402Z</time></trkpt><trkpt lat="43.1748817" lon="12.2068698"><ele>321.5</ele><time>2026-03-29T10:43:48.401Z</time></trkpt><trkpt lat="43.1748195" lon="12.2069132"><ele>320.3333333333333</ele><time>2026-03-29T10:43:49.402Z</time></trkpt><trkpt lat="43.1747615" lon="12.2069507"><ele>319.1666666666667</ele><time>2026-03-29T10:43:50.403Z</time></trkpt><trkpt lat="43.174653" lon="12.2070454"><ele>318.0</ele><time>2026-03-29T10:43:52.401Z</time></trkpt><trkpt lat="43.1745723" lon="12.207104"><ele>317.8</ele><time>2026-03-29T10:43:53.402Z</time></trkpt><trkpt lat="43.174494" lon="12.2071721"><ele>317.6</ele><time>2026-03-29T10:43:54.402Z</time></trkpt><trkpt lat="43.1744149" lon="12.207257"><ele>317.4</ele><time>2026-03-29T10:43:55.401Z</time></trkpt><trkpt lat="43.1743373" lon="12.2073383"><ele>317.2</ele><time>2026-03-29T10:43:56.403Z</time></trkpt><trkpt lat="43.1742587" lon="12.207435"><ele>317.0</ele><time>2026-03-29T10:43:57.401Z</time></trkpt><trkpt lat="43.1741831" lon="12.2075326"><ele>317.0</ele><time>2026-03-29T10:43:58.402Z</time></trkpt><trkpt lat="43.174106" lon="12.2076271"><ele>317.0</ele><time>2026-03-29T10:43:59.402Z</time></trkpt><trkpt lat="43.1740194" lon="12.2077153"><ele>317.0</ele><time>2026-03-29T10:44:00.402Z</time></trkpt><trkpt lat="43.1739253" lon="12.207804"><ele>317.0</ele><time>2026-03-29T10:44:01.402Z</time></trkpt><trkpt lat="43.1738301" lon="12.2079019"><ele>317.0</ele><time>2026-03-29T10:44:02.402Z</time></trkpt><trkpt lat="43.173741" lon="12.2079692"><ele>315.6</ele><time>2026-03-29T10:44:03.402Z</time></trkpt><trkpt lat="43.1736541" lon="12.2080167"><ele>314.2</ele><time>2026-03-29T10:44:04.402Z</time></trkpt><trkpt lat="43.1735524" lon="12.208071"><ele>312.8</ele><time>2026-03-29T10:44:05.402Z</time></trkpt><trkpt lat="43.1734343" lon="12.2081292"><ele>311.4</ele><time>2026-03-29T10:44:06.402Z</time></trkpt><trkpt lat="43.1733283" lon="12.2081755"><ele>310.0</ele><time>2026-03-29T10:44:07.402Z</time></trkpt><trkpt lat="43.1732012" lon="12.2082341"><ele>311.75</ele><time>2026-03-29T10:44:08.402Z</time></trkpt><trkpt lat="43.1730749" lon="12.2082919"><ele>313.5</ele><time>2026-03-29T10:44:09.402Z</time></trkpt><trkpt lat="43.1729536" lon="12.2083608"><ele>315.25</ele><time>2026-03-29T10:44:10.403Z</time></trkpt><trkpt lat="43.1728444" lon="12.2084119"><ele>317.0</ele><time>2026-03-29T10:44:11.403Z</time></trkpt><trkpt lat="43.1727487" lon="12.2084536"><ele>317.0</ele><time>2026-03-29T10:44:12.403Z</time></trkpt><trkpt lat="43.1726472" lon="12.208497"><ele>317.0</ele><time>2026-03-29T10:44:13.402Z</time></trkpt><trkpt lat="43.1725635" lon="12.2085193"><ele>317.0</ele><time>2026-03-29T10:44:14.402Z</time></trkpt><trkpt lat="43.172477" lon="12.2085216"><ele>317.0</ele><time>2026-03-29T10:44:15.402Z</time></trkpt><trkpt lat="43.1723944" lon="12.2084956"><ele>317.0</ele><time>2026-03-29T10:44:16.402Z</time></trkpt><trkpt lat="43.1723084" lon="12.2085116"><ele>318.1666666666667</ele><time>2026-03-29T10:44:17.402Z</time></trkpt><trkpt lat="43.1722144" lon="12.2085616"><ele>319.33333333333337</ele><time>2026-03-29T10:44:18.401Z</time></trkpt><trkpt lat="43.1721296" lon="12.2085824"><ele>320.5</ele><time>2026-03-29T10:44:19.402Z</time></trkpt><trkpt lat="43.1720538" lon="12.2085751"><ele>321.6666666666667</ele><time>2026-03-29T10:44:20.402Z</time></trkpt><trkpt lat="43.1719898" lon="12.2085716"><ele>322.8333333333333</ele><time>2026-03-29T10:44:21.403Z</time></trkpt><trkpt lat="43.1719214" lon="12.2085685"><ele>324.0</ele><time>2026-03-29T10:44:22.402Z</time></trkpt><trkpt lat="43.1718592" lon="12.2085921"><ele>324.0</ele><time>2026-03-29T10:44:23.403Z</time></trkpt><trkpt lat="43.1717951" lon="12.2086376"><ele>324.0</ele><time>2026-03-29T10:44:25.401Z</time></trkpt><trkpt lat="43.1717307" lon="12.2085253"><ele>324.0</ele><time>2026-03-29T10:44:28.402Z</time></trkpt><trkpt lat="43.1716432" lon="12.2084664"><ele>324.0</ele><time>2026-03-29T10:44:30.403Z</time></trkpt><trkpt lat="43.1715282" lon="12.2083893"><ele>324.0</ele><time>2026-03-29T10:44:32.402Z</time></trkpt><trkpt lat="43.1714543" lon="12.2083574"><ele>325.1666666666667</ele><time>2026-03-29T10:44:33.402Z</time></trkpt><trkpt lat="43.1713717" lon="12.2083294"><ele>326.3333333333333</ele><time>2026-03-29T10:44:34.402Z</time></trkpt><trkpt lat="43.1712961" lon="12.2083171"><ele>327.5</ele><time>2026-03-29T10:44:35.401Z</time></trkpt><trkpt lat="43.1712349" lon="12.2082103"><ele>328.66666666666663</ele><time>2026-03-29T10:44:37.401Z</time></trkpt><trkpt lat="43.1712096" lon="12.2081115"><ele>329.8333333333333</ele><time>2026-03-29T10:44:39.402Z</time></trkpt><trkpt lat="43.1711472" lon="12.2080334"><ele>331.0</ele><time>2026-03-29T10:44:40.403Z</time></trkpt><trkpt lat="43.1710904" lon="12.2079641"><ele>334.8333333333333</ele><time>2026-03-29T10:44:41.402Z</time></trkpt><trkpt lat="43.171013" lon="12.2079134"><ele>338.66666666666663</ele><time>2026-03-29T10:44:42.402Z</time></trkpt><trkpt lat="43.1709309" lon="12.2078676"><ele>342.5</ele><time>2026-03-29T10:44:43.402Z</time></trkpt><trkpt lat="43.1708608" lon="12.2078173"><ele>346.3333333333333</ele><time>2026-03-29T10:44:44.403Z</time></trkpt><trkpt lat="43.1707985" lon="12.2077503"><ele>350.1666666666667</ele><time>2026-03-29T10:44:45.402Z</time></trkpt><trkpt lat="43.1707632" lon="12.2076748"><ele>354.0</ele><time>2026-03-29T10:44:46.402Z</time></trkpt><trkpt lat="43.1707376" lon="12.207593"><ele>354.0</ele><time>2026-03-29T10:44:47.402Z</time></trkpt><trkpt lat="43.1707833" lon="12.2075101"><ele>354.0</ele><time>2026-03-29T10:44:50.402Z</time></trkpt><trkpt lat="43.1708973" lon="12.2074842"><ele>354.0</ele><time>2026-03-29T10:44:52.403Z</time></trkpt><trkpt lat="43.1709683" lon="12.2074451"><ele>354.0</ele><time>2026-03-29T10:44:54.403Z</time></trkpt><trkpt lat="43.1710493" lon="12.2073657"><ele>354.0</ele><time>2026-03-29T10:44:56.402Z</time></trkpt><trkpt lat="43.1711071" lon="12.2072953"><ele>354.0</ele><time>2026-03-29T10:44:57.403Z</time></trkpt><trkpt lat="43.17116" lon="12.2072277"><ele>357.0</ele><time>2026-03-29T10:44:58.402Z</time></trkpt><trkpt lat="43.1711969" lon="12.2071505"><ele>360.0</ele><time>2026-03-29T10:44:59.402Z</time></trkpt><trkpt lat="43.1712633" lon="12.2070407"><ele>363.0</ele><time>2026-03-29T10:45:01.402Z</time></trkpt><trkpt lat="43.1713496" lon="12.2069123"><ele>366.0</ele><time>2026-03-29T10:45:03.403Z</time></trkpt><trkpt lat="43.1713851" lon="12.2068032"><ele>369.0</ele><time>2026-03-29T10:45:05.401Z</time></trkpt><trkpt lat="43.1713279" lon="12.2067293"><ele>369.0</ele><time>2026-03-29T10:45:07.402Z</time></trkpt><trkpt lat="43.1712511" lon="12.2066961"><ele>369.0</ele><time>2026-03-29T10:45:09.402Z</time></trkpt><trkpt lat="43.1711975" lon="12.2066474"><ele>369.0</ele><time>2026-03-29T10:45:11.401Z</time></trkpt><trkpt lat="43.1711553" lon="12.2065681"><ele>369.0</ele><time>2026-03-29T10:45:13.403Z</time></trkpt><trkpt lat="43.1711106" lon="12.206493"><ele>369.0</ele><time>2026-03-29T10:45:15.403Z</time></trkpt><trkpt lat="43.171003" lon="12.2064576"><ele>369.0</ele><time>2026-03-29T10:45:17.402Z</time></trkpt><trkpt lat="43.1709117" lon="12.2064113"><ele>373.2</ele><time>2026-03-29T10:45:19.401Z</time></trkpt><trkpt lat="43.1707965" lon="12.2063551"><ele>377.4</ele><time>2026-03-29T10:45:21.403Z</time></trkpt><trkpt lat="43.170741" lon="12.2062717"><ele>381.6</ele><time>2026-03-29T10:45:24.403Z</time></trkpt><trkpt lat="43.1708437" lon="12.2061739"><ele>385.8</ele><time>2026-03-29T10:45:26.401Z</time></trkpt><trkpt lat="43.1709044" lon="12.2061036"><ele>390.0</ele><time>2026-03-29T10:45:27.403Z</time></trkpt><trkpt lat="43.1709784" lon="12.2060189"><ele>390.0</ele><time>2026-03-29T10:45:28.403Z</time></trkpt><trkpt lat="43.1710332" lon="12.2059086"><ele>390.0</ele><time>2026-03-29T10:45:29.403Z</time></trkpt><trkpt lat="43.1710978" lon="12.2058038"><ele>390.0</ele><time>2026-03-29T10:45:30.404Z</time></trkpt><trkpt lat="43.1711844" lon="12.2056655"><ele>390.0</ele><time>2026-03-29T10:45:31.401Z</time></trkpt><trkpt lat="43.1712638" lon="12.2055225"><ele>392.8</ele><time>2026-03-29T10:45:32.402Z</time></trkpt><trkpt lat="43.1713351" lon="12.2053784"><ele>395.6</ele><time>2026-03-29T10:45:33.404Z</time></trkpt><trkpt lat="43.1713765" lon="12.2052415"><ele>398.4</ele><time>2026-03-29T10:45:34.401Z</time></trkpt><trkpt lat="43.171421" lon="12.2051433"><ele>401.2</ele><time>2026-03-29T10:45:35.402Z</time></trkpt><trkpt lat="43.1715019" lon="12.2050283"><ele>404.0</ele><time>2026-03-29T10:45:37.404Z</time></trkpt><trkpt lat="43.1715742" lon="12.2050085"><ele>403.99999999999994</ele><time>2026-03-29T10:45:38.402Z</time></trkpt><trkpt lat="43.1716353" lon="12.2049783"><ele>404.0</ele><time>2026-03-29T10:45:39.402Z</time></trkpt><trkpt lat="43.1717155" lon="12.2049465"><ele>404.0</ele><time>2026-03-29T10:45:40.403Z</time></trkpt><trkpt lat="43.1718058" lon="12.2048999"><ele>404.0</ele><time>2026-03-29T10:45:41.404Z</time></trkpt><trkpt lat="43.1719024" lon="12.2048343"><ele>403.99999999999994</ele><time>2026-03-29T10:45:42.401Z</time></trkpt><trkpt lat="43.1719838" lon="12.2047875"><ele>404.0</ele><time>2026-03-29T10:45:43.404Z</time></trkpt><trkpt lat="43.1720894" lon="12.2047549"><ele>404.66666666666663</ele><time>2026-03-29T10:45:45.402Z</time></trkpt><trkpt lat="43.1721515" lon="12.2047254"><ele>405.3333333333333</ele><time>2026-03-29T10:45:46.404Z</time></trkpt><trkpt lat="43.1722121" lon="12.204693"><ele>406.0</ele><time>2026-03-29T10:45:47.402Z</time></trkpt><trkpt lat="43.1722744" lon="12.2046512"><ele>406.66666666666663</ele><time>2026-03-29T10:45:48.402Z</time></trkpt><trkpt lat="43.1723501" lon="12.2045342"><ele>407.3333333333333</ele><time>2026-03-29T10:45:50.403Z</time></trkpt><trkpt lat="43.1724286" lon="12.204399"><ele>408.0</ele><time>2026-03-29T10:45:52.403Z</time></trkpt><trkpt lat="43.1725004" lon="12.2042382"><ele>408.0</ele><time>2026-03-29T10:45:53.403Z</time></trkpt><trkpt lat="43.1725477" lon="12.2041187"><ele>408.0</ele><time>2026-03-29T10:45:54.402Z</time></trkpt><trkpt lat="43.1725979" lon="12.2039897"><ele>408.0</ele><time>2026-03-29T10:45:55.402Z</time></trkpt><trkpt lat="43.1726369" lon="12.2038532"><ele>408.0</ele><time>2026-03-29T10:45:56.403Z</time></trkpt><trkpt lat="43.1726813" lon="12.2037395"><ele>408.0</ele><time>2026-03-29T10:45:57.402Z</time></trkpt><trkpt lat="43.1727163" lon="12.203641"><ele>411.79999999999995</ele><time>2026-03-29T10:45:58.402Z</time></trkpt><trkpt lat="43.1728064" lon="12.2035413"><ele>415.6</ele><time>2026-03-29T10:46:00.403Z</time></trkpt><trkpt lat="43.1728537" lon="12.203421"><ele>419.40000000000003</ele><time>2026-03-29T10:46:02.402Z</time></trkpt><trkpt lat="43.1728838" lon="12.2033444"><ele>423.20000000000005</ele><time>2026-03-29T10:46:03.402Z</time></trkpt><trkpt lat="43.1729158" lon="12.2031734"><ele>427.0</ele><time>2026-03-29T10:46:05.403Z</time></trkpt><trkpt lat="43.1729269" lon="12.2030805"><ele>429.33333333333337</ele><time>2026-03-29T10:46:06.404Z</time></trkpt><trkpt lat="43.1729191" lon="12.2029827"><ele>431.6666666666667</ele><time>2026-03-29T10:46:07.403Z</time></trkpt><trkpt lat="43.1729298" lon="12.2028552"><ele>434.0</ele><time>2026-03-29T10:46:09.403Z</time></trkpt><trkpt lat="43.1729645" lon="12.2027589"><ele>436.33333333333337</ele><time>2026-03-29T10:46:10.402Z</time></trkpt><trkpt lat="43.1729924" lon="12.2026778"><ele>438.6666666666667</ele><time>2026-03-29T10:46:11.402Z</time></trkpt><trkpt lat="43.173043" lon="12.2025584"><ele>441.0</ele><time>2026-03-29T10:46:12.403Z</time></trkpt><trkpt lat="43.1730834" lon="12.2024457"><ele>441.0</ele><time>2026-03-29T10:46:13.402Z</time></trkpt><trkpt lat="43.1731206" lon="12.2023373"><ele>441.0</ele><time>2026-03-29T10:46:14.402Z</time></trkpt><trkpt lat="43.1731477" lon="12.2021545"><ele>441.0</ele><time>2026-03-29T10:46:16.402Z</time></trkpt><trkpt lat="43.1731633" lon="12.202002"><ele>441.0</ele><time>2026-03-29T10:46:18.402Z</time></trkpt><trkpt lat="43.1731352" lon="12.2018917"><ele>441.0</ele><time>2026-03-29T10:46:19.402Z</time></trkpt><trkpt lat="43.1730856" lon="12.2017494"><ele>440.20000000000005</ele><time>2026-03-29T10:46:20.403Z</time></trkpt><trkpt lat="43.1730629" lon="12.2016045"><ele>439.40000000000003</ele><time>2026-03-29T10:46:21.403Z</time></trkpt><trkpt lat="43.1730468" lon="12.2014659"><ele>438.6</ele><time>2026-03-29T10:46:22.402Z</time></trkpt><trkpt lat="43.1730066" lon="12.2013492"><ele>437.8</ele><time>2026-03-29T10:46:23.401Z</time></trkpt><trkpt lat="43.1729688" lon="12.2012445"><ele>437.0</ele><time>2026-03-29T10:46:24.402Z</time></trkpt><trkpt lat="43.1729283" lon="12.2011603"><ele>434.20000000000005</ele><time>2026-03-29T10:46:25.403Z</time></trkpt><trkpt lat="43.1728691" lon="12.2010096"><ele>431.40000000000003</ele><time>2026-03-29T10:46:27.403Z</time></trkpt><trkpt lat="43.1728298" lon="12.2008851"><ele>428.6</ele><time>2026-03-29T10:46:29.403Z</time></trkpt><trkpt lat="43.1727529" lon="12.2008024"><ele>425.79999999999995</ele><time>2026-03-29T10:46:31.403Z</time></trkpt><trkpt lat="43.1726818" lon="12.2006961"><ele>423.0</ele><time>2026-03-29T10:46:33.403Z</time></trkpt><trkpt lat="43.1726418" lon="12.2006272"><ele>422.4285714285714</ele><time>2026-03-29T10:46:34.402Z</time></trkpt><trkpt lat="43.1726043" lon="12.2005423"><ele>421.8571428571429</ele><time>2026-03-29T10:46:35.403Z</time></trkpt><trkpt lat="43.1725659" lon="12.2004711"><ele>421.2857142857143</ele><time>2026-03-29T10:46:36.402Z</time></trkpt><trkpt lat="43.1725251" lon="12.2003885"><ele>420.71428571428567</ele><time>2026-03-29T10:46:37.403Z</time></trkpt><trkpt lat="43.1724779" lon="12.2003183"><ele>420.1428571428571</ele><time>2026-03-29T10:46:38.401Z</time></trkpt><trkpt lat="43.1724296" lon="12.2002535"><ele>419.57142857142856</ele><time>2026-03-29T10:46:39.401Z</time></trkpt><trkpt lat="43.172348" lon="12.2001726"><ele>419.0</ele><time>2026-03-29T10:46:41.403Z</time></trkpt><trkpt lat="43.1722216" lon="12.2001821"><ele>418.99999999999994</ele><time>2026-03-29T10:46:43.402Z</time></trkpt><trkpt lat="43.1721511" lon="12.2001695"><ele>419.0</ele><time>2026-03-29T10:46:44.403Z</time></trkpt><trkpt lat="43.1720561" lon="12.2001889"><ele>419.0</ele><time>2026-03-29T10:46:46.403Z</time></trkpt><trkpt lat="43.1719807" lon="12.2002424"><ele>419.0</ele><time>2026-03-29T10:46:48.401Z</time></trkpt><trkpt lat="43.1718866" lon="12.2002768"><ele>418.99999999999994</ele><time>2026-03-29T10:46:50.402Z</time></trkpt><trkpt lat="43.1718134" lon="12.2003143"><ele>419.0</ele><time>2026-03-29T10:46:52.402Z</time></trkpt><trkpt lat="43.1717432" lon="12.2003522"><ele>418.99999999999994</ele><time>2026-03-29T10:46:54.402Z</time></trkpt><trkpt lat="43.1716693" lon="12.2003946"><ele>419.0</ele><time>2026-03-29T10:46:56.402Z</time></trkpt><trkpt lat="43.1715743" lon="12.200438"><ele>419.0</ele><time>2026-03-29T10:46:58.403Z</time></trkpt><trkpt lat="43.1714947" lon="12.200482"><ele>419.0</ele><time>2026-03-29T10:47:00.402Z</time></trkpt><trkpt lat="43.1714125" lon="12.200549"><ele>418.99999999999994</ele><time>2026-03-29T10:47:02.402Z</time></trkpt><trkpt lat="43.1713323" lon="12.200568"><ele>419.0</ele><time>2026-03-29T10:47:04.401Z</time></trkpt><trkpt lat="43.1712404" lon="12.2005892"><ele>421.0</ele><time>2026-03-29T10:47:07.402Z</time></trkpt><trkpt lat="43.171174" lon="12.2005846"><ele>423.0</ele><time>2026-03-29T10:47:11.402Z</time></trkpt><trkpt lat="43.1710932" lon="12.2006293"><ele>425.0</ele><time>2026-03-29T10:47:13.403Z</time></trkpt><trkpt lat="43.1710071" lon="12.2007093"><ele>427.0</ele><time>2026-03-29T10:47:15.402Z</time></trkpt><trkpt lat="43.1708906" lon="12.2007458"><ele>429.0</ele><time>2026-03-29T10:47:17.404Z</time></trkpt><trkpt lat="43.170819" lon="12.2007758"><ele>431.5</ele><time>2026-03-29T10:47:18.404Z</time></trkpt><trkpt lat="43.1707569" lon="12.2008075"><ele>434.0</ele><time>2026-03-29T10:47:19.403Z</time></trkpt><trkpt lat="43.1706586" lon="12.2008822"><ele>436.5</ele><time>2026-03-29T10:47:21.401Z</time></trkpt><trkpt lat="43.1705973" lon="12.2009395"><ele>439.0</ele><time>2026-03-29T10:47:22.403Z</time></trkpt><trkpt lat="43.1705327" lon="12.2009807"><ele>441.5</ele><time>2026-03-29T10:47:23.402Z</time></trkpt><trkpt lat="43.1704644" lon="12.2009872"><ele>444.0</ele><time>2026-03-29T10:47:24.402Z</time></trkpt><trkpt lat="43.1703959" lon="12.2009977"><ele>444.5</ele><time>2026-03-29T10:47:25.402Z</time></trkpt><trkpt lat="43.1703389" lon="12.2010448"><ele>445.0</ele><time>2026-03-29T10:47:26.402Z</time></trkpt><trkpt lat="43.1702527" lon="12.2011153"><ele>445.5</ele><time>2026-03-29T10:47:28.403Z</time></trkpt><trkpt lat="43.1701867" lon="12.2011273"><ele>446.0</ele><time>2026-03-29T10:47:29.402Z</time></trkpt><trkpt lat="43.1701082" lon="12.2011414"><ele>446.5</ele><time>2026-03-29T10:47:30.403Z</time></trkpt><trkpt lat="43.1700258" lon="12.2011681"><ele>447.0</ele><time>2026-03-29T10:47:31.403Z</time></trkpt><trkpt lat="43.169957" lon="12.2012067"><ele>447.0</ele><time>2026-03-29T10:47:32.403Z</time></trkpt><trkpt lat="43.1698998" lon="12.201244"><ele>447.0</ele><time>2026-03-29T10:47:33.401Z</time></trkpt><trkpt lat="43.1697727" lon="12.2012321"><ele>447.0</ele><time>2026-03-29T10:47:35.403Z</time></trkpt><trkpt lat="43.169702" lon="12.2012039"><ele>447.0</ele><time>2026-03-29T10:47:36.403Z</time></trkpt><trkpt lat="43.1696307" lon="12.2011982"><ele>447.0</ele><time>2026-03-29T10:47:37.402Z</time></trkpt><trkpt lat="43.1695556" lon="12.2012309"><ele>447.0</ele><time>2026-03-29T10:47:38.403Z</time></trkpt><trkpt lat="43.1694836" lon="12.2012718"><ele>447.0</ele><time>2026-03-29T10:47:39.401Z</time></trkpt><trkpt lat="43.1694079" lon="12.2012932"><ele>447.0</ele><time>2026-03-29T10:47:40.403Z</time></trkpt><trkpt lat="43.1693218" lon="12.2012939"><ele>447.0</ele><time>2026-03-29T10:47:41.402Z</time></trkpt><trkpt lat="43.1692317" lon="12.2012901"><ele>447.0</ele><time>2026-03-29T10:47:42.403Z</time></trkpt><trkpt lat="43.1691359" lon="12.2012712"><ele>447.0</ele><time>2026-03-29T10:47:43.403Z</time></trkpt><trkpt lat="43.1690447" lon="12.2012494"><ele>447.0</ele><time>2026-03-29T10:47:44.402Z</time></trkpt><trkpt lat="43.1689555" lon="12.2012392"><ele>447.0</ele><time>2026-03-29T10:47:45.403Z</time></trkpt><trkpt lat="43.1688646" lon="12.2012334"><ele>447.00000000000006</ele><time>2026-03-29T10:47:46.404Z</time></trkpt><trkpt lat="43.1687708" lon="12.2012244"><ele>447.00000000000006</ele><time>2026-03-29T10:47:47.403Z</time></trkpt><trkpt lat="43.1686693" lon="12.2012096"><ele>447.0</ele><time>2026-03-29T10:47:48.403Z</time></trkpt><trkpt lat="43.1685687" lon="12.2011888"><ele>447.0</ele><time>2026-03-29T10:47:49.403Z</time></trkpt><trkpt lat="43.1684608" lon="12.2011697"><ele>447.0</ele><time>2026-03-29T10:47:50.403Z</time></trkpt><trkpt lat="43.1683526" lon="12.2011507"><ele>447.00000000000006</ele><time>2026-03-29T10:47:51.404Z</time></trkpt><trkpt lat="43.168253" lon="12.2011245"><ele>447.00000000000006</ele><time>2026-03-29T10:47:52.402Z</time></trkpt><trkpt lat="43.1681524" lon="12.2011056"><ele>447.0</ele><time>2026-03-29T10:47:53.403Z</time></trkpt><trkpt lat="43.1680584" lon="12.2010992"><ele>447.0</ele><time>2026-03-29T10:47:54.403Z</time></trkpt><trkpt lat="43.1679813" lon="12.2010966"><ele>446.8</ele><time>2026-03-29T10:47:55.402Z</time></trkpt><trkpt lat="43.1678658" lon="12.2010885"><ele>446.6</ele><time>2026-03-29T10:47:57.403Z</time></trkpt><trkpt lat="43.1677482" lon="12.2010357"><ele>446.40000000000003</ele><time>2026-03-29T10:47:59.401Z</time></trkpt><trkpt lat="43.1676623" lon="12.2009974"><ele>446.20000000000005</ele><time>2026-03-29T10:48:00.402Z</time></trkpt><trkpt lat="43.1675634" lon="12.2009602"><ele>446.0</ele><time>2026-03-29T10:48:01.403Z</time></trkpt><trkpt lat="43.1674646" lon="12.2009274"><ele>446.0</ele><time>2026-03-29T10:48:02.402Z</time></trkpt><trkpt lat="43.1673658" lon="12.2008838"><ele>446.0</ele><time>2026-03-29T10:48:03.402Z</time></trkpt><trkpt lat="43.1672733" lon="12.2008469"><ele>446.0</ele><time>2026-03-29T10:48:04.402Z</time></trkpt><trkpt lat="43.167183" lon="12.2008199"><ele>446.0</ele><time>2026-03-29T10:48:05.402Z</time></trkpt><trkpt lat="43.1670968" lon="12.2007979"><ele>446.0</ele><time>2026-03-29T10:48:06.402Z</time></trkpt><trkpt lat="43.1670262" lon="12.2007943"><ele>445.4</ele><time>2026-03-29T10:48:07.404Z</time></trkpt><trkpt lat="43.1668997" lon="12.200779"><ele>444.8</ele><time>2026-03-29T10:48:09.403Z</time></trkpt><trkpt lat="43.1668239" lon="12.2007506"><ele>444.19999999999993</ele><time>2026-03-29T10:48:10.402Z</time></trkpt><trkpt lat="43.1667432" lon="12.2007052"><ele>443.59999999999997</ele><time>2026-03-29T10:48:11.403Z</time></trkpt><trkpt lat="43.1666646" lon="12.2006654"><ele>443.0</ele><time>2026-03-29T10:48:12.403Z</time></trkpt><trkpt lat="43.1665882" lon="12.200662"><ele>441.4</ele><time>2026-03-29T10:48:13.403Z</time></trkpt><trkpt lat="43.1664998" lon="12.2006757"><ele>439.79999999999995</ele><time>2026-03-29T10:48:14.402Z</time></trkpt><trkpt lat="43.1663943" lon="12.2007175"><ele>438.2</ele><time>2026-03-29T10:48:15.402Z</time></trkpt><trkpt lat="43.1662786" lon="12.2007639"><ele>436.6</ele><time>2026-03-29T10:48:16.403Z</time></trkpt><trkpt lat="43.166164" lon="12.2008046"><ele>435.0</ele><time>2026-03-29T10:48:17.403Z</time></trkpt><trkpt lat="43.1660499" lon="12.2008382"><ele>435.0</ele><time>2026-03-29T10:48:18.403Z</time></trkpt><trkpt lat="43.1659468" lon="12.2008678"><ele>435.0</ele><time>2026-03-29T10:48:19.401Z</time></trkpt><trkpt lat="43.1658483" lon="12.2008972"><ele>435.0</ele><time>2026-03-29T10:48:20.402Z</time></trkpt><trkpt lat="43.1657457" lon="12.2009317"><ele>435.0</ele><time>2026-03-29T10:48:21.404Z</time></trkpt><trkpt lat="43.1656408" lon="12.2009596"><ele>435.0</ele><time>2026-03-29T10:48:22.403Z</time></trkpt><trkpt lat="43.1655455" lon="12.2009892"><ele>433.6</ele><time>2026-03-29T10:48:23.403Z</time></trkpt><trkpt lat="43.1654475" lon="12.2010101"><ele>432.2</ele><time>2026-03-29T10:48:24.404Z</time></trkpt><trkpt lat="43.1653436" lon="12.2010386"><ele>430.79999999999995</ele><time>2026-03-29T10:48:25.402Z</time></trkpt><trkpt lat="43.1652387" lon="12.2010645"><ele>429.4</ele><time>2026-03-29T10:48:26.402Z</time></trkpt><trkpt lat="43.165138" lon="12.2010923"><ele>428.0</ele><time>2026-03-29T10:48:27.403Z</time></trkpt><trkpt lat="43.1650388" lon="12.2011224"><ele>428.0</ele><time>2026-03-29T10:48:28.404Z</time></trkpt><trkpt lat="43.1649467" lon="12.2011523"><ele>427.99999999999994</ele><time>2026-03-29T10:48:29.402Z</time></trkpt><trkpt lat="43.1648547" lon="12.2011735"><ele>427.99999999999994</ele><time>2026-03-29T10:48:30.403Z</time></trkpt><trkpt lat="43.1647564" lon="12.2012034"><ele>428.0</ele><time>2026-03-29T10:48:31.404Z</time></trkpt><trkpt lat="43.1646658" lon="12.2012312"><ele>428.0</ele><time>2026-03-29T10:48:32.403Z</time></trkpt><trkpt lat="43.1645736" lon="12.2012544"><ele>426.16666666666663</ele><time>2026-03-29T10:48:33.402Z</time></trkpt><trkpt lat="43.1644861" lon="12.2012753"><ele>424.3333333333333</ele><time>2026-03-29T10:48:34.403Z</time></trkpt><trkpt lat="43.1644154" lon="12.2012947"><ele>422.5</ele><time>2026-03-29T10:48:35.402Z</time></trkpt><trkpt lat="43.1643341" lon="12.2013509"><ele>420.66666666666663</ele><time>2026-03-29T10:48:37.404Z</time></trkpt><trkpt lat="43.1643376" lon="12.20147"><ele>418.8333333333333</ele><time>2026-03-29T10:48:39.401Z</time></trkpt><trkpt lat="43.1643262" lon="12.2015708"><ele>417.0</ele><time>2026-03-29T10:48:41.402Z</time></trkpt><trkpt lat="43.1643089" lon="12.2016671"><ele>415.8</ele><time>2026-03-29T10:48:43.404Z</time></trkpt><trkpt lat="43.1643219" lon="12.201777"><ele>414.6</ele><time>2026-03-29T10:48:45.403Z</time></trkpt><trkpt lat="43.1642446" lon="12.2018537"><ele>413.40000000000003</ele><time>2026-03-29T10:48:48.403Z</time></trkpt><trkpt lat="43.1641195" lon="12.2018267"><ele>412.20000000000005</ele><time>2026-03-29T10:48:50.403Z</time></trkpt><trkpt lat="43.1640485" lon="12.2018176"><ele>411.0</ele><time>2026-03-29T10:48:51.403Z</time></trkpt><trkpt lat="43.1639728" lon="12.2017863"><ele>409.6</ele><time>2026-03-29T10:48:52.402Z</time></trkpt><trkpt lat="43.163896" lon="12.2017291"><ele>408.20000000000005</ele><time>2026-03-29T10:48:53.403Z</time></trkpt><trkpt lat="43.1638138" lon="12.2016756"><ele>406.79999999999995</ele><time>2026-03-29T10:48:54.404Z</time></trkpt><trkpt lat="43.1637109" lon="12.2016438"><ele>405.4</ele><time>2026-03-29T10:48:55.402Z</time></trkpt><trkpt lat="43.1636053" lon="12.2016226"><ele>404.0</ele><time>2026-03-29T10:48:56.404Z</time></trkpt><trkpt lat="43.1635115" lon="12.2016504"><ele>404.0</ele><time>2026-03-29T10:48:57.403Z</time></trkpt><trkpt lat="43.1633958" lon="12.2016872"><ele>404.0</ele><time>2026-03-29T10:48:58.402Z</time></trkpt><trkpt lat="43.1632946" lon="12.2017049"><ele>404.0</ele><time>2026-03-29T10:48:59.404Z</time></trkpt><trkpt lat="43.1631907" lon="12.2017074"><ele>404.0</ele><time>2026-03-29T10:49:00.402Z</time></trkpt><trkpt lat="43.1630866" lon="12.2016968"><ele>404.0</ele><time>2026-03-29T10:49:01.403Z</time></trkpt><trkpt lat="43.1630042" lon="12.2016797"><ele>404.4</ele><time>2026-03-29T10:49:02.402Z</time></trkpt><trkpt lat="43.1629095" lon="12.2016766"><ele>404.79999999999995</ele><time>2026-03-29T10:49:03.402Z</time></trkpt><trkpt lat="43.1628018" lon="12.2016731"><ele>405.20000000000005</ele><time>2026-03-29T10:49:04.401Z</time></trkpt><trkpt lat="43.1626944" lon="12.2016785"><ele>405.6</ele><time>2026-03-29T10:49:05.402Z</time></trkpt><trkpt lat="43.1626047" lon="12.2016999"><ele>406.0</ele><time>2026-03-29T10:49:06.402Z</time></trkpt><trkpt lat="43.1625128" lon="12.2017401"><ele>406.0</ele><time>2026-03-29T10:49:07.403Z</time></trkpt><trkpt lat="43.1624205" lon="12.2017831"><ele>406.0</ele><time>2026-03-29T10:49:08.403Z</time></trkpt><trkpt lat="43.1623344" lon="12.2018278"><ele>406.0</ele><time>2026-03-29T10:49:09.403Z</time></trkpt><trkpt lat="43.1622359" lon="12.2018519"><ele>406.0</ele><time>2026-03-29T10:49:10.403Z</time></trkpt><trkpt lat="43.1621466" lon="12.2018735"><ele>406.0</ele><time>2026-03-29T10:49:11.402Z</time></trkpt><trkpt lat="43.1620609" lon="12.2018788"><ele>404.4</ele><time>2026-03-29T10:49:12.404Z</time></trkpt><trkpt lat="43.1619747" lon="12.2019154"><ele>402.8</ele><time>2026-03-29T10:49:13.403Z</time></trkpt><trkpt lat="43.161906" lon="12.2019804"><ele>401.2</ele><time>2026-03-29T10:49:14.404Z</time></trkpt><trkpt lat="43.1618252" lon="12.2020708"><ele>399.59999999999997</ele><time>2026-03-29T10:49:15.403Z</time></trkpt><trkpt lat="43.1617419" lon="12.2021232"><ele>398.0</ele><time>2026-03-29T10:49:16.403Z</time></trkpt><trkpt lat="43.1616433" lon="12.2021963"><ele>398.0</ele><time>2026-03-29T10:49:17.403Z</time></trkpt><trkpt lat="43.1615415" lon="12.2022708"><ele>398.0</ele><time>2026-03-29T10:49:18.401Z</time></trkpt><trkpt lat="43.1614397" lon="12.2023345"><ele>398.0</ele><time>2026-03-29T10:49:19.403Z</time></trkpt><trkpt lat="43.1613354" lon="12.2023923"><ele>398.0</ele><time>2026-03-29T10:49:20.403Z</time></trkpt><trkpt lat="43.1612333" lon="12.2024575"><ele>398.79999999999995</ele><time>2026-03-29T10:49:21.403Z</time></trkpt><trkpt lat="43.1611283" lon="12.2025312"><ele>399.6</ele><time>2026-03-29T10:49:22.403Z</time></trkpt><trkpt lat="43.1610521" lon="12.2025932"><ele>400.4</ele><time>2026-03-29T10:49:23.403Z</time></trkpt><trkpt lat="43.1609643" lon="12.2026582"><ele>401.20000000000005</ele><time>2026-03-29T10:49:24.403Z</time></trkpt><trkpt lat="43.1608683" lon="12.2027101"><ele>402.0</ele><time>2026-03-29T10:49:25.403Z</time></trkpt><trkpt lat="43.1607769" lon="12.202769"><ele>401.40000000000003</ele><time>2026-03-29T10:49:26.404Z</time></trkpt><trkpt lat="43.1606902" lon="12.2028521"><ele>400.8</ele><time>2026-03-29T10:49:27.402Z</time></trkpt><trkpt lat="43.1606061" lon="12.2029468"><ele>400.2</ele><time>2026-03-29T10:49:28.401Z</time></trkpt><trkpt lat="43.1605177" lon="12.2030291"><ele>399.6</ele><time>2026-03-29T10:49:29.404Z</time></trkpt><trkpt lat="43.1604305" lon="12.2030865"><ele>399.0</ele><time>2026-03-29T10:49:30.402Z</time></trkpt><trkpt lat="43.1603338" lon="12.2031214"><ele>400.79999999999995</ele><time>2026-03-29T10:49:31.404Z</time></trkpt><trkpt lat="43.1602497" lon="12.2031668"><ele>402.59999999999997</ele><time>2026-03-29T10:49:32.402Z</time></trkpt><trkpt lat="43.1601661" lon="12.2032405"><ele>404.4</ele><time>2026-03-29T10:49:33.403Z</time></trkpt><trkpt lat="43.1600826" lon="12.2033152"><ele>406.2</ele><time>2026-03-29T10:49:34.403Z</time></trkpt><trkpt lat="43.1599835" lon="12.2034117"><ele>408.0</ele><time>2026-03-29T10:49:35.402Z</time></trkpt><trkpt lat="43.1598899" lon="12.2035057"><ele>406.25</ele><time>2026-03-29T10:49:36.403Z</time></trkpt><trkpt lat="43.1597804" lon="12.2035859"><ele>404.5</ele><time>2026-03-29T10:49:37.402Z</time></trkpt><trkpt lat="43.1596738" lon="12.2036406"><ele>402.75</ele><time>2026-03-29T10:49:38.402Z</time></trkpt><trkpt lat="43.1595581" lon="12.2036868"><ele>401.0</ele><time>2026-03-29T10:49:39.404Z</time></trkpt><trkpt lat="43.15944" lon="12.203732"><ele>401.0</ele><time>2026-03-29T10:49:40.403Z</time></trkpt><trkpt lat="43.1593214" lon="12.2037441"><ele>401.0</ele><time>2026-03-29T10:49:41.403Z</time></trkpt><trkpt lat="43.15919" lon="12.2037636"><ele>401.0</ele><time>2026-03-29T10:49:42.404Z</time></trkpt><trkpt lat="43.1590706" lon="12.203773"><ele>401.0</ele><time>2026-03-29T10:49:43.403Z</time></trkpt><trkpt lat="43.1589451" lon="12.2037779"><ele>400.8</ele><time>2026-03-29T10:49:44.402Z</time></trkpt><trkpt lat="43.1588318" lon="12.2037839"><ele>400.6</ele><time>2026-03-29T10:49:45.404Z</time></trkpt><trkpt lat="43.1587221" lon="12.2037885"><ele>400.4</ele><time>2026-03-29T10:49:46.403Z</time></trkpt><trkpt lat="43.1586119" lon="12.2037966"><ele>400.2</ele><time>2026-03-29T10:49:47.403Z</time></trkpt><trkpt lat="43.1585153" lon="12.2038165"><ele>400.0</ele><time>2026-03-29T10:49:48.402Z</time></trkpt><trkpt lat="43.158417" lon="12.2038549"><ele>400.0</ele><time>2026-03-29T10:49:49.404Z</time></trkpt><trkpt lat="43.1583151" lon="12.2038964"><ele>400.0</ele><time>2026-03-29T10:49:50.403Z</time></trkpt><trkpt lat="43.1581817" lon="12.2039484"><ele>400.0</ele><time>2026-03-29T10:49:51.403Z</time></trkpt><trkpt lat="43.158055" lon="12.2040127"><ele>400.0</ele><time>2026-03-29T10:49:52.402Z</time></trkpt><trkpt lat="43.1579259" lon="12.2040521"><ele>403.0</ele><time>2026-03-29T10:49:53.404Z</time></trkpt><trkpt lat="43.157805" lon="12.2041013"><ele>406.0</ele><time>2026-03-29T10:49:54.403Z</time></trkpt><trkpt lat="43.1576866" lon="12.2041399"><ele>409.0</ele><time>2026-03-29T10:49:55.403Z</time></trkpt><trkpt lat="43.1575816" lon="12.2042037"><ele>412.0</ele><time>2026-03-29T10:49:56.403Z</time></trkpt><trkpt lat="43.1574586" lon="12.2042157"><ele>413.75</ele><time>2026-03-29T10:49:57.404Z</time></trkpt><trkpt lat="43.1573371" lon="12.2042486"><ele>415.5</ele><time>2026-03-29T10:49:58.403Z</time></trkpt><trkpt lat="43.1572131" lon="12.2042684"><ele>417.25</ele><time>2026-03-29T10:49:59.403Z</time></trkpt><trkpt lat="43.1570816" lon="12.204298"><ele>419.0</ele><time>2026-03-29T10:50:00.403Z</time></trkpt><trkpt lat="43.1569659" lon="12.2042984"><ele>419.0</ele><time>2026-03-29T10:50:01.403Z</time></trkpt><trkpt lat="43.1568487" lon="12.2042802"><ele>419.0</ele><time>2026-03-29T10:50:02.404Z</time></trkpt><trkpt lat="43.1567439" lon="12.2042303"><ele>419.0</ele><time>2026-03-29T10:50:03.403Z</time></trkpt><trkpt lat="43.1566391" lon="12.2041803"><ele>419.0</ele><time>2026-03-29T10:50:04.403Z</time></trkpt><trkpt lat="43.1565544" lon="12.2040873"><ele>419.0</ele><time>2026-03-29T10:50:05.404Z</time></trkpt><trkpt lat="43.156463" lon="12.2040114"><ele>418.0</ele><time>2026-03-29T10:50:06.403Z</time></trkpt><trkpt lat="43.1563594" lon="12.2039361"><ele>417.0</ele><time>2026-03-29T10:50:07.404Z</time></trkpt><trkpt lat="43.1562393" lon="12.2038528"><ele>416.0</ele><time>2026-03-29T10:50:08.403Z</time></trkpt><trkpt lat="43.1561205" lon="12.2037711"><ele>415.0</ele><time>2026-03-29T10:50:09.404Z</time></trkpt><trkpt lat="43.156011" lon="12.2036963"><ele>415.0</ele><time>2026-03-29T10:50:10.402Z</time></trkpt><trkpt lat="43.155904" lon="12.2036115"><ele>415.0</ele><time>2026-03-29T10:50:11.403Z</time></trkpt><trkpt lat="43.1557975" lon="12.2035147"><ele>415.0</ele><time>2026-03-29T10:50:12.401Z</time></trkpt><trkpt lat="43.1557053" lon="12.2034014"><ele>415.0</ele><time>2026-03-29T10:50:13.404Z</time></trkpt><trkpt lat="43.155608" lon="12.2032851"><ele>413.25</ele><time>2026-03-29T10:50:14.402Z</time></trkpt><trkpt lat="43.1555206" lon="12.2031614"><ele>411.5</ele><time>2026-03-29T10:50:15.401Z</time></trkpt><trkpt lat="43.1554355" lon="12.2030339"><ele>409.75</ele><time>2026-03-29T10:50:16.403Z</time></trkpt><trkpt lat="43.1553491" lon="12.2029122"><ele>408.0</ele><time>2026-03-29T10:50:17.402Z</time></trkpt><trkpt lat="43.1552608" lon="12.2027946"><ele>408.0</ele><time>2026-03-29T10:50:18.402Z</time></trkpt><trkpt lat="43.1551819" lon="12.202687"><ele>408.0</ele><time>2026-03-29T10:50:19.404Z</time></trkpt><trkpt lat="43.1551081" lon="12.2025668"><ele>408.0</ele><time>2026-03-29T10:50:20.403Z</time></trkpt><trkpt lat="43.1550448" lon="12.202431"><ele>408.0</ele><time>2026-03-29T10:50:21.403Z</time></trkpt><trkpt lat="43.1549687" lon="12.2022988"><ele>408.25</ele><time>2026-03-29T10:50:22.403Z</time></trkpt><trkpt lat="43.1548925" lon="12.2021712"><ele>408.5</ele><time>2026-03-29T10:50:23.403Z</time></trkpt><trkpt lat="43.1548098" lon="12.2020546"><ele>408.75</ele><time>2026-03-29T10:50:24.404Z</time></trkpt><trkpt lat="43.1547149" lon="12.2019258"><ele>409.0</ele><time>2026-03-29T10:50:25.403Z</time></trkpt><trkpt lat="43.154619" lon="12.2018165"><ele>409.4</ele><time>2026-03-29T10:50:26.404Z</time></trkpt><trkpt lat="43.1545233" lon="12.2017173"><ele>409.79999999999995</ele><time>2026-03-29T10:50:27.402Z</time></trkpt><trkpt lat="43.1544307" lon="12.2016208"><ele>410.20000000000005</ele><time>2026-03-29T10:50:28.403Z</time></trkpt><trkpt lat="43.1543395" lon="12.2015243"><ele>410.6</ele><time>2026-03-29T10:50:29.404Z</time></trkpt><trkpt lat="43.1542546" lon="12.2014647"><ele>411.0</ele><time>2026-03-29T10:50:30.403Z</time></trkpt><trkpt lat="43.1541754" lon="12.201426"><ele>410.20000000000005</ele><time>2026-03-29T10:50:31.403Z</time></trkpt><trkpt lat="43.1541091" lon="12.2014313"><ele>409.40000000000003</ele><time>2026-03-29T10:50:32.402Z</time></trkpt><trkpt lat="43.154021" lon="12.2014698"><ele>408.6</ele><time>2026-03-29T10:50:34.402Z</time></trkpt><trkpt lat="43.1539084" lon="12.2014847"><ele>407.8</ele><time>2026-03-29T10:50:36.403Z</time></trkpt><trkpt lat="43.1538111" lon="12.2014787"><ele>407.0</ele><time>2026-03-29T10:50:37.404Z</time></trkpt><trkpt lat="43.15371" lon="12.2014722"><ele>409.0</ele><time>2026-03-29T10:50:38.403Z</time></trkpt><trkpt lat="43.153608" lon="12.201467"><ele>411.0</ele><time>2026-03-29T10:50:39.404Z</time></trkpt><trkpt lat="43.1534766" lon="12.2014141"><ele>413.0</ele><time>2026-03-29T10:50:40.403Z</time></trkpt><trkpt lat="43.1533467" lon="12.2013645"><ele>415.0</ele><time>2026-03-29T10:50:41.403Z</time></trkpt><trkpt lat="43.1532232" lon="12.2013026"><ele>416.25</ele><time>2026-03-29T10:50:42.404Z</time></trkpt><trkpt lat="43.1530941" lon="12.2012377"><ele>417.5</ele><time>2026-03-29T10:50:43.403Z</time></trkpt><trkpt lat="43.1529717" lon="12.2011951"><ele>418.75</ele><time>2026-03-29T10:50:44.403Z</time></trkpt><trkpt lat="43.152854" lon="12.2011662"><ele>420.0</ele><time>2026-03-29T10:50:45.403Z</time></trkpt><trkpt lat="43.1527311" lon="12.2011512"><ele>420.0</ele><time>2026-03-29T10:50:46.402Z</time></trkpt><trkpt lat="43.1525956" lon="12.201169"><ele>420.0</ele><time>2026-03-29T10:50:47.403Z</time></trkpt><trkpt lat="43.152479" lon="12.2011716"><ele>420.0</ele><time>2026-03-29T10:50:48.402Z</time></trkpt><trkpt lat="43.1523598" lon="12.2011593"><ele>420.0</ele><time>2026-03-29T10:50:49.404Z</time></trkpt><trkpt lat="43.1522439" lon="12.2011235"><ele>419.6666666666667</ele><time>2026-03-29T10:50:50.403Z</time></trkpt><trkpt lat="43.1521385" lon="12.2010673"><ele>419.33333333333337</ele><time>2026-03-29T10:50:51.402Z</time></trkpt><trkpt lat="43.1520513" lon="12.2010049"><ele>419.0</ele><time>2026-03-29T10:50:52.403Z</time></trkpt><trkpt lat="43.151987" lon="12.2009495"><ele>418.6666666666667</ele><time>2026-03-29T10:50:53.403Z</time></trkpt><trkpt lat="43.1519332" lon="12.2008961"><ele>418.33333333333337</ele><time>2026-03-29T10:50:54.404Z</time></trkpt><trkpt lat="43.1519376" lon="12.2008094"><ele>418.0</ele><time>2026-03-29T10:50:56.404Z</time></trkpt><trkpt lat="43.1519471" lon="12.2006629"><ele>418.0</ele><time>2026-03-29T10:50:58.404Z</time></trkpt><trkpt lat="43.151911" lon="12.2005671"><ele>418.0</ele><time>2026-03-29T10:50:59.402Z</time></trkpt><trkpt lat="43.1518685" lon="12.2004539"><ele>418.0</ele><time>2026-03-29T10:51:00.403Z</time></trkpt><trkpt lat="43.1518317" lon="12.2003302"><ele>418.0</ele><time>2026-03-29T10:51:01.404Z</time></trkpt><trkpt lat="43.1518208" lon="12.2002036"><ele>418.0</ele><time>2026-03-29T10:51:02.403Z</time></trkpt><trkpt lat="43.1518085" lon="12.2000734"><ele>418.0</ele><time>2026-03-29T10:51:03.402Z</time></trkpt><trkpt lat="43.1518098" lon="12.1999328"><ele>418.0</ele><time>2026-03-29T10:51:04.403Z</time></trkpt><trkpt lat="43.151803" lon="12.1997931"><ele>418.0</ele><time>2026-03-29T10:51:05.402Z</time></trkpt><trkpt lat="43.1517868" lon="12.1996415"><ele>418.0</ele><time>2026-03-29T10:51:06.402Z</time></trkpt><trkpt lat="43.1517822" lon="12.1995189"><ele>418.0</ele><time>2026-03-29T10:51:07.404Z</time></trkpt><trkpt lat="43.1517758" lon="12.1993926"><ele>415.2</ele><time>2026-03-29T10:51:08.403Z</time></trkpt><trkpt lat="43.1517581" lon="12.1992555"><ele>412.4</ele><time>2026-03-29T10:51:09.402Z</time></trkpt><trkpt lat="43.1517325" lon="12.1991224"><ele>409.59999999999997</ele><time>2026-03-29T10:51:10.402Z</time></trkpt><trkpt lat="43.151694" lon="12.1989783"><ele>406.79999999999995</ele><time>2026-03-29T10:51:11.403Z</time></trkpt><trkpt lat="43.1516611" lon="12.1988434"><ele>404.0</ele><time>2026-03-29T10:51:12.402Z</time></trkpt><trkpt lat="43.1516294" lon="12.1987237"><ele>402.2</ele><time>2026-03-29T10:51:13.403Z</time></trkpt><trkpt lat="43.1516002" lon="12.1986106"><ele>400.4</ele><time>2026-03-29T10:51:14.404Z</time></trkpt><trkpt lat="43.1515677" lon="12.198503"><ele>398.6</ele><time>2026-03-29T10:51:15.403Z</time></trkpt><trkpt lat="43.1515273" lon="12.1983848"><ele>396.8</ele><time>2026-03-29T10:51:16.402Z</time></trkpt><trkpt lat="43.1514772" lon="12.1982387"><ele>395.0</ele><time>2026-03-29T10:51:17.404Z</time></trkpt><trkpt lat="43.151408" lon="12.1980889"><ele>392.5</ele><time>2026-03-29T10:51:18.403Z</time></trkpt><trkpt lat="43.1513322" lon="12.1979389"><ele>390.0</ele><time>2026-03-29T10:51:19.403Z</time></trkpt><trkpt lat="43.1512372" lon="12.1977875"><ele>387.5</ele><time>2026-03-29T10:51:20.402Z</time></trkpt><trkpt lat="43.1511453" lon="12.1976364"><ele>385.0</ele><time>2026-03-29T10:51:21.403Z</time></trkpt><trkpt lat="43.1510555" lon="12.1974843"><ele>386.25</ele><time>2026-03-29T10:51:22.403Z</time></trkpt><trkpt lat="43.1509788" lon="12.1973315"><ele>387.5</ele><time>2026-03-29T10:51:23.404Z</time></trkpt><trkpt lat="43.1509341" lon="12.1972129"><ele>388.75</ele><time>2026-03-29T10:51:24.404Z</time></trkpt><trkpt lat="43.1508718" lon="12.1970838"><ele>390.0</ele><time>2026-03-29T10:51:25.403Z</time></trkpt><trkpt lat="43.1508053" lon="12.1969588"><ele>390.0</ele><time>2026-03-29T10:51:26.402Z</time></trkpt><trkpt lat="43.1507443" lon="12.1968415"><ele>390.0</ele><time>2026-03-29T10:51:27.402Z</time></trkpt><trkpt lat="43.1506982" lon="12.1967367"><ele>390.0</ele><time>2026-03-29T10:51:28.404Z</time></trkpt><trkpt lat="43.1506598" lon="12.1966511"><ele>390.0</ele><time>2026-03-29T10:51:29.403Z</time></trkpt><trkpt lat="43.1505968" lon="12.1965513"><ele>390.0</ele><time>2026-03-29T10:51:31.404Z</time></trkpt><trkpt lat="43.1505187" lon="12.1966635"><ele>385.4</ele><time>2026-03-29T10:51:34.403Z</time></trkpt><trkpt lat="43.150448" lon="12.1967274"><ele>380.8</ele><time>2026-03-29T10:51:36.404Z</time></trkpt><trkpt lat="43.150355" lon="12.1965933"><ele>376.20000000000005</ele><time>2026-03-29T10:51:38.403Z</time></trkpt><trkpt lat="43.1502979" lon="12.1964897"><ele>371.6</ele><time>2026-03-29T10:51:39.402Z</time></trkpt><trkpt lat="43.1502352" lon="12.1963684"><ele>367.0</ele><time>2026-03-29T10:51:40.402Z</time></trkpt><trkpt lat="43.1501793" lon="12.1962431"><ele>366.8333333333333</ele><time>2026-03-29T10:51:41.402Z</time></trkpt><trkpt lat="43.1501542" lon="12.1961347"><ele>366.66666666666663</ele><time>2026-03-29T10:51:42.403Z</time></trkpt><trkpt lat="43.1501261" lon="12.1960145"><ele>366.5</ele><time>2026-03-29T10:51:43.404Z</time></trkpt><trkpt lat="43.1501333" lon="12.1959031"><ele>366.3333333333333</ele><time>2026-03-29T10:51:44.403Z</time></trkpt><trkpt lat="43.1501891" lon="12.1958034"><ele>366.1666666666667</ele><time>2026-03-29T10:51:45.402Z</time></trkpt><trkpt lat="43.1502294" lon="12.1956997"><ele>366.0</ele><time>2026-03-29T10:51:46.403Z</time></trkpt><trkpt lat="43.1503093" lon="12.1956167"><ele>365.20000000000005</ele><time>2026-03-29T10:51:47.403Z</time></trkpt><trkpt lat="43.1504125" lon="12.1955393"><ele>364.40000000000003</ele><time>2026-03-29T10:51:48.404Z</time></trkpt><trkpt lat="43.1505037" lon="12.1954599"><ele>363.6</ele><time>2026-03-29T10:51:49.402Z</time></trkpt><trkpt lat="43.1505876" lon="12.1953711"><ele>362.8</ele><time>2026-03-29T10:51:50.403Z</time></trkpt><trkpt lat="43.1506619" lon="12.19528"><ele>362.0</ele><time>2026-03-29T10:51:51.404Z</time></trkpt><trkpt lat="43.1507326" lon="12.1951764"><ele>362.0</ele><time>2026-03-29T10:51:52.402Z</time></trkpt><trkpt lat="43.150817" lon="12.1950982"><ele>362.0</ele><time>2026-03-29T10:51:53.404Z</time></trkpt><trkpt lat="43.1509035" lon="12.1950321"><ele>362.0</ele><time>2026-03-29T10:51:54.404Z</time></trkpt><trkpt lat="43.1510005" lon="12.1949788"><ele>362.0</ele><time>2026-03-29T10:51:55.402Z</time></trkpt><trkpt lat="43.1511118" lon="12.1949472"><ele>362.0</ele><time>2026-03-29T10:51:56.403Z</time></trkpt><trkpt lat="43.1512197" lon="12.1949297"><ele>362.0</ele><time>2026-03-29T10:51:57.403Z</time></trkpt><trkpt lat="43.1513193" lon="12.1949231"><ele>362.0</ele><time>2026-03-29T10:51:58.403Z</time></trkpt><trkpt lat="43.1514183" lon="12.1949191"><ele>362.0</ele><time>2026-03-29T10:51:59.404Z</time></trkpt><trkpt lat="43.1514891" lon="12.1949325"><ele>362.0</ele><time>2026-03-29T10:52:00.403Z</time></trkpt><trkpt lat="43.151568" lon="12.1949298"><ele>362.0</ele><time>2026-03-29T10:52:01.402Z</time></trkpt><trkpt lat="43.1516307" lon="12.1949393"><ele>362.0</ele><time>2026-03-29T10:52:02.404Z</time></trkpt><trkpt lat="43.1516953" lon="12.1949018"><ele>361.83333333333337</ele><time>2026-03-29T10:52:04.403Z</time></trkpt><trkpt lat="43.1517241" lon="12.1948042"><ele>361.6666666666667</ele><time>2026-03-29T10:52:08.403Z</time></trkpt><trkpt lat="43.1516204" lon="12.1947628"><ele>361.5</ele><time>2026-03-29T10:52:10.402Z</time></trkpt><trkpt lat="43.1515474" lon="12.194753"><ele>361.3333333333333</ele><time>2026-03-29T10:52:11.403Z</time></trkpt><trkpt lat="43.1514651" lon="12.194726"><ele>361.16666666666663</ele><time>2026-03-29T10:52:12.402Z</time></trkpt><trkpt lat="43.1513812" lon="12.1946997"><ele>361.0</ele><time>2026-03-29T10:52:13.403Z</time></trkpt><trkpt lat="43.1512918" lon="12.1946751"><ele>361.0</ele><time>2026-03-29T10:52:14.403Z</time></trkpt><trkpt lat="43.1512064" lon="12.1946534"><ele>361.0</ele><time>2026-03-29T10:52:15.403Z</time></trkpt><trkpt lat="43.1511125" lon="12.1946413"><ele>361.0</ele><time>2026-03-29T10:52:16.403Z</time></trkpt><trkpt lat="43.1510099" lon="12.1946381"><ele>361.0</ele><time>2026-03-29T10:52:17.404Z</time></trkpt><trkpt lat="43.1509009" lon="12.1946498"><ele>361.0</ele><time>2026-03-29T10:52:18.402Z</time></trkpt><trkpt lat="43.1507993" lon="12.1946698"><ele>360.4</ele><time>2026-03-29T10:52:19.404Z</time></trkpt><trkpt lat="43.1507014" lon="12.1946956"><ele>359.8</ele><time>2026-03-29T10:52:20.403Z</time></trkpt><trkpt lat="43.1506027" lon="12.1947255"><ele>359.2</ele><time>2026-03-29T10:52:21.404Z</time></trkpt><trkpt lat="43.1505012" lon="12.1947598"><ele>358.59999999999997</ele><time>2026-03-29T10:52:22.403Z</time></trkpt><trkpt lat="43.1504051" lon="12.1948001"><ele>358.0</ele><time>2026-03-29T10:52:23.402Z</time></trkpt><trkpt lat="43.1503225" lon="12.1948373"><ele>358.0</ele><time>2026-03-29T10:52:24.403Z</time></trkpt><trkpt lat="43.1502593" lon="12.1948636"><ele>358.0</ele><time>2026-03-29T10:52:25.402Z</time></trkpt><trkpt lat="43.1501981" lon="12.1947978"><ele>358.0</ele><time>2026-03-29T10:52:27.404Z</time></trkpt><trkpt lat="43.1501637" lon="12.1946572"><ele>358.0</ele><time>2026-03-29T10:52:29.403Z</time></trkpt><trkpt lat="43.1501384" lon="12.1945617"><ele>358.0</ele><time>2026-03-29T10:52:30.403Z</time></trkpt><trkpt lat="43.1501115" lon="12.1944337"><ele>358.0</ele><time>2026-03-29T10:52:31.403Z</time></trkpt><trkpt lat="43.1500738" lon="12.1943122"><ele>358.0</ele><time>2026-03-29T10:52:32.403Z</time></trkpt><trkpt lat="43.1500223" lon="12.1941903"><ele>358.0</ele><time>2026-03-29T10:52:33.404Z</time></trkpt><trkpt lat="43.1499575" lon="12.1940814"><ele>358.0</ele><time>2026-03-29T10:52:34.403Z</time></trkpt><trkpt lat="43.1498823" lon="12.193997"><ele>358.0</ele><time>2026-03-29T10:52:35.403Z</time></trkpt><trkpt lat="43.1497964" lon="12.1939215"><ele>358.0</ele><time>2026-03-29T10:52:36.403Z</time></trkpt><trkpt lat="43.1497145" lon="12.193841"><ele>358.0</ele><time>2026-03-29T10:52:37.402Z</time></trkpt><trkpt lat="43.1496376" lon="12.1937504"><ele>358.0</ele><time>2026-03-29T10:52:38.403Z</time></trkpt><trkpt lat="43.1495609" lon="12.1936571"><ele>358.0</ele><time>2026-03-29T10:52:39.404Z</time></trkpt><trkpt lat="43.149496" lon="12.1935332"><ele>358.0</ele><time>2026-03-29T10:52:40.403Z</time></trkpt><trkpt lat="43.1494343" lon="12.1934057"><ele>358.0</ele><time>2026-03-29T10:52:41.402Z</time></trkpt><trkpt lat="43.1493735" lon="12.1932789"><ele>359.59999999999997</ele><time>2026-03-29T10:52:42.402Z</time></trkpt><trkpt lat="43.1493092" lon="12.1931409"><ele>361.2</ele><time>2026-03-29T10:52:43.403Z</time></trkpt><trkpt lat="43.1492522" lon="12.1930109"><ele>362.8</ele><time>2026-03-29T10:52:44.404Z</time></trkpt><trkpt lat="43.149205" lon="12.1928835"><ele>364.4</ele><time>2026-03-29T10:52:45.403Z</time></trkpt><trkpt lat="43.1491591" lon="12.1927666"><ele>366.0</ele><time>2026-03-29T10:52:46.404Z</time></trkpt><trkpt lat="43.1491133" lon="12.1926538"><ele>366.0</ele><time>2026-03-29T10:52:47.403Z</time></trkpt><trkpt lat="43.1490706" lon="12.1925405"><ele>366.0</ele><time>2026-03-29T10:52:48.403Z</time></trkpt><trkpt lat="43.1490304" lon="12.1924269"><ele>366.0</ele><time>2026-03-29T10:52:49.403Z</time></trkpt><trkpt lat="43.1490039" lon="12.1922969"><ele>366.0</ele><time>2026-03-29T10:52:50.404Z</time></trkpt><trkpt lat="43.1489961" lon="12.192159"><ele>366.0</ele><time>2026-03-29T10:52:51.403Z</time></trkpt><trkpt lat="43.1490047" lon="12.1920113"><ele>366.25</ele><time>2026-03-29T10:52:52.403Z</time></trkpt><trkpt lat="43.149017" lon="12.1918618"><ele>366.5</ele><time>2026-03-29T10:52:53.404Z</time></trkpt><trkpt lat="43.1490555" lon="12.1917145"><ele>366.75</ele><time>2026-03-29T10:52:54.403Z</time></trkpt><trkpt lat="43.1490962" lon="12.1915583"><ele>367.0</ele><time>2026-03-29T10:52:55.403Z</time></trkpt><trkpt lat="43.1491332" lon="12.1914113"><ele>367.0</ele><time>2026-03-29T10:52:56.403Z</time></trkpt><trkpt lat="43.1491642" lon="12.1913009"><ele>367.0</ele><time>2026-03-29T10:52:57.404Z</time></trkpt><trkpt lat="43.1492021" lon="12.1911883"><ele>367.0</ele><time>2026-03-29T10:52:58.404Z</time></trkpt><trkpt lat="43.1492386" lon="12.1910731"><ele>367.0</ele><time>2026-03-29T10:52:59.404Z</time></trkpt><trkpt lat="43.1492756" lon="12.1909687"><ele>367.0</ele><time>2026-03-29T10:53:00.403Z</time></trkpt><trkpt lat="43.1493113" lon="12.1908686"><ele>367.0</ele><time>2026-03-29T10:53:01.404Z</time></trkpt><trkpt lat="43.1493467" lon="12.1907798"><ele>367.0</ele><time>2026-03-29T10:53:02.403Z</time></trkpt><trkpt lat="43.1493786" lon="12.1906818"><ele>367.0</ele><time>2026-03-29T10:53:03.404Z</time></trkpt><trkpt lat="43.1494126" lon="12.1905852"><ele>367.0</ele><time>2026-03-29T10:53:04.402Z</time></trkpt><trkpt lat="43.1494328" lon="12.1904803"><ele>367.0</ele><time>2026-03-29T10:53:05.403Z</time></trkpt><trkpt lat="43.1494427" lon="12.1903692"><ele>367.0</ele><time>2026-03-29T10:53:06.403Z</time></trkpt><trkpt lat="43.1494506" lon="12.1902593"><ele>367.0</ele><time>2026-03-29T10:53:07.403Z</time></trkpt><trkpt lat="43.1494454" lon="12.1901625"><ele>367.8</ele><time>2026-03-29T10:53:08.404Z</time></trkpt><trkpt lat="43.1494318" lon="12.1900672"><ele>368.6</ele><time>2026-03-29T10:53:09.405Z</time></trkpt><trkpt lat="43.1493801" lon="12.1899593"><ele>369.40000000000003</ele><time>2026-03-29T10:53:11.404Z</time></trkpt><trkpt lat="43.149279" lon="12.1899023"><ele>370.20000000000005</ele><time>2026-03-29T10:53:13.404Z</time></trkpt><trkpt lat="43.1491526" lon="12.1898677"><ele>371.0</ele><time>2026-03-29T10:53:15.403Z</time></trkpt><trkpt lat="43.1490819" lon="12.1898532"><ele>372.42857142857144</ele><time>2026-03-29T10:53:16.404Z</time></trkpt><trkpt lat="43.149013" lon="12.1898378"><ele>373.8571428571429</ele><time>2026-03-29T10:53:17.404Z</time></trkpt><trkpt lat="43.148945" lon="12.1898214"><ele>375.2857142857143</ele><time>2026-03-29T10:53:18.402Z</time></trkpt><trkpt lat="43.148877" lon="12.1897967"><ele>376.7142857142857</ele><time>2026-03-29T10:53:19.404Z</time></trkpt><trkpt lat="43.1488067" lon="12.189758"><ele>378.14285714285717</ele><time>2026-03-29T10:53:20.404Z</time></trkpt><trkpt lat="43.1487352" lon="12.1897156"><ele>379.57142857142856</ele><time>2026-03-29T10:53:21.404Z</time></trkpt><trkpt lat="43.148657" lon="12.1896762"><ele>381.0</ele><time>2026-03-29T10:53:22.402Z</time></trkpt><trkpt lat="43.1485777" lon="12.1896385"><ele>381.0</ele><time>2026-03-29T10:53:23.404Z</time></trkpt><trkpt lat="43.1485015" lon="12.1896047"><ele>381.0</ele><time>2026-03-29T10:53:24.403Z</time></trkpt><trkpt lat="43.1484286" lon="12.1895671"><ele>381.0</ele><time>2026-03-29T10:53:25.403Z</time></trkpt><trkpt lat="43.1483649" lon="12.1895377"><ele>381.0</ele><time>2026-03-29T10:53:26.403Z</time></trkpt><trkpt lat="43.1482902" lon="12.1895174"><ele>381.0</ele><time>2026-03-29T10:53:27.405Z</time></trkpt><trkpt lat="43.1482096" lon="12.1894984"><ele>381.0</ele><time>2026-03-29T10:53:28.403Z</time></trkpt><trkpt lat="43.1481151" lon="12.1894887"><ele>378.25</ele><time>2026-03-29T10:53:29.402Z</time></trkpt><trkpt lat="43.1480082" lon="12.1894845"><ele>375.5</ele><time>2026-03-29T10:53:30.403Z</time></trkpt><trkpt lat="43.1479006" lon="12.1894735"><ele>372.75</ele><time>2026-03-29T10:53:31.403Z</time></trkpt><trkpt lat="43.1477829" lon="12.1894494"><ele>370.0</ele><time>2026-03-29T10:53:32.405Z</time></trkpt><trkpt lat="43.1476626" lon="12.1894271"><ele>370.0</ele><time>2026-03-29T10:53:33.403Z</time></trkpt><trkpt lat="43.1475382" lon="12.1893924"><ele>370.0</ele><time>2026-03-29T10:53:34.403Z</time></trkpt><trkpt lat="43.1474091" lon="12.189364"><ele>370.0</ele><time>2026-03-29T10:53:35.403Z</time></trkpt><trkpt lat="43.1472842" lon="12.1893377"><ele>370.0</ele><time>2026-03-29T10:53:36.403Z</time></trkpt><trkpt lat="43.1471886" lon="12.1893175"><ele>367.6</ele><time>2026-03-29T10:53:37.404Z</time></trkpt><trkpt lat="43.1470844" lon="12.1893083"><ele>365.2</ele><time>2026-03-29T10:53:38.404Z</time></trkpt><trkpt lat="43.1469804" lon="12.1893188"><ele>362.79999999999995</ele><time>2026-03-29T10:53:39.403Z</time></trkpt><trkpt lat="43.1468725" lon="12.189346"><ele>360.4</ele><time>2026-03-29T10:53:40.403Z</time></trkpt><trkpt lat="43.1467725" lon="12.1893649"><ele>358.0</ele><time>2026-03-29T10:53:41.404Z</time></trkpt><trkpt lat="43.1466763" lon="12.1893746"><ele>358.0</ele><time>2026-03-29T10:53:42.404Z</time></trkpt><trkpt lat="43.1465917" lon="12.1893799"><ele>358.0</ele><time>2026-03-29T10:53:43.404Z</time></trkpt><trkpt lat="43.146526" lon="12.1893651"><ele>358.0</ele><time>2026-03-29T10:53:44.403Z</time></trkpt><trkpt lat="43.1464668" lon="12.1892229"><ele>358.0</ele><time>2026-03-29T10:53:46.402Z</time></trkpt><trkpt lat="43.1464096" lon="12.1891117"><ele>358.0</ele><time>2026-03-29T10:53:47.404Z</time></trkpt><trkpt lat="43.1463413" lon="12.1889792"><ele>357.0</ele><time>2026-03-29T10:53:48.403Z</time></trkpt><trkpt lat="43.14627" lon="12.1888403"><ele>356.0</ele><time>2026-03-29T10:53:49.402Z</time></trkpt><trkpt lat="43.1462007" lon="12.188718"><ele>355.0</ele><time>2026-03-29T10:53:50.404Z</time></trkpt><trkpt lat="43.1461482" lon="12.1886044"><ele>354.0</ele><time>2026-03-29T10:53:51.403Z</time></trkpt><trkpt lat="43.1460913" lon="12.1884898"><ele>353.0</ele><time>2026-03-29T10:53:52.404Z</time></trkpt><trkpt lat="43.1460182" lon="12.18839"><ele>353.0</ele><time>2026-03-29T10:53:53.404Z</time></trkpt><trkpt lat="43.1459407" lon="12.1882888"><ele>353.0</ele><time>2026-03-29T10:53:54.403Z</time></trkpt><trkpt lat="43.1458399" lon="12.1882032"><ele>353.0</ele><time>2026-03-29T10:53:55.402Z</time></trkpt><trkpt lat="43.1457488" lon="12.1880986"><ele>353.0</ele><time>2026-03-29T10:53:56.405Z</time></trkpt><trkpt lat="43.1456601" lon="12.1879974"><ele>354.2</ele><time>2026-03-29T10:53:57.403Z</time></trkpt><trkpt lat="43.1455687" lon="12.1878982"><ele>355.4</ele><time>2026-03-29T10:53:58.404Z</time></trkpt><trkpt lat="43.1454847" lon="12.1877977"><ele>356.59999999999997</ele><time>2026-03-29T10:53:59.404Z</time></trkpt><trkpt lat="43.145406" lon="12.1877182"><ele>357.79999999999995</ele><time>2026-03-29T10:54:00.403Z</time></trkpt><trkpt lat="43.1453192" lon="12.1876511"><ele>359.0</ele><time>2026-03-29T10:54:01.404Z</time></trkpt><trkpt lat="43.1452372" lon="12.1875953"><ele>359.0</ele><time>2026-03-29T10:54:02.403Z</time></trkpt><trkpt lat="43.1451426" lon="12.1875568"><ele>359.0</ele><time>2026-03-29T10:54:03.403Z</time></trkpt><trkpt lat="43.1450472" lon="12.1875563"><ele>359.0</ele><time>2026-03-29T10:54:04.404Z</time></trkpt><trkpt lat="43.1449535" lon="12.1875788"><ele>359.0</ele><time>2026-03-29T10:54:05.402Z</time></trkpt><trkpt lat="43.1448593" lon="12.1876023"><ele>359.0</ele><time>2026-03-29T10:54:06.403Z</time></trkpt><trkpt lat="43.144756" lon="12.1876657"><ele>357.79999999999995</ele><time>2026-03-29T10:54:07.403Z</time></trkpt><trkpt lat="43.1446633" lon="12.1877175"><ele>356.59999999999997</ele><time>2026-03-29T10:54:08.405Z</time></trkpt><trkpt lat="43.1445708" lon="12.1877565"><ele>355.4</ele><time>2026-03-29T10:54:09.403Z</time></trkpt><trkpt lat="43.1444845" lon="12.1877749"><ele>354.2</ele><time>2026-03-29T10:54:10.403Z</time></trkpt><trkpt lat="43.1444401" lon="12.1877052"><ele>353.0</ele><time>2026-03-29T10:54:11.403Z</time></trkpt><trkpt lat="43.1443645" lon="12.1876074"><ele>353.0</ele><time>2026-03-29T10:54:13.404Z</time></trkpt><trkpt lat="43.1443591" lon="12.1874985"><ele>353.0</ele><time>2026-03-29T10:54:14.403Z</time></trkpt><trkpt lat="43.1443596" lon="12.1873589"><ele>353.0</ele><time>2026-03-29T10:54:15.403Z</time></trkpt><trkpt lat="43.1443564" lon="12.187198"><ele>353.0</ele><time>2026-03-29T10:54:16.404Z</time></trkpt><trkpt lat="43.1443515" lon="12.1870407"><ele>353.0</ele><time>2026-03-29T10:54:17.403Z</time></trkpt><trkpt lat="43.1443502" lon="12.1868647"><ele>354.1666666666667</ele><time>2026-03-29T10:54:18.404Z</time></trkpt><trkpt lat="43.1443477" lon="12.1867081"><ele>355.33333333333337</ele><time>2026-03-29T10:54:19.404Z</time></trkpt><trkpt lat="43.1443437" lon="12.1865641"><ele>356.5</ele><time>2026-03-29T10:54:20.404Z</time></trkpt><trkpt lat="43.1443266" lon="12.1864633"><ele>357.6666666666667</ele><time>2026-03-29T10:54:21.404Z</time></trkpt><trkpt lat="43.1442569" lon="12.1864348"><ele>358.8333333333333</ele><time>2026-03-29T10:54:23.402Z</time></trkpt><trkpt lat="43.1442616" lon="12.1863449"><ele>360.0</ele><time>2026-03-29T10:54:25.403Z</time></trkpt><trkpt lat="43.1443102" lon="12.1862545"><ele>361.6666666666667</ele><time>2026-03-29T10:54:27.404Z</time></trkpt><trkpt lat="43.1443503" lon="12.186182"><ele>363.3333333333333</ele><time>2026-03-29T10:54:28.403Z</time></trkpt><trkpt lat="43.1443567" lon="12.1860812"><ele>365.0</ele><time>2026-03-29T10:54:29.404Z</time></trkpt><trkpt lat="43.144356" lon="12.185972"><ele>366.66666666666663</ele><time>2026-03-29T10:54:30.404Z</time></trkpt><trkpt lat="43.1443554" lon="12.1858435"><ele>368.3333333333333</ele><time>2026-03-29T10:54:31.404Z</time></trkpt><trkpt lat="43.1443359" lon="12.1857108"><ele>370.0</ele><time>2026-03-29T10:54:32.403Z</time></trkpt><trkpt lat="43.1443116" lon="12.1855841"><ele>372.6</ele><time>2026-03-29T10:54:33.403Z</time></trkpt><trkpt lat="43.1442825" lon="12.1854636"><ele>375.2</ele><time>2026-03-29T10:54:34.403Z</time></trkpt><trkpt lat="43.1442429" lon="12.1853439"><ele>377.79999999999995</ele><time>2026-03-29T10:54:35.404Z</time></trkpt><trkpt lat="43.1442017" lon="12.1852279"><ele>380.4</ele><time>2026-03-29T10:54:36.402Z</time></trkpt><trkpt lat="43.1441671" lon="12.1851094"><ele>383.0</ele><time>2026-03-29T10:54:37.404Z</time></trkpt><trkpt lat="43.1441376" lon="12.1849866"><ele>383.0</ele><time>2026-03-29T10:54:38.404Z</time></trkpt><trkpt lat="43.1441236" lon="12.1848585"><ele>383.0</ele><time>2026-03-29T10:54:39.402Z</time></trkpt><trkpt lat="43.1441095" lon="12.1847335"><ele>383.0</ele><time>2026-03-29T10:54:40.404Z</time></trkpt><trkpt lat="43.1440929" lon="12.1846097"><ele>383.0</ele><time>2026-03-29T10:54:41.404Z</time></trkpt><trkpt lat="43.1440517" lon="12.1844981"><ele>383.0</ele><time>2026-03-29T10:54:42.404Z</time></trkpt><trkpt lat="43.1439978" lon="12.1843765"><ele>383.79999999999995</ele><time>2026-03-29T10:54:43.404Z</time></trkpt><trkpt lat="43.1439355" lon="12.1842593"><ele>384.6</ele><time>2026-03-29T10:54:44.404Z</time></trkpt><trkpt lat="43.1438703" lon="12.1841473"><ele>385.4</ele><time>2026-03-29T10:54:45.405Z</time></trkpt><trkpt lat="43.1437982" lon="12.1840477"><ele>386.20000000000005</ele><time>2026-03-29T10:54:46.404Z</time></trkpt><trkpt lat="43.1437338" lon="12.1839638"><ele>387.0</ele><time>2026-03-29T10:54:47.405Z</time></trkpt><trkpt lat="43.1436584" lon="12.1838895"><ele>390.40000000000003</ele><time>2026-03-29T10:54:48.403Z</time></trkpt><trkpt lat="43.1435883" lon="12.1837921"><ele>393.8</ele><time>2026-03-29T10:54:49.403Z</time></trkpt><trkpt lat="43.1434999" lon="12.1837013"><ele>397.2</ele><time>2026-03-29T10:54:50.404Z</time></trkpt><trkpt lat="43.1434142" lon="12.1836035"><ele>400.6</ele><time>2026-03-29T10:54:51.404Z</time></trkpt><trkpt lat="43.1433263" lon="12.1834927"><ele>404.0</ele><time>2026-03-29T10:54:52.404Z</time></trkpt><trkpt lat="43.1432453" lon="12.1834006"><ele>402.79999999999995</ele><time>2026-03-29T10:54:53.403Z</time></trkpt><trkpt lat="43.1431738" lon="12.1833254"><ele>401.59999999999997</ele><time>2026-03-29T10:54:54.405Z</time></trkpt><trkpt lat="43.1430801" lon="12.1832731"><ele>400.4</ele><time>2026-03-29T10:54:55.404Z</time></trkpt><trkpt lat="43.1429746" lon="12.1832182"><ele>399.2</ele><time>2026-03-29T10:54:56.403Z</time></trkpt><trkpt lat="43.1428657" lon="12.1831745"><ele>398.0</ele><time>2026-03-29T10:54:57.405Z</time></trkpt><trkpt lat="43.1427515" lon="12.1831367"><ele>400.4</ele><time>2026-03-29T10:54:58.403Z</time></trkpt><trkpt lat="43.1426413" lon="12.1830878"><ele>402.79999999999995</ele><time>2026-03-29T10:54:59.404Z</time></trkpt><trkpt lat="43.1425309" lon="12.1830462"><ele>405.2</ele><time>2026-03-29T10:55:00.403Z</time></trkpt><trkpt lat="43.1424277" lon="12.1829996"><ele>407.6</ele><time>2026-03-29T10:55:01.402Z</time></trkpt><trkpt lat="43.1423368" lon="12.182966"><ele>410.0</ele><time>2026-03-29T10:55:02.404Z</time></trkpt><trkpt lat="43.1422465" lon="12.1829099"><ele>410.0</ele><time>2026-03-29T10:55:03.405Z</time></trkpt><trkpt lat="43.1421543" lon="12.1828669"><ele>410.0</ele><time>2026-03-29T10:55:04.402Z</time></trkpt><trkpt lat="43.1420652" lon="12.1828096"><ele>410.0</ele><time>2026-03-29T10:55:05.404Z</time></trkpt><trkpt lat="43.1419867" lon="12.182759"><ele>410.0</ele><time>2026-03-29T10:55:06.402Z</time></trkpt><trkpt lat="43.1418998" lon="12.1827183"><ele>410.0</ele><time>2026-03-29T10:55:07.405Z</time></trkpt><trkpt lat="43.1418147" lon="12.1826936"><ele>410.0</ele><time>2026-03-29T10:55:08.404Z</time></trkpt><trkpt lat="43.1417383" lon="12.1826693"><ele>410.0</ele><time>2026-03-29T10:55:09.404Z</time></trkpt><trkpt lat="43.1416229" lon="12.1826671"><ele>410.0</ele><time>2026-03-29T10:55:11.404Z</time></trkpt><trkpt lat="43.141496" lon="12.1826518"><ele>410.0</ele><time>2026-03-29T10:55:13.405Z</time></trkpt><trkpt lat="43.141427" lon="12.1826417"><ele>410.0</ele><time>2026-03-29T10:55:14.403Z</time></trkpt><trkpt lat="43.1413614" lon="12.1826465"><ele>410.4</ele><time>2026-03-29T10:55:15.404Z</time></trkpt><trkpt lat="43.1412786" lon="12.1826867"><ele>410.8</ele><time>2026-03-29T10:55:16.404Z</time></trkpt><trkpt lat="43.1411882" lon="12.1827263"><ele>411.20000000000005</ele><time>2026-03-29T10:55:17.403Z</time></trkpt><trkpt lat="43.1410786" lon="12.1827584"><ele>411.6</ele><time>2026-03-29T10:55:18.404Z</time></trkpt><trkpt lat="43.1409912" lon="12.1827909"><ele>412.0</ele><time>2026-03-29T10:55:19.403Z</time></trkpt><trkpt lat="43.1409096" lon="12.1827972"><ele>412.0</ele><time>2026-03-29T10:55:20.403Z</time></trkpt><trkpt lat="43.1408383" lon="12.1828228"><ele>412.0</ele><time>2026-03-29T10:55:21.404Z</time></trkpt><trkpt lat="43.1407422" lon="12.182859"><ele>412.0</ele><time>2026-03-29T10:55:22.403Z</time></trkpt><trkpt lat="43.1406406" lon="12.1829004"><ele>412.0</ele><time>2026-03-29T10:55:23.404Z</time></trkpt><trkpt lat="43.1405287" lon="12.1829448"><ele>412.0</ele><time>2026-03-29T10:55:24.404Z</time></trkpt><trkpt lat="43.1404126" lon="12.1829777"><ele>412.5</ele><time>2026-03-29T10:55:25.404Z</time></trkpt><trkpt lat="43.1402912" lon="12.1830088"><ele>413.0</ele><time>2026-03-29T10:55:26.403Z</time></trkpt><trkpt lat="43.1401669" lon="12.1830272"><ele>413.5</ele><time>2026-03-29T10:55:27.403Z</time></trkpt><trkpt lat="43.1400427" lon="12.1830303"><ele>414.0</ele><time>2026-03-29T10:55:28.404Z</time></trkpt><trkpt lat="43.1399173" lon="12.1830307"><ele>414.5</ele><time>2026-03-29T10:55:29.403Z</time></trkpt><trkpt lat="43.1397956" lon="12.18304"><ele>415.0</ele><time>2026-03-29T10:55:30.404Z</time></trkpt><trkpt lat="43.1396731" lon="12.1830612"><ele>415.5</ele><time>2026-03-29T10:55:31.404Z</time></trkpt><trkpt lat="43.1395489" lon="12.1830756"><ele>416.0</ele><time>2026-03-29T10:55:32.403Z</time></trkpt><trkpt lat="43.1394173" lon="12.1830791"><ele>416.0</ele><time>2026-03-29T10:55:33.404Z</time></trkpt><trkpt lat="43.1392811" lon="12.1831009"><ele>416.0</ele><time>2026-03-29T10:55:34.404Z</time></trkpt><trkpt lat="43.1391607" lon="12.1831299"><ele>416.0</ele><time>2026-03-29T10:55:35.403Z</time></trkpt><trkpt lat="43.1390396" lon="12.1831549"><ele>416.0</ele><time>2026-03-29T10:55:36.404Z</time></trkpt><trkpt lat="43.138916" lon="12.1831572"><ele>415.5</ele><time>2026-03-29T10:55:37.404Z</time></trkpt><trkpt lat="43.1387932" lon="12.1831452"><ele>415.0</ele><time>2026-03-29T10:55:38.404Z</time></trkpt><trkpt lat="43.1386626" lon="12.1831304"><ele>414.5</ele><time>2026-03-29T10:55:39.404Z</time></trkpt><trkpt lat="43.1385411" lon="12.1831145"><ele>414.0</ele><time>2026-03-29T10:55:40.404Z</time></trkpt><trkpt lat="43.1384255" lon="12.183091"><ele>414.0</ele><time>2026-03-29T10:55:41.403Z</time></trkpt><trkpt lat="43.1383015" lon="12.1830745"><ele>414.0</ele><time>2026-03-29T10:55:42.404Z</time></trkpt><trkpt lat="43.1381767" lon="12.1830534"><ele>414.0</ele><time>2026-03-29T10:55:43.402Z</time></trkpt><trkpt lat="43.1380458" lon="12.183042"><ele>414.0</ele><time>2026-03-29T10:55:44.404Z</time></trkpt><trkpt lat="43.1379227" lon="12.1830308"><ele>412.6</ele><time>2026-03-29T10:55:45.405Z</time></trkpt><trkpt lat="43.1378113" lon="12.1830163"><ele>411.2</ele><time>2026-03-29T10:55:46.404Z</time></trkpt><trkpt lat="43.1377147" lon="12.1830048"><ele>409.8</ele><time>2026-03-29T10:55:47.405Z</time></trkpt><trkpt lat="43.1376314" lon="12.1830012"><ele>408.40000000000003</ele><time>2026-03-29T10:55:48.404Z</time></trkpt><trkpt lat="43.1375507" lon="12.1830097"><ele>407.0</ele><time>2026-03-29T10:55:49.404Z</time></trkpt><trkpt lat="43.1374635" lon="12.1831284"><ele>406.8333333333333</ele><time>2026-03-29T10:55:51.405Z</time></trkpt><trkpt lat="43.137412" lon="12.183268"><ele>406.66666666666663</ele><time>2026-03-29T10:55:53.403Z</time></trkpt><trkpt lat="43.1373945" lon="12.1833741"><ele>406.5</ele><time>2026-03-29T10:55:54.404Z</time></trkpt><trkpt lat="43.1373746" lon="12.1834827"><ele>406.33333333333337</ele><time>2026-03-29T10:55:55.402Z</time></trkpt><trkpt lat="43.1373493" lon="12.1835912"><ele>406.1666666666667</ele><time>2026-03-29T10:55:56.404Z</time></trkpt><trkpt lat="43.1373212" lon="12.1837027"><ele>406.0</ele><time>2026-03-29T10:55:57.404Z</time></trkpt><trkpt lat="43.1373138" lon="12.1838043"><ele>406.0</ele><time>2026-03-29T10:55:58.403Z</time></trkpt><trkpt lat="43.1372839" lon="12.1839021"><ele>406.0</ele><time>2026-03-29T10:55:59.404Z</time></trkpt><trkpt lat="43.1372364" lon="12.1839843"><ele>406.0</ele><time>2026-03-29T10:56:00.405Z</time></trkpt><trkpt lat="43.1371783" lon="12.1840444"><ele>406.0</ele><time>2026-03-29T10:56:01.404Z</time></trkpt><trkpt lat="43.1370658" lon="12.1840687"><ele>406.0</ele><time>2026-03-29T10:56:02.405Z</time></trkpt><trkpt lat="43.1369207" lon="12.1840976"><ele>406.25</ele><time>2026-03-29T10:56:03.403Z</time></trkpt><trkpt lat="43.1367879" lon="12.1841116"><ele>406.5</ele><time>2026-03-29T10:56:04.403Z</time></trkpt><trkpt lat="43.1366606" lon="12.1841574"><ele>406.75</ele><time>2026-03-29T10:56:05.405Z</time></trkpt><trkpt lat="43.1365344" lon="12.1842175"><ele>407.0</ele><time>2026-03-29T10:56:06.404Z</time></trkpt><trkpt lat="43.1364211" lon="12.1842921"><ele>407.0</ele><time>2026-03-29T10:56:07.404Z</time></trkpt><trkpt lat="43.1363102" lon="12.1843779"><ele>407.0</ele><time>2026-03-29T10:56:08.403Z</time></trkpt><trkpt lat="43.1362069" lon="12.1844459"><ele>407.0</ele><time>2026-03-29T10:56:09.404Z</time></trkpt><trkpt lat="43.1361074" lon="12.1845057"><ele>407.0</ele><time>2026-03-29T10:56:10.404Z</time></trkpt><trkpt lat="43.1360333" lon="12.1845056"><ele>407.0</ele><time>2026-03-29T10:56:11.403Z</time></trkpt><trkpt lat="43.1359484" lon="12.1844866"><ele>406.99999999999994</ele><time>2026-03-29T10:56:12.404Z</time></trkpt><trkpt lat="43.1358701" lon="12.184447"><ele>407.0</ele><time>2026-03-29T10:56:13.404Z</time></trkpt><trkpt lat="43.1357897" lon="12.1844238"><ele>407.0</ele><time>2026-03-29T10:56:14.405Z</time></trkpt><trkpt lat="43.1357061" lon="12.1844194"><ele>407.0</ele><time>2026-03-29T10:56:15.404Z</time></trkpt><trkpt lat="43.1356187" lon="12.1844126"><ele>406.99999999999994</ele><time>2026-03-29T10:56:16.405Z</time></trkpt><trkpt lat="43.1355516" lon="12.1844162"><ele>407.0</ele><time>2026-03-29T10:56:17.405Z</time></trkpt><trkpt lat="43.1354589" lon="12.1844379"><ele>404.8333333333333</ele><time>2026-03-29T10:56:19.405Z</time></trkpt><trkpt lat="43.1354061" lon="12.1843874"><ele>402.66666666666663</ele><time>2026-03-29T10:56:21.404Z</time></trkpt><trkpt lat="43.1354108" lon="12.1842638"><ele>400.5</ele><time>2026-03-29T10:56:23.404Z</time></trkpt><trkpt lat="43.1354291" lon="12.1841707"><ele>398.33333333333337</ele><time>2026-03-29T10:56:24.403Z</time></trkpt><trkpt lat="43.1354668" lon="12.1840533"><ele>396.1666666666667</ele><time>2026-03-29T10:56:25.404Z</time></trkpt><trkpt lat="43.1355252" lon="12.1839313"><ele>394.0</ele><time>2026-03-29T10:56:26.405Z</time></trkpt><trkpt lat="43.1355924" lon="12.1838094"><ele>394.25</ele><time>2026-03-29T10:56:27.404Z</time></trkpt><trkpt lat="43.1356873" lon="12.183714"><ele>394.5</ele><time>2026-03-29T10:56:28.403Z</time></trkpt><trkpt lat="43.1357668" lon="12.1836159"><ele>394.75</ele><time>2026-03-29T10:56:29.404Z</time></trkpt><trkpt lat="43.1358515" lon="12.1835136"><ele>395.0</ele><time>2026-03-29T10:56:30.404Z</time></trkpt><trkpt lat="43.1359191" lon="12.1833777"><ele>395.0</ele><time>2026-03-29T10:56:31.404Z</time></trkpt><trkpt lat="43.1359585" lon="12.183243"><ele>395.0</ele><time>2026-03-29T10:56:32.403Z</time></trkpt><trkpt lat="43.135987" lon="12.183111"><ele>395.0</ele><time>2026-03-29T10:56:33.404Z</time></trkpt><trkpt lat="43.1359998" lon="12.1829809"><ele>395.0</ele><time>2026-03-29T10:56:34.404Z</time></trkpt><trkpt lat="43.1359633" lon="12.1828734"><ele>395.0</ele><time>2026-03-29T10:56:35.402Z</time></trkpt><trkpt lat="43.135924" lon="12.182777"><ele>394.6</ele><time>2026-03-29T10:56:36.405Z</time></trkpt><trkpt lat="43.135861" lon="12.1826954"><ele>394.2</ele><time>2026-03-29T10:56:37.403Z</time></trkpt><trkpt lat="43.1357993" lon="12.1825932"><ele>393.79999999999995</ele><time>2026-03-29T10:56:38.405Z</time></trkpt><trkpt lat="43.13574" lon="12.1824896"><ele>393.4</ele><time>2026-03-29T10:56:39.403Z</time></trkpt><trkpt lat="43.1356767" lon="12.1823916"><ele>393.0</ele><time>2026-03-29T10:56:40.404Z</time></trkpt><trkpt lat="43.1356172" lon="12.1822953"><ele>392.4</ele><time>2026-03-29T10:56:41.404Z</time></trkpt><trkpt lat="43.1355499" lon="12.1822112"><ele>391.79999999999995</ele><time>2026-03-29T10:56:42.403Z</time></trkpt><trkpt lat="43.1354757" lon="12.1821343"><ele>391.2</ele><time>2026-03-29T10:56:43.404Z</time></trkpt><trkpt lat="43.13539" lon="12.1820614"><ele>390.6</ele><time>2026-03-29T10:56:44.403Z</time></trkpt><trkpt lat="43.1353054" lon="12.1819654"><ele>390.0</ele><time>2026-03-29T10:56:45.404Z</time></trkpt><trkpt lat="43.13522" lon="12.181876"><ele>390.0</ele><time>2026-03-29T10:56:46.403Z</time></trkpt><trkpt lat="43.1351239" lon="12.1817786"><ele>390.0</ele><time>2026-03-29T10:56:47.405Z</time></trkpt><trkpt lat="43.1350188" lon="12.1816805"><ele>390.0</ele><time>2026-03-29T10:56:48.404Z</time></trkpt><trkpt lat="43.1349149" lon="12.1815826"><ele>390.0</ele><time>2026-03-29T10:56:49.405Z</time></trkpt><trkpt lat="43.1348046" lon="12.1814857"><ele>390.75</ele><time>2026-03-29T10:56:50.404Z</time></trkpt><trkpt lat="43.1346969" lon="12.1814154"><ele>391.5</ele><time>2026-03-29T10:56:51.404Z</time></trkpt><trkpt lat="43.134587" lon="12.1813524"><ele>392.25</ele><time>2026-03-29T10:56:52.403Z</time></trkpt><trkpt lat="43.1344819" lon="12.1812937"><ele>393.0</ele><time>2026-03-29T10:56:53.405Z</time></trkpt><trkpt lat="43.1343828" lon="12.1812276"><ele>393.0</ele><time>2026-03-29T10:56:54.404Z</time></trkpt><trkpt lat="43.1342699" lon="12.1811625"><ele>393.0</ele><time>2026-03-29T10:56:55.404Z</time></trkpt><trkpt lat="43.1341438" lon="12.1810945"><ele>393.0</ele><time>2026-03-29T10:56:56.403Z</time></trkpt><trkpt lat="43.1340157" lon="12.1810237"><ele>393.0</ele><time>2026-03-29T10:56:57.405Z</time></trkpt><trkpt lat="43.1338716" lon="12.1809535"><ele>391.25</ele><time>2026-03-29T10:56:58.404Z</time></trkpt><trkpt lat="43.1337303" lon="12.1808812"><ele>389.5</ele><time>2026-03-29T10:56:59.404Z</time></trkpt><trkpt lat="43.1335962" lon="12.1808143"><ele>387.75</ele><time>2026-03-29T10:57:00.404Z</time></trkpt><trkpt lat="43.133466" lon="12.1807493"><ele>386.0</ele><time>2026-03-29T10:57:01.404Z</time></trkpt><trkpt lat="43.1333337" lon="12.180686"><ele>386.0</ele><time>2026-03-29T10:57:02.404Z</time></trkpt><trkpt lat="43.1331994" lon="12.1806209"><ele>386.0</ele><time>2026-03-29T10:57:03.404Z</time></trkpt><trkpt lat="43.1330622" lon="12.1805522"><ele>386.0</ele><time>2026-03-29T10:57:04.403Z</time></trkpt><trkpt lat="43.132905" lon="12.1804927"><ele>386.0</ele><time>2026-03-29T10:57:05.405Z</time></trkpt><trkpt lat="43.1327246" lon="12.18042"><ele>386.0</ele><time>2026-03-29T10:57:06.404Z</time></trkpt><trkpt lat="43.1325425" lon="12.180338"><ele>386.0</ele><time>2026-03-29T10:57:07.405Z</time></trkpt><trkpt lat="43.1323757" lon="12.1802669"><ele>385.0</ele><time>2026-03-29T10:57:08.403Z</time></trkpt><trkpt lat="43.1322193" lon="12.1801852"><ele>384.0</ele><time>2026-03-29T10:57:09.404Z</time></trkpt><trkpt lat="43.1320588" lon="12.1801075"><ele>383.0</ele><time>2026-03-29T10:57:10.403Z</time></trkpt><trkpt lat="43.1318981" lon="12.1800448"><ele>383.0</ele><time>2026-03-29T10:57:11.403Z</time></trkpt><trkpt lat="43.1317466" lon="12.1799932"><ele>383.0</ele><time>2026-03-29T10:57:12.404Z</time></trkpt><trkpt lat="43.1316073" lon="12.1799356"><ele>383.0</ele><time>2026-03-29T10:57:13.404Z</time></trkpt><trkpt lat="43.131476" lon="12.1798482"><ele>383.0</ele><time>2026-03-29T10:57:14.404Z</time></trkpt><trkpt lat="43.1313234" lon="12.1797486"><ele>381.0</ele><time>2026-03-29T10:57:15.404Z</time></trkpt><trkpt lat="43.1311616" lon="12.179665"><ele>379.0</ele><time>2026-03-29T10:57:16.404Z</time></trkpt><trkpt lat="43.1309945" lon="12.179602"><ele>377.0</ele><time>2026-03-29T10:57:17.403Z</time></trkpt><trkpt lat="43.1308358" lon="12.1795387"><ele>377.6666666666667</ele><time>2026-03-29T10:57:18.402Z</time></trkpt><trkpt lat="43.1306813" lon="12.179475"><ele>378.3333333333333</ele><time>2026-03-29T10:57:19.404Z</time></trkpt><trkpt lat="43.1305369" lon="12.1794177"><ele>379.0</ele><time>2026-03-29T10:57:20.403Z</time></trkpt><trkpt lat="43.130391" lon="12.1793619"><ele>379.0</ele><time>2026-03-29T10:57:21.405Z</time></trkpt><trkpt lat="43.1302397" lon="12.1793021"><ele>379.0</ele><time>2026-03-29T10:57:22.404Z</time></trkpt><trkpt lat="43.1300916" lon="12.1792312"><ele>379.0</ele><time>2026-03-29T10:57:23.404Z</time></trkpt><trkpt lat="43.1299403" lon="12.1791639"><ele>378.0</ele><time>2026-03-29T10:57:24.405Z</time></trkpt><trkpt lat="43.1297876" lon="12.1790979"><ele>377.0</ele><time>2026-03-29T10:57:25.403Z</time></trkpt><trkpt lat="43.1296279" lon="12.1790275"><ele>376.0</ele><time>2026-03-29T10:57:26.404Z</time></trkpt><trkpt lat="43.1294731" lon="12.1789508"><ele>376.0</ele><time>2026-03-29T10:57:27.405Z</time></trkpt><trkpt lat="43.129317" lon="12.1788739"><ele>376.0</ele><time>2026-03-29T10:57:28.404Z</time></trkpt><trkpt lat="43.1291584" lon="12.1787935"><ele>376.0</ele><time>2026-03-29T10:57:29.404Z</time></trkpt><trkpt lat="43.1290059" lon="12.178711"><ele>376.0</ele><time>2026-03-29T10:57:30.403Z</time></trkpt><trkpt lat="43.1288492" lon="12.1786271"><ele>376.0</ele><time>2026-03-29T10:57:31.405Z</time></trkpt><trkpt lat="43.1286936" lon="12.1785456"><ele>376.0</ele><time>2026-03-29T10:57:32.405Z</time></trkpt><trkpt lat="43.1285395" lon="12.1784668"><ele>376.0</ele><time>2026-03-29T10:57:33.404Z</time></trkpt><trkpt lat="43.1283981" lon="12.1783845"><ele>376.0</ele><time>2026-03-29T10:57:34.403Z</time></trkpt><trkpt lat="43.1282548" lon="12.1782867"><ele>376.0</ele><time>2026-03-29T10:57:35.404Z</time></trkpt><trkpt lat="43.1281139" lon="12.1781797"><ele>375.0</ele><time>2026-03-29T10:57:36.404Z</time></trkpt><trkpt lat="43.1279854" lon="12.1780549"><ele>374.0</ele><time>2026-03-29T10:57:37.405Z</time></trkpt><trkpt lat="43.1278678" lon="12.1779145"><ele>373.0</ele><time>2026-03-29T10:57:38.404Z</time></trkpt><trkpt lat="43.1277506" lon="12.1777662"><ele>373.0</ele><time>2026-03-29T10:57:39.404Z</time></trkpt><trkpt lat="43.1276369" lon="12.1776199"><ele>373.0</ele><time>2026-03-29T10:57:40.404Z</time></trkpt><trkpt lat="43.1275396" lon="12.177488"><ele>373.0</ele><time>2026-03-29T10:57:41.404Z</time></trkpt><trkpt lat="43.1274436" lon="12.1773727"><ele>373.0</ele><time>2026-03-29T10:57:42.405Z</time></trkpt><trkpt lat="43.1273685" lon="12.1773271"><ele>373.4</ele><time>2026-03-29T10:57:43.404Z</time></trkpt><trkpt lat="43.1272864" lon="12.177282"><ele>373.79999999999995</ele><time>2026-03-29T10:57:44.404Z</time></trkpt><trkpt lat="43.127166" lon="12.1773194"><ele>374.2</ele><time>2026-03-29T10:57:46.403Z</time></trkpt><trkpt lat="43.1271098" lon="12.1774319"><ele>374.6</ele><time>2026-03-29T10:57:47.403Z</time></trkpt><trkpt lat="43.1270379" lon="12.1775568"><ele>375.0</ele><time>2026-03-29T10:57:48.403Z</time></trkpt><trkpt lat="43.126927" lon="12.1776804"><ele>375.0</ele><time>2026-03-29T10:57:49.404Z</time></trkpt><trkpt lat="43.1268305" lon="12.1777794"><ele>375.0</ele><time>2026-03-29T10:57:50.403Z</time></trkpt><trkpt lat="43.1267387" lon="12.17784"><ele>375.0</ele><time>2026-03-29T10:57:51.404Z</time></trkpt><trkpt lat="43.1266342" lon="12.1778739"><ele>375.0</ele><time>2026-03-29T10:57:52.404Z</time></trkpt><trkpt lat="43.1265069" lon="12.1778938"><ele>378.33333333333337</ele><time>2026-03-29T10:57:53.404Z</time></trkpt><trkpt lat="43.1263631" lon="12.1779045"><ele>381.6666666666667</ele><time>2026-03-29T10:57:54.404Z</time></trkpt><trkpt lat="43.1261844" lon="12.1779167"><ele>385.0</ele><time>2026-03-29T10:57:55.403Z</time></trkpt><trkpt lat="43.1260308" lon="12.1779275"><ele>385.0</ele><time>2026-03-29T10:57:56.404Z</time></trkpt><trkpt lat="43.1258818" lon="12.1779432"><ele>385.0</ele><time>2026-03-29T10:57:57.403Z</time></trkpt><trkpt lat="43.1257392" lon="12.1779629"><ele>385.0</ele><time>2026-03-29T10:57:58.405Z</time></trkpt><trkpt lat="43.1256086" lon="12.1780073"><ele>385.0</ele><time>2026-03-29T10:57:59.404Z</time></trkpt><trkpt lat="43.1254866" lon="12.1780727"><ele>384.25</ele><time>2026-03-29T10:58:00.403Z</time></trkpt><trkpt lat="43.1253686" lon="12.1781555"><ele>383.5</ele><time>2026-03-29T10:58:01.403Z</time></trkpt><trkpt lat="43.1252715" lon="12.1782653"><ele>382.75</ele><time>2026-03-29T10:58:02.404Z</time></trkpt><trkpt lat="43.1251854" lon="12.1784223"><ele>382.0</ele><time>2026-03-29T10:58:03.404Z</time></trkpt><trkpt lat="43.1251" lon="12.1785669"><ele>382.0</ele><time>2026-03-29T10:58:04.405Z</time></trkpt><trkpt lat="43.1250121" lon="12.1786839"><ele>382.0</ele><time>2026-03-29T10:58:05.403Z</time></trkpt><trkpt lat="43.1249396" lon="12.1787913"><ele>382.0</ele><time>2026-03-29T10:58:06.405Z</time></trkpt><trkpt lat="43.1248698" lon="12.1789065"><ele>382.0</ele><time>2026-03-29T10:58:07.403Z</time></trkpt><trkpt lat="43.1248318" lon="12.1790527"><ele>380.5</ele><time>2026-03-29T10:58:08.403Z</time></trkpt><trkpt lat="43.1247995" lon="12.1792063"><ele>379.0</ele><time>2026-03-29T10:58:09.405Z</time></trkpt><trkpt lat="43.1247741" lon="12.1793561"><ele>377.5</ele><time>2026-03-29T10:58:10.405Z</time></trkpt><trkpt lat="43.1247546" lon="12.1794961"><ele>376.0</ele><time>2026-03-29T10:58:11.404Z</time></trkpt><trkpt lat="43.1247412" lon="12.1796549"><ele>376.0</ele><time>2026-03-29T10:58:12.404Z</time></trkpt><trkpt lat="43.1247295" lon="12.1798207"><ele>376.0</ele><time>2026-03-29T10:58:13.403Z</time></trkpt><trkpt lat="43.1247197" lon="12.1799531"><ele>376.0</ele><time>2026-03-29T10:58:14.404Z</time></trkpt><trkpt lat="43.1247079" lon="12.1800807"><ele>376.0</ele><time>2026-03-29T10:58:15.404Z</time></trkpt><trkpt lat="43.1247005" lon="12.1802092"><ele>376.0</ele><time>2026-03-29T10:58:16.403Z</time></trkpt><trkpt lat="43.1246846" lon="12.1803485"><ele>378.0</ele><time>2026-03-29T10:58:17.405Z</time></trkpt><trkpt lat="43.1246803" lon="12.1804877"><ele>380.0</ele><time>2026-03-29T10:58:18.404Z</time></trkpt><trkpt lat="43.124673" lon="12.1806375"><ele>382.0</ele><time>2026-03-29T10:58:19.403Z</time></trkpt><trkpt lat="43.1246731" lon="12.180818"><ele>384.0</ele><time>2026-03-29T10:58:20.404Z</time></trkpt><trkpt lat="43.1246959" lon="12.1809662"><ele>384.0</ele><time>2026-03-29T10:58:21.403Z</time></trkpt><trkpt lat="43.1247208" lon="12.1811284"><ele>384.0</ele><time>2026-03-29T10:58:22.404Z</time></trkpt><trkpt lat="43.1247397" lon="12.1812954"><ele>384.0</ele><time>2026-03-29T10:58:23.404Z</time></trkpt><trkpt lat="43.1247539" lon="12.18147"><ele>384.0</ele><time>2026-03-29T10:58:24.404Z</time></trkpt><trkpt lat="43.1247632" lon="12.181644"><ele>384.79999999999995</ele><time>2026-03-29T10:58:25.405Z</time></trkpt><trkpt lat="43.1247749" lon="12.1818144"><ele>385.59999999999997</ele><time>2026-03-29T10:58:26.404Z</time></trkpt><trkpt lat="43.1247876" lon="12.1819762"><ele>386.4</ele><time>2026-03-29T10:58:27.404Z</time></trkpt><trkpt lat="43.1247952" lon="12.1821208"><ele>387.2</ele><time>2026-03-29T10:58:28.404Z</time></trkpt><trkpt lat="43.1247899" lon="12.182252"><ele>388.0</ele><time>2026-03-29T10:58:29.404Z</time></trkpt><trkpt lat="43.1247724" lon="12.1823734"><ele>388.0</ele><time>2026-03-29T10:58:30.404Z</time></trkpt><trkpt lat="43.1247284" lon="12.1824843"><ele>388.0</ele><time>2026-03-29T10:58:31.405Z</time></trkpt><trkpt lat="43.1246749" lon="12.1825858"><ele>388.0</ele><time>2026-03-29T10:58:32.404Z</time></trkpt><trkpt lat="43.1245903" lon="12.1826852"><ele>388.0</ele><time>2026-03-29T10:58:33.404Z</time></trkpt><trkpt lat="43.1245061" lon="12.1827604"><ele>388.0</ele><time>2026-03-29T10:58:34.404Z</time></trkpt><trkpt lat="43.1244039" lon="12.1828055"><ele>388.0</ele><time>2026-03-29T10:58:35.403Z</time></trkpt><trkpt lat="43.1242948" lon="12.1828537"><ele>388.0</ele><time>2026-03-29T10:58:36.404Z</time></trkpt><trkpt lat="43.124194" lon="12.1829068"><ele>388.0</ele><time>2026-03-29T10:58:37.406Z</time></trkpt><trkpt lat="43.1241207" lon="12.182961"><ele>388.0</ele><time>2026-03-29T10:58:38.404Z</time></trkpt><trkpt lat="43.1240532" lon="12.1830374"><ele>388.0</ele><time>2026-03-29T10:58:39.403Z</time></trkpt><trkpt lat="43.1239764" lon="12.1830517"><ele>388.00000000000006</ele><time>2026-03-29T10:58:40.405Z</time></trkpt><trkpt lat="43.1238947" lon="12.183035"><ele>388.0</ele><time>2026-03-29T10:58:41.404Z</time></trkpt><trkpt lat="43.123811" lon="12.1830159"><ele>388.0</ele><time>2026-03-29T10:58:42.405Z</time></trkpt><trkpt lat="43.1237245" lon="12.1830328"><ele>388.0</ele><time>2026-03-29T10:58:43.405Z</time></trkpt><trkpt lat="43.1236487" lon="12.1830709"><ele>388.00000000000006</ele><time>2026-03-29T10:58:44.403Z</time></trkpt><trkpt lat="43.123582" lon="12.1831218"><ele>388.0</ele><time>2026-03-29T10:58:45.404Z</time></trkpt><trkpt lat="43.1235531" lon="12.1832167"><ele>389.59999999999997</ele><time>2026-03-29T10:58:46.404Z</time></trkpt><trkpt lat="43.1235127" lon="12.183307"><ele>391.2</ele><time>2026-03-29T10:58:47.405Z</time></trkpt><trkpt lat="43.1234706" lon="12.1833827"><ele>392.8</ele><time>2026-03-29T10:58:48.403Z</time></trkpt><trkpt lat="43.1233942" lon="12.1835203"><ele>394.4</ele><time>2026-03-29T10:58:50.405Z</time></trkpt><trkpt lat="43.1233557" lon="12.1836714"><ele>396.0</ele><time>2026-03-29T10:58:52.405Z</time></trkpt><trkpt lat="43.1232384" lon="12.1837134"><ele>395.20000000000005</ele><time>2026-03-29T10:58:54.404Z</time></trkpt><trkpt lat="43.1231449" lon="12.1837698"><ele>394.40000000000003</ele><time>2026-03-29T10:58:55.404Z</time></trkpt><trkpt lat="43.123055" lon="12.1838246"><ele>393.6</ele><time>2026-03-29T10:58:56.404Z</time></trkpt><trkpt lat="43.1229535" lon="12.1838557"><ele>392.8</ele><time>2026-03-29T10:58:57.406Z</time></trkpt><trkpt lat="43.1228446" lon="12.1838783"><ele>392.0</ele><time>2026-03-29T10:58:58.404Z</time></trkpt><trkpt lat="43.1227325" lon="12.1839063"><ele>392.0</ele><time>2026-03-29T10:58:59.404Z</time></trkpt><trkpt lat="43.122633" lon="12.1839309"><ele>392.0</ele><time>2026-03-29T10:59:00.404Z</time></trkpt><trkpt lat="43.1225381" lon="12.1839565"><ele>392.0</ele><time>2026-03-29T10:59:01.405Z</time></trkpt><trkpt lat="43.1224573" lon="12.1839868"><ele>392.0</ele><time>2026-03-29T10:59:02.403Z</time></trkpt><trkpt lat="43.1223777" lon="12.1840477"><ele>392.0</ele><time>2026-03-29T10:59:03.403Z</time></trkpt><trkpt lat="43.122303" lon="12.18413"><ele>394.6</ele><time>2026-03-29T10:59:04.404Z</time></trkpt><trkpt lat="43.1222358" lon="12.1842252"><ele>397.20000000000005</ele><time>2026-03-29T10:59:05.405Z</time></trkpt><trkpt lat="43.1221661" lon="12.1843207"><ele>399.8</ele><time>2026-03-29T10:59:06.405Z</time></trkpt><trkpt lat="43.1221033" lon="12.1844266"><ele>402.4</ele><time>2026-03-29T10:59:07.404Z</time></trkpt><trkpt lat="43.1220676" lon="12.1845378"><ele>405.0</ele><time>2026-03-29T10:59:08.404Z</time></trkpt><trkpt lat="43.1220435" lon="12.184651"><ele>405.0</ele><time>2026-03-29T10:59:09.403Z</time></trkpt><trkpt lat="43.1220179" lon="12.184778"><ele>405.0</ele><time>2026-03-29T10:59:10.403Z</time></trkpt><trkpt lat="43.1219791" lon="12.1848989"><ele>405.0</ele><time>2026-03-29T10:59:11.404Z</time></trkpt><trkpt lat="43.1219547" lon="12.1850129"><ele>405.0</ele><time>2026-03-29T10:59:12.405Z</time></trkpt><trkpt lat="43.1218943" lon="12.1850983"><ele>405.0</ele><time>2026-03-29T10:59:13.404Z</time></trkpt><trkpt lat="43.1218268" lon="12.1851774"><ele>405.0</ele><time>2026-03-29T10:59:14.404Z</time></trkpt><trkpt lat="43.1217527" lon="12.1852408"><ele>405.0</ele><time>2026-03-29T10:59:15.404Z</time></trkpt><trkpt lat="43.1216774" lon="12.185309"><ele>405.0</ele><time>2026-03-29T10:59:16.404Z</time></trkpt><trkpt lat="43.1216016" lon="12.1853848"><ele>405.0</ele><time>2026-03-29T10:59:17.403Z</time></trkpt><trkpt lat="43.1215347" lon="12.1854525"><ele>405.0</ele><time>2026-03-29T10:59:18.405Z</time></trkpt><trkpt lat="43.1214577" lon="12.1855393"><ele>404.2</ele><time>2026-03-29T10:59:19.405Z</time></trkpt><trkpt lat="43.1213717" lon="12.1856284"><ele>403.4</ele><time>2026-03-29T10:59:20.404Z</time></trkpt><trkpt lat="43.121286" lon="12.1857055"><ele>402.6</ele><time>2026-03-29T10:59:21.405Z</time></trkpt><trkpt lat="43.1212101" lon="12.185792"><ele>401.8</ele><time>2026-03-29T10:59:22.403Z</time></trkpt><trkpt lat="43.1211529" lon="12.1858757"><ele>401.0</ele><time>2026-03-29T10:59:23.404Z</time></trkpt><trkpt lat="43.1211224" lon="12.185961"><ele>400.99999999999994</ele><time>2026-03-29T10:59:24.403Z</time></trkpt><trkpt lat="43.121106" lon="12.1860591"><ele>401.0</ele><time>2026-03-29T10:59:25.404Z</time></trkpt><trkpt lat="43.1210944" lon="12.1861489"><ele>401.0</ele><time>2026-03-29T10:59:26.403Z</time></trkpt><trkpt lat="43.1210727" lon="12.1862819"><ele>401.0</ele><time>2026-03-29T10:59:28.405Z</time></trkpt><trkpt lat="43.1210223" lon="12.1864153"><ele>400.99999999999994</ele><time>2026-03-29T10:59:30.405Z</time></trkpt><trkpt lat="43.1209653" lon="12.1864786"><ele>401.0</ele><time>2026-03-29T10:59:31.405Z</time></trkpt><trkpt lat="43.1209114" lon="12.1865513"><ele>400.0</ele><time>2026-03-29T10:59:32.403Z</time></trkpt><trkpt lat="43.1208373" lon="12.1866429"><ele>399.0</ele><time>2026-03-29T10:59:33.404Z</time></trkpt><trkpt lat="43.1207915" lon="12.1867161"><ele>398.0</ele><time>2026-03-29T10:59:34.404Z</time></trkpt><trkpt lat="43.1207238" lon="12.1868157"><ele>397.0</ele><time>2026-03-29T10:59:36.405Z</time></trkpt><trkpt lat="43.1206293" lon="12.1869037"><ele>396.0</ele><time>2026-03-29T10:59:40.403Z</time></trkpt><trkpt lat="43.120551" lon="12.1869615"><ele>395.6</ele><time>2026-03-29T10:59:41.404Z</time></trkpt><trkpt lat="43.1204621" lon="12.1870257"><ele>395.20000000000005</ele><time>2026-03-29T10:59:42.405Z</time></trkpt><trkpt lat="43.1203733" lon="12.1870934"><ele>394.79999999999995</ele><time>2026-03-29T10:59:43.404Z</time></trkpt><trkpt lat="43.1202823" lon="12.1871507"><ele>394.4</ele><time>2026-03-29T10:59:44.403Z</time></trkpt><trkpt lat="43.120196" lon="12.1872058"><ele>394.0</ele><time>2026-03-29T10:59:45.404Z</time></trkpt><trkpt lat="43.1201253" lon="12.1872729"><ele>394.00000000000006</ele><time>2026-03-29T10:59:46.404Z</time></trkpt><trkpt lat="43.1200621" lon="12.1873388"><ele>394.0</ele><time>2026-03-29T10:59:47.403Z</time></trkpt><trkpt lat="43.119999" lon="12.1874108"><ele>394.0</ele><time>2026-03-29T10:59:48.404Z</time></trkpt><trkpt lat="43.1199457" lon="12.1874899"><ele>394.0</ele><time>2026-03-29T10:59:49.405Z</time></trkpt><trkpt lat="43.1198994" lon="12.1875636"><ele>394.00000000000006</ele><time>2026-03-29T10:59:50.405Z</time></trkpt><trkpt lat="43.1198164" lon="12.1876139"><ele>394.0</ele><time>2026-03-29T10:59:52.403Z</time></trkpt><trkpt lat="43.1197113" lon="12.1876637"><ele>390.79999999999995</ele><time>2026-03-29T10:59:54.404Z</time></trkpt><trkpt lat="43.1195983" lon="12.1877232"><ele>387.59999999999997</ele><time>2026-03-29T10:59:56.404Z</time></trkpt><trkpt lat="43.1194785" lon="12.1877591"><ele>384.4</ele><time>2026-03-29T10:59:58.404Z</time></trkpt><trkpt lat="43.1194115" lon="12.1878135"><ele>381.2</ele><time>2026-03-29T10:59:59.403Z</time></trkpt><trkpt lat="43.1193533" lon="12.1878779"><ele>378.0</ele><time>2026-03-29T11:00:00.404Z</time></trkpt><trkpt lat="43.1192943" lon="12.1879294"><ele>378.0</ele><time>2026-03-29T11:00:01.404Z</time></trkpt><trkpt lat="43.1192331" lon="12.1879712"><ele>378.0</ele><time>2026-03-29T11:00:02.404Z</time></trkpt><trkpt lat="43.1191761" lon="12.1880135"><ele>378.0</ele><time>2026-03-29T11:00:03.404Z</time></trkpt><trkpt lat="43.1190817" lon="12.1881241"><ele>378.0</ele><time>2026-03-29T11:00:05.404Z</time></trkpt><trkpt lat="43.1190494" lon="12.188212"><ele>378.0</ele><time>2026-03-29T11:00:06.404Z</time></trkpt><trkpt lat="43.1190137" lon="12.1883047"><ele>378.0</ele><time>2026-03-29T11:00:07.405Z</time></trkpt><trkpt lat="43.1189709" lon="12.188391"><ele>377.0</ele><time>2026-03-29T11:00:08.404Z</time></trkpt><trkpt lat="43.118906" lon="12.188469"><ele>376.0</ele><time>2026-03-29T11:00:09.404Z</time></trkpt><trkpt lat="43.1188526" lon="12.1885468"><ele>375.0</ele><time>2026-03-29T11:00:10.405Z</time></trkpt><trkpt lat="43.1187967" lon="12.1886283"><ele>374.0</ele><time>2026-03-29T11:00:11.405Z</time></trkpt><trkpt lat="43.1187358" lon="12.1886981"><ele>373.0</ele><time>2026-03-29T11:00:12.404Z</time></trkpt><trkpt lat="43.1186753" lon="12.1887667"><ele>372.0</ele><time>2026-03-29T11:00:13.405Z</time></trkpt><trkpt lat="43.1186191" lon="12.1888321"><ele>372.0</ele><time>2026-03-29T11:00:14.404Z</time></trkpt><trkpt lat="43.1185513" lon="12.1888793"><ele>372.0</ele><time>2026-03-29T11:00:15.404Z</time></trkpt><trkpt lat="43.1184326" lon="12.1889381"><ele>372.0</ele><time>2026-03-29T11:00:17.404Z</time></trkpt><trkpt lat="43.1183627" lon="12.1889669"><ele>372.0</ele><time>2026-03-29T11:00:18.405Z</time></trkpt><trkpt lat="43.1183094" lon="12.1890155"><ele>372.0</ele><time>2026-03-29T11:00:19.405Z</time></trkpt><trkpt lat="43.1182318" lon="12.1890329"><ele>372.0</ele><time>2026-03-29T11:00:20.403Z</time></trkpt><trkpt lat="43.1181503" lon="12.1890377"><ele>373.0</ele><time>2026-03-29T11:00:21.406Z</time></trkpt><trkpt lat="43.1180818" lon="12.1890388"><ele>374.0</ele><time>2026-03-29T11:00:22.404Z</time></trkpt><trkpt lat="43.1180202" lon="12.1890613"><ele>375.0</ele><time>2026-03-29T11:00:23.404Z</time></trkpt><trkpt lat="43.1179512" lon="12.1890872"><ele>376.0</ele><time>2026-03-29T11:00:24.406Z</time></trkpt><trkpt lat="43.1178693" lon="12.189108"><ele>377.0</ele><time>2026-03-29T11:00:25.406Z</time></trkpt><trkpt lat="43.1177804" lon="12.1891086"><ele>378.0</ele><time>2026-03-29T11:00:26.404Z</time></trkpt><trkpt lat="43.117696" lon="12.1890843"><ele>378.0</ele><time>2026-03-29T11:00:27.403Z</time></trkpt><trkpt lat="43.1176099" lon="12.189072"><ele>378.0</ele><time>2026-03-29T11:00:28.405Z</time></trkpt><trkpt lat="43.11749" lon="12.1890883"><ele>378.0</ele><time>2026-03-29T11:00:30.405Z</time></trkpt><trkpt lat="43.1173846" lon="12.1891657"><ele>378.0</ele><time>2026-03-29T11:00:32.404Z</time></trkpt><trkpt lat="43.1172658" lon="12.1892277"><ele>375.1666666666667</ele><time>2026-03-29T11:00:34.405Z</time></trkpt><trkpt lat="43.1171785" lon="12.189326"><ele>372.3333333333333</ele><time>2026-03-29T11:00:36.404Z</time></trkpt><trkpt lat="43.1170823" lon="12.1893969"><ele>369.5</ele><time>2026-03-29T11:00:38.404Z</time></trkpt><trkpt lat="43.1170222" lon="12.1894563"><ele>366.66666666666663</ele><time>2026-03-29T11:00:40.405Z</time></trkpt><trkpt lat="43.117007" lon="12.189564"><ele>363.8333333333333</ele><time>2026-03-29T11:00:42.406Z</time></trkpt><trkpt lat="43.1169711" lon="12.189637"><ele>361.0</ele><time>2026-03-29T11:00:43.404Z</time></trkpt><trkpt lat="43.1169329" lon="12.1897201"><ele>361.6</ele><time>2026-03-29T11:00:44.404Z</time></trkpt><trkpt lat="43.116914" lon="12.1898904"><ele>362.20000000000005</ele><time>2026-03-29T11:00:46.406Z</time></trkpt><trkpt lat="43.1169068" lon="12.1899847"><ele>362.79999999999995</ele><time>2026-03-29T11:00:47.404Z</time></trkpt><trkpt lat="43.1168709" lon="12.1900814"><ele>363.4</ele><time>2026-03-29T11:00:48.403Z</time></trkpt><trkpt lat="43.1168001" lon="12.1901779"><ele>364.0</ele><time>2026-03-29T11:00:49.403Z</time></trkpt><trkpt lat="43.1167322" lon="12.1902727"><ele>364.0</ele><time>2026-03-29T11:00:50.404Z</time></trkpt><trkpt lat="43.1166704" lon="12.1903642"><ele>364.0</ele><time>2026-03-29T11:00:51.404Z</time></trkpt><trkpt lat="43.1165956" lon="12.1904605"><ele>364.0</ele><time>2026-03-29T11:00:52.404Z</time></trkpt><trkpt lat="43.116535" lon="12.1905565"><ele>364.0</ele><time>2026-03-29T11:00:53.403Z</time></trkpt><trkpt lat="43.1164713" lon="12.1906427"><ele>364.0</ele><time>2026-03-29T11:00:54.404Z</time></trkpt><trkpt lat="43.1164164" lon="12.1907316"><ele>364.16666666666663</ele><time>2026-03-29T11:00:55.405Z</time></trkpt><trkpt lat="43.1163794" lon="12.1908149"><ele>364.3333333333333</ele><time>2026-03-29T11:00:56.405Z</time></trkpt><trkpt lat="43.1163475" lon="12.1908912"><ele>364.5</ele><time>2026-03-29T11:00:57.404Z</time></trkpt><trkpt lat="43.1163007" lon="12.191027"><ele>364.6666666666667</ele><time>2026-03-29T11:00:59.403Z</time></trkpt><trkpt lat="43.1162478" lon="12.1911409"><ele>364.83333333333337</ele><time>2026-03-29T11:01:01.404Z</time></trkpt><trkpt lat="43.1161837" lon="12.1912184"><ele>365.0</ele><time>2026-03-29T11:01:02.404Z</time></trkpt><trkpt lat="43.116132" lon="12.1913033"><ele>365.0</ele><time>2026-03-29T11:01:03.406Z</time></trkpt><trkpt lat="43.1160634" lon="12.1913896"><ele>365.0</ele><time>2026-03-29T11:01:04.405Z</time></trkpt><trkpt lat="43.1160114" lon="12.1914979"><ele>365.0</ele><time>2026-03-29T11:01:05.405Z</time></trkpt><trkpt lat="43.1159549" lon="12.1916152"><ele>365.0</ele><time>2026-03-29T11:01:06.405Z</time></trkpt><trkpt lat="43.1159103" lon="12.1917217"><ele>365.0</ele><time>2026-03-29T11:01:07.405Z</time></trkpt><trkpt lat="43.1158852" lon="12.1918403"><ele>363.83333333333337</ele><time>2026-03-29T11:01:08.404Z</time></trkpt><trkpt lat="43.1158805" lon="12.1919748"><ele>362.6666666666667</ele><time>2026-03-29T11:01:09.405Z</time></trkpt><trkpt lat="43.1158721" lon="12.1921045"><ele>361.5</ele><time>2026-03-29T11:01:10.404Z</time></trkpt><trkpt lat="43.1158573" lon="12.1922061"><ele>360.3333333333333</ele><time>2026-03-29T11:01:11.405Z</time></trkpt><trkpt lat="43.115825" lon="12.1922924"><ele>359.16666666666663</ele><time>2026-03-29T11:01:12.406Z</time></trkpt><trkpt lat="43.1157863" lon="12.1923605"><ele>358.0</ele><time>2026-03-29T11:01:13.404Z</time></trkpt><trkpt lat="43.115719" lon="12.1923933"><ele>357.16666666666663</ele><time>2026-03-29T11:01:14.404Z</time></trkpt><trkpt lat="43.1156447" lon="12.1924439"><ele>356.3333333333333</ele><time>2026-03-29T11:01:15.405Z</time></trkpt><trkpt lat="43.115559" lon="12.1925027"><ele>355.5</ele><time>2026-03-29T11:01:16.404Z</time></trkpt><trkpt lat="43.1154723" lon="12.1925471"><ele>354.6666666666667</ele><time>2026-03-29T11:01:17.404Z</time></trkpt><trkpt lat="43.115387" lon="12.1925791"><ele>353.83333333333337</ele><time>2026-03-29T11:01:18.404Z</time></trkpt><trkpt lat="43.1153038" lon="12.1926208"><ele>353.0</ele><time>2026-03-29T11:01:19.403Z</time></trkpt><trkpt lat="43.1152392" lon="12.1926634"><ele>353.0</ele><time>2026-03-29T11:01:20.405Z</time></trkpt><trkpt lat="43.1151579" lon="12.1927084"><ele>353.0</ele><time>2026-03-29T11:01:21.405Z</time></trkpt><trkpt lat="43.1151276" lon="12.1927956"><ele>353.0</ele><time>2026-03-29T11:01:22.404Z</time></trkpt><trkpt lat="43.1150923" lon="12.1928811"><ele>353.0</ele><time>2026-03-29T11:01:23.405Z</time></trkpt><trkpt lat="43.1150467" lon="12.1930027"><ele>353.0</ele><time>2026-03-29T11:01:25.403Z</time></trkpt><trkpt lat="43.11501" lon="12.1931082"><ele>353.0</ele><time>2026-03-29T11:01:27.405Z</time></trkpt><trkpt lat="43.1150199" lon="12.1931956"><ele>350.6666666666667</ele><time>2026-03-29T11:02:12.406Z</time></trkpt><trkpt lat="43.1150971" lon="12.1932346"><ele>348.33333333333337</ele><time>2026-03-29T11:02:14.405Z</time></trkpt><trkpt lat="43.1151771" lon="12.1932449"><ele>346.0</ele><time>2026-03-29T11:02:15.404Z</time></trkpt><trkpt lat="43.1152545" lon="12.193267"><ele>343.6666666666667</ele><time>2026-03-29T11:02:16.406Z</time></trkpt><trkpt lat="43.1153302" lon="12.1933137"><ele>341.3333333333333</ele><time>2026-03-29T11:02:17.404Z</time></trkpt><trkpt lat="43.1154147" lon="12.1933707"><ele>339.0</ele><time>2026-03-29T11:02:18.404Z</time></trkpt><trkpt lat="43.1155106" lon="12.1934213"><ele>339.0</ele><time>2026-03-29T11:02:19.404Z</time></trkpt><trkpt lat="43.1156032" lon="12.1934794"><ele>339.0</ele><time>2026-03-29T11:02:20.404Z</time></trkpt><trkpt lat="43.1156937" lon="12.1935397"><ele>339.0</ele><time>2026-03-29T11:02:21.404Z</time></trkpt><trkpt lat="43.1157775" lon="12.1936103"><ele>339.0</ele><time>2026-03-29T11:02:22.405Z</time></trkpt><trkpt lat="43.1158484" lon="12.193704"><ele>339.0</ele><time>2026-03-29T11:02:23.403Z</time></trkpt><trkpt lat="43.1159069" lon="12.1937957"><ele>337.0</ele><time>2026-03-29T11:02:24.405Z</time></trkpt><trkpt lat="43.1159618" lon="12.193868"><ele>335.0</ele><time>2026-03-29T11:02:25.406Z</time></trkpt><trkpt lat="43.1160195" lon="12.1939229"><ele>333.0</ele><time>2026-03-29T11:02:26.404Z</time></trkpt><trkpt lat="43.1160821" lon="12.1939477"><ele>331.0</ele><time>2026-03-29T11:02:27.404Z</time></trkpt><trkpt lat="43.1161517" lon="12.1939509"><ele>329.0</ele><time>2026-03-29T11:02:28.404Z</time></trkpt><trkpt lat="43.1162293" lon="12.1939583"><ele>327.0</ele><time>2026-03-29T11:02:29.403Z</time></trkpt><trkpt lat="43.1163086" lon="12.193976"><ele>325.0</ele><time>2026-03-29T11:02:30.404Z</time></trkpt><trkpt lat="43.1163759" lon="12.1940288"><ele>323.0</ele><time>2026-03-29T11:02:31.405Z</time></trkpt><trkpt lat="43.1164396" lon="12.1941497"><ele>321.0</ele><time>2026-03-29T11:02:32.406Z</time></trkpt><trkpt lat="43.116506" lon="12.1942646"><ele>319.0</ele><time>2026-03-29T11:02:33.404Z</time></trkpt><trkpt lat="43.1165662" lon="12.1943745"><ele>317.0</ele><time>2026-03-29T11:02:34.405Z</time></trkpt><trkpt lat="43.1166205" lon="12.1944553"><ele>315.0</ele><time>2026-03-29T11:02:35.404Z</time></trkpt><trkpt lat="43.1167013" lon="12.1945238"><ele>312.8</ele><time>2026-03-29T11:02:37.404Z</time></trkpt><trkpt lat="43.1167887" lon="12.1945727"><ele>310.6</ele><time>2026-03-29T11:02:39.406Z</time></trkpt><trkpt lat="43.1168446" lon="12.194645"><ele>308.4</ele><time>2026-03-29T11:02:40.404Z</time></trkpt><trkpt lat="43.1169219" lon="12.1947902"><ele>306.2</ele><time>2026-03-29T11:02:41.406Z</time></trkpt><trkpt lat="43.1170148" lon="12.1949396"><ele>304.0</ele><time>2026-03-29T11:02:42.405Z</time></trkpt><trkpt lat="43.117104" lon="12.1950908"><ele>302.66666666666663</ele><time>2026-03-29T11:02:43.404Z</time></trkpt><trkpt lat="43.1171935" lon="12.1952595"><ele>301.3333333333333</ele><time>2026-03-29T11:02:44.403Z</time></trkpt><trkpt lat="43.1172789" lon="12.1954319"><ele>300.0</ele><time>2026-03-29T11:02:45.404Z</time></trkpt><trkpt lat="43.1173605" lon="12.1956021"><ele>297.0</ele><time>2026-03-29T11:02:46.403Z</time></trkpt><trkpt lat="43.1174383" lon="12.1957413"><ele>294.0</ele><time>2026-03-29T11:02:47.404Z</time></trkpt><trkpt lat="43.1175085" lon="12.1958604"><ele>291.0</ele><time>2026-03-29T11:02:48.403Z</time></trkpt><trkpt lat="43.1175797" lon="12.1959398"><ele>288.0</ele><time>2026-03-29T11:02:49.405Z</time></trkpt><trkpt lat="43.1176446" lon="12.1960031"><ele>285.0</ele><time>2026-03-29T11:02:50.405Z</time></trkpt><trkpt lat="43.1177209" lon="12.1960112"><ele>285.0</ele><time>2026-03-29T11:02:51.404Z</time></trkpt><trkpt lat="43.1178048" lon="12.1960351"><ele>285.0</ele><time>2026-03-29T11:02:52.406Z</time></trkpt><trkpt lat="43.117886" lon="12.1960736"><ele>285.0</ele><time>2026-03-29T11:02:53.405Z</time></trkpt><trkpt lat="43.117958" lon="12.1961427"><ele>285.0</ele><time>2026-03-29T11:02:54.405Z</time></trkpt><trkpt lat="43.1180279" lon="12.1962393"><ele>285.0</ele><time>2026-03-29T11:02:55.405Z</time></trkpt><trkpt lat="43.1180922" lon="12.1963538"><ele>285.0</ele><time>2026-03-29T11:02:56.404Z</time></trkpt><trkpt lat="43.1181221" lon="12.1964775"><ele>285.0</ele><time>2026-03-29T11:02:57.403Z</time></trkpt><trkpt lat="43.1181454" lon="12.1965999"><ele>285.0</ele><time>2026-03-29T11:02:58.404Z</time></trkpt><trkpt lat="43.1181476" lon="12.1967402"><ele>285.0</ele><time>2026-03-29T11:02:59.404Z</time></trkpt><trkpt lat="43.1181435" lon="12.1968817"><ele>285.0</ele><time>2026-03-29T11:03:00.405Z</time></trkpt><trkpt lat="43.1181199" lon="12.1970088"><ele>284.2</ele><time>2026-03-29T11:03:01.404Z</time></trkpt><trkpt lat="43.1180817" lon="12.1971289"><ele>283.4</ele><time>2026-03-29T11:03:02.404Z</time></trkpt><trkpt lat="43.1180306" lon="12.1972386"><ele>282.6</ele><time>2026-03-29T11:03:03.404Z</time></trkpt><trkpt lat="43.1179672" lon="12.1973482"><ele>281.8</ele><time>2026-03-29T11:03:04.404Z</time></trkpt><trkpt lat="43.1179439" lon="12.1974525"><ele>281.0</ele><time>2026-03-29T11:03:05.406Z</time></trkpt><trkpt lat="43.1179296" lon="12.19758"><ele>278.25</ele><time>2026-03-29T11:03:06.405Z</time></trkpt><trkpt lat="43.1179349" lon="12.1976977"><ele>275.5</ele><time>2026-03-29T11:03:07.404Z</time></trkpt><trkpt lat="43.117943" lon="12.1978485"><ele>272.75</ele><time>2026-03-29T11:03:08.404Z</time></trkpt><trkpt lat="43.1179497" lon="12.1980338"><ele>270.0</ele><time>2026-03-29T11:03:09.405Z</time></trkpt><trkpt lat="43.1179538" lon="12.1982292"><ele>267.0</ele><time>2026-03-29T11:03:10.403Z</time></trkpt><trkpt lat="43.1179625" lon="12.198423"><ele>264.0</ele><time>2026-03-29T11:03:11.405Z</time></trkpt><trkpt lat="43.1179761" lon="12.1986251"><ele>261.0</ele><time>2026-03-29T11:03:12.405Z</time></trkpt><trkpt lat="43.117989" lon="12.1988213"><ele>258.0</ele><time>2026-03-29T11:03:13.404Z</time></trkpt><trkpt lat="43.1180124" lon="12.1990156"><ele>256.5</ele><time>2026-03-29T11:03:14.405Z</time></trkpt><trkpt lat="43.1180432" lon="12.1992229"><ele>255.0</ele><time>2026-03-29T11:03:15.405Z</time></trkpt><trkpt lat="43.1180613" lon="12.1994203"><ele>253.5</ele><time>2026-03-29T11:03:16.403Z</time></trkpt><trkpt lat="43.11808" lon="12.1996192"><ele>252.0</ele><time>2026-03-29T11:03:17.404Z</time></trkpt><trkpt lat="43.1181011" lon="12.1997926"><ele>251.0</ele><time>2026-03-29T11:03:18.405Z</time></trkpt><trkpt lat="43.1181142" lon="12.1999643"><ele>250.0</ele><time>2026-03-29T11:03:19.405Z</time></trkpt><trkpt lat="43.1181266" lon="12.2001194"><ele>249.0</ele><time>2026-03-29T11:03:20.404Z</time></trkpt><trkpt lat="43.1181369" lon="12.2002581"><ele>248.0</ele><time>2026-03-29T11:03:21.403Z</time></trkpt><trkpt lat="43.1181438" lon="12.2003636"><ele>247.0</ele><time>2026-03-29T11:03:22.406Z</time></trkpt><trkpt lat="43.1181559" lon="12.2005119"><ele>247.0</ele><time>2026-03-29T11:03:24.405Z</time></trkpt><trkpt lat="43.118184" lon="12.2006211"><ele>247.0</ele><time>2026-03-29T11:03:31.405Z</time></trkpt><trkpt lat="43.118271" lon="12.2007161"><ele>247.0</ele><time>2026-03-29T11:03:33.406Z</time></trkpt><trkpt lat="43.1183471" lon="12.2008595"><ele>247.0</ele><time>2026-03-29T11:03:35.406Z</time></trkpt><trkpt lat="43.1183578" lon="12.2009708"><ele>247.0</ele><time>2026-03-29T11:03:36.405Z</time></trkpt><trkpt lat="43.118358" lon="12.2011162"><ele>246.0</ele><time>2026-03-29T11:03:37.405Z</time></trkpt><trkpt lat="43.1183566" lon="12.2012839"><ele>245.0</ele><time>2026-03-29T11:03:38.405Z</time></trkpt><trkpt lat="43.1183601" lon="12.2014666"><ele>244.0</ele><time>2026-03-29T11:03:39.405Z</time></trkpt><trkpt lat="43.1183612" lon="12.2016603"><ele>243.0</ele><time>2026-03-29T11:03:40.404Z</time></trkpt><trkpt lat="43.1183644" lon="12.201862"><ele>242.75</ele><time>2026-03-29T11:03:41.403Z</time></trkpt><trkpt lat="43.1183656" lon="12.2020535"><ele>242.5</ele><time>2026-03-29T11:03:42.404Z</time></trkpt><trkpt lat="43.1183719" lon="12.2022407"><ele>242.25</ele><time>2026-03-29T11:03:43.404Z</time></trkpt><trkpt lat="43.1183764" lon="12.2024225"><ele>242.0</ele><time>2026-03-29T11:03:44.406Z</time></trkpt><trkpt lat="43.1183787" lon="12.2025949"><ele>242.0</ele><time>2026-03-29T11:03:45.405Z</time></trkpt><trkpt lat="43.1183993" lon="12.2027565"><ele>242.0</ele><time>2026-03-29T11:03:46.405Z</time></trkpt><trkpt lat="43.118401" lon="12.2029179"><ele>242.0</ele><time>2026-03-29T11:03:47.404Z</time></trkpt><trkpt lat="43.1183987" lon="12.2030644"><ele>242.0</ele><time>2026-03-29T11:03:48.404Z</time></trkpt><trkpt lat="43.1183838" lon="12.2032005"><ele>242.0</ele><time>2026-03-29T11:03:49.405Z</time></trkpt><trkpt lat="43.1183194" lon="12.2032865"><ele>242.39999999999998</ele><time>2026-03-29T11:03:50.406Z</time></trkpt><trkpt lat="43.1182282" lon="12.2033379"><ele>242.79999999999998</ele><time>2026-03-29T11:03:51.404Z</time></trkpt><trkpt lat="43.1181188" lon="12.2033673"><ele>243.2</ele><time>2026-03-29T11:03:52.405Z</time></trkpt><trkpt lat="43.1180182" lon="12.2034061"><ele>243.6</ele><time>2026-03-29T11:03:53.404Z</time></trkpt><trkpt lat="43.1179237" lon="12.203455"><ele>244.0</ele><time>2026-03-29T11:03:54.404Z</time></trkpt><trkpt lat="43.117841" lon="12.2035136"><ele>244.0</ele><time>2026-03-29T11:03:55.404Z</time></trkpt><trkpt lat="43.1177656" lon="12.2035886"><ele>243.99999999999997</ele><time>2026-03-29T11:03:56.404Z</time></trkpt><trkpt lat="43.1177105" lon="12.2037178"><ele>243.99999999999997</ele><time>2026-03-29T11:03:57.405Z</time></trkpt><trkpt lat="43.1176521" lon="12.2038289"><ele>244.0</ele><time>2026-03-29T11:03:58.405Z</time></trkpt><trkpt lat="43.1176025" lon="12.2039888"><ele>244.0</ele><time>2026-03-29T11:03:59.405Z</time></trkpt><trkpt lat="43.1175555" lon="12.2041483"><ele>244.0</ele><time>2026-03-29T11:04:00.404Z</time></trkpt><trkpt lat="43.1174998" lon="12.204291"><ele>244.0</ele><time>2026-03-29T11:04:01.405Z</time></trkpt><trkpt lat="43.1174291" lon="12.2043926"><ele>244.0</ele><time>2026-03-29T11:04:02.405Z</time></trkpt><trkpt lat="43.1173374" lon="12.204504"><ele>244.0</ele><time>2026-03-29T11:04:03.403Z</time></trkpt><trkpt lat="43.1172381" lon="12.2045862"><ele>244.39999999999998</ele><time>2026-03-29T11:04:04.404Z</time></trkpt><trkpt lat="43.1171455" lon="12.2046675"><ele>244.79999999999998</ele><time>2026-03-29T11:04:05.404Z</time></trkpt><trkpt lat="43.1170744" lon="12.2047477"><ele>245.20000000000002</ele><time>2026-03-29T11:04:06.405Z</time></trkpt><trkpt lat="43.1170268" lon="12.2048339"><ele>245.60000000000002</ele><time>2026-03-29T11:04:07.405Z</time></trkpt><trkpt lat="43.1169882" lon="12.2049374"><ele>246.0</ele><time>2026-03-29T11:04:08.404Z</time></trkpt><trkpt lat="43.1169364" lon="12.2050464"><ele>246.25</ele><time>2026-03-29T11:04:09.405Z</time></trkpt><trkpt lat="43.1168417" lon="12.2051671"><ele>246.5</ele><time>2026-03-29T11:04:10.405Z</time></trkpt><trkpt lat="43.1167339" lon="12.2052904"><ele>246.75</ele><time>2026-03-29T11:04:11.406Z</time></trkpt><trkpt lat="43.1166094" lon="12.2054358"><ele>247.0</ele><time>2026-03-29T11:04:12.405Z</time></trkpt><trkpt lat="43.1164941" lon="12.2055675"><ele>247.5</ele><time>2026-03-29T11:04:13.405Z</time></trkpt><trkpt lat="43.116378" lon="12.2056921"><ele>248.0</ele><time>2026-03-29T11:04:14.404Z</time></trkpt><trkpt lat="43.1162813" lon="12.2057951"><ele>248.5</ele><time>2026-03-29T11:04:15.405Z</time></trkpt><trkpt lat="43.1161903" lon="12.2058807"><ele>249.0</ele><time>2026-03-29T11:04:16.405Z</time></trkpt><trkpt lat="43.1161132" lon="12.2059775"><ele>249.0</ele><time>2026-03-29T11:04:17.405Z</time></trkpt><trkpt lat="43.1160504" lon="12.2060813"><ele>249.0</ele><time>2026-03-29T11:04:18.405Z</time></trkpt><trkpt lat="43.1159943" lon="12.206194"><ele>249.0</ele><time>2026-03-29T11:04:19.403Z</time></trkpt><trkpt lat="43.1159365" lon="12.2063482"><ele>249.0</ele><time>2026-03-29T11:04:20.406Z</time></trkpt><trkpt lat="43.1158711" lon="12.2065019"><ele>249.75</ele><time>2026-03-29T11:04:21.406Z</time></trkpt><trkpt lat="43.1158145" lon="12.2066367"><ele>250.5</ele><time>2026-03-29T11:04:22.404Z</time></trkpt><trkpt lat="43.1157539" lon="12.2067861"><ele>251.25</ele><time>2026-03-29T11:04:23.405Z</time></trkpt><trkpt lat="43.1156823" lon="12.2069147"><ele>252.0</ele><time>2026-03-29T11:04:24.404Z</time></trkpt><trkpt lat="43.1155882" lon="12.2070218"><ele>252.8</ele><time>2026-03-29T11:04:25.404Z</time></trkpt><trkpt lat="43.1154882" lon="12.2071172"><ele>253.6</ele><time>2026-03-29T11:04:26.404Z</time></trkpt><trkpt lat="43.1154054" lon="12.2072186"><ele>254.40000000000003</ele><time>2026-03-29T11:04:27.405Z</time></trkpt><trkpt lat="43.1153484" lon="12.2073429"><ele>255.20000000000002</ele><time>2026-03-29T11:04:28.404Z</time></trkpt><trkpt lat="43.1153184" lon="12.2074811"><ele>256.0</ele><time>2026-03-29T11:04:29.405Z</time></trkpt><trkpt lat="43.1152984" lon="12.2076431"><ele>256.25</ele><time>2026-03-29T11:04:30.405Z</time></trkpt><trkpt lat="43.1152997" lon="12.2078183"><ele>256.5</ele><time>2026-03-29T11:04:31.404Z</time></trkpt><trkpt lat="43.1153122" lon="12.208026"><ele>256.75</ele><time>2026-03-29T11:04:32.406Z</time></trkpt><trkpt lat="43.1153349" lon="12.2082367"><ele>257.0</ele><time>2026-03-29T11:04:33.405Z</time></trkpt><trkpt lat="43.1153422" lon="12.2084427"><ele>257.0</ele><time>2026-03-29T11:04:34.404Z</time></trkpt><trkpt lat="43.1153423" lon="12.2086389"><ele>257.0</ele><time>2026-03-29T11:04:35.405Z</time></trkpt><trkpt lat="43.1153482" lon="12.2088307"><ele>257.0</ele><time>2026-03-29T11:04:36.406Z</time></trkpt><trkpt lat="43.115364" lon="12.2090192"><ele>257.0</ele><time>2026-03-29T11:04:37.404Z</time></trkpt><trkpt lat="43.1153976" lon="12.2091979"><ele>259.25</ele><time>2026-03-29T11:04:38.406Z</time></trkpt><trkpt lat="43.1154419" lon="12.2093858"><ele>261.5</ele><time>2026-03-29T11:04:39.405Z</time></trkpt><trkpt lat="43.1155034" lon="12.2095572"><ele>263.75</ele><time>2026-03-29T11:04:40.404Z</time></trkpt><trkpt lat="43.1155495" lon="12.2097078"><ele>266.0</ele><time>2026-03-29T11:04:41.404Z</time></trkpt><trkpt lat="43.1155825" lon="12.2098542"><ele>266.25</ele><time>2026-03-29T11:04:42.404Z</time></trkpt><trkpt lat="43.1156257" lon="12.2100121"><ele>266.5</ele><time>2026-03-29T11:04:43.406Z</time></trkpt><trkpt lat="43.1156736" lon="12.2101806"><ele>266.75</ele><time>2026-03-29T11:04:44.404Z</time></trkpt><trkpt lat="43.1157201" lon="12.210358"><ele>267.0</ele><time>2026-03-29T11:04:45.405Z</time></trkpt><trkpt lat="43.1157623" lon="12.2105503"><ele>267.6666666666667</ele><time>2026-03-29T11:04:46.405Z</time></trkpt><trkpt lat="43.1158038" lon="12.2107544"><ele>268.33333333333337</ele><time>2026-03-29T11:04:47.405Z</time></trkpt><trkpt lat="43.1158459" lon="12.2109617"><ele>269.0</ele><time>2026-03-29T11:04:48.405Z</time></trkpt><trkpt lat="43.1158814" lon="12.2111652"><ele>269.0</ele><time>2026-03-29T11:04:49.404Z</time></trkpt><trkpt lat="43.1159117" lon="12.2113594"><ele>269.0</ele><time>2026-03-29T11:04:50.404Z</time></trkpt><trkpt lat="43.1159379" lon="12.2115423"><ele>269.0</ele><time>2026-03-29T11:04:51.405Z</time></trkpt><trkpt lat="43.1159629" lon="12.2117187"><ele>269.0</ele><time>2026-03-29T11:04:52.404Z</time></trkpt><trkpt lat="43.1159758" lon="12.2118692"><ele>270.0</ele><time>2026-03-29T11:04:53.406Z</time></trkpt><trkpt lat="43.1159794" lon="12.2120307"><ele>271.0</ele><time>2026-03-29T11:04:54.404Z</time></trkpt><trkpt lat="43.1159641" lon="12.2122029"><ele>272.0</ele><time>2026-03-29T11:04:55.403Z</time></trkpt><trkpt lat="43.1159425" lon="12.2123771"><ele>273.0</ele><time>2026-03-29T11:04:56.405Z</time></trkpt><trkpt lat="43.1159141" lon="12.212544"><ele>273.0</ele><time>2026-03-29T11:04:57.406Z</time></trkpt><trkpt lat="43.115892" lon="12.2126973"><ele>273.0</ele><time>2026-03-29T11:04:58.406Z</time></trkpt><trkpt lat="43.1158761" lon="12.2128543"><ele>273.0</ele><time>2026-03-29T11:04:59.405Z</time></trkpt><trkpt lat="43.1159061" lon="12.2129658"><ele>273.0</ele><time>2026-03-29T11:05:00.405Z</time></trkpt><trkpt lat="43.1159488" lon="12.2130764"><ele>273.0</ele><time>2026-03-29T11:05:01.406Z</time></trkpt><trkpt lat="43.1160037" lon="12.2131893"><ele>273.0</ele><time>2026-03-29T11:05:02.405Z</time></trkpt><trkpt lat="43.1160835" lon="12.2133089"><ele>273.0</ele><time>2026-03-29T11:05:03.405Z</time></trkpt><trkpt lat="43.1161514" lon="12.2134224"><ele>273.0</ele><time>2026-03-29T11:05:04.405Z</time></trkpt><trkpt lat="43.1162036" lon="12.2135198"><ele>273.0</ele><time>2026-03-29T11:05:05.405Z</time></trkpt><trkpt lat="43.1162398" lon="12.2136004"><ele>273.0</ele><time>2026-03-29T11:05:06.406Z</time></trkpt><trkpt lat="43.1162592" lon="12.2137365"><ele>273.0</ele><time>2026-03-29T11:05:08.404Z</time></trkpt><trkpt lat="43.1161729" lon="12.2138107"><ele>273.0</ele><time>2026-03-29T11:05:10.405Z</time></trkpt><trkpt lat="43.1161063" lon="12.2138425"><ele>273.0</ele><time>2026-03-29T11:05:11.406Z</time></trkpt><trkpt lat="43.1160168" lon="12.2138688"><ele>273.0</ele><time>2026-03-29T11:05:12.405Z</time></trkpt><trkpt lat="43.1159139" lon="12.2138964"><ele>273.0</ele><time>2026-03-29T11:05:13.405Z</time></trkpt><trkpt lat="43.1157978" lon="12.2139115"><ele>274.1666666666667</ele><time>2026-03-29T11:05:14.406Z</time></trkpt><trkpt lat="43.1157088" lon="12.2139322"><ele>275.3333333333333</ele><time>2026-03-29T11:05:15.405Z</time></trkpt><trkpt lat="43.1156402" lon="12.2139718"><ele>276.5</ele><time>2026-03-29T11:05:16.406Z</time></trkpt><trkpt lat="43.1155864" lon="12.2140518"><ele>277.66666666666663</ele><time>2026-03-29T11:05:17.405Z</time></trkpt><trkpt lat="43.1155489" lon="12.2141293"><ele>278.8333333333333</ele><time>2026-03-29T11:05:18.405Z</time></trkpt><trkpt lat="43.115524" lon="12.2142181"><ele>280.0</ele><time>2026-03-29T11:05:19.404Z</time></trkpt><trkpt lat="43.1155203" lon="12.2143446"><ele>281.6</ele><time>2026-03-29T11:05:20.405Z</time></trkpt><trkpt lat="43.1155275" lon="12.2144861"><ele>283.2</ele><time>2026-03-29T11:05:21.404Z</time></trkpt><trkpt lat="43.1155387" lon="12.2146091"><ele>284.8</ele><time>2026-03-29T11:05:22.403Z</time></trkpt><trkpt lat="43.1155894" lon="12.2146811"><ele>286.4</ele><time>2026-03-29T11:05:23.405Z</time></trkpt><trkpt lat="43.1156554" lon="12.2147654"><ele>288.0</ele><time>2026-03-29T11:05:24.405Z</time></trkpt><trkpt lat="43.1157352" lon="12.2148598"><ele>287.0</ele><time>2026-03-29T11:05:25.405Z</time></trkpt><trkpt lat="43.1158169" lon="12.2149516"><ele>286.0</ele><time>2026-03-29T11:05:26.404Z</time></trkpt><trkpt lat="43.1159079" lon="12.2150455"><ele>285.0</ele><time>2026-03-29T11:05:27.406Z</time></trkpt><trkpt lat="43.1160266" lon="12.2151221"><ele>284.0</ele><time>2026-03-29T11:05:28.406Z</time></trkpt><trkpt lat="43.1161212" lon="12.2152204"><ele>284.0</ele><time>2026-03-29T11:05:29.405Z</time></trkpt><trkpt lat="43.1162082" lon="12.2153127"><ele>284.0</ele><time>2026-03-29T11:05:30.405Z</time></trkpt><trkpt lat="43.1162901" lon="12.2154026"><ele>284.0</ele><time>2026-03-29T11:05:31.406Z</time></trkpt><trkpt lat="43.1163786" lon="12.2154957"><ele>284.0</ele><time>2026-03-29T11:05:32.404Z</time></trkpt><trkpt lat="43.1164444" lon="12.2155578"><ele>284.0</ele><time>2026-03-29T11:05:33.406Z</time></trkpt><trkpt lat="43.1164947" lon="12.2156314"><ele>286.4</ele><time>2026-03-29T11:05:36.406Z</time></trkpt><trkpt lat="43.11641" lon="12.2157171"><ele>288.79999999999995</ele><time>2026-03-29T11:05:39.406Z</time></trkpt><trkpt lat="43.1163272" lon="12.2157381"><ele>291.20000000000005</ele><time>2026-03-29T11:05:40.405Z</time></trkpt><trkpt lat="43.1162195" lon="12.215761"><ele>293.6</ele><time>2026-03-29T11:05:41.405Z</time></trkpt><trkpt lat="43.1161153" lon="12.2157693"><ele>296.0</ele><time>2026-03-29T11:05:42.405Z</time></trkpt><trkpt lat="43.1160093" lon="12.2157893"><ele>296.0</ele><time>2026-03-29T11:05:43.404Z</time></trkpt><trkpt lat="43.1159057" lon="12.2158109"><ele>296.0</ele><time>2026-03-29T11:05:44.406Z</time></trkpt><trkpt lat="43.1158051" lon="12.2158593"><ele>296.0</ele><time>2026-03-29T11:05:45.406Z</time></trkpt><trkpt lat="43.1157148" lon="12.2159086"><ele>296.0</ele><time>2026-03-29T11:05:46.406Z</time></trkpt><trkpt lat="43.1156152" lon="12.2159853"><ele>296.0</ele><time>2026-03-29T11:05:47.405Z</time></trkpt><trkpt lat="43.1155277" lon="12.2160392"><ele>296.6</ele><time>2026-03-29T11:05:48.406Z</time></trkpt><trkpt lat="43.1154405" lon="12.2161063"><ele>297.20000000000005</ele><time>2026-03-29T11:05:49.405Z</time></trkpt><trkpt lat="43.1153421" lon="12.2161505"><ele>297.79999999999995</ele><time>2026-03-29T11:05:50.405Z</time></trkpt><trkpt lat="43.1152729" lon="12.2162178"><ele>298.4</ele><time>2026-03-29T11:05:51.405Z</time></trkpt><trkpt lat="43.1151903" lon="12.2162893"><ele>299.0</ele><time>2026-03-29T11:05:52.405Z</time></trkpt><trkpt lat="43.1151242" lon="12.2163985"><ele>301.0</ele><time>2026-03-29T11:05:53.405Z</time></trkpt><trkpt lat="43.1150634" lon="12.2165102"><ele>303.0</ele><time>2026-03-29T11:05:54.405Z</time></trkpt><trkpt lat="43.1150141" lon="12.2166101"><ele>305.0</ele><time>2026-03-29T11:05:55.405Z</time></trkpt><trkpt lat="43.1149575" lon="12.2166757"><ele>307.0</ele><time>2026-03-29T11:05:56.405Z</time></trkpt><trkpt lat="43.1149123" lon="12.2167382"><ele>309.0</ele><time>2026-03-29T11:05:57.406Z</time></trkpt><trkpt lat="43.1148594" lon="12.2167965"><ele>311.0</ele><time>2026-03-29T11:05:58.406Z</time></trkpt><trkpt lat="43.1148099" lon="12.2169086"><ele>311.0</ele><time>2026-03-29T11:06:00.404Z</time></trkpt><trkpt lat="43.1148783" lon="12.2169492"><ele>311.0</ele><time>2026-03-29T11:06:02.405Z</time></trkpt><trkpt lat="43.1149635" lon="12.2168875"><ele>311.0</ele><time>2026-03-29T11:06:03.404Z</time></trkpt><trkpt lat="43.1150337" lon="12.2168556"><ele>311.0</ele><time>2026-03-29T11:06:04.406Z</time></trkpt><trkpt lat="43.1151089" lon="12.2168225"><ele>311.0</ele><time>2026-03-29T11:06:05.405Z</time></trkpt><trkpt lat="43.1152026" lon="12.2167913"><ele>311.0</ele><time>2026-03-29T11:06:06.405Z</time></trkpt><trkpt lat="43.115297" lon="12.2167867"><ele>311.0</ele><time>2026-03-29T11:06:07.404Z</time></trkpt><trkpt lat="43.1153977" lon="12.2168038"><ele>311.0</ele><time>2026-03-29T11:06:08.406Z</time></trkpt><trkpt lat="43.1154942" lon="12.2168237"><ele>311.0</ele><time>2026-03-29T11:06:09.404Z</time></trkpt><trkpt lat="43.1155604" lon="12.2168383"><ele>311.0</ele><time>2026-03-29T11:06:10.406Z</time></trkpt><trkpt lat="43.1156156" lon="12.2168928"><ele>311.0</ele><time>2026-03-29T11:06:12.404Z</time></trkpt><trkpt lat="43.1155604" lon="12.2169727"><ele>311.0</ele><time>2026-03-29T11:06:14.405Z</time></trkpt><trkpt lat="43.115499" lon="12.217016"><ele>311.0</ele><time>2026-03-29T11:06:15.406Z</time></trkpt><trkpt lat="43.115439" lon="12.2170527"><ele>311.0</ele><time>2026-03-29T11:06:16.405Z</time></trkpt><trkpt lat="43.1153825" lon="12.2171981"><ele>311.0</ele><time>2026-03-29T11:06:18.404Z</time></trkpt><trkpt lat="43.1153391" lon="12.21727"><ele>311.0</ele><time>2026-03-29T11:06:19.405Z</time></trkpt><trkpt lat="43.1152815" lon="12.2173639"><ele>311.0</ele><time>2026-03-29T11:06:20.405Z</time></trkpt><trkpt lat="43.1152155" lon="12.2174742"><ele>311.0</ele><time>2026-03-29T11:06:21.405Z</time></trkpt><trkpt lat="43.1151507" lon="12.2175589"><ele>314.4</ele><time>2026-03-29T11:06:22.406Z</time></trkpt><trkpt lat="43.1150736" lon="12.2176608"><ele>317.8</ele><time>2026-03-29T11:06:23.405Z</time></trkpt><trkpt lat="43.1150003" lon="12.2177437"><ele>321.2</ele><time>2026-03-29T11:06:24.405Z</time></trkpt><trkpt lat="43.1149008" lon="12.2178094"><ele>324.59999999999997</ele><time>2026-03-29T11:06:25.404Z</time></trkpt><trkpt lat="43.1148346" lon="12.2178533"><ele>328.0</ele><time>2026-03-29T11:06:26.404Z</time></trkpt><trkpt lat="43.1147807" lon="12.2179568"><ele>328.0</ele><time>2026-03-29T11:06:28.404Z</time></trkpt><trkpt lat="43.1148557" lon="12.2180497"><ele>328.0</ele><time>2026-03-29T11:06:30.405Z</time></trkpt><trkpt lat="43.1149304" lon="12.2180826"><ele>328.0</ele><time>2026-03-29T11:06:31.405Z</time></trkpt><trkpt lat="43.1150308" lon="12.2181729"><ele>328.0</ele><time>2026-03-29T11:06:33.406Z</time></trkpt><trkpt lat="43.1150716" lon="12.218252"><ele>328.0</ele><time>2026-03-29T11:06:34.405Z</time></trkpt><trkpt lat="43.1151169" lon="12.2183538"><ele>331.0</ele><time>2026-03-29T11:06:35.405Z</time></trkpt><trkpt lat="43.1151321" lon="12.218485"><ele>334.0</ele><time>2026-03-29T11:06:36.405Z</time></trkpt><trkpt lat="43.1151337" lon="12.2185925"><ele>337.0</ele><time>2026-03-29T11:06:37.406Z</time></trkpt><trkpt lat="43.115097" lon="12.2186903"><ele>340.0</ele><time>2026-03-29T11:06:38.404Z</time></trkpt><trkpt lat="43.1150044" lon="12.2188224"><ele>343.0</ele><time>2026-03-29T11:06:39.405Z</time></trkpt><trkpt lat="43.1149436" lon="12.218935"><ele>348.0</ele><time>2026-03-29T11:06:40.406Z</time></trkpt><trkpt lat="43.1148878" lon="12.2190714"><ele>353.0</ele><time>2026-03-29T11:06:41.404Z</time></trkpt><trkpt lat="43.1148325" lon="12.2192245"><ele>358.0</ele><time>2026-03-29T11:06:42.405Z</time></trkpt><trkpt lat="43.1147863" lon="12.2193664"><ele>363.0</ele><time>2026-03-29T11:06:43.405Z</time></trkpt><trkpt lat="43.1147429" lon="12.2194982"><ele>363.0</ele><time>2026-03-29T11:06:44.405Z</time></trkpt><trkpt lat="43.1146853" lon="12.2196088"><ele>363.0</ele><time>2026-03-29T11:06:45.405Z</time></trkpt><trkpt lat="43.1146226" lon="12.2197176"><ele>363.0</ele><time>2026-03-29T11:06:46.405Z</time></trkpt><trkpt lat="43.1145366" lon="12.219811"><ele>363.0</ele><time>2026-03-29T11:06:47.405Z</time></trkpt><trkpt lat="43.1144611" lon="12.2199083"><ele>363.0</ele><time>2026-03-29T11:06:48.405Z</time></trkpt><trkpt lat="43.1143954" lon="12.2199687"><ele>364.79999999999995</ele><time>2026-03-29T11:06:49.405Z</time></trkpt><trkpt lat="43.1143271" lon="12.2200301"><ele>366.6</ele><time>2026-03-29T11:06:50.405Z</time></trkpt><trkpt lat="43.1142254" lon="12.2200541"><ele>368.4</ele><time>2026-03-29T11:06:51.405Z</time></trkpt><trkpt lat="43.1141397" lon="12.2200932"><ele>370.20000000000005</ele><time>2026-03-29T11:06:52.404Z</time></trkpt><trkpt lat="43.1140392" lon="12.2201328"><ele>372.0</ele><time>2026-03-29T11:06:53.405Z</time></trkpt><trkpt lat="43.1139548" lon="12.2201424"><ele>374.0</ele><time>2026-03-29T11:06:54.405Z</time></trkpt><trkpt lat="43.1138626" lon="12.2201611"><ele>376.0</ele><time>2026-03-29T11:06:55.405Z</time></trkpt><trkpt lat="43.1137503" lon="12.2201924"><ele>378.0</ele><time>2026-03-29T11:06:56.405Z</time></trkpt><trkpt lat="43.1136368" lon="12.2202067"><ele>380.0</ele><time>2026-03-29T11:06:57.405Z</time></trkpt><trkpt lat="43.1135415" lon="12.2202184"><ele>382.0</ele><time>2026-03-29T11:06:58.405Z</time></trkpt><trkpt lat="43.1134547" lon="12.2202429"><ele>382.0</ele><time>2026-03-29T11:06:59.404Z</time></trkpt><trkpt lat="43.1133701" lon="12.2202748"><ele>382.0</ele><time>2026-03-29T11:07:00.405Z</time></trkpt><trkpt lat="43.1133953" lon="12.2204006"><ele>382.0</ele><time>2026-03-29T11:07:02.404Z</time></trkpt><trkpt lat="43.1134079" lon="12.220488"><ele>382.0</ele><time>2026-03-29T11:07:03.405Z</time></trkpt><trkpt lat="43.113424" lon="12.2205889"><ele>382.0</ele><time>2026-03-29T11:07:04.405Z</time></trkpt><trkpt lat="43.1134261" lon="12.2206778"><ele>382.0</ele><time>2026-03-29T11:07:05.406Z</time></trkpt><trkpt lat="43.1134131" lon="12.2207883"><ele>386.25</ele><time>2026-03-29T11:07:06.406Z</time></trkpt><trkpt lat="43.1134587" lon="12.2209071"><ele>390.5</ele><time>2026-03-29T11:07:08.406Z</time></trkpt><trkpt lat="43.1135806" lon="12.2209845"><ele>394.75</ele><time>2026-03-29T11:07:09.406Z</time></trkpt><trkpt lat="43.1136748" lon="12.221064"><ele>399.0</ele><time>2026-03-29T11:07:10.405Z</time></trkpt><trkpt lat="43.1137698" lon="12.2211346"><ele>399.0</ele><time>2026-03-29T11:07:11.405Z</time></trkpt><trkpt lat="43.1138484" lon="12.2212166"><ele>399.0</ele><time>2026-03-29T11:07:12.405Z</time></trkpt><trkpt lat="43.1138967" lon="12.2213216"><ele>399.0</ele><time>2026-03-29T11:07:13.405Z</time></trkpt><trkpt lat="43.1139414" lon="12.2214039"><ele>399.0</ele><time>2026-03-29T11:07:14.405Z</time></trkpt><trkpt lat="43.1140614" lon="12.2215395"><ele>399.0</ele><time>2026-03-29T11:07:16.405Z</time></trkpt><trkpt lat="43.1141431" lon="12.2216301"><ele>399.0</ele><time>2026-03-29T11:07:17.404Z</time></trkpt><trkpt lat="43.1142373" lon="12.2217051"><ele>399.0</ele><time>2026-03-29T11:07:18.405Z</time></trkpt><trkpt lat="43.114309" lon="12.2218161"><ele>399.0</ele><time>2026-03-29T11:07:19.407Z</time></trkpt><trkpt lat="43.1143874" lon="12.221951"><ele>399.0</ele><time>2026-03-29T11:07:20.405Z</time></trkpt><trkpt lat="43.1144604" lon="12.2220689"><ele>399.0</ele><time>2026-03-29T11:07:21.405Z</time></trkpt><trkpt lat="43.1145057" lon="12.2221742"><ele>399.0</ele><time>2026-03-29T11:07:22.406Z</time></trkpt><trkpt lat="43.1145678" lon="12.2222923"><ele>399.0</ele><time>2026-03-29T11:07:23.406Z</time></trkpt><trkpt lat="43.1145672" lon="12.2224313"><ele>399.0</ele><time>2026-03-29T11:07:24.404Z</time></trkpt><trkpt lat="43.1145367" lon="12.2225657"><ele>399.0</ele><time>2026-03-29T11:07:25.405Z</time></trkpt><trkpt lat="43.1145182" lon="12.2227002"><ele>401.4</ele><time>2026-03-29T11:07:26.406Z</time></trkpt><trkpt lat="43.1145148" lon="12.2228184"><ele>403.79999999999995</ele><time>2026-03-29T11:07:27.405Z</time></trkpt><trkpt lat="43.1145183" lon="12.2229179"><ele>406.20000000000005</ele><time>2026-03-29T11:07:28.405Z</time></trkpt><trkpt lat="43.1146321" lon="12.2229721"><ele>408.6</ele><time>2026-03-29T11:07:30.405Z</time></trkpt><trkpt lat="43.1147526" lon="12.2229426"><ele>411.0</ele><time>2026-03-29T11:07:31.405Z</time></trkpt><trkpt lat="43.1148738" lon="12.2229124"><ele>405.0</ele><time>2026-03-29T11:07:32.405Z</time></trkpt><trkpt lat="43.1150003" lon="12.2228803"><ele>399.0</ele><time>2026-03-29T11:07:33.406Z</time></trkpt><trkpt lat="43.1151445" lon="12.2228598"><ele>393.0</ele><time>2026-03-29T11:07:34.404Z</time></trkpt><trkpt lat="43.1152875" lon="12.2228398"><ele>387.0</ele><time>2026-03-29T11:07:35.405Z</time></trkpt><trkpt lat="43.115431" lon="12.2228069"><ele>387.0</ele><time>2026-03-29T11:07:36.405Z</time></trkpt><trkpt lat="43.1155686" lon="12.2227935"><ele>387.0</ele><time>2026-03-29T11:07:37.405Z</time></trkpt><trkpt lat="43.1156979" lon="12.2227725"><ele>387.0</ele><time>2026-03-29T11:07:38.405Z</time></trkpt><trkpt lat="43.1158255" lon="12.2227549"><ele>387.0</ele><time>2026-03-29T11:07:39.404Z</time></trkpt><trkpt lat="43.1159369" lon="12.2227603"><ele>383.5</ele><time>2026-03-29T11:07:40.405Z</time></trkpt><trkpt lat="43.116053" lon="12.2227885"><ele>380.0</ele><time>2026-03-29T11:07:41.406Z</time></trkpt><trkpt lat="43.1161759" lon="12.2228239"><ele>376.5</ele><time>2026-03-29T11:07:42.405Z</time></trkpt><trkpt lat="43.1163213" lon="12.2228682"><ele>373.0</ele><time>2026-03-29T11:07:43.405Z</time></trkpt><trkpt lat="43.1164586" lon="12.2228882"><ele>371.0</ele><time>2026-03-29T11:07:44.406Z</time></trkpt><trkpt lat="43.1166081" lon="12.2229038"><ele>369.0</ele><time>2026-03-29T11:07:45.404Z</time></trkpt><trkpt lat="43.1167708" lon="12.2228993"><ele>367.0</ele><time>2026-03-29T11:07:46.405Z</time></trkpt><trkpt lat="43.1169167" lon="12.2229061"><ele>367.0</ele><time>2026-03-29T11:07:47.405Z</time></trkpt><trkpt lat="43.1170565" lon="12.2229169"><ele>367.0</ele><time>2026-03-29T11:07:48.405Z</time></trkpt><trkpt lat="43.1171843" lon="12.2229366"><ele>367.0</ele><time>2026-03-29T11:07:49.406Z</time></trkpt><trkpt lat="43.1173056" lon="12.222963"><ele>367.0</ele><time>2026-03-29T11:07:50.406Z</time></trkpt><trkpt lat="43.1174179" lon="12.2229864"><ele>367.0</ele><time>2026-03-29T11:07:51.405Z</time></trkpt><trkpt lat="43.1174851" lon="12.2230013"><ele>367.0</ele><time>2026-03-29T11:07:52.406Z</time></trkpt><trkpt lat="43.1175639" lon="12.2230169"><ele>367.0</ele><time>2026-03-29T11:07:53.406Z</time></trkpt><trkpt lat="43.1176531" lon="12.2229937"><ele>367.0</ele><time>2026-03-29T11:07:55.405Z</time></trkpt><trkpt lat="43.1177442" lon="12.2229456"><ele>367.0</ele><time>2026-03-29T11:07:57.404Z</time></trkpt><trkpt lat="43.1178213" lon="12.2229038"><ele>367.0</ele><time>2026-03-29T11:07:59.405Z</time></trkpt><trkpt lat="43.1177923" lon="12.2229991"><ele>367.0</ele><time>2026-03-29T11:08:10.404Z</time></trkpt><trkpt lat="43.1177093" lon="12.222999"><ele>367.0</ele><time>2026-03-29T11:08:12.406Z</time></trkpt><trkpt lat="43.1176146" lon="12.2230324"><ele>367.0</ele><time>2026-03-29T11:08:14.405Z</time></trkpt><trkpt lat="43.117506" lon="12.2230152"><ele>367.0</ele><time>2026-03-29T11:08:16.405Z</time></trkpt><trkpt lat="43.1174033" lon="12.2229925"><ele>367.0</ele><time>2026-03-29T11:08:18.405Z</time></trkpt><trkpt lat="43.1173296" lon="12.2229852"><ele>367.0</ele><time>2026-03-29T11:08:20.407Z</time></trkpt><trkpt lat="43.1172343" lon="12.2230159"><ele>367.0</ele><time>2026-03-29T11:08:24.406Z</time></trkpt><trkpt lat="43.117173" lon="12.223048"><ele>367.0</ele><time>2026-03-29T11:08:25.404Z</time></trkpt><trkpt lat="43.1170614" lon="12.2231312"><ele>367.0</ele><time>2026-03-29T11:08:27.405Z</time></trkpt><trkpt lat="43.1170149" lon="12.2231929"><ele>367.0</ele><time>2026-03-29T11:08:28.406Z</time></trkpt><trkpt lat="43.1169483" lon="12.223297"><ele>372.5</ele><time>2026-03-29T11:08:30.406Z</time></trkpt><trkpt lat="43.1168883" lon="12.2234163"><ele>378.0</ele><time>2026-03-29T11:08:32.404Z</time></trkpt><trkpt lat="43.1167903" lon="12.2234838"><ele>383.5</ele><time>2026-03-29T11:08:34.405Z</time></trkpt><trkpt lat="43.1166536" lon="12.2235632"><ele>389.0</ele><time>2026-03-29T11:08:36.405Z</time></trkpt><trkpt lat="43.1165702" lon="12.223602"><ele>389.79999999999995</ele><time>2026-03-29T11:08:37.405Z</time></trkpt><trkpt lat="43.1164805" lon="12.2236481"><ele>390.59999999999997</ele><time>2026-03-29T11:08:38.405Z</time></trkpt><trkpt lat="43.1163919" lon="12.2237157"><ele>391.4</ele><time>2026-03-29T11:08:39.405Z</time></trkpt><trkpt lat="43.1163063" lon="12.2237708"><ele>392.2</ele><time>2026-03-29T11:08:40.405Z</time></trkpt><trkpt lat="43.1162212" lon="12.2237998"><ele>393.0</ele><time>2026-03-29T11:08:41.405Z</time></trkpt><trkpt lat="43.1161308" lon="12.223831"><ele>393.0</ele><time>2026-03-29T11:08:42.405Z</time></trkpt><trkpt lat="43.1160583" lon="12.223884"><ele>393.0</ele><time>2026-03-29T11:08:43.406Z</time></trkpt><trkpt lat="43.115999" lon="12.223949"><ele>393.0</ele><time>2026-03-29T11:08:44.406Z</time></trkpt><trkpt lat="43.1160454" lon="12.2240999"><ele>393.0</ele><time>2026-03-29T11:08:46.404Z</time></trkpt><trkpt lat="43.1160833" lon="12.2241791"><ele>393.0</ele><time>2026-03-29T11:08:47.404Z</time></trkpt><trkpt lat="43.1161302" lon="12.2242537"><ele>393.0</ele><time>2026-03-29T11:08:48.406Z</time></trkpt><trkpt lat="43.1161541" lon="12.2243468"><ele>395.8333333333333</ele><time>2026-03-29T11:08:50.405Z</time></trkpt><trkpt lat="43.1160996" lon="12.2244523"><ele>398.66666666666663</ele><time>2026-03-29T11:08:53.406Z</time></trkpt><trkpt lat="43.1160405" lon="12.2244854"><ele>401.5</ele><time>2026-03-29T11:08:54.405Z</time></trkpt><trkpt lat="43.1159509" lon="12.2245057"><ele>404.3333333333333</ele><time>2026-03-29T11:08:55.405Z</time></trkpt><trkpt lat="43.1158655" lon="12.2245261"><ele>407.16666666666663</ele><time>2026-03-29T11:08:56.405Z</time></trkpt><trkpt lat="43.1157623" lon="12.2245558"><ele>410.0</ele><time>2026-03-29T11:08:57.405Z</time></trkpt><trkpt lat="43.1156668" lon="12.2245802"><ele>411.8</ele><time>2026-03-29T11:08:58.406Z</time></trkpt><trkpt lat="43.1155634" lon="12.224596"><ele>413.6</ele><time>2026-03-29T11:08:59.404Z</time></trkpt><trkpt lat="43.1154716" lon="12.2246151"><ele>415.4</ele><time>2026-03-29T11:09:00.406Z</time></trkpt><trkpt lat="43.115361" lon="12.2246021"><ele>417.2</ele><time>2026-03-29T11:09:02.406Z</time></trkpt><trkpt lat="43.1152774" lon="12.2245342"><ele>419.0</ele><time>2026-03-29T11:09:04.406Z</time></trkpt><trkpt lat="43.1152133" lon="12.2245166"><ele>418.99999999999994</ele><time>2026-03-29T11:09:06.405Z</time></trkpt><trkpt lat="43.1151595" lon="12.2245837"><ele>419.0</ele><time>2026-03-29T11:09:08.405Z</time></trkpt><trkpt lat="43.1151114" lon="12.2246834"><ele>419.0</ele><time>2026-03-29T11:09:10.406Z</time></trkpt><trkpt lat="43.1150227" lon="12.2247811"><ele>419.0</ele><time>2026-03-29T11:09:12.405Z</time></trkpt><trkpt lat="43.1149516" lon="12.2248465"><ele>418.99999999999994</ele><time>2026-03-29T11:09:13.405Z</time></trkpt><trkpt lat="43.1148919" lon="12.2248986"><ele>419.0</ele><time>2026-03-29T11:09:14.406Z</time></trkpt><trkpt lat="43.1148161" lon="12.2249494"><ele>422.79999999999995</ele><time>2026-03-29T11:09:15.404Z</time></trkpt><trkpt lat="43.1147491" lon="12.2250463"><ele>426.59999999999997</ele><time>2026-03-29T11:09:16.405Z</time></trkpt><trkpt lat="43.114645" lon="12.2251365"><ele>430.4</ele><time>2026-03-29T11:09:18.406Z</time></trkpt><trkpt lat="43.1145498" lon="12.2251388"><ele>434.2</ele><time>2026-03-29T11:09:20.406Z</time></trkpt><trkpt lat="43.1144759" lon="12.2251375"><ele>438.0</ele><time>2026-03-29T11:09:21.404Z</time></trkpt><trkpt lat="43.1144096" lon="12.2251355"><ele>438.0</ele><time>2026-03-29T11:09:22.406Z</time></trkpt><trkpt lat="43.1142851" lon="12.2250867"><ele>438.0</ele><time>2026-03-29T11:09:24.406Z</time></trkpt><trkpt lat="43.1142115" lon="12.2250347"><ele>438.0</ele><time>2026-03-29T11:09:25.404Z</time></trkpt><trkpt lat="43.1141544" lon="12.224988"><ele>438.0</ele><time>2026-03-29T11:09:26.404Z</time></trkpt><trkpt lat="43.1140998" lon="12.2249362"><ele>438.0</ele><time>2026-03-29T11:09:27.405Z</time></trkpt><trkpt lat="43.1140417" lon="12.2248748"><ele>438.0</ele><time>2026-03-29T11:09:28.406Z</time></trkpt><trkpt lat="43.113994" lon="12.2248164"><ele>439.6666666666667</ele><time>2026-03-29T11:09:29.406Z</time></trkpt><trkpt lat="43.1139209" lon="12.2247608"><ele>441.33333333333337</ele><time>2026-03-29T11:09:31.405Z</time></trkpt><trkpt lat="43.1138262" lon="12.2247418"><ele>443.0</ele><time>2026-03-29T11:09:33.406Z</time></trkpt><trkpt lat="43.1137636" lon="12.2247242"><ele>444.6666666666667</ele><time>2026-03-29T11:09:34.405Z</time></trkpt><trkpt lat="43.1137029" lon="12.2246909"><ele>446.33333333333337</ele><time>2026-03-29T11:09:35.405Z</time></trkpt><trkpt lat="43.1136393" lon="12.2246573"><ele>448.0</ele><time>2026-03-29T11:09:36.404Z</time></trkpt><trkpt lat="43.1135671" lon="12.2246235"><ele>448.0</ele><time>2026-03-29T11:09:37.404Z</time></trkpt><trkpt lat="43.1134995" lon="12.224566"><ele>447.99999999999994</ele><time>2026-03-29T11:09:38.407Z</time></trkpt><trkpt lat="43.1133827" lon="12.2245145"><ele>447.99999999999994</ele><time>2026-03-29T11:09:40.405Z</time></trkpt><trkpt lat="43.1132697" lon="12.2244306"><ele>448.0</ele><time>2026-03-29T11:09:42.406Z</time></trkpt><trkpt lat="43.1132287" lon="12.2243022"><ele>448.0</ele><time>2026-03-29T11:09:44.405Z</time></trkpt><trkpt lat="43.1131976" lon="12.2241714"><ele>449.50000000000006</ele><time>2026-03-29T11:09:46.405Z</time></trkpt><trkpt lat="43.1131272" lon="12.2240551"><ele>451.0</ele><time>2026-03-29T11:09:48.404Z</time></trkpt><trkpt lat="43.1130615" lon="12.2239667"><ele>452.5</ele><time>2026-03-29T11:09:50.406Z</time></trkpt><trkpt lat="43.1130587" lon="12.223878"><ele>454.0</ele><time>2026-03-29T11:09:51.405Z</time></trkpt><trkpt lat="43.1130575" lon="12.2237622"><ele>455.50000000000006</ele><time>2026-03-29T11:09:52.404Z</time></trkpt><trkpt lat="43.1130258" lon="12.2236681"><ele>457.0</ele><time>2026-03-29T11:09:53.407Z</time></trkpt><trkpt lat="43.1129887" lon="12.2235619"><ele>457.00000000000006</ele><time>2026-03-29T11:09:54.405Z</time></trkpt><trkpt lat="43.1129423" lon="12.2234683"><ele>457.0</ele><time>2026-03-29T11:09:55.404Z</time></trkpt><trkpt lat="43.1129071" lon="12.2233886"><ele>457.0</ele><time>2026-03-29T11:09:56.406Z</time></trkpt><trkpt lat="43.1128735" lon="12.2232861"><ele>457.0</ele><time>2026-03-29T11:09:58.406Z</time></trkpt><trkpt lat="43.1127939" lon="12.2231912"><ele>457.00000000000006</ele><time>2026-03-29T11:10:00.404Z</time></trkpt><trkpt lat="43.1126906" lon="12.2232252"><ele>457.0</ele><time>2026-03-29T11:10:02.405Z</time></trkpt><trkpt lat="43.1126415" lon="12.223311"><ele>457.00000000000006</ele><time>2026-03-29T11:10:03.407Z</time></trkpt><trkpt lat="43.1125892" lon="12.2233982"><ele>457.0</ele><time>2026-03-29T11:10:04.406Z</time></trkpt><trkpt lat="43.112517" lon="12.2234908"><ele>457.0</ele><time>2026-03-29T11:10:05.407Z</time></trkpt><trkpt lat="43.1124553" lon="12.2235678"><ele>457.0</ele><time>2026-03-29T11:10:06.405Z</time></trkpt><trkpt lat="43.1124042" lon="12.2236485"><ele>457.00000000000006</ele><time>2026-03-29T11:10:07.405Z</time></trkpt><trkpt lat="43.1123613" lon="12.2237347"><ele>457.0</ele><time>2026-03-29T11:10:08.405Z</time></trkpt><trkpt lat="43.1123173" lon="12.2238174"><ele>459.50000000000006</ele><time>2026-03-29T11:10:09.406Z</time></trkpt><trkpt lat="43.1122343" lon="12.2239006"><ele>462.0</ele><time>2026-03-29T11:10:11.405Z</time></trkpt><trkpt lat="43.1121835" lon="12.2239672"><ele>464.5</ele><time>2026-03-29T11:10:13.405Z</time></trkpt><trkpt lat="43.1121083" lon="12.224004"><ele>467.0</ele><time>2026-03-29T11:10:15.405Z</time></trkpt><trkpt lat="43.1120261" lon="12.224065"><ele>469.50000000000006</ele><time>2026-03-29T11:10:17.406Z</time></trkpt><trkpt lat="43.1119292" lon="12.2241068"><ele>472.0</ele><time>2026-03-29T11:10:19.405Z</time></trkpt><trkpt lat="43.1118642" lon="12.2241457"><ele>474.0</ele><time>2026-03-29T11:10:20.406Z</time></trkpt><trkpt lat="43.1117962" lon="12.2241907"><ele>476.00000000000006</ele><time>2026-03-29T11:10:21.405Z</time></trkpt><trkpt lat="43.1116675" lon="12.2242869"><ele>478.00000000000006</ele><time>2026-03-29T11:10:23.406Z</time></trkpt><trkpt lat="43.1115988" lon="12.2243611"><ele>480.0</ele><time>2026-03-29T11:10:24.406Z</time></trkpt><trkpt lat="43.1115257" lon="12.2244124"><ele>482.0</ele><time>2026-03-29T11:10:25.405Z</time></trkpt><trkpt lat="43.1114543" lon="12.2244531"><ele>482.99999999999994</ele><time>2026-03-29T11:10:26.407Z</time></trkpt><trkpt lat="43.111384" lon="12.2244901"><ele>484.0</ele><time>2026-03-29T11:10:27.405Z</time></trkpt><trkpt lat="43.1113005" lon="12.224539"><ele>485.0</ele><time>2026-03-29T11:10:28.405Z</time></trkpt><trkpt lat="43.1112271" lon="12.2246142"><ele>486.0</ele><time>2026-03-29T11:10:29.405Z</time></trkpt><trkpt lat="43.1111696" lon="12.2246668"><ele>486.99999999999994</ele><time>2026-03-29T11:10:30.406Z</time></trkpt><trkpt lat="43.1111027" lon="12.2246928"><ele>488.0</ele><time>2026-03-29T11:10:31.406Z</time></trkpt><trkpt lat="43.111019" lon="12.2246949"><ele>487.99999999999994</ele><time>2026-03-29T11:10:32.406Z</time></trkpt><trkpt lat="43.1109512" lon="12.2246726"><ele>488.0</ele><time>2026-03-29T11:10:33.406Z</time></trkpt><trkpt lat="43.1108911" lon="12.2246402"><ele>488.0</ele><time>2026-03-29T11:10:34.407Z</time></trkpt><trkpt lat="43.1108344" lon="12.2245374"><ele>488.0</ele><time>2026-03-29T11:10:36.405Z</time></trkpt><trkpt lat="43.1107852" lon="12.2244275"><ele>487.99999999999994</ele><time>2026-03-29T11:10:38.405Z</time></trkpt><trkpt lat="43.1107425" lon="12.2243051"><ele>488.0</ele><time>2026-03-29T11:10:40.406Z</time></trkpt><trkpt lat="43.1106978" lon="12.2241622"><ele>486.66666666666663</ele><time>2026-03-29T11:10:42.406Z</time></trkpt><trkpt lat="43.110664" lon="12.2240269"><ele>485.3333333333333</ele><time>2026-03-29T11:10:44.406Z</time></trkpt><trkpt lat="43.1106654" lon="12.2239385"><ele>484.0</ele><time>2026-03-29T11:10:46.405Z</time></trkpt><trkpt lat="43.1106409" lon="12.223846"><ele>482.66666666666663</ele><time>2026-03-29T11:10:48.406Z</time></trkpt><trkpt lat="43.1105576" lon="12.2237276"><ele>481.3333333333333</ele><time>2026-03-29T11:10:50.406Z</time></trkpt><trkpt lat="43.110498" lon="12.2236791"><ele>480.0</ele><time>2026-03-29T11:10:51.405Z</time></trkpt><trkpt lat="43.1104349" lon="12.2236154"><ele>480.0</ele><time>2026-03-29T11:10:52.406Z</time></trkpt><trkpt lat="43.1103713" lon="12.2235407"><ele>480.0</ele><time>2026-03-29T11:10:53.405Z</time></trkpt><trkpt lat="43.1103055" lon="12.2234508"><ele>480.0</ele><time>2026-03-29T11:10:54.406Z</time></trkpt><trkpt lat="43.1102453" lon="12.2233518"><ele>480.0</ele><time>2026-03-29T11:10:55.407Z</time></trkpt><trkpt lat="43.1101774" lon="12.2232697"><ele>480.0</ele><time>2026-03-29T11:10:56.407Z</time></trkpt><trkpt lat="43.1101207" lon="12.2231854"><ele>480.0</ele><time>2026-03-29T11:10:57.405Z</time></trkpt><trkpt lat="43.1100737" lon="12.223081"><ele>479.1666666666667</ele><time>2026-03-29T11:10:58.405Z</time></trkpt><trkpt lat="43.1100362" lon="12.2229843"><ele>478.33333333333337</ele><time>2026-03-29T11:10:59.407Z</time></trkpt><trkpt lat="43.1100055" lon="12.2228896"><ele>477.5</ele><time>2026-03-29T11:11:00.407Z</time></trkpt><trkpt lat="43.1099718" lon="12.222786"><ele>476.6666666666667</ele><time>2026-03-29T11:11:01.405Z</time></trkpt><trkpt lat="43.10994" lon="12.2226828"><ele>475.83333333333337</ele><time>2026-03-29T11:11:02.406Z</time></trkpt><trkpt lat="43.1098893" lon="12.222554"><ele>475.0</ele><time>2026-03-29T11:11:03.406Z</time></trkpt><trkpt lat="43.1098401" lon="12.2224509"><ele>473.33333333333337</ele><time>2026-03-29T11:11:04.407Z</time></trkpt><trkpt lat="43.1097916" lon="12.2223403"><ele>471.6666666666667</ele><time>2026-03-29T11:11:05.406Z</time></trkpt><trkpt lat="43.1097577" lon="12.22225"><ele>470.0</ele><time>2026-03-29T11:11:06.405Z</time></trkpt><trkpt lat="43.1097378" lon="12.2221463"><ele>468.33333333333337</ele><time>2026-03-29T11:11:07.406Z</time></trkpt><trkpt lat="43.1096804" lon="12.222073"><ele>466.6666666666667</ele><time>2026-03-29T11:11:08.405Z</time></trkpt><trkpt lat="43.1096313" lon="12.2219968"><ele>465.0</ele><time>2026-03-29T11:11:09.406Z</time></trkpt><trkpt lat="43.1096082" lon="12.2219055"><ele>465.0</ele><time>2026-03-29T11:11:10.406Z</time></trkpt><trkpt lat="43.1095695" lon="12.2218174"><ele>465.0</ele><time>2026-03-29T11:11:11.407Z</time></trkpt><trkpt lat="43.1095474" lon="12.221716"><ele>465.0</ele><time>2026-03-29T11:11:12.405Z</time></trkpt><trkpt lat="43.109522" lon="12.2215617"><ele>465.0</ele><time>2026-03-29T11:11:14.406Z</time></trkpt><trkpt lat="43.1094455" lon="12.2214442"><ele>465.0</ele><time>2026-03-29T11:11:16.406Z</time></trkpt><trkpt lat="43.1094197" lon="12.2212859"><ele>463.8333333333333</ele><time>2026-03-29T11:11:18.406Z</time></trkpt><trkpt lat="43.1093621" lon="12.2212154"><ele>462.66666666666663</ele><time>2026-03-29T11:11:20.405Z</time></trkpt><trkpt lat="43.1092536" lon="12.221143"><ele>461.5</ele><time>2026-03-29T11:11:22.405Z</time></trkpt><trkpt lat="43.109204" lon="12.221059"><ele>460.3333333333333</ele><time>2026-03-29T11:11:23.404Z</time></trkpt><trkpt lat="43.1091558" lon="12.2209649"><ele>459.16666666666663</ele><time>2026-03-29T11:11:24.405Z</time></trkpt><trkpt lat="43.109114" lon="12.2208776"><ele>458.0</ele><time>2026-03-29T11:11:25.406Z</time></trkpt><trkpt lat="43.1090593" lon="12.2208094"><ele>457.2</ele><time>2026-03-29T11:11:26.404Z</time></trkpt><trkpt lat="43.1089976" lon="12.2207686"><ele>456.4</ele><time>2026-03-29T11:11:27.406Z</time></trkpt><trkpt lat="43.1089226" lon="12.2207158"><ele>455.59999999999997</ele><time>2026-03-29T11:11:28.406Z</time></trkpt><trkpt lat="43.108824" lon="12.2206622"><ele>454.79999999999995</ele><time>2026-03-29T11:11:29.406Z</time></trkpt><trkpt lat="43.1087377" lon="12.2205908"><ele>454.0</ele><time>2026-03-29T11:11:30.406Z</time></trkpt><trkpt lat="43.1086547" lon="12.2205122"><ele>454.00000000000006</ele><time>2026-03-29T11:11:31.405Z</time></trkpt><trkpt lat="43.1085847" lon="12.2204248"><ele>454.0</ele><time>2026-03-29T11:11:32.405Z</time></trkpt><trkpt lat="43.1085405" lon="12.2203215"><ele>454.0</ele><time>2026-03-29T11:11:33.406Z</time></trkpt><trkpt lat="43.1085036" lon="12.2202504"><ele>454.0</ele><time>2026-03-29T11:11:34.406Z</time></trkpt><trkpt lat="43.1084546" lon="12.2201818"><ele>454.00000000000006</ele><time>2026-03-29T11:11:36.405Z</time></trkpt><trkpt lat="43.1084003" lon="12.2201147"><ele>454.0</ele><time>2026-03-29T11:11:39.405Z</time></trkpt><trkpt lat="43.1083662" lon="12.2200273"><ele>454.0</ele><time>2026-03-29T11:11:41.407Z</time></trkpt><trkpt lat="43.1083267" lon="12.2199231"><ele>454.0</ele><time>2026-03-29T11:11:43.405Z</time></trkpt><trkpt lat="43.1082319" lon="12.2198266"><ele>454.0</ele><time>2026-03-29T11:11:45.405Z</time></trkpt><trkpt lat="43.1081226" lon="12.2197596"><ele>454.0</ele><time>2026-03-29T11:11:47.407Z</time></trkpt><trkpt lat="43.1080475" lon="12.2197003"><ele>454.0</ele><time>2026-03-29T11:11:49.405Z</time></trkpt><trkpt lat="43.1079694" lon="12.2196956"><ele>456.4</ele><time>2026-03-29T11:12:09.405Z</time></trkpt><trkpt lat="43.1078696" lon="12.2196989"><ele>458.79999999999995</ele><time>2026-03-29T11:12:13.406Z</time></trkpt><trkpt lat="43.1077722" lon="12.2196667"><ele>461.20000000000005</ele><time>2026-03-29T11:12:15.406Z</time></trkpt><trkpt lat="43.1076539" lon="12.2196811"><ele>463.6</ele><time>2026-03-29T11:12:17.407Z</time></trkpt><trkpt lat="43.107541" lon="12.2196695"><ele>466.0</ele><time>2026-03-29T11:12:19.407Z</time></trkpt><trkpt lat="43.107461" lon="12.2196642"><ele>466.00000000000006</ele><time>2026-03-29T11:12:21.407Z</time></trkpt><trkpt lat="43.1075001" lon="12.2197606"><ele>466.0</ele><time>2026-03-29T11:12:24.406Z</time></trkpt><trkpt lat="43.1075779" lon="12.2197918"><ele>466.0</ele><time>2026-03-29T11:12:26.406Z</time></trkpt><trkpt lat="43.1076404" lon="12.2198296"><ele>466.0</ele><time>2026-03-29T11:12:27.407Z</time></trkpt><trkpt lat="43.1077258" lon="12.2199282"><ele>466.00000000000006</ele><time>2026-03-29T11:12:29.406Z</time></trkpt><trkpt lat="43.1077842" lon="12.2200338"><ele>466.0</ele><time>2026-03-29T11:12:31.407Z</time></trkpt><trkpt lat="43.1078245" lon="12.2201426"><ele>461.8</ele><time>2026-03-29T11:12:33.407Z</time></trkpt><trkpt lat="43.1078582" lon="12.2202778"><ele>457.6</ele><time>2026-03-29T11:12:35.407Z</time></trkpt><trkpt lat="43.1078963" lon="12.2204066"><ele>453.4</ele><time>2026-03-29T11:12:37.406Z</time></trkpt><trkpt lat="43.1079422" lon="12.2205474"><ele>449.2</ele><time>2026-03-29T11:12:39.407Z</time></trkpt><trkpt lat="43.1079835" lon="12.2206824"><ele>445.0</ele><time>2026-03-29T11:12:41.406Z</time></trkpt><trkpt lat="43.1080529" lon="12.2208271"><ele>445.1666666666667</ele><time>2026-03-29T11:12:43.406Z</time></trkpt><trkpt lat="43.1080867" lon="12.2209009"><ele>445.33333333333337</ele><time>2026-03-29T11:12:44.406Z</time></trkpt><trkpt lat="43.1081656" lon="12.2209447"><ele>445.5</ele><time>2026-03-29T11:12:46.406Z</time></trkpt><trkpt lat="43.1082238" lon="12.2210721"><ele>445.66666666666663</ele><time>2026-03-29T11:12:48.405Z</time></trkpt><trkpt lat="43.1082471" lon="12.2211597"><ele>445.8333333333333</ele><time>2026-03-29T11:12:49.405Z</time></trkpt><trkpt lat="43.1082727" lon="12.221257"><ele>446.0</ele><time>2026-03-29T11:12:50.406Z</time></trkpt><trkpt lat="43.1082644" lon="12.2213833"><ele>444.49999999999994</ele><time>2026-03-29T11:12:51.407Z</time></trkpt><trkpt lat="43.1082745" lon="12.2215082"><ele>443.0</ele><time>2026-03-29T11:12:52.406Z</time></trkpt><trkpt lat="43.1082662" lon="12.2216251"><ele>441.5</ele><time>2026-03-29T11:12:53.407Z</time></trkpt><trkpt lat="43.1082622" lon="12.2217518"><ele>440.0</ele><time>2026-03-29T11:12:54.407Z</time></trkpt><trkpt lat="43.1082591" lon="12.2218604"><ele>438.49999999999994</ele><time>2026-03-29T11:12:55.407Z</time></trkpt><trkpt lat="43.1082455" lon="12.2219756"><ele>437.0</ele><time>2026-03-29T11:12:56.406Z</time></trkpt><trkpt lat="43.1082381" lon="12.2220852"><ele>435.49999999999994</ele><time>2026-03-29T11:12:57.407Z</time></trkpt><trkpt lat="43.1082231" lon="12.2221937"><ele>434.0</ele><time>2026-03-29T11:12:58.405Z</time></trkpt><trkpt lat="43.1082133" lon="12.222282"><ele>432.5</ele><time>2026-03-29T11:12:59.405Z</time></trkpt><trkpt lat="43.1082048" lon="12.2224357"><ele>431.0</ele><time>2026-03-29T11:13:01.406Z</time></trkpt><trkpt lat="43.1081992" lon="12.2225703"><ele>429.49999999999994</ele><time>2026-03-29T11:13:03.406Z</time></trkpt><trkpt lat="43.1082118" lon="12.2226662"><ele>428.0</ele><time>2026-03-29T11:13:04.406Z</time></trkpt><trkpt lat="43.1082601" lon="12.2228016"><ele>427.99999999999994</ele><time>2026-03-29T11:13:06.406Z</time></trkpt><trkpt lat="43.1082972" lon="12.2228854"><ele>428.0</ele><time>2026-03-29T11:13:07.407Z</time></trkpt><trkpt lat="43.1082892" lon="12.2230123"><ele>428.0</ele><time>2026-03-29T11:13:09.407Z</time></trkpt><trkpt lat="43.1082706" lon="12.2231237"><ele>428.0</ele><time>2026-03-29T11:13:11.406Z</time></trkpt><trkpt lat="43.1082136" lon="12.2230867"><ele>427.99999999999994</ele><time>2026-03-29T11:13:13.406Z</time></trkpt><trkpt lat="43.1081428" lon="12.2229707"><ele>428.0</ele><time>2026-03-29T11:13:15.405Z</time></trkpt><trkpt lat="43.1080883" lon="12.2228912"><ele>423.49999999999994</ele><time>2026-03-29T11:13:16.406Z</time></trkpt><trkpt lat="43.1080368" lon="12.2228317"><ele>419.0</ele><time>2026-03-29T11:13:17.406Z</time></trkpt><trkpt lat="43.1079779" lon="12.2227343"><ele>414.5</ele><time>2026-03-29T11:13:18.406Z</time></trkpt><trkpt lat="43.107919" lon="12.2226412"><ele>410.0</ele><time>2026-03-29T11:13:19.405Z</time></trkpt><trkpt lat="43.1078663" lon="12.2225584"><ele>405.49999999999994</ele><time>2026-03-29T11:13:20.406Z</time></trkpt><trkpt lat="43.1078156" lon="12.2224854"><ele>401.0</ele><time>2026-03-29T11:13:21.406Z</time></trkpt><trkpt lat="43.1077544" lon="12.2224443"><ele>401.0</ele><time>2026-03-29T11:13:23.407Z</time></trkpt><trkpt lat="43.1077485" lon="12.2225801"><ele>401.0</ele><time>2026-03-29T11:13:26.406Z</time></trkpt><trkpt lat="43.1077896" lon="12.2226906"><ele>401.0</ele><time>2026-03-29T11:13:27.406Z</time></trkpt><trkpt lat="43.1078411" lon="12.222804"><ele>401.0</ele><time>2026-03-29T11:13:28.407Z</time></trkpt><trkpt lat="43.1078891" lon="12.2229075"><ele>401.0</ele><time>2026-03-29T11:13:29.406Z</time></trkpt><trkpt lat="43.1079346" lon="12.2230202"><ele>400.99999999999994</ele><time>2026-03-29T11:13:30.405Z</time></trkpt><trkpt lat="43.1079495" lon="12.2231192"><ele>401.0</ele><time>2026-03-29T11:13:31.406Z</time></trkpt><trkpt lat="43.1079686" lon="12.2232447"><ele>401.0</ele><time>2026-03-29T11:13:32.405Z</time></trkpt><trkpt lat="43.1079166" lon="12.2233614"><ele>401.0</ele><time>2026-03-29T11:13:33.407Z</time></trkpt><trkpt lat="43.1078964" lon="12.2234473"><ele>400.99999999999994</ele><time>2026-03-29T11:13:34.406Z</time></trkpt><trkpt lat="43.1078824" lon="12.2235549"><ele>401.0</ele><time>2026-03-29T11:13:35.406Z</time></trkpt><trkpt lat="43.107875" lon="12.2236727"><ele>399.0</ele><time>2026-03-29T11:13:36.405Z</time></trkpt><trkpt lat="43.1078767" lon="12.2237782"><ele>397.0</ele><time>2026-03-29T11:13:37.406Z</time></trkpt><trkpt lat="43.1078488" lon="12.2239049"><ele>395.0</ele><time>2026-03-29T11:13:39.405Z</time></trkpt><trkpt lat="43.1078929" lon="12.2240633"><ele>393.0</ele><time>2026-03-29T11:13:41.407Z</time></trkpt><trkpt lat="43.1079094" lon="12.2241902"><ele>391.0</ele><time>2026-03-29T11:13:42.407Z</time></trkpt><trkpt lat="43.1079189" lon="12.2243073"><ele>390.6</ele><time>2026-03-29T11:13:43.406Z</time></trkpt><trkpt lat="43.1079601" lon="12.2244287"><ele>390.20000000000005</ele><time>2026-03-29T11:13:44.406Z</time></trkpt><trkpt lat="43.1080126" lon="12.2245411"><ele>389.79999999999995</ele><time>2026-03-29T11:13:45.407Z</time></trkpt><trkpt lat="43.1080669" lon="12.2246534"><ele>389.4</ele><time>2026-03-29T11:13:46.405Z</time></trkpt><trkpt lat="43.1080995" lon="12.2247854"><ele>389.0</ele><time>2026-03-29T11:13:47.406Z</time></trkpt><trkpt lat="43.1081253" lon="12.2249097"><ele>389.79999999999995</ele><time>2026-03-29T11:13:48.407Z</time></trkpt><trkpt lat="43.1081286" lon="12.2250213"><ele>390.59999999999997</ele><time>2026-03-29T11:13:49.407Z</time></trkpt><trkpt lat="43.1080934" lon="12.2251201"><ele>391.4</ele><time>2026-03-29T11:13:50.406Z</time></trkpt><trkpt lat="43.1080124" lon="12.225258"><ele>392.2</ele><time>2026-03-29T11:13:52.406Z</time></trkpt><trkpt lat="43.1079551" lon="12.2253256"><ele>393.0</ele><time>2026-03-29T11:13:53.406Z</time></trkpt><trkpt lat="43.1078738" lon="12.2253539"><ele>393.0</ele><time>2026-03-29T11:13:54.405Z</time></trkpt><trkpt lat="43.1077951" lon="12.2253986"><ele>393.0</ele><time>2026-03-29T11:13:55.405Z</time></trkpt><trkpt lat="43.1077316" lon="12.2254626"><ele>393.0</ele><time>2026-03-29T11:13:56.405Z</time></trkpt><trkpt lat="43.1077178" lon="12.2256088"><ele>393.0</ele><time>2026-03-29T11:13:58.406Z</time></trkpt><trkpt lat="43.1077772" lon="12.2256844"><ele>393.0</ele><time>2026-03-29T11:13:59.405Z</time></trkpt><trkpt lat="43.1078543" lon="12.2257505"><ele>393.0</ele><time>2026-03-29T11:14:00.406Z</time></trkpt><trkpt lat="43.1079441" lon="12.2258118"><ele>392.8333333333333</ele><time>2026-03-29T11:14:01.405Z</time></trkpt><trkpt lat="43.1080268" lon="12.22586"><ele>392.66666666666663</ele><time>2026-03-29T11:14:02.406Z</time></trkpt><trkpt lat="43.1080882" lon="12.225915"><ele>392.5</ele><time>2026-03-29T11:14:03.406Z</time></trkpt><trkpt lat="43.1081484" lon="12.2259895"><ele>392.3333333333333</ele><time>2026-03-29T11:14:04.406Z</time></trkpt><trkpt lat="43.1082017" lon="12.2260647"><ele>392.16666666666663</ele><time>2026-03-29T11:14:05.407Z</time></trkpt><trkpt lat="43.1082551" lon="12.226156"><ele>392.0</ele><time>2026-03-29T11:14:06.407Z</time></trkpt><trkpt lat="43.1082933" lon="12.2262547"><ele>391.3333333333333</ele><time>2026-03-29T11:14:07.406Z</time></trkpt><trkpt lat="43.1083379" lon="12.2263564"><ele>390.66666666666663</ele><time>2026-03-29T11:14:08.406Z</time></trkpt><trkpt lat="43.1083609" lon="12.2264527"><ele>390.0</ele><time>2026-03-29T11:14:09.406Z</time></trkpt><trkpt lat="43.1083918" lon="12.2265498"><ele>389.33333333333337</ele><time>2026-03-29T11:14:10.406Z</time></trkpt><trkpt lat="43.1084171" lon="12.2266402"><ele>388.6666666666667</ele><time>2026-03-29T11:14:11.406Z</time></trkpt><trkpt lat="43.1084815" lon="12.2267997"><ele>388.0</ele><time>2026-03-29T11:14:13.407Z</time></trkpt><trkpt lat="43.1085125" lon="12.226913"><ele>388.00000000000006</ele><time>2026-03-29T11:14:14.406Z</time></trkpt><trkpt lat="43.108555" lon="12.2270045"><ele>388.0</ele><time>2026-03-29T11:14:15.407Z</time></trkpt><trkpt lat="43.1086008" lon="12.2271098"><ele>388.0</ele><time>2026-03-29T11:14:16.407Z</time></trkpt><trkpt lat="43.108648" lon="12.2272079"><ele>388.0</ele><time>2026-03-29T11:14:17.406Z</time></trkpt><trkpt lat="43.1087015" lon="12.227303"><ele>388.00000000000006</ele><time>2026-03-29T11:14:18.406Z</time></trkpt><trkpt lat="43.1087447" lon="12.2273996"><ele>388.0</ele><time>2026-03-29T11:14:19.406Z</time></trkpt><trkpt lat="43.1088042" lon="12.2274536"><ele>388.00000000000006</ele><time>2026-03-29T11:14:20.407Z</time></trkpt><trkpt lat="43.1088616" lon="12.2275105"><ele>388.0</ele><time>2026-03-29T11:14:21.407Z</time></trkpt><trkpt lat="43.108943" lon="12.2275331"><ele>388.0</ele><time>2026-03-29T11:14:22.406Z</time></trkpt><trkpt lat="43.1090128" lon="12.2275762"><ele>388.0</ele><time>2026-03-29T11:14:23.405Z</time></trkpt><trkpt lat="43.1090927" lon="12.2276379"><ele>388.00000000000006</ele><time>2026-03-29T11:14:24.406Z</time></trkpt><trkpt lat="43.1091533" lon="12.2277097"><ele>388.0</ele><time>2026-03-29T11:14:25.406Z</time></trkpt><trkpt lat="43.1091857" lon="12.2278156"><ele>388.0</ele><time>2026-03-29T11:14:26.407Z</time></trkpt><trkpt lat="43.1091929" lon="12.227933"><ele>388.0</ele><time>2026-03-29T11:14:27.407Z</time></trkpt><trkpt lat="43.1092077" lon="12.2280641"><ele>388.0</ele><time>2026-03-29T11:14:28.405Z</time></trkpt><trkpt lat="43.1091919" lon="12.2282177"><ele>388.0</ele><time>2026-03-29T11:14:29.406Z</time></trkpt><trkpt lat="43.1091878" lon="12.2283292"><ele>388.0</ele><time>2026-03-29T11:14:30.407Z</time></trkpt><trkpt lat="43.1091555" lon="12.2284476"><ele>386.1666666666667</ele><time>2026-03-29T11:14:31.406Z</time></trkpt><trkpt lat="43.1091386" lon="12.2285444"><ele>384.33333333333337</ele><time>2026-03-29T11:14:32.406Z</time></trkpt><trkpt lat="43.1091308" lon="12.2286646"><ele>382.5</ele><time>2026-03-29T11:14:33.407Z</time></trkpt><trkpt lat="43.1091682" lon="12.2287874"><ele>380.6666666666667</ele><time>2026-03-29T11:14:34.406Z</time></trkpt><trkpt lat="43.1091743" lon="12.2289004"><ele>378.83333333333337</ele><time>2026-03-29T11:14:35.407Z</time></trkpt><trkpt lat="43.1092013" lon="12.2289848"><ele>377.0</ele><time>2026-03-29T11:14:36.407Z</time></trkpt><trkpt lat="43.1092171" lon="12.2290793"><ele>376.1666666666667</ele><time>2026-03-29T11:14:37.406Z</time></trkpt><trkpt lat="43.1092114" lon="12.2291913"><ele>375.33333333333337</ele><time>2026-03-29T11:14:38.407Z</time></trkpt><trkpt lat="43.1092008" lon="12.2293075"><ele>374.5</ele><time>2026-03-29T11:14:39.406Z</time></trkpt><trkpt lat="43.1091769" lon="12.2294357"><ele>373.6666666666667</ele><time>2026-03-29T11:14:40.407Z</time></trkpt><trkpt lat="43.1091487" lon="12.2295518"><ele>372.8333333333333</ele><time>2026-03-29T11:14:41.405Z</time></trkpt><trkpt lat="43.1091209" lon="12.2296614"><ele>372.0</ele><time>2026-03-29T11:14:42.406Z</time></trkpt><trkpt lat="43.1090938" lon="12.2297722"><ele>370.6666666666667</ele><time>2026-03-29T11:14:43.407Z</time></trkpt><trkpt lat="43.1090635" lon="12.229877"><ele>369.3333333333333</ele><time>2026-03-29T11:14:44.407Z</time></trkpt><trkpt lat="43.1090318" lon="12.2299778"><ele>368.0</ele><time>2026-03-29T11:14:45.405Z</time></trkpt><trkpt lat="43.1090184" lon="12.2300666"><ele>366.66666666666663</ele><time>2026-03-29T11:14:46.407Z</time></trkpt><trkpt lat="43.1090052" lon="12.230172"><ele>365.3333333333333</ele><time>2026-03-29T11:14:47.406Z</time></trkpt><trkpt lat="43.109004" lon="12.2302971"><ele>364.0</ele><time>2026-03-29T11:14:48.408Z</time></trkpt><trkpt lat="43.1090069" lon="12.2304346"><ele>364.0</ele><time>2026-03-29T11:14:49.406Z</time></trkpt><trkpt lat="43.1089909" lon="12.2305651"><ele>364.0</ele><time>2026-03-29T11:14:50.406Z</time></trkpt><trkpt lat="43.1089832" lon="12.2306887"><ele>364.0</ele><time>2026-03-29T11:14:51.406Z</time></trkpt><trkpt lat="43.1089589" lon="12.2308096"><ele>364.0</ele><time>2026-03-29T11:14:52.407Z</time></trkpt><trkpt lat="43.1089118" lon="12.2309284"><ele>364.0</ele><time>2026-03-29T11:14:53.406Z</time></trkpt><trkpt lat="43.1088646" lon="12.2310344"><ele>364.2</ele><time>2026-03-29T11:14:54.407Z</time></trkpt><trkpt lat="43.1088207" lon="12.2311526"><ele>364.4</ele><time>2026-03-29T11:14:55.405Z</time></trkpt><trkpt lat="43.1087686" lon="12.2312767"><ele>364.6</ele><time>2026-03-29T11:14:56.405Z</time></trkpt><trkpt lat="43.1087307" lon="12.2313942"><ele>364.8</ele><time>2026-03-29T11:14:57.406Z</time></trkpt><trkpt lat="43.1086945" lon="12.2314934"><ele>365.0</ele><time>2026-03-29T11:14:58.408Z</time></trkpt><trkpt lat="43.1086683" lon="12.2315961"><ele>364.2</ele><time>2026-03-29T11:14:59.406Z</time></trkpt><trkpt lat="43.1086357" lon="12.2316975"><ele>363.4</ele><time>2026-03-29T11:15:00.406Z</time></trkpt><trkpt lat="43.1085965" lon="12.2317881"><ele>362.6</ele><time>2026-03-29T11:15:01.407Z</time></trkpt><trkpt lat="43.1085345" lon="12.2319403"><ele>361.8</ele><time>2026-03-29T11:15:03.408Z</time></trkpt><trkpt lat="43.1084063" lon="12.2319964"><ele>361.0</ele><time>2026-03-29T11:15:05.405Z</time></trkpt><trkpt lat="43.1082666" lon="12.2320287"><ele>358.8333333333333</ele><time>2026-03-29T11:15:07.406Z</time></trkpt><trkpt lat="43.1081865" lon="12.2320382"><ele>356.66666666666663</ele><time>2026-03-29T11:15:08.405Z</time></trkpt><trkpt lat="43.1081124" lon="12.2320673"><ele>354.5</ele><time>2026-03-29T11:15:09.406Z</time></trkpt><trkpt lat="43.1080401" lon="12.2320942"><ele>352.3333333333333</ele><time>2026-03-29T11:15:10.407Z</time></trkpt><trkpt lat="43.1079723" lon="12.2321342"><ele>350.1666666666667</ele><time>2026-03-29T11:15:11.406Z</time></trkpt><trkpt lat="43.1078981" lon="12.232168"><ele>348.0</ele><time>2026-03-29T11:15:12.407Z</time></trkpt><trkpt lat="43.1078185" lon="12.2322094"><ele>348.0</ele><time>2026-03-29T11:15:13.407Z</time></trkpt><trkpt lat="43.1077459" lon="12.2322451"><ele>348.0</ele><time>2026-03-29T11:15:14.406Z</time></trkpt><trkpt lat="43.107692" lon="12.2323009"><ele>348.0</ele><time>2026-03-29T11:15:15.405Z</time></trkpt><trkpt lat="43.1076358" lon="12.2323791"><ele>348.0</ele><time>2026-03-29T11:15:16.406Z</time></trkpt><trkpt lat="43.1075787" lon="12.2324686"><ele>348.0</ele><time>2026-03-29T11:15:17.406Z</time></trkpt><trkpt lat="43.1075262" lon="12.2325657"><ele>348.0</ele><time>2026-03-29T11:15:18.406Z</time></trkpt><trkpt lat="43.1074758" lon="12.2326606"><ele>347.5</ele><time>2026-03-29T11:15:19.407Z</time></trkpt><trkpt lat="43.1074412" lon="12.2327619"><ele>347.0</ele><time>2026-03-29T11:15:20.406Z</time></trkpt><trkpt lat="43.1074036" lon="12.2328701"><ele>346.5</ele><time>2026-03-29T11:15:21.406Z</time></trkpt><trkpt lat="43.1073815" lon="12.2329769"><ele>346.0</ele><time>2026-03-29T11:15:22.406Z</time></trkpt><trkpt lat="43.1073716" lon="12.2330975"><ele>345.5</ele><time>2026-03-29T11:15:23.405Z</time></trkpt><trkpt lat="43.1073589" lon="12.2332178"><ele>345.0</ele><time>2026-03-29T11:15:24.406Z</time></trkpt><trkpt lat="43.1073312" lon="12.2333311"><ele>344.4</ele><time>2026-03-29T11:15:25.406Z</time></trkpt><trkpt lat="43.1072832" lon="12.2334439"><ele>343.8</ele><time>2026-03-29T11:15:26.406Z</time></trkpt><trkpt lat="43.1072253" lon="12.2335482"><ele>343.20000000000005</ele><time>2026-03-29T11:15:27.406Z</time></trkpt><trkpt lat="43.1071555" lon="12.2336204"><ele>342.6</ele><time>2026-03-29T11:15:28.406Z</time></trkpt><trkpt lat="43.1071087" lon="12.2337322"><ele>342.0</ele><time>2026-03-29T11:15:30.407Z</time></trkpt><trkpt lat="43.1071822" lon="12.2337935"><ele>342.0</ele><time>2026-03-29T11:15:32.406Z</time></trkpt><trkpt lat="43.1073261" lon="12.2337273"><ele>342.0</ele><time>2026-03-29T11:15:34.405Z</time></trkpt><trkpt lat="43.1073934" lon="12.2336816"><ele>342.0</ele><time>2026-03-29T11:15:35.406Z</time></trkpt><trkpt lat="43.1074487" lon="12.2336013"><ele>342.0</ele><time>2026-03-29T11:15:37.406Z</time></trkpt><trkpt lat="43.107451" lon="12.2337541"><ele>342.0</ele><time>2026-03-29T11:15:40.406Z</time></trkpt><trkpt lat="43.1074148" lon="12.2338502"><ele>342.0</ele><time>2026-03-29T11:15:41.406Z</time></trkpt><trkpt lat="43.1073617" lon="12.2339658"><ele>342.0</ele><time>2026-03-29T11:15:42.407Z</time></trkpt><trkpt lat="43.1073152" lon="12.2340757"><ele>342.0</ele><time>2026-03-29T11:15:43.405Z</time></trkpt><trkpt lat="43.1072779" lon="12.2341811"><ele>342.0</ele><time>2026-03-29T11:15:44.406Z</time></trkpt><trkpt lat="43.1072221" lon="12.2342697"><ele>342.0</ele><time>2026-03-29T11:15:45.407Z</time></trkpt><trkpt lat="43.107145" lon="12.2343125"><ele>342.0</ele><time>2026-03-29T11:15:46.406Z</time></trkpt><trkpt lat="43.1070476" lon="12.2343421"><ele>338.20000000000005</ele><time>2026-03-29T11:15:47.407Z</time></trkpt><trkpt lat="43.1069423" lon="12.2343501"><ele>334.4</ele><time>2026-03-29T11:15:48.405Z</time></trkpt><trkpt lat="43.1068383" lon="12.2343571"><ele>330.6</ele><time>2026-03-29T11:15:49.406Z</time></trkpt><trkpt lat="43.1067614" lon="12.2343777"><ele>326.79999999999995</ele><time>2026-03-29T11:15:50.406Z</time></trkpt><trkpt lat="43.1066735" lon="12.234467"><ele>323.0</ele><time>2026-03-29T11:15:52.406Z</time></trkpt><trkpt lat="43.1065836" lon="12.2345181"><ele>322.79999999999995</ele><time>2026-03-29T11:15:54.405Z</time></trkpt><trkpt lat="43.106482" lon="12.2345603"><ele>322.6</ele><time>2026-03-29T11:15:56.406Z</time></trkpt><trkpt lat="43.1063879" lon="12.2346548"><ele>322.4</ele><time>2026-03-29T11:15:58.406Z</time></trkpt><trkpt lat="43.1063061" lon="12.2347502"><ele>322.20000000000005</ele><time>2026-03-29T11:16:00.407Z</time></trkpt><trkpt lat="43.1062364" lon="12.2348741"><ele>322.0</ele><time>2026-03-29T11:16:02.407Z</time></trkpt><trkpt lat="43.1061582" lon="12.2350023"><ele>319.66666666666663</ele><time>2026-03-29T11:16:04.408Z</time></trkpt><trkpt lat="43.1060821" lon="12.2350809"><ele>317.3333333333333</ele><time>2026-03-29T11:16:06.407Z</time></trkpt><trkpt lat="43.1060288" lon="12.2351431"><ele>315.0</ele><time>2026-03-29T11:16:09.406Z</time></trkpt><trkpt lat="43.1060903" lon="12.2350921"><ele>312.6666666666667</ele><time>2026-03-29T11:17:25.407Z</time></trkpt><trkpt lat="43.1061392" lon="12.2350262"><ele>310.33333333333337</ele><time>2026-03-29T11:17:26.408Z</time></trkpt><trkpt lat="43.1061961" lon="12.2349347"><ele>308.0</ele><time>2026-03-29T11:17:27.407Z</time></trkpt><trkpt lat="43.1062591" lon="12.2348405"><ele>310.8</ele><time>2026-03-29T11:17:28.407Z</time></trkpt><trkpt lat="43.1063429" lon="12.2347212"><ele>313.6</ele><time>2026-03-29T11:17:29.408Z</time></trkpt><trkpt lat="43.1064225" lon="12.2346251"><ele>316.40000000000003</ele><time>2026-03-29T11:17:30.406Z</time></trkpt><trkpt lat="43.1065123" lon="12.2345618"><ele>319.20000000000005</ele><time>2026-03-29T11:17:31.406Z</time></trkpt><trkpt lat="43.1066063" lon="12.2345175"><ele>322.0</ele><time>2026-03-29T11:17:32.407Z</time></trkpt><trkpt lat="43.1067246" lon="12.2345498"><ele>322.25</ele><time>2026-03-29T11:17:33.407Z</time></trkpt><trkpt lat="43.1068354" lon="12.2345943"><ele>322.5</ele><time>2026-03-29T11:17:34.406Z</time></trkpt><trkpt lat="43.1069501" lon="12.2346658"><ele>322.75</ele><time>2026-03-29T11:17:35.407Z</time></trkpt><trkpt lat="43.1070638" lon="12.2347447"><ele>323.0</ele><time>2026-03-29T11:17:36.408Z</time></trkpt><trkpt lat="43.1071708" lon="12.2348255"><ele>319.79999999999995</ele><time>2026-03-29T11:17:37.407Z</time></trkpt><trkpt lat="43.107249" lon="12.2349331"><ele>316.59999999999997</ele><time>2026-03-29T11:17:38.406Z</time></trkpt><trkpt lat="43.1073233" lon="12.2350373"><ele>313.4</ele><time>2026-03-29T11:17:39.407Z</time></trkpt><trkpt lat="43.1073854" lon="12.2351294"><ele>310.2</ele><time>2026-03-29T11:17:40.406Z</time></trkpt><trkpt lat="43.1074441" lon="12.2352178"><ele>307.0</ele><time>2026-03-29T11:17:41.407Z</time></trkpt><trkpt lat="43.1075135" lon="12.2352729"><ele>307.0</ele><time>2026-03-29T11:17:42.406Z</time></trkpt><trkpt lat="43.1075757" lon="12.2353299"><ele>307.0</ele><time>2026-03-29T11:17:43.405Z</time></trkpt><trkpt lat="43.1076516" lon="12.2353702"><ele>307.0</ele><time>2026-03-29T11:17:45.406Z</time></trkpt><trkpt lat="43.1077443" lon="12.235317"><ele>307.0</ele><time>2026-03-29T11:17:47.407Z</time></trkpt><trkpt lat="43.1077899" lon="12.2352564"><ele>307.0</ele><time>2026-03-29T11:17:48.407Z</time></trkpt><trkpt lat="43.1078328" lon="12.2351871"><ele>307.0</ele><time>2026-03-29T11:17:49.407Z</time></trkpt><trkpt lat="43.107876" lon="12.2351063"><ele>307.0</ele><time>2026-03-29T11:17:50.407Z</time></trkpt><trkpt lat="43.1079123" lon="12.2350024"><ele>307.0</ele><time>2026-03-29T11:17:51.407Z</time></trkpt><trkpt lat="43.1079525" lon="12.23489"><ele>307.0</ele><time>2026-03-29T11:17:52.405Z</time></trkpt><trkpt lat="43.1079624" lon="12.2347421"><ele>307.0</ele><time>2026-03-29T11:17:53.406Z</time></trkpt><trkpt lat="43.1079832" lon="12.2345864"><ele>307.0</ele><time>2026-03-29T11:17:54.408Z</time></trkpt><trkpt lat="43.1080101" lon="12.2344281"><ele>308.8</ele><time>2026-03-29T11:17:55.407Z</time></trkpt><trkpt lat="43.108035" lon="12.2342812"><ele>310.6</ele><time>2026-03-29T11:17:56.407Z</time></trkpt><trkpt lat="43.1080795" lon="12.2341641"><ele>312.40000000000003</ele><time>2026-03-29T11:17:57.406Z</time></trkpt><trkpt lat="43.1081492" lon="12.234161"><ele>314.2</ele><time>2026-03-29T11:18:00.407Z</time></trkpt><trkpt lat="43.1080674" lon="12.2342498"><ele>316.0</ele><time>2026-03-29T11:18:05.406Z</time></trkpt><trkpt lat="43.1081238" lon="12.2343051"><ele>316.0</ele><time>2026-03-29T11:18:17.407Z</time></trkpt><trkpt lat="43.1082049" lon="12.2343261"><ele>316.0</ele><time>2026-03-29T11:18:19.408Z</time></trkpt><trkpt lat="43.1082877" lon="12.2343585"><ele>316.0</ele><time>2026-03-29T11:18:21.408Z</time></trkpt><trkpt lat="43.108356" lon="12.2343713"><ele>316.0</ele><time>2026-03-29T11:18:22.405Z</time></trkpt><trkpt lat="43.1084212" lon="12.2344269"><ele>316.0</ele><time>2026-03-29T11:18:23.408Z</time></trkpt><trkpt lat="43.1084919" lon="12.2344744"><ele>316.0</ele><time>2026-03-29T11:18:24.408Z</time></trkpt><trkpt lat="43.1085602" lon="12.2345106"><ele>314.8333333333333</ele><time>2026-03-29T11:18:25.406Z</time></trkpt><trkpt lat="43.1086455" lon="12.2345368"><ele>313.66666666666663</ele><time>2026-03-29T11:18:26.405Z</time></trkpt><trkpt lat="43.1087286" lon="12.2345785"><ele>312.5</ele><time>2026-03-29T11:18:27.407Z</time></trkpt><trkpt lat="43.1088112" lon="12.2346272"><ele>311.3333333333333</ele><time>2026-03-29T11:18:28.406Z</time></trkpt><trkpt lat="43.1088964" lon="12.2346591"><ele>310.1666666666667</ele><time>2026-03-29T11:18:29.406Z</time></trkpt><trkpt lat="43.1089736" lon="12.2346903"><ele>309.0</ele><time>2026-03-29T11:18:30.405Z</time></trkpt><trkpt lat="43.1090538" lon="12.2347153"><ele>308.4</ele><time>2026-03-29T11:18:31.405Z</time></trkpt><trkpt lat="43.1091306" lon="12.2347528"><ele>307.79999999999995</ele><time>2026-03-29T11:18:32.406Z</time></trkpt><trkpt lat="43.1091948" lon="12.2347922"><ele>307.20000000000005</ele><time>2026-03-29T11:18:33.405Z</time></trkpt><trkpt lat="43.109343" lon="12.2348342"><ele>306.6</ele><time>2026-03-29T11:18:35.406Z</time></trkpt><trkpt lat="43.1094179" lon="12.2348611"><ele>306.0</ele><time>2026-03-29T11:18:36.405Z</time></trkpt><trkpt lat="43.1094989" lon="12.2348683"><ele>303.1666666666667</ele><time>2026-03-29T11:18:37.406Z</time></trkpt><trkpt lat="43.1095781" lon="12.2348608"><ele>300.3333333333333</ele><time>2026-03-29T11:18:38.406Z</time></trkpt><trkpt lat="43.1096632" lon="12.2348763"><ele>297.5</ele><time>2026-03-29T11:18:39.406Z</time></trkpt><trkpt lat="43.1097318" lon="12.2348784"><ele>294.66666666666663</ele><time>2026-03-29T11:18:40.407Z</time></trkpt><trkpt lat="43.1098002" lon="12.2348544"><ele>291.8333333333333</ele><time>2026-03-29T11:18:41.407Z</time></trkpt><trkpt lat="43.1098636" lon="12.2348256"><ele>289.0</ele><time>2026-03-29T11:18:42.407Z</time></trkpt><trkpt lat="43.1099359" lon="12.2347632"><ele>288.3333333333333</ele><time>2026-03-29T11:18:43.406Z</time></trkpt><trkpt lat="43.1100128" lon="12.23469"><ele>287.66666666666663</ele><time>2026-03-29T11:18:44.407Z</time></trkpt><trkpt lat="43.1100811" lon="12.2346116"><ele>287.0</ele><time>2026-03-29T11:18:45.407Z</time></trkpt><trkpt lat="43.1101325" lon="12.2345409"><ele>286.3333333333333</ele><time>2026-03-29T11:18:46.407Z</time></trkpt><trkpt lat="43.1101973" lon="12.2344622"><ele>285.6666666666667</ele><time>2026-03-29T11:18:47.407Z</time></trkpt><trkpt lat="43.110253" lon="12.2343688"><ele>285.0</ele><time>2026-03-29T11:18:48.405Z</time></trkpt><trkpt lat="43.1102884" lon="12.2342718"><ele>285.0</ele><time>2026-03-29T11:18:49.407Z</time></trkpt><trkpt lat="43.1103324" lon="12.2341719"><ele>285.0</ele><time>2026-03-29T11:18:50.406Z</time></trkpt><trkpt lat="43.1103866" lon="12.234065"><ele>285.0</ele><time>2026-03-29T11:18:51.407Z</time></trkpt><trkpt lat="43.1104467" lon="12.2339425"><ele>285.0</ele><time>2026-03-29T11:18:53.407Z</time></trkpt><trkpt lat="43.1105256" lon="12.2338976"><ele>285.0</ele><time>2026-03-29T11:18:55.406Z</time></trkpt><trkpt lat="43.1105634" lon="12.2339862"><ele>285.0</ele><time>2026-03-29T11:18:57.408Z</time></trkpt><trkpt lat="43.110545" lon="12.2341365"><ele>285.0</ele><time>2026-03-29T11:18:59.406Z</time></trkpt><trkpt lat="43.1105293" lon="12.234243"><ele>285.0</ele><time>2026-03-29T11:19:00.405Z</time></trkpt><trkpt lat="43.1105002" lon="12.2343514"><ele>285.0</ele><time>2026-03-29T11:19:01.407Z</time></trkpt><trkpt lat="43.1104766" lon="12.2344624"><ele>285.0</ele><time>2026-03-29T11:19:02.407Z</time></trkpt><trkpt lat="43.1104454" lon="12.2345792"><ele>285.0</ele><time>2026-03-29T11:19:03.406Z</time></trkpt><trkpt lat="43.1104279" lon="12.234713"><ele>285.0</ele><time>2026-03-29T11:19:04.408Z</time></trkpt><trkpt lat="43.1103971" lon="12.2348491"><ele>282.4</ele><time>2026-03-29T11:19:05.407Z</time></trkpt><trkpt lat="43.1103727" lon="12.2349852"><ele>279.8</ele><time>2026-03-29T11:19:06.408Z</time></trkpt><trkpt lat="43.1103491" lon="12.2351197"><ele>277.2</ele><time>2026-03-29T11:19:07.407Z</time></trkpt><trkpt lat="43.11033" lon="12.2352641"><ele>274.6</ele><time>2026-03-29T11:19:08.408Z</time></trkpt><trkpt lat="43.1103701" lon="12.2354048"><ele>272.0</ele><time>2026-03-29T11:19:09.407Z</time></trkpt><trkpt lat="43.1103722" lon="12.235527"><ele>271.1666666666667</ele><time>2026-03-29T11:19:10.407Z</time></trkpt><trkpt lat="43.1103714" lon="12.2356372"><ele>270.33333333333337</ele><time>2026-03-29T11:19:11.408Z</time></trkpt><trkpt lat="43.1103602" lon="12.2357498"><ele>269.5</ele><time>2026-03-29T11:19:12.406Z</time></trkpt><trkpt lat="43.1103253" lon="12.2358359"><ele>268.6666666666667</ele><time>2026-03-29T11:19:13.406Z</time></trkpt><trkpt lat="43.1103155" lon="12.2359422"><ele>267.8333333333333</ele><time>2026-03-29T11:19:14.407Z</time></trkpt><trkpt lat="43.1103364" lon="12.236061"><ele>267.0</ele><time>2026-03-29T11:19:15.407Z</time></trkpt><trkpt lat="43.11037" lon="12.2361577"><ele>267.0</ele><time>2026-03-29T11:19:16.405Z</time></trkpt><trkpt lat="43.1104147" lon="12.2362614"><ele>267.0</ele><time>2026-03-29T11:19:17.407Z</time></trkpt><trkpt lat="43.1104658" lon="12.2363417"><ele>267.0</ele><time>2026-03-29T11:19:18.407Z</time></trkpt><trkpt lat="43.1105236" lon="12.2364048"><ele>267.0</ele><time>2026-03-29T11:19:19.407Z</time></trkpt><trkpt lat="43.1105794" lon="12.2364671"><ele>267.0</ele><time>2026-03-29T11:19:20.408Z</time></trkpt><trkpt lat="43.1106638" lon="12.2364971"><ele>267.0</ele><time>2026-03-29T11:19:21.407Z</time></trkpt><trkpt lat="43.1107336" lon="12.2365197"><ele>263.5</ele><time>2026-03-29T11:19:22.406Z</time></trkpt><trkpt lat="43.110845" lon="12.2365698"><ele>260.0</ele><time>2026-03-29T11:19:24.407Z</time></trkpt><trkpt lat="43.11087" lon="12.2366492"><ele>256.5</ele><time>2026-03-29T11:19:25.406Z</time></trkpt><trkpt lat="43.1108978" lon="12.2367475"><ele>253.0</ele><time>2026-03-29T11:19:26.407Z</time></trkpt><trkpt lat="43.1109006" lon="12.2368585"><ele>249.5</ele><time>2026-03-29T11:19:27.406Z</time></trkpt><trkpt lat="43.1108959" lon="12.236978"><ele>246.0</ele><time>2026-03-29T11:19:28.406Z</time></trkpt><trkpt lat="43.1108806" lon="12.2370832"><ele>246.0</ele><time>2026-03-29T11:19:29.407Z</time></trkpt><trkpt lat="43.110841" lon="12.2371642"><ele>246.0</ele><time>2026-03-29T11:19:30.406Z</time></trkpt><trkpt lat="43.1108118" lon="12.2372442"><ele>246.0</ele><time>2026-03-29T11:19:31.406Z</time></trkpt><trkpt lat="43.1108433" lon="12.2373772"><ele>246.0</ele><time>2026-03-29T11:19:33.406Z</time></trkpt><trkpt lat="43.1108766" lon="12.2374771"><ele>246.0</ele><time>2026-03-29T11:19:34.407Z</time></trkpt><trkpt lat="43.1109117" lon="12.2375896"><ele>246.0</ele><time>2026-03-29T11:19:35.407Z</time></trkpt><trkpt lat="43.110962" lon="12.2377422"><ele>246.0</ele><time>2026-03-29T11:19:36.406Z</time></trkpt><trkpt lat="43.1110117" lon="12.2379103"><ele>246.00000000000003</ele><time>2026-03-29T11:19:37.406Z</time></trkpt><trkpt lat="43.1110643" lon="12.2380409"><ele>246.00000000000003</ele><time>2026-03-29T11:19:38.406Z</time></trkpt><trkpt lat="43.1111193" lon="12.2381605"><ele>246.0</ele><time>2026-03-29T11:19:39.406Z</time></trkpt><trkpt lat="43.1111508" lon="12.2382637"><ele>246.0</ele><time>2026-03-29T11:19:40.406Z</time></trkpt><trkpt lat="43.1111469" lon="12.2384125"><ele>246.20000000000002</ele><time>2026-03-29T11:19:42.405Z</time></trkpt><trkpt lat="43.1110709" lon="12.2385263"><ele>246.40000000000003</ele><time>2026-03-29T11:19:44.407Z</time></trkpt><trkpt lat="43.1110232" lon="12.2386021"><ele>246.6</ele><time>2026-03-29T11:19:45.407Z</time></trkpt><trkpt lat="43.1109782" lon="12.2386781"><ele>246.8</ele><time>2026-03-29T11:19:46.406Z</time></trkpt><trkpt lat="43.1109421" lon="12.2388035"><ele>247.0</ele><time>2026-03-29T11:19:47.408Z</time></trkpt><trkpt lat="43.1109117" lon="12.2389316"><ele>246.5</ele><time>2026-03-29T11:19:48.408Z</time></trkpt><trkpt lat="43.1109161" lon="12.2391059"><ele>246.0</ele><time>2026-03-29T11:19:49.406Z</time></trkpt><trkpt lat="43.1109352" lon="12.2392714"><ele>245.5</ele><time>2026-03-29T11:19:50.407Z</time></trkpt><trkpt lat="43.1109549" lon="12.239445"><ele>245.0</ele><time>2026-03-29T11:19:51.406Z</time></trkpt><trkpt lat="43.1109592" lon="12.2396341"><ele>244.25</ele><time>2026-03-29T11:19:52.406Z</time></trkpt><trkpt lat="43.1109531" lon="12.2398232"><ele>243.5</ele><time>2026-03-29T11:19:53.408Z</time></trkpt><trkpt lat="43.110942" lon="12.2400071"><ele>242.75</ele><time>2026-03-29T11:19:54.406Z</time></trkpt><trkpt lat="43.1109464" lon="12.240185"><ele>242.0</ele><time>2026-03-29T11:19:55.405Z</time></trkpt><trkpt lat="43.1109654" lon="12.2403548"><ele>242.0</ele><time>2026-03-29T11:19:56.406Z</time></trkpt><trkpt lat="43.1109868" lon="12.2405374"><ele>242.0</ele><time>2026-03-29T11:19:57.407Z</time></trkpt><trkpt lat="43.1110154" lon="12.240729"><ele>242.0</ele><time>2026-03-29T11:19:58.407Z</time></trkpt><trkpt lat="43.1110429" lon="12.2409474"><ele>242.0</ele><time>2026-03-29T11:19:59.405Z</time></trkpt><trkpt lat="43.1110659" lon="12.2411522"><ele>241.0</ele><time>2026-03-29T11:20:00.407Z</time></trkpt><trkpt lat="43.1110882" lon="12.2413605"><ele>240.0</ele><time>2026-03-29T11:20:01.408Z</time></trkpt><trkpt lat="43.1111062" lon="12.2415561"><ele>239.0</ele><time>2026-03-29T11:20:02.407Z</time></trkpt><trkpt lat="43.1111208" lon="12.241732"><ele>238.0</ele><time>2026-03-29T11:20:03.407Z</time></trkpt><trkpt lat="43.1111273" lon="12.2418706"><ele>237.66666666666666</ele><time>2026-03-29T11:20:04.405Z</time></trkpt><trkpt lat="43.1111355" lon="12.2419975"><ele>237.33333333333331</ele><time>2026-03-29T11:20:05.407Z</time></trkpt><trkpt lat="43.1111407" lon="12.2421137"><ele>237.0</ele><time>2026-03-29T11:20:06.407Z</time></trkpt><trkpt lat="43.1111584" lon="12.24222"><ele>236.66666666666669</ele><time>2026-03-29T11:20:08.407Z</time></trkpt><trkpt lat="43.1112488" lon="12.2422383"><ele>236.33333333333334</ele><time>2026-03-29T11:20:11.407Z</time></trkpt><trkpt lat="43.1113096" lon="12.2421947"><ele>236.0</ele><time>2026-03-29T11:20:12.407Z</time></trkpt><trkpt lat="43.111386" lon="12.242141"><ele>236.0</ele><time>2026-03-29T11:20:13.406Z</time></trkpt><trkpt lat="43.111474" lon="12.2420826"><ele>236.0</ele><time>2026-03-29T11:20:14.408Z</time></trkpt><trkpt lat="43.1115689" lon="12.2420131"><ele>236.0</ele><time>2026-03-29T11:20:15.407Z</time></trkpt><trkpt lat="43.1116794" lon="12.2419416"><ele>236.0</ele><time>2026-03-29T11:20:16.407Z</time></trkpt><trkpt lat="43.1117926" lon="12.2418685"><ele>233.75</ele><time>2026-03-29T11:20:17.408Z</time></trkpt><trkpt lat="43.1119047" lon="12.2417892"><ele>231.5</ele><time>2026-03-29T11:20:18.406Z</time></trkpt><trkpt lat="43.1120229" lon="12.2417069"><ele>229.25</ele><time>2026-03-29T11:20:19.407Z</time></trkpt><trkpt lat="43.1121408" lon="12.2416252"><ele>227.0</ele><time>2026-03-29T11:20:20.407Z</time></trkpt><trkpt lat="43.1122605" lon="12.2415352"><ele>228.0</ele><time>2026-03-29T11:20:21.408Z</time></trkpt><trkpt lat="43.1124022" lon="12.2414371"><ele>229.0</ele><time>2026-03-29T11:20:22.407Z</time></trkpt><trkpt lat="43.1125459" lon="12.2413333"><ele>230.0</ele><time>2026-03-29T11:20:23.408Z</time></trkpt><trkpt lat="43.1126975" lon="12.241221"><ele>230.33333333333334</ele><time>2026-03-29T11:20:24.406Z</time></trkpt><trkpt lat="43.1128522" lon="12.2411082"><ele>230.66666666666669</ele><time>2026-03-29T11:20:25.407Z</time></trkpt><trkpt lat="43.1130027" lon="12.2409969"><ele>231.0</ele><time>2026-03-29T11:20:26.407Z</time></trkpt><trkpt lat="43.1131387" lon="12.2408949"><ele>230.33333333333331</ele><time>2026-03-29T11:20:27.406Z</time></trkpt><trkpt lat="43.1132911" lon="12.2407836"><ele>229.66666666666666</ele><time>2026-03-29T11:20:28.407Z</time></trkpt><trkpt lat="43.113444" lon="12.2406672"><ele>229.0</ele><time>2026-03-29T11:20:29.407Z</time></trkpt><trkpt lat="43.1136011" lon="12.2405498"><ele>228.66666666666666</ele><time>2026-03-29T11:20:30.406Z</time></trkpt><trkpt lat="43.1137582" lon="12.240432"><ele>228.33333333333331</ele><time>2026-03-29T11:20:31.406Z</time></trkpt><trkpt lat="43.1139156" lon="12.24031"><ele>228.0</ele><time>2026-03-29T11:20:32.406Z</time></trkpt><trkpt lat="43.114067" lon="12.2401872"><ele>228.66666666666669</ele><time>2026-03-29T11:20:33.407Z</time></trkpt><trkpt lat="43.1142141" lon="12.2400737"><ele>229.33333333333334</ele><time>2026-03-29T11:20:34.407Z</time></trkpt><trkpt lat="43.1143565" lon="12.2399632"><ele>230.0</ele><time>2026-03-29T11:20:35.408Z</time></trkpt><trkpt lat="43.1144946" lon="12.2398571"><ele>232.25</ele><time>2026-03-29T11:20:36.407Z</time></trkpt><trkpt lat="43.1146296" lon="12.2397544"><ele>234.5</ele><time>2026-03-29T11:20:37.407Z</time></trkpt><trkpt lat="43.1147632" lon="12.2396688"><ele>236.75</ele><time>2026-03-29T11:20:38.407Z</time></trkpt><trkpt lat="43.1148922" lon="12.2396112"><ele>239.0</ele><time>2026-03-29T11:20:39.407Z</time></trkpt><trkpt lat="43.1150248" lon="12.239584"><ele>240.25</ele><time>2026-03-29T11:20:40.408Z</time></trkpt><trkpt lat="43.1151559" lon="12.2395825"><ele>241.5</ele><time>2026-03-29T11:20:41.406Z</time></trkpt><trkpt lat="43.1152918" lon="12.2395988"><ele>242.75</ele><time>2026-03-29T11:20:42.408Z</time></trkpt><trkpt lat="43.1154253" lon="12.2396194"><ele>244.0</ele><time>2026-03-29T11:20:43.407Z</time></trkpt><trkpt lat="43.1155549" lon="12.2396418"><ele>244.0</ele><time>2026-03-29T11:20:44.408Z</time></trkpt><trkpt lat="43.1156704" lon="12.2396652"><ele>243.99999999999997</ele><time>2026-03-29T11:20:45.407Z</time></trkpt><trkpt lat="43.1157798" lon="12.2396865"><ele>243.99999999999997</ele><time>2026-03-29T11:20:46.408Z</time></trkpt><trkpt lat="43.1158638" lon="12.2397153"><ele>244.0</ele><time>2026-03-29T11:20:47.407Z</time></trkpt><trkpt lat="43.1159485" lon="12.2397447"><ele>244.0</ele><time>2026-03-29T11:20:48.407Z</time></trkpt><trkpt lat="43.1160352" lon="12.2397827"><ele>242.16666666666666</ele><time>2026-03-29T11:20:49.407Z</time></trkpt><trkpt lat="43.1161236" lon="12.2398389"><ele>240.33333333333331</ele><time>2026-03-29T11:20:50.407Z</time></trkpt><trkpt lat="43.1162128" lon="12.2399031"><ele>238.5</ele><time>2026-03-29T11:20:51.407Z</time></trkpt><trkpt lat="43.1162993" lon="12.2399668"><ele>236.66666666666669</ele><time>2026-03-29T11:20:52.408Z</time></trkpt><trkpt lat="43.1163677" lon="12.2400181"><ele>234.83333333333334</ele><time>2026-03-29T11:20:53.407Z</time></trkpt><trkpt lat="43.1164247" lon="12.2400741"><ele>233.0</ele><time>2026-03-29T11:20:54.407Z</time></trkpt><trkpt lat="43.1164745" lon="12.2401442"><ele>233.00000000000003</ele><time>2026-03-29T11:20:55.408Z</time></trkpt><trkpt lat="43.1165192" lon="12.240224"><ele>233.0</ele><time>2026-03-29T11:20:56.407Z</time></trkpt><trkpt lat="43.1165487" lon="12.2403086"><ele>233.0</ele><time>2026-03-29T11:20:57.408Z</time></trkpt><trkpt lat="43.1166263" lon="12.2404433"><ele>233.0</ele><time>2026-03-29T11:20:59.406Z</time></trkpt><trkpt lat="43.116684" lon="12.2405046"><ele>233.00000000000003</ele><time>2026-03-29T11:21:00.406Z</time></trkpt><trkpt lat="43.1167374" lon="12.2405704"><ele>233.0</ele><time>2026-03-29T11:21:01.407Z</time></trkpt><trkpt lat="43.11679" lon="12.2406567"><ele>232.16666666666669</ele><time>2026-03-29T11:21:02.407Z</time></trkpt><trkpt lat="43.1168452" lon="12.2407455"><ele>231.33333333333334</ele><time>2026-03-29T11:21:03.407Z</time></trkpt><trkpt lat="43.1168834" lon="12.2408631"><ele>230.5</ele><time>2026-03-29T11:21:04.408Z</time></trkpt><trkpt lat="43.1169349" lon="12.2409653"><ele>229.66666666666669</ele><time>2026-03-29T11:21:05.407Z</time></trkpt><trkpt lat="43.1169698" lon="12.2410724"><ele>228.83333333333334</ele><time>2026-03-29T11:21:06.406Z</time></trkpt><trkpt lat="43.1169909" lon="12.2411806"><ele>228.0</ele><time>2026-03-29T11:21:07.407Z</time></trkpt><trkpt lat="43.1169984" lon="12.2413453"><ele>228.0</ele><time>2026-03-29T11:21:09.408Z</time></trkpt><trkpt lat="43.1169935" lon="12.2414395"><ele>228.0</ele><time>2026-03-29T11:21:10.407Z</time></trkpt><trkpt lat="43.1169697" lon="12.2415796"><ele>228.0</ele><time>2026-03-29T11:21:12.407Z</time></trkpt><trkpt lat="43.1169509" lon="12.2416628"><ele>228.0</ele><time>2026-03-29T11:21:13.407Z</time></trkpt><trkpt lat="43.1169318" lon="12.2417589"><ele>228.0</ele><time>2026-03-29T11:21:14.408Z</time></trkpt><trkpt lat="43.1169138" lon="12.2418704"><ele>228.0</ele><time>2026-03-29T11:21:15.406Z</time></trkpt><trkpt lat="43.1169275" lon="12.2419837"><ele>228.0</ele><time>2026-03-29T11:21:16.407Z</time></trkpt><trkpt lat="43.1169462" lon="12.2421028"><ele>228.0</ele><time>2026-03-29T11:21:17.408Z</time></trkpt><trkpt lat="43.1169945" lon="12.2422566"><ele>228.0</ele><time>2026-03-29T11:21:18.407Z</time></trkpt><trkpt lat="43.1170409" lon="12.2424067"><ele>228.0</ele><time>2026-03-29T11:21:19.406Z</time></trkpt><trkpt lat="43.1170688" lon="12.2425129"><ele>228.0</ele><time>2026-03-29T11:21:20.406Z</time></trkpt><trkpt lat="43.1171059" lon="12.2426214"><ele>228.2</ele><time>2026-03-29T11:21:21.407Z</time></trkpt><trkpt lat="43.11713" lon="12.242719"><ele>228.4</ele><time>2026-03-29T11:21:22.407Z</time></trkpt><trkpt lat="43.1172039" lon="12.242847"><ele>228.59999999999997</ele><time>2026-03-29T11:21:24.407Z</time></trkpt><trkpt lat="43.117284" lon="12.2429009"><ele>228.79999999999998</ele><time>2026-03-29T11:21:26.407Z</time></trkpt><trkpt lat="43.1174022" lon="12.2429563"><ele>229.0</ele><time>2026-03-29T11:21:28.406Z</time></trkpt><trkpt lat="43.1175009" lon="12.2429851"><ele>229.39999999999998</ele><time>2026-03-29T11:21:29.408Z</time></trkpt><trkpt lat="43.1176012" lon="12.2430319"><ele>229.79999999999998</ele><time>2026-03-29T11:21:30.407Z</time></trkpt><trkpt lat="43.1176712" lon="12.2430871"><ele>230.20000000000002</ele><time>2026-03-29T11:21:31.408Z</time></trkpt><trkpt lat="43.1177303" lon="12.2431846"><ele>230.60000000000002</ele><time>2026-03-29T11:21:32.407Z</time></trkpt><trkpt lat="43.1178038" lon="12.2432854"><ele>231.0</ele><time>2026-03-29T11:21:33.406Z</time></trkpt><trkpt lat="43.1178644" lon="12.2434086"><ele>231.16666666666666</ele><time>2026-03-29T11:21:34.407Z</time></trkpt><trkpt lat="43.1179149" lon="12.2435172"><ele>231.33333333333331</ele><time>2026-03-29T11:21:35.408Z</time></trkpt><trkpt lat="43.1179478" lon="12.2436294"><ele>231.5</ele><time>2026-03-29T11:21:36.407Z</time></trkpt><trkpt lat="43.1179626" lon="12.2437412"><ele>231.66666666666666</ele><time>2026-03-29T11:21:37.407Z</time></trkpt><trkpt lat="43.1179631" lon="12.2438618"><ele>231.83333333333331</ele><time>2026-03-29T11:21:38.406Z</time></trkpt><trkpt lat="43.1179759" lon="12.2439633"><ele>232.0</ele><time>2026-03-29T11:21:39.407Z</time></trkpt><trkpt lat="43.11799" lon="12.2440931"><ele>231.66666666666666</ele><time>2026-03-29T11:21:40.406Z</time></trkpt><trkpt lat="43.1179979" lon="12.2442329"><ele>231.33333333333331</ele><time>2026-03-29T11:21:41.407Z</time></trkpt><trkpt lat="43.1180053" lon="12.2443575"><ele>231.0</ele><time>2026-03-29T11:21:42.407Z</time></trkpt><trkpt lat="43.118014" lon="12.2444631"><ele>230.66666666666669</ele><time>2026-03-29T11:21:43.407Z</time></trkpt><trkpt lat="43.1180386" lon="12.2445707"><ele>230.33333333333334</ele><time>2026-03-29T11:21:44.407Z</time></trkpt><trkpt lat="43.1180541" lon="12.2446787"><ele>230.0</ele><time>2026-03-29T11:21:45.407Z</time></trkpt><trkpt lat="43.1180687" lon="12.2447928"><ele>229.4</ele><time>2026-03-29T11:21:46.408Z</time></trkpt><trkpt lat="43.1180895" lon="12.2448914"><ele>228.8</ele><time>2026-03-29T11:21:47.407Z</time></trkpt><trkpt lat="43.1181167" lon="12.2449889"><ele>228.2</ele><time>2026-03-29T11:21:48.408Z</time></trkpt><trkpt lat="43.1181533" lon="12.2451711"><ele>227.6</ele><time>2026-03-29T11:21:50.408Z</time></trkpt><trkpt lat="43.1181735" lon="12.245276"><ele>227.0</ele><time>2026-03-29T11:21:51.406Z</time></trkpt><trkpt lat="43.1181836" lon="12.2453939"><ele>227.0</ele><time>2026-03-29T11:21:52.408Z</time></trkpt><trkpt lat="43.1182045" lon="12.2455134"><ele>227.0</ele><time>2026-03-29T11:21:53.407Z</time></trkpt><trkpt lat="43.1182221" lon="12.2456477"><ele>227.0</ele><time>2026-03-29T11:21:54.408Z</time></trkpt><trkpt lat="43.1182513" lon="12.2457814"><ele>227.0</ele><time>2026-03-29T11:21:55.408Z</time></trkpt><trkpt lat="43.1182736" lon="12.2459129"><ele>227.0</ele><time>2026-03-29T11:21:56.407Z</time></trkpt><trkpt lat="43.118301" lon="12.2460494"><ele>226.8</ele><time>2026-03-29T11:21:57.406Z</time></trkpt><trkpt lat="43.1183293" lon="12.2462032"><ele>226.6</ele><time>2026-03-29T11:21:58.408Z</time></trkpt><trkpt lat="43.1183525" lon="12.2463404"><ele>226.40000000000003</ele><time>2026-03-29T11:21:59.407Z</time></trkpt><trkpt lat="43.1183795" lon="12.246467"><ele>226.20000000000002</ele><time>2026-03-29T11:22:00.407Z</time></trkpt><trkpt lat="43.1183959" lon="12.2465873"><ele>226.0</ele><time>2026-03-29T11:22:01.406Z</time></trkpt><trkpt lat="43.1184207" lon="12.2467064"><ele>226.8</ele><time>2026-03-29T11:22:02.408Z</time></trkpt><trkpt lat="43.1184451" lon="12.2468303"><ele>227.60000000000002</ele><time>2026-03-29T11:22:03.407Z</time></trkpt><trkpt lat="43.1184718" lon="12.2469675"><ele>228.4</ele><time>2026-03-29T11:22:04.406Z</time></trkpt><trkpt lat="43.1184971" lon="12.247106"><ele>229.2</ele><time>2026-03-29T11:22:05.407Z</time></trkpt><trkpt lat="43.1185049" lon="12.2472358"><ele>230.0</ele><time>2026-03-29T11:22:06.408Z</time></trkpt><trkpt lat="43.1185041" lon="12.2473592"><ele>230.50000000000003</ele><time>2026-03-29T11:22:07.408Z</time></trkpt><trkpt lat="43.1184923" lon="12.2474549"><ele>231.0</ele><time>2026-03-29T11:22:08.407Z</time></trkpt><trkpt lat="43.1184736" lon="12.2475514"><ele>231.5</ele><time>2026-03-29T11:22:09.407Z</time></trkpt><trkpt lat="43.1184589" lon="12.2477321"><ele>232.0</ele><time>2026-03-29T11:22:11.408Z</time></trkpt><trkpt lat="43.1184607" lon="12.2478231"><ele>232.50000000000003</ele><time>2026-03-29T11:22:12.409Z</time></trkpt><trkpt lat="43.1184575" lon="12.2479234"><ele>233.0</ele><time>2026-03-29T11:22:13.408Z</time></trkpt><trkpt lat="43.1184437" lon="12.2480221"><ele>233.4</ele><time>2026-03-29T11:22:14.406Z</time></trkpt><trkpt lat="43.1184319" lon="12.2481341"><ele>233.8</ele><time>2026-03-29T11:22:15.407Z</time></trkpt><trkpt lat="43.1184142" lon="12.248255"><ele>234.2</ele><time>2026-03-29T11:22:16.408Z</time></trkpt><trkpt lat="43.1184006" lon="12.2483621"><ele>234.6</ele><time>2026-03-29T11:22:17.407Z</time></trkpt><trkpt lat="43.1183853" lon="12.2485137"><ele>235.0</ele><time>2026-03-29T11:22:19.408Z</time></trkpt><trkpt lat="43.1184336" lon="12.2486223"><ele>235.0</ele><time>2026-03-29T11:22:21.407Z</time></trkpt><trkpt lat="43.1184922" lon="12.2486648"><ele>235.0</ele><time>2026-03-29T11:22:22.407Z</time></trkpt><trkpt lat="43.1185652" lon="12.2486998"><ele>235.0</ele><time>2026-03-29T11:22:23.407Z</time></trkpt><trkpt lat="43.1186661" lon="12.2487413"><ele>235.0</ele><time>2026-03-29T11:22:24.407Z</time></trkpt><trkpt lat="43.1188033" lon="12.2487747"><ele>235.0</ele><time>2026-03-29T11:22:25.409Z</time></trkpt><trkpt lat="43.1189182" lon="12.2488087"><ele>234.99999999999997</ele><time>2026-03-29T11:22:26.407Z</time></trkpt><trkpt lat="43.118991" lon="12.2488239"><ele>235.0</ele><time>2026-03-29T11:22:27.407Z</time></trkpt><trkpt lat="43.1190722" lon="12.248844"><ele>235.0</ele><time>2026-03-29T11:22:28.408Z</time></trkpt><trkpt lat="43.1191511" lon="12.2488693"><ele>235.0</ele><time>2026-03-29T11:22:29.408Z</time></trkpt><trkpt lat="43.1192164" lon="12.2489001"><ele>234.99999999999997</ele><time>2026-03-29T11:22:30.407Z</time></trkpt><trkpt lat="43.1192699" lon="12.2489464"><ele>235.0</ele><time>2026-03-29T11:22:31.407Z</time></trkpt><trkpt lat="43.1193457" lon="12.2490228"><ele>235.75</ele><time>2026-03-29T11:22:33.408Z</time></trkpt><trkpt lat="43.1193654" lon="12.2491166"><ele>236.5</ele><time>2026-03-29T11:22:35.407Z</time></trkpt><trkpt lat="43.1193533" lon="12.2492916"><ele>237.25</ele><time>2026-03-29T11:22:37.407Z</time></trkpt><trkpt lat="43.1193635" lon="12.2494626"><ele>238.0</ele><time>2026-03-29T11:22:38.406Z</time></trkpt><trkpt lat="43.119371" lon="12.2496351"><ele>240.0</ele><time>2026-03-29T11:22:39.407Z</time></trkpt><trkpt lat="43.1193666" lon="12.2498309"><ele>242.0</ele><time>2026-03-29T11:22:40.406Z</time></trkpt><trkpt lat="43.1193522" lon="12.2500387"><ele>244.0</ele><time>2026-03-29T11:22:41.407Z</time></trkpt><trkpt lat="43.1193483" lon="12.2502371"><ele>246.0</ele><time>2026-03-29T11:22:42.407Z</time></trkpt><trkpt lat="43.1193436" lon="12.2504215"><ele>246.0</ele><time>2026-03-29T11:22:43.407Z</time></trkpt><trkpt lat="43.1193403" lon="12.2505985"><ele>246.00000000000003</ele><time>2026-03-29T11:22:44.408Z</time></trkpt><trkpt lat="43.1193437" lon="12.2507295"><ele>246.00000000000003</ele><time>2026-03-29T11:22:45.408Z</time></trkpt><trkpt lat="43.1193387" lon="12.250845"><ele>246.0</ele><time>2026-03-29T11:22:46.406Z</time></trkpt><trkpt lat="43.1193405" lon="12.2509566"><ele>246.0</ele><time>2026-03-29T11:22:47.407Z</time></trkpt><trkpt lat="43.1193441" lon="12.251108"><ele>247.16666666666666</ele><time>2026-03-29T11:22:49.407Z</time></trkpt><trkpt lat="43.1193376" lon="12.2512569"><ele>248.33333333333331</ele><time>2026-03-29T11:22:51.407Z</time></trkpt><trkpt lat="43.1193135" lon="12.2513626"><ele>249.5</ele><time>2026-03-29T11:22:53.406Z</time></trkpt><trkpt lat="43.1193023" lon="12.2514607"><ele>250.66666666666666</ele><time>2026-03-29T11:22:55.407Z</time></trkpt><trkpt lat="43.1192818" lon="12.2515486"><ele>251.83333333333331</ele><time>2026-03-29T11:22:57.408Z</time></trkpt><trkpt lat="43.1192634" lon="12.2517012"><ele>253.0</ele><time>2026-03-29T11:22:59.407Z</time></trkpt><trkpt lat="43.1192468" lon="12.2517881"><ele>254.33333333333331</ele><time>2026-03-29T11:23:00.408Z</time></trkpt><trkpt lat="43.1192279" lon="12.251959"><ele>255.66666666666666</ele><time>2026-03-29T11:23:02.407Z</time></trkpt><trkpt lat="43.119199" lon="12.2520467"><ele>257.0</ele><time>2026-03-29T11:23:03.408Z</time></trkpt><trkpt lat="43.1191776" lon="12.2521317"><ele>258.3333333333333</ele><time>2026-03-29T11:23:04.406Z</time></trkpt><trkpt lat="43.1191558" lon="12.2522333"><ele>259.6666666666667</ele><time>2026-03-29T11:23:05.407Z</time></trkpt><trkpt lat="43.1191302" lon="12.252319"><ele>261.0</ele><time>2026-03-29T11:23:06.407Z</time></trkpt><trkpt lat="43.119077" lon="12.2524713"><ele>261.6</ele><time>2026-03-29T11:23:08.407Z</time></trkpt><trkpt lat="43.1190172" lon="12.2526203"><ele>262.20000000000005</ele><time>2026-03-29T11:23:10.407Z</time></trkpt><trkpt lat="43.1190219" lon="12.2527367"><ele>262.79999999999995</ele><time>2026-03-29T11:23:12.407Z</time></trkpt><trkpt lat="43.1190682" lon="12.252878"><ele>263.4</ele><time>2026-03-29T11:23:14.408Z</time></trkpt><trkpt lat="43.1191014" lon="12.2529541"><ele>264.0</ele><time>2026-03-29T11:23:15.408Z</time></trkpt><trkpt lat="43.1191396" lon="12.253026"><ele>268.0</ele><time>2026-03-29T11:23:16.408Z</time></trkpt><trkpt lat="43.1191548" lon="12.2531833"><ele>272.0</ele><time>2026-03-29T11:23:18.409Z</time></trkpt><trkpt lat="43.1191479" lon="12.2533668"><ele>276.0</ele><time>2026-03-29T11:23:20.406Z</time></trkpt><trkpt lat="43.1191629" lon="12.2534666"><ele>280.0</ele><time>2026-03-29T11:23:21.407Z</time></trkpt><trkpt lat="43.1191663" lon="12.2535544"><ele>284.0</ele><time>2026-03-29T11:23:22.408Z</time></trkpt><trkpt lat="43.1191747" lon="12.2536429"><ele>284.0</ele><time>2026-03-29T11:23:23.407Z</time></trkpt><trkpt lat="43.1191859" lon="12.2537537"><ele>284.0</ele><time>2026-03-29T11:23:24.407Z</time></trkpt><trkpt lat="43.1191888" lon="12.2538747"><ele>284.0</ele><time>2026-03-29T11:23:25.408Z</time></trkpt><trkpt lat="43.1191808" lon="12.2539749"><ele>284.0</ele><time>2026-03-29T11:23:26.408Z</time></trkpt><trkpt lat="43.1192014" lon="12.2540741"><ele>284.0</ele><time>2026-03-29T11:23:27.408Z</time></trkpt><trkpt lat="43.1191469" lon="12.2541534"><ele>284.0</ele><time>2026-03-29T11:23:29.408Z</time></trkpt><trkpt lat="43.1190752" lon="12.2541062"><ele>284.4</ele><time>2026-03-29T11:23:32.407Z</time></trkpt><trkpt lat="43.1189958" lon="12.2541448"><ele>284.79999999999995</ele><time>2026-03-29T11:23:34.407Z</time></trkpt><trkpt lat="43.1189462" lon="12.2542805"><ele>285.20000000000005</ele><time>2026-03-29T11:23:36.408Z</time></trkpt><trkpt lat="43.1189444" lon="12.2543886"><ele>285.6</ele><time>2026-03-29T11:23:37.407Z</time></trkpt><trkpt lat="43.1189318" lon="12.254505"><ele>286.0</ele><time>2026-03-29T11:23:38.406Z</time></trkpt><trkpt lat="43.118907" lon="12.2546358"><ele>286.0</ele><time>2026-03-29T11:23:39.406Z</time></trkpt><trkpt lat="43.1188878" lon="12.2547512"><ele>286.0</ele><time>2026-03-29T11:23:40.406Z</time></trkpt><trkpt lat="43.1188806" lon="12.2548427"><ele>286.0</ele><time>2026-03-29T11:23:41.407Z</time></trkpt><trkpt lat="43.11886" lon="12.254959"><ele>286.0</ele><time>2026-03-29T11:23:42.407Z</time></trkpt><trkpt lat="43.118822" lon="12.2551348"><ele>286.0</ele><time>2026-03-29T11:23:44.409Z</time></trkpt><trkpt lat="43.1188016" lon="12.2552268"><ele>286.0</ele><time>2026-03-29T11:23:45.408Z</time></trkpt><trkpt lat="43.1188171" lon="12.2553156"><ele>287.6</ele><time>2026-03-29T11:23:46.407Z</time></trkpt><trkpt lat="43.1188434" lon="12.2554234"><ele>289.20000000000005</ele><time>2026-03-29T11:23:47.407Z</time></trkpt><trkpt lat="43.1188876" lon="12.255535"><ele>290.79999999999995</ele><time>2026-03-29T11:23:48.407Z</time></trkpt><trkpt lat="43.1189332" lon="12.2556425"><ele>292.4</ele><time>2026-03-29T11:23:49.407Z</time></trkpt><trkpt lat="43.1189959" lon="12.255693"><ele>294.0</ele><time>2026-03-29T11:23:51.408Z</time></trkpt><trkpt lat="43.1191211" lon="12.255653"><ele>297.2</ele><time>2026-03-29T11:23:53.408Z</time></trkpt><trkpt lat="43.1192084" lon="12.2556261"><ele>300.4</ele><time>2026-03-29T11:23:54.406Z</time></trkpt><trkpt lat="43.1193273" lon="12.2556038"><ele>303.6</ele><time>2026-03-29T11:23:55.409Z</time></trkpt><trkpt lat="43.1194141" lon="12.2555795"><ele>306.8</ele><time>2026-03-29T11:23:56.407Z</time></trkpt><trkpt lat="43.1194862" lon="12.2555701"><ele>310.0</ele><time>2026-03-29T11:23:57.406Z</time></trkpt><trkpt lat="43.1195671" lon="12.2555781"><ele>310.0</ele><time>2026-03-29T11:23:58.407Z</time></trkpt><trkpt lat="43.1196528" lon="12.2555924"><ele>310.0</ele><time>2026-03-29T11:23:59.409Z</time></trkpt><trkpt lat="43.1197353" lon="12.2556107"><ele>310.0</ele><time>2026-03-29T11:24:00.408Z</time></trkpt><trkpt lat="43.1198293" lon="12.255638"><ele>310.0</ele><time>2026-03-29T11:24:01.407Z</time></trkpt><trkpt lat="43.1199125" lon="12.2556722"><ele>310.0</ele><time>2026-03-29T11:24:02.406Z</time></trkpt><trkpt lat="43.1199881" lon="12.2556872"><ele>310.0</ele><time>2026-03-29T11:24:03.408Z</time></trkpt><trkpt lat="43.120066" lon="12.25569"><ele>313.3333333333333</ele><time>2026-03-29T11:24:04.406Z</time></trkpt><trkpt lat="43.1201481" lon="12.255704"><ele>316.66666666666663</ele><time>2026-03-29T11:24:05.407Z</time></trkpt><trkpt lat="43.1202554" lon="12.2557654"><ele>320.0</ele><time>2026-03-29T11:24:07.407Z</time></trkpt><trkpt lat="43.1203173" lon="12.2558043"><ele>323.3333333333333</ele><time>2026-03-29T11:24:08.407Z</time></trkpt><trkpt lat="43.1203933" lon="12.2558515"><ele>326.6666666666667</ele><time>2026-03-29T11:24:09.408Z</time></trkpt><trkpt lat="43.1204852" lon="12.2558745"><ele>330.0</ele><time>2026-03-29T11:24:10.407Z</time></trkpt><trkpt lat="43.1205562" lon="12.2558603"><ele>330.0</ele><time>2026-03-29T11:24:11.406Z</time></trkpt><trkpt lat="43.1206353" lon="12.2558573"><ele>330.0</ele><time>2026-03-29T11:24:12.407Z</time></trkpt><trkpt lat="43.120716" lon="12.2558737"><ele>330.0</ele><time>2026-03-29T11:24:13.408Z</time></trkpt><trkpt lat="43.1207778" lon="12.2559157"><ele>330.0</ele><time>2026-03-29T11:24:14.408Z</time></trkpt><trkpt lat="43.1208379" lon="12.2560139"><ele>330.0</ele><time>2026-03-29T11:24:16.406Z</time></trkpt><trkpt lat="43.120794" lon="12.2561159"><ele>330.0</ele><time>2026-03-29T11:24:18.408Z</time></trkpt><trkpt lat="43.1207601" lon="12.2561967"><ele>330.0</ele><time>2026-03-29T11:24:20.407Z</time></trkpt><trkpt lat="43.1207146" lon="12.2562653"><ele>330.0</ele><time>2026-03-29T11:24:22.407Z</time></trkpt><trkpt lat="43.1206319" lon="12.2563434"><ele>330.0</ele><time>2026-03-29T11:24:24.406Z</time></trkpt><trkpt lat="43.1205255" lon="12.2564899"><ele>330.0</ele><time>2026-03-29T11:24:26.408Z</time></trkpt><trkpt lat="43.1204801" lon="12.2565738"><ele>330.0</ele><time>2026-03-29T11:24:27.407Z</time></trkpt><trkpt lat="43.1204167" lon="12.2566172"><ele>333.1666666666667</ele><time>2026-03-29T11:24:28.409Z</time></trkpt><trkpt lat="43.1203601" lon="12.2566693"><ele>336.3333333333333</ele><time>2026-03-29T11:24:29.406Z</time></trkpt><trkpt lat="43.1202322" lon="12.2567629"><ele>339.5</ele><time>2026-03-29T11:24:31.407Z</time></trkpt><trkpt lat="43.120158" lon="12.2568136"><ele>342.66666666666663</ele><time>2026-03-29T11:24:32.409Z</time></trkpt><trkpt lat="43.1200925" lon="12.2568723"><ele>345.8333333333333</ele><time>2026-03-29T11:24:33.408Z</time></trkpt><trkpt lat="43.1200299" lon="12.2569094"><ele>349.0</ele><time>2026-03-29T11:24:34.408Z</time></trkpt><trkpt lat="43.1199384" lon="12.2569609"><ele>349.0</ele><time>2026-03-29T11:24:36.406Z</time></trkpt><trkpt lat="43.1199164" lon="12.2570564"><ele>349.0</ele><time>2026-03-29T11:24:37.407Z</time></trkpt><trkpt lat="43.1198959" lon="12.2571404"><ele>349.0</ele><time>2026-03-29T11:24:38.406Z</time></trkpt><trkpt lat="43.1198652" lon="12.2572483"><ele>349.0</ele><time>2026-03-29T11:24:40.408Z</time></trkpt><trkpt lat="43.1198106" lon="12.2573574"><ele>349.0</ele><time>2026-03-29T11:24:42.409Z</time></trkpt><trkpt lat="43.1197631" lon="12.2574617"><ele>349.0</ele><time>2026-03-29T11:24:43.408Z</time></trkpt><trkpt lat="43.1197143" lon="12.2575898"><ele>348.75</ele><time>2026-03-29T11:24:44.407Z</time></trkpt><trkpt lat="43.1196591" lon="12.2577206"><ele>348.5</ele><time>2026-03-29T11:24:45.408Z</time></trkpt><trkpt lat="43.1196178" lon="12.2578592"><ele>348.25</ele><time>2026-03-29T11:24:46.407Z</time></trkpt><trkpt lat="43.1195679" lon="12.2580038"><ele>348.0</ele><time>2026-03-29T11:24:47.407Z</time></trkpt><trkpt lat="43.1195043" lon="12.258137"><ele>352.0</ele><time>2026-03-29T11:24:48.408Z</time></trkpt><trkpt lat="43.1194313" lon="12.2582614"><ele>356.0</ele><time>2026-03-29T11:24:49.408Z</time></trkpt><trkpt lat="43.1193752" lon="12.2584124"><ele>360.0</ele><time>2026-03-29T11:24:50.409Z</time></trkpt><trkpt lat="43.1193158" lon="12.2585704"><ele>364.0</ele><time>2026-03-29T11:24:51.408Z</time></trkpt><trkpt lat="43.1192628" lon="12.2587157"><ele>364.0</ele><time>2026-03-29T11:24:52.408Z</time></trkpt><trkpt lat="43.1192073" lon="12.2588727"><ele>364.0</ele><time>2026-03-29T11:24:53.408Z</time></trkpt><trkpt lat="43.1191625" lon="12.259017"><ele>364.0</ele><time>2026-03-29T11:24:54.407Z</time></trkpt><trkpt lat="43.1191194" lon="12.2591498"><ele>364.0</ele><time>2026-03-29T11:24:55.407Z</time></trkpt><trkpt lat="43.1190673" lon="12.2592495"><ele>364.0</ele><time>2026-03-29T11:24:56.407Z</time></trkpt><trkpt lat="43.1189965" lon="12.2593671"><ele>364.2</ele><time>2026-03-29T11:24:57.408Z</time></trkpt><trkpt lat="43.1189092" lon="12.2594781"><ele>364.4</ele><time>2026-03-29T11:24:58.407Z</time></trkpt><trkpt lat="43.1188349" lon="12.2595888"><ele>364.6</ele><time>2026-03-29T11:24:59.407Z</time></trkpt><trkpt lat="43.118812" lon="12.2597345"><ele>364.8</ele><time>2026-03-29T11:25:00.408Z</time></trkpt><trkpt lat="43.1187779" lon="12.2598495"><ele>365.0</ele><time>2026-03-29T11:25:01.406Z</time></trkpt><trkpt lat="43.1187195" lon="12.2599618"><ele>367.2</ele><time>2026-03-29T11:25:03.407Z</time></trkpt><trkpt lat="43.1186708" lon="12.2600601"><ele>369.4</ele><time>2026-03-29T11:25:04.407Z</time></trkpt><trkpt lat="43.1186066" lon="12.260191"><ele>371.6</ele><time>2026-03-29T11:25:05.408Z</time></trkpt><trkpt lat="43.1185483" lon="12.2603108"><ele>373.8</ele><time>2026-03-29T11:25:06.407Z</time></trkpt><trkpt lat="43.1184769" lon="12.2604363"><ele>376.0</ele><time>2026-03-29T11:25:07.407Z</time></trkpt><trkpt lat="43.1184291" lon="12.2605762"><ele>375.20000000000005</ele><time>2026-03-29T11:25:08.408Z</time></trkpt><trkpt lat="43.1183487" lon="12.2606951"><ele>374.40000000000003</ele><time>2026-03-29T11:25:09.407Z</time></trkpt><trkpt lat="43.1182615" lon="12.260762"><ele>373.6</ele><time>2026-03-29T11:25:10.408Z</time></trkpt><trkpt lat="43.1181564" lon="12.2608226"><ele>372.8</ele><time>2026-03-29T11:25:11.407Z</time></trkpt><trkpt lat="43.1180576" lon="12.2608733"><ele>372.0</ele><time>2026-03-29T11:25:12.408Z</time></trkpt><trkpt lat="43.1179734" lon="12.2609279"><ele>372.0</ele><time>2026-03-29T11:25:14.408Z</time></trkpt><trkpt lat="43.1180485" lon="12.2609453"><ele>372.0</ele><time>2026-03-29T11:25:18.408Z</time></trkpt><trkpt lat="43.1181419" lon="12.2609575"><ele>372.0</ele><time>2026-03-29T11:25:20.408Z</time></trkpt><trkpt lat="43.1182414" lon="12.2609492"><ele>372.0</ele><time>2026-03-29T11:25:22.407Z</time></trkpt><trkpt lat="43.1183071" lon="12.2609411"><ele>372.0</ele><time>2026-03-29T11:25:24.407Z</time></trkpt><trkpt lat="43.1183721" lon="12.2609263"><ele>372.0</ele><time>2026-03-29T11:25:27.408Z</time></trkpt><trkpt lat="43.118439" lon="12.2608998"><ele>373.8333333333333</ele><time>2026-03-29T11:25:30.408Z</time></trkpt><trkpt lat="43.1184973" lon="12.2608559"><ele>375.6666666666667</ele><time>2026-03-29T11:25:32.407Z</time></trkpt><trkpt lat="43.1185674" lon="12.260797"><ele>377.5</ele><time>2026-03-29T11:25:34.408Z</time></trkpt><trkpt lat="43.1186344" lon="12.2608041"><ele>379.33333333333337</ele><time>2026-03-29T11:25:36.406Z</time></trkpt><trkpt lat="43.1187301" lon="12.2608451"><ele>381.1666666666667</ele><time>2026-03-29T11:25:38.409Z</time></trkpt><trkpt lat="43.1187982" lon="12.2608044"><ele>383.0</ele><time>2026-03-29T11:25:40.406Z</time></trkpt><trkpt lat="43.1188619" lon="12.2608217"><ele>383.0</ele><time>2026-03-29T11:25:44.408Z</time></trkpt><trkpt lat="43.1189463" lon="12.2608701"><ele>383.0</ele><time>2026-03-29T11:25:50.409Z</time></trkpt><trkpt lat="43.1190418" lon="12.2609086"><ele>383.0</ele><time>2026-03-29T11:25:52.407Z</time></trkpt><trkpt lat="43.1191507" lon="12.2610185"><ele>383.0</ele><time>2026-03-29T11:25:54.408Z</time></trkpt><trkpt lat="43.1192377" lon="12.2611308"><ele>383.0</ele><time>2026-03-29T11:25:56.408Z</time></trkpt><trkpt lat="43.1192875" lon="12.2611861"><ele>382.79999999999995</ele><time>2026-03-29T11:25:57.407Z</time></trkpt><trkpt lat="43.1193626" lon="12.2612425"><ele>382.6</ele><time>2026-03-29T11:25:58.407Z</time></trkpt><trkpt lat="43.119428" lon="12.2612853"><ele>382.4</ele><time>2026-03-29T11:25:59.407Z</time></trkpt><trkpt lat="43.1195212" lon="12.2613724"><ele>382.20000000000005</ele><time>2026-03-29T11:26:01.408Z</time></trkpt><trkpt lat="43.1196219" lon="12.2614411"><ele>382.0</ele><time>2026-03-29T11:26:03.409Z</time></trkpt><trkpt lat="43.1197184" lon="12.2614829"><ele>382.0</ele><time>2026-03-29T11:26:05.408Z</time></trkpt><trkpt lat="43.1197943" lon="12.2615657"><ele>382.0</ele><time>2026-03-29T11:26:07.409Z</time></trkpt><trkpt lat="43.1198682" lon="12.2616804"><ele>382.0</ele><time>2026-03-29T11:26:09.408Z</time></trkpt><trkpt lat="43.1199086" lon="12.2617487"><ele>382.0</ele><time>2026-03-29T11:26:10.408Z</time></trkpt><trkpt lat="43.1199655" lon="12.2618058"><ele>382.0</ele><time>2026-03-29T11:26:11.408Z</time></trkpt><trkpt lat="43.1200182" lon="12.2618588"><ele>382.0</ele><time>2026-03-29T11:26:12.407Z</time></trkpt><trkpt lat="43.120061" lon="12.2619433"><ele>381.0</ele><time>2026-03-29T11:26:13.408Z</time></trkpt><trkpt lat="43.1200636" lon="12.2620357"><ele>380.0</ele><time>2026-03-29T11:26:15.407Z</time></trkpt><trkpt lat="43.1201138" lon="12.2621644"><ele>379.0</ele><time>2026-03-29T11:26:17.407Z</time></trkpt><trkpt lat="43.1201567" lon="12.2622331"><ele>378.0</ele><time>2026-03-29T11:26:18.408Z</time></trkpt><trkpt lat="43.1201914" lon="12.2623553"><ele>377.0</ele><time>2026-03-29T11:26:20.408Z</time></trkpt><trkpt lat="43.1202263" lon="12.2625036"><ele>376.0</ele><time>2026-03-29T11:26:22.408Z</time></trkpt><trkpt lat="43.1203095" lon="12.2626149"><ele>374.0</ele><time>2026-03-29T11:26:24.408Z</time></trkpt><trkpt lat="43.1203606" lon="12.2627409"><ele>372.0</ele><time>2026-03-29T11:26:26.409Z</time></trkpt><trkpt lat="43.1204032" lon="12.2628132"><ele>370.0</ele><time>2026-03-29T11:26:28.409Z</time></trkpt><trkpt lat="43.1204685" lon="12.2629067"><ele>368.0</ele><time>2026-03-29T11:26:31.409Z</time></trkpt><trkpt lat="43.1205016" lon="12.2630113"><ele>366.0</ele><time>2026-03-29T11:26:34.409Z</time></trkpt><trkpt lat="43.120554" lon="12.2631106"><ele>364.0</ele><time>2026-03-29T11:26:37.408Z</time></trkpt><trkpt lat="43.1205726" lon="12.2632021"><ele>362.0</ele><time>2026-03-29T11:26:39.408Z</time></trkpt><trkpt lat="43.1205757" lon="12.2633153"><ele>360.0</ele><time>2026-03-29T11:26:42.408Z</time></trkpt><trkpt lat="43.120594" lon="12.2634008"><ele>358.0</ele><time>2026-03-29T11:26:45.408Z</time></trkpt><trkpt lat="43.1206215" lon="12.2635084"><ele>356.0</ele><time>2026-03-29T11:26:52.408Z</time></trkpt><trkpt lat="43.1205923" lon="12.2636209"><ele>354.0</ele><time>2026-03-29T11:26:55.409Z</time></trkpt><trkpt lat="43.1205481" lon="12.2637022"><ele>352.0</ele><time>2026-03-29T11:26:58.409Z</time></trkpt><trkpt lat="43.1205264" lon="12.2637861"><ele>352.0</ele><time>2026-03-29T11:27:12.407Z</time></trkpt><trkpt lat="43.1206304" lon="12.2637214"><ele>352.0</ele><time>2026-03-29T11:27:28.41Z</time></trkpt><trkpt lat="43.1207188" lon="12.2636807"><ele>352.0</ele><time>2026-03-29T11:27:29.407Z</time></trkpt><trkpt lat="43.1207986" lon="12.2636473"><ele>352.0</ele><time>2026-03-29T11:27:30.406Z</time></trkpt><trkpt lat="43.120887" lon="12.2636365"><ele>352.0</ele><time>2026-03-29T11:27:32.408Z</time></trkpt><trkpt lat="43.1210221" lon="12.2636496"><ele>350.8333333333333</ele><time>2026-03-29T11:27:34.407Z</time></trkpt><trkpt lat="43.1210968" lon="12.2636628"><ele>349.66666666666663</ele><time>2026-03-29T11:27:35.409Z</time></trkpt><trkpt lat="43.1211837" lon="12.263683"><ele>348.5</ele><time>2026-03-29T11:27:36.408Z</time></trkpt><trkpt lat="43.1212549" lon="12.2636902"><ele>347.3333333333333</ele><time>2026-03-29T11:27:37.409Z</time></trkpt><trkpt lat="43.1213197" lon="12.2636947"><ele>346.1666666666667</ele><time>2026-03-29T11:27:38.407Z</time></trkpt><trkpt lat="43.1214001" lon="12.2637008"><ele>345.0</ele><time>2026-03-29T11:27:39.408Z</time></trkpt><trkpt lat="43.1214754" lon="12.2637028"><ele>345.0</ele><time>2026-03-29T11:27:40.408Z</time></trkpt><trkpt lat="43.1215452" lon="12.2636901"><ele>345.0</ele><time>2026-03-29T11:27:41.408Z</time></trkpt><trkpt lat="43.1216501" lon="12.2636469"><ele>345.0</ele><time>2026-03-29T11:27:43.407Z</time></trkpt><trkpt lat="43.1217634" lon="12.2636192"><ele>345.0</ele><time>2026-03-29T11:27:45.409Z</time></trkpt><trkpt lat="43.121828" lon="12.2636341"><ele>345.0</ele><time>2026-03-29T11:27:46.407Z</time></trkpt><trkpt lat="43.1219601" lon="12.2636455"><ele>342.6666666666667</ele><time>2026-03-29T11:27:48.408Z</time></trkpt><trkpt lat="43.1220349" lon="12.2636411"><ele>340.3333333333333</ele><time>2026-03-29T11:27:49.408Z</time></trkpt><trkpt lat="43.1221153" lon="12.2636547"><ele>338.0</ele><time>2026-03-29T11:27:50.408Z</time></trkpt><trkpt lat="43.1222497" lon="12.2636624"><ele>335.66666666666663</ele><time>2026-03-29T11:27:52.409Z</time></trkpt><trkpt lat="43.1223302" lon="12.2636625"><ele>333.3333333333333</ele><time>2026-03-29T11:27:53.407Z</time></trkpt><trkpt lat="43.1223981" lon="12.2636427"><ele>331.0</ele><time>2026-03-29T11:27:54.408Z</time></trkpt><trkpt lat="43.122463" lon="12.2636296"><ele>329.7142857142857</ele><time>2026-03-29T11:27:55.407Z</time></trkpt><trkpt lat="43.1225363" lon="12.2636274"><ele>328.42857142857144</ele><time>2026-03-29T11:27:56.408Z</time></trkpt><trkpt lat="43.1226087" lon="12.2636285"><ele>327.1428571428571</ele><time>2026-03-29T11:27:57.409Z</time></trkpt><trkpt lat="43.1226765" lon="12.2636365"><ele>325.8571428571429</ele><time>2026-03-29T11:27:58.409Z</time></trkpt><trkpt lat="43.1227416" lon="12.2636651"><ele>324.57142857142856</ele><time>2026-03-29T11:27:59.408Z</time></trkpt><trkpt lat="43.1228042" lon="12.2636968"><ele>323.2857142857143</ele><time>2026-03-29T11:28:00.409Z</time></trkpt><trkpt lat="43.1228634" lon="12.2637312"><ele>322.0</ele><time>2026-03-29T11:28:01.408Z</time></trkpt><trkpt lat="43.1229006" lon="12.2638164"><ele>322.0</ele><time>2026-03-29T11:28:02.408Z</time></trkpt><trkpt lat="43.1229368" lon="12.263903"><ele>322.0</ele><time>2026-03-29T11:28:03.409Z</time></trkpt><trkpt lat="43.1229806" lon="12.263981"><ele>322.0</ele><time>2026-03-29T11:28:04.408Z</time></trkpt><trkpt lat="43.1230846" lon="12.2640661"><ele>322.0</ele><time>2026-03-29T11:28:06.408Z</time></trkpt><trkpt lat="43.1231677" lon="12.2641204"><ele>322.0</ele><time>2026-03-29T11:28:07.407Z</time></trkpt><trkpt lat="43.1232685" lon="12.2641945"><ele>321.40000000000003</ele><time>2026-03-29T11:28:08.408Z</time></trkpt><trkpt lat="43.1233815" lon="12.2642845"><ele>320.8</ele><time>2026-03-29T11:28:09.407Z</time></trkpt><trkpt lat="43.1234918" lon="12.2643622"><ele>320.2</ele><time>2026-03-29T11:28:10.408Z</time></trkpt><trkpt lat="43.1235657" lon="12.2644401"><ele>319.6</ele><time>2026-03-29T11:28:11.407Z</time></trkpt><trkpt lat="43.1236428" lon="12.2644957"><ele>319.0</ele><time>2026-03-29T11:28:12.407Z</time></trkpt><trkpt lat="43.123662" lon="12.2646046"><ele>319.0</ele><time>2026-03-29T11:28:14.407Z</time></trkpt><trkpt lat="43.1236357" lon="12.2647354"><ele>319.0</ele><time>2026-03-29T11:28:16.408Z</time></trkpt><trkpt lat="43.1236339" lon="12.2648479"><ele>319.0</ele><time>2026-03-29T11:28:18.408Z</time></trkpt><trkpt lat="43.1237068" lon="12.2648766"><ele>319.0</ele><time>2026-03-29T11:28:20.409Z</time></trkpt><trkpt lat="43.1237826" lon="12.2648582"><ele>319.0</ele><time>2026-03-29T11:28:21.408Z</time></trkpt><trkpt lat="43.1238665" lon="12.264841"><ele>319.0</ele><time>2026-03-29T11:28:22.408Z</time></trkpt><trkpt lat="43.1239551" lon="12.2648278"><ele>318.8333333333333</ele><time>2026-03-29T11:28:23.408Z</time></trkpt><trkpt lat="43.1240468" lon="12.2648112"><ele>318.66666666666663</ele><time>2026-03-29T11:28:24.409Z</time></trkpt><trkpt lat="43.1241405" lon="12.2647941"><ele>318.5</ele><time>2026-03-29T11:28:25.407Z</time></trkpt><trkpt lat="43.1242262" lon="12.2647856"><ele>318.3333333333333</ele><time>2026-03-29T11:28:26.408Z</time></trkpt><trkpt lat="43.1243027" lon="12.2647922"><ele>318.1666666666667</ele><time>2026-03-29T11:28:27.408Z</time></trkpt><trkpt lat="43.1243744" lon="12.2648211"><ele>318.0</ele><time>2026-03-29T11:28:28.409Z</time></trkpt><trkpt lat="43.1244445" lon="12.2648511"><ele>315.0</ele><time>2026-03-29T11:28:29.409Z</time></trkpt><trkpt lat="43.1245156" lon="12.2648849"><ele>312.0</ele><time>2026-03-29T11:28:30.408Z</time></trkpt><trkpt lat="43.1245908" lon="12.2649201"><ele>309.0</ele><time>2026-03-29T11:28:31.408Z</time></trkpt><trkpt lat="43.1246764" lon="12.2649688"><ele>306.0</ele><time>2026-03-29T11:28:32.408Z</time></trkpt><trkpt lat="43.1247732" lon="12.2650279"><ele>303.0</ele><time>2026-03-29T11:28:33.409Z</time></trkpt><trkpt lat="43.1248739" lon="12.2650952"><ele>302.5</ele><time>2026-03-29T11:28:34.408Z</time></trkpt><trkpt lat="43.1249981" lon="12.2651668"><ele>302.0</ele><time>2026-03-29T11:28:35.408Z</time></trkpt><trkpt lat="43.125136" lon="12.2652376"><ele>301.5</ele><time>2026-03-29T11:28:36.409Z</time></trkpt><trkpt lat="43.1252858" lon="12.2652999"><ele>301.0</ele><time>2026-03-29T11:28:37.408Z</time></trkpt><trkpt lat="43.1254416" lon="12.2653412"><ele>301.0</ele><time>2026-03-29T11:28:38.407Z</time></trkpt><trkpt lat="43.1255912" lon="12.2653821"><ele>301.0</ele><time>2026-03-29T11:28:39.408Z</time></trkpt><trkpt lat="43.1257363" lon="12.2654259"><ele>301.0</ele><time>2026-03-29T11:28:40.408Z</time></trkpt><trkpt lat="43.1258816" lon="12.2654578"><ele>301.0</ele><time>2026-03-29T11:28:41.408Z</time></trkpt><trkpt lat="43.1260301" lon="12.2654972"><ele>300.3333333333333</ele><time>2026-03-29T11:28:42.408Z</time></trkpt><trkpt lat="43.1261779" lon="12.2655387"><ele>299.6666666666667</ele><time>2026-03-29T11:28:43.409Z</time></trkpt><trkpt lat="43.1263311" lon="12.2655838"><ele>299.0</ele><time>2026-03-29T11:28:44.408Z</time></trkpt><trkpt lat="43.1264797" lon="12.2656279"><ele>296.25</ele><time>2026-03-29T11:28:45.408Z</time></trkpt><trkpt lat="43.1266136" lon="12.2656688"><ele>293.5</ele><time>2026-03-29T11:28:46.408Z</time></trkpt><trkpt lat="43.1267343" lon="12.2657013"><ele>290.75</ele><time>2026-03-29T11:28:47.409Z</time></trkpt><trkpt lat="43.1268518" lon="12.2657288"><ele>288.0</ele><time>2026-03-29T11:28:48.409Z</time></trkpt><trkpt lat="43.1269643" lon="12.2657607"><ele>288.0</ele><time>2026-03-29T11:28:49.408Z</time></trkpt><trkpt lat="43.1270782" lon="12.2657915"><ele>288.0</ele><time>2026-03-29T11:28:50.408Z</time></trkpt><trkpt lat="43.1271877" lon="12.2658201"><ele>288.0</ele><time>2026-03-29T11:28:51.408Z</time></trkpt><trkpt lat="43.1273071" lon="12.2658571"><ele>288.0</ele><time>2026-03-29T11:28:52.409Z</time></trkpt><trkpt lat="43.1274288" lon="12.2658873"><ele>287.5</ele><time>2026-03-29T11:28:53.408Z</time></trkpt><trkpt lat="43.1275463" lon="12.2659188"><ele>287.0</ele><time>2026-03-29T11:28:54.409Z</time></trkpt><trkpt lat="43.1276606" lon="12.2659408"><ele>286.5</ele><time>2026-03-29T11:28:55.408Z</time></trkpt><trkpt lat="43.1277834" lon="12.2659434"><ele>286.0</ele><time>2026-03-29T11:28:56.408Z</time></trkpt><trkpt lat="43.1278932" lon="12.2659335"><ele>286.0</ele><time>2026-03-29T11:28:57.407Z</time></trkpt><trkpt lat="43.1280073" lon="12.2659139"><ele>286.0</ele><time>2026-03-29T11:28:58.408Z</time></trkpt><trkpt lat="43.1281121" lon="12.2659121"><ele>286.0</ele><time>2026-03-29T11:28:59.408Z</time></trkpt><trkpt lat="43.1282363" lon="12.2658955"><ele>286.0</ele><time>2026-03-29T11:29:00.408Z</time></trkpt><trkpt lat="43.128348" lon="12.2658628"><ele>284.0</ele><time>2026-03-29T11:29:01.407Z</time></trkpt><trkpt lat="43.1284507" lon="12.2658209"><ele>282.0</ele><time>2026-03-29T11:29:02.408Z</time></trkpt><trkpt lat="43.1285588" lon="12.2657761"><ele>280.0</ele><time>2026-03-29T11:29:03.409Z</time></trkpt><trkpt lat="43.1286806" lon="12.2657336"><ele>278.0</ele><time>2026-03-29T11:29:04.407Z</time></trkpt><trkpt lat="43.1288059" lon="12.2656673"><ele>278.0</ele><time>2026-03-29T11:29:05.407Z</time></trkpt><trkpt lat="43.1289315" lon="12.2656223"><ele>278.0</ele><time>2026-03-29T11:29:06.407Z</time></trkpt><trkpt lat="43.1290466" lon="12.265571"><ele>278.0</ele><time>2026-03-29T11:29:07.408Z</time></trkpt><trkpt lat="43.1291608" lon="12.265523"><ele>278.0</ele><time>2026-03-29T11:29:08.408Z</time></trkpt><trkpt lat="43.12927" lon="12.2654706"><ele>277.2</ele><time>2026-03-29T11:29:09.409Z</time></trkpt><trkpt lat="43.1293794" lon="12.2654136"><ele>276.4</ele><time>2026-03-29T11:29:10.409Z</time></trkpt><trkpt lat="43.1294768" lon="12.2653458"><ele>275.59999999999997</ele><time>2026-03-29T11:29:11.408Z</time></trkpt><trkpt lat="43.1295732" lon="12.2652718"><ele>274.8</ele><time>2026-03-29T11:29:12.408Z</time></trkpt><trkpt lat="43.1296574" lon="12.2651804"><ele>274.0</ele><time>2026-03-29T11:29:13.408Z</time></trkpt><trkpt lat="43.1297271" lon="12.2650835"><ele>274.0</ele><time>2026-03-29T11:29:14.408Z</time></trkpt><trkpt lat="43.1297866" lon="12.264973"><ele>274.0</ele><time>2026-03-29T11:29:15.407Z</time></trkpt><trkpt lat="43.1298076" lon="12.2648379"><ele>274.0</ele><time>2026-03-29T11:29:16.408Z</time></trkpt><trkpt lat="43.129834" lon="12.2646902"><ele>274.0</ele><time>2026-03-29T11:29:17.407Z</time></trkpt><trkpt lat="43.1298559" lon="12.2645402"><ele>274.0</ele><time>2026-03-29T11:29:18.408Z</time></trkpt><trkpt lat="43.129877" lon="12.2644022"><ele>273.59999999999997</ele><time>2026-03-29T11:29:19.409Z</time></trkpt><trkpt lat="43.1298852" lon="12.2642637"><ele>273.2</ele><time>2026-03-29T11:29:20.408Z</time></trkpt><trkpt lat="43.1298817" lon="12.2641233"><ele>272.79999999999995</ele><time>2026-03-29T11:29:21.408Z</time></trkpt><trkpt lat="43.1298671" lon="12.2640063"><ele>272.4</ele><time>2026-03-29T11:29:22.408Z</time></trkpt><trkpt lat="43.1298594" lon="12.2639043"><ele>272.0</ele><time>2026-03-29T11:29:23.409Z</time></trkpt><trkpt lat="43.1298861" lon="12.2637878"><ele>270.2</ele><time>2026-03-29T11:29:25.409Z</time></trkpt><trkpt lat="43.1299856" lon="12.2637659"><ele>268.4</ele><time>2026-03-29T11:29:27.409Z</time></trkpt><trkpt lat="43.1300806" lon="12.2637828"><ele>266.6</ele><time>2026-03-29T11:29:28.408Z</time></trkpt><trkpt lat="43.1301923" lon="12.2638603"><ele>264.8</ele><time>2026-03-29T11:29:29.407Z</time></trkpt><trkpt lat="43.1302726" lon="12.2639396"><ele>263.0</ele><time>2026-03-29T11:29:30.408Z</time></trkpt><trkpt lat="43.1303655" lon="12.264"><ele>263.0</ele><time>2026-03-29T11:29:31.408Z</time></trkpt><trkpt lat="43.1304284" lon="12.2640632"><ele>263.0</ele><time>2026-03-29T11:29:32.409Z</time></trkpt><trkpt lat="43.1305198" lon="12.2641494"><ele>263.0</ele><time>2026-03-29T11:29:33.408Z</time></trkpt><trkpt lat="43.1305796" lon="12.2641779"><ele>263.0</ele><time>2026-03-29T11:29:34.408Z</time></trkpt><trkpt lat="43.1306705" lon="12.2641846"><ele>263.0</ele><time>2026-03-29T11:29:35.407Z</time></trkpt><trkpt lat="43.1307549" lon="12.2641761"><ele>263.0</ele><time>2026-03-29T11:29:36.407Z</time></trkpt><trkpt lat="43.1308835" lon="12.2641259"><ele>260.0</ele><time>2026-03-29T11:29:37.408Z</time></trkpt><trkpt lat="43.1309894" lon="12.2640795"><ele>257.0</ele><time>2026-03-29T11:29:38.408Z</time></trkpt><trkpt lat="43.1311023" lon="12.2640389"><ele>254.0</ele><time>2026-03-29T11:29:39.407Z</time></trkpt><trkpt lat="43.1312205" lon="12.2639937"><ele>251.0</ele><time>2026-03-29T11:29:40.409Z</time></trkpt><trkpt lat="43.1313201" lon="12.2639531"><ele>250.16666666666669</ele><time>2026-03-29T11:29:41.407Z</time></trkpt><trkpt lat="43.1314096" lon="12.2639093"><ele>249.33333333333334</ele><time>2026-03-29T11:29:42.409Z</time></trkpt><trkpt lat="43.1315073" lon="12.2638663"><ele>248.5</ele><time>2026-03-29T11:29:43.408Z</time></trkpt><trkpt lat="43.131573" lon="12.2638318"><ele>247.66666666666669</ele><time>2026-03-29T11:29:44.409Z</time></trkpt><trkpt lat="43.1316435" lon="12.2638029"><ele>246.83333333333334</ele><time>2026-03-29T11:29:45.409Z</time></trkpt><trkpt lat="43.1317239" lon="12.263833"><ele>246.0</ele><time>2026-03-29T11:29:47.408Z</time></trkpt><trkpt lat="43.1318008" lon="12.2638094"><ele>244.4</ele><time>2026-03-29T11:29:49.407Z</time></trkpt><trkpt lat="43.1318508" lon="12.2637488"><ele>242.8</ele><time>2026-03-29T11:29:50.407Z</time></trkpt><trkpt lat="43.1318949" lon="12.2636531"><ele>241.20000000000002</ele><time>2026-03-29T11:29:51.408Z</time></trkpt><trkpt lat="43.1319448" lon="12.2635316"><ele>239.60000000000002</ele><time>2026-03-29T11:29:52.408Z</time></trkpt><trkpt lat="43.1319961" lon="12.263407"><ele>238.0</ele><time>2026-03-29T11:29:53.408Z</time></trkpt><trkpt lat="43.1320487" lon="12.2632689"><ele>238.0</ele><time>2026-03-29T11:29:54.409Z</time></trkpt><trkpt lat="43.132096" lon="12.2631256"><ele>238.0</ele><time>2026-03-29T11:29:55.409Z</time></trkpt><trkpt lat="43.1321394" lon="12.2629841"><ele>238.0</ele><time>2026-03-29T11:29:56.408Z</time></trkpt><trkpt lat="43.1321719" lon="12.2628457"><ele>238.0</ele><time>2026-03-29T11:29:57.41Z</time></trkpt><trkpt lat="43.1321945" lon="12.2627265"><ele>238.0</ele><time>2026-03-29T11:29:58.409Z</time></trkpt><trkpt lat="43.1322249" lon="12.2626058"><ele>237.66666666666666</ele><time>2026-03-29T11:29:59.408Z</time></trkpt><trkpt lat="43.1322581" lon="12.2625064"><ele>237.33333333333331</ele><time>2026-03-29T11:30:00.408Z</time></trkpt><trkpt lat="43.1322886" lon="12.2624016"><ele>237.0</ele><time>2026-03-29T11:30:01.409Z</time></trkpt><trkpt lat="43.1323272" lon="12.2623075"><ele>236.66666666666669</ele><time>2026-03-29T11:30:02.408Z</time></trkpt><trkpt lat="43.1324016" lon="12.2622265"><ele>236.33333333333334</ele><time>2026-03-29T11:30:03.409Z</time></trkpt><trkpt lat="43.1324766" lon="12.2621592"><ele>236.0</ele><time>2026-03-29T11:30:04.408Z</time></trkpt><trkpt lat="43.1325558" lon="12.2621062"><ele>235.60000000000002</ele><time>2026-03-29T11:30:05.409Z</time></trkpt><trkpt lat="43.1326355" lon="12.2620491"><ele>235.20000000000002</ele><time>2026-03-29T11:30:06.408Z</time></trkpt><trkpt lat="43.1327383" lon="12.262081"><ele>234.79999999999998</ele><time>2026-03-29T11:30:07.408Z</time></trkpt><trkpt lat="43.1328336" lon="12.2621268"><ele>234.39999999999998</ele><time>2026-03-29T11:30:08.407Z</time></trkpt><trkpt lat="43.1329407" lon="12.2621883"><ele>234.0</ele><time>2026-03-29T11:30:09.409Z</time></trkpt><trkpt lat="43.1330305" lon="12.2622662"><ele>234.66666666666669</ele><time>2026-03-29T11:30:10.409Z</time></trkpt><trkpt lat="43.1331542" lon="12.2624278"><ele>235.33333333333334</ele><time>2026-03-29T11:30:11.408Z</time></trkpt><trkpt lat="43.1332914" lon="12.2625647"><ele>236.0</ele><time>2026-03-29T11:30:12.409Z</time></trkpt><trkpt lat="43.1334106" lon="12.2626958"><ele>236.0</ele><time>2026-03-29T11:30:13.409Z</time></trkpt><trkpt lat="43.1335428" lon="12.2628241"><ele>236.0</ele><time>2026-03-29T11:30:14.409Z</time></trkpt><trkpt lat="43.1336813" lon="12.2629479"><ele>236.0</ele><time>2026-03-29T11:30:15.409Z</time></trkpt><trkpt lat="43.1338135" lon="12.2630627"><ele>235.66666666666669</ele><time>2026-03-29T11:30:16.409Z</time></trkpt><trkpt lat="43.1339544" lon="12.2631651"><ele>235.33333333333331</ele><time>2026-03-29T11:30:17.409Z</time></trkpt><trkpt lat="43.1341057" lon="12.263261"><ele>235.0</ele><time>2026-03-29T11:30:18.409Z</time></trkpt><trkpt lat="43.1342458" lon="12.2633465"><ele>235.0</ele><time>2026-03-29T11:30:19.408Z</time></trkpt><trkpt lat="43.1343734" lon="12.2634164"><ele>235.0</ele><time>2026-03-29T11:30:20.409Z</time></trkpt><trkpt lat="43.1344942" lon="12.2634748"><ele>235.0</ele><time>2026-03-29T11:30:21.408Z</time></trkpt><trkpt lat="43.1346112" lon="12.2635162"><ele>235.0</ele><time>2026-03-29T11:30:22.407Z</time></trkpt><trkpt lat="43.1347249" lon="12.2635217"><ele>235.0</ele><time>2026-03-29T11:30:23.408Z</time></trkpt><trkpt lat="43.134839" lon="12.2635367"><ele>235.0</ele><time>2026-03-29T11:30:24.408Z</time></trkpt><trkpt lat="43.1349542" lon="12.2635422"><ele>235.0</ele><time>2026-03-29T11:30:25.409Z</time></trkpt><trkpt lat="43.1350714" lon="12.2635622"><ele>235.0</ele><time>2026-03-29T11:30:26.408Z</time></trkpt><trkpt lat="43.1351896" lon="12.26358"><ele>234.75</ele><time>2026-03-29T11:30:27.409Z</time></trkpt><trkpt lat="43.1353028" lon="12.2636026"><ele>234.5</ele><time>2026-03-29T11:30:28.409Z</time></trkpt><trkpt lat="43.1354203" lon="12.2636303"><ele>234.25</ele><time>2026-03-29T11:30:29.408Z</time></trkpt><trkpt lat="43.1355333" lon="12.2636726"><ele>234.0</ele><time>2026-03-29T11:30:30.409Z</time></trkpt><trkpt lat="43.1356255" lon="12.2637436"><ele>234.0</ele><time>2026-03-29T11:30:31.407Z</time></trkpt><trkpt lat="43.1357064" lon="12.2638489"><ele>234.0</ele><time>2026-03-29T11:30:32.408Z</time></trkpt><trkpt lat="43.1357906" lon="12.2639845"><ele>234.0</ele><time>2026-03-29T11:30:33.408Z</time></trkpt><trkpt lat="43.135872" lon="12.2641389"><ele>234.0</ele><time>2026-03-29T11:30:34.409Z</time></trkpt><trkpt lat="43.1359611" lon="12.2643131"><ele>233.66666666666669</ele><time>2026-03-29T11:30:35.408Z</time></trkpt><trkpt lat="43.1360552" lon="12.2644934"><ele>233.33333333333334</ele><time>2026-03-29T11:30:36.408Z</time></trkpt><trkpt lat="43.136143" lon="12.264686"><ele>233.0</ele><time>2026-03-29T11:30:37.408Z</time></trkpt><trkpt lat="43.1362398" lon="12.2648814"><ele>234.0</ele><time>2026-03-29T11:30:38.407Z</time></trkpt><trkpt lat="43.1363449" lon="12.2650856"><ele>235.0</ele><time>2026-03-29T11:30:39.408Z</time></trkpt><trkpt lat="43.1364482" lon="12.2652897"><ele>236.0</ele><time>2026-03-29T11:30:40.41Z</time></trkpt><trkpt lat="43.1365491" lon="12.265495"><ele>235.33333333333334</ele><time>2026-03-29T11:30:41.409Z</time></trkpt><trkpt lat="43.1366496" lon="12.2656931"><ele>234.66666666666669</ele><time>2026-03-29T11:30:42.408Z</time></trkpt><trkpt lat="43.1367482" lon="12.2658852"><ele>234.0</ele><time>2026-03-29T11:30:43.408Z</time></trkpt><trkpt lat="43.1368489" lon="12.2660793"><ele>234.0</ele><time>2026-03-29T11:30:44.408Z</time></trkpt><trkpt lat="43.1369481" lon="12.2662728"><ele>234.0</ele><time>2026-03-29T11:30:45.408Z</time></trkpt><trkpt lat="43.1370442" lon="12.2664691"><ele>234.0</ele><time>2026-03-29T11:30:46.408Z</time></trkpt><trkpt lat="43.1371542" lon="12.2666554"><ele>234.0</ele><time>2026-03-29T11:30:47.408Z</time></trkpt><trkpt lat="43.1372587" lon="12.2668621"><ele>234.0</ele><time>2026-03-29T11:30:48.409Z</time></trkpt><trkpt lat="43.1373651" lon="12.2670692"><ele>234.0</ele><time>2026-03-29T11:30:49.409Z</time></trkpt><trkpt lat="43.1374682" lon="12.2672787"><ele>235.0</ele><time>2026-03-29T11:30:50.408Z</time></trkpt><trkpt lat="43.1375766" lon="12.2674902"><ele>236.0</ele><time>2026-03-29T11:30:51.407Z</time></trkpt><trkpt lat="43.1376875" lon="12.2677047"><ele>237.0</ele><time>2026-03-29T11:30:52.41Z</time></trkpt><trkpt lat="43.1378005" lon="12.2679174"><ele>236.0</ele><time>2026-03-29T11:30:53.408Z</time></trkpt><trkpt lat="43.1379116" lon="12.2681183"><ele>235.0</ele><time>2026-03-29T11:30:54.407Z</time></trkpt><trkpt lat="43.1380195" lon="12.2683074"><ele>234.0</ele><time>2026-03-29T11:30:55.409Z</time></trkpt><trkpt lat="43.138127" lon="12.2684816"><ele>234.66666666666669</ele><time>2026-03-29T11:30:56.409Z</time></trkpt><trkpt lat="43.1382367" lon="12.2686523"><ele>235.33333333333334</ele><time>2026-03-29T11:30:57.408Z</time></trkpt><trkpt lat="43.1383558" lon="12.2688111"><ele>236.0</ele><time>2026-03-29T11:30:58.409Z</time></trkpt><trkpt lat="43.138477" lon="12.2689643"><ele>236.0</ele><time>2026-03-29T11:30:59.407Z</time></trkpt><trkpt lat="43.1385896" lon="12.2690968"><ele>236.0</ele><time>2026-03-29T11:31:00.408Z</time></trkpt><trkpt lat="43.1387066" lon="12.2692297"><ele>236.0</ele><time>2026-03-29T11:31:01.409Z</time></trkpt><trkpt lat="43.1388205" lon="12.2693521"><ele>236.0</ele><time>2026-03-29T11:31:02.408Z</time></trkpt><trkpt lat="43.138936" lon="12.269472"><ele>236.0</ele><time>2026-03-29T11:31:03.408Z</time></trkpt><trkpt lat="43.1390478" lon="12.2695888"><ele>236.0</ele><time>2026-03-29T11:31:04.408Z</time></trkpt><trkpt lat="43.1391446" lon="12.2696942"><ele>236.0</ele><time>2026-03-29T11:31:05.408Z</time></trkpt><trkpt lat="43.1392319" lon="12.2697906"><ele>236.0</ele><time>2026-03-29T11:31:06.409Z</time></trkpt><trkpt lat="43.1393212" lon="12.26987"><ele>236.20000000000002</ele><time>2026-03-29T11:31:07.408Z</time></trkpt><trkpt lat="43.1394175" lon="12.2699471"><ele>236.40000000000003</ele><time>2026-03-29T11:31:08.409Z</time></trkpt><trkpt lat="43.1395096" lon="12.2700271"><ele>236.6</ele><time>2026-03-29T11:31:09.408Z</time></trkpt><trkpt lat="43.1395863" lon="12.2701036"><ele>236.8</ele><time>2026-03-29T11:31:10.408Z</time></trkpt><trkpt lat="43.1396643" lon="12.2701843"><ele>237.0</ele><time>2026-03-29T11:31:11.408Z</time></trkpt><trkpt lat="43.1397327" lon="12.2702515"><ele>237.0</ele><time>2026-03-29T11:31:12.408Z</time></trkpt><trkpt lat="43.1397968" lon="12.2703239"><ele>237.0</ele><time>2026-03-29T11:31:13.408Z</time></trkpt><trkpt lat="43.1398557" lon="12.2703704"><ele>237.0</ele><time>2026-03-29T11:31:14.408Z</time></trkpt><trkpt lat="43.1399729" lon="12.2703483"><ele>237.0</ele><time>2026-03-29T11:31:16.408Z</time></trkpt><trkpt lat="43.1400285" lon="12.2702953"><ele>237.0</ele><time>2026-03-29T11:31:17.409Z</time></trkpt><trkpt lat="43.1400935" lon="12.270145"><ele>237.25</ele><time>2026-03-29T11:31:18.409Z</time></trkpt><trkpt lat="43.1401501" lon="12.2700129"><ele>237.5</ele><time>2026-03-29T11:31:19.408Z</time></trkpt><trkpt lat="43.1402087" lon="12.2698652"><ele>237.75</ele><time>2026-03-29T11:31:20.408Z</time></trkpt><trkpt lat="43.1402705" lon="12.2697183"><ele>238.0</ele><time>2026-03-29T11:31:21.409Z</time></trkpt><trkpt lat="43.1403445" lon="12.2695727"><ele>238.0</ele><time>2026-03-29T11:31:22.408Z</time></trkpt><trkpt lat="43.1404274" lon="12.2694151"><ele>238.0</ele><time>2026-03-29T11:31:23.407Z</time></trkpt><trkpt lat="43.1405092" lon="12.2692502"><ele>238.0</ele><time>2026-03-29T11:31:24.409Z</time></trkpt><trkpt lat="43.1405916" lon="12.2690697"><ele>238.0</ele><time>2026-03-29T11:31:25.409Z</time></trkpt><trkpt lat="43.1406762" lon="12.2688905"><ele>238.0</ele><time>2026-03-29T11:31:26.408Z</time></trkpt><trkpt lat="43.1407681" lon="12.268721"><ele>238.0</ele><time>2026-03-29T11:31:27.409Z</time></trkpt><trkpt lat="43.1408634" lon="12.2685761"><ele>238.0</ele><time>2026-03-29T11:31:28.407Z</time></trkpt><trkpt lat="43.1409576" lon="12.2684323"><ele>238.0</ele><time>2026-03-29T11:31:29.41Z</time></trkpt><trkpt lat="43.1410493" lon="12.2683226"><ele>238.0</ele><time>2026-03-29T11:31:30.409Z</time></trkpt><trkpt lat="43.14114" lon="12.2682167"><ele>238.0</ele><time>2026-03-29T11:31:31.41Z</time></trkpt><trkpt lat="43.1412373" lon="12.268101"><ele>238.0</ele><time>2026-03-29T11:31:32.407Z</time></trkpt><trkpt lat="43.141335" lon="12.2679702"><ele>238.0</ele><time>2026-03-29T11:31:33.409Z</time></trkpt><trkpt lat="43.1414367" lon="12.2678399"><ele>238.25</ele><time>2026-03-29T11:31:34.407Z</time></trkpt><trkpt lat="43.1415417" lon="12.2677071"><ele>238.5</ele><time>2026-03-29T11:31:35.408Z</time></trkpt><trkpt lat="43.1416455" lon="12.2675672"><ele>238.75</ele><time>2026-03-29T11:31:36.408Z</time></trkpt><trkpt lat="43.1417517" lon="12.2674333"><ele>239.0</ele><time>2026-03-29T11:31:37.409Z</time></trkpt><trkpt lat="43.14186" lon="12.2672868"><ele>238.75</ele><time>2026-03-29T11:31:38.409Z</time></trkpt><trkpt lat="43.1419683" lon="12.2671411"><ele>238.5</ele><time>2026-03-29T11:31:39.409Z</time></trkpt><trkpt lat="43.142067" lon="12.2670031"><ele>238.25</ele><time>2026-03-29T11:31:40.408Z</time></trkpt><trkpt lat="43.1421548" lon="12.2668945"><ele>238.0</ele><time>2026-03-29T11:31:41.409Z</time></trkpt><trkpt lat="43.1422252" lon="12.2668562"><ele>238.0</ele><time>2026-03-29T11:31:42.407Z</time></trkpt><trkpt lat="43.1423101" lon="12.2668426"><ele>238.0</ele><time>2026-03-29T11:31:43.41Z</time></trkpt><trkpt lat="43.1423959" lon="12.2668647"><ele>238.0</ele><time>2026-03-29T11:31:44.409Z</time></trkpt><trkpt lat="43.142489" lon="12.2668988"><ele>238.0</ele><time>2026-03-29T11:31:45.408Z</time></trkpt><trkpt lat="43.1426338" lon="12.2669239"><ele>238.0</ele><time>2026-03-29T11:31:46.408Z</time></trkpt><trkpt lat="43.1427752" lon="12.2669586"><ele>238.75</ele><time>2026-03-29T11:31:47.408Z</time></trkpt><trkpt lat="43.1429147" lon="12.2669781"><ele>239.5</ele><time>2026-03-29T11:31:48.409Z</time></trkpt><trkpt lat="43.1430446" lon="12.2669971"><ele>240.25</ele><time>2026-03-29T11:31:49.409Z</time></trkpt><trkpt lat="43.1431357" lon="12.2669869"><ele>241.0</ele><time>2026-03-29T11:31:50.408Z</time></trkpt><trkpt lat="43.1432256" lon="12.2669691"><ele>241.20000000000002</ele><time>2026-03-29T11:31:51.409Z</time></trkpt><trkpt lat="43.1433311" lon="12.26695"><ele>241.40000000000003</ele><time>2026-03-29T11:31:52.41Z</time></trkpt><trkpt lat="43.1434246" lon="12.2669987"><ele>241.6</ele><time>2026-03-29T11:31:53.409Z</time></trkpt><trkpt lat="43.1435175" lon="12.2670655"><ele>241.8</ele><time>2026-03-29T11:31:54.408Z</time></trkpt><trkpt lat="43.1436116" lon="12.267172"><ele>242.0</ele><time>2026-03-29T11:31:55.407Z</time></trkpt><trkpt lat="43.1437165" lon="12.2672996"><ele>241.5</ele><time>2026-03-29T11:31:56.408Z</time></trkpt><trkpt lat="43.1438198" lon="12.2674462"><ele>241.0</ele><time>2026-03-29T11:31:57.41Z</time></trkpt><trkpt lat="43.143918" lon="12.2675835"><ele>240.5</ele><time>2026-03-29T11:31:58.409Z</time></trkpt><trkpt lat="43.1440149" lon="12.2677326"><ele>240.0</ele><time>2026-03-29T11:31:59.41Z</time></trkpt><trkpt lat="43.1441189" lon="12.2678737"><ele>239.66666666666669</ele><time>2026-03-29T11:32:00.409Z</time></trkpt><trkpt lat="43.1442287" lon="12.2680084"><ele>239.33333333333334</ele><time>2026-03-29T11:32:01.409Z</time></trkpt><trkpt lat="43.1443554" lon="12.2681203"><ele>239.0</ele><time>2026-03-29T11:32:02.408Z</time></trkpt><trkpt lat="43.1444951" lon="12.268221"><ele>239.0</ele><time>2026-03-29T11:32:03.409Z</time></trkpt><trkpt lat="43.1446474" lon="12.268336"><ele>239.0</ele><time>2026-03-29T11:32:04.408Z</time></trkpt><trkpt lat="43.1447819" lon="12.2684573"><ele>239.0</ele><time>2026-03-29T11:32:05.409Z</time></trkpt><trkpt lat="43.1449191" lon="12.2686018"><ele>239.5</ele><time>2026-03-29T11:32:06.408Z</time></trkpt><trkpt lat="43.1450447" lon="12.2687443"><ele>240.0</ele><time>2026-03-29T11:32:07.408Z</time></trkpt><trkpt lat="43.1451534" lon="12.2688831"><ele>240.5</ele><time>2026-03-29T11:32:08.409Z</time></trkpt><trkpt lat="43.1452397" lon="12.269027"><ele>241.0</ele><time>2026-03-29T11:32:09.408Z</time></trkpt><trkpt lat="43.1453061" lon="12.2691853"><ele>241.25</ele><time>2026-03-29T11:32:10.408Z</time></trkpt><trkpt lat="43.1453449" lon="12.2693436"><ele>241.5</ele><time>2026-03-29T11:32:11.408Z</time></trkpt><trkpt lat="43.1453597" lon="12.2695241"><ele>241.75</ele><time>2026-03-29T11:32:12.407Z</time></trkpt><trkpt lat="43.1453613" lon="12.2697241"><ele>242.0</ele><time>2026-03-29T11:32:13.41Z</time></trkpt><trkpt lat="43.1453473" lon="12.269957"><ele>242.5</ele><time>2026-03-29T11:32:14.408Z</time></trkpt><trkpt lat="43.1453407" lon="12.2701556"><ele>243.0</ele><time>2026-03-29T11:32:15.41Z</time></trkpt><trkpt lat="43.1453325" lon="12.2703467"><ele>243.5</ele><time>2026-03-29T11:32:16.409Z</time></trkpt><trkpt lat="43.1453313" lon="12.270494"><ele>244.0</ele><time>2026-03-29T11:32:17.408Z</time></trkpt><trkpt lat="43.1453165" lon="12.2706352"><ele>244.75</ele><time>2026-03-29T11:32:18.409Z</time></trkpt><trkpt lat="43.1452956" lon="12.2707639"><ele>245.5</ele><time>2026-03-29T11:32:19.409Z</time></trkpt><trkpt lat="43.1452343" lon="12.2708911"><ele>246.25</ele><time>2026-03-29T11:32:20.409Z</time></trkpt><trkpt lat="43.1451694" lon="12.2710328"><ele>247.0</ele><time>2026-03-29T11:32:21.407Z</time></trkpt><trkpt lat="43.1451125" lon="12.271186"><ele>247.0</ele><time>2026-03-29T11:32:22.41Z</time></trkpt><trkpt lat="43.1450573" lon="12.2713254"><ele>247.0</ele><time>2026-03-29T11:32:23.408Z</time></trkpt><trkpt lat="43.1450026" lon="12.2714526"><ele>247.0</ele><time>2026-03-29T11:32:24.409Z</time></trkpt><trkpt lat="43.1449607" lon="12.271557"><ele>247.0</ele><time>2026-03-29T11:32:25.41Z</time></trkpt><trkpt lat="43.1449338" lon="12.2716697"><ele>247.0</ele><time>2026-03-29T11:32:26.408Z</time></trkpt><trkpt lat="43.1449371" lon="12.2717989"><ele>247.75</ele><time>2026-03-29T11:32:27.41Z</time></trkpt><trkpt lat="43.144951" lon="12.2719523"><ele>248.5</ele><time>2026-03-29T11:32:28.409Z</time></trkpt><trkpt lat="43.14496" lon="12.2721151"><ele>249.25</ele><time>2026-03-29T11:32:29.409Z</time></trkpt><trkpt lat="43.1449607" lon="12.2722873"><ele>250.0</ele><time>2026-03-29T11:32:30.407Z</time></trkpt><trkpt lat="43.144966" lon="12.2724375"><ele>250.2</ele><time>2026-03-29T11:32:31.408Z</time></trkpt><trkpt lat="43.1449735" lon="12.2725705"><ele>250.4</ele><time>2026-03-29T11:32:32.409Z</time></trkpt><trkpt lat="43.144986" lon="12.2727181"><ele>250.60000000000002</ele><time>2026-03-29T11:32:33.407Z</time></trkpt><trkpt lat="43.1449976" lon="12.272872"><ele>250.8</ele><time>2026-03-29T11:32:34.409Z</time></trkpt><trkpt lat="43.1450184" lon="12.2730448"><ele>251.0</ele><time>2026-03-29T11:32:35.41Z</time></trkpt><trkpt lat="43.1450323" lon="12.2732191"><ele>250.25</ele><time>2026-03-29T11:32:36.409Z</time></trkpt><trkpt lat="43.1450501" lon="12.2733799"><ele>249.5</ele><time>2026-03-29T11:32:37.408Z</time></trkpt><trkpt lat="43.1450663" lon="12.273557"><ele>248.75</ele><time>2026-03-29T11:32:38.409Z</time></trkpt><trkpt lat="43.1450779" lon="12.2737186"><ele>248.0</ele><time>2026-03-29T11:32:39.407Z</time></trkpt><trkpt lat="43.1450849" lon="12.2738756"><ele>247.2</ele><time>2026-03-29T11:32:40.409Z</time></trkpt><trkpt lat="43.1451031" lon="12.2740215"><ele>246.4</ele><time>2026-03-29T11:32:41.409Z</time></trkpt><trkpt lat="43.1451326" lon="12.2741578"><ele>245.59999999999997</ele><time>2026-03-29T11:32:42.409Z</time></trkpt><trkpt lat="43.145179" lon="12.2742642"><ele>244.79999999999998</ele><time>2026-03-29T11:32:43.407Z</time></trkpt><trkpt lat="43.1452295" lon="12.2743605"><ele>244.0</ele><time>2026-03-29T11:32:44.407Z</time></trkpt><trkpt lat="43.1452831" lon="12.2744612"><ele>243.99999999999997</ele><time>2026-03-29T11:32:45.407Z</time></trkpt><trkpt lat="43.1453408" lon="12.2745521"><ele>244.0</ele><time>2026-03-29T11:32:46.408Z</time></trkpt><trkpt lat="43.1454304" lon="12.2746082"><ele>244.0</ele><time>2026-03-29T11:32:47.41Z</time></trkpt><trkpt lat="43.1455116" lon="12.2746688"><ele>244.0</ele><time>2026-03-29T11:32:48.41Z</time></trkpt><trkpt lat="43.1455849" lon="12.2747182"><ele>243.99999999999997</ele><time>2026-03-29T11:32:49.409Z</time></trkpt><trkpt lat="43.1456626" lon="12.2747697"><ele>244.0</ele><time>2026-03-29T11:32:50.409Z</time></trkpt><trkpt lat="43.1457469" lon="12.274803"><ele>243.79999999999998</ele><time>2026-03-29T11:32:51.408Z</time></trkpt><trkpt lat="43.1458373" lon="12.2748313"><ele>243.59999999999997</ele><time>2026-03-29T11:32:52.409Z</time></trkpt><trkpt lat="43.145936" lon="12.2748636"><ele>243.4</ele><time>2026-03-29T11:32:53.409Z</time></trkpt><trkpt lat="43.1460567" lon="12.2748834"><ele>243.2</ele><time>2026-03-29T11:32:54.409Z</time></trkpt><trkpt lat="43.1461685" lon="12.2748991"><ele>243.0</ele><time>2026-03-29T11:32:55.408Z</time></trkpt><trkpt lat="43.1462696" lon="12.2749188"><ele>243.0</ele><time>2026-03-29T11:32:56.409Z</time></trkpt><trkpt lat="43.1463626" lon="12.2749362"><ele>243.0</ele><time>2026-03-29T11:32:57.409Z</time></trkpt><trkpt lat="43.1464602" lon="12.2749394"><ele>243.0</ele><time>2026-03-29T11:32:58.407Z</time></trkpt><trkpt lat="43.1465587" lon="12.2749482"><ele>243.0</ele><time>2026-03-29T11:32:59.409Z</time></trkpt><trkpt lat="43.1466688" lon="12.2749385"><ele>243.0</ele><time>2026-03-29T11:33:00.41Z</time></trkpt><trkpt lat="43.1467753" lon="12.2749208"><ele>243.5</ele><time>2026-03-29T11:33:01.408Z</time></trkpt><trkpt lat="43.1468698" lon="12.274902"><ele>244.0</ele><time>2026-03-29T11:33:02.409Z</time></trkpt><trkpt lat="43.1469538" lon="12.274898"><ele>244.5</ele><time>2026-03-29T11:33:03.408Z</time></trkpt><trkpt lat="43.1470347" lon="12.2748978"><ele>245.0</ele><time>2026-03-29T11:33:04.409Z</time></trkpt><trkpt lat="43.147091" lon="12.2749433"><ele>245.5</ele><time>2026-03-29T11:33:05.409Z</time></trkpt><trkpt lat="43.1471416" lon="12.2750066"><ele>246.0</ele><time>2026-03-29T11:33:06.409Z</time></trkpt><trkpt lat="43.1471772" lon="12.2750944"><ele>246.0</ele><time>2026-03-29T11:33:07.41Z</time></trkpt><trkpt lat="43.1472039" lon="12.2752082"><ele>246.00000000000003</ele><time>2026-03-29T11:33:08.408Z</time></trkpt><trkpt lat="43.1472399" lon="12.2753346"><ele>246.00000000000003</ele><time>2026-03-29T11:33:09.409Z</time></trkpt><trkpt lat="43.1472828" lon="12.2754701"><ele>246.0</ele><time>2026-03-29T11:33:10.409Z</time></trkpt><trkpt lat="43.1473304" lon="12.2756129"><ele>246.0</ele><time>2026-03-29T11:33:11.408Z</time></trkpt><trkpt lat="43.147371" lon="12.2757498"><ele>245.25</ele><time>2026-03-29T11:33:12.407Z</time></trkpt><trkpt lat="43.1474216" lon="12.2758955"><ele>244.5</ele><time>2026-03-29T11:33:13.408Z</time></trkpt><trkpt lat="43.1474702" lon="12.27605"><ele>243.75</ele><time>2026-03-29T11:33:14.409Z</time></trkpt><trkpt lat="43.1475216" lon="12.2762124"><ele>243.0</ele><time>2026-03-29T11:33:15.41Z</time></trkpt><trkpt lat="43.1475726" lon="12.2763801"><ele>243.4</ele><time>2026-03-29T11:33:16.409Z</time></trkpt><trkpt lat="43.1476207" lon="12.2765336"><ele>243.8</ele><time>2026-03-29T11:33:17.409Z</time></trkpt><trkpt lat="43.1476727" lon="12.276678"><ele>244.2</ele><time>2026-03-29T11:33:18.409Z</time></trkpt><trkpt lat="43.1477028" lon="12.2767819"><ele>244.6</ele><time>2026-03-29T11:33:19.41Z</time></trkpt><trkpt lat="43.1477262" lon="12.2768706"><ele>245.0</ele><time>2026-03-29T11:33:20.41Z</time></trkpt><trkpt lat="43.1477677" lon="12.2770038"><ele>245.00000000000003</ele><time>2026-03-29T11:33:22.41Z</time></trkpt><trkpt lat="43.147794" lon="12.2771038"><ele>245.0</ele><time>2026-03-29T11:33:24.41Z</time></trkpt><trkpt lat="43.147832" lon="12.2771854"><ele>245.0</ele><time>2026-03-29T11:33:27.409Z</time></trkpt><trkpt lat="43.1479106" lon="12.2771359"><ele>245.0</ele><time>2026-03-29T11:33:29.409Z</time></trkpt><trkpt lat="43.1479733" lon="12.2770767"><ele>245.00000000000003</ele><time>2026-03-29T11:33:31.409Z</time></trkpt><trkpt lat="43.1480391" lon="12.2769958"><ele>245.0</ele><time>2026-03-29T11:33:34.41Z</time></trkpt><trkpt lat="43.1481044" lon="12.2769385"><ele>245.00000000000003</ele><time>2026-03-29T11:33:36.409Z</time></trkpt><trkpt lat="43.1481932" lon="12.2769439"><ele>245.0</ele><time>2026-03-29T11:33:38.409Z</time></trkpt><trkpt lat="43.1482524" lon="12.2769803"><ele>245.0</ele><time>2026-03-29T11:33:39.409Z</time></trkpt><trkpt lat="43.14831" lon="12.2770341"><ele>245.0</ele><time>2026-03-29T11:33:40.41Z</time></trkpt><trkpt lat="43.1483848" lon="12.2771079"><ele>245.00000000000003</ele><time>2026-03-29T11:33:41.409Z</time></trkpt><trkpt lat="43.1484715" lon="12.2771806"><ele>245.0</ele><time>2026-03-29T11:33:42.408Z</time></trkpt><trkpt lat="43.1485602" lon="12.2772359"><ele>244.6</ele><time>2026-03-29T11:33:43.409Z</time></trkpt><trkpt lat="43.1486481" lon="12.2772556"><ele>244.2</ele><time>2026-03-29T11:33:44.41Z</time></trkpt><trkpt lat="43.1487322" lon="12.2772518"><ele>243.8</ele><time>2026-03-29T11:33:45.409Z</time></trkpt><trkpt lat="43.1488231" lon="12.277198"><ele>243.4</ele><time>2026-03-29T11:33:46.41Z</time></trkpt><trkpt lat="43.1489575" lon="12.2771334"><ele>243.0</ele><time>2026-03-29T11:33:47.408Z</time></trkpt><trkpt lat="43.1491064" lon="12.2770581"><ele>244.66666666666669</ele><time>2026-03-29T11:33:48.408Z</time></trkpt><trkpt lat="43.1492653" lon="12.2769817"><ele>246.33333333333334</ele><time>2026-03-29T11:33:49.409Z</time></trkpt><trkpt lat="43.1494112" lon="12.276909"><ele>248.0</ele><time>2026-03-29T11:33:50.407Z</time></trkpt><trkpt lat="43.1495495" lon="12.2768479"><ele>248.0</ele><time>2026-03-29T11:33:51.409Z</time></trkpt><trkpt lat="43.14967" lon="12.2767909"><ele>248.0</ele><time>2026-03-29T11:33:52.409Z</time></trkpt><trkpt lat="43.1497849" lon="12.2767357"><ele>248.0</ele><time>2026-03-29T11:33:53.408Z</time></trkpt><trkpt lat="43.1499005" lon="12.2766811"><ele>248.0</ele><time>2026-03-29T11:33:54.409Z</time></trkpt><trkpt lat="43.1500152" lon="12.2766179"><ele>248.0</ele><time>2026-03-29T11:33:55.409Z</time></trkpt><trkpt lat="43.1501237" lon="12.276551"><ele>248.0</ele><time>2026-03-29T11:33:56.408Z</time></trkpt><trkpt lat="43.1502397" lon="12.2764991"><ele>248.0</ele><time>2026-03-29T11:33:57.409Z</time></trkpt><trkpt lat="43.150351" lon="12.2764361"><ele>248.0</ele><time>2026-03-29T11:33:58.409Z</time></trkpt><trkpt lat="43.1504476" lon="12.2763803"><ele>247.8</ele><time>2026-03-29T11:33:59.409Z</time></trkpt><trkpt lat="43.1505412" lon="12.2763362"><ele>247.60000000000002</ele><time>2026-03-29T11:34:00.41Z</time></trkpt><trkpt lat="43.1506268" lon="12.2763142"><ele>247.39999999999998</ele><time>2026-03-29T11:34:01.409Z</time></trkpt><trkpt lat="43.1507176" lon="12.2763287"><ele>247.2</ele><time>2026-03-29T11:34:02.408Z</time></trkpt><trkpt lat="43.1508043" lon="12.2763719"><ele>247.0</ele><time>2026-03-29T11:34:03.408Z</time></trkpt><trkpt lat="43.1509011" lon="12.2764143"><ele>247.66666666666666</ele><time>2026-03-29T11:34:04.41Z</time></trkpt><trkpt lat="43.1509958" lon="12.2764624"><ele>248.33333333333331</ele><time>2026-03-29T11:34:05.409Z</time></trkpt><trkpt lat="43.1510599" lon="12.2764932"><ele>249.0</ele><time>2026-03-29T11:34:06.409Z</time></trkpt><trkpt lat="43.151132" lon="12.2764931"><ele>249.66666666666669</ele><time>2026-03-29T11:34:08.41Z</time></trkpt><trkpt lat="43.1512119" lon="12.2764261"><ele>250.33333333333334</ele><time>2026-03-29T11:34:10.41Z</time></trkpt><trkpt lat="43.1512653" lon="12.2763793"><ele>251.0</ele><time>2026-03-29T11:34:11.409Z</time></trkpt><trkpt lat="43.1513514" lon="12.2763191"><ele>251.20000000000002</ele><time>2026-03-29T11:34:12.41Z</time></trkpt><trkpt lat="43.1514353" lon="12.276281"><ele>251.40000000000003</ele><time>2026-03-29T11:34:13.409Z</time></trkpt><trkpt lat="43.1515201" lon="12.2762392"><ele>251.6</ele><time>2026-03-29T11:34:14.409Z</time></trkpt><trkpt lat="43.1516351" lon="12.2761974"><ele>251.8</ele><time>2026-03-29T11:34:15.41Z</time></trkpt><trkpt lat="43.1517466" lon="12.2761511"><ele>252.0</ele><time>2026-03-29T11:34:16.409Z</time></trkpt><trkpt lat="43.1518729" lon="12.2760874"><ele>254.6</ele><time>2026-03-29T11:34:17.41Z</time></trkpt><trkpt lat="43.1519849" lon="12.2760285"><ele>257.2</ele><time>2026-03-29T11:34:18.41Z</time></trkpt><trkpt lat="43.1520919" lon="12.2759533"><ele>259.8</ele><time>2026-03-29T11:34:19.41Z</time></trkpt><trkpt lat="43.1521737" lon="12.275878"><ele>262.4</ele><time>2026-03-29T11:34:20.408Z</time></trkpt><trkpt lat="43.1522468" lon="12.2757868"><ele>265.0</ele><time>2026-03-29T11:34:21.409Z</time></trkpt><trkpt lat="43.152294" lon="12.2756604"><ele>265.6</ele><time>2026-03-29T11:34:22.409Z</time></trkpt><trkpt lat="43.1523264" lon="12.2755446"><ele>266.2</ele><time>2026-03-29T11:34:23.409Z</time></trkpt><trkpt lat="43.1523683" lon="12.2754186"><ele>266.8</ele><time>2026-03-29T11:34:24.41Z</time></trkpt><trkpt lat="43.1524073" lon="12.2753077"><ele>267.4</ele><time>2026-03-29T11:34:25.409Z</time></trkpt><trkpt lat="43.1524485" lon="12.2752179"><ele>268.0</ele><time>2026-03-29T11:34:26.409Z</time></trkpt><trkpt lat="43.1525618" lon="12.2751391"><ele>270.5</ele><time>2026-03-29T11:34:28.408Z</time></trkpt><trkpt lat="43.152628" lon="12.2751158"><ele>273.0</ele><time>2026-03-29T11:34:29.407Z</time></trkpt><trkpt lat="43.1527" lon="12.2751006"><ele>275.5</ele><time>2026-03-29T11:34:30.407Z</time></trkpt><trkpt lat="43.1527721" lon="12.2750795"><ele>278.0</ele><time>2026-03-29T11:34:31.409Z</time></trkpt><trkpt lat="43.1528488" lon="12.2750728"><ele>280.5</ele><time>2026-03-29T11:34:32.409Z</time></trkpt><trkpt lat="43.1529464" lon="12.2750588"><ele>283.0</ele><time>2026-03-29T11:34:33.409Z</time></trkpt><trkpt lat="43.1530276" lon="12.2750293"><ele>283.0</ele><time>2026-03-29T11:34:34.409Z</time></trkpt><trkpt lat="43.1531087" lon="12.2750158"><ele>283.0</ele><time>2026-03-29T11:34:35.409Z</time></trkpt><trkpt lat="43.1531813" lon="12.2750225"><ele>283.0</ele><time>2026-03-29T11:34:36.409Z</time></trkpt><trkpt lat="43.1532691" lon="12.2750383"><ele>283.0</ele><time>2026-03-29T11:34:37.408Z</time></trkpt><trkpt lat="43.1533344" lon="12.2750284"><ele>283.0</ele><time>2026-03-29T11:34:38.408Z</time></trkpt><trkpt lat="43.1534019" lon="12.2749421"><ele>283.0</ele><time>2026-03-29T11:34:40.41Z</time></trkpt><trkpt lat="43.1534776" lon="12.2748786"><ele>285.66666666666663</ele><time>2026-03-29T11:34:42.409Z</time></trkpt><trkpt lat="43.1535466" lon="12.2748725"><ele>288.3333333333333</ele><time>2026-03-29T11:34:43.409Z</time></trkpt><trkpt lat="43.1536153" lon="12.2748348"><ele>291.0</ele><time>2026-03-29T11:34:44.409Z</time></trkpt><trkpt lat="43.1536784" lon="12.2747884"><ele>293.6666666666667</ele><time>2026-03-29T11:34:45.409Z</time></trkpt><trkpt lat="43.153803" lon="12.2747536"><ele>296.33333333333337</ele><time>2026-03-29T11:34:47.41Z</time></trkpt><trkpt lat="43.1538806" lon="12.2747643"><ele>299.0</ele><time>2026-03-29T11:34:48.409Z</time></trkpt><trkpt lat="43.1539776" lon="12.2747925"><ele>301.6666666666667</ele><time>2026-03-29T11:34:49.408Z</time></trkpt><trkpt lat="43.1540606" lon="12.2747829"><ele>304.33333333333337</ele><time>2026-03-29T11:34:50.41Z</time></trkpt><trkpt lat="43.1541287" lon="12.2747835"><ele>307.0</ele><time>2026-03-29T11:34:51.41Z</time></trkpt><trkpt lat="43.1542106" lon="12.2748449"><ele>309.6666666666667</ele><time>2026-03-29T11:34:53.409Z</time></trkpt><trkpt lat="43.1542971" lon="12.2749579"><ele>312.3333333333333</ele><time>2026-03-29T11:34:55.41Z</time></trkpt><trkpt lat="43.1543615" lon="12.2750046"><ele>315.0</ele><time>2026-03-29T11:34:56.409Z</time></trkpt><trkpt lat="43.1544365" lon="12.2750598"><ele>315.0</ele><time>2026-03-29T11:34:57.409Z</time></trkpt><trkpt lat="43.1545219" lon="12.2751125"><ele>315.0</ele><time>2026-03-29T11:34:58.409Z</time></trkpt><trkpt lat="43.154614" lon="12.2751579"><ele>315.0</ele><time>2026-03-29T11:34:59.408Z</time></trkpt><trkpt lat="43.1547308" lon="12.2751888"><ele>315.0</ele><time>2026-03-29T11:35:00.409Z</time></trkpt><trkpt lat="43.1548511" lon="12.2752227"><ele>315.0</ele><time>2026-03-29T11:35:01.41Z</time></trkpt><trkpt lat="43.1549793" lon="12.2752596"><ele>317.0</ele><time>2026-03-29T11:35:02.408Z</time></trkpt><trkpt lat="43.1550953" lon="12.2752913"><ele>319.0</ele><time>2026-03-29T11:35:03.408Z</time></trkpt><trkpt lat="43.1552211" lon="12.2753201"><ele>321.0</ele><time>2026-03-29T11:35:04.409Z</time></trkpt><trkpt lat="43.1553413" lon="12.2753558"><ele>323.0</ele><time>2026-03-29T11:35:05.41Z</time></trkpt><trkpt lat="43.1554678" lon="12.2753895"><ele>323.0</ele><time>2026-03-29T11:35:06.409Z</time></trkpt><trkpt lat="43.1555898" lon="12.2754281"><ele>323.0</ele><time>2026-03-29T11:35:07.41Z</time></trkpt><trkpt lat="43.1557023" lon="12.2754579"><ele>323.0</ele><time>2026-03-29T11:35:08.408Z</time></trkpt><trkpt lat="43.1558171" lon="12.2755029"><ele>323.0</ele><time>2026-03-29T11:35:09.408Z</time></trkpt><trkpt lat="43.1559292" lon="12.2755371"><ele>323.4</ele><time>2026-03-29T11:35:10.409Z</time></trkpt><trkpt lat="43.1560333" lon="12.2755818"><ele>323.79999999999995</ele><time>2026-03-29T11:35:11.41Z</time></trkpt><trkpt lat="43.156137" lon="12.2756311"><ele>324.2</ele><time>2026-03-29T11:35:12.409Z</time></trkpt><trkpt lat="43.1562283" lon="12.2756969"><ele>324.6</ele><time>2026-03-29T11:35:13.408Z</time></trkpt><trkpt lat="43.1563211" lon="12.2757537"><ele>325.0</ele><time>2026-03-29T11:35:14.409Z</time></trkpt><trkpt lat="43.1564151" lon="12.2758169"><ele>325.0</ele><time>2026-03-29T11:35:15.409Z</time></trkpt><trkpt lat="43.1565074" lon="12.2758789"><ele>325.0</ele><time>2026-03-29T11:35:16.409Z</time></trkpt><trkpt lat="43.1565966" lon="12.2759242"><ele>325.0</ele><time>2026-03-29T11:35:17.409Z</time></trkpt><trkpt lat="43.1566796" lon="12.2759578"><ele>325.0</ele><time>2026-03-29T11:35:18.41Z</time></trkpt><trkpt lat="43.1567672" lon="12.2759708"><ele>325.0</ele><time>2026-03-29T11:35:19.408Z</time></trkpt><trkpt lat="43.1568489" lon="12.2759691"><ele>325.0</ele><time>2026-03-29T11:35:20.409Z</time></trkpt><trkpt lat="43.1569229" lon="12.2759706"><ele>325.0</ele><time>2026-03-29T11:35:21.409Z</time></trkpt><trkpt lat="43.1570209" lon="12.2760196"><ele>325.0</ele><time>2026-03-29T11:35:23.409Z</time></trkpt><trkpt lat="43.1570607" lon="12.2760909"><ele>325.0</ele><time>2026-03-29T11:35:24.409Z</time></trkpt><trkpt lat="43.1571042" lon="12.2761679"><ele>325.0</ele><time>2026-03-29T11:35:25.409Z</time></trkpt><trkpt lat="43.1571283" lon="12.2762659"><ele>325.0</ele><time>2026-03-29T11:35:26.41Z</time></trkpt><trkpt lat="43.1571759" lon="12.276411"><ele>325.0</ele><time>2026-03-29T11:35:28.408Z</time></trkpt><trkpt lat="43.1572495" lon="12.2764462"><ele>325.0</ele><time>2026-03-29T11:35:31.409Z</time></trkpt><trkpt lat="43.1572812" lon="12.2763663"><ele>325.0</ele><time>2026-03-29T11:35:33.41Z</time></trkpt><trkpt lat="43.1572791" lon="12.2762632"><ele>325.0</ele><time>2026-03-29T11:35:34.409Z</time></trkpt><trkpt lat="43.1572727" lon="12.276101"><ele>325.0</ele><time>2026-03-29T11:35:35.41Z</time></trkpt><trkpt lat="43.1572751" lon="12.2759604"><ele>325.0</ele><time>2026-03-29T11:35:36.409Z</time></trkpt><trkpt lat="43.1572594" lon="12.2757401"><ele>324.66666666666663</ele><time>2026-03-29T11:35:37.409Z</time></trkpt><trkpt lat="43.157257" lon="12.275493"><ele>324.3333333333333</ele><time>2026-03-29T11:35:38.409Z</time></trkpt><trkpt lat="43.1572636" lon="12.2752781"><ele>324.0</ele><time>2026-03-29T11:35:39.409Z</time></trkpt><trkpt lat="43.1572727" lon="12.2750725"><ele>324.0</ele><time>2026-03-29T11:35:40.41Z</time></trkpt><trkpt lat="43.1572878" lon="12.2748744"><ele>324.0</ele><time>2026-03-29T11:35:41.409Z</time></trkpt><trkpt lat="43.1573068" lon="12.2746857"><ele>324.0</ele><time>2026-03-29T11:35:42.408Z</time></trkpt><trkpt lat="43.1573283" lon="12.2744984"><ele>324.0</ele><time>2026-03-29T11:35:43.409Z</time></trkpt><trkpt lat="43.1573443" lon="12.2743149"><ele>321.8333333333333</ele><time>2026-03-29T11:35:44.41Z</time></trkpt><trkpt lat="43.157357" lon="12.2741602"><ele>319.6666666666667</ele><time>2026-03-29T11:35:45.409Z</time></trkpt><trkpt lat="43.1573771" lon="12.2740413"><ele>317.5</ele><time>2026-03-29T11:35:46.409Z</time></trkpt><trkpt lat="43.1573993" lon="12.2739589"><ele>315.33333333333337</ele><time>2026-03-29T11:35:47.408Z</time></trkpt><trkpt lat="43.1574895" lon="12.2739517"><ele>313.1666666666667</ele><time>2026-03-29T11:35:50.409Z</time></trkpt><trkpt lat="43.1575502" lon="12.274022"><ele>311.0</ele><time>2026-03-29T11:35:51.408Z</time></trkpt><trkpt lat="43.1576304" lon="12.2741159"><ele>310.5</ele><time>2026-03-29T11:35:52.41Z</time></trkpt><trkpt lat="43.157733" lon="12.2742363"><ele>310.0</ele><time>2026-03-29T11:35:53.409Z</time></trkpt><trkpt lat="43.1578423" lon="12.2743585"><ele>309.5</ele><time>2026-03-29T11:35:54.409Z</time></trkpt><trkpt lat="43.1579491" lon="12.2744878"><ele>309.0</ele><time>2026-03-29T11:35:55.409Z</time></trkpt><trkpt lat="43.1580515" lon="12.2746126"><ele>309.0</ele><time>2026-03-29T11:35:56.409Z</time></trkpt><trkpt lat="43.1581323" lon="12.274715"><ele>309.0</ele><time>2026-03-29T11:35:57.409Z</time></trkpt><trkpt lat="43.1582032" lon="12.2748333"><ele>309.0</ele><time>2026-03-29T11:35:58.409Z</time></trkpt><trkpt lat="43.1582609" lon="12.2749804"><ele>309.0</ele><time>2026-03-29T11:35:59.409Z</time></trkpt><trkpt lat="43.1583247" lon="12.275144"><ele>305.5</ele><time>2026-03-29T11:36:00.408Z</time></trkpt><trkpt lat="43.1584058" lon="12.2752979"><ele>302.0</ele><time>2026-03-29T11:36:01.409Z</time></trkpt><trkpt lat="43.1584818" lon="12.2754409"><ele>298.5</ele><time>2026-03-29T11:36:02.409Z</time></trkpt><trkpt lat="43.1585676" lon="12.2755832"><ele>295.0</ele><time>2026-03-29T11:36:03.411Z</time></trkpt><trkpt lat="43.1586488" lon="12.2757273"><ele>293.0</ele><time>2026-03-29T11:36:04.409Z</time></trkpt><trkpt lat="43.1587276" lon="12.2758671"><ele>291.0</ele><time>2026-03-29T11:36:05.41Z</time></trkpt><trkpt lat="43.15881" lon="12.2760018"><ele>289.0</ele><time>2026-03-29T11:36:06.41Z</time></trkpt><trkpt lat="43.1588937" lon="12.2761213"><ele>287.0</ele><time>2026-03-29T11:36:07.409Z</time></trkpt><trkpt lat="43.1589616" lon="12.2762296"><ele>287.0</ele><time>2026-03-29T11:36:08.408Z</time></trkpt><trkpt lat="43.1590156" lon="12.2763377"><ele>287.0</ele><time>2026-03-29T11:36:09.409Z</time></trkpt><trkpt lat="43.1590786" lon="12.276478"><ele>287.0</ele><time>2026-03-29T11:36:10.409Z</time></trkpt><trkpt lat="43.1591175" lon="12.276594"><ele>287.0</ele><time>2026-03-29T11:36:11.408Z</time></trkpt><trkpt lat="43.1591823" lon="12.2766864"><ele>287.0</ele><time>2026-03-29T11:36:12.41Z</time></trkpt><trkpt lat="43.1592528" lon="12.2767645"><ele>286.1666666666667</ele><time>2026-03-29T11:36:13.408Z</time></trkpt><trkpt lat="43.1593209" lon="12.2768433"><ele>285.33333333333337</ele><time>2026-03-29T11:36:14.408Z</time></trkpt><trkpt lat="43.1593756" lon="12.2769059"><ele>284.5</ele><time>2026-03-29T11:36:15.409Z</time></trkpt><trkpt lat="43.1594532" lon="12.2769448"><ele>283.6666666666667</ele><time>2026-03-29T11:36:16.408Z</time></trkpt><trkpt lat="43.1595322" lon="12.2769667"><ele>282.8333333333333</ele><time>2026-03-29T11:36:17.409Z</time></trkpt><trkpt lat="43.1596141" lon="12.2769994"><ele>282.0</ele><time>2026-03-29T11:36:18.409Z</time></trkpt><trkpt lat="43.1596977" lon="12.2770126"><ele>282.0</ele><time>2026-03-29T11:36:19.409Z</time></trkpt><trkpt lat="43.1597769" lon="12.2770189"><ele>282.0</ele><time>2026-03-29T11:36:20.41Z</time></trkpt><trkpt lat="43.1598594" lon="12.2770001"><ele>282.0</ele><time>2026-03-29T11:36:21.409Z</time></trkpt><trkpt lat="43.1599452" lon="12.2769706"><ele>282.0</ele><time>2026-03-29T11:36:22.409Z</time></trkpt><trkpt lat="43.1600567" lon="12.2769303"><ele>282.0</ele><time>2026-03-29T11:36:23.409Z</time></trkpt><trkpt lat="43.1601709" lon="12.2768938"><ele>279.75</ele><time>2026-03-29T11:36:24.409Z</time></trkpt><trkpt lat="43.1602978" lon="12.2768271"><ele>277.5</ele><time>2026-03-29T11:36:25.409Z</time></trkpt><trkpt lat="43.1604112" lon="12.2767307"><ele>275.25</ele><time>2026-03-29T11:36:26.408Z</time></trkpt><trkpt lat="43.1605415" lon="12.2766531"><ele>273.0</ele><time>2026-03-29T11:36:27.408Z</time></trkpt><trkpt lat="43.1606668" lon="12.2765781"><ele>273.0</ele><time>2026-03-29T11:36:28.41Z</time></trkpt><trkpt lat="43.1607824" lon="12.2765082"><ele>273.0</ele><time>2026-03-29T11:36:29.409Z</time></trkpt><trkpt lat="43.160902" lon="12.2764288"><ele>273.0</ele><time>2026-03-29T11:36:30.41Z</time></trkpt><trkpt lat="43.1609727" lon="12.2763728"><ele>273.0</ele><time>2026-03-29T11:36:31.409Z</time></trkpt><trkpt lat="43.1610505" lon="12.2762888"><ele>273.0</ele><time>2026-03-29T11:36:32.41Z</time></trkpt><trkpt lat="43.1611364" lon="12.2761878"><ele>273.0</ele><time>2026-03-29T11:36:33.41Z</time></trkpt><trkpt lat="43.1612014" lon="12.2761113"><ele>273.0</ele><time>2026-03-29T11:36:34.409Z</time></trkpt><trkpt lat="43.1612663" lon="12.2760784"><ele>273.0</ele><time>2026-03-29T11:36:35.41Z</time></trkpt><trkpt lat="43.1613471" lon="12.2760652"><ele>273.0</ele><time>2026-03-29T11:36:36.41Z</time></trkpt><trkpt lat="43.1614631" lon="12.2760753"><ele>273.0</ele><time>2026-03-29T11:36:37.408Z</time></trkpt><trkpt lat="43.1615906" lon="12.2761068"><ele>269.75</ele><time>2026-03-29T11:36:38.41Z</time></trkpt><trkpt lat="43.1617255" lon="12.2761409"><ele>266.5</ele><time>2026-03-29T11:36:39.41Z</time></trkpt><trkpt lat="43.1618685" lon="12.2761759"><ele>263.25</ele><time>2026-03-29T11:36:40.409Z</time></trkpt><trkpt lat="43.1620132" lon="12.2761976"><ele>260.0</ele><time>2026-03-29T11:36:41.409Z</time></trkpt><trkpt lat="43.1621526" lon="12.2762024"><ele>260.0</ele><time>2026-03-29T11:36:42.409Z</time></trkpt><trkpt lat="43.1622908" lon="12.2761846"><ele>260.0</ele><time>2026-03-29T11:36:43.409Z</time></trkpt><trkpt lat="43.1624282" lon="12.2761411"><ele>260.0</ele><time>2026-03-29T11:36:44.409Z</time></trkpt><trkpt lat="43.1625592" lon="12.2760768"><ele>260.0</ele><time>2026-03-29T11:36:45.411Z</time></trkpt><trkpt lat="43.1626882" lon="12.2760182"><ele>260.0</ele><time>2026-03-29T11:36:46.409Z</time></trkpt><trkpt lat="43.1628177" lon="12.2759799"><ele>260.0</ele><time>2026-03-29T11:36:47.408Z</time></trkpt><trkpt lat="43.1629573" lon="12.2759681"><ele>260.0</ele><time>2026-03-29T11:36:48.41Z</time></trkpt><trkpt lat="43.1630894" lon="12.2759977"><ele>260.0</ele><time>2026-03-29T11:36:49.411Z</time></trkpt><trkpt lat="43.1632265" lon="12.2760532"><ele>259.6666666666667</ele><time>2026-03-29T11:36:50.409Z</time></trkpt><trkpt lat="43.1633726" lon="12.2761449"><ele>259.3333333333333</ele><time>2026-03-29T11:36:51.41Z</time></trkpt><trkpt lat="43.163511" lon="12.2762442"><ele>259.0</ele><time>2026-03-29T11:36:52.409Z</time></trkpt><trkpt lat="43.1636357" lon="12.2763422"><ele>259.0</ele><time>2026-03-29T11:36:53.41Z</time></trkpt><trkpt lat="43.163735" lon="12.2764216"><ele>259.0</ele><time>2026-03-29T11:36:54.409Z</time></trkpt><trkpt lat="43.1638206" lon="12.2764923"><ele>259.0</ele><time>2026-03-29T11:36:55.41Z</time></trkpt><trkpt lat="43.1638845" lon="12.2765479"><ele>259.0</ele><time>2026-03-29T11:36:56.409Z</time></trkpt><trkpt lat="43.1639417" lon="12.2765977"><ele>259.0</ele><time>2026-03-29T11:36:57.409Z</time></trkpt><trkpt lat="43.1639742" lon="12.2766856"><ele>259.0</ele><time>2026-03-29T11:36:58.41Z</time></trkpt><trkpt lat="43.1639976" lon="12.2767888"><ele>258.59999999999997</ele><time>2026-03-29T11:36:59.409Z</time></trkpt><trkpt lat="43.1640147" lon="12.2768981"><ele>258.2</ele><time>2026-03-29T11:37:00.41Z</time></trkpt><trkpt lat="43.1640019" lon="12.2770524"><ele>257.79999999999995</ele><time>2026-03-29T11:37:01.409Z</time></trkpt><trkpt lat="43.163996" lon="12.2772105"><ele>257.4</ele><time>2026-03-29T11:37:02.409Z</time></trkpt><trkpt lat="43.1639845" lon="12.2773933"><ele>257.0</ele><time>2026-03-29T11:37:03.41Z</time></trkpt><trkpt lat="43.1639709" lon="12.2775834"><ele>257.0</ele><time>2026-03-29T11:37:04.409Z</time></trkpt><trkpt lat="43.1639615" lon="12.2777864"><ele>257.0</ele><time>2026-03-29T11:37:05.409Z</time></trkpt><trkpt lat="43.1639747" lon="12.2779783"><ele>257.0</ele><time>2026-03-29T11:37:06.409Z</time></trkpt><trkpt lat="43.1639882" lon="12.2781789"><ele>257.0</ele><time>2026-03-29T11:37:07.41Z</time></trkpt><trkpt lat="43.1640377" lon="12.2783795"><ele>256.5</ele><time>2026-03-29T11:37:08.409Z</time></trkpt><trkpt lat="43.1640791" lon="12.2785663"><ele>256.0</ele><time>2026-03-29T11:37:09.411Z</time></trkpt><trkpt lat="43.1641058" lon="12.2787396"><ele>255.5</ele><time>2026-03-29T11:37:10.41Z</time></trkpt><trkpt lat="43.1641296" lon="12.2788791"><ele>255.0</ele><time>2026-03-29T11:37:11.409Z</time></trkpt><trkpt lat="43.164143" lon="12.2789987"><ele>254.83333333333334</ele><time>2026-03-29T11:37:12.409Z</time></trkpt><trkpt lat="43.1641281" lon="12.2791285"><ele>254.66666666666669</ele><time>2026-03-29T11:37:14.41Z</time></trkpt><trkpt lat="43.1640597" lon="12.2792072"><ele>254.5</ele><time>2026-03-29T11:37:17.409Z</time></trkpt><trkpt lat="43.1639945" lon="12.2792559"><ele>254.33333333333334</ele><time>2026-03-29T11:37:19.41Z</time></trkpt><trkpt lat="43.1639196" lon="12.279273"><ele>254.16666666666669</ele><time>2026-03-29T11:37:22.411Z</time></trkpt><trkpt lat="43.1638421" lon="12.2792706"><ele>254.0</ele><time>2026-03-29T11:37:25.409Z</time></trkpt><trkpt lat="43.1637759" lon="12.2793505"><ele>253.6</ele><time>2026-03-29T11:37:28.408Z</time></trkpt><trkpt lat="43.1636569" lon="12.2793562"><ele>253.2</ele><time>2026-03-29T11:37:30.409Z</time></trkpt><trkpt lat="43.1635771" lon="12.279429"><ele>252.79999999999998</ele><time>2026-03-29T11:37:31.409Z</time></trkpt><trkpt lat="43.1634929" lon="12.2795189"><ele>252.39999999999998</ele><time>2026-03-29T11:37:32.41Z</time></trkpt><trkpt lat="43.1634032" lon="12.2796435"><ele>252.0</ele><time>2026-03-29T11:37:33.41Z</time></trkpt><trkpt lat="43.1633177" lon="12.2797796"><ele>252.0</ele><time>2026-03-29T11:37:34.409Z</time></trkpt><trkpt lat="43.1632331" lon="12.2799169"><ele>252.0</ele><time>2026-03-29T11:37:35.409Z</time></trkpt><trkpt lat="43.1631394" lon="12.2800918"><ele>252.0</ele><time>2026-03-29T11:37:36.41Z</time></trkpt><trkpt lat="43.1630497" lon="12.2802601"><ele>252.0</ele><time>2026-03-29T11:37:37.408Z</time></trkpt><trkpt lat="43.1629641" lon="12.2804175"><ele>251.75</ele><time>2026-03-29T11:37:38.41Z</time></trkpt><trkpt lat="43.1628905" lon="12.2805641"><ele>251.5</ele><time>2026-03-29T11:37:39.408Z</time></trkpt><trkpt lat="43.1628179" lon="12.280709"><ele>251.25</ele><time>2026-03-29T11:37:40.411Z</time></trkpt><trkpt lat="43.1627432" lon="12.2808413"><ele>251.0</ele><time>2026-03-29T11:37:41.409Z</time></trkpt><trkpt lat="43.162672" lon="12.280977"><ele>250.75</ele><time>2026-03-29T11:37:42.41Z</time></trkpt><trkpt lat="43.162603" lon="12.2811141"><ele>250.5</ele><time>2026-03-29T11:37:43.411Z</time></trkpt><trkpt lat="43.162535" lon="12.2812443"><ele>250.25</ele><time>2026-03-29T11:37:44.409Z</time></trkpt><trkpt lat="43.162463" lon="12.2813745"><ele>250.0</ele><time>2026-03-29T11:37:45.411Z</time></trkpt><trkpt lat="43.1623934" lon="12.2815035"><ele>250.0</ele><time>2026-03-29T11:37:46.41Z</time></trkpt><trkpt lat="43.1623294" lon="12.2816177"><ele>250.0</ele><time>2026-03-29T11:37:47.41Z</time></trkpt><trkpt lat="43.1622626" lon="12.2817581"><ele>250.0</ele><time>2026-03-29T11:37:48.408Z</time></trkpt><trkpt lat="43.1621981" lon="12.2818911"><ele>250.0</ele><time>2026-03-29T11:37:49.408Z</time></trkpt><trkpt lat="43.1621361" lon="12.2820274"><ele>250.0</ele><time>2026-03-29T11:37:50.409Z</time></trkpt><trkpt lat="43.1620669" lon="12.2821583"><ele>250.0</ele><time>2026-03-29T11:37:51.411Z</time></trkpt><trkpt lat="43.1620004" lon="12.2822937"><ele>250.0</ele><time>2026-03-29T11:37:52.409Z</time></trkpt><trkpt lat="43.1619317" lon="12.2824304"><ele>250.0</ele><time>2026-03-29T11:37:53.409Z</time></trkpt><trkpt lat="43.1618638" lon="12.2825724"><ele>250.25</ele><time>2026-03-29T11:37:54.411Z</time></trkpt><trkpt lat="43.1617923" lon="12.2827074"><ele>250.5</ele><time>2026-03-29T11:37:55.409Z</time></trkpt><trkpt lat="43.1617315" lon="12.2828399"><ele>250.75</ele><time>2026-03-29T11:37:56.411Z</time></trkpt><trkpt lat="43.1616714" lon="12.2829643"><ele>251.0</ele><time>2026-03-29T11:37:57.41Z</time></trkpt><trkpt lat="43.1616112" lon="12.2830838"><ele>251.0</ele><time>2026-03-29T11:37:58.41Z</time></trkpt><trkpt lat="43.161551" lon="12.2832051"><ele>251.00000000000003</ele><time>2026-03-29T11:37:59.408Z</time></trkpt><trkpt lat="43.1614862" lon="12.2833233"><ele>251.00000000000003</ele><time>2026-03-29T11:38:00.409Z</time></trkpt><trkpt lat="43.1614249" lon="12.2834459"><ele>251.0</ele><time>2026-03-29T11:38:01.41Z</time></trkpt><trkpt lat="43.1613671" lon="12.2835666"><ele>251.0</ele><time>2026-03-29T11:38:02.409Z</time></trkpt><trkpt lat="43.1613109" lon="12.2836828"><ele>250.8</ele><time>2026-03-29T11:38:03.41Z</time></trkpt><trkpt lat="43.1612519" lon="12.2838007"><ele>250.60000000000002</ele><time>2026-03-29T11:38:04.41Z</time></trkpt><trkpt lat="43.1611975" lon="12.2838916"><ele>250.4</ele><time>2026-03-29T11:38:05.41Z</time></trkpt><trkpt lat="43.1611402" lon="12.2839604"><ele>250.2</ele><time>2026-03-29T11:38:06.41Z</time></trkpt><trkpt lat="43.1610785" lon="12.2840089"><ele>250.0</ele><time>2026-03-29T11:38:07.41Z</time></trkpt><trkpt lat="43.1609654" lon="12.284071"><ele>250.33333333333331</ele><time>2026-03-29T11:38:09.409Z</time></trkpt><trkpt lat="43.1608918" lon="12.2841752"><ele>250.66666666666666</ele><time>2026-03-29T11:38:11.409Z</time></trkpt><trkpt lat="43.1608349" lon="12.2842943"><ele>251.0</ele><time>2026-03-29T11:38:13.41Z</time></trkpt><trkpt lat="43.1608632" lon="12.2843728"><ele>251.33333333333331</ele><time>2026-03-29T11:38:28.41Z</time></trkpt><trkpt lat="43.1609406" lon="12.2843921"><ele>251.66666666666666</ele><time>2026-03-29T11:38:33.411Z</time></trkpt><trkpt lat="43.1608937" lon="12.2843157"><ele>252.0</ele><time>2026-03-29T11:38:59.408Z</time></trkpt><trkpt lat="43.1608593" lon="12.2843912"><ele>252.0</ele><time>2026-03-29T11:40:48.41Z</time></trkpt><trkpt lat="43.1608902" lon="12.2842982"><ele>252.0</ele><time>2026-03-29T11:44:42.41Z</time></trkpt><trkpt lat="43.1609088" lon="12.284201"><ele>252.0</ele><time>2026-03-29T11:44:46.411Z</time></trkpt><trkpt lat="43.1608513" lon="12.2842478"><ele>252.0</ele><time>2026-03-29T11:44:50.411Z</time></trkpt><trkpt lat="43.160849" lon="12.2843439"><ele>252.0</ele><time>2026-03-29T11:44:54.41Z</time></trkpt><trkpt lat="43.1608663" lon="12.2842575"><ele>252.0</ele><time>2026-03-29T11:54:33.411Z</time></trkpt><trkpt lat="43.1609046" lon="12.2841811"><ele>252.0</ele><time>2026-03-29T12:06:51.412Z</time></trkpt><trkpt lat="43.1609421" lon="12.284111"><ele>252.0</ele><time>2026-03-29T12:06:56.411Z</time></trkpt><trkpt lat="43.1609746" lon="12.284033"><ele>252.0</ele><time>2026-03-29T12:07:04.412Z</time></trkpt><trkpt lat="43.1610115" lon="12.2839531"><ele>252.0</ele><time>2026-03-29T12:07:11.411Z</time></trkpt><trkpt lat="43.161043" lon="12.2838716"><ele>252.0</ele><time>2026-03-29T12:07:18.411Z</time></trkpt><trkpt lat="43.1610257" lon="12.2837823"><ele>252.0</ele><time>2026-03-29T12:07:27.412Z</time></trkpt><trkpt lat="43.1610031" lon="12.2836991"><ele>252.0</ele><time>2026-03-29T12:07:34.411Z</time></trkpt><trkpt lat="43.160978" lon="12.2836109"><ele>252.0</ele><time>2026-03-29T12:07:41.412Z</time></trkpt><trkpt lat="43.1609655" lon="12.2835202"><ele>251.71428571428572</ele><time>2026-03-29T12:07:50.413Z</time></trkpt><trkpt lat="43.1609563" lon="12.2834317"><ele>251.42857142857144</ele><time>2026-03-29T12:07:57.412Z</time></trkpt><trkpt lat="43.1609758" lon="12.2833447"><ele>251.14285714285714</ele><time>2026-03-29T12:08:04.373Z</time></trkpt><trkpt lat="43.1609732" lon="12.2832543"><ele>250.85714285714286</ele><time>2026-03-29T12:08:10.328Z</time></trkpt><trkpt lat="43.161014" lon="12.2831883"><ele>250.57142857142858</ele><time>2026-03-29T12:08:19.413Z</time></trkpt><trkpt lat="43.161076" lon="12.2831655"><ele>250.28571428571428</ele><time>2026-03-29T12:08:26.412Z</time></trkpt><trkpt lat="43.1611139" lon="12.2830959"><ele>250.0</ele><time>2026-03-29T12:08:33.412Z</time></trkpt><trkpt lat="43.1611673" lon="12.2830462"><ele>250.0</ele><time>2026-03-29T12:08:40.359Z</time></trkpt><trkpt lat="43.1612278" lon="12.2830111"><ele>250.0</ele><time>2026-03-29T12:08:49.413Z</time></trkpt><trkpt lat="43.1612477" lon="12.2829211"><ele>250.0</ele><time>2026-03-29T12:08:54.413Z</time></trkpt><trkpt lat="43.1612645" lon="12.2828308"><ele>250.0</ele><time>2026-03-29T12:09:04.413Z</time></trkpt><trkpt lat="43.1612142" lon="12.2827728"><ele>250.0</ele><time>2026-03-29T12:09:11.413Z</time></trkpt><trkpt lat="43.1611901" lon="12.2826863"><ele>250.0</ele><time>2026-03-29T12:09:19.413Z</time></trkpt><trkpt lat="43.1611359" lon="12.2826241"><ele>250.0</ele><time>2026-03-29T12:09:26.413Z</time></trkpt><trkpt lat="43.1610932" lon="12.2825517"><ele>250.0</ele><time>2026-03-29T12:09:34.413Z</time></trkpt><trkpt lat="43.1611528" lon="12.2825896"><ele>250.0</ele><time>2026-03-29T12:09:52.397Z</time></trkpt><trkpt lat="43.1611758" lon="12.2826806"><ele>250.0</ele><time>2026-03-29T12:09:59.353Z</time></trkpt><trkpt lat="43.1612217" lon="12.2827579"><ele>250.0</ele><time>2026-03-29T12:10:08.412Z</time></trkpt><trkpt lat="43.1612607" lon="12.2828261"><ele>250.0</ele><time>2026-03-29T12:10:15.361Z</time></trkpt><trkpt lat="43.1613211" lon="12.2827907"><ele>250.0</ele><time>2026-03-29T12:10:25.411Z</time></trkpt><trkpt lat="43.161386" lon="12.2827769"><ele>250.0</ele><time>2026-03-29T12:10:36.415Z</time></trkpt><trkpt lat="43.1614499" lon="12.2827948"><ele>250.0</ele><time>2026-03-29T12:10:42.411Z</time></trkpt><trkpt lat="43.1614978" lon="12.2827386"><ele>250.0</ele><time>2026-03-29T12:15:41.412Z</time></trkpt><trkpt lat="43.1615542" lon="12.2826911"><ele>250.0</ele><time>2026-03-29T12:16:41.413Z</time></trkpt><trkpt lat="43.1615423" lon="12.282594"><ele>250.0</ele><time>2026-03-29T12:16:52.356Z</time></trkpt><trkpt lat="43.1615064" lon="12.2825204"><ele>250.0</ele><time>2026-03-29T12:17:03.412Z</time></trkpt><trkpt lat="43.1614339" lon="12.282538"><ele>250.0</ele><time>2026-03-29T12:18:00.413Z</time></trkpt><trkpt lat="43.1614421" lon="12.2824353"><ele>250.0</ele><time>2026-03-29T12:20:47.413Z</time></trkpt><trkpt lat="43.1614767" lon="12.2823578"><ele>250.0</ele><time>2026-03-29T12:21:23.411Z</time></trkpt><trkpt lat="43.1614664" lon="12.2822667"><ele>250.0</ele><time>2026-03-29T12:22:28.412Z</time></trkpt><trkpt lat="43.161405" lon="12.2823153"><ele>250.0</ele><time>2026-03-29T12:23:01.412Z</time></trkpt><trkpt lat="43.1614363" lon="12.2823959"><ele>250.0</ele><time>2026-03-29T12:23:55.413Z</time></trkpt><trkpt lat="43.1614532" lon="12.2824838"><ele>250.0</ele><time>2026-03-29T12:24:03.412Z</time></trkpt><trkpt lat="43.1614835" lon="12.2825683"><ele>250.0</ele><time>2026-03-29T12:33:36.335Z</time></trkpt><trkpt lat="43.161537" lon="12.2826269"><ele>250.0</ele><time>2026-03-29T12:33:41.412Z</time></trkpt><trkpt lat="43.1615448" lon="12.2825076"><ele>249.99999999999997</ele><time>2026-03-29T12:37:35.472Z</time></trkpt><trkpt lat="43.1615075" lon="12.2826566"><ele>250.0</ele><time>2026-03-29T12:38:11.413Z</time></trkpt><trkpt lat="43.1614747" lon="12.2827409"><ele>250.0</ele><time>2026-03-29T12:40:04.413Z</time></trkpt><trkpt lat="43.1614464" lon="12.2828184"><ele>250.0</ele><time>2026-03-29T12:40:11.413Z</time></trkpt><trkpt lat="43.1614121" lon="12.2828938"><ele>249.99999999999997</ele><time>2026-03-29T12:40:23.368Z</time></trkpt><trkpt lat="43.1613647" lon="12.2829532"><ele>250.0</ele><time>2026-03-29T12:40:34.413Z</time></trkpt><trkpt lat="43.161352" lon="12.2830515"><ele>250.0</ele><time>2026-03-29T12:40:40.413Z</time></trkpt><trkpt lat="43.1613375" lon="12.2831408"><ele>250.0</ele><time>2026-03-29T12:40:45.412Z</time></trkpt><trkpt lat="43.1613308" lon="12.2832286"><ele>250.0</ele><time>2026-03-29T12:40:51.413Z</time></trkpt><trkpt lat="43.1613167" lon="12.2833247"><ele>250.0</ele><time>2026-03-29T12:40:57.412Z</time></trkpt><trkpt lat="43.1612778" lon="12.2834048"><ele>250.0</ele><time>2026-03-29T12:41:03.414Z</time></trkpt><trkpt lat="43.161234" lon="12.2834765"><ele>250.0</ele><time>2026-03-29T12:41:09.409Z</time></trkpt><trkpt lat="43.1611954" lon="12.2835456"><ele>250.0</ele><time>2026-03-29T12:41:15.413Z</time></trkpt><trkpt lat="43.1611581" lon="12.283617"><ele>250.0</ele><time>2026-03-29T12:41:21.413Z</time></trkpt><trkpt lat="43.1611186" lon="12.2836991"><ele>250.0</ele><time>2026-03-29T12:41:28.413Z</time></trkpt><trkpt lat="43.161057" lon="12.2837529"><ele>250.0</ele><time>2026-03-29T12:41:35.412Z</time></trkpt><trkpt lat="43.1610199" lon="12.283826"><ele>250.0</ele><time>2026-03-29T12:41:40.413Z</time></trkpt><trkpt lat="43.1610107" lon="12.2839126"><ele>250.0</ele><time>2026-03-29T12:41:45.413Z</time></trkpt><trkpt lat="43.1609995" lon="12.2840131"><ele>250.0</ele><time>2026-03-29T12:41:51.412Z</time></trkpt><trkpt lat="43.1609504" lon="12.2840735"><ele>250.0</ele><time>2026-03-29T12:41:57.414Z</time></trkpt><trkpt lat="43.1609088" lon="12.2841416"><ele>250.28571428571428</ele><time>2026-03-29T12:42:03.327Z</time></trkpt><trkpt lat="43.1608642" lon="12.2842214"><ele>250.57142857142858</ele><time>2026-03-29T12:42:10.414Z</time></trkpt><trkpt lat="43.1608325" lon="12.2843035"><ele>250.85714285714286</ele><time>2026-03-29T12:42:17.413Z</time></trkpt><trkpt lat="43.1608482" lon="12.284389"><ele>251.14285714285714</ele><time>2026-03-29T12:42:30.413Z</time></trkpt><trkpt lat="43.1608487" lon="12.2842987"><ele>251.42857142857144</ele><time>2026-03-29T12:42:50.328Z</time></trkpt><trkpt lat="43.160858" lon="12.2842026"><ele>251.71428571428572</ele><time>2026-03-29T12:59:01.413Z</time></trkpt><trkpt lat="43.1608965" lon="12.2841214"><ele>252.0</ele><time>2026-03-29T12:59:43.413Z</time></trkpt><trkpt lat="43.1609461" lon="12.2840423"><ele>252.0</ele><time>2026-03-29T12:59:49.412Z</time></trkpt><trkpt lat="43.1610046" lon="12.2839823"><ele>252.0</ele><time>2026-03-29T12:59:54.413Z</time></trkpt><trkpt lat="43.1610666" lon="12.2840086"><ele>252.0</ele><time>2026-03-29T13:00:02.413Z</time></trkpt><trkpt lat="43.1610587" lon="12.284121"><ele>252.0</ele><time>2026-03-29T13:00:15.414Z</time></trkpt><trkpt lat="43.1610159" lon="12.2841983"><ele>252.0</ele><time>2026-03-29T13:00:17.412Z</time></trkpt><trkpt lat="43.1609751" lon="12.2843051"><ele>252.0</ele><time>2026-03-29T13:00:19.413Z</time></trkpt><trkpt lat="43.1609245" lon="12.284407"><ele>252.0</ele><time>2026-03-29T13:00:21.412Z</time></trkpt><trkpt lat="43.1608722" lon="12.284511"><ele>252.0</ele><time>2026-03-29T13:00:23.413Z</time></trkpt><trkpt lat="43.1608017" lon="12.2846562"><ele>252.0</ele><time>2026-03-29T13:00:26.093Z</time></trkpt><trkpt lat="43.1607563" lon="12.2847311"><ele>252.0</ele><time>2026-03-29T13:00:27.42Z</time></trkpt><trkpt lat="43.1606747" lon="12.2848465"><ele>252.0</ele><time>2026-03-29T13:00:29.42Z</time></trkpt><trkpt lat="43.1606354" lon="12.2849383"><ele>251.71428571428572</ele><time>2026-03-29T13:00:31.418Z</time></trkpt><trkpt lat="43.1605934" lon="12.2850153"><ele>251.42857142857144</ele><time>2026-03-29T13:00:32.421Z</time></trkpt><trkpt lat="43.1605496" lon="12.2850923"><ele>251.14285714285714</ele><time>2026-03-29T13:00:33.421Z</time></trkpt><trkpt lat="43.1605095" lon="12.2851637"><ele>250.85714285714286</ele><time>2026-03-29T13:00:34.421Z</time></trkpt><trkpt lat="43.1604726" lon="12.2852407"><ele>250.57142857142858</ele><time>2026-03-29T13:00:35.421Z</time></trkpt><trkpt lat="43.1604356" lon="12.2853206"><ele>250.28571428571428</ele><time>2026-03-29T13:00:36.42Z</time></trkpt><trkpt lat="43.1604027" lon="12.2854057"><ele>250.0</ele><time>2026-03-29T13:00:37.421Z</time></trkpt><trkpt lat="43.1603676" lon="12.2854888"><ele>250.0</ele><time>2026-03-29T13:00:38.421Z</time></trkpt><trkpt lat="43.1603327" lon="12.285573"><ele>250.0</ele><time>2026-03-29T13:00:39.421Z</time></trkpt><trkpt lat="43.1602971" lon="12.2856592"><ele>250.0</ele><time>2026-03-29T13:00:40.42Z</time></trkpt><trkpt lat="43.1602632" lon="12.2857418"><ele>250.0</ele><time>2026-03-29T13:00:41.421Z</time></trkpt><trkpt lat="43.1602257" lon="12.2858213"><ele>250.0</ele><time>2026-03-29T13:00:42.421Z</time></trkpt><trkpt lat="43.1601974" lon="12.2859098"><ele>250.0</ele><time>2026-03-29T13:00:43.421Z</time></trkpt><trkpt lat="43.1601759" lon="12.2859933"><ele>250.0</ele><time>2026-03-29T13:00:44.421Z</time></trkpt><trkpt lat="43.1601449" lon="12.2860759"><ele>250.16666666666666</ele><time>2026-03-29T13:00:45.421Z</time></trkpt><trkpt lat="43.1601163" lon="12.2861589"><ele>250.33333333333331</ele><time>2026-03-29T13:00:46.421Z</time></trkpt><trkpt lat="43.1600596" lon="12.2862868"><ele>250.5</ele><time>2026-03-29T13:00:48.421Z</time></trkpt><trkpt lat="43.1600023" lon="12.286377"><ele>250.66666666666669</ele><time>2026-03-29T13:00:50.421Z</time></trkpt><trkpt lat="43.1599443" lon="12.2864195"><ele>250.83333333333334</ele><time>2026-03-29T13:00:52.421Z</time></trkpt><trkpt lat="43.1598809" lon="12.2863873"><ele>251.0</ele><time>2026-03-29T13:00:54.421Z</time></trkpt><trkpt lat="43.1598185" lon="12.2863161"><ele>252.00000000000003</ele><time>2026-03-29T13:00:56.421Z</time></trkpt><trkpt lat="43.1597335" lon="12.2862353"><ele>253.0</ele><time>2026-03-29T13:00:58.419Z</time></trkpt><trkpt lat="43.1596341" lon="12.2861385"><ele>254.0</ele><time>2026-03-29T13:01:00.42Z</time></trkpt><trkpt lat="43.1595814" lon="12.2860875"><ele>255.0</ele><time>2026-03-29T13:01:01.42Z</time></trkpt><trkpt lat="43.1595246" lon="12.2860302"><ele>256.0</ele><time>2026-03-29T13:01:02.42Z</time></trkpt><trkpt lat="43.1594648" lon="12.2859751"><ele>257.0</ele><time>2026-03-29T13:01:03.421Z</time></trkpt><trkpt lat="43.1594037" lon="12.2859166"><ele>257.0</ele><time>2026-03-29T13:01:04.418Z</time></trkpt><trkpt lat="43.1593391" lon="12.2858522"><ele>257.0</ele><time>2026-03-29T13:01:05.419Z</time></trkpt><trkpt lat="43.1592718" lon="12.285789"><ele>257.0</ele><time>2026-03-29T13:01:06.421Z</time></trkpt><trkpt lat="43.1592052" lon="12.2857223"><ele>257.0</ele><time>2026-03-29T13:01:07.421Z</time></trkpt><trkpt lat="43.1591362" lon="12.2856533"><ele>257.0</ele><time>2026-03-29T13:01:08.421Z</time></trkpt><trkpt lat="43.1590666" lon="12.2855894"><ele>257.0</ele><time>2026-03-29T13:01:09.42Z</time></trkpt><trkpt lat="43.1589964" lon="12.2855219"><ele>257.0</ele><time>2026-03-29T13:01:10.42Z</time></trkpt><trkpt lat="43.1589262" lon="12.2854532"><ele>257.0</ele><time>2026-03-29T13:01:11.421Z</time></trkpt><trkpt lat="43.1588557" lon="12.2853862"><ele>257.0</ele><time>2026-03-29T13:01:12.42Z</time></trkpt><trkpt lat="43.1587885" lon="12.2853205"><ele>257.0</ele><time>2026-03-29T13:01:13.42Z</time></trkpt><trkpt lat="43.1587185" lon="12.2852485"><ele>257.0</ele><time>2026-03-29T13:01:14.42Z</time></trkpt><trkpt lat="43.1586482" lon="12.2851747"><ele>257.0</ele><time>2026-03-29T13:01:15.418Z</time></trkpt><trkpt lat="43.1585759" lon="12.2851015"><ele>257.0</ele><time>2026-03-29T13:01:16.42Z</time></trkpt><trkpt lat="43.1585032" lon="12.2850268"><ele>257.0</ele><time>2026-03-29T13:01:17.42Z</time></trkpt><trkpt lat="43.1584309" lon="12.2849595"><ele>257.0</ele><time>2026-03-29T13:01:18.421Z</time></trkpt><trkpt lat="43.1583553" lon="12.2848936"><ele>257.0</ele><time>2026-03-29T13:01:19.42Z</time></trkpt><trkpt lat="43.1582779" lon="12.284837"><ele>257.0</ele><time>2026-03-29T13:01:20.42Z</time></trkpt><trkpt lat="43.1581918" lon="12.2847912"><ele>257.0</ele><time>2026-03-29T13:01:21.419Z</time></trkpt><trkpt lat="43.1581058" lon="12.2847521"><ele>255.6</ele><time>2026-03-29T13:01:22.421Z</time></trkpt><trkpt lat="43.1580154" lon="12.284716"><ele>254.2</ele><time>2026-03-29T13:01:23.42Z</time></trkpt><trkpt lat="43.1579234" lon="12.2846844"><ele>252.8</ele><time>2026-03-29T13:01:24.421Z</time></trkpt><trkpt lat="43.1578306" lon="12.2846526"><ele>251.4</ele><time>2026-03-29T13:01:25.421Z</time></trkpt><trkpt lat="43.1577361" lon="12.2846216"><ele>250.0</ele><time>2026-03-29T13:01:26.421Z</time></trkpt><trkpt lat="43.157641" lon="12.2845878"><ele>250.0</ele><time>2026-03-29T13:01:27.42Z</time></trkpt><trkpt lat="43.1575501" lon="12.2845569"><ele>250.0</ele><time>2026-03-29T13:01:28.421Z</time></trkpt><trkpt lat="43.1574587" lon="12.2845281"><ele>250.0</ele><time>2026-03-29T13:01:29.42Z</time></trkpt><trkpt lat="43.1573676" lon="12.2844995"><ele>250.0</ele><time>2026-03-29T13:01:30.421Z</time></trkpt><trkpt lat="43.1572747" lon="12.2844705"><ele>250.0</ele><time>2026-03-29T13:01:31.421Z</time></trkpt><trkpt lat="43.1571806" lon="12.2844414"><ele>250.4</ele><time>2026-03-29T13:01:32.42Z</time></trkpt><trkpt lat="43.1570853" lon="12.2844107"><ele>250.8</ele><time>2026-03-29T13:01:33.421Z</time></trkpt><trkpt lat="43.1569894" lon="12.2843762"><ele>251.2</ele><time>2026-03-29T13:01:34.421Z</time></trkpt><trkpt lat="43.1568894" lon="12.2843431"><ele>251.6</ele><time>2026-03-29T13:01:35.42Z</time></trkpt><trkpt lat="43.1567871" lon="12.2842992"><ele>252.0</ele><time>2026-03-29T13:01:36.421Z</time></trkpt><trkpt lat="43.1566888" lon="12.284257"><ele>252.0</ele><time>2026-03-29T13:01:37.421Z</time></trkpt><trkpt lat="43.1565924" lon="12.2842148"><ele>252.0</ele><time>2026-03-29T13:01:38.421Z</time></trkpt><trkpt lat="43.1564937" lon="12.2841711"><ele>252.0</ele><time>2026-03-29T13:01:39.42Z</time></trkpt><trkpt lat="43.1563947" lon="12.2841311"><ele>252.0</ele><time>2026-03-29T13:01:40.42Z</time></trkpt><trkpt lat="43.1562951" lon="12.2840803"><ele>252.0</ele><time>2026-03-29T13:01:41.42Z</time></trkpt><trkpt lat="43.1561953" lon="12.2840319"><ele>251.8</ele><time>2026-03-29T13:01:42.42Z</time></trkpt><trkpt lat="43.1560897" lon="12.2839885"><ele>251.6</ele><time>2026-03-29T13:01:43.421Z</time></trkpt><trkpt lat="43.1559864" lon="12.283941"><ele>251.40000000000003</ele><time>2026-03-29T13:01:44.421Z</time></trkpt><trkpt lat="43.1558769" lon="12.2838988"><ele>251.20000000000002</ele><time>2026-03-29T13:01:45.42Z</time></trkpt><trkpt lat="43.1557681" lon="12.2838642"><ele>251.0</ele><time>2026-03-29T13:01:46.421Z</time></trkpt><trkpt lat="43.1556552" lon="12.2838556"><ele>249.75</ele><time>2026-03-29T13:01:47.421Z</time></trkpt><trkpt lat="43.1555359" lon="12.2838535"><ele>248.5</ele><time>2026-03-29T13:01:48.421Z</time></trkpt><trkpt lat="43.1554163" lon="12.2838579"><ele>247.25</ele><time>2026-03-29T13:01:49.42Z</time></trkpt><trkpt lat="43.1553026" lon="12.2838843"><ele>246.0</ele><time>2026-03-29T13:01:50.42Z</time></trkpt><trkpt lat="43.1551888" lon="12.2839134"><ele>246.4</ele><time>2026-03-29T13:01:51.42Z</time></trkpt><trkpt lat="43.1550804" lon="12.2839442"><ele>246.8</ele><time>2026-03-29T13:01:52.42Z</time></trkpt><trkpt lat="43.154971" lon="12.2839721"><ele>247.20000000000002</ele><time>2026-03-29T13:01:53.42Z</time></trkpt><trkpt lat="43.1548699" lon="12.2839965"><ele>247.60000000000002</ele><time>2026-03-29T13:01:54.421Z</time></trkpt><trkpt lat="43.1547677" lon="12.2840163"><ele>248.0</ele><time>2026-03-29T13:01:55.421Z</time></trkpt><trkpt lat="43.1546684" lon="12.2840421"><ele>248.0</ele><time>2026-03-29T13:01:56.421Z</time></trkpt><trkpt lat="43.1545719" lon="12.2840693"><ele>248.0</ele><time>2026-03-29T13:01:57.421Z</time></trkpt><trkpt lat="43.1544808" lon="12.2841027"><ele>248.0</ele><time>2026-03-29T13:01:58.42Z</time></trkpt><trkpt lat="43.1543876" lon="12.2841263"><ele>248.0</ele><time>2026-03-29T13:01:59.42Z</time></trkpt><trkpt lat="43.154296" lon="12.2841474"><ele>248.0</ele><time>2026-03-29T13:02:00.42Z</time></trkpt><trkpt lat="43.1542003" lon="12.2841779"><ele>248.0</ele><time>2026-03-29T13:02:01.421Z</time></trkpt><trkpt lat="43.1540984" lon="12.2841992"><ele>248.0</ele><time>2026-03-29T13:02:02.421Z</time></trkpt><trkpt lat="43.1539998" lon="12.2842248"><ele>248.0</ele><time>2026-03-29T13:02:03.42Z</time></trkpt><trkpt lat="43.1539044" lon="12.2842467"><ele>248.0</ele><time>2026-03-29T13:02:04.421Z</time></trkpt><trkpt lat="43.1538121" lon="12.2842727"><ele>248.0</ele><time>2026-03-29T13:02:05.421Z</time></trkpt><trkpt lat="43.1537197" lon="12.2843034"><ele>247.60000000000002</ele><time>2026-03-29T13:02:06.421Z</time></trkpt><trkpt lat="43.153624" lon="12.284341"><ele>247.20000000000002</ele><time>2026-03-29T13:02:07.42Z</time></trkpt><trkpt lat="43.1535297" lon="12.284363"><ele>246.8</ele><time>2026-03-29T13:02:08.418Z</time></trkpt><trkpt lat="43.153432" lon="12.284392"><ele>246.4</ele><time>2026-03-29T13:02:09.419Z</time></trkpt><trkpt lat="43.1533419" lon="12.2844272"><ele>246.0</ele><time>2026-03-29T13:02:10.421Z</time></trkpt><trkpt lat="43.1532498" lon="12.2844573"><ele>246.4</ele><time>2026-03-29T13:02:11.42Z</time></trkpt><trkpt lat="43.1531644" lon="12.2844931"><ele>246.8</ele><time>2026-03-29T13:02:12.42Z</time></trkpt><trkpt lat="43.1530708" lon="12.2845262"><ele>247.20000000000002</ele><time>2026-03-29T13:02:13.419Z</time></trkpt><trkpt lat="43.1529752" lon="12.2845534"><ele>247.60000000000002</ele><time>2026-03-29T13:02:14.421Z</time></trkpt><trkpt lat="43.1528777" lon="12.2845854"><ele>248.0</ele><time>2026-03-29T13:02:15.42Z</time></trkpt><trkpt lat="43.1527804" lon="12.2846206"><ele>248.0</ele><time>2026-03-29T13:02:16.421Z</time></trkpt><trkpt lat="43.1526813" lon="12.2846424"><ele>248.0</ele><time>2026-03-29T13:02:17.42Z</time></trkpt><trkpt lat="43.1525827" lon="12.2846704"><ele>248.0</ele><time>2026-03-29T13:02:18.42Z</time></trkpt><trkpt lat="43.1524849" lon="12.284694"><ele>248.0</ele><time>2026-03-29T13:02:19.421Z</time></trkpt><trkpt lat="43.1523893" lon="12.2847184"><ele>248.0</ele><time>2026-03-29T13:02:20.421Z</time></trkpt><trkpt lat="43.1522948" lon="12.2847445"><ele>248.0</ele><time>2026-03-29T13:02:21.421Z</time></trkpt><trkpt lat="43.1522026" lon="12.2847759"><ele>248.0</ele><time>2026-03-29T13:02:22.42Z</time></trkpt><trkpt lat="43.1521128" lon="12.284814"><ele>248.0</ele><time>2026-03-29T13:02:23.421Z</time></trkpt><trkpt lat="43.1520242" lon="12.2848454"><ele>248.0</ele><time>2026-03-29T13:02:24.42Z</time></trkpt><trkpt lat="43.1519415" lon="12.2848898"><ele>248.0</ele><time>2026-03-29T13:02:25.421Z</time></trkpt><trkpt lat="43.1518557" lon="12.2849368"><ele>248.0</ele><time>2026-03-29T13:02:26.42Z</time></trkpt><trkpt lat="43.1517786" lon="12.2849911"><ele>248.0</ele><time>2026-03-29T13:02:27.419Z</time></trkpt><trkpt lat="43.1516925" lon="12.2850454"><ele>248.0</ele><time>2026-03-29T13:02:28.421Z</time></trkpt><trkpt lat="43.1516083" lon="12.2850973"><ele>248.0</ele><time>2026-03-29T13:02:29.421Z</time></trkpt><trkpt lat="43.1515205" lon="12.2851517"><ele>248.0</ele><time>2026-03-29T13:02:30.421Z</time></trkpt><trkpt lat="43.1514312" lon="12.2852063"><ele>247.8</ele><time>2026-03-29T13:02:31.421Z</time></trkpt><trkpt lat="43.1513408" lon="12.2852674"><ele>247.60000000000002</ele><time>2026-03-29T13:02:32.421Z</time></trkpt><trkpt lat="43.1512484" lon="12.2853193"><ele>247.39999999999998</ele><time>2026-03-29T13:02:33.42Z</time></trkpt><trkpt lat="43.1511555" lon="12.285378"><ele>247.2</ele><time>2026-03-29T13:02:34.42Z</time></trkpt><trkpt lat="43.1510632" lon="12.2854347"><ele>247.0</ele><time>2026-03-29T13:02:35.421Z</time></trkpt><trkpt lat="43.1509712" lon="12.2854865"><ele>247.0</ele><time>2026-03-29T13:02:36.421Z</time></trkpt><trkpt lat="43.1508785" lon="12.2855379"><ele>247.0</ele><time>2026-03-29T13:02:37.42Z</time></trkpt><trkpt lat="43.1507879" lon="12.2855942"><ele>247.0</ele><time>2026-03-29T13:02:38.42Z</time></trkpt><trkpt lat="43.1506991" lon="12.285645"><ele>247.0</ele><time>2026-03-29T13:02:39.421Z</time></trkpt><trkpt lat="43.1506183" lon="12.2857067"><ele>247.0</ele><time>2026-03-29T13:02:40.421Z</time></trkpt><trkpt lat="43.1505229" lon="12.2857632"><ele>246.39999999999998</ele><time>2026-03-29T13:02:41.42Z</time></trkpt><trkpt lat="43.1504265" lon="12.2858126"><ele>245.79999999999998</ele><time>2026-03-29T13:02:42.421Z</time></trkpt><trkpt lat="43.1503279" lon="12.2858586"><ele>245.2</ele><time>2026-03-29T13:02:43.421Z</time></trkpt><trkpt lat="43.1502284" lon="12.2858988"><ele>244.6</ele><time>2026-03-29T13:02:44.42Z</time></trkpt><trkpt lat="43.1501251" lon="12.2859286"><ele>244.0</ele><time>2026-03-29T13:02:45.42Z</time></trkpt><trkpt lat="43.1500288" lon="12.2859496"><ele>243.99999999999997</ele><time>2026-03-29T13:02:46.42Z</time></trkpt><trkpt lat="43.1499433" lon="12.2859622"><ele>244.0</ele><time>2026-03-29T13:02:47.421Z</time></trkpt><trkpt lat="43.1498729" lon="12.2859736"><ele>244.0</ele><time>2026-03-29T13:02:48.421Z</time></trkpt><trkpt lat="43.1497952" lon="12.2859759"><ele>244.0</ele><time>2026-03-29T13:02:50.421Z</time></trkpt><trkpt lat="43.1497066" lon="12.2859739"><ele>243.99999999999997</ele><time>2026-03-29T13:02:55.421Z</time></trkpt><trkpt lat="43.1496014" lon="12.2859797"><ele>244.0</ele><time>2026-03-29T13:02:57.421Z</time></trkpt><trkpt lat="43.1494729" lon="12.2859782"><ele>244.0</ele><time>2026-03-29T13:02:59.421Z</time></trkpt><trkpt lat="43.1493926" lon="12.2859645"><ele>243.99999999999997</ele><time>2026-03-29T13:03:00.421Z</time></trkpt><trkpt lat="43.1493071" lon="12.285949"><ele>243.99999999999997</ele><time>2026-03-29T13:03:01.421Z</time></trkpt><trkpt lat="43.1492158" lon="12.2859339"><ele>244.0</ele><time>2026-03-29T13:03:02.421Z</time></trkpt><trkpt lat="43.149118" lon="12.2859182"><ele>244.0</ele><time>2026-03-29T13:03:03.419Z</time></trkpt><trkpt lat="43.1490176" lon="12.2859047"><ele>243.79999999999998</ele><time>2026-03-29T13:03:04.421Z</time></trkpt><trkpt lat="43.1489117" lon="12.2858913"><ele>243.59999999999997</ele><time>2026-03-29T13:03:05.419Z</time></trkpt><trkpt lat="43.1488038" lon="12.285875"><ele>243.4</ele><time>2026-03-29T13:03:06.42Z</time></trkpt><trkpt lat="43.1486966" lon="12.285865"><ele>243.2</ele><time>2026-03-29T13:03:07.421Z</time></trkpt><trkpt lat="43.1485856" lon="12.2858513"><ele>243.0</ele><time>2026-03-29T13:03:08.421Z</time></trkpt><trkpt lat="43.1484629" lon="12.2858337"><ele>243.0</ele><time>2026-03-29T13:03:09.42Z</time></trkpt><trkpt lat="43.1483442" lon="12.2858192"><ele>243.0</ele><time>2026-03-29T13:03:10.421Z</time></trkpt><trkpt lat="43.1482189" lon="12.2857949"><ele>243.0</ele><time>2026-03-29T13:03:11.421Z</time></trkpt><trkpt lat="43.1480935" lon="12.2857823"><ele>243.0</ele><time>2026-03-29T13:03:12.42Z</time></trkpt><trkpt lat="43.1479673" lon="12.2857645"><ele>243.0</ele><time>2026-03-29T13:03:13.421Z</time></trkpt><trkpt lat="43.1478407" lon="12.2857568"><ele>243.0</ele><time>2026-03-29T13:03:14.421Z</time></trkpt><trkpt lat="43.1477147" lon="12.2857398"><ele>243.0</ele><time>2026-03-29T13:03:15.42Z</time></trkpt><trkpt lat="43.1475884" lon="12.2857266"><ele>243.0</ele><time>2026-03-29T13:03:16.421Z</time></trkpt><trkpt lat="43.1474664" lon="12.2857113"><ele>243.25</ele><time>2026-03-29T13:03:17.421Z</time></trkpt><trkpt lat="43.1473505" lon="12.2857044"><ele>243.5</ele><time>2026-03-29T13:03:18.421Z</time></trkpt><trkpt lat="43.1472349" lon="12.285701"><ele>243.75</ele><time>2026-03-29T13:03:19.421Z</time></trkpt><trkpt lat="43.1471243" lon="12.2857027"><ele>244.0</ele><time>2026-03-29T13:03:20.421Z</time></trkpt><trkpt lat="43.1470142" lon="12.2857039"><ele>244.0</ele><time>2026-03-29T13:03:21.42Z</time></trkpt><trkpt lat="43.1469022" lon="12.2857144"><ele>244.0</ele><time>2026-03-29T13:03:22.42Z</time></trkpt><trkpt lat="43.1468017" lon="12.2857469"><ele>244.0</ele><time>2026-03-29T13:03:23.419Z</time></trkpt><trkpt lat="43.1466863" lon="12.2857656"><ele>244.0</ele><time>2026-03-29T13:03:24.419Z</time></trkpt><trkpt lat="43.1466863" lon="12.2857656"><ele>244.0</ele><time>2026-03-29T13:03:24.419Z</time></trkpt></trkseg></trk></gpx>